<?xml version="1.0" encoding="UTF-8" standalone="no" ?>
<gpx xmlns="http://www.topografix.com/GPX/1/1" xmlns:xsi="http://www.w3.org/2001/XMLSchema-instance" xsi:schemaLocation="http://www.topografix.com/GPX/1/1 http://www.topografix.com/GPX/1/1/gpx.xsd" version="1.1" creator="VisuGPX - https://www.visugpx.com">
  <metadata>
    <name>Pers Jussy - groisy- reignier- pers Jussy</name>
    <desc><![CDATA[Pers Jussy - groisy- reignier- pers Jussy

Pers Jussy - groisy- reignier- pers Jussy]]></desc>
  </metadata>
  <wpt lat="46.02739" lon="6.19973">
    <ele>774</ele>
    <name><![CDATA[Photo]]></name>
    <cmt><![CDATA[Photo]]></cmt>
  </wpt>
  <wpt lat="46.02552" lon="6.17688">
    <ele>828</ele>
    <name><![CDATA[Waypoint]]></name>
    <cmt><![CDATA[Waypoint]]></cmt>
  </wpt>
  <wpt lat="46.12542" lon="6.22558">
    <ele>746</ele>
    <name><![CDATA[Waypoint]]></name>
    <cmt><![CDATA[Waypoint]]></cmt>
  </wpt>
  <wpt lat="46.11014" lon="6.22982">
    <ele>729</ele>
    <name><![CDATA[Photo]]></name>
    <cmt><![CDATA[Photo]]></cmt>
  </wpt>
  <trk>
    <name><![CDATA[Pers Jussy - groisy- reignier- pers Jussy]]></name>
    <cmt><![CDATA[Pers Jussy - groisy- reignier- pers Jussy]]></cmt>
    <desc><![CDATA[Pers Jussy - groisy- reignier- pers Jussy]]></desc>
    <trkseg>
      <trkpt lat="46.10081" lon="6.23461">
        <ele>728.866</ele>
        <time>2020-05-20T14:04:21Z</time>
      </trkpt>
      <trkpt lat="46.10087" lon="6.23458">
        <ele>729.029</ele>
        <time>2020-05-20T14:04:36Z</time>
      </trkpt>
      <trkpt lat="46.10094" lon="6.23457">
        <ele>728.721</ele>
        <time>2020-05-20T14:05:21Z</time>
      </trkpt>
      <trkpt lat="46.10091" lon="6.23462">
        <ele>728.508</ele>
        <time>2020-05-20T14:05:34Z</time>
      </trkpt>
      <trkpt lat="46.10089" lon="6.23468">
        <ele>728.76</ele>
        <time>2020-05-20T14:05:40Z</time>
      </trkpt>
      <trkpt lat="46.10088" lon="6.23475">
        <ele>729.515</ele>
        <time>2020-05-20T14:05:46Z</time>
      </trkpt>
      <trkpt lat="46.10087" lon="6.23482">
        <ele>729.282</ele>
        <time>2020-05-20T14:06:04Z</time>
      </trkpt>
      <trkpt lat="46.10086" lon="6.23488">
        <ele>729.997</ele>
        <time>2020-05-20T14:06:11Z</time>
      </trkpt>
      <trkpt lat="46.10083" lon="6.23482">
        <ele>729.761</ele>
        <time>2020-05-20T14:06:14Z</time>
      </trkpt>
      <trkpt lat="46.10085" lon="6.23476">
        <ele>729.744</ele>
        <time>2020-05-20T14:06:27Z</time>
      </trkpt>
      <trkpt lat="46.10093" lon="6.2348">
        <ele>729.134</ele>
        <time>2020-05-20T14:06:49Z</time>
      </trkpt>
      <trkpt lat="46.10101" lon="6.23487">
        <ele>729.47</ele>
        <time>2020-05-20T14:06:51Z</time>
      </trkpt>
      <trkpt lat="46.10105" lon="6.23492">
        <ele>729.661</ele>
        <time>2020-05-20T14:06:52Z</time>
      </trkpt>
      <trkpt lat="46.1011" lon="6.23497">
        <ele>729.821</ele>
        <time>2020-05-20T14:06:53Z</time>
      </trkpt>
      <trkpt lat="46.10116" lon="6.23502">
        <ele>730.013</ele>
        <time>2020-05-20T14:06:54Z</time>
      </trkpt>
      <trkpt lat="46.10121" lon="6.23509">
        <ele>730.008</ele>
        <time>2020-05-20T14:06:55Z</time>
      </trkpt>
      <trkpt lat="46.10126" lon="6.23514">
        <ele>730.01</ele>
        <time>2020-05-20T14:06:56Z</time>
      </trkpt>
      <trkpt lat="46.10132" lon="6.2352">
        <ele>729.825</ele>
        <time>2020-05-20T14:06:57Z</time>
      </trkpt>
      <trkpt lat="46.10134" lon="6.23529">
        <ele>729.812</ele>
        <time>2020-05-20T14:06:58Z</time>
      </trkpt>
      <trkpt lat="46.10138" lon="6.23537">
        <ele>729.557</ele>
        <time>2020-05-20T14:06:59Z</time>
      </trkpt>
      <trkpt lat="46.10127" lon="6.23541">
        <ele>729.371</ele>
        <time>2020-05-20T14:07:00Z</time>
      </trkpt>
      <trkpt lat="46.10117" lon="6.23541">
        <ele>729.394</ele>
        <time>2020-05-20T14:07:02Z</time>
      </trkpt>
      <trkpt lat="46.10112" lon="6.23536">
        <ele>729.694</ele>
        <time>2020-05-20T14:07:03Z</time>
      </trkpt>
      <trkpt lat="46.10107" lon="6.2353">
        <ele>730.01</ele>
        <time>2020-05-20T14:07:04Z</time>
      </trkpt>
      <trkpt lat="46.10103" lon="6.23525">
        <ele>730.392</ele>
        <time>2020-05-20T14:07:05Z</time>
      </trkpt>
      <trkpt lat="46.10097" lon="6.2352">
        <ele>730.773</ele>
        <time>2020-05-20T14:07:06Z</time>
      </trkpt>
      <trkpt lat="46.10091" lon="6.23514">
        <ele>731.02</ele>
        <time>2020-05-20T14:07:07Z</time>
      </trkpt>
      <trkpt lat="46.10085" lon="6.23506">
        <ele>731.308</ele>
        <time>2020-05-20T14:07:08Z</time>
      </trkpt>
      <trkpt lat="46.10078" lon="6.23498">
        <ele>731.723</ele>
        <time>2020-05-20T14:07:09Z</time>
      </trkpt>
      <trkpt lat="46.10072" lon="6.23491">
        <ele>732.188</ele>
        <time>2020-05-20T14:07:10Z</time>
      </trkpt>
      <trkpt lat="46.10065" lon="6.23483">
        <ele>732.445</ele>
        <time>2020-05-20T14:07:11Z</time>
      </trkpt>
      <trkpt lat="46.10058" lon="6.23476">
        <ele>732.83</ele>
        <time>2020-05-20T14:07:12Z</time>
      </trkpt>
      <trkpt lat="46.10051" lon="6.23471">
        <ele>733.214</ele>
        <time>2020-05-20T14:07:13Z</time>
      </trkpt>
      <trkpt lat="46.10044" lon="6.23468">
        <ele>733.477</ele>
        <time>2020-05-20T14:07:14Z</time>
      </trkpt>
      <trkpt lat="46.10037" lon="6.23467">
        <ele>733.757</ele>
        <time>2020-05-20T14:07:15Z</time>
      </trkpt>
      <trkpt lat="46.10029" lon="6.23468">
        <ele>734.083</ele>
        <time>2020-05-20T14:07:16Z</time>
      </trkpt>
      <trkpt lat="46.10023" lon="6.2347">
        <ele>734.245</ele>
        <time>2020-05-20T14:07:17Z</time>
      </trkpt>
      <trkpt lat="46.10017" lon="6.23474">
        <ele>734.547</ele>
        <time>2020-05-20T14:07:18Z</time>
      </trkpt>
      <trkpt lat="46.10013" lon="6.23479">
        <ele>734.911</ele>
        <time>2020-05-20T14:07:19Z</time>
      </trkpt>
      <trkpt lat="46.10007" lon="6.23489">
        <ele>735.708</ele>
        <time>2020-05-20T14:07:21Z</time>
      </trkpt>
      <trkpt lat="46.10002" lon="6.23497">
        <ele>736.198</ele>
        <time>2020-05-20T14:07:22Z</time>
      </trkpt>
      <trkpt lat="46.09999" lon="6.23509">
        <ele>736.533</ele>
        <time>2020-05-20T14:07:23Z</time>
      </trkpt>
      <trkpt lat="46.09998" lon="6.23523">
        <ele>737.07</ele>
        <time>2020-05-20T14:07:24Z</time>
      </trkpt>
      <trkpt lat="46.09999" lon="6.23538">
        <ele>737.545</ele>
        <time>2020-05-20T14:07:25Z</time>
      </trkpt>
      <trkpt lat="46.10003" lon="6.23554">
        <ele>738.049</ele>
        <time>2020-05-20T14:07:26Z</time>
      </trkpt>
      <trkpt lat="46.10009" lon="6.23568">
        <ele>738.682</ele>
        <time>2020-05-20T14:07:27Z</time>
      </trkpt>
      <trkpt lat="46.10015" lon="6.2358">
        <ele>739.462</ele>
        <time>2020-05-20T14:07:28Z</time>
      </trkpt>
      <trkpt lat="46.1002" lon="6.23592">
        <ele>740.128</ele>
        <time>2020-05-20T14:07:29Z</time>
      </trkpt>
      <trkpt lat="46.10025" lon="6.23606">
        <ele>740.887</ele>
        <time>2020-05-20T14:07:30Z</time>
      </trkpt>
      <trkpt lat="46.1003" lon="6.23619">
        <ele>741.642</ele>
        <time>2020-05-20T14:07:31Z</time>
      </trkpt>
      <trkpt lat="46.10035" lon="6.23634">
        <ele>742.426</ele>
        <time>2020-05-20T14:07:32Z</time>
      </trkpt>
      <trkpt lat="46.1004" lon="6.23644">
        <ele>743.208</ele>
        <time>2020-05-20T14:07:33Z</time>
      </trkpt>
      <trkpt lat="46.10043" lon="6.23653">
        <ele>743.922</ele>
        <time>2020-05-20T14:07:34Z</time>
      </trkpt>
      <trkpt lat="46.10046" lon="6.23662">
        <ele>744.597</ele>
        <time>2020-05-20T14:07:35Z</time>
      </trkpt>
      <trkpt lat="46.1005" lon="6.23674">
        <ele>744.824</ele>
        <time>2020-05-20T14:07:36Z</time>
      </trkpt>
      <trkpt lat="46.10056" lon="6.23688">
        <ele>745.199</ele>
        <time>2020-05-20T14:07:37Z</time>
      </trkpt>
      <trkpt lat="46.10062" lon="6.23703">
        <ele>745.363</ele>
        <time>2020-05-20T14:07:38Z</time>
      </trkpt>
      <trkpt lat="46.1007" lon="6.23719">
        <ele>745.646</ele>
        <time>2020-05-20T14:07:39Z</time>
      </trkpt>
      <trkpt lat="46.1008" lon="6.23734">
        <ele>746.156</ele>
        <time>2020-05-20T14:07:40Z</time>
      </trkpt>
      <trkpt lat="46.10092" lon="6.23748">
        <ele>746.752</ele>
        <time>2020-05-20T14:07:41Z</time>
      </trkpt>
      <trkpt lat="46.10104" lon="6.23762">
        <ele>747.398</ele>
        <time>2020-05-20T14:07:42Z</time>
      </trkpt>
      <trkpt lat="46.10118" lon="6.23776">
        <ele>748.015</ele>
        <time>2020-05-20T14:07:43Z</time>
      </trkpt>
      <trkpt lat="46.10132" lon="6.23789">
        <ele>748.426</ele>
        <time>2020-05-20T14:07:44Z</time>
      </trkpt>
      <trkpt lat="46.10145" lon="6.23799">
        <ele>748.408</ele>
        <time>2020-05-20T14:07:45Z</time>
      </trkpt>
      <trkpt lat="46.10158" lon="6.23811">
        <ele>748.763</ele>
        <time>2020-05-20T14:07:46Z</time>
      </trkpt>
      <trkpt lat="46.1017" lon="6.23823">
        <ele>748.788</ele>
        <time>2020-05-20T14:07:47Z</time>
      </trkpt>
      <trkpt lat="46.10183" lon="6.23832">
        <ele>748.765</ele>
        <time>2020-05-20T14:07:48Z</time>
      </trkpt>
      <trkpt lat="46.10195" lon="6.23844">
        <ele>748.54</ele>
        <time>2020-05-20T14:07:49Z</time>
      </trkpt>
      <trkpt lat="46.10207" lon="6.23856">
        <ele>748.344</ele>
        <time>2020-05-20T14:07:50Z</time>
      </trkpt>
      <trkpt lat="46.10218" lon="6.2387">
        <ele>748.277</ele>
        <time>2020-05-20T14:07:51Z</time>
      </trkpt>
      <trkpt lat="46.10229" lon="6.23884">
        <ele>747.967</ele>
        <time>2020-05-20T14:07:52Z</time>
      </trkpt>
      <trkpt lat="46.10241" lon="6.23897">
        <ele>747.643</ele>
        <time>2020-05-20T14:07:53Z</time>
      </trkpt>
      <trkpt lat="46.10253" lon="6.23912">
        <ele>747.436</ele>
        <time>2020-05-20T14:07:54Z</time>
      </trkpt>
      <trkpt lat="46.10265" lon="6.23925">
        <ele>747.117</ele>
        <time>2020-05-20T14:07:55Z</time>
      </trkpt>
      <trkpt lat="46.10278" lon="6.2394">
        <ele>746.518</ele>
        <time>2020-05-20T14:07:56Z</time>
      </trkpt>
      <trkpt lat="46.1029" lon="6.23953">
        <ele>745.908</ele>
        <time>2020-05-20T14:07:57Z</time>
      </trkpt>
      <trkpt lat="46.10302" lon="6.23966">
        <ele>745.937</ele>
        <time>2020-05-20T14:07:58Z</time>
      </trkpt>
      <trkpt lat="46.10312" lon="6.23977">
        <ele>746.272</ele>
        <time>2020-05-20T14:07:59Z</time>
      </trkpt>
      <trkpt lat="46.10324" lon="6.23988">
        <ele>746.269</ele>
        <time>2020-05-20T14:08:00Z</time>
      </trkpt>
      <trkpt lat="46.10336" lon="6.23999">
        <ele>746.714</ele>
        <time>2020-05-20T14:08:01Z</time>
      </trkpt>
      <trkpt lat="46.10347" lon="6.2401">
        <ele>747.538</ele>
        <time>2020-05-20T14:08:02Z</time>
      </trkpt>
      <trkpt lat="46.10359" lon="6.24021">
        <ele>747.961</ele>
        <time>2020-05-20T14:08:03Z</time>
      </trkpt>
      <trkpt lat="46.10371" lon="6.24033">
        <ele>747.921</ele>
        <time>2020-05-20T14:08:04Z</time>
      </trkpt>
      <trkpt lat="46.10383" lon="6.24043">
        <ele>747.937</ele>
        <time>2020-05-20T14:08:05Z</time>
      </trkpt>
      <trkpt lat="46.10394" lon="6.24053">
        <ele>748.679</ele>
        <time>2020-05-20T14:08:06Z</time>
      </trkpt>
      <trkpt lat="46.10404" lon="6.24062">
        <ele>748.805</ele>
        <time>2020-05-20T14:08:07Z</time>
      </trkpt>
      <trkpt lat="46.10413" lon="6.24071">
        <ele>748.825</ele>
        <time>2020-05-20T14:08:08Z</time>
      </trkpt>
      <trkpt lat="46.10421" lon="6.2408">
        <ele>748.808</ele>
        <time>2020-05-20T14:08:09Z</time>
      </trkpt>
      <trkpt lat="46.10429" lon="6.24089">
        <ele>748.771</ele>
        <time>2020-05-20T14:08:10Z</time>
      </trkpt>
      <trkpt lat="46.10436" lon="6.24096">
        <ele>747.846</ele>
        <time>2020-05-20T14:08:11Z</time>
      </trkpt>
      <trkpt lat="46.10442" lon="6.24103">
        <ele>747.733</ele>
        <time>2020-05-20T14:08:12Z</time>
      </trkpt>
      <trkpt lat="46.10447" lon="6.2411">
        <ele>747.718</ele>
        <time>2020-05-20T14:08:13Z</time>
      </trkpt>
      <trkpt lat="46.1045" lon="6.24118">
        <ele>748.082</ele>
        <time>2020-05-20T14:08:15Z</time>
      </trkpt>
      <trkpt lat="46.10457" lon="6.24127">
        <ele>749.035</ele>
        <time>2020-05-20T14:08:17Z</time>
      </trkpt>
      <trkpt lat="46.10463" lon="6.24132">
        <ele>749.135</ele>
        <time>2020-05-20T14:08:18Z</time>
      </trkpt>
      <trkpt lat="46.10472" lon="6.24135">
        <ele>749.281</ele>
        <time>2020-05-20T14:08:19Z</time>
      </trkpt>
      <trkpt lat="46.10482" lon="6.24141">
        <ele>749.298</ele>
        <time>2020-05-20T14:08:20Z</time>
      </trkpt>
      <trkpt lat="46.10493" lon="6.24148">
        <ele>749.315</ele>
        <time>2020-05-20T14:08:21Z</time>
      </trkpt>
      <trkpt lat="46.10506" lon="6.24156">
        <ele>749.626</ele>
        <time>2020-05-20T14:08:22Z</time>
      </trkpt>
      <trkpt lat="46.10519" lon="6.24164">
        <ele>749.608</ele>
        <time>2020-05-20T14:08:23Z</time>
      </trkpt>
      <trkpt lat="46.10533" lon="6.2417">
        <ele>749.633</ele>
        <time>2020-05-20T14:08:24Z</time>
      </trkpt>
      <trkpt lat="46.10549" lon="6.24176">
        <ele>749.558</ele>
        <time>2020-05-20T14:08:25Z</time>
      </trkpt>
      <trkpt lat="46.10566" lon="6.24182">
        <ele>749.115</ele>
        <time>2020-05-20T14:08:26Z</time>
      </trkpt>
      <trkpt lat="46.10582" lon="6.24186">
        <ele>748.99</ele>
        <time>2020-05-20T14:08:27Z</time>
      </trkpt>
      <trkpt lat="46.10598" lon="6.2419">
        <ele>748.274</ele>
        <time>2020-05-20T14:08:28Z</time>
      </trkpt>
      <trkpt lat="46.10614" lon="6.24194">
        <ele>747.797</ele>
        <time>2020-05-20T14:08:29Z</time>
      </trkpt>
      <trkpt lat="46.10629" lon="6.24198">
        <ele>747.277</ele>
        <time>2020-05-20T14:08:30Z</time>
      </trkpt>
      <trkpt lat="46.10645" lon="6.24202">
        <ele>747.173</ele>
        <time>2020-05-20T14:08:31Z</time>
      </trkpt>
      <trkpt lat="46.1066" lon="6.24206">
        <ele>746.223</ele>
        <time>2020-05-20T14:08:32Z</time>
      </trkpt>
      <trkpt lat="46.10675" lon="6.2421">
        <ele>745.683</ele>
        <time>2020-05-20T14:08:33Z</time>
      </trkpt>
      <trkpt lat="46.10691" lon="6.24214">
        <ele>745.311</ele>
        <time>2020-05-20T14:08:34Z</time>
      </trkpt>
      <trkpt lat="46.10706" lon="6.24219">
        <ele>744.608</ele>
        <time>2020-05-20T14:08:35Z</time>
      </trkpt>
      <trkpt lat="46.1072" lon="6.24227">
        <ele>744.246</ele>
        <time>2020-05-20T14:08:36Z</time>
      </trkpt>
      <trkpt lat="46.10734" lon="6.24239">
        <ele>743.181</ele>
        <time>2020-05-20T14:08:37Z</time>
      </trkpt>
      <trkpt lat="46.10746" lon="6.24253">
        <ele>742.298</ele>
        <time>2020-05-20T14:08:38Z</time>
      </trkpt>
      <trkpt lat="46.10757" lon="6.24268">
        <ele>741.633</ele>
        <time>2020-05-20T14:08:39Z</time>
      </trkpt>
      <trkpt lat="46.10768" lon="6.24285">
        <ele>740.687</ele>
        <time>2020-05-20T14:08:40Z</time>
      </trkpt>
      <trkpt lat="46.10777" lon="6.24302">
        <ele>739.79</ele>
        <time>2020-05-20T14:08:41Z</time>
      </trkpt>
      <trkpt lat="46.10786" lon="6.24321">
        <ele>739.31</ele>
        <time>2020-05-20T14:08:42Z</time>
      </trkpt>
      <trkpt lat="46.10794" lon="6.24338">
        <ele>738.836</ele>
        <time>2020-05-20T14:08:43Z</time>
      </trkpt>
      <trkpt lat="46.10801" lon="6.24357">
        <ele>737.836</ele>
        <time>2020-05-20T14:08:44Z</time>
      </trkpt>
      <trkpt lat="46.10807" lon="6.24377">
        <ele>737.217</ele>
        <time>2020-05-20T14:08:45Z</time>
      </trkpt>
      <trkpt lat="46.10812" lon="6.24397">
        <ele>736.418</ele>
        <time>2020-05-20T14:08:46Z</time>
      </trkpt>
      <trkpt lat="46.10816" lon="6.24417">
        <ele>735.408</ele>
        <time>2020-05-20T14:08:47Z</time>
      </trkpt>
      <trkpt lat="46.10819" lon="6.24437">
        <ele>734.537</ele>
        <time>2020-05-20T14:08:48Z</time>
      </trkpt>
      <trkpt lat="46.10822" lon="6.24457">
        <ele>733.352</ele>
        <time>2020-05-20T14:08:49Z</time>
      </trkpt>
      <trkpt lat="46.10825" lon="6.24479">
        <ele>732.129</ele>
        <time>2020-05-20T14:08:50Z</time>
      </trkpt>
      <trkpt lat="46.10825" lon="6.245">
        <ele>731.414</ele>
        <time>2020-05-20T14:08:51Z</time>
      </trkpt>
      <trkpt lat="46.10825" lon="6.24519">
        <ele>730.368</ele>
        <time>2020-05-20T14:08:52Z</time>
      </trkpt>
      <trkpt lat="46.10825" lon="6.24538">
        <ele>729.361</ele>
        <time>2020-05-20T14:08:53Z</time>
      </trkpt>
      <trkpt lat="46.10824" lon="6.24557">
        <ele>728.891</ele>
        <time>2020-05-20T14:08:54Z</time>
      </trkpt>
      <trkpt lat="46.10824" lon="6.24573">
        <ele>728.427</ele>
        <time>2020-05-20T14:08:55Z</time>
      </trkpt>
      <trkpt lat="46.10824" lon="6.24588">
        <ele>727.667</ele>
        <time>2020-05-20T14:08:56Z</time>
      </trkpt>
      <trkpt lat="46.10824" lon="6.24599">
        <ele>727.081</ele>
        <time>2020-05-20T14:08:57Z</time>
      </trkpt>
      <trkpt lat="46.10823" lon="6.24608">
        <ele>726.419</ele>
        <time>2020-05-20T14:08:58Z</time>
      </trkpt>
      <trkpt lat="46.10823" lon="6.24616">
        <ele>725.908</ele>
        <time>2020-05-20T14:08:59Z</time>
      </trkpt>
      <trkpt lat="46.10822" lon="6.24626">
        <ele>724.83</ele>
        <time>2020-05-20T14:09:01Z</time>
      </trkpt>
      <trkpt lat="46.10822" lon="6.24635">
        <ele>723.925</ele>
        <time>2020-05-20T14:09:03Z</time>
      </trkpt>
      <trkpt lat="46.10822" lon="6.24642">
        <ele>723.862</ele>
        <time>2020-05-20T14:09:34Z</time>
      </trkpt>
      <trkpt lat="46.10822" lon="6.24652">
        <ele>723.817</ele>
        <time>2020-05-20T14:09:35Z</time>
      </trkpt>
      <trkpt lat="46.10821" lon="6.24663">
        <ele>723.841</ele>
        <time>2020-05-20T14:09:36Z</time>
      </trkpt>
      <trkpt lat="46.1082" lon="6.24678">
        <ele>723.864</ele>
        <time>2020-05-20T14:09:37Z</time>
      </trkpt>
      <trkpt lat="46.10819" lon="6.24693">
        <ele>723.844</ele>
        <time>2020-05-20T14:09:38Z</time>
      </trkpt>
      <trkpt lat="46.10817" lon="6.24711">
        <ele>723.69</ele>
        <time>2020-05-20T14:09:39Z</time>
      </trkpt>
      <trkpt lat="46.10815" lon="6.2473">
        <ele>723.447</ele>
        <time>2020-05-20T14:09:40Z</time>
      </trkpt>
      <trkpt lat="46.10812" lon="6.24751">
        <ele>723.029</ele>
        <time>2020-05-20T14:09:41Z</time>
      </trkpt>
      <trkpt lat="46.1081" lon="6.2477">
        <ele>722.821</ele>
        <time>2020-05-20T14:09:42Z</time>
      </trkpt>
      <trkpt lat="46.10808" lon="6.24789">
        <ele>722.608</ele>
        <time>2020-05-20T14:09:43Z</time>
      </trkpt>
      <trkpt lat="46.10807" lon="6.24808">
        <ele>722.328</ele>
        <time>2020-05-20T14:09:44Z</time>
      </trkpt>
      <trkpt lat="46.10807" lon="6.24826">
        <ele>721.913</ele>
        <time>2020-05-20T14:09:45Z</time>
      </trkpt>
      <trkpt lat="46.10808" lon="6.24842">
        <ele>721.57</ele>
        <time>2020-05-20T14:09:46Z</time>
      </trkpt>
      <trkpt lat="46.10809" lon="6.24856">
        <ele>720.855</ele>
        <time>2020-05-20T14:09:47Z</time>
      </trkpt>
      <trkpt lat="46.1081" lon="6.24868">
        <ele>719.939</ele>
        <time>2020-05-20T14:09:48Z</time>
      </trkpt>
      <trkpt lat="46.10811" lon="6.24882">
        <ele>719.072</ele>
        <time>2020-05-20T14:09:49Z</time>
      </trkpt>
      <trkpt lat="46.10814" lon="6.24896">
        <ele>718.262</ele>
        <time>2020-05-20T14:09:50Z</time>
      </trkpt>
      <trkpt lat="46.10818" lon="6.24913">
        <ele>717.318</ele>
        <time>2020-05-20T14:09:51Z</time>
      </trkpt>
      <trkpt lat="46.10821" lon="6.24934">
        <ele>716.567</ele>
        <time>2020-05-20T14:09:52Z</time>
      </trkpt>
      <trkpt lat="46.10826" lon="6.24963">
        <ele>716.081</ele>
        <time>2020-05-20T14:09:53Z</time>
      </trkpt>
      <trkpt lat="46.10827" lon="6.24992">
        <ele>715.619</ele>
        <time>2020-05-20T14:09:54Z</time>
      </trkpt>
      <trkpt lat="46.10827" lon="6.25024">
        <ele>715.208</ele>
        <time>2020-05-20T14:09:55Z</time>
      </trkpt>
      <trkpt lat="46.10826" lon="6.25056">
        <ele>715.21</ele>
        <time>2020-05-20T14:09:56Z</time>
      </trkpt>
      <trkpt lat="46.10825" lon="6.25085">
        <ele>714.525</ele>
        <time>2020-05-20T14:09:57Z</time>
      </trkpt>
      <trkpt lat="46.10825" lon="6.25113">
        <ele>713.482</ele>
        <time>2020-05-20T14:09:58Z</time>
      </trkpt>
      <trkpt lat="46.10826" lon="6.25138">
        <ele>712.527</ele>
        <time>2020-05-20T14:09:59Z</time>
      </trkpt>
      <trkpt lat="46.10829" lon="6.25163">
        <ele>712.271</ele>
        <time>2020-05-20T14:10:00Z</time>
      </trkpt>
      <trkpt lat="46.10834" lon="6.25188">
        <ele>710.784</ele>
        <time>2020-05-20T14:10:01Z</time>
      </trkpt>
      <trkpt lat="46.10835" lon="6.2521">
        <ele>709.764</ele>
        <time>2020-05-20T14:10:02Z</time>
      </trkpt>
      <trkpt lat="46.10841" lon="6.25234">
        <ele>709.58</ele>
        <time>2020-05-20T14:10:03Z</time>
      </trkpt>
      <trkpt lat="46.10848" lon="6.25257">
        <ele>708.547</ele>
        <time>2020-05-20T14:10:04Z</time>
      </trkpt>
      <trkpt lat="46.10854" lon="6.25279">
        <ele>706.629</ele>
        <time>2020-05-20T14:10:05Z</time>
      </trkpt>
      <trkpt lat="46.10859" lon="6.25302">
        <ele>705.621</ele>
        <time>2020-05-20T14:10:06Z</time>
      </trkpt>
      <trkpt lat="46.10861" lon="6.25325">
        <ele>704.608</ele>
        <time>2020-05-20T14:10:07Z</time>
      </trkpt>
      <trkpt lat="46.10859" lon="6.25347">
        <ele>703.228</ele>
        <time>2020-05-20T14:10:08Z</time>
      </trkpt>
      <trkpt lat="46.10855" lon="6.25367">
        <ele>702.363</ele>
        <time>2020-05-20T14:10:09Z</time>
      </trkpt>
      <trkpt lat="46.10851" lon="6.25389">
        <ele>702.37</ele>
        <time>2020-05-20T14:10:10Z</time>
      </trkpt>
      <trkpt lat="46.10846" lon="6.25412">
        <ele>701.475</ele>
        <time>2020-05-20T14:10:11Z</time>
      </trkpt>
      <trkpt lat="46.10841" lon="6.25439">
        <ele>700.499</ele>
        <time>2020-05-20T14:10:12Z</time>
      </trkpt>
      <trkpt lat="46.10837" lon="6.25469">
        <ele>700.052</ele>
        <time>2020-05-20T14:10:13Z</time>
      </trkpt>
      <trkpt lat="46.10835" lon="6.25497">
        <ele>699.052</ele>
        <time>2020-05-20T14:10:14Z</time>
      </trkpt>
      <trkpt lat="46.10833" lon="6.25522">
        <ele>697.978</ele>
        <time>2020-05-20T14:10:15Z</time>
      </trkpt>
      <trkpt lat="46.1083" lon="6.25546">
        <ele>697.059</ele>
        <time>2020-05-20T14:10:16Z</time>
      </trkpt>
      <trkpt lat="46.10827" lon="6.2557">
        <ele>696.203</ele>
        <time>2020-05-20T14:10:17Z</time>
      </trkpt>
      <trkpt lat="46.10823" lon="6.25594">
        <ele>695.023</ele>
        <time>2020-05-20T14:10:18Z</time>
      </trkpt>
      <trkpt lat="46.10818" lon="6.25616">
        <ele>694.008</ele>
        <time>2020-05-20T14:10:19Z</time>
      </trkpt>
      <trkpt lat="46.10811" lon="6.25638">
        <ele>693.469</ele>
        <time>2020-05-20T14:10:20Z</time>
      </trkpt>
      <trkpt lat="46.10804" lon="6.25659">
        <ele>692.684</ele>
        <time>2020-05-20T14:10:21Z</time>
      </trkpt>
      <trkpt lat="46.10796" lon="6.2568">
        <ele>691.691</ele>
        <time>2020-05-20T14:10:22Z</time>
      </trkpt>
      <trkpt lat="46.10789" lon="6.25701">
        <ele>690.556</ele>
        <time>2020-05-20T14:10:23Z</time>
      </trkpt>
      <trkpt lat="46.10782" lon="6.25722">
        <ele>689.78</ele>
        <time>2020-05-20T14:10:24Z</time>
      </trkpt>
      <trkpt lat="46.10773" lon="6.25742">
        <ele>689.153</ele>
        <time>2020-05-20T14:10:25Z</time>
      </trkpt>
      <trkpt lat="46.10766" lon="6.25763">
        <ele>688.443</ele>
        <time>2020-05-20T14:10:26Z</time>
      </trkpt>
      <trkpt lat="46.1076" lon="6.25785">
        <ele>688.059</ele>
        <time>2020-05-20T14:10:27Z</time>
      </trkpt>
      <trkpt lat="46.10754" lon="6.25807">
        <ele>687.616</ele>
        <time>2020-05-20T14:10:28Z</time>
      </trkpt>
      <trkpt lat="46.10749" lon="6.2583">
        <ele>687.176</ele>
        <time>2020-05-20T14:10:29Z</time>
      </trkpt>
      <trkpt lat="46.10745" lon="6.25852">
        <ele>686.213</ele>
        <time>2020-05-20T14:10:30Z</time>
      </trkpt>
      <trkpt lat="46.1074" lon="6.25873">
        <ele>685.208</ele>
        <time>2020-05-20T14:10:31Z</time>
      </trkpt>
      <trkpt lat="46.10736" lon="6.25895">
        <ele>684.225</ele>
        <time>2020-05-20T14:10:32Z</time>
      </trkpt>
      <trkpt lat="46.10735" lon="6.25915">
        <ele>683.06</ele>
        <time>2020-05-20T14:10:33Z</time>
      </trkpt>
      <trkpt lat="46.10733" lon="6.25937">
        <ele>681.757</ele>
        <time>2020-05-20T14:10:34Z</time>
      </trkpt>
      <trkpt lat="46.10729" lon="6.25959">
        <ele>681.082</ele>
        <time>2020-05-20T14:10:35Z</time>
      </trkpt>
      <trkpt lat="46.10724" lon="6.25978">
        <ele>680.116</ele>
        <time>2020-05-20T14:10:36Z</time>
      </trkpt>
      <trkpt lat="46.10715" lon="6.26">
        <ele>679.059</ele>
        <time>2020-05-20T14:10:37Z</time>
      </trkpt>
      <trkpt lat="46.10704" lon="6.26023">
        <ele>678.369</ele>
        <time>2020-05-20T14:10:38Z</time>
      </trkpt>
      <trkpt lat="46.10689" lon="6.26042">
        <ele>677.875</ele>
        <time>2020-05-20T14:10:39Z</time>
      </trkpt>
      <trkpt lat="46.10673" lon="6.26062">
        <ele>676.789</ele>
        <time>2020-05-20T14:10:40Z</time>
      </trkpt>
      <trkpt lat="46.10659" lon="6.2608">
        <ele>675.706</ele>
        <time>2020-05-20T14:10:41Z</time>
      </trkpt>
      <trkpt lat="46.10646" lon="6.26098">
        <ele>675.426</ele>
        <time>2020-05-20T14:10:42Z</time>
      </trkpt>
      <trkpt lat="46.10633" lon="6.26114">
        <ele>674.508</ele>
        <time>2020-05-20T14:10:43Z</time>
      </trkpt>
      <trkpt lat="46.1062" lon="6.26128">
        <ele>673.732</ele>
        <time>2020-05-20T14:10:44Z</time>
      </trkpt>
      <trkpt lat="46.10608" lon="6.26144">
        <ele>673.057</ele>
        <time>2020-05-20T14:10:45Z</time>
      </trkpt>
      <trkpt lat="46.10597" lon="6.26161">
        <ele>672.624</ele>
        <time>2020-05-20T14:10:46Z</time>
      </trkpt>
      <trkpt lat="46.1059" lon="6.26182">
        <ele>671.669</ele>
        <time>2020-05-20T14:10:47Z</time>
      </trkpt>
      <trkpt lat="46.10587" lon="6.26207">
        <ele>670.653</ele>
        <time>2020-05-20T14:10:48Z</time>
      </trkpt>
      <trkpt lat="46.10583" lon="6.26231">
        <ele>669.636</ele>
        <time>2020-05-20T14:10:49Z</time>
      </trkpt>
      <trkpt lat="46.10572" lon="6.26249">
        <ele>668.596</ele>
        <time>2020-05-20T14:10:50Z</time>
      </trkpt>
      <trkpt lat="46.10559" lon="6.26264">
        <ele>667.392</ele>
        <time>2020-05-20T14:10:51Z</time>
      </trkpt>
      <trkpt lat="46.10543" lon="6.26277">
        <ele>666.595</ele>
        <time>2020-05-20T14:10:52Z</time>
      </trkpt>
      <trkpt lat="46.10526" lon="6.26291">
        <ele>665.849</ele>
        <time>2020-05-20T14:10:53Z</time>
      </trkpt>
      <trkpt lat="46.1051" lon="6.26305">
        <ele>665.423</ele>
        <time>2020-05-20T14:10:54Z</time>
      </trkpt>
      <trkpt lat="46.10495" lon="6.2632">
        <ele>664.608</ele>
        <time>2020-05-20T14:10:55Z</time>
      </trkpt>
      <trkpt lat="46.10482" lon="6.26333">
        <ele>663.643</ele>
        <time>2020-05-20T14:10:56Z</time>
      </trkpt>
      <trkpt lat="46.1047" lon="6.26348">
        <ele>662.668</ele>
        <time>2020-05-20T14:10:57Z</time>
      </trkpt>
      <trkpt lat="46.10459" lon="6.26365">
        <ele>661.415</ele>
        <time>2020-05-20T14:10:58Z</time>
      </trkpt>
      <trkpt lat="46.10452" lon="6.26381">
        <ele>660.14</ele>
        <time>2020-05-20T14:10:59Z</time>
      </trkpt>
      <trkpt lat="46.10445" lon="6.26394">
        <ele>659.274</ele>
        <time>2020-05-20T14:11:00Z</time>
      </trkpt>
      <trkpt lat="46.10439" lon="6.26407">
        <ele>658.387</ele>
        <time>2020-05-20T14:11:01Z</time>
      </trkpt>
      <trkpt lat="46.10434" lon="6.26414">
        <ele>657.577</ele>
        <time>2020-05-20T14:11:02Z</time>
      </trkpt>
      <trkpt lat="46.10428" lon="6.26418">
        <ele>657.083</ele>
        <time>2020-05-20T14:11:03Z</time>
      </trkpt>
      <trkpt lat="46.10422" lon="6.26418">
        <ele>656.427</ele>
        <time>2020-05-20T14:11:04Z</time>
      </trkpt>
      <trkpt lat="46.10416" lon="6.26416">
        <ele>655.668</ele>
        <time>2020-05-20T14:11:05Z</time>
      </trkpt>
      <trkpt lat="46.10411" lon="6.26413">
        <ele>655.314</ele>
        <time>2020-05-20T14:11:06Z</time>
      </trkpt>
      <trkpt lat="46.10403" lon="6.26413">
        <ele>655.208</ele>
        <time>2020-05-20T14:11:08Z</time>
      </trkpt>
      <trkpt lat="46.10403" lon="6.2642">
        <ele>656.636</ele>
        <time>2020-05-20T14:11:15Z</time>
      </trkpt>
      <trkpt lat="46.10396" lon="6.26418">
        <ele>656.731</ele>
        <time>2020-05-20T14:11:24Z</time>
      </trkpt>
      <trkpt lat="46.10387" lon="6.26417">
        <ele>656.778</ele>
        <time>2020-05-20T14:11:25Z</time>
      </trkpt>
      <trkpt lat="46.10377" lon="6.26418">
        <ele>656.833</ele>
        <time>2020-05-20T14:11:26Z</time>
      </trkpt>
      <trkpt lat="46.10364" lon="6.26418">
        <ele>657.247</ele>
        <time>2020-05-20T14:11:27Z</time>
      </trkpt>
      <trkpt lat="46.10346" lon="6.26417">
        <ele>657.84</ele>
        <time>2020-05-20T14:11:28Z</time>
      </trkpt>
      <trkpt lat="46.10328" lon="6.26417">
        <ele>658.88</ele>
        <time>2020-05-20T14:11:29Z</time>
      </trkpt>
      <trkpt lat="46.10309" lon="6.26418">
        <ele>660.196</ele>
        <time>2020-05-20T14:11:30Z</time>
      </trkpt>
      <trkpt lat="46.10289" lon="6.26417">
        <ele>661.894</ele>
        <time>2020-05-20T14:11:31Z</time>
      </trkpt>
      <trkpt lat="46.10267" lon="6.26415">
        <ele>663.557</ele>
        <time>2020-05-20T14:11:32Z</time>
      </trkpt>
      <trkpt lat="46.10244" lon="6.26416">
        <ele>665.522</ele>
        <time>2020-05-20T14:11:33Z</time>
      </trkpt>
      <trkpt lat="46.10221" lon="6.26412">
        <ele>667.608</ele>
        <time>2020-05-20T14:11:34Z</time>
      </trkpt>
      <trkpt lat="46.10202" lon="6.26411">
        <ele>670.143</ele>
        <time>2020-05-20T14:11:35Z</time>
      </trkpt>
      <trkpt lat="46.10186" lon="6.26413">
        <ele>672.298</ele>
        <time>2020-05-20T14:11:36Z</time>
      </trkpt>
      <trkpt lat="46.10171" lon="6.26416">
        <ele>674.155</ele>
        <time>2020-05-20T14:11:37Z</time>
      </trkpt>
      <trkpt lat="46.10155" lon="6.26422">
        <ele>676.08</ele>
        <time>2020-05-20T14:11:38Z</time>
      </trkpt>
      <trkpt lat="46.10141" lon="6.26434">
        <ele>677.264</ele>
        <time>2020-05-20T14:11:39Z</time>
      </trkpt>
      <trkpt lat="46.10128" lon="6.26447">
        <ele>678.257</ele>
        <time>2020-05-20T14:11:40Z</time>
      </trkpt>
      <trkpt lat="46.10114" lon="6.26461">
        <ele>679.427</ele>
        <time>2020-05-20T14:11:41Z</time>
      </trkpt>
      <trkpt lat="46.10098" lon="6.26469">
        <ele>680.553</ele>
        <time>2020-05-20T14:11:42Z</time>
      </trkpt>
      <trkpt lat="46.10082" lon="6.26476">
        <ele>681.663</ele>
        <time>2020-05-20T14:11:43Z</time>
      </trkpt>
      <trkpt lat="46.10067" lon="6.26479">
        <ele>682.244</ele>
        <time>2020-05-20T14:11:44Z</time>
      </trkpt>
      <trkpt lat="46.10051" lon="6.26479">
        <ele>683.118</ele>
        <time>2020-05-20T14:11:45Z</time>
      </trkpt>
      <trkpt lat="46.10034" lon="6.26473">
        <ele>684.108</ele>
        <time>2020-05-20T14:11:46Z</time>
      </trkpt>
      <trkpt lat="46.10016" lon="6.26468">
        <ele>684.91</ele>
        <time>2020-05-20T14:11:47Z</time>
      </trkpt>
      <trkpt lat="46.09997" lon="6.26464">
        <ele>686.395</ele>
        <time>2020-05-20T14:11:48Z</time>
      </trkpt>
      <trkpt lat="46.09977" lon="6.26459">
        <ele>688.342</ele>
        <time>2020-05-20T14:11:49Z</time>
      </trkpt>
      <trkpt lat="46.09958" lon="6.26452">
        <ele>689.827</ele>
        <time>2020-05-20T14:11:50Z</time>
      </trkpt>
      <trkpt lat="46.09939" lon="6.26442">
        <ele>691.541</ele>
        <time>2020-05-20T14:11:51Z</time>
      </trkpt>
      <trkpt lat="46.09923" lon="6.26431">
        <ele>693.294</ele>
        <time>2020-05-20T14:11:52Z</time>
      </trkpt>
      <trkpt lat="46.09906" lon="6.26423">
        <ele>694.584</ele>
        <time>2020-05-20T14:11:53Z</time>
      </trkpt>
      <trkpt lat="46.0989" lon="6.26415">
        <ele>695.79</ele>
        <time>2020-05-20T14:11:54Z</time>
      </trkpt>
      <trkpt lat="46.09874" lon="6.26407">
        <ele>696.714</ele>
        <time>2020-05-20T14:11:55Z</time>
      </trkpt>
      <trkpt lat="46.09858" lon="6.26398">
        <ele>697.254</ele>
        <time>2020-05-20T14:11:56Z</time>
      </trkpt>
      <trkpt lat="46.09842" lon="6.26389">
        <ele>697.709</ele>
        <time>2020-05-20T14:11:57Z</time>
      </trkpt>
      <trkpt lat="46.09827" lon="6.26377">
        <ele>698.608</ele>
        <time>2020-05-20T14:11:58Z</time>
      </trkpt>
      <trkpt lat="46.09813" lon="6.26367">
        <ele>699.555</ele>
        <time>2020-05-20T14:11:59Z</time>
      </trkpt>
      <trkpt lat="46.098" lon="6.26354">
        <ele>700.77</ele>
        <time>2020-05-20T14:12:00Z</time>
      </trkpt>
      <trkpt lat="46.09784" lon="6.26341">
        <ele>702.157</ele>
        <time>2020-05-20T14:12:01Z</time>
      </trkpt>
      <trkpt lat="46.09769" lon="6.26327">
        <ele>703.612</ele>
        <time>2020-05-20T14:12:02Z</time>
      </trkpt>
      <trkpt lat="46.09755" lon="6.26312">
        <ele>705.246</ele>
        <time>2020-05-20T14:12:03Z</time>
      </trkpt>
      <trkpt lat="46.0974" lon="6.26297">
        <ele>706.429</ele>
        <time>2020-05-20T14:12:04Z</time>
      </trkpt>
      <trkpt lat="46.09725" lon="6.26284">
        <ele>707.829</ele>
        <time>2020-05-20T14:12:05Z</time>
      </trkpt>
      <trkpt lat="46.0971" lon="6.26271">
        <ele>709.485</ele>
        <time>2020-05-20T14:12:06Z</time>
      </trkpt>
      <trkpt lat="46.09697" lon="6.26259">
        <ele>710.876</ele>
        <time>2020-05-20T14:12:07Z</time>
      </trkpt>
      <trkpt lat="46.09683" lon="6.26248">
        <ele>712.09</ele>
        <time>2020-05-20T14:12:08Z</time>
      </trkpt>
      <trkpt lat="46.09669" lon="6.26237">
        <ele>713.419</ele>
        <time>2020-05-20T14:12:09Z</time>
      </trkpt>
      <trkpt lat="46.09653" lon="6.26228">
        <ele>714.608</ele>
        <time>2020-05-20T14:12:10Z</time>
      </trkpt>
      <trkpt lat="46.09636" lon="6.26221">
        <ele>715.641</ele>
        <time>2020-05-20T14:12:11Z</time>
      </trkpt>
      <trkpt lat="46.09619" lon="6.26216">
        <ele>716.626</ele>
        <time>2020-05-20T14:12:12Z</time>
      </trkpt>
      <trkpt lat="46.09605" lon="6.26211">
        <ele>717.573</ele>
        <time>2020-05-20T14:12:13Z</time>
      </trkpt>
      <trkpt lat="46.09592" lon="6.26207">
        <ele>718.658</ele>
        <time>2020-05-20T14:12:14Z</time>
      </trkpt>
      <trkpt lat="46.09581" lon="6.26203">
        <ele>719.762</ele>
        <time>2020-05-20T14:12:15Z</time>
      </trkpt>
      <trkpt lat="46.09572" lon="6.26199">
        <ele>721.095</ele>
        <time>2020-05-20T14:12:16Z</time>
      </trkpt>
      <trkpt lat="46.09563" lon="6.26193">
        <ele>722.225</ele>
        <time>2020-05-20T14:12:17Z</time>
      </trkpt>
      <trkpt lat="46.09556" lon="6.26186">
        <ele>723.291</ele>
        <time>2020-05-20T14:12:18Z</time>
      </trkpt>
      <trkpt lat="46.09551" lon="6.26174">
        <ele>724.252</ele>
        <time>2020-05-20T14:12:19Z</time>
      </trkpt>
      <trkpt lat="46.09546" lon="6.26163">
        <ele>725.353</ele>
        <time>2020-05-20T14:12:20Z</time>
      </trkpt>
      <trkpt lat="46.09542" lon="6.26152">
        <ele>726.308</ele>
        <time>2020-05-20T14:12:21Z</time>
      </trkpt>
      <trkpt lat="46.09539" lon="6.26144">
        <ele>727.208</ele>
        <time>2020-05-20T14:12:22Z</time>
      </trkpt>
      <trkpt lat="46.09537" lon="6.26136">
        <ele>728.129</ele>
        <time>2020-05-20T14:12:23Z</time>
      </trkpt>
      <trkpt lat="46.09536" lon="6.26129">
        <ele>728.844</ele>
        <time>2020-05-20T14:12:24Z</time>
      </trkpt>
      <trkpt lat="46.09535" lon="6.2612">
        <ele>729.951</ele>
        <time>2020-05-20T14:12:26Z</time>
      </trkpt>
      <trkpt lat="46.09533" lon="6.26112">
        <ele>730.716</ele>
        <time>2020-05-20T14:12:28Z</time>
      </trkpt>
      <trkpt lat="46.09534" lon="6.26105">
        <ele>731.43</ele>
        <time>2020-05-20T14:12:30Z</time>
      </trkpt>
      <trkpt lat="46.09543" lon="6.26095">
        <ele>731.953</ele>
        <time>2020-05-20T14:12:59Z</time>
      </trkpt>
      <trkpt lat="46.09553" lon="6.26099">
        <ele>731.983</ele>
        <time>2020-05-20T14:13:01Z</time>
      </trkpt>
      <trkpt lat="46.09563" lon="6.261">
        <ele>732.139</ele>
        <time>2020-05-20T14:13:02Z</time>
      </trkpt>
      <trkpt lat="46.09577" lon="6.26104">
        <ele>732.547</ele>
        <time>2020-05-20T14:13:03Z</time>
      </trkpt>
      <trkpt lat="46.09592" lon="6.26105">
        <ele>733.529</ele>
        <time>2020-05-20T14:13:04Z</time>
      </trkpt>
      <trkpt lat="46.09599" lon="6.26112">
        <ele>734.921</ele>
        <time>2020-05-20T14:13:05Z</time>
      </trkpt>
      <trkpt lat="46.09615" lon="6.2611">
        <ele>736.308</ele>
        <time>2020-05-20T14:13:06Z</time>
      </trkpt>
      <trkpt lat="46.09631" lon="6.26103">
        <ele>738.068</ele>
        <time>2020-05-20T14:13:07Z</time>
      </trkpt>
      <trkpt lat="46.09646" lon="6.26091">
        <ele>739.843</ele>
        <time>2020-05-20T14:13:08Z</time>
      </trkpt>
      <trkpt lat="46.09661" lon="6.26079">
        <ele>741.56</ele>
        <time>2020-05-20T14:13:09Z</time>
      </trkpt>
      <trkpt lat="46.09677" lon="6.26068">
        <ele>743.175</ele>
        <time>2020-05-20T14:13:10Z</time>
      </trkpt>
      <trkpt lat="46.09693" lon="6.26057">
        <ele>744.699</ele>
        <time>2020-05-20T14:13:11Z</time>
      </trkpt>
      <trkpt lat="46.0971" lon="6.26054">
        <ele>746.272</ele>
        <time>2020-05-20T14:13:12Z</time>
      </trkpt>
      <trkpt lat="46.09725" lon="6.26051">
        <ele>747.692</ele>
        <time>2020-05-20T14:13:13Z</time>
      </trkpt>
      <trkpt lat="46.09739" lon="6.26048">
        <ele>748.868</ele>
        <time>2020-05-20T14:13:14Z</time>
      </trkpt>
      <trkpt lat="46.09754" lon="6.26042">
        <ele>750.134</ele>
        <time>2020-05-20T14:13:15Z</time>
      </trkpt>
      <trkpt lat="46.09768" lon="6.26032">
        <ele>751.155</ele>
        <time>2020-05-20T14:13:16Z</time>
      </trkpt>
      <trkpt lat="46.09781" lon="6.26021">
        <ele>751.11</ele>
        <time>2020-05-20T14:13:17Z</time>
      </trkpt>
      <trkpt lat="46.09792" lon="6.26004">
        <ele>751.908</ele>
        <time>2020-05-20T14:13:18Z</time>
      </trkpt>
      <trkpt lat="46.09802" lon="6.25986">
        <ele>753.117</ele>
        <time>2020-05-20T14:13:19Z</time>
      </trkpt>
      <trkpt lat="46.09811" lon="6.25966">
        <ele>754.582</ele>
        <time>2020-05-20T14:13:20Z</time>
      </trkpt>
      <trkpt lat="46.09821" lon="6.25948">
        <ele>756.159</ele>
        <time>2020-05-20T14:13:21Z</time>
      </trkpt>
      <trkpt lat="46.09831" lon="6.2593">
        <ele>757.764</ele>
        <time>2020-05-20T14:13:22Z</time>
      </trkpt>
      <trkpt lat="46.09837" lon="6.25919">
        <ele>759.568</ele>
        <time>2020-05-20T14:13:23Z</time>
      </trkpt>
      <trkpt lat="46.09842" lon="6.25904">
        <ele>761.251</ele>
        <time>2020-05-20T14:13:24Z</time>
      </trkpt>
      <trkpt lat="46.09841" lon="6.25891">
        <ele>762.691</ele>
        <time>2020-05-20T14:13:25Z</time>
      </trkpt>
      <trkpt lat="46.09835" lon="6.2588">
        <ele>763.647</ele>
        <time>2020-05-20T14:13:26Z</time>
      </trkpt>
      <trkpt lat="46.09822" lon="6.25871">
        <ele>764.655</ele>
        <time>2020-05-20T14:13:27Z</time>
      </trkpt>
      <trkpt lat="46.09809" lon="6.25873">
        <ele>765.107</ele>
        <time>2020-05-20T14:13:28Z</time>
      </trkpt>
      <trkpt lat="46.09795" lon="6.25878">
        <ele>765.717</ele>
        <time>2020-05-20T14:13:29Z</time>
      </trkpt>
      <trkpt lat="46.09782" lon="6.25887">
        <ele>766.408</ele>
        <time>2020-05-20T14:13:30Z</time>
      </trkpt>
      <trkpt lat="46.09769" lon="6.25895">
        <ele>767.539</ele>
        <time>2020-05-20T14:13:31Z</time>
      </trkpt>
      <trkpt lat="46.09755" lon="6.25902">
        <ele>768.844</ele>
        <time>2020-05-20T14:13:32Z</time>
      </trkpt>
      <trkpt lat="46.09741" lon="6.25903">
        <ele>770.581</ele>
        <time>2020-05-20T14:13:33Z</time>
      </trkpt>
      <trkpt lat="46.0973" lon="6.25898">
        <ele>772.376</ele>
        <time>2020-05-20T14:13:34Z</time>
      </trkpt>
      <trkpt lat="46.09719" lon="6.25887">
        <ele>774.09</ele>
        <time>2020-05-20T14:13:35Z</time>
      </trkpt>
      <trkpt lat="46.09708" lon="6.25871">
        <ele>775.353</ele>
        <time>2020-05-20T14:13:36Z</time>
      </trkpt>
      <trkpt lat="46.09699" lon="6.25854">
        <ele>776.743</ele>
        <time>2020-05-20T14:13:37Z</time>
      </trkpt>
      <trkpt lat="46.0969" lon="6.25835">
        <ele>778.099</ele>
        <time>2020-05-20T14:13:38Z</time>
      </trkpt>
      <trkpt lat="46.0968" lon="6.25815">
        <ele>779.255</ele>
        <time>2020-05-20T14:13:39Z</time>
      </trkpt>
      <trkpt lat="46.0967" lon="6.25796">
        <ele>780.507</ele>
        <time>2020-05-20T14:13:40Z</time>
      </trkpt>
      <trkpt lat="46.09659" lon="6.25775">
        <ele>782.117</ele>
        <time>2020-05-20T14:13:41Z</time>
      </trkpt>
      <trkpt lat="46.09647" lon="6.25755">
        <ele>784.008</ele>
        <time>2020-05-20T14:13:42Z</time>
      </trkpt>
      <trkpt lat="46.09635" lon="6.25734">
        <ele>785.859</ele>
        <time>2020-05-20T14:13:43Z</time>
      </trkpt>
      <trkpt lat="46.09624" lon="6.25711">
        <ele>787.674</ele>
        <time>2020-05-20T14:13:44Z</time>
      </trkpt>
      <trkpt lat="46.09614" lon="6.25686">
        <ele>789.641</ele>
        <time>2020-05-20T14:13:45Z</time>
      </trkpt>
      <trkpt lat="46.09605" lon="6.25663">
        <ele>791.676</ele>
        <time>2020-05-20T14:13:46Z</time>
      </trkpt>
      <trkpt lat="46.09598" lon="6.25641">
        <ele>793.81</ele>
        <time>2020-05-20T14:13:47Z</time>
      </trkpt>
      <trkpt lat="46.09591" lon="6.25619">
        <ele>795.723</ele>
        <time>2020-05-20T14:13:48Z</time>
      </trkpt>
      <trkpt lat="46.09583" lon="6.25596">
        <ele>797.733</ele>
        <time>2020-05-20T14:13:49Z</time>
      </trkpt>
      <trkpt lat="46.09575" lon="6.25572">
        <ele>799.579</ele>
        <time>2020-05-20T14:13:50Z</time>
      </trkpt>
      <trkpt lat="46.09566" lon="6.25551">
        <ele>801.444</ele>
        <time>2020-05-20T14:13:51Z</time>
      </trkpt>
      <trkpt lat="46.0956" lon="6.25532">
        <ele>803.105</ele>
        <time>2020-05-20T14:13:52Z</time>
      </trkpt>
      <trkpt lat="46.09553" lon="6.25513">
        <ele>804.915</ele>
        <time>2020-05-20T14:13:53Z</time>
      </trkpt>
      <trkpt lat="46.09545" lon="6.25498">
        <ele>806.708</ele>
        <time>2020-05-20T14:13:54Z</time>
      </trkpt>
      <trkpt lat="46.09538" lon="6.25482">
        <ele>808.478</ele>
        <time>2020-05-20T14:13:55Z</time>
      </trkpt>
      <trkpt lat="46.09529" lon="6.25466">
        <ele>810.023</ele>
        <time>2020-05-20T14:13:56Z</time>
      </trkpt>
      <trkpt lat="46.09519" lon="6.25452">
        <ele>811.33</ele>
        <time>2020-05-20T14:13:57Z</time>
      </trkpt>
      <trkpt lat="46.09509" lon="6.25439">
        <ele>812.755</ele>
        <time>2020-05-20T14:13:58Z</time>
      </trkpt>
      <trkpt lat="46.09501" lon="6.25428">
        <ele>814.139</ele>
        <time>2020-05-20T14:13:59Z</time>
      </trkpt>
      <trkpt lat="46.09493" lon="6.25418">
        <ele>815.422</ele>
        <time>2020-05-20T14:14:00Z</time>
      </trkpt>
      <trkpt lat="46.09486" lon="6.25408">
        <ele>816.592</ele>
        <time>2020-05-20T14:14:01Z</time>
      </trkpt>
      <trkpt lat="46.0948" lon="6.254">
        <ele>817.488</ele>
        <time>2020-05-20T14:14:02Z</time>
      </trkpt>
      <trkpt lat="46.09474" lon="6.25392">
        <ele>818.191</ele>
        <time>2020-05-20T14:14:03Z</time>
      </trkpt>
      <trkpt lat="46.09468" lon="6.25383">
        <ele>818.881</ele>
        <time>2020-05-20T14:14:04Z</time>
      </trkpt>
      <trkpt lat="46.09461" lon="6.25374">
        <ele>819.419</ele>
        <time>2020-05-20T14:14:05Z</time>
      </trkpt>
      <trkpt lat="46.09456" lon="6.25366">
        <ele>819.908</ele>
        <time>2020-05-20T14:14:06Z</time>
      </trkpt>
      <trkpt lat="46.09454" lon="6.2536">
        <ele>820.933</ele>
        <time>2020-05-20T14:14:08Z</time>
      </trkpt>
      <trkpt lat="46.09461" lon="6.25359">
        <ele>821.148</ele>
        <time>2020-05-20T14:14:10Z</time>
      </trkpt>
      <trkpt lat="46.09467" lon="6.2536">
        <ele>821.115</ele>
        <time>2020-05-20T14:14:12Z</time>
      </trkpt>
      <trkpt lat="46.09472" lon="6.25353">
        <ele>820.73</ele>
        <time>2020-05-20T14:14:14Z</time>
      </trkpt>
      <trkpt lat="46.09477" lon="6.25352">
        <ele>820.524</ele>
        <time>2020-05-20T14:14:15Z</time>
      </trkpt>
      <trkpt lat="46.09483" lon="6.2535">
        <ele>820.337</ele>
        <time>2020-05-20T14:14:16Z</time>
      </trkpt>
      <trkpt lat="46.09489" lon="6.25348">
        <ele>820.147</ele>
        <time>2020-05-20T14:14:17Z</time>
      </trkpt>
      <trkpt lat="46.09496" lon="6.25345">
        <ele>820.013</ele>
        <time>2020-05-20T14:14:18Z</time>
      </trkpt>
      <trkpt lat="46.09501" lon="6.25342">
        <ele>819.849</ele>
        <time>2020-05-20T14:14:19Z</time>
      </trkpt>
      <trkpt lat="46.09508" lon="6.25339">
        <ele>819.502</ele>
        <time>2020-05-20T14:14:20Z</time>
      </trkpt>
      <trkpt lat="46.09513" lon="6.25335">
        <ele>819.422</ele>
        <time>2020-05-20T14:14:21Z</time>
      </trkpt>
      <trkpt lat="46.09519" lon="6.25331">
        <ele>819.208</ele>
        <time>2020-05-20T14:14:22Z</time>
      </trkpt>
      <trkpt lat="46.09524" lon="6.25328">
        <ele>819.088</ele>
        <time>2020-05-20T14:14:23Z</time>
      </trkpt>
      <trkpt lat="46.09531" lon="6.25325">
        <ele>818.853</ele>
        <time>2020-05-20T14:14:24Z</time>
      </trkpt>
      <trkpt lat="46.09537" lon="6.25323">
        <ele>818.72</ele>
        <time>2020-05-20T14:14:25Z</time>
      </trkpt>
      <trkpt lat="46.09543" lon="6.25316">
        <ele>818.585</ele>
        <time>2020-05-20T14:14:26Z</time>
      </trkpt>
      <trkpt lat="46.0955" lon="6.25311">
        <ele>818.249</ele>
        <time>2020-05-20T14:14:27Z</time>
      </trkpt>
      <trkpt lat="46.0956" lon="6.25304">
        <ele>818.072</ele>
        <time>2020-05-20T14:14:28Z</time>
      </trkpt>
      <trkpt lat="46.0957" lon="6.25297">
        <ele>818.092</ele>
        <time>2020-05-20T14:14:29Z</time>
      </trkpt>
      <trkpt lat="46.09583" lon="6.25286">
        <ele>818.048</ele>
        <time>2020-05-20T14:14:30Z</time>
      </trkpt>
      <trkpt lat="46.09595" lon="6.25278">
        <ele>818.278</ele>
        <time>2020-05-20T14:14:31Z</time>
      </trkpt>
      <trkpt lat="46.09606" lon="6.25271">
        <ele>818.433</ele>
        <time>2020-05-20T14:14:32Z</time>
      </trkpt>
      <trkpt lat="46.09618" lon="6.25263">
        <ele>818.726</ele>
        <time>2020-05-20T14:14:33Z</time>
      </trkpt>
      <trkpt lat="46.09631" lon="6.25256">
        <ele>818.708</ele>
        <time>2020-05-20T14:14:34Z</time>
      </trkpt>
      <trkpt lat="46.09644" lon="6.25253">
        <ele>818.771</ele>
        <time>2020-05-20T14:14:35Z</time>
      </trkpt>
      <trkpt lat="46.09657" lon="6.25251">
        <ele>818.296</ele>
        <time>2020-05-20T14:14:36Z</time>
      </trkpt>
      <trkpt lat="46.09672" lon="6.2525">
        <ele>817.983</ele>
        <time>2020-05-20T14:14:37Z</time>
      </trkpt>
      <trkpt lat="46.09685" lon="6.2525">
        <ele>817.268</ele>
        <time>2020-05-20T14:14:38Z</time>
      </trkpt>
      <trkpt lat="46.09698" lon="6.25252">
        <ele>816.432</ele>
        <time>2020-05-20T14:14:39Z</time>
      </trkpt>
      <trkpt lat="46.09711" lon="6.25251">
        <ele>815.765</ele>
        <time>2020-05-20T14:14:40Z</time>
      </trkpt>
      <trkpt lat="46.09722" lon="6.2525">
        <ele>815.195</ele>
        <time>2020-05-20T14:14:41Z</time>
      </trkpt>
      <trkpt lat="46.09732" lon="6.2525">
        <ele>814.661</ele>
        <time>2020-05-20T14:14:42Z</time>
      </trkpt>
      <trkpt lat="46.0974" lon="6.25251">
        <ele>814.142</ele>
        <time>2020-05-20T14:14:43Z</time>
      </trkpt>
      <trkpt lat="46.09751" lon="6.25249">
        <ele>813.722</ele>
        <time>2020-05-20T14:14:44Z</time>
      </trkpt>
      <trkpt lat="46.09764" lon="6.25246">
        <ele>813.614</ele>
        <time>2020-05-20T14:14:45Z</time>
      </trkpt>
      <trkpt lat="46.09779" lon="6.25244">
        <ele>813.208</ele>
        <time>2020-05-20T14:14:46Z</time>
      </trkpt>
      <trkpt lat="46.09796" lon="6.25243">
        <ele>813.228</ele>
        <time>2020-05-20T14:14:47Z</time>
      </trkpt>
      <trkpt lat="46.09814" lon="6.25243">
        <ele>813.323</ele>
        <time>2020-05-20T14:14:48Z</time>
      </trkpt>
      <trkpt lat="46.09828" lon="6.25241">
        <ele>813.55</ele>
        <time>2020-05-20T14:14:49Z</time>
      </trkpt>
      <trkpt lat="46.09842" lon="6.2524">
        <ele>813.675</ele>
        <time>2020-05-20T14:14:50Z</time>
      </trkpt>
      <trkpt lat="46.09856" lon="6.25237">
        <ele>813.619</ele>
        <time>2020-05-20T14:14:51Z</time>
      </trkpt>
      <trkpt lat="46.09868" lon="6.25234">
        <ele>813.462</ele>
        <time>2020-05-20T14:14:52Z</time>
      </trkpt>
      <trkpt lat="46.0988" lon="6.25231">
        <ele>812.912</ele>
        <time>2020-05-20T14:14:53Z</time>
      </trkpt>
      <trkpt lat="46.0989" lon="6.2523">
        <ele>812.368</ele>
        <time>2020-05-20T14:14:54Z</time>
      </trkpt>
      <trkpt lat="46.09899" lon="6.25227">
        <ele>811.599</ele>
        <time>2020-05-20T14:14:55Z</time>
      </trkpt>
      <trkpt lat="46.09908" lon="6.25224">
        <ele>810.807</ele>
        <time>2020-05-20T14:14:56Z</time>
      </trkpt>
      <trkpt lat="46.09915" lon="6.25221">
        <ele>810.127</ele>
        <time>2020-05-20T14:14:57Z</time>
      </trkpt>
      <trkpt lat="46.09922" lon="6.25216">
        <ele>809.308</ele>
        <time>2020-05-20T14:14:58Z</time>
      </trkpt>
      <trkpt lat="46.09928" lon="6.25212">
        <ele>808.613</ele>
        <time>2020-05-20T14:14:59Z</time>
      </trkpt>
      <trkpt lat="46.09934" lon="6.25213">
        <ele>808.018</ele>
        <time>2020-05-20T14:15:00Z</time>
      </trkpt>
      <trkpt lat="46.09939" lon="6.25219">
        <ele>807.465</ele>
        <time>2020-05-20T14:15:01Z</time>
      </trkpt>
      <trkpt lat="46.09945" lon="6.25228">
        <ele>807.03</ele>
        <time>2020-05-20T14:15:02Z</time>
      </trkpt>
      <trkpt lat="46.09949" lon="6.25235">
        <ele>806.544</ele>
        <time>2020-05-20T14:15:03Z</time>
      </trkpt>
      <trkpt lat="46.09955" lon="6.2524">
        <ele>806.217</ele>
        <time>2020-05-20T14:15:04Z</time>
      </trkpt>
      <trkpt lat="46.09962" lon="6.25244">
        <ele>806.217</ele>
        <time>2020-05-20T14:15:05Z</time>
      </trkpt>
      <trkpt lat="46.09969" lon="6.25248">
        <ele>806.343</ele>
        <time>2020-05-20T14:15:06Z</time>
      </trkpt>
      <trkpt lat="46.09975" lon="6.25248">
        <ele>806.463</ele>
        <time>2020-05-20T14:15:07Z</time>
      </trkpt>
      <trkpt lat="46.09984" lon="6.25251">
        <ele>806.944</ele>
        <time>2020-05-20T14:15:09Z</time>
      </trkpt>
      <trkpt lat="46.09992" lon="6.25252">
        <ele>806.918</ele>
        <time>2020-05-20T14:15:11Z</time>
      </trkpt>
      <trkpt lat="46.09997" lon="6.25253">
        <ele>806.908</ele>
        <time>2020-05-20T14:15:12Z</time>
      </trkpt>
      <trkpt lat="46.10006" lon="6.25254">
        <ele>807.02</ele>
        <time>2020-05-20T14:15:14Z</time>
      </trkpt>
      <trkpt lat="46.10013" lon="6.25253">
        <ele>807.255</ele>
        <time>2020-05-20T14:15:15Z</time>
      </trkpt>
      <trkpt lat="46.10019" lon="6.25251">
        <ele>807.492</ele>
        <time>2020-05-20T14:15:16Z</time>
      </trkpt>
      <trkpt lat="46.10023" lon="6.25252">
        <ele>807.577</ele>
        <time>2020-05-20T14:15:17Z</time>
      </trkpt>
      <trkpt lat="46.10029" lon="6.25253">
        <ele>807.511</ele>
        <time>2020-05-20T14:15:18Z</time>
      </trkpt>
      <trkpt lat="46.10036" lon="6.2525">
        <ele>807.494</ele>
        <time>2020-05-20T14:15:19Z</time>
      </trkpt>
      <trkpt lat="46.10044" lon="6.25249">
        <ele>807.114</ele>
        <time>2020-05-20T14:15:20Z</time>
      </trkpt>
      <trkpt lat="46.1005" lon="6.25247">
        <ele>806.74</ele>
        <time>2020-05-20T14:15:21Z</time>
      </trkpt>
      <trkpt lat="46.10056" lon="6.25245">
        <ele>806.264</ele>
        <time>2020-05-20T14:15:22Z</time>
      </trkpt>
      <trkpt lat="46.10062" lon="6.25244">
        <ele>805.606</ele>
        <time>2020-05-20T14:15:23Z</time>
      </trkpt>
      <trkpt lat="46.10067" lon="6.25242">
        <ele>804.916</ele>
        <time>2020-05-20T14:15:24Z</time>
      </trkpt>
      <trkpt lat="46.10073" lon="6.2524">
        <ele>803.308</ele>
        <time>2020-05-20T14:15:26Z</time>
      </trkpt>
      <trkpt lat="46.10079" lon="6.25238">
        <ele>802.43</ele>
        <time>2020-05-20T14:15:27Z</time>
      </trkpt>
      <trkpt lat="46.10086" lon="6.25234">
        <ele>801.515</ele>
        <time>2020-05-20T14:15:28Z</time>
      </trkpt>
      <trkpt lat="46.10092" lon="6.25228">
        <ele>799.692</ele>
        <time>2020-05-20T14:15:30Z</time>
      </trkpt>
      <trkpt lat="46.10099" lon="6.25227">
        <ele>797.957</ele>
        <time>2020-05-20T14:15:32Z</time>
      </trkpt>
      <trkpt lat="46.10107" lon="6.25233">
        <ele>796.711</ele>
        <time>2020-05-20T14:15:34Z</time>
      </trkpt>
      <trkpt lat="46.10113" lon="6.25234">
        <ele>796.214</ele>
        <time>2020-05-20T14:15:35Z</time>
      </trkpt>
      <trkpt lat="46.10122" lon="6.25236">
        <ele>795.664</ele>
        <time>2020-05-20T14:15:36Z</time>
      </trkpt>
      <trkpt lat="46.10129" lon="6.2524">
        <ele>795.05</ele>
        <time>2020-05-20T14:15:37Z</time>
      </trkpt>
      <trkpt lat="46.10136" lon="6.25245">
        <ele>794.525</ele>
        <time>2020-05-20T14:15:38Z</time>
      </trkpt>
      <trkpt lat="46.10144" lon="6.2525">
        <ele>793.926</ele>
        <time>2020-05-20T14:15:39Z</time>
      </trkpt>
      <trkpt lat="46.10152" lon="6.25256">
        <ele>793.308</ele>
        <time>2020-05-20T14:15:40Z</time>
      </trkpt>
      <trkpt lat="46.10162" lon="6.25262">
        <ele>792.708</ele>
        <time>2020-05-20T14:15:41Z</time>
      </trkpt>
      <trkpt lat="46.10167" lon="6.25265">
        <ele>792.036</ele>
        <time>2020-05-20T14:15:42Z</time>
      </trkpt>
      <trkpt lat="46.10174" lon="6.25273">
        <ele>791.151</ele>
        <time>2020-05-20T14:15:43Z</time>
      </trkpt>
      <trkpt lat="46.1018" lon="6.25278">
        <ele>790.128</ele>
        <time>2020-05-20T14:15:44Z</time>
      </trkpt>
      <trkpt lat="46.10184" lon="6.25283">
        <ele>789.263</ele>
        <time>2020-05-20T14:15:45Z</time>
      </trkpt>
      <trkpt lat="46.10189" lon="6.25286">
        <ele>788.497</ele>
        <time>2020-05-20T14:15:46Z</time>
      </trkpt>
      <trkpt lat="46.10195" lon="6.25287">
        <ele>787.88</ele>
        <time>2020-05-20T14:15:47Z</time>
      </trkpt>
      <trkpt lat="46.10199" lon="6.25291">
        <ele>787.33</ele>
        <time>2020-05-20T14:15:48Z</time>
      </trkpt>
      <trkpt lat="46.10203" lon="6.25302">
        <ele>786.726</ele>
        <time>2020-05-20T14:15:49Z</time>
      </trkpt>
      <trkpt lat="46.10207" lon="6.25309">
        <ele>785.993</ele>
        <time>2020-05-20T14:15:50Z</time>
      </trkpt>
      <trkpt lat="46.10212" lon="6.25314">
        <ele>784.865</ele>
        <time>2020-05-20T14:15:51Z</time>
      </trkpt>
      <trkpt lat="46.10219" lon="6.25319">
        <ele>783.621</ele>
        <time>2020-05-20T14:15:52Z</time>
      </trkpt>
      <trkpt lat="46.10226" lon="6.25323">
        <ele>782.308</ele>
        <time>2020-05-20T14:15:53Z</time>
      </trkpt>
      <trkpt lat="46.10234" lon="6.25328">
        <ele>781.053</ele>
        <time>2020-05-20T14:15:54Z</time>
      </trkpt>
      <trkpt lat="46.10242" lon="6.25332">
        <ele>779.858</ele>
        <time>2020-05-20T14:15:55Z</time>
      </trkpt>
      <trkpt lat="46.10248" lon="6.25339">
        <ele>778.745</ele>
        <time>2020-05-20T14:15:56Z</time>
      </trkpt>
      <trkpt lat="46.10254" lon="6.25345">
        <ele>777.61</ele>
        <time>2020-05-20T14:15:57Z</time>
      </trkpt>
      <trkpt lat="46.1026" lon="6.25348">
        <ele>776.534</ele>
        <time>2020-05-20T14:15:58Z</time>
      </trkpt>
      <trkpt lat="46.10263" lon="6.25358">
        <ele>775.417</ele>
        <time>2020-05-20T14:15:59Z</time>
      </trkpt>
      <trkpt lat="46.10266" lon="6.25365">
        <ele>774.257</ele>
        <time>2020-05-20T14:16:00Z</time>
      </trkpt>
      <trkpt lat="46.1027" lon="6.25371">
        <ele>773.123</ele>
        <time>2020-05-20T14:16:01Z</time>
      </trkpt>
      <trkpt lat="46.10275" lon="6.2538">
        <ele>770.998</ele>
        <time>2020-05-20T14:16:03Z</time>
      </trkpt>
      <trkpt lat="46.10279" lon="6.25386">
        <ele>769.915</ele>
        <time>2020-05-20T14:16:04Z</time>
      </trkpt>
      <trkpt lat="46.10285" lon="6.25396">
        <ele>768.226</ele>
        <time>2020-05-20T14:16:06Z</time>
      </trkpt>
      <trkpt lat="46.10289" lon="6.25403">
        <ele>767.308</ele>
        <time>2020-05-20T14:16:07Z</time>
      </trkpt>
      <trkpt lat="46.1029" lon="6.2541">
        <ele>766.683</ele>
        <time>2020-05-20T14:16:08Z</time>
      </trkpt>
      <trkpt lat="46.10294" lon="6.25417">
        <ele>765.958</ele>
        <time>2020-05-20T14:16:09Z</time>
      </trkpt>
      <trkpt lat="46.103" lon="6.25427">
        <ele>764.575</ele>
        <time>2020-05-20T14:16:11Z</time>
      </trkpt>
      <trkpt lat="46.10302" lon="6.25439">
        <ele>763.36</ele>
        <time>2020-05-20T14:16:13Z</time>
      </trkpt>
      <trkpt lat="46.10303" lon="6.25447">
        <ele>762.784</ele>
        <time>2020-05-20T14:16:14Z</time>
      </trkpt>
      <trkpt lat="46.10304" lon="6.25454">
        <ele>761.647</ele>
        <time>2020-05-20T14:16:16Z</time>
      </trkpt>
      <trkpt lat="46.10308" lon="6.2545">
        <ele>760.087</ele>
        <time>2020-05-20T14:16:19Z</time>
      </trkpt>
      <trkpt lat="46.10313" lon="6.25441">
        <ele>758.883</ele>
        <time>2020-05-20T14:16:21Z</time>
      </trkpt>
      <trkpt lat="46.1032" lon="6.2544">
        <ele>758.125</ele>
        <time>2020-05-20T14:16:22Z</time>
      </trkpt>
      <trkpt lat="46.1033" lon="6.25444">
        <ele>757.326</ele>
        <time>2020-05-20T14:16:23Z</time>
      </trkpt>
      <trkpt lat="46.10335" lon="6.25445">
        <ele>756.608</ele>
        <time>2020-05-20T14:16:24Z</time>
      </trkpt>
      <trkpt lat="46.1034" lon="6.25442">
        <ele>756.008</ele>
        <time>2020-05-20T14:16:25Z</time>
      </trkpt>
      <trkpt lat="46.10345" lon="6.25439">
        <ele>756.056</ele>
        <time>2020-05-20T14:16:26Z</time>
      </trkpt>
      <trkpt lat="46.1035" lon="6.25435">
        <ele>755.421</ele>
        <time>2020-05-20T14:16:27Z</time>
      </trkpt>
      <trkpt lat="46.10354" lon="6.25429">
        <ele>754.838</ele>
        <time>2020-05-20T14:16:28Z</time>
      </trkpt>
      <trkpt lat="46.10358" lon="6.25424">
        <ele>754.333</ele>
        <time>2020-05-20T14:16:29Z</time>
      </trkpt>
      <trkpt lat="46.10364" lon="6.25416">
        <ele>753.677</ele>
        <time>2020-05-20T14:16:30Z</time>
      </trkpt>
      <trkpt lat="46.10368" lon="6.2541">
        <ele>752.96</ele>
        <time>2020-05-20T14:16:31Z</time>
      </trkpt>
      <trkpt lat="46.10373" lon="6.25403">
        <ele>752.34</ele>
        <time>2020-05-20T14:16:32Z</time>
      </trkpt>
      <trkpt lat="46.10377" lon="6.25399">
        <ele>751.716</ele>
        <time>2020-05-20T14:16:33Z</time>
      </trkpt>
      <trkpt lat="46.1038" lon="6.25392">
        <ele>751.124</ele>
        <time>2020-05-20T14:16:34Z</time>
      </trkpt>
      <trkpt lat="46.10378" lon="6.2538">
        <ele>750.004</ele>
        <time>2020-05-20T14:16:36Z</time>
      </trkpt>
      <trkpt lat="46.10377" lon="6.25373">
        <ele>749.414</ele>
        <time>2020-05-20T14:16:37Z</time>
      </trkpt>
      <trkpt lat="46.10371" lon="6.25361">
        <ele>748.708</ele>
        <time>2020-05-20T14:16:38Z</time>
      </trkpt>
      <trkpt lat="46.10364" lon="6.25353">
        <ele>748.076</ele>
        <time>2020-05-20T14:16:39Z</time>
      </trkpt>
      <trkpt lat="46.10358" lon="6.25344">
        <ele>747.131</ele>
        <time>2020-05-20T14:16:40Z</time>
      </trkpt>
      <trkpt lat="46.10428" lon="6.25425">
        <ele>746.358</ele>
        <time>2020-05-20T14:16:41Z</time>
      </trkpt>
      <trkpt lat="46.10433" lon="6.25425">
        <ele>744.913</ele>
        <time>2020-05-20T14:16:43Z</time>
      </trkpt>
      <trkpt lat="46.1044" lon="6.25421">
        <ele>743.747</ele>
        <time>2020-05-20T14:16:45Z</time>
      </trkpt>
      <trkpt lat="46.10445" lon="6.25417">
        <ele>743.34</ele>
        <time>2020-05-20T14:16:46Z</time>
      </trkpt>
      <trkpt lat="46.10451" lon="6.25413">
        <ele>742.81</ele>
        <time>2020-05-20T14:16:47Z</time>
      </trkpt>
      <trkpt lat="46.10458" lon="6.25408">
        <ele>742.496</ele>
        <time>2020-05-20T14:16:48Z</time>
      </trkpt>
      <trkpt lat="46.10464" lon="6.25405">
        <ele>742.062</ele>
        <time>2020-05-20T14:16:49Z</time>
      </trkpt>
      <trkpt lat="46.10471" lon="6.25404">
        <ele>741.783</ele>
        <time>2020-05-20T14:16:50Z</time>
      </trkpt>
      <trkpt lat="46.10478" lon="6.25404">
        <ele>741.411</ele>
        <time>2020-05-20T14:16:51Z</time>
      </trkpt>
      <trkpt lat="46.10484" lon="6.25404">
        <ele>741.008</ele>
        <time>2020-05-20T14:16:52Z</time>
      </trkpt>
      <trkpt lat="46.1049" lon="6.25405">
        <ele>740.56</ele>
        <time>2020-05-20T14:16:53Z</time>
      </trkpt>
      <trkpt lat="46.10497" lon="6.25405">
        <ele>740.055</ele>
        <time>2020-05-20T14:16:54Z</time>
      </trkpt>
      <trkpt lat="46.10505" lon="6.25401">
        <ele>739.332</ele>
        <time>2020-05-20T14:16:55Z</time>
      </trkpt>
      <trkpt lat="46.10511" lon="6.25398">
        <ele>738.637</ele>
        <time>2020-05-20T14:16:56Z</time>
      </trkpt>
      <trkpt lat="46.10517" lon="6.25394">
        <ele>737.911</ele>
        <time>2020-05-20T14:16:57Z</time>
      </trkpt>
      <trkpt lat="46.10523" lon="6.25391">
        <ele>737.344</ele>
        <time>2020-05-20T14:16:58Z</time>
      </trkpt>
      <trkpt lat="46.10528" lon="6.25386">
        <ele>736.684</ele>
        <time>2020-05-20T14:16:59Z</time>
      </trkpt>
      <trkpt lat="46.10532" lon="6.25381">
        <ele>736.05</ele>
        <time>2020-05-20T14:17:00Z</time>
      </trkpt>
      <trkpt lat="46.10538" lon="6.25378">
        <ele>735.438</ele>
        <time>2020-05-20T14:17:01Z</time>
      </trkpt>
      <trkpt lat="46.10544" lon="6.25377">
        <ele>734.87</ele>
        <time>2020-05-20T14:17:02Z</time>
      </trkpt>
      <trkpt lat="46.1055" lon="6.25378">
        <ele>734.317</ele>
        <time>2020-05-20T14:17:03Z</time>
      </trkpt>
      <trkpt lat="46.10555" lon="6.2538">
        <ele>733.808</ele>
        <time>2020-05-20T14:17:04Z</time>
      </trkpt>
      <trkpt lat="46.10563" lon="6.25376">
        <ele>733.317</ele>
        <time>2020-05-20T14:17:05Z</time>
      </trkpt>
      <trkpt lat="46.10569" lon="6.25374">
        <ele>732.852</ele>
        <time>2020-05-20T14:17:06Z</time>
      </trkpt>
      <trkpt lat="46.10577" lon="6.2537">
        <ele>732.299</ele>
        <time>2020-05-20T14:17:07Z</time>
      </trkpt>
      <trkpt lat="46.10584" lon="6.25367">
        <ele>731.414</ele>
        <time>2020-05-20T14:17:08Z</time>
      </trkpt>
      <trkpt lat="46.10593" lon="6.25368">
        <ele>730.798</ele>
        <time>2020-05-20T14:17:09Z</time>
      </trkpt>
      <trkpt lat="46.10601" lon="6.2537">
        <ele>730.011</ele>
        <time>2020-05-20T14:17:10Z</time>
      </trkpt>
      <trkpt lat="46.10609" lon="6.25373">
        <ele>729.241</ele>
        <time>2020-05-20T14:17:11Z</time>
      </trkpt>
      <trkpt lat="46.10618" lon="6.25379">
        <ele>728.257</ele>
        <time>2020-05-20T14:17:12Z</time>
      </trkpt>
      <trkpt lat="46.10626" lon="6.25384">
        <ele>727.413</ele>
        <time>2020-05-20T14:17:13Z</time>
      </trkpt>
      <trkpt lat="46.10634" lon="6.25387">
        <ele>726.343</ele>
        <time>2020-05-20T14:17:14Z</time>
      </trkpt>
      <trkpt lat="46.10641" lon="6.25391">
        <ele>725.207</ele>
        <time>2020-05-20T14:17:15Z</time>
      </trkpt>
      <trkpt lat="46.10648" lon="6.25392">
        <ele>724.208</ele>
        <time>2020-05-20T14:17:16Z</time>
      </trkpt>
      <trkpt lat="46.10654" lon="6.25392">
        <ele>723.575</ele>
        <time>2020-05-20T14:17:17Z</time>
      </trkpt>
      <trkpt lat="46.1066" lon="6.25393">
        <ele>722.46</ele>
        <time>2020-05-20T14:17:18Z</time>
      </trkpt>
      <trkpt lat="46.10669" lon="6.25392">
        <ele>720.247</ele>
        <time>2020-05-20T14:17:20Z</time>
      </trkpt>
      <trkpt lat="46.10674" lon="6.25392">
        <ele>719.322</ele>
        <time>2020-05-20T14:17:21Z</time>
      </trkpt>
      <trkpt lat="46.10679" lon="6.25384">
        <ele>717.576</ele>
        <time>2020-05-20T14:17:23Z</time>
      </trkpt>
      <trkpt lat="46.10682" lon="6.25371">
        <ele>716.579</ele>
        <time>2020-05-20T14:17:25Z</time>
      </trkpt>
      <trkpt lat="46.10678" lon="6.25366">
        <ele>716.189</ele>
        <time>2020-05-20T14:17:27Z</time>
      </trkpt>
      <trkpt lat="46.10674" lon="6.25372">
        <ele>716.435</ele>
        <time>2020-05-20T14:17:29Z</time>
      </trkpt>
      <trkpt lat="46.10672" lon="6.25378">
        <ele>716.763</ele>
        <time>2020-05-20T14:17:30Z</time>
      </trkpt>
      <trkpt lat="46.10668" lon="6.25384">
        <ele>717.044</ele>
        <time>2020-05-20T14:17:31Z</time>
      </trkpt>
      <trkpt lat="46.10664" lon="6.25389">
        <ele>717.318</ele>
        <time>2020-05-20T14:17:32Z</time>
      </trkpt>
      <trkpt lat="46.10656" lon="6.2539">
        <ele>717.508</ele>
        <time>2020-05-20T14:17:33Z</time>
      </trkpt>
      <trkpt lat="46.10649" lon="6.25389">
        <ele>717.73</ele>
        <time>2020-05-20T14:17:34Z</time>
      </trkpt>
      <trkpt lat="46.10642" lon="6.25388">
        <ele>718.175</ele>
        <time>2020-05-20T14:17:35Z</time>
      </trkpt>
      <trkpt lat="46.10632" lon="6.25384">
        <ele>718.712</ele>
        <time>2020-05-20T14:17:36Z</time>
      </trkpt>
      <trkpt lat="46.10624" lon="6.25379">
        <ele>719.577</ele>
        <time>2020-05-20T14:17:37Z</time>
      </trkpt>
      <trkpt lat="46.10617" lon="6.25374">
        <ele>720.461</ele>
        <time>2020-05-20T14:17:38Z</time>
      </trkpt>
      <trkpt lat="46.1061" lon="6.25371">
        <ele>721.324</ele>
        <time>2020-05-20T14:17:39Z</time>
      </trkpt>
      <trkpt lat="46.10604" lon="6.25368">
        <ele>722.234</ele>
        <time>2020-05-20T14:17:40Z</time>
      </trkpt>
      <trkpt lat="46.10599" lon="6.25368">
        <ele>723.19</ele>
        <time>2020-05-20T14:17:41Z</time>
      </trkpt>
      <trkpt lat="46.10591" lon="6.25367">
        <ele>724.052</ele>
        <time>2020-05-20T14:17:42Z</time>
      </trkpt>
      <trkpt lat="46.10583" lon="6.25366">
        <ele>725.053</ele>
        <time>2020-05-20T14:17:43Z</time>
      </trkpt>
      <trkpt lat="46.10571" lon="6.2537">
        <ele>726.208</ele>
        <time>2020-05-20T14:17:44Z</time>
      </trkpt>
      <trkpt lat="46.10558" lon="6.25374">
        <ele>727.608</ele>
        <time>2020-05-20T14:17:45Z</time>
      </trkpt>
      <trkpt lat="46.10546" lon="6.25378">
        <ele>729.279</ele>
        <time>2020-05-20T14:17:46Z</time>
      </trkpt>
      <trkpt lat="46.10536" lon="6.25383">
        <ele>730.854</ele>
        <time>2020-05-20T14:17:47Z</time>
      </trkpt>
      <trkpt lat="46.10525" lon="6.25388">
        <ele>732.171</ele>
        <time>2020-05-20T14:17:48Z</time>
      </trkpt>
      <trkpt lat="46.10517" lon="6.25396">
        <ele>733.286</ele>
        <time>2020-05-20T14:17:49Z</time>
      </trkpt>
      <trkpt lat="46.10508" lon="6.254">
        <ele>734.18</ele>
        <time>2020-05-20T14:17:50Z</time>
      </trkpt>
      <trkpt lat="46.10499" lon="6.25404">
        <ele>734.973</ele>
        <time>2020-05-20T14:17:51Z</time>
      </trkpt>
      <trkpt lat="46.10489" lon="6.25404">
        <ele>735.533</ele>
        <time>2020-05-20T14:17:52Z</time>
      </trkpt>
      <trkpt lat="46.10477" lon="6.25403">
        <ele>736.229</ele>
        <time>2020-05-20T14:17:53Z</time>
      </trkpt>
      <trkpt lat="46.10466" lon="6.25403">
        <ele>737.066</ele>
        <time>2020-05-20T14:17:54Z</time>
      </trkpt>
      <trkpt lat="46.10455" lon="6.25406">
        <ele>737.729</ele>
        <time>2020-05-20T14:17:55Z</time>
      </trkpt>
      <trkpt lat="46.10446" lon="6.25411">
        <ele>738.521</ele>
        <time>2020-05-20T14:17:56Z</time>
      </trkpt>
      <trkpt lat="46.10436" lon="6.25418">
        <ele>739.308</ele>
        <time>2020-05-20T14:17:57Z</time>
      </trkpt>
      <trkpt lat="46.10424" lon="6.25426">
        <ele>740.42</ele>
        <time>2020-05-20T14:17:58Z</time>
      </trkpt>
      <trkpt lat="46.10411" lon="6.25424">
        <ele>741.685</ele>
        <time>2020-05-20T14:17:59Z</time>
      </trkpt>
      <trkpt lat="46.10401" lon="6.25421">
        <ele>742.762</ele>
        <time>2020-05-20T14:18:00Z</time>
      </trkpt>
      <trkpt lat="46.1039" lon="6.2542">
        <ele>743.997</ele>
        <time>2020-05-20T14:18:01Z</time>
      </trkpt>
      <trkpt lat="46.10383" lon="6.25417">
        <ele>745.131</ele>
        <time>2020-05-20T14:18:02Z</time>
      </trkpt>
      <trkpt lat="46.10375" lon="6.25416">
        <ele>746.274</ele>
        <time>2020-05-20T14:18:03Z</time>
      </trkpt>
      <trkpt lat="46.1037" lon="6.2542">
        <ele>747.224</ele>
        <time>2020-05-20T14:18:04Z</time>
      </trkpt>
      <trkpt lat="46.10363" lon="6.25428">
        <ele>748.31</ele>
        <time>2020-05-20T14:18:05Z</time>
      </trkpt>
      <trkpt lat="46.10357" lon="6.25434">
        <ele>749.219</ele>
        <time>2020-05-20T14:18:06Z</time>
      </trkpt>
      <trkpt lat="46.1035" lon="6.25441">
        <ele>750.709</ele>
        <time>2020-05-20T14:18:08Z</time>
      </trkpt>
      <trkpt lat="46.10345" lon="6.25444">
        <ele>751.319</ele>
        <time>2020-05-20T14:18:09Z</time>
      </trkpt>
      <trkpt lat="46.10338" lon="6.2545">
        <ele>752.508</ele>
        <time>2020-05-20T14:18:11Z</time>
      </trkpt>
      <trkpt lat="46.1033" lon="6.25455">
        <ele>753.935</ele>
        <time>2020-05-20T14:18:13Z</time>
      </trkpt>
      <trkpt lat="46.10323" lon="6.25459">
        <ele>754.82</ele>
        <time>2020-05-20T14:18:14Z</time>
      </trkpt>
      <trkpt lat="46.10317" lon="6.25458">
        <ele>755.697</ele>
        <time>2020-05-20T14:18:15Z</time>
      </trkpt>
      <trkpt lat="46.10315" lon="6.25451">
        <ele>756.532</ele>
        <time>2020-05-20T14:18:16Z</time>
      </trkpt>
      <trkpt lat="46.10313" lon="6.25444">
        <ele>757.556</ele>
        <time>2020-05-20T14:18:17Z</time>
      </trkpt>
      <trkpt lat="46.10312" lon="6.25431">
        <ele>759.599</ele>
        <time>2020-05-20T14:18:19Z</time>
      </trkpt>
      <trkpt lat="46.10309" lon="6.25425">
        <ele>761.419</ele>
        <time>2020-05-20T14:18:21Z</time>
      </trkpt>
      <trkpt lat="46.10306" lon="6.25411">
        <ele>762.955</ele>
        <time>2020-05-20T14:18:23Z</time>
      </trkpt>
      <trkpt lat="46.10303" lon="6.25405">
        <ele>763.638</ele>
        <time>2020-05-20T14:18:24Z</time>
      </trkpt>
      <trkpt lat="46.10297" lon="6.25394">
        <ele>764.37</ele>
        <time>2020-05-20T14:18:25Z</time>
      </trkpt>
      <trkpt lat="46.10294" lon="6.25388">
        <ele>765.117</ele>
        <time>2020-05-20T14:18:26Z</time>
      </trkpt>
      <trkpt lat="46.10287" lon="6.25377">
        <ele>767.008</ele>
        <time>2020-05-20T14:18:28Z</time>
      </trkpt>
      <trkpt lat="46.10282" lon="6.25368">
        <ele>768.177</ele>
        <time>2020-05-20T14:18:29Z</time>
      </trkpt>
      <trkpt lat="46.10277" lon="6.2536">
        <ele>769.282</ele>
        <time>2020-05-20T14:18:30Z</time>
      </trkpt>
      <trkpt lat="46.10273" lon="6.2535">
        <ele>770.299</ele>
        <time>2020-05-20T14:18:31Z</time>
      </trkpt>
      <trkpt lat="46.10266" lon="6.25339">
        <ele>771.224</ele>
        <time>2020-05-20T14:18:32Z</time>
      </trkpt>
      <trkpt lat="46.1026" lon="6.25329">
        <ele>772.398</ele>
        <time>2020-05-20T14:18:33Z</time>
      </trkpt>
      <trkpt lat="46.10252" lon="6.25323">
        <ele>773.341</ele>
        <time>2020-05-20T14:18:34Z</time>
      </trkpt>
      <trkpt lat="46.10245" lon="6.25317">
        <ele>774.491</ele>
        <time>2020-05-20T14:18:35Z</time>
      </trkpt>
      <trkpt lat="46.10239" lon="6.25311">
        <ele>775.747</ele>
        <time>2020-05-20T14:18:36Z</time>
      </trkpt>
      <trkpt lat="46.10232" lon="6.25305">
        <ele>777.075</ele>
        <time>2020-05-20T14:18:37Z</time>
      </trkpt>
      <trkpt lat="46.10224" lon="6.25297">
        <ele>778.428</ele>
        <time>2020-05-20T14:18:38Z</time>
      </trkpt>
      <trkpt lat="46.10216" lon="6.2529">
        <ele>779.82</ele>
        <time>2020-05-20T14:18:39Z</time>
      </trkpt>
      <trkpt lat="46.1021" lon="6.25283">
        <ele>781.208</ele>
        <time>2020-05-20T14:18:40Z</time>
      </trkpt>
      <trkpt lat="46.10205" lon="6.25279">
        <ele>782.771</ele>
        <time>2020-05-20T14:18:41Z</time>
      </trkpt>
      <trkpt lat="46.102" lon="6.25274">
        <ele>784.176</ele>
        <time>2020-05-20T14:18:42Z</time>
      </trkpt>
      <trkpt lat="46.10195" lon="6.2527">
        <ele>785.313</ele>
        <time>2020-05-20T14:18:43Z</time>
      </trkpt>
      <trkpt lat="46.10191" lon="6.25263">
        <ele>786.438</ele>
        <time>2020-05-20T14:18:44Z</time>
      </trkpt>
      <trkpt lat="46.10184" lon="6.25255">
        <ele>787.322</ele>
        <time>2020-05-20T14:18:45Z</time>
      </trkpt>
      <trkpt lat="46.10175" lon="6.25246">
        <ele>788.125</ele>
        <time>2020-05-20T14:18:46Z</time>
      </trkpt>
      <trkpt lat="46.10166" lon="6.25241">
        <ele>788.985</ele>
        <time>2020-05-20T14:18:47Z</time>
      </trkpt>
      <trkpt lat="46.10154" lon="6.25236">
        <ele>789.851</ele>
        <time>2020-05-20T14:18:48Z</time>
      </trkpt>
      <trkpt lat="46.10142" lon="6.25229">
        <ele>790.922</ele>
        <time>2020-05-20T14:18:49Z</time>
      </trkpt>
      <trkpt lat="46.1013" lon="6.25224">
        <ele>792.462</ele>
        <time>2020-05-20T14:18:50Z</time>
      </trkpt>
      <trkpt lat="46.1012" lon="6.2522">
        <ele>794.008</ele>
        <time>2020-05-20T14:18:51Z</time>
      </trkpt>
      <trkpt lat="46.10112" lon="6.25223">
        <ele>796.608</ele>
        <time>2020-05-20T14:18:53Z</time>
      </trkpt>
      <trkpt lat="46.10107" lon="6.25228">
        <ele>797.746</ele>
        <time>2020-05-20T14:18:54Z</time>
      </trkpt>
      <trkpt lat="46.10103" lon="6.25229">
        <ele>798.331</ele>
        <time>2020-05-20T14:18:55Z</time>
      </trkpt>
      <trkpt lat="46.10098" lon="6.25229">
        <ele>798.828</ele>
        <time>2020-05-20T14:18:56Z</time>
      </trkpt>
      <trkpt lat="46.10092" lon="6.25229">
        <ele>799.543</ele>
        <time>2020-05-20T14:18:57Z</time>
      </trkpt>
      <trkpt lat="46.10086" lon="6.25231">
        <ele>800.357</ele>
        <time>2020-05-20T14:18:58Z</time>
      </trkpt>
      <trkpt lat="46.10082" lon="6.25232">
        <ele>801.17</ele>
        <time>2020-05-20T14:18:59Z</time>
      </trkpt>
      <trkpt lat="46.10077" lon="6.25235">
        <ele>801.99</ele>
        <time>2020-05-20T14:19:00Z</time>
      </trkpt>
      <trkpt lat="46.1007" lon="6.2524">
        <ele>802.856</ele>
        <time>2020-05-20T14:19:01Z</time>
      </trkpt>
      <trkpt lat="46.10066" lon="6.25244">
        <ele>803.836</ele>
        <time>2020-05-20T14:19:02Z</time>
      </trkpt>
      <trkpt lat="46.10052" lon="6.2524">
        <ele>805.317</ele>
        <time>2020-05-20T14:19:04Z</time>
      </trkpt>
      <trkpt lat="46.10045" lon="6.2524">
        <ele>806.018</ele>
        <time>2020-05-20T14:19:05Z</time>
      </trkpt>
      <trkpt lat="46.10037" lon="6.25242">
        <ele>806.508</ele>
        <time>2020-05-20T14:19:06Z</time>
      </trkpt>
      <trkpt lat="46.10029" lon="6.25243">
        <ele>807.017</ele>
        <time>2020-05-20T14:19:07Z</time>
      </trkpt>
      <trkpt lat="46.1002" lon="6.25242">
        <ele>807.522</ele>
        <time>2020-05-20T14:19:08Z</time>
      </trkpt>
      <trkpt lat="46.10013" lon="6.25243">
        <ele>808.019</ele>
        <time>2020-05-20T14:19:09Z</time>
      </trkpt>
      <trkpt lat="46.10007" lon="6.25244">
        <ele>808.384</ele>
        <time>2020-05-20T14:19:10Z</time>
      </trkpt>
      <trkpt lat="46.1" lon="6.25244">
        <ele>808.598</ele>
        <time>2020-05-20T14:19:11Z</time>
      </trkpt>
      <trkpt lat="46.09994" lon="6.25244">
        <ele>808.551</ele>
        <time>2020-05-20T14:19:12Z</time>
      </trkpt>
      <trkpt lat="46.09987" lon="6.25242">
        <ele>808.281</ele>
        <time>2020-05-20T14:19:13Z</time>
      </trkpt>
      <trkpt lat="46.09979" lon="6.25238">
        <ele>807.957</ele>
        <time>2020-05-20T14:19:14Z</time>
      </trkpt>
      <trkpt lat="46.09969" lon="6.25234">
        <ele>807.666</ele>
        <time>2020-05-20T14:19:15Z</time>
      </trkpt>
      <trkpt lat="46.09959" lon="6.2523">
        <ele>807.329</ele>
        <time>2020-05-20T14:19:16Z</time>
      </trkpt>
      <trkpt lat="46.09952" lon="6.25224">
        <ele>807.121</ele>
        <time>2020-05-20T14:19:17Z</time>
      </trkpt>
      <trkpt lat="46.09946" lon="6.25218">
        <ele>806.908</ele>
        <time>2020-05-20T14:19:18Z</time>
      </trkpt>
      <trkpt lat="46.09942" lon="6.25213">
        <ele>806.86</ele>
        <time>2020-05-20T14:19:19Z</time>
      </trkpt>
      <trkpt lat="46.09942" lon="6.25205">
        <ele>806.775</ele>
        <time>2020-05-20T14:19:21Z</time>
      </trkpt>
      <trkpt lat="46.09943" lon="6.25198">
        <ele>806.882</ele>
        <time>2020-05-20T14:19:23Z</time>
      </trkpt>
      <trkpt lat="46.09946" lon="6.25189">
        <ele>807.227</ele>
        <time>2020-05-20T14:19:25Z</time>
      </trkpt>
      <trkpt lat="46.09941" lon="6.25187">
        <ele>807.881</ele>
        <time>2020-05-20T14:19:27Z</time>
      </trkpt>
      <trkpt lat="46.0994" lon="6.25195">
        <ele>808.114</ele>
        <time>2020-05-20T14:19:30Z</time>
      </trkpt>
      <trkpt lat="46.09941" lon="6.25205">
        <ele>807.664</ele>
        <time>2020-05-20T14:19:32Z</time>
      </trkpt>
      <trkpt lat="46.09937" lon="6.25211">
        <ele>807.34</ele>
        <time>2020-05-20T14:19:33Z</time>
      </trkpt>
      <trkpt lat="46.0993" lon="6.25214">
        <ele>807.149</ele>
        <time>2020-05-20T14:19:34Z</time>
      </trkpt>
      <trkpt lat="46.09921" lon="6.25217">
        <ele>807.102</ele>
        <time>2020-05-20T14:19:35Z</time>
      </trkpt>
      <trkpt lat="46.09912" lon="6.25221">
        <ele>807.022</ele>
        <time>2020-05-20T14:19:36Z</time>
      </trkpt>
      <trkpt lat="46.09902" lon="6.25225">
        <ele>807.008</ele>
        <time>2020-05-20T14:19:37Z</time>
      </trkpt>
      <trkpt lat="46.09891" lon="6.25226">
        <ele>807.198</ele>
        <time>2020-05-20T14:19:38Z</time>
      </trkpt>
      <trkpt lat="46.0988" lon="6.25228">
        <ele>807.453</ele>
        <time>2020-05-20T14:19:39Z</time>
      </trkpt>
      <trkpt lat="46.09869" lon="6.2523">
        <ele>807.89</ele>
        <time>2020-05-20T14:19:40Z</time>
      </trkpt>
      <trkpt lat="46.09859" lon="6.25232">
        <ele>808.395</ele>
        <time>2020-05-20T14:19:41Z</time>
      </trkpt>
      <trkpt lat="46.09848" lon="6.25233">
        <ele>808.969</ele>
        <time>2020-05-20T14:19:42Z</time>
      </trkpt>
      <trkpt lat="46.09837" lon="6.25235">
        <ele>809.532</ele>
        <time>2020-05-20T14:19:43Z</time>
      </trkpt>
      <trkpt lat="46.09826" lon="6.25237">
        <ele>810.172</ele>
        <time>2020-05-20T14:19:44Z</time>
      </trkpt>
      <trkpt lat="46.09816" lon="6.25237">
        <ele>810.658</ele>
        <time>2020-05-20T14:19:45Z</time>
      </trkpt>
      <trkpt lat="46.09805" lon="6.25237">
        <ele>811.147</ele>
        <time>2020-05-20T14:19:46Z</time>
      </trkpt>
      <trkpt lat="46.09796" lon="6.25237">
        <ele>811.429</ele>
        <time>2020-05-20T14:19:47Z</time>
      </trkpt>
      <trkpt lat="46.09785" lon="6.25237">
        <ele>811.821</ele>
        <time>2020-05-20T14:19:48Z</time>
      </trkpt>
      <trkpt lat="46.09775" lon="6.25238">
        <ele>812.108</ele>
        <time>2020-05-20T14:19:49Z</time>
      </trkpt>
      <trkpt lat="46.09763" lon="6.25241">
        <ele>812.348</ele>
        <time>2020-05-20T14:19:50Z</time>
      </trkpt>
      <trkpt lat="46.09751" lon="6.25243">
        <ele>812.613</ele>
        <time>2020-05-20T14:19:51Z</time>
      </trkpt>
      <trkpt lat="46.09738" lon="6.25244">
        <ele>812.84</ele>
        <time>2020-05-20T14:19:52Z</time>
      </trkpt>
      <trkpt lat="46.09726" lon="6.25245">
        <ele>813.065</ele>
        <time>2020-05-20T14:19:53Z</time>
      </trkpt>
      <trkpt lat="46.09714" lon="6.25245">
        <ele>813.249</ele>
        <time>2020-05-20T14:19:54Z</time>
      </trkpt>
      <trkpt lat="46.09703" lon="6.25248">
        <ele>813.532</ele>
        <time>2020-05-20T14:19:55Z</time>
      </trkpt>
      <trkpt lat="46.09691" lon="6.25249">
        <ele>813.712</ele>
        <time>2020-05-20T14:19:56Z</time>
      </trkpt>
      <trkpt lat="46.09679" lon="6.25249">
        <ele>813.868</ele>
        <time>2020-05-20T14:19:57Z</time>
      </trkpt>
      <trkpt lat="46.09668" lon="6.25249">
        <ele>813.917</ele>
        <time>2020-05-20T14:19:58Z</time>
      </trkpt>
      <trkpt lat="46.09658" lon="6.2525">
        <ele>814.187</ele>
        <time>2020-05-20T14:19:59Z</time>
      </trkpt>
      <trkpt lat="46.09648" lon="6.25252">
        <ele>814.315</ele>
        <time>2020-05-20T14:20:00Z</time>
      </trkpt>
      <trkpt lat="46.0964" lon="6.25253">
        <ele>814.608</ele>
        <time>2020-05-20T14:20:01Z</time>
      </trkpt>
      <trkpt lat="46.09633" lon="6.25255">
        <ele>815.035</ele>
        <time>2020-05-20T14:20:02Z</time>
      </trkpt>
      <trkpt lat="46.09626" lon="6.2526">
        <ele>815.53</ele>
        <time>2020-05-20T14:20:03Z</time>
      </trkpt>
      <trkpt lat="46.09619" lon="6.25263">
        <ele>815.937</ele>
        <time>2020-05-20T14:20:04Z</time>
      </trkpt>
      <trkpt lat="46.0961" lon="6.25268">
        <ele>816.312</ele>
        <time>2020-05-20T14:20:05Z</time>
      </trkpt>
      <trkpt lat="46.09601" lon="6.25274">
        <ele>816.636</ele>
        <time>2020-05-20T14:20:06Z</time>
      </trkpt>
      <trkpt lat="46.09591" lon="6.25281">
        <ele>816.979</ele>
        <time>2020-05-20T14:20:07Z</time>
      </trkpt>
      <trkpt lat="46.09583" lon="6.25286">
        <ele>817.269</ele>
        <time>2020-05-20T14:20:08Z</time>
      </trkpt>
      <trkpt lat="46.09576" lon="6.25291">
        <ele>817.415</ele>
        <time>2020-05-20T14:20:09Z</time>
      </trkpt>
      <trkpt lat="46.09571" lon="6.25298">
        <ele>817.734</ele>
        <time>2020-05-20T14:20:10Z</time>
      </trkpt>
      <trkpt lat="46.09566" lon="6.25302">
        <ele>818.055</ele>
        <time>2020-05-20T14:20:11Z</time>
      </trkpt>
      <trkpt lat="46.0956" lon="6.2531">
        <ele>818.31</ele>
        <time>2020-05-20T14:20:13Z</time>
      </trkpt>
      <trkpt lat="46.09537" lon="6.25327">
        <ele>818.608</ele>
        <time>2020-05-20T14:20:17Z</time>
      </trkpt>
      <trkpt lat="46.0953" lon="6.25331">
        <ele>818.687</ele>
        <time>2020-05-20T14:20:18Z</time>
      </trkpt>
      <trkpt lat="46.09519" lon="6.25337">
        <ele>818.752</ele>
        <time>2020-05-20T14:20:19Z</time>
      </trkpt>
      <trkpt lat="46.09506" lon="6.25347">
        <ele>818.959</ele>
        <time>2020-05-20T14:20:20Z</time>
      </trkpt>
      <trkpt lat="46.09495" lon="6.25351">
        <ele>819.154</ele>
        <time>2020-05-20T14:20:21Z</time>
      </trkpt>
      <trkpt lat="46.09486" lon="6.25355">
        <ele>819.388</ele>
        <time>2020-05-20T14:20:22Z</time>
      </trkpt>
      <trkpt lat="46.09477" lon="6.25359">
        <ele>819.751</ele>
        <time>2020-05-20T14:20:23Z</time>
      </trkpt>
      <trkpt lat="46.09469" lon="6.25361">
        <ele>820.051</ele>
        <time>2020-05-20T14:20:24Z</time>
      </trkpt>
      <trkpt lat="46.09462" lon="6.25363">
        <ele>820.517</ele>
        <time>2020-05-20T14:20:25Z</time>
      </trkpt>
      <trkpt lat="46.09456" lon="6.25362">
        <ele>821.011</ele>
        <time>2020-05-20T14:20:26Z</time>
      </trkpt>
      <trkpt lat="46.0945" lon="6.25359">
        <ele>821.421</ele>
        <time>2020-05-20T14:20:27Z</time>
      </trkpt>
      <trkpt lat="46.09444" lon="6.25351">
        <ele>821.803</ele>
        <time>2020-05-20T14:20:28Z</time>
      </trkpt>
      <trkpt lat="46.09438" lon="6.25341">
        <ele>822.408</ele>
        <time>2020-05-20T14:20:29Z</time>
      </trkpt>
      <trkpt lat="46.0943" lon="6.2533">
        <ele>823.025</ele>
        <time>2020-05-20T14:20:30Z</time>
      </trkpt>
      <trkpt lat="46.09421" lon="6.25319">
        <ele>823.61</ele>
        <time>2020-05-20T14:20:31Z</time>
      </trkpt>
      <trkpt lat="46.09412" lon="6.25308">
        <ele>824.697</ele>
        <time>2020-05-20T14:20:32Z</time>
      </trkpt>
      <trkpt lat="46.09403" lon="6.25295">
        <ele>825.842</ele>
        <time>2020-05-20T14:20:33Z</time>
      </trkpt>
      <trkpt lat="46.09392" lon="6.25282">
        <ele>827.076</ele>
        <time>2020-05-20T14:20:34Z</time>
      </trkpt>
      <trkpt lat="46.09384" lon="6.2527">
        <ele>828.289</ele>
        <time>2020-05-20T14:20:35Z</time>
      </trkpt>
      <trkpt lat="46.09378" lon="6.25257">
        <ele>829.419</ele>
        <time>2020-05-20T14:20:36Z</time>
      </trkpt>
      <trkpt lat="46.0937" lon="6.2525">
        <ele>830.635</ele>
        <time>2020-05-20T14:20:37Z</time>
      </trkpt>
      <trkpt lat="46.09364" lon="6.25247">
        <ele>831.744</ele>
        <time>2020-05-20T14:20:38Z</time>
      </trkpt>
      <trkpt lat="46.09359" lon="6.25247">
        <ele>832.805</ele>
        <time>2020-05-20T14:20:39Z</time>
      </trkpt>
      <trkpt lat="46.09353" lon="6.25249">
        <ele>834.915</ele>
        <time>2020-05-20T14:20:42Z</time>
      </trkpt>
      <trkpt lat="46.09351" lon="6.25256">
        <ele>835.208</ele>
        <time>2020-05-20T14:20:43Z</time>
      </trkpt>
      <trkpt lat="46.09351" lon="6.25268">
        <ele>835.318</ele>
        <time>2020-05-20T14:20:44Z</time>
      </trkpt>
      <trkpt lat="46.09352" lon="6.25281">
        <ele>835.463</ele>
        <time>2020-05-20T14:20:45Z</time>
      </trkpt>
      <trkpt lat="46.09353" lon="6.25292">
        <ele>835.43</ele>
        <time>2020-05-20T14:20:46Z</time>
      </trkpt>
      <trkpt lat="46.09354" lon="6.25303">
        <ele>835.365</ele>
        <time>2020-05-20T14:20:47Z</time>
      </trkpt>
      <trkpt lat="46.09354" lon="6.25314">
        <ele>835.099</ele>
        <time>2020-05-20T14:20:48Z</time>
      </trkpt>
      <trkpt lat="46.09353" lon="6.25323">
        <ele>834.252</ele>
        <time>2020-05-20T14:20:49Z</time>
      </trkpt>
      <trkpt lat="46.0935" lon="6.2533">
        <ele>833.382</ele>
        <time>2020-05-20T14:20:50Z</time>
      </trkpt>
      <trkpt lat="46.09347" lon="6.25337">
        <ele>832.478</ele>
        <time>2020-05-20T14:20:51Z</time>
      </trkpt>
      <trkpt lat="46.0934" lon="6.2534">
        <ele>831.496</ele>
        <time>2020-05-20T14:20:52Z</time>
      </trkpt>
      <trkpt lat="46.09334" lon="6.2534">
        <ele>830.531</ele>
        <time>2020-05-20T14:20:53Z</time>
      </trkpt>
      <trkpt lat="46.09328" lon="6.2534">
        <ele>830.024</ele>
        <time>2020-05-20T14:20:54Z</time>
      </trkpt>
      <trkpt lat="46.09322" lon="6.25339">
        <ele>829.608</ele>
        <time>2020-05-20T14:20:55Z</time>
      </trkpt>
      <trkpt lat="46.09316" lon="6.25338">
        <ele>829.373</ele>
        <time>2020-05-20T14:20:56Z</time>
      </trkpt>
      <trkpt lat="46.09312" lon="6.25335">
        <ele>829.148</ele>
        <time>2020-05-20T14:20:57Z</time>
      </trkpt>
      <trkpt lat="46.09307" lon="6.25333">
        <ele>829.085</ele>
        <time>2020-05-20T14:20:58Z</time>
      </trkpt>
      <trkpt lat="46.09299" lon="6.25332">
        <ele>828.62</ele>
        <time>2020-05-20T14:21:00Z</time>
      </trkpt>
      <trkpt lat="46.09292" lon="6.25331">
        <ele>828.454</ele>
        <time>2020-05-20T14:21:01Z</time>
      </trkpt>
      <trkpt lat="46.09285" lon="6.2533">
        <ele>828.137</ele>
        <time>2020-05-20T14:21:02Z</time>
      </trkpt>
      <trkpt lat="46.0928" lon="6.25329">
        <ele>827.877</ele>
        <time>2020-05-20T14:21:03Z</time>
      </trkpt>
      <trkpt lat="46.09272" lon="6.25329">
        <ele>827.283</ele>
        <time>2020-05-20T14:21:05Z</time>
      </trkpt>
      <trkpt lat="46.09266" lon="6.2533">
        <ele>826.656</ele>
        <time>2020-05-20T14:21:07Z</time>
      </trkpt>
      <trkpt lat="46.09258" lon="6.2533">
        <ele>826.059</ele>
        <time>2020-05-20T14:21:09Z</time>
      </trkpt>
      <trkpt lat="46.09254" lon="6.25334">
        <ele>821.014</ele>
        <time>2020-05-20T14:21:17Z</time>
      </trkpt>
      <trkpt lat="46.09248" lon="6.25332">
        <ele>818.508</ele>
        <time>2020-05-20T14:21:22Z</time>
      </trkpt>
      <trkpt lat="46.09242" lon="6.2534">
        <ele>818.429</ele>
        <time>2020-05-20T14:21:23Z</time>
      </trkpt>
      <trkpt lat="46.09239" lon="6.25347">
        <ele>818.424</ele>
        <time>2020-05-20T14:21:24Z</time>
      </trkpt>
      <trkpt lat="46.09237" lon="6.25355">
        <ele>818.411</ele>
        <time>2020-05-20T14:21:25Z</time>
      </trkpt>
      <trkpt lat="46.09234" lon="6.25361">
        <ele>818.366</ele>
        <time>2020-05-20T14:21:26Z</time>
      </trkpt>
      <trkpt lat="46.0923" lon="6.25366">
        <ele>818.24</ele>
        <time>2020-05-20T14:21:27Z</time>
      </trkpt>
      <trkpt lat="46.09225" lon="6.25374">
        <ele>817.673</ele>
        <time>2020-05-20T14:21:29Z</time>
      </trkpt>
      <trkpt lat="46.09226" lon="6.25366">
        <ele>815.543</ele>
        <time>2020-05-20T14:21:41Z</time>
      </trkpt>
      <trkpt lat="46.09227" lon="6.25358">
        <ele>815.799</ele>
        <time>2020-05-20T14:21:42Z</time>
      </trkpt>
      <trkpt lat="46.0923" lon="6.2535">
        <ele>816.143</ele>
        <time>2020-05-20T14:21:43Z</time>
      </trkpt>
      <trkpt lat="46.09234" lon="6.25342">
        <ele>816.764</ele>
        <time>2020-05-20T14:21:44Z</time>
      </trkpt>
      <trkpt lat="46.0924" lon="6.25336">
        <ele>817.51</ele>
        <time>2020-05-20T14:21:45Z</time>
      </trkpt>
      <trkpt lat="46.09246" lon="6.25331">
        <ele>818.508</ele>
        <time>2020-05-20T14:21:46Z</time>
      </trkpt>
      <trkpt lat="46.09253" lon="6.25328">
        <ele>819.678</ele>
        <time>2020-05-20T14:21:47Z</time>
      </trkpt>
      <trkpt lat="46.09261" lon="6.2533">
        <ele>820.893</ele>
        <time>2020-05-20T14:21:48Z</time>
      </trkpt>
      <trkpt lat="46.09267" lon="6.2533">
        <ele>823.24</ele>
        <time>2020-05-20T14:21:50Z</time>
      </trkpt>
      <trkpt lat="46.09265" lon="6.25322">
        <ele>825.115</ele>
        <time>2020-05-20T14:21:52Z</time>
      </trkpt>
      <trkpt lat="46.0926" lon="6.25318">
        <ele>825.889</ele>
        <time>2020-05-20T14:21:53Z</time>
      </trkpt>
      <trkpt lat="46.09254" lon="6.25314">
        <ele>826.242</ele>
        <time>2020-05-20T14:21:54Z</time>
      </trkpt>
      <trkpt lat="46.09248" lon="6.25309">
        <ele>826.452</ele>
        <time>2020-05-20T14:21:55Z</time>
      </trkpt>
      <trkpt lat="46.09242" lon="6.25303">
        <ele>826.588</ele>
        <time>2020-05-20T14:21:56Z</time>
      </trkpt>
      <trkpt lat="46.09236" lon="6.25295">
        <ele>826.545</ele>
        <time>2020-05-20T14:21:57Z</time>
      </trkpt>
      <trkpt lat="46.09231" lon="6.25288">
        <ele>826.547</ele>
        <time>2020-05-20T14:21:58Z</time>
      </trkpt>
      <trkpt lat="46.09225" lon="6.25282">
        <ele>826.511</ele>
        <time>2020-05-20T14:21:59Z</time>
      </trkpt>
      <trkpt lat="46.0922" lon="6.25274">
        <ele>826.508</ele>
        <time>2020-05-20T14:22:00Z</time>
      </trkpt>
      <trkpt lat="46.09214" lon="6.25268">
        <ele>826.548</ele>
        <time>2020-05-20T14:22:01Z</time>
      </trkpt>
      <trkpt lat="46.09207" lon="6.25261">
        <ele>826.463</ele>
        <time>2020-05-20T14:22:02Z</time>
      </trkpt>
      <trkpt lat="46.092" lon="6.25253">
        <ele>826.37</ele>
        <time>2020-05-20T14:22:03Z</time>
      </trkpt>
      <trkpt lat="46.09195" lon="6.2525">
        <ele>826.215</ele>
        <time>2020-05-20T14:22:04Z</time>
      </trkpt>
      <trkpt lat="46.09187" lon="6.25246">
        <ele>826.139</ele>
        <time>2020-05-20T14:22:05Z</time>
      </trkpt>
      <trkpt lat="46.0918" lon="6.25244">
        <ele>826.012</ele>
        <time>2020-05-20T14:22:06Z</time>
      </trkpt>
      <trkpt lat="46.09174" lon="6.25241">
        <ele>826.042</ele>
        <time>2020-05-20T14:22:07Z</time>
      </trkpt>
      <trkpt lat="46.09167" lon="6.25236">
        <ele>826.038</ele>
        <time>2020-05-20T14:22:08Z</time>
      </trkpt>
      <trkpt lat="46.0916" lon="6.25233">
        <ele>826.021</ele>
        <time>2020-05-20T14:22:09Z</time>
      </trkpt>
      <trkpt lat="46.09153" lon="6.25231">
        <ele>826.141</ele>
        <time>2020-05-20T14:22:10Z</time>
      </trkpt>
      <trkpt lat="46.09144" lon="6.25229">
        <ele>826.205</ele>
        <time>2020-05-20T14:22:11Z</time>
      </trkpt>
      <trkpt lat="46.09137" lon="6.25225">
        <ele>826.308</ele>
        <time>2020-05-20T14:22:12Z</time>
      </trkpt>
      <trkpt lat="46.09129" lon="6.25221">
        <ele>826.566</ele>
        <time>2020-05-20T14:22:13Z</time>
      </trkpt>
      <trkpt lat="46.09122" lon="6.25216">
        <ele>826.641</ele>
        <time>2020-05-20T14:22:14Z</time>
      </trkpt>
      <trkpt lat="46.09113" lon="6.25213">
        <ele>826.818</ele>
        <time>2020-05-20T14:22:15Z</time>
      </trkpt>
      <trkpt lat="46.09104" lon="6.25209">
        <ele>827.063</ele>
        <time>2020-05-20T14:22:16Z</time>
      </trkpt>
      <trkpt lat="46.09097" lon="6.25203">
        <ele>827.357</ele>
        <time>2020-05-20T14:22:17Z</time>
      </trkpt>
      <trkpt lat="46.09088" lon="6.25196">
        <ele>827.56</ele>
        <time>2020-05-20T14:22:18Z</time>
      </trkpt>
      <trkpt lat="46.09083" lon="6.25193">
        <ele>827.61</ele>
        <time>2020-05-20T14:22:19Z</time>
      </trkpt>
      <trkpt lat="46.0908" lon="6.25188">
        <ele>827.636</ele>
        <time>2020-05-20T14:22:21Z</time>
      </trkpt>
      <trkpt lat="46.09076" lon="6.25183">
        <ele>826.679</ele>
        <time>2020-05-20T14:22:25Z</time>
      </trkpt>
      <trkpt lat="46.0907" lon="6.25189">
        <ele>825.605</ele>
        <time>2020-05-20T14:22:28Z</time>
      </trkpt>
      <trkpt lat="46.09067" lon="6.25197">
        <ele>824.925</ele>
        <time>2020-05-20T14:22:30Z</time>
      </trkpt>
      <trkpt lat="46.09066" lon="6.25203">
        <ele>824.508</ele>
        <time>2020-05-20T14:22:31Z</time>
      </trkpt>
      <trkpt lat="46.09065" lon="6.25212">
        <ele>824.021</ele>
        <time>2020-05-20T14:22:32Z</time>
      </trkpt>
      <trkpt lat="46.09063" lon="6.25223">
        <ele>823.416</ele>
        <time>2020-05-20T14:22:33Z</time>
      </trkpt>
      <trkpt lat="46.09064" lon="6.25233">
        <ele>822.663</ele>
        <time>2020-05-20T14:22:34Z</time>
      </trkpt>
      <trkpt lat="46.09066" lon="6.25243">
        <ele>822.098</ele>
        <time>2020-05-20T14:22:35Z</time>
      </trkpt>
      <trkpt lat="46.09067" lon="6.25255">
        <ele>821.212</ele>
        <time>2020-05-20T14:22:36Z</time>
      </trkpt>
      <trkpt lat="46.09068" lon="6.25265">
        <ele>820.375</ele>
        <time>2020-05-20T14:22:37Z</time>
      </trkpt>
      <trkpt lat="46.09068" lon="6.25275">
        <ele>819.455</ele>
        <time>2020-05-20T14:22:38Z</time>
      </trkpt>
      <trkpt lat="46.09065" lon="6.25283">
        <ele>818.511</ele>
        <time>2020-05-20T14:22:39Z</time>
      </trkpt>
      <trkpt lat="46.09062" lon="6.25288">
        <ele>817.534</ele>
        <time>2020-05-20T14:22:40Z</time>
      </trkpt>
      <trkpt lat="46.09056" lon="6.25288">
        <ele>816.255</ele>
        <time>2020-05-20T14:22:42Z</time>
      </trkpt>
      <trkpt lat="46.0905" lon="6.25292">
        <ele>815.91</ele>
        <time>2020-05-20T14:22:44Z</time>
      </trkpt>
      <trkpt lat="46.09047" lon="6.25298">
        <ele>815.908</ele>
        <time>2020-05-20T14:22:47Z</time>
      </trkpt>
      <trkpt lat="46.09044" lon="6.25303">
        <ele>815.787</ele>
        <time>2020-05-20T14:22:53Z</time>
      </trkpt>
      <trkpt lat="46.09043" lon="6.25315">
        <ele>815.752</ele>
        <time>2020-05-20T14:22:55Z</time>
      </trkpt>
      <trkpt lat="46.09042" lon="6.25322">
        <ele>815.999</ele>
        <time>2020-05-20T14:22:56Z</time>
      </trkpt>
      <trkpt lat="46.09041" lon="6.25329">
        <ele>816.234</ele>
        <time>2020-05-20T14:22:57Z</time>
      </trkpt>
      <trkpt lat="46.0904" lon="6.2534">
        <ele>817.428</ele>
        <time>2020-05-20T14:22:59Z</time>
      </trkpt>
      <trkpt lat="46.09038" lon="6.25349">
        <ele>818.251</ele>
        <time>2020-05-20T14:23:00Z</time>
      </trkpt>
      <trkpt lat="46.09036" lon="6.25356">
        <ele>819.111</ele>
        <time>2020-05-20T14:23:01Z</time>
      </trkpt>
      <trkpt lat="46.09035" lon="6.25367">
        <ele>819.987</ele>
        <time>2020-05-20T14:23:02Z</time>
      </trkpt>
      <trkpt lat="46.09033" lon="6.25384">
        <ele>820.658</ele>
        <time>2020-05-20T14:23:03Z</time>
      </trkpt>
      <trkpt lat="46.09031" lon="6.25394">
        <ele>821.152</ele>
        <time>2020-05-20T14:23:04Z</time>
      </trkpt>
      <trkpt lat="46.0903" lon="6.25402">
        <ele>821.617</ele>
        <time>2020-05-20T14:23:05Z</time>
      </trkpt>
      <trkpt lat="46.09027" lon="6.25408">
        <ele>822.208</ele>
        <time>2020-05-20T14:23:06Z</time>
      </trkpt>
      <trkpt lat="46.09024" lon="6.25412">
        <ele>822.759</ele>
        <time>2020-05-20T14:23:07Z</time>
      </trkpt>
      <trkpt lat="46.09019" lon="6.25412">
        <ele>823.244</ele>
        <time>2020-05-20T14:23:08Z</time>
      </trkpt>
      <trkpt lat="46.0901" lon="6.25411">
        <ele>823.831</ele>
        <time>2020-05-20T14:23:09Z</time>
      </trkpt>
      <trkpt lat="46.09002" lon="6.25408">
        <ele>824.426</ele>
        <time>2020-05-20T14:23:10Z</time>
      </trkpt>
      <trkpt lat="46.08992" lon="6.25403">
        <ele>825.19</ele>
        <time>2020-05-20T14:23:11Z</time>
      </trkpt>
      <trkpt lat="46.08984" lon="6.25398">
        <ele>826.133</ele>
        <time>2020-05-20T14:23:12Z</time>
      </trkpt>
      <trkpt lat="46.08979" lon="6.25394">
        <ele>827.343</ele>
        <time>2020-05-20T14:23:13Z</time>
      </trkpt>
      <trkpt lat="46.08973" lon="6.25391">
        <ele>828.379</ele>
        <time>2020-05-20T14:23:14Z</time>
      </trkpt>
      <trkpt lat="46.08966" lon="6.25387">
        <ele>829.395</ele>
        <time>2020-05-20T14:23:15Z</time>
      </trkpt>
      <trkpt lat="46.08959" lon="6.25383">
        <ele>830.249</ele>
        <time>2020-05-20T14:23:16Z</time>
      </trkpt>
      <trkpt lat="46.0895" lon="6.25377">
        <ele>831.123</ele>
        <time>2020-05-20T14:23:17Z</time>
      </trkpt>
      <trkpt lat="46.08941" lon="6.25371">
        <ele>831.808</ele>
        <time>2020-05-20T14:23:18Z</time>
      </trkpt>
      <trkpt lat="46.08928" lon="6.25364">
        <ele>832.613</ele>
        <time>2020-05-20T14:23:19Z</time>
      </trkpt>
      <trkpt lat="46.08913" lon="6.25355">
        <ele>833.458</ele>
        <time>2020-05-20T14:23:20Z</time>
      </trkpt>
      <trkpt lat="46.08902" lon="6.25348">
        <ele>834.335</ele>
        <time>2020-05-20T14:23:21Z</time>
      </trkpt>
      <trkpt lat="46.08894" lon="6.25342">
        <ele>835.28</ele>
        <time>2020-05-20T14:23:22Z</time>
      </trkpt>
      <trkpt lat="46.08888" lon="6.25338">
        <ele>836.274</ele>
        <time>2020-05-20T14:23:23Z</time>
      </trkpt>
      <trkpt lat="46.08879" lon="6.25334">
        <ele>837.257</ele>
        <time>2020-05-20T14:23:24Z</time>
      </trkpt>
      <trkpt lat="46.08872" lon="6.2533">
        <ele>838.237</ele>
        <time>2020-05-20T14:23:25Z</time>
      </trkpt>
      <trkpt lat="46.08866" lon="6.25325">
        <ele>839.193</ele>
        <time>2020-05-20T14:23:26Z</time>
      </trkpt>
      <trkpt lat="46.08861" lon="6.25322">
        <ele>840.094</ele>
        <time>2020-05-20T14:23:27Z</time>
      </trkpt>
      <trkpt lat="46.08856" lon="6.25318">
        <ele>840.757</ele>
        <time>2020-05-20T14:23:28Z</time>
      </trkpt>
      <trkpt lat="46.0885" lon="6.25313">
        <ele>841.322</ele>
        <time>2020-05-20T14:23:29Z</time>
      </trkpt>
      <trkpt lat="46.08845" lon="6.25307">
        <ele>841.708</ele>
        <time>2020-05-20T14:23:30Z</time>
      </trkpt>
      <trkpt lat="46.0884" lon="6.253">
        <ele>842.293</ele>
        <time>2020-05-20T14:23:31Z</time>
      </trkpt>
      <trkpt lat="46.08836" lon="6.25291">
        <ele>842.788</ele>
        <time>2020-05-20T14:23:32Z</time>
      </trkpt>
      <trkpt lat="46.08831" lon="6.25279">
        <ele>843.385</ele>
        <time>2020-05-20T14:23:33Z</time>
      </trkpt>
      <trkpt lat="46.08828" lon="6.25263">
        <ele>844.18</ele>
        <time>2020-05-20T14:23:34Z</time>
      </trkpt>
      <trkpt lat="46.08822" lon="6.25246">
        <ele>845.374</ele>
        <time>2020-05-20T14:23:35Z</time>
      </trkpt>
      <trkpt lat="46.08818" lon="6.25235">
        <ele>846.367</ele>
        <time>2020-05-20T14:23:36Z</time>
      </trkpt>
      <trkpt lat="46.08814" lon="6.25222">
        <ele>847.317</ele>
        <time>2020-05-20T14:23:37Z</time>
      </trkpt>
      <trkpt lat="46.0881" lon="6.2521">
        <ele>848.473</ele>
        <time>2020-05-20T14:23:38Z</time>
      </trkpt>
      <trkpt lat="46.08808" lon="6.25201">
        <ele>849.522</ele>
        <time>2020-05-20T14:23:39Z</time>
      </trkpt>
      <trkpt lat="46.08804" lon="6.25192">
        <ele>850.162</ele>
        <time>2020-05-20T14:23:40Z</time>
      </trkpt>
      <trkpt lat="46.08801" lon="6.2518">
        <ele>851.408</ele>
        <time>2020-05-20T14:23:42Z</time>
      </trkpt>
      <trkpt lat="46.08795" lon="6.25175">
        <ele>852.608</ele>
        <time>2020-05-20T14:24:09Z</time>
      </trkpt>
      <trkpt lat="46.08783" lon="6.25174">
        <ele>852.626</ele>
        <time>2020-05-20T14:24:11Z</time>
      </trkpt>
      <trkpt lat="46.08776" lon="6.25177">
        <ele>852.611</ele>
        <time>2020-05-20T14:24:12Z</time>
      </trkpt>
      <trkpt lat="46.08771" lon="6.25179">
        <ele>852.778</ele>
        <time>2020-05-20T14:24:13Z</time>
      </trkpt>
      <trkpt lat="46.08765" lon="6.25181">
        <ele>852.753</ele>
        <time>2020-05-20T14:24:14Z</time>
      </trkpt>
      <trkpt lat="46.08758" lon="6.25181">
        <ele>852.877</ele>
        <time>2020-05-20T14:24:15Z</time>
      </trkpt>
      <trkpt lat="46.08751" lon="6.25182">
        <ele>852.87</ele>
        <time>2020-05-20T14:24:16Z</time>
      </trkpt>
      <trkpt lat="46.08742" lon="6.25183">
        <ele>852.86</ele>
        <time>2020-05-20T14:24:17Z</time>
      </trkpt>
      <trkpt lat="46.08733" lon="6.25183">
        <ele>852.836</ele>
        <time>2020-05-20T14:24:18Z</time>
      </trkpt>
      <trkpt lat="46.08724" lon="6.25184">
        <ele>852.726</ele>
        <time>2020-05-20T14:24:19Z</time>
      </trkpt>
      <trkpt lat="46.08715" lon="6.25185">
        <ele>852.647</ele>
        <time>2020-05-20T14:24:20Z</time>
      </trkpt>
      <trkpt lat="46.08707" lon="6.25186">
        <ele>852.511</ele>
        <time>2020-05-20T14:24:21Z</time>
      </trkpt>
      <trkpt lat="46.08698" lon="6.25187">
        <ele>852.408</ele>
        <time>2020-05-20T14:24:22Z</time>
      </trkpt>
      <trkpt lat="46.08691" lon="6.25187">
        <ele>852.216</ele>
        <time>2020-05-20T14:24:23Z</time>
      </trkpt>
      <trkpt lat="46.08683" lon="6.25188">
        <ele>852.161</ele>
        <time>2020-05-20T14:24:24Z</time>
      </trkpt>
      <trkpt lat="46.08676" lon="6.25189">
        <ele>852.148</ele>
        <time>2020-05-20T14:24:25Z</time>
      </trkpt>
      <trkpt lat="46.08669" lon="6.25187">
        <ele>851.953</ele>
        <time>2020-05-20T14:24:27Z</time>
      </trkpt>
      <trkpt lat="46.08667" lon="6.2518">
        <ele>851.627</ele>
        <time>2020-05-20T14:25:02Z</time>
      </trkpt>
      <trkpt lat="46.08667" lon="6.2517">
        <ele>851.83</ele>
        <time>2020-05-20T14:25:03Z</time>
      </trkpt>
      <trkpt lat="46.08666" lon="6.25162">
        <ele>852.27</ele>
        <time>2020-05-20T14:25:04Z</time>
      </trkpt>
      <trkpt lat="46.08665" lon="6.25152">
        <ele>852.616</ele>
        <time>2020-05-20T14:25:05Z</time>
      </trkpt>
      <trkpt lat="46.08665" lon="6.25143">
        <ele>853.157</ele>
        <time>2020-05-20T14:25:06Z</time>
      </trkpt>
      <trkpt lat="46.08664" lon="6.25135">
        <ele>853.7</ele>
        <time>2020-05-20T14:25:07Z</time>
      </trkpt>
      <trkpt lat="46.08662" lon="6.25126">
        <ele>854.32</ele>
        <time>2020-05-20T14:25:08Z</time>
      </trkpt>
      <trkpt lat="46.08661" lon="6.25117">
        <ele>854.708</ele>
        <time>2020-05-20T14:25:09Z</time>
      </trkpt>
      <trkpt lat="46.08661" lon="6.25109">
        <ele>855.039</ele>
        <time>2020-05-20T14:25:10Z</time>
      </trkpt>
      <trkpt lat="46.0866" lon="6.25102">
        <ele>855.344</ele>
        <time>2020-05-20T14:25:11Z</time>
      </trkpt>
      <trkpt lat="46.08659" lon="6.25094">
        <ele>855.831</ele>
        <time>2020-05-20T14:25:12Z</time>
      </trkpt>
      <trkpt lat="46.0866" lon="6.25085">
        <ele>856.386</ele>
        <time>2020-05-20T14:25:13Z</time>
      </trkpt>
      <trkpt lat="46.0866" lon="6.25078">
        <ele>856.88</ele>
        <time>2020-05-20T14:25:14Z</time>
      </trkpt>
      <trkpt lat="46.08662" lon="6.25071">
        <ele>857.433</ele>
        <time>2020-05-20T14:25:15Z</time>
      </trkpt>
      <trkpt lat="46.08662" lon="6.25058">
        <ele>858.853</ele>
        <time>2020-05-20T14:25:17Z</time>
      </trkpt>
      <trkpt lat="46.08663" lon="6.2505">
        <ele>859.529</ele>
        <time>2020-05-20T14:25:18Z</time>
      </trkpt>
      <trkpt lat="46.08663" lon="6.25043">
        <ele>860.458</ele>
        <time>2020-05-20T14:25:19Z</time>
      </trkpt>
      <trkpt lat="46.08662" lon="6.25034">
        <ele>861.452</ele>
        <time>2020-05-20T14:25:20Z</time>
      </trkpt>
      <trkpt lat="46.0866" lon="6.25019">
        <ele>863.617</ele>
        <time>2020-05-20T14:25:22Z</time>
      </trkpt>
      <trkpt lat="46.08658" lon="6.2501">
        <ele>865.708</ele>
        <time>2020-05-20T14:25:24Z</time>
      </trkpt>
      <trkpt lat="46.08657" lon="6.25003">
        <ele>867.499</ele>
        <time>2020-05-20T14:25:26Z</time>
      </trkpt>
      <trkpt lat="46.08656" lon="6.25017">
        <ele>867.264</ele>
        <time>2020-05-20T14:25:51Z</time>
      </trkpt>
      <trkpt lat="46.0866" lon="6.25027">
        <ele>867.011</ele>
        <time>2020-05-20T14:25:52Z</time>
      </trkpt>
      <trkpt lat="46.08664" lon="6.25034">
        <ele>866.776</ele>
        <time>2020-05-20T14:25:53Z</time>
      </trkpt>
      <trkpt lat="46.08666" lon="6.25041">
        <ele>866.77</ele>
        <time>2020-05-20T14:25:54Z</time>
      </trkpt>
      <trkpt lat="46.08666" lon="6.25048">
        <ele>866.373</ele>
        <time>2020-05-20T14:25:55Z</time>
      </trkpt>
      <trkpt lat="46.08666" lon="6.25056">
        <ele>865.713</ele>
        <time>2020-05-20T14:25:56Z</time>
      </trkpt>
      <trkpt lat="46.08665" lon="6.25063">
        <ele>865.189</ele>
        <time>2020-05-20T14:25:57Z</time>
      </trkpt>
      <trkpt lat="46.08664" lon="6.25073">
        <ele>864.358</ele>
        <time>2020-05-20T14:25:58Z</time>
      </trkpt>
      <trkpt lat="46.08663" lon="6.25085">
        <ele>863.452</ele>
        <time>2020-05-20T14:25:59Z</time>
      </trkpt>
      <trkpt lat="46.08662" lon="6.25095">
        <ele>862.517</ele>
        <time>2020-05-20T14:26:00Z</time>
      </trkpt>
      <trkpt lat="46.08661" lon="6.25104">
        <ele>861.608</ele>
        <time>2020-05-20T14:26:01Z</time>
      </trkpt>
      <trkpt lat="46.08661" lon="6.25115">
        <ele>860.789</ele>
        <time>2020-05-20T14:26:02Z</time>
      </trkpt>
      <trkpt lat="46.08663" lon="6.25124">
        <ele>859.884</ele>
        <time>2020-05-20T14:26:03Z</time>
      </trkpt>
      <trkpt lat="46.08665" lon="6.25132">
        <ele>858.821</ele>
        <time>2020-05-20T14:26:04Z</time>
      </trkpt>
      <trkpt lat="46.08667" lon="6.25142">
        <ele>857.966</ele>
        <time>2020-05-20T14:26:05Z</time>
      </trkpt>
      <trkpt lat="46.08668" lon="6.25152">
        <ele>857.17</ele>
        <time>2020-05-20T14:26:06Z</time>
      </trkpt>
      <trkpt lat="46.08668" lon="6.25162">
        <ele>856.443</ele>
        <time>2020-05-20T14:26:07Z</time>
      </trkpt>
      <trkpt lat="46.08667" lon="6.25171">
        <ele>855.833</ele>
        <time>2020-05-20T14:26:08Z</time>
      </trkpt>
      <trkpt lat="46.08667" lon="6.25179">
        <ele>855.459</ele>
        <time>2020-05-20T14:26:09Z</time>
      </trkpt>
      <trkpt lat="46.08665" lon="6.25188">
        <ele>854.478</ele>
        <time>2020-05-20T14:26:11Z</time>
      </trkpt>
      <trkpt lat="46.08653" lon="6.25192">
        <ele>851.333</ele>
        <time>2020-05-20T14:26:20Z</time>
      </trkpt>
      <trkpt lat="46.08645" lon="6.25193">
        <ele>851.426</ele>
        <time>2020-05-20T14:26:21Z</time>
      </trkpt>
      <trkpt lat="46.08629" lon="6.25194">
        <ele>851.508</ele>
        <time>2020-05-20T14:26:22Z</time>
      </trkpt>
      <trkpt lat="46.08615" lon="6.25195">
        <ele>851.881</ele>
        <time>2020-05-20T14:26:23Z</time>
      </trkpt>
      <trkpt lat="46.086" lon="6.25194">
        <ele>852.236</ele>
        <time>2020-05-20T14:26:24Z</time>
      </trkpt>
      <trkpt lat="46.08586" lon="6.25196">
        <ele>852.513</ele>
        <time>2020-05-20T14:26:25Z</time>
      </trkpt>
      <trkpt lat="46.08574" lon="6.25197">
        <ele>852.558</ele>
        <time>2020-05-20T14:26:26Z</time>
      </trkpt>
      <trkpt lat="46.08561" lon="6.25198">
        <ele>852.552</ele>
        <time>2020-05-20T14:26:27Z</time>
      </trkpt>
      <trkpt lat="46.08551" lon="6.252">
        <ele>852.595</ele>
        <time>2020-05-20T14:26:28Z</time>
      </trkpt>
      <trkpt lat="46.08541" lon="6.25207">
        <ele>852.435</ele>
        <time>2020-05-20T14:26:29Z</time>
      </trkpt>
      <trkpt lat="46.08533" lon="6.25217">
        <ele>852.321</ele>
        <time>2020-05-20T14:26:30Z</time>
      </trkpt>
      <trkpt lat="46.08526" lon="6.25226">
        <ele>852.318</ele>
        <time>2020-05-20T14:26:31Z</time>
      </trkpt>
      <trkpt lat="46.0852" lon="6.25232">
        <ele>852.498</ele>
        <time>2020-05-20T14:26:32Z</time>
      </trkpt>
      <trkpt lat="46.08515" lon="6.25233">
        <ele>852.317</ele>
        <time>2020-05-20T14:26:34Z</time>
      </trkpt>
      <trkpt lat="46.08508" lon="6.25231">
        <ele>852.308</ele>
        <time>2020-05-20T14:26:36Z</time>
      </trkpt>
      <trkpt lat="46.08497" lon="6.25236">
        <ele>852.815</ele>
        <time>2020-05-20T14:26:38Z</time>
      </trkpt>
      <trkpt lat="46.08493" lon="6.25239">
        <ele>853.46</ele>
        <time>2020-05-20T14:26:39Z</time>
      </trkpt>
      <trkpt lat="46.08484" lon="6.25238">
        <ele>854.747</ele>
        <time>2020-05-20T14:26:41Z</time>
      </trkpt>
      <trkpt lat="46.08478" lon="6.25239">
        <ele>855.272</ele>
        <time>2020-05-20T14:26:42Z</time>
      </trkpt>
      <trkpt lat="46.08473" lon="6.25238">
        <ele>855.686</ele>
        <time>2020-05-20T14:26:43Z</time>
      </trkpt>
      <trkpt lat="46.08464" lon="6.25237">
        <ele>856.399</ele>
        <time>2020-05-20T14:26:45Z</time>
      </trkpt>
      <trkpt lat="46.08459" lon="6.25235">
        <ele>856.879</ele>
        <time>2020-05-20T14:26:46Z</time>
      </trkpt>
      <trkpt lat="46.08451" lon="6.25231">
        <ele>857.335</ele>
        <time>2020-05-20T14:26:47Z</time>
      </trkpt>
      <trkpt lat="46.08444" lon="6.25228">
        <ele>857.918</ele>
        <time>2020-05-20T14:26:48Z</time>
      </trkpt>
      <trkpt lat="46.08439" lon="6.25226">
        <ele>858.698</ele>
        <time>2020-05-20T14:26:49Z</time>
      </trkpt>
      <trkpt lat="46.08433" lon="6.25223">
        <ele>859.917</ele>
        <time>2020-05-20T14:26:51Z</time>
      </trkpt>
      <trkpt lat="46.08429" lon="6.25216">
        <ele>860.908</ele>
        <time>2020-05-20T14:26:53Z</time>
      </trkpt>
      <trkpt lat="46.08429" lon="6.25209">
        <ele>862.035</ele>
        <time>2020-05-20T14:26:56Z</time>
      </trkpt>
      <trkpt lat="46.0843" lon="6.25201">
        <ele>862.62</ele>
        <time>2020-05-20T14:26:59Z</time>
      </trkpt>
      <trkpt lat="46.08434" lon="6.25195">
        <ele>862.877</ele>
        <time>2020-05-20T14:27:01Z</time>
      </trkpt>
      <trkpt lat="46.08437" lon="6.25189">
        <ele>862.822</ele>
        <time>2020-05-20T14:27:02Z</time>
      </trkpt>
      <trkpt lat="46.08439" lon="6.25182">
        <ele>862.936</ele>
        <time>2020-05-20T14:27:03Z</time>
      </trkpt>
      <trkpt lat="46.08442" lon="6.25174">
        <ele>862.969</ele>
        <time>2020-05-20T14:27:04Z</time>
      </trkpt>
      <trkpt lat="46.08446" lon="6.25165">
        <ele>862.889</ele>
        <time>2020-05-20T14:27:06Z</time>
      </trkpt>
      <trkpt lat="46.08445" lon="6.25155">
        <ele>862.475</ele>
        <time>2020-05-20T14:27:10Z</time>
      </trkpt>
      <trkpt lat="46.08443" lon="6.25163">
        <ele>863.014</ele>
        <time>2020-05-20T14:27:16Z</time>
      </trkpt>
      <trkpt lat="46.08442" lon="6.2517">
        <ele>862.854</ele>
        <time>2020-05-20T14:27:18Z</time>
      </trkpt>
      <trkpt lat="46.08436" lon="6.2518">
        <ele>862.509</ele>
        <time>2020-05-20T14:27:20Z</time>
      </trkpt>
      <trkpt lat="46.08429" lon="6.25183">
        <ele>862.508</ele>
        <time>2020-05-20T14:27:22Z</time>
      </trkpt>
      <trkpt lat="46.08426" lon="6.25192">
        <ele>862.685</ele>
        <time>2020-05-20T14:27:25Z</time>
      </trkpt>
      <trkpt lat="46.08422" lon="6.25195">
        <ele>862.35</ele>
        <time>2020-05-20T14:27:27Z</time>
      </trkpt>
      <trkpt lat="46.08415" lon="6.25196">
        <ele>862.227</ele>
        <time>2020-05-20T14:27:29Z</time>
      </trkpt>
      <trkpt lat="46.08411" lon="6.25196">
        <ele>862.272</ele>
        <time>2020-05-20T14:27:30Z</time>
      </trkpt>
      <trkpt lat="46.08402" lon="6.25197">
        <ele>862.716</ele>
        <time>2020-05-20T14:27:32Z</time>
      </trkpt>
      <trkpt lat="46.08398" lon="6.25196">
        <ele>864.079</ele>
        <time>2020-05-20T14:27:35Z</time>
      </trkpt>
      <trkpt lat="46.08394" lon="6.25191">
        <ele>864.699</ele>
        <time>2020-05-20T14:27:36Z</time>
      </trkpt>
      <trkpt lat="46.08386" lon="6.25185">
        <ele>868.025</ele>
        <time>2020-05-20T14:27:45Z</time>
      </trkpt>
      <trkpt lat="46.08385" lon="6.25193">
        <ele>868.374</ele>
        <time>2020-05-20T14:27:56Z</time>
      </trkpt>
      <trkpt lat="46.08392" lon="6.25202">
        <ele>867.456</ele>
        <time>2020-05-20T14:27:58Z</time>
      </trkpt>
      <trkpt lat="46.08398" lon="6.25206">
        <ele>866.221</ele>
        <time>2020-05-20T14:28:00Z</time>
      </trkpt>
      <trkpt lat="46.08404" lon="6.25205">
        <ele>865.008</ele>
        <time>2020-05-20T14:28:02Z</time>
      </trkpt>
      <trkpt lat="46.08409" lon="6.25208">
        <ele>863.061</ele>
        <time>2020-05-20T14:28:06Z</time>
      </trkpt>
      <trkpt lat="46.08414" lon="6.25211">
        <ele>862.356</ele>
        <time>2020-05-20T14:28:08Z</time>
      </trkpt>
      <trkpt lat="46.0842" lon="6.25214">
        <ele>861.843</ele>
        <time>2020-05-20T14:28:10Z</time>
      </trkpt>
      <trkpt lat="46.08425" lon="6.25216">
        <ele>861.678</ele>
        <time>2020-05-20T14:28:11Z</time>
      </trkpt>
      <trkpt lat="46.0843" lon="6.25219">
        <ele>861.422</ele>
        <time>2020-05-20T14:28:12Z</time>
      </trkpt>
      <trkpt lat="46.08435" lon="6.25225">
        <ele>861.145</ele>
        <time>2020-05-20T14:28:13Z</time>
      </trkpt>
      <trkpt lat="46.08441" lon="6.25227">
        <ele>860.625</ele>
        <time>2020-05-20T14:28:14Z</time>
      </trkpt>
      <trkpt lat="46.08448" lon="6.25234">
        <ele>859.211</ele>
        <time>2020-05-20T14:28:16Z</time>
      </trkpt>
      <trkpt lat="46.08454" lon="6.25234">
        <ele>858.415</ele>
        <time>2020-05-20T14:28:17Z</time>
      </trkpt>
      <trkpt lat="46.0846" lon="6.25233">
        <ele>857.665</ele>
        <time>2020-05-20T14:28:18Z</time>
      </trkpt>
      <trkpt lat="46.08469" lon="6.25233">
        <ele>856.311</ele>
        <time>2020-05-20T14:28:20Z</time>
      </trkpt>
      <trkpt lat="46.08478" lon="6.25227">
        <ele>855.408</ele>
        <time>2020-05-20T14:28:22Z</time>
      </trkpt>
      <trkpt lat="46.08484" lon="6.25225">
        <ele>855.025</ele>
        <time>2020-05-20T14:28:23Z</time>
      </trkpt>
      <trkpt lat="46.08492" lon="6.25225">
        <ele>854.26</ele>
        <time>2020-05-20T14:28:25Z</time>
      </trkpt>
      <trkpt lat="46.08498" lon="6.25229">
        <ele>853.237</ele>
        <time>2020-05-20T14:28:27Z</time>
      </trkpt>
      <trkpt lat="46.08501" lon="6.25239">
        <ele>852.392</ele>
        <time>2020-05-20T14:28:29Z</time>
      </trkpt>
      <trkpt lat="46.085" lon="6.25248">
        <ele>851.916</ele>
        <time>2020-05-20T14:28:31Z</time>
      </trkpt>
      <trkpt lat="46.08499" lon="6.25255">
        <ele>851.959</ele>
        <time>2020-05-20T14:28:32Z</time>
      </trkpt>
      <trkpt lat="46.08499" lon="6.25262">
        <ele>851.989</ele>
        <time>2020-05-20T14:28:33Z</time>
      </trkpt>
      <trkpt lat="46.08497" lon="6.25275">
        <ele>851.925</ele>
        <time>2020-05-20T14:28:35Z</time>
      </trkpt>
      <trkpt lat="46.08499" lon="6.25282">
        <ele>851.997</ele>
        <time>2020-05-20T14:28:36Z</time>
      </trkpt>
      <trkpt lat="46.08497" lon="6.25289">
        <ele>851.923</ele>
        <time>2020-05-20T14:28:37Z</time>
      </trkpt>
      <trkpt lat="46.08495" lon="6.25297">
        <ele>851.925</ele>
        <time>2020-05-20T14:28:38Z</time>
      </trkpt>
      <trkpt lat="46.08493" lon="6.25305">
        <ele>852.008</ele>
        <time>2020-05-20T14:28:39Z</time>
      </trkpt>
      <trkpt lat="46.08492" lon="6.25314">
        <ele>852.143</ele>
        <time>2020-05-20T14:28:40Z</time>
      </trkpt>
      <trkpt lat="46.0849" lon="6.25321">
        <ele>852.268</ele>
        <time>2020-05-20T14:28:41Z</time>
      </trkpt>
      <trkpt lat="46.08484" lon="6.25329">
        <ele>852.685</ele>
        <time>2020-05-20T14:28:43Z</time>
      </trkpt>
      <trkpt lat="46.08476" lon="6.25333">
        <ele>852.98</ele>
        <time>2020-05-20T14:28:45Z</time>
      </trkpt>
      <trkpt lat="46.0847" lon="6.25335">
        <ele>853.164</ele>
        <time>2020-05-20T14:28:46Z</time>
      </trkpt>
      <trkpt lat="46.08464" lon="6.2534">
        <ele>853.317</ele>
        <time>2020-05-20T14:28:48Z</time>
      </trkpt>
      <trkpt lat="46.08461" lon="6.25357">
        <ele>853.587</ele>
        <time>2020-05-20T14:28:50Z</time>
      </trkpt>
      <trkpt lat="46.08458" lon="6.25366">
        <ele>853.633</ele>
        <time>2020-05-20T14:28:51Z</time>
      </trkpt>
      <trkpt lat="46.08454" lon="6.25377">
        <ele>853.876</ele>
        <time>2020-05-20T14:28:52Z</time>
      </trkpt>
      <trkpt lat="46.0845" lon="6.25386">
        <ele>854.29</ele>
        <time>2020-05-20T14:28:53Z</time>
      </trkpt>
      <trkpt lat="46.08446" lon="6.25395">
        <ele>854.819</ele>
        <time>2020-05-20T14:28:54Z</time>
      </trkpt>
      <trkpt lat="46.08443" lon="6.25404">
        <ele>855.308</ele>
        <time>2020-05-20T14:28:55Z</time>
      </trkpt>
      <trkpt lat="46.0844" lon="6.25411">
        <ele>855.851</ele>
        <time>2020-05-20T14:28:56Z</time>
      </trkpt>
      <trkpt lat="46.08435" lon="6.25418">
        <ele>856.336</ele>
        <time>2020-05-20T14:28:57Z</time>
      </trkpt>
      <trkpt lat="46.08432" lon="6.25424">
        <ele>856.733</ele>
        <time>2020-05-20T14:28:58Z</time>
      </trkpt>
      <trkpt lat="46.08428" lon="6.2543">
        <ele>857.078</ele>
        <time>2020-05-20T14:28:59Z</time>
      </trkpt>
      <trkpt lat="46.08422" lon="6.25435">
        <ele>857.472</ele>
        <time>2020-05-20T14:29:01Z</time>
      </trkpt>
      <trkpt lat="46.08414" lon="6.25433">
        <ele>857.525</ele>
        <time>2020-05-20T14:29:03Z</time>
      </trkpt>
      <trkpt lat="46.08407" lon="6.25425">
        <ele>857.545</ele>
        <time>2020-05-20T14:29:05Z</time>
      </trkpt>
      <trkpt lat="46.08403" lon="6.25419">
        <ele>857.471</ele>
        <time>2020-05-20T14:29:06Z</time>
      </trkpt>
      <trkpt lat="46.084" lon="6.25412">
        <ele>857.427</ele>
        <time>2020-05-20T14:29:07Z</time>
      </trkpt>
      <trkpt lat="46.08398" lon="6.25404">
        <ele>857.568</ele>
        <time>2020-05-20T14:29:08Z</time>
      </trkpt>
      <trkpt lat="46.08397" lon="6.25397">
        <ele>857.814</ele>
        <time>2020-05-20T14:29:10Z</time>
      </trkpt>
      <trkpt lat="46.08392" lon="6.2539">
        <ele>858.508</ele>
        <time>2020-05-20T14:29:12Z</time>
      </trkpt>
      <trkpt lat="46.08388" lon="6.25383">
        <ele>859.016</ele>
        <time>2020-05-20T14:29:13Z</time>
      </trkpt>
      <trkpt lat="46.08384" lon="6.25376">
        <ele>859.731</ele>
        <time>2020-05-20T14:29:14Z</time>
      </trkpt>
      <trkpt lat="46.08381" lon="6.25367">
        <ele>860.438</ele>
        <time>2020-05-20T14:29:15Z</time>
      </trkpt>
      <trkpt lat="46.08378" lon="6.25361">
        <ele>861.173</ele>
        <time>2020-05-20T14:29:16Z</time>
      </trkpt>
      <trkpt lat="46.08373" lon="6.25353">
        <ele>861.847</ele>
        <time>2020-05-20T14:29:17Z</time>
      </trkpt>
      <trkpt lat="46.08367" lon="6.25346">
        <ele>862.42</ele>
        <time>2020-05-20T14:29:18Z</time>
      </trkpt>
      <trkpt lat="46.08361" lon="6.25339">
        <ele>863.11</ele>
        <time>2020-05-20T14:29:19Z</time>
      </trkpt>
      <trkpt lat="46.08356" lon="6.25333">
        <ele>863.746</ele>
        <time>2020-05-20T14:29:20Z</time>
      </trkpt>
      <trkpt lat="46.08351" lon="6.25329">
        <ele>864.217</ele>
        <time>2020-05-20T14:29:21Z</time>
      </trkpt>
      <trkpt lat="46.08346" lon="6.25323">
        <ele>865.187</ele>
        <time>2020-05-20T14:29:23Z</time>
      </trkpt>
      <trkpt lat="46.08341" lon="6.2532">
        <ele>865.515</ele>
        <time>2020-05-20T14:29:24Z</time>
      </trkpt>
      <trkpt lat="46.08336" lon="6.25319">
        <ele>865.908</ele>
        <time>2020-05-20T14:29:25Z</time>
      </trkpt>
      <trkpt lat="46.08327" lon="6.25313">
        <ele>866.415</ele>
        <time>2020-05-20T14:29:26Z</time>
      </trkpt>
      <trkpt lat="46.08319" lon="6.25302">
        <ele>867.08</ele>
        <time>2020-05-20T14:29:27Z</time>
      </trkpt>
      <trkpt lat="46.08315" lon="6.25292">
        <ele>867.787</ele>
        <time>2020-05-20T14:29:28Z</time>
      </trkpt>
      <trkpt lat="46.0831" lon="6.25285">
        <ele>868.672</ele>
        <time>2020-05-20T14:29:29Z</time>
      </trkpt>
      <trkpt lat="46.08307" lon="6.2528">
        <ele>869.666</ele>
        <time>2020-05-20T14:29:30Z</time>
      </trkpt>
      <trkpt lat="46.08303" lon="6.25275">
        <ele>870.649</ele>
        <time>2020-05-20T14:29:31Z</time>
      </trkpt>
      <trkpt lat="46.08298" lon="6.2527">
        <ele>872.289</ele>
        <time>2020-05-20T14:29:33Z</time>
      </trkpt>
      <trkpt lat="46.08294" lon="6.25261">
        <ele>873.065</ele>
        <time>2020-05-20T14:29:35Z</time>
      </trkpt>
      <trkpt lat="46.08291" lon="6.25256">
        <ele>873.397</ele>
        <time>2020-05-20T14:29:36Z</time>
      </trkpt>
      <trkpt lat="46.08289" lon="6.2525">
        <ele>873.623</ele>
        <time>2020-05-20T14:29:37Z</time>
      </trkpt>
      <trkpt lat="46.08286" lon="6.25243">
        <ele>873.925</ele>
        <time>2020-05-20T14:29:38Z</time>
      </trkpt>
      <trkpt lat="46.08283" lon="6.25235">
        <ele>874.208</ele>
        <time>2020-05-20T14:29:39Z</time>
      </trkpt>
      <trkpt lat="46.08281" lon="6.25225">
        <ele>874.793</ele>
        <time>2020-05-20T14:29:40Z</time>
      </trkpt>
      <trkpt lat="46.08279" lon="6.25218">
        <ele>875.248</ele>
        <time>2020-05-20T14:29:41Z</time>
      </trkpt>
      <trkpt lat="46.08277" lon="6.2521">
        <ele>875.755</ele>
        <time>2020-05-20T14:29:42Z</time>
      </trkpt>
      <trkpt lat="46.08275" lon="6.25198">
        <ele>876.81</ele>
        <time>2020-05-20T14:29:44Z</time>
      </trkpt>
      <trkpt lat="46.08274" lon="6.25191">
        <ele>877.144</ele>
        <time>2020-05-20T14:29:45Z</time>
      </trkpt>
      <trkpt lat="46.08274" lon="6.25183">
        <ele>877.397</ele>
        <time>2020-05-20T14:29:46Z</time>
      </trkpt>
      <trkpt lat="46.08272" lon="6.25175">
        <ele>877.447</ele>
        <time>2020-05-20T14:29:47Z</time>
      </trkpt>
      <trkpt lat="46.08269" lon="6.25167">
        <ele>877.443</ele>
        <time>2020-05-20T14:29:48Z</time>
      </trkpt>
      <trkpt lat="46.08265" lon="6.2516">
        <ele>877.496</ele>
        <time>2020-05-20T14:29:49Z</time>
      </trkpt>
      <trkpt lat="46.08262" lon="6.25155">
        <ele>877.331</ele>
        <time>2020-05-20T14:29:50Z</time>
      </trkpt>
      <trkpt lat="46.08256" lon="6.25151">
        <ele>877.324</ele>
        <time>2020-05-20T14:29:51Z</time>
      </trkpt>
      <trkpt lat="46.08253" lon="6.25146">
        <ele>877.308</ele>
        <time>2020-05-20T14:29:52Z</time>
      </trkpt>
      <trkpt lat="46.08249" lon="6.2514">
        <ele>877.493</ele>
        <time>2020-05-20T14:29:53Z</time>
      </trkpt>
      <trkpt lat="46.0824" lon="6.25133">
        <ele>877.758</ele>
        <time>2020-05-20T14:29:55Z</time>
      </trkpt>
      <trkpt lat="46.08232" lon="6.25131">
        <ele>877.985</ele>
        <time>2020-05-20T14:29:56Z</time>
      </trkpt>
      <trkpt lat="46.08224" lon="6.2513">
        <ele>878.23</ele>
        <time>2020-05-20T14:29:57Z</time>
      </trkpt>
      <trkpt lat="46.08216" lon="6.25127">
        <ele>878.774</ele>
        <time>2020-05-20T14:29:58Z</time>
      </trkpt>
      <trkpt lat="46.08208" lon="6.25124">
        <ele>879.277</ele>
        <time>2020-05-20T14:29:59Z</time>
      </trkpt>
      <trkpt lat="46.082" lon="6.25121">
        <ele>879.887</ele>
        <time>2020-05-20T14:30:00Z</time>
      </trkpt>
      <trkpt lat="46.08192" lon="6.25121">
        <ele>880.563</ele>
        <time>2020-05-20T14:30:01Z</time>
      </trkpt>
      <trkpt lat="46.08185" lon="6.2512">
        <ele>881.072</ele>
        <time>2020-05-20T14:30:02Z</time>
      </trkpt>
      <trkpt lat="46.08179" lon="6.2512">
        <ele>881.413</ele>
        <time>2020-05-20T14:30:03Z</time>
      </trkpt>
      <trkpt lat="46.08173" lon="6.25119">
        <ele>881.714</ele>
        <time>2020-05-20T14:30:04Z</time>
      </trkpt>
      <trkpt lat="46.08164" lon="6.25113">
        <ele>881.908</ele>
        <time>2020-05-20T14:30:06Z</time>
      </trkpt>
      <trkpt lat="46.08156" lon="6.25104">
        <ele>882.151</ele>
        <time>2020-05-20T14:30:08Z</time>
      </trkpt>
      <trkpt lat="46.08151" lon="6.25099">
        <ele>882.386</ele>
        <time>2020-05-20T14:30:09Z</time>
      </trkpt>
      <trkpt lat="46.08147" lon="6.25094">
        <ele>882.653</ele>
        <time>2020-05-20T14:30:11Z</time>
      </trkpt>
      <trkpt lat="46.08137" lon="6.25083">
        <ele>883.348</ele>
        <time>2020-05-20T14:30:24Z</time>
      </trkpt>
      <trkpt lat="46.08141" lon="6.25094">
        <ele>883.862</ele>
        <time>2020-05-20T14:30:38Z</time>
      </trkpt>
      <trkpt lat="46.08145" lon="6.25098">
        <ele>883.725</ele>
        <time>2020-05-20T14:30:50Z</time>
      </trkpt>
      <trkpt lat="46.0814" lon="6.25091">
        <ele>883.825</ele>
        <time>2020-05-20T14:31:05Z</time>
      </trkpt>
      <trkpt lat="46.08134" lon="6.25086">
        <ele>883.251</ele>
        <time>2020-05-20T14:31:52Z</time>
      </trkpt>
      <trkpt lat="46.0813" lon="6.25081">
        <ele>883.883</ele>
        <time>2020-05-20T14:32:29Z</time>
      </trkpt>
      <trkpt lat="46.08125" lon="6.25068">
        <ele>884.025</ele>
        <time>2020-05-20T14:32:31Z</time>
      </trkpt>
      <trkpt lat="46.08119" lon="6.25058">
        <ele>884.117</ele>
        <time>2020-05-20T14:32:32Z</time>
      </trkpt>
      <trkpt lat="46.08111" lon="6.25046">
        <ele>884.408</ele>
        <time>2020-05-20T14:32:33Z</time>
      </trkpt>
      <trkpt lat="46.08107" lon="6.25035">
        <ele>884.852</ele>
        <time>2020-05-20T14:32:34Z</time>
      </trkpt>
      <trkpt lat="46.08103" lon="6.25027">
        <ele>885.317</ele>
        <time>2020-05-20T14:32:35Z</time>
      </trkpt>
      <trkpt lat="46.08103" lon="6.25019">
        <ele>886.624</ele>
        <time>2020-05-20T14:32:37Z</time>
      </trkpt>
      <trkpt lat="46.08106" lon="6.25013">
        <ele>888.189</ele>
        <time>2020-05-20T14:32:41Z</time>
      </trkpt>
      <trkpt lat="46.08111" lon="6.25004">
        <ele>888.163</ele>
        <time>2020-05-20T14:32:43Z</time>
      </trkpt>
      <trkpt lat="46.08116" lon="6.24992">
        <ele>888.256</ele>
        <time>2020-05-20T14:32:45Z</time>
      </trkpt>
      <trkpt lat="46.08119" lon="6.24981">
        <ele>888.476</ele>
        <time>2020-05-20T14:32:46Z</time>
      </trkpt>
      <trkpt lat="46.08122" lon="6.24969">
        <ele>888.792</ele>
        <time>2020-05-20T14:32:47Z</time>
      </trkpt>
      <trkpt lat="46.08121" lon="6.24958">
        <ele>889.154</ele>
        <time>2020-05-20T14:32:48Z</time>
      </trkpt>
      <trkpt lat="46.08121" lon="6.24948">
        <ele>889.456</ele>
        <time>2020-05-20T14:32:49Z</time>
      </trkpt>
      <trkpt lat="46.0812" lon="6.24941">
        <ele>889.711</ele>
        <time>2020-05-20T14:32:50Z</time>
      </trkpt>
      <trkpt lat="46.08118" lon="6.24931">
        <ele>890.208</ele>
        <time>2020-05-20T14:32:52Z</time>
      </trkpt>
      <trkpt lat="46.08116" lon="6.2492">
        <ele>890.589</ele>
        <time>2020-05-20T14:32:54Z</time>
      </trkpt>
      <trkpt lat="46.08113" lon="6.24914">
        <ele>890.744</ele>
        <time>2020-05-20T14:32:55Z</time>
      </trkpt>
      <trkpt lat="46.08111" lon="6.24906">
        <ele>890.981</ele>
        <time>2020-05-20T14:32:56Z</time>
      </trkpt>
      <trkpt lat="46.08105" lon="6.24893">
        <ele>891.166</ele>
        <time>2020-05-20T14:32:57Z</time>
      </trkpt>
      <trkpt lat="46.08094" lon="6.2488">
        <ele>891.59</ele>
        <time>2020-05-20T14:32:58Z</time>
      </trkpt>
      <trkpt lat="46.08081" lon="6.24867">
        <ele>891.963</ele>
        <time>2020-05-20T14:32:59Z</time>
      </trkpt>
      <trkpt lat="46.08068" lon="6.24852">
        <ele>892.463</ele>
        <time>2020-05-20T14:33:00Z</time>
      </trkpt>
      <trkpt lat="46.08055" lon="6.24836">
        <ele>893.069</ele>
        <time>2020-05-20T14:33:01Z</time>
      </trkpt>
      <trkpt lat="46.08042" lon="6.24817">
        <ele>893.535</ele>
        <time>2020-05-20T14:33:02Z</time>
      </trkpt>
      <trkpt lat="46.08027" lon="6.24798">
        <ele>894.086</ele>
        <time>2020-05-20T14:33:03Z</time>
      </trkpt>
      <trkpt lat="46.08011" lon="6.2478">
        <ele>894.514</ele>
        <time>2020-05-20T14:33:04Z</time>
      </trkpt>
      <trkpt lat="46.07997" lon="6.24763">
        <ele>895.008</ele>
        <time>2020-05-20T14:33:05Z</time>
      </trkpt>
      <trkpt lat="46.07983" lon="6.24744">
        <ele>895.537</ele>
        <time>2020-05-20T14:33:06Z</time>
      </trkpt>
      <trkpt lat="46.07968" lon="6.24726">
        <ele>896.392</ele>
        <time>2020-05-20T14:33:07Z</time>
      </trkpt>
      <trkpt lat="46.07953" lon="6.2471">
        <ele>897.499</ele>
        <time>2020-05-20T14:33:08Z</time>
      </trkpt>
      <trkpt lat="46.07941" lon="6.24697">
        <ele>898.634</ele>
        <time>2020-05-20T14:33:09Z</time>
      </trkpt>
      <trkpt lat="46.07933" lon="6.24686">
        <ele>899.868</ele>
        <time>2020-05-20T14:33:10Z</time>
      </trkpt>
      <trkpt lat="46.07927" lon="6.24676">
        <ele>900.721</ele>
        <time>2020-05-20T14:33:11Z</time>
      </trkpt>
      <trkpt lat="46.07923" lon="6.24669">
        <ele>900.711</ele>
        <time>2020-05-20T14:33:12Z</time>
      </trkpt>
      <trkpt lat="46.07917" lon="6.24675">
        <ele>899.387</ele>
        <time>2020-05-20T14:33:15Z</time>
      </trkpt>
      <trkpt lat="46.07916" lon="6.24682">
        <ele>898.855</ele>
        <time>2020-05-20T14:33:16Z</time>
      </trkpt>
      <trkpt lat="46.07914" lon="6.24691">
        <ele>898.607</ele>
        <time>2020-05-20T14:33:17Z</time>
      </trkpt>
      <trkpt lat="46.07914" lon="6.24703">
        <ele>898.617</ele>
        <time>2020-05-20T14:33:18Z</time>
      </trkpt>
      <trkpt lat="46.07911" lon="6.24717">
        <ele>898.808</ele>
        <time>2020-05-20T14:33:19Z</time>
      </trkpt>
      <trkpt lat="46.07908" lon="6.24734">
        <ele>899.189</ele>
        <time>2020-05-20T14:33:20Z</time>
      </trkpt>
      <trkpt lat="46.07906" lon="6.24756">
        <ele>899.564</ele>
        <time>2020-05-20T14:33:21Z</time>
      </trkpt>
      <trkpt lat="46.07905" lon="6.24777">
        <ele>899.931</ele>
        <time>2020-05-20T14:33:22Z</time>
      </trkpt>
      <trkpt lat="46.07904" lon="6.24794">
        <ele>900.596</ele>
        <time>2020-05-20T14:33:23Z</time>
      </trkpt>
      <trkpt lat="46.07905" lon="6.24814">
        <ele>900.97</ele>
        <time>2020-05-20T14:33:24Z</time>
      </trkpt>
      <trkpt lat="46.07906" lon="6.24833">
        <ele>901.183</ele>
        <time>2020-05-20T14:33:25Z</time>
      </trkpt>
      <trkpt lat="46.07911" lon="6.24852">
        <ele>901.363</ele>
        <time>2020-05-20T14:33:26Z</time>
      </trkpt>
      <trkpt lat="46.07915" lon="6.24869">
        <ele>901.499</ele>
        <time>2020-05-20T14:33:27Z</time>
      </trkpt>
      <trkpt lat="46.07917" lon="6.24878">
        <ele>901.474</ele>
        <time>2020-05-20T14:33:28Z</time>
      </trkpt>
      <trkpt lat="46.07916" lon="6.24887">
        <ele>901.456</ele>
        <time>2020-05-20T14:33:29Z</time>
      </trkpt>
      <trkpt lat="46.07911" lon="6.24892">
        <ele>901.521</ele>
        <time>2020-05-20T14:33:30Z</time>
      </trkpt>
      <trkpt lat="46.079" lon="6.24896">
        <ele>901.708</ele>
        <time>2020-05-20T14:33:32Z</time>
      </trkpt>
      <trkpt lat="46.07887" lon="6.24903">
        <ele>902.141</ele>
        <time>2020-05-20T14:33:33Z</time>
      </trkpt>
      <trkpt lat="46.07877" lon="6.24911">
        <ele>902.856</ele>
        <time>2020-05-20T14:33:34Z</time>
      </trkpt>
      <trkpt lat="46.07868" lon="6.24921">
        <ele>903.923</ele>
        <time>2020-05-20T14:33:35Z</time>
      </trkpt>
      <trkpt lat="46.07861" lon="6.24935">
        <ele>905.178</ele>
        <time>2020-05-20T14:33:36Z</time>
      </trkpt>
      <trkpt lat="46.07856" lon="6.24949">
        <ele>906.222</ele>
        <time>2020-05-20T14:33:37Z</time>
      </trkpt>
      <trkpt lat="46.07852" lon="6.24965">
        <ele>907.345</ele>
        <time>2020-05-20T14:33:38Z</time>
      </trkpt>
      <trkpt lat="46.07846" lon="6.24979">
        <ele>908.565</ele>
        <time>2020-05-20T14:33:39Z</time>
      </trkpt>
      <trkpt lat="46.0784" lon="6.2499">
        <ele>909.511</ele>
        <time>2020-05-20T14:33:40Z</time>
      </trkpt>
      <trkpt lat="46.07832" lon="6.25002">
        <ele>910.659</ele>
        <time>2020-05-20T14:33:41Z</time>
      </trkpt>
      <trkpt lat="46.07833" lon="6.24983">
        <ele>911.903</ele>
        <time>2020-05-20T14:33:42Z</time>
      </trkpt>
      <trkpt lat="46.07827" lon="6.24992">
        <ele>913.423</ele>
        <time>2020-05-20T14:33:43Z</time>
      </trkpt>
      <trkpt lat="46.07823" lon="6.25003">
        <ele>914.708</ele>
        <time>2020-05-20T14:33:44Z</time>
      </trkpt>
      <trkpt lat="46.07819" lon="6.25011">
        <ele>915.929</ele>
        <time>2020-05-20T14:33:45Z</time>
      </trkpt>
      <trkpt lat="46.07816" lon="6.25022">
        <ele>917.024</ele>
        <time>2020-05-20T14:33:46Z</time>
      </trkpt>
      <trkpt lat="46.07811" lon="6.25034">
        <ele>917.921</ele>
        <time>2020-05-20T14:33:47Z</time>
      </trkpt>
      <trkpt lat="46.07805" lon="6.25049">
        <ele>918.646</ele>
        <time>2020-05-20T14:33:48Z</time>
      </trkpt>
      <trkpt lat="46.078" lon="6.25066">
        <ele>919.07</ele>
        <time>2020-05-20T14:33:49Z</time>
      </trkpt>
      <trkpt lat="46.07794" lon="6.25082">
        <ele>919.123</ele>
        <time>2020-05-20T14:33:50Z</time>
      </trkpt>
      <trkpt lat="46.07789" lon="6.25098">
        <ele>919.183</ele>
        <time>2020-05-20T14:33:51Z</time>
      </trkpt>
      <trkpt lat="46.07781" lon="6.25112">
        <ele>919.059</ele>
        <time>2020-05-20T14:33:52Z</time>
      </trkpt>
      <trkpt lat="46.07776" lon="6.25122">
        <ele>918.845</ele>
        <time>2020-05-20T14:33:53Z</time>
      </trkpt>
      <trkpt lat="46.0777" lon="6.25132">
        <ele>918.647</ele>
        <time>2020-05-20T14:33:54Z</time>
      </trkpt>
      <trkpt lat="46.07764" lon="6.25144">
        <ele>918.611</ele>
        <time>2020-05-20T14:33:55Z</time>
      </trkpt>
      <trkpt lat="46.07757" lon="6.25154">
        <ele>918.808</ele>
        <time>2020-05-20T14:33:56Z</time>
      </trkpt>
      <trkpt lat="46.07749" lon="6.25162">
        <ele>919.058</ele>
        <time>2020-05-20T14:33:57Z</time>
      </trkpt>
      <trkpt lat="46.07742" lon="6.2517">
        <ele>919.413</ele>
        <time>2020-05-20T14:33:58Z</time>
      </trkpt>
      <trkpt lat="46.07737" lon="6.2518">
        <ele>920.36</ele>
        <time>2020-05-20T14:33:59Z</time>
      </trkpt>
      <trkpt lat="46.07734" lon="6.25189">
        <ele>921.355</ele>
        <time>2020-05-20T14:34:00Z</time>
      </trkpt>
      <trkpt lat="46.07731" lon="6.25197">
        <ele>922.339</ele>
        <time>2020-05-20T14:34:01Z</time>
      </trkpt>
      <trkpt lat="46.07727" lon="6.25207">
        <ele>923.432</ele>
        <time>2020-05-20T14:34:02Z</time>
      </trkpt>
      <trkpt lat="46.07722" lon="6.25217">
        <ele>924.512</ele>
        <time>2020-05-20T14:34:03Z</time>
      </trkpt>
      <trkpt lat="46.07715" lon="6.25225">
        <ele>925.288</ele>
        <time>2020-05-20T14:34:04Z</time>
      </trkpt>
      <trkpt lat="46.07708" lon="6.25227">
        <ele>925.852</ele>
        <time>2020-05-20T14:34:05Z</time>
      </trkpt>
      <trkpt lat="46.07699" lon="6.25231">
        <ele>926.353</ele>
        <time>2020-05-20T14:34:06Z</time>
      </trkpt>
      <trkpt lat="46.07689" lon="6.25235">
        <ele>926.808</ele>
        <time>2020-05-20T14:34:07Z</time>
      </trkpt>
      <trkpt lat="46.07681" lon="6.25239">
        <ele>927.308</ele>
        <time>2020-05-20T14:34:08Z</time>
      </trkpt>
      <trkpt lat="46.07675" lon="6.25245">
        <ele>927.969</ele>
        <time>2020-05-20T14:34:09Z</time>
      </trkpt>
      <trkpt lat="46.07667" lon="6.2525">
        <ele>928.634</ele>
        <time>2020-05-20T14:34:10Z</time>
      </trkpt>
      <trkpt lat="46.07661" lon="6.25253">
        <ele>929.221</ele>
        <time>2020-05-20T14:34:11Z</time>
      </trkpt>
      <trkpt lat="46.07656" lon="6.25253">
        <ele>929.666</ele>
        <time>2020-05-20T14:34:12Z</time>
      </trkpt>
      <trkpt lat="46.07651" lon="6.25256">
        <ele>929.98</ele>
        <time>2020-05-20T14:34:13Z</time>
      </trkpt>
      <trkpt lat="46.07645" lon="6.25264">
        <ele>929.853</ele>
        <time>2020-05-20T14:34:15Z</time>
      </trkpt>
      <trkpt lat="46.07643" lon="6.2527">
        <ele>929.553</ele>
        <time>2020-05-20T14:34:16Z</time>
      </trkpt>
      <trkpt lat="46.07638" lon="6.25277">
        <ele>929.139</ele>
        <time>2020-05-20T14:34:17Z</time>
      </trkpt>
      <trkpt lat="46.07635" lon="6.25287">
        <ele>928.759</ele>
        <time>2020-05-20T14:34:18Z</time>
      </trkpt>
      <trkpt lat="46.07631" lon="6.25292">
        <ele>928.203</ele>
        <time>2020-05-20T14:34:19Z</time>
      </trkpt>
      <trkpt lat="46.07627" lon="6.25298">
        <ele>927.623</ele>
        <time>2020-05-20T14:34:20Z</time>
      </trkpt>
      <trkpt lat="46.07625" lon="6.25304">
        <ele>927.008</ele>
        <time>2020-05-20T14:34:21Z</time>
      </trkpt>
      <trkpt lat="46.0762" lon="6.25314">
        <ele>925.639</ele>
        <time>2020-05-20T14:34:23Z</time>
      </trkpt>
      <trkpt lat="46.07616" lon="6.25319">
        <ele>924.184</ele>
        <time>2020-05-20T14:34:25Z</time>
      </trkpt>
      <trkpt lat="46.07611" lon="6.25321">
        <ele>923.441</ele>
        <time>2020-05-20T14:34:26Z</time>
      </trkpt>
      <trkpt lat="46.07606" lon="6.25325">
        <ele>922.616</ele>
        <time>2020-05-20T14:34:27Z</time>
      </trkpt>
      <trkpt lat="46.07601" lon="6.2533">
        <ele>921.74</ele>
        <time>2020-05-20T14:34:28Z</time>
      </trkpt>
      <trkpt lat="46.07596" lon="6.25336">
        <ele>920.983</ele>
        <time>2020-05-20T14:34:29Z</time>
      </trkpt>
      <trkpt lat="46.07591" lon="6.25338">
        <ele>920.183</ele>
        <time>2020-05-20T14:34:30Z</time>
      </trkpt>
      <trkpt lat="46.07585" lon="6.25334">
        <ele>919.299</ele>
        <time>2020-05-20T14:34:31Z</time>
      </trkpt>
      <trkpt lat="46.07579" lon="6.25328">
        <ele>918.458</ele>
        <time>2020-05-20T14:34:32Z</time>
      </trkpt>
      <trkpt lat="46.07574" lon="6.25329">
        <ele>917.852</ele>
        <time>2020-05-20T14:34:33Z</time>
      </trkpt>
      <trkpt lat="46.07567" lon="6.25329">
        <ele>917.317</ele>
        <time>2020-05-20T14:34:34Z</time>
      </trkpt>
      <trkpt lat="46.07559" lon="6.25333">
        <ele>916.808</ele>
        <time>2020-05-20T14:34:35Z</time>
      </trkpt>
      <trkpt lat="46.07553" lon="6.25334">
        <ele>916.589</ele>
        <time>2020-05-20T14:34:36Z</time>
      </trkpt>
      <trkpt lat="46.07547" lon="6.25335">
        <ele>916.024</ele>
        <time>2020-05-20T14:34:38Z</time>
      </trkpt>
      <trkpt lat="46.07541" lon="6.25336">
        <ele>915.371</ele>
        <time>2020-05-20T14:34:41Z</time>
      </trkpt>
      <trkpt lat="46.07533" lon="6.25338">
        <ele>914.846</ele>
        <time>2020-05-20T14:34:43Z</time>
      </trkpt>
      <trkpt lat="46.07528" lon="6.25338">
        <ele>914.64</ele>
        <time>2020-05-20T14:34:44Z</time>
      </trkpt>
      <trkpt lat="46.07523" lon="6.2534">
        <ele>914.443</ele>
        <time>2020-05-20T14:34:45Z</time>
      </trkpt>
      <trkpt lat="46.07517" lon="6.25339">
        <ele>914.353</ele>
        <time>2020-05-20T14:34:46Z</time>
      </trkpt>
      <trkpt lat="46.07509" lon="6.25338">
        <ele>914.359</ele>
        <time>2020-05-20T14:34:47Z</time>
      </trkpt>
      <trkpt lat="46.07502" lon="6.25337">
        <ele>914.483</ele>
        <time>2020-05-20T14:34:48Z</time>
      </trkpt>
      <trkpt lat="46.0749" lon="6.25322">
        <ele>914.725</ele>
        <time>2020-05-20T14:34:49Z</time>
      </trkpt>
      <trkpt lat="46.07482" lon="6.25315">
        <ele>914.917</ele>
        <time>2020-05-20T14:34:51Z</time>
      </trkpt>
      <trkpt lat="46.07476" lon="6.25312">
        <ele>914.908</ele>
        <time>2020-05-20T14:34:52Z</time>
      </trkpt>
      <trkpt lat="46.07473" lon="6.25306">
        <ele>914.782</ele>
        <time>2020-05-20T14:34:53Z</time>
      </trkpt>
      <trkpt lat="46.07463" lon="6.253">
        <ele>913.987</ele>
        <time>2020-05-20T14:34:55Z</time>
      </trkpt>
      <trkpt lat="46.07456" lon="6.25288">
        <ele>913.354</ele>
        <time>2020-05-20T14:34:57Z</time>
      </trkpt>
      <trkpt lat="46.07456" lon="6.25279">
        <ele>912.989</ele>
        <time>2020-05-20T14:34:59Z</time>
      </trkpt>
      <trkpt lat="46.07453" lon="6.2527">
        <ele>912.883</ele>
        <time>2020-05-20T14:35:03Z</time>
      </trkpt>
      <trkpt lat="46.07443" lon="6.25259">
        <ele>913.336</ele>
        <time>2020-05-20T14:35:05Z</time>
      </trkpt>
      <trkpt lat="46.07436" lon="6.25256">
        <ele>913.716</ele>
        <time>2020-05-20T14:35:06Z</time>
      </trkpt>
      <trkpt lat="46.07431" lon="6.25252">
        <ele>914.152</ele>
        <time>2020-05-20T14:35:07Z</time>
      </trkpt>
      <trkpt lat="46.07427" lon="6.25244">
        <ele>914.546</ele>
        <time>2020-05-20T14:35:08Z</time>
      </trkpt>
      <trkpt lat="46.07423" lon="6.25237">
        <ele>914.888</ele>
        <time>2020-05-20T14:35:09Z</time>
      </trkpt>
      <trkpt lat="46.07419" lon="6.25234">
        <ele>915.516</ele>
        <time>2020-05-20T14:35:11Z</time>
      </trkpt>
      <trkpt lat="46.07411" lon="6.25228">
        <ele>916.408</ele>
        <time>2020-05-20T14:35:13Z</time>
      </trkpt>
      <trkpt lat="46.07405" lon="6.25222">
        <ele>917.878</ele>
        <time>2020-05-20T14:35:15Z</time>
      </trkpt>
      <trkpt lat="46.07401" lon="6.25215">
        <ele>919.493</ele>
        <time>2020-05-20T14:35:17Z</time>
      </trkpt>
      <trkpt lat="46.07396" lon="6.25209">
        <ele>921.21</ele>
        <time>2020-05-20T14:35:19Z</time>
      </trkpt>
      <trkpt lat="46.07388" lon="6.252">
        <ele>922.225</ele>
        <time>2020-05-20T14:35:21Z</time>
      </trkpt>
      <trkpt lat="46.07382" lon="6.25191">
        <ele>923.229</ele>
        <time>2020-05-20T14:35:22Z</time>
      </trkpt>
      <trkpt lat="46.07376" lon="6.25179">
        <ele>924.312</ele>
        <time>2020-05-20T14:35:23Z</time>
      </trkpt>
      <trkpt lat="46.0737" lon="6.25168">
        <ele>925.522</ele>
        <time>2020-05-20T14:35:24Z</time>
      </trkpt>
      <trkpt lat="46.07365" lon="6.25165">
        <ele>926.638</ele>
        <time>2020-05-20T14:35:25Z</time>
      </trkpt>
      <trkpt lat="46.0736" lon="6.25161">
        <ele>927.856</ele>
        <time>2020-05-20T14:35:26Z</time>
      </trkpt>
      <trkpt lat="46.07354" lon="6.25158">
        <ele>929.059</ele>
        <time>2020-05-20T14:35:27Z</time>
      </trkpt>
      <trkpt lat="46.07348" lon="6.25154">
        <ele>930.114</ele>
        <time>2020-05-20T14:35:28Z</time>
      </trkpt>
      <trkpt lat="46.07343" lon="6.25152">
        <ele>931.108</ele>
        <time>2020-05-20T14:35:29Z</time>
      </trkpt>
      <trkpt lat="46.07339" lon="6.25146">
        <ele>932.059</ele>
        <time>2020-05-20T14:35:30Z</time>
      </trkpt>
      <trkpt lat="46.07331" lon="6.25137">
        <ele>932.614</ele>
        <time>2020-05-20T14:35:31Z</time>
      </trkpt>
      <trkpt lat="46.07324" lon="6.25127">
        <ele>933.031</ele>
        <time>2020-05-20T14:35:32Z</time>
      </trkpt>
      <trkpt lat="46.0732" lon="6.25121">
        <ele>933.356</ele>
        <time>2020-05-20T14:35:33Z</time>
      </trkpt>
      <trkpt lat="46.07312" lon="6.25114">
        <ele>933.49</ele>
        <time>2020-05-20T14:35:34Z</time>
      </trkpt>
      <trkpt lat="46.07303" lon="6.25104">
        <ele>933.513</ele>
        <time>2020-05-20T14:35:35Z</time>
      </trkpt>
      <trkpt lat="46.07293" lon="6.25094">
        <ele>933.693</ele>
        <time>2020-05-20T14:35:36Z</time>
      </trkpt>
      <trkpt lat="46.07285" lon="6.25081">
        <ele>933.869</ele>
        <time>2020-05-20T14:35:37Z</time>
      </trkpt>
      <trkpt lat="46.07278" lon="6.25069">
        <ele>934.192</ele>
        <time>2020-05-20T14:35:38Z</time>
      </trkpt>
      <trkpt lat="46.07273" lon="6.25055">
        <ele>934.473</ele>
        <time>2020-05-20T14:35:39Z</time>
      </trkpt>
      <trkpt lat="46.0727" lon="6.2504">
        <ele>934.52</ele>
        <time>2020-05-20T14:35:40Z</time>
      </trkpt>
      <trkpt lat="46.07265" lon="6.25024">
        <ele>934.608</ele>
        <time>2020-05-20T14:35:41Z</time>
      </trkpt>
      <trkpt lat="46.07263" lon="6.25008">
        <ele>934.743</ele>
        <time>2020-05-20T14:35:42Z</time>
      </trkpt>
      <trkpt lat="46.0726" lon="6.2499">
        <ele>934.768</ele>
        <time>2020-05-20T14:35:43Z</time>
      </trkpt>
      <trkpt lat="46.07259" lon="6.24972">
        <ele>934.795</ele>
        <time>2020-05-20T14:35:44Z</time>
      </trkpt>
      <trkpt lat="46.07259" lon="6.2495">
        <ele>934.81</ele>
        <time>2020-05-20T14:35:45Z</time>
      </trkpt>
      <trkpt lat="46.0726" lon="6.24929">
        <ele>934.974</ele>
        <time>2020-05-20T14:35:46Z</time>
      </trkpt>
      <trkpt lat="46.0726" lon="6.24908">
        <ele>935.027</ele>
        <time>2020-05-20T14:35:47Z</time>
      </trkpt>
      <trkpt lat="46.07259" lon="6.24887">
        <ele>935.117</ele>
        <time>2020-05-20T14:35:48Z</time>
      </trkpt>
      <trkpt lat="46.07258" lon="6.24867">
        <ele>935.283</ele>
        <time>2020-05-20T14:35:49Z</time>
      </trkpt>
      <trkpt lat="46.07258" lon="6.2485">
        <ele>935.376</ele>
        <time>2020-05-20T14:35:50Z</time>
      </trkpt>
      <trkpt lat="46.07261" lon="6.24834">
        <ele>935.69</ele>
        <time>2020-05-20T14:35:51Z</time>
      </trkpt>
      <trkpt lat="46.07266" lon="6.24822">
        <ele>935.919</ele>
        <time>2020-05-20T14:35:52Z</time>
      </trkpt>
      <trkpt lat="46.07274" lon="6.24816">
        <ele>936.208</ele>
        <time>2020-05-20T14:35:53Z</time>
      </trkpt>
      <trkpt lat="46.07284" lon="6.24812">
        <ele>936.631</ele>
        <time>2020-05-20T14:35:54Z</time>
      </trkpt>
      <trkpt lat="46.07293" lon="6.24809">
        <ele>937.096</ele>
        <time>2020-05-20T14:35:55Z</time>
      </trkpt>
      <trkpt lat="46.07301" lon="6.24802">
        <ele>937.563</ele>
        <time>2020-05-20T14:35:56Z</time>
      </trkpt>
      <trkpt lat="46.07309" lon="6.24792">
        <ele>937.948</ele>
        <time>2020-05-20T14:35:57Z</time>
      </trkpt>
      <trkpt lat="46.07313" lon="6.24778">
        <ele>938.222</ele>
        <time>2020-05-20T14:35:58Z</time>
      </trkpt>
      <trkpt lat="46.07314" lon="6.24764">
        <ele>938.585</ele>
        <time>2020-05-20T14:35:59Z</time>
      </trkpt>
      <trkpt lat="46.07309" lon="6.24748">
        <ele>938.785</ele>
        <time>2020-05-20T14:36:00Z</time>
      </trkpt>
      <trkpt lat="46.07301" lon="6.24736">
        <ele>939.191</ele>
        <time>2020-05-20T14:36:01Z</time>
      </trkpt>
      <trkpt lat="46.07293" lon="6.24727">
        <ele>939.627</ele>
        <time>2020-05-20T14:36:02Z</time>
      </trkpt>
      <trkpt lat="46.07286" lon="6.24717">
        <ele>940.068</ele>
        <time>2020-05-20T14:36:03Z</time>
      </trkpt>
      <trkpt lat="46.07279" lon="6.24708">
        <ele>940.514</ele>
        <time>2020-05-20T14:36:04Z</time>
      </trkpt>
      <trkpt lat="46.07272" lon="6.24699">
        <ele>941.008</ele>
        <time>2020-05-20T14:36:05Z</time>
      </trkpt>
      <trkpt lat="46.07262" lon="6.2469">
        <ele>941.116</ele>
        <time>2020-05-20T14:36:06Z</time>
      </trkpt>
      <trkpt lat="46.07253" lon="6.24681">
        <ele>941.131</ele>
        <time>2020-05-20T14:36:07Z</time>
      </trkpt>
      <trkpt lat="46.07242" lon="6.24672">
        <ele>941.158</ele>
        <time>2020-05-20T14:36:08Z</time>
      </trkpt>
      <trkpt lat="46.07232" lon="6.24664">
        <ele>941.083</ele>
        <time>2020-05-20T14:36:09Z</time>
      </trkpt>
      <trkpt lat="46.07222" lon="6.24654">
        <ele>940.687</ele>
        <time>2020-05-20T14:36:10Z</time>
      </trkpt>
      <trkpt lat="46.07211" lon="6.24644">
        <ele>940.15</ele>
        <time>2020-05-20T14:36:11Z</time>
      </trkpt>
      <trkpt lat="46.072" lon="6.24633">
        <ele>939.59</ele>
        <time>2020-05-20T14:36:12Z</time>
      </trkpt>
      <trkpt lat="46.07188" lon="6.24623">
        <ele>938.956</ele>
        <time>2020-05-20T14:36:13Z</time>
      </trkpt>
      <trkpt lat="46.07177" lon="6.24614">
        <ele>938.215</ele>
        <time>2020-05-20T14:36:14Z</time>
      </trkpt>
      <trkpt lat="46.07165" lon="6.24603">
        <ele>937.365</ele>
        <time>2020-05-20T14:36:15Z</time>
      </trkpt>
      <trkpt lat="46.07153" lon="6.24592">
        <ele>936.411</ele>
        <time>2020-05-20T14:36:16Z</time>
      </trkpt>
      <trkpt lat="46.07141" lon="6.24582">
        <ele>935.508</ele>
        <time>2020-05-20T14:36:17Z</time>
      </trkpt>
      <trkpt lat="46.07131" lon="6.24573">
        <ele>934.655</ele>
        <time>2020-05-20T14:36:18Z</time>
      </trkpt>
      <trkpt lat="46.07121" lon="6.24564">
        <ele>933.67</ele>
        <time>2020-05-20T14:36:19Z</time>
      </trkpt>
      <trkpt lat="46.07111" lon="6.24554">
        <ele>932.767</ele>
        <time>2020-05-20T14:36:20Z</time>
      </trkpt>
      <trkpt lat="46.07101" lon="6.24545">
        <ele>931.742</ele>
        <time>2020-05-20T14:36:21Z</time>
      </trkpt>
      <trkpt lat="46.07092" lon="6.24538">
        <ele>930.726</ele>
        <time>2020-05-20T14:36:22Z</time>
      </trkpt>
      <trkpt lat="46.07082" lon="6.24535">
        <ele>929.729</ele>
        <time>2020-05-20T14:36:23Z</time>
      </trkpt>
      <trkpt lat="46.0707" lon="6.24535">
        <ele>928.839</ele>
        <time>2020-05-20T14:36:24Z</time>
      </trkpt>
      <trkpt lat="46.07058" lon="6.24536">
        <ele>928.245</ele>
        <time>2020-05-20T14:36:25Z</time>
      </trkpt>
      <trkpt lat="46.07046" lon="6.24537">
        <ele>927.875</ele>
        <time>2020-05-20T14:36:26Z</time>
      </trkpt>
      <trkpt lat="46.07033" lon="6.24535">
        <ele>927.428</ele>
        <time>2020-05-20T14:36:27Z</time>
      </trkpt>
      <trkpt lat="46.07021" lon="6.24534">
        <ele>927.02</ele>
        <time>2020-05-20T14:36:28Z</time>
      </trkpt>
      <trkpt lat="46.07008" lon="6.24533">
        <ele>926.708</ele>
        <time>2020-05-20T14:36:29Z</time>
      </trkpt>
      <trkpt lat="46.06996" lon="6.24531">
        <ele>926.321</ele>
        <time>2020-05-20T14:36:30Z</time>
      </trkpt>
      <trkpt lat="46.06984" lon="6.24529">
        <ele>925.746</ele>
        <time>2020-05-20T14:36:31Z</time>
      </trkpt>
      <trkpt lat="46.06971" lon="6.24526">
        <ele>925.033</ele>
        <time>2020-05-20T14:36:32Z</time>
      </trkpt>
      <trkpt lat="46.06956" lon="6.24522">
        <ele>924.328</ele>
        <time>2020-05-20T14:36:33Z</time>
      </trkpt>
      <trkpt lat="46.06942" lon="6.24515">
        <ele>923.512</ele>
        <time>2020-05-20T14:36:34Z</time>
      </trkpt>
      <trkpt lat="46.06927" lon="6.24503">
        <ele>922.875</ele>
        <time>2020-05-20T14:36:35Z</time>
      </trkpt>
      <trkpt lat="46.06913" lon="6.24491">
        <ele>922.135</ele>
        <time>2020-05-20T14:36:36Z</time>
      </trkpt>
      <trkpt lat="46.069" lon="6.2448">
        <ele>921.781</ele>
        <time>2020-05-20T14:36:37Z</time>
      </trkpt>
      <trkpt lat="46.06888" lon="6.24469">
        <ele>921.283</ele>
        <time>2020-05-20T14:36:38Z</time>
      </trkpt>
      <trkpt lat="46.06876" lon="6.24457">
        <ele>920.825</ele>
        <time>2020-05-20T14:36:39Z</time>
      </trkpt>
      <trkpt lat="46.06864" lon="6.24446">
        <ele>920.317</ele>
        <time>2020-05-20T14:36:40Z</time>
      </trkpt>
      <trkpt lat="46.06851" lon="6.24438">
        <ele>919.808</ele>
        <time>2020-05-20T14:36:41Z</time>
      </trkpt>
      <trkpt lat="46.06837" lon="6.2443">
        <ele>919.012</ele>
        <time>2020-05-20T14:36:42Z</time>
      </trkpt>
      <trkpt lat="46.06824" lon="6.24421">
        <ele>918.317</ele>
        <time>2020-05-20T14:36:43Z</time>
      </trkpt>
      <trkpt lat="46.06813" lon="6.24412">
        <ele>917.734</ele>
        <time>2020-05-20T14:36:44Z</time>
      </trkpt>
      <trkpt lat="46.06805" lon="6.24405">
        <ele>916.999</ele>
        <time>2020-05-20T14:36:45Z</time>
      </trkpt>
      <trkpt lat="46.06795" lon="6.244">
        <ele>916.293</ele>
        <time>2020-05-20T14:36:46Z</time>
      </trkpt>
      <trkpt lat="46.06788" lon="6.24402">
        <ele>915.726</ele>
        <time>2020-05-20T14:36:47Z</time>
      </trkpt>
      <trkpt lat="46.0678" lon="6.24403">
        <ele>915.346</ele>
        <time>2020-05-20T14:36:48Z</time>
      </trkpt>
      <trkpt lat="46.06773" lon="6.24405">
        <ele>915.182</ele>
        <time>2020-05-20T14:36:49Z</time>
      </trkpt>
      <trkpt lat="46.06765" lon="6.24408">
        <ele>915.149</ele>
        <time>2020-05-20T14:36:50Z</time>
      </trkpt>
      <trkpt lat="46.06758" lon="6.24413">
        <ele>915.102</ele>
        <time>2020-05-20T14:36:51Z</time>
      </trkpt>
      <trkpt lat="46.0675" lon="6.24418">
        <ele>915.322</ele>
        <time>2020-05-20T14:36:52Z</time>
      </trkpt>
      <trkpt lat="46.06741" lon="6.24423">
        <ele>915.308</ele>
        <time>2020-05-20T14:36:53Z</time>
      </trkpt>
      <trkpt lat="46.0673" lon="6.24429">
        <ele>915.218</ele>
        <time>2020-05-20T14:36:54Z</time>
      </trkpt>
      <trkpt lat="46.06727" lon="6.24421">
        <ele>915.153</ele>
        <time>2020-05-20T14:36:55Z</time>
      </trkpt>
      <trkpt lat="46.06717" lon="6.24428">
        <ele>914.86</ele>
        <time>2020-05-20T14:36:56Z</time>
      </trkpt>
      <trkpt lat="46.06706" lon="6.24435">
        <ele>914.475</ele>
        <time>2020-05-20T14:36:57Z</time>
      </trkpt>
      <trkpt lat="46.06694" lon="6.24441">
        <ele>914.139</ele>
        <time>2020-05-20T14:36:58Z</time>
      </trkpt>
      <trkpt lat="46.06684" lon="6.24437">
        <ele>913.812</ele>
        <time>2020-05-20T14:36:59Z</time>
      </trkpt>
      <trkpt lat="46.06675" lon="6.24436">
        <ele>913.642</ele>
        <time>2020-05-20T14:37:00Z</time>
      </trkpt>
      <trkpt lat="46.06669" lon="6.24416">
        <ele>913.698</ele>
        <time>2020-05-20T14:37:01Z</time>
      </trkpt>
      <trkpt lat="46.06663" lon="6.24405">
        <ele>914.077</ele>
        <time>2020-05-20T14:37:02Z</time>
      </trkpt>
      <trkpt lat="46.06659" lon="6.24394">
        <ele>914.661</ele>
        <time>2020-05-20T14:37:03Z</time>
      </trkpt>
      <trkpt lat="46.06654" lon="6.24385">
        <ele>915.427</ele>
        <time>2020-05-20T14:37:04Z</time>
      </trkpt>
      <trkpt lat="46.06648" lon="6.24375">
        <ele>916.508</ele>
        <time>2020-05-20T14:37:05Z</time>
      </trkpt>
      <trkpt lat="46.06643" lon="6.24364">
        <ele>917.451</ele>
        <time>2020-05-20T14:37:06Z</time>
      </trkpt>
      <trkpt lat="46.06636" lon="6.24355">
        <ele>918.236</ele>
        <time>2020-05-20T14:37:07Z</time>
      </trkpt>
      <trkpt lat="46.0663" lon="6.24349">
        <ele>918.933</ele>
        <time>2020-05-20T14:37:08Z</time>
      </trkpt>
      <trkpt lat="46.06625" lon="6.24341">
        <ele>919.688</ele>
        <time>2020-05-20T14:37:09Z</time>
      </trkpt>
      <trkpt lat="46.06618" lon="6.24336">
        <ele>921.542</ele>
        <time>2020-05-20T14:37:13Z</time>
      </trkpt>
      <trkpt lat="46.06615" lon="6.24323">
        <ele>921.795</ele>
        <time>2020-05-20T14:37:15Z</time>
      </trkpt>
      <trkpt lat="46.06615" lon="6.24315">
        <ele>921.455</ele>
        <time>2020-05-20T14:37:16Z</time>
      </trkpt>
      <trkpt lat="46.06613" lon="6.24306">
        <ele>921.151</ele>
        <time>2020-05-20T14:37:17Z</time>
      </trkpt>
      <trkpt lat="46.06612" lon="6.24296">
        <ele>920.881</ele>
        <time>2020-05-20T14:37:18Z</time>
      </trkpt>
      <trkpt lat="46.06611" lon="6.24285">
        <ele>920.761</ele>
        <time>2020-05-20T14:37:19Z</time>
      </trkpt>
      <trkpt lat="46.06609" lon="6.24269">
        <ele>920.717</ele>
        <time>2020-05-20T14:37:20Z</time>
      </trkpt>
      <trkpt lat="46.06609" lon="6.24255">
        <ele>921.108</ele>
        <time>2020-05-20T14:37:21Z</time>
      </trkpt>
      <trkpt lat="46.06609" lon="6.24243">
        <ele>921.662</ele>
        <time>2020-05-20T14:37:22Z</time>
      </trkpt>
      <trkpt lat="46.06608" lon="6.24229">
        <ele>922.257</ele>
        <time>2020-05-20T14:37:23Z</time>
      </trkpt>
      <trkpt lat="46.06607" lon="6.24216">
        <ele>922.654</ele>
        <time>2020-05-20T14:37:24Z</time>
      </trkpt>
      <trkpt lat="46.06606" lon="6.24203">
        <ele>922.669</ele>
        <time>2020-05-20T14:37:25Z</time>
      </trkpt>
      <trkpt lat="46.06607" lon="6.2419">
        <ele>922.363</ele>
        <time>2020-05-20T14:37:26Z</time>
      </trkpt>
      <trkpt lat="46.06611" lon="6.24177">
        <ele>921.756</ele>
        <time>2020-05-20T14:37:27Z</time>
      </trkpt>
      <trkpt lat="46.06617" lon="6.24168">
        <ele>920.936</ele>
        <time>2020-05-20T14:37:28Z</time>
      </trkpt>
      <trkpt lat="46.06625" lon="6.2416">
        <ele>920.342</ele>
        <time>2020-05-20T14:37:29Z</time>
      </trkpt>
      <trkpt lat="46.06634" lon="6.24151">
        <ele>919.921</ele>
        <time>2020-05-20T14:37:30Z</time>
      </trkpt>
      <trkpt lat="46.06643" lon="6.24142">
        <ele>919.641</ele>
        <time>2020-05-20T14:37:31Z</time>
      </trkpt>
      <trkpt lat="46.06652" lon="6.24131">
        <ele>919.605</ele>
        <time>2020-05-20T14:37:32Z</time>
      </trkpt>
      <trkpt lat="46.0666" lon="6.24121">
        <ele>919.608</ele>
        <time>2020-05-20T14:37:33Z</time>
      </trkpt>
      <trkpt lat="46.06668" lon="6.24112">
        <ele>919.616</ele>
        <time>2020-05-20T14:37:34Z</time>
      </trkpt>
      <trkpt lat="46.06677" lon="6.24103">
        <ele>919.641</ele>
        <time>2020-05-20T14:37:35Z</time>
      </trkpt>
      <trkpt lat="46.06684" lon="6.24095">
        <ele>919.648</ele>
        <time>2020-05-20T14:37:36Z</time>
      </trkpt>
      <trkpt lat="46.06691" lon="6.24086">
        <ele>919.663</ele>
        <time>2020-05-20T14:37:37Z</time>
      </trkpt>
      <trkpt lat="46.06697" lon="6.2408">
        <ele>919.617</ele>
        <time>2020-05-20T14:37:38Z</time>
      </trkpt>
      <trkpt lat="46.06703" lon="6.24075">
        <ele>919.58</ele>
        <time>2020-05-20T14:37:39Z</time>
      </trkpt>
      <trkpt lat="46.06708" lon="6.24071">
        <ele>919.57</ele>
        <time>2020-05-20T14:37:40Z</time>
      </trkpt>
      <trkpt lat="46.06712" lon="6.24067">
        <ele>919.376</ele>
        <time>2020-05-20T14:37:41Z</time>
      </trkpt>
      <trkpt lat="46.06716" lon="6.24062">
        <ele>919.075</ele>
        <time>2020-05-20T14:37:42Z</time>
      </trkpt>
      <trkpt lat="46.06721" lon="6.24057">
        <ele>918.628</ele>
        <time>2020-05-20T14:37:43Z</time>
      </trkpt>
      <trkpt lat="46.06725" lon="6.24051">
        <ele>918.42</ele>
        <time>2020-05-20T14:37:44Z</time>
      </trkpt>
      <trkpt lat="46.06729" lon="6.24042">
        <ele>918.108</ele>
        <time>2020-05-20T14:37:45Z</time>
      </trkpt>
      <trkpt lat="46.06735" lon="6.2403">
        <ele>917.911</ele>
        <time>2020-05-20T14:37:46Z</time>
      </trkpt>
      <trkpt lat="46.0674" lon="6.24022">
        <ele>917.896</ele>
        <time>2020-05-20T14:37:47Z</time>
      </trkpt>
      <trkpt lat="46.06743" lon="6.24012">
        <ele>917.783</ele>
        <time>2020-05-20T14:37:48Z</time>
      </trkpt>
      <trkpt lat="46.06746" lon="6.24004">
        <ele>917.738</ele>
        <time>2020-05-20T14:37:49Z</time>
      </trkpt>
      <trkpt lat="46.06746" lon="6.23997">
        <ele>917.632</ele>
        <time>2020-05-20T14:37:50Z</time>
      </trkpt>
      <trkpt lat="46.06744" lon="6.23989">
        <ele>917.515</ele>
        <time>2020-05-20T14:37:51Z</time>
      </trkpt>
      <trkpt lat="46.0674" lon="6.23982">
        <ele>917.415</ele>
        <time>2020-05-20T14:37:52Z</time>
      </trkpt>
      <trkpt lat="46.06733" lon="6.23975">
        <ele>917.371</ele>
        <time>2020-05-20T14:37:53Z</time>
      </trkpt>
      <trkpt lat="46.06724" lon="6.23971">
        <ele>917.096</ele>
        <time>2020-05-20T14:37:54Z</time>
      </trkpt>
      <trkpt lat="46.06715" lon="6.23966">
        <ele>916.731</ele>
        <time>2020-05-20T14:37:55Z</time>
      </trkpt>
      <trkpt lat="46.06705" lon="6.2396">
        <ele>916.324</ele>
        <time>2020-05-20T14:37:56Z</time>
      </trkpt>
      <trkpt lat="46.06694" lon="6.23952">
        <ele>915.908</ele>
        <time>2020-05-20T14:37:57Z</time>
      </trkpt>
      <trkpt lat="46.06682" lon="6.23945">
        <ele>915.483</ele>
        <time>2020-05-20T14:37:58Z</time>
      </trkpt>
      <trkpt lat="46.0667" lon="6.23936">
        <ele>914.878</ele>
        <time>2020-05-20T14:37:59Z</time>
      </trkpt>
      <trkpt lat="46.06659" lon="6.23928">
        <ele>914.215</ele>
        <time>2020-05-20T14:38:00Z</time>
      </trkpt>
      <trkpt lat="46.06648" lon="6.23918">
        <ele>913.67</ele>
        <time>2020-05-20T14:38:01Z</time>
      </trkpt>
      <trkpt lat="46.06638" lon="6.23909">
        <ele>912.834</ele>
        <time>2020-05-20T14:38:02Z</time>
      </trkpt>
      <trkpt lat="46.06627" lon="6.23903">
        <ele>912.057</ele>
        <time>2020-05-20T14:38:03Z</time>
      </trkpt>
      <trkpt lat="46.06617" lon="6.23894">
        <ele>911.337</ele>
        <time>2020-05-20T14:38:04Z</time>
      </trkpt>
      <trkpt lat="46.06606" lon="6.23885">
        <ele>910.563</ele>
        <time>2020-05-20T14:38:05Z</time>
      </trkpt>
      <trkpt lat="46.06595" lon="6.23876">
        <ele>909.714</ele>
        <time>2020-05-20T14:38:06Z</time>
      </trkpt>
      <trkpt lat="46.06584" lon="6.23867">
        <ele>909.154</ele>
        <time>2020-05-20T14:38:07Z</time>
      </trkpt>
      <trkpt lat="46.06572" lon="6.23859">
        <ele>908.509</ele>
        <time>2020-05-20T14:38:08Z</time>
      </trkpt>
      <trkpt lat="46.0656" lon="6.2385">
        <ele>907.808</ele>
        <time>2020-05-20T14:38:09Z</time>
      </trkpt>
      <trkpt lat="46.06549" lon="6.2384">
        <ele>907.145</ele>
        <time>2020-05-20T14:38:10Z</time>
      </trkpt>
      <trkpt lat="46.0654" lon="6.23829">
        <ele>906.52</ele>
        <time>2020-05-20T14:38:11Z</time>
      </trkpt>
      <trkpt lat="46.06529" lon="6.23822">
        <ele>905.877</ele>
        <time>2020-05-20T14:38:12Z</time>
      </trkpt>
      <trkpt lat="46.06518" lon="6.23816">
        <ele>905.272</ele>
        <time>2020-05-20T14:38:13Z</time>
      </trkpt>
      <trkpt lat="46.06507" lon="6.23815">
        <ele>904.736</ele>
        <time>2020-05-20T14:38:14Z</time>
      </trkpt>
      <trkpt lat="46.06496" lon="6.23821">
        <ele>904.339</ele>
        <time>2020-05-20T14:38:15Z</time>
      </trkpt>
      <trkpt lat="46.06484" lon="6.23827">
        <ele>903.869</ele>
        <time>2020-05-20T14:38:16Z</time>
      </trkpt>
      <trkpt lat="46.06474" lon="6.23836">
        <ele>903.415</ele>
        <time>2020-05-20T14:38:17Z</time>
      </trkpt>
      <trkpt lat="46.06468" lon="6.23843">
        <ele>902.987</ele>
        <time>2020-05-20T14:38:18Z</time>
      </trkpt>
      <trkpt lat="46.0646" lon="6.23845">
        <ele>902.242</ele>
        <time>2020-05-20T14:38:19Z</time>
      </trkpt>
      <trkpt lat="46.0645" lon="6.23841">
        <ele>901.526</ele>
        <time>2020-05-20T14:38:20Z</time>
      </trkpt>
      <trkpt lat="46.0644" lon="6.23833">
        <ele>900.808</ele>
        <time>2020-05-20T14:38:21Z</time>
      </trkpt>
      <trkpt lat="46.06428" lon="6.23824">
        <ele>899.942</ele>
        <time>2020-05-20T14:38:22Z</time>
      </trkpt>
      <trkpt lat="46.06416" lon="6.23812">
        <ele>898.817</ele>
        <time>2020-05-20T14:38:23Z</time>
      </trkpt>
      <trkpt lat="46.06404" lon="6.23804">
        <ele>897.774</ele>
        <time>2020-05-20T14:38:24Z</time>
      </trkpt>
      <trkpt lat="46.06391" lon="6.23799">
        <ele>896.499</ele>
        <time>2020-05-20T14:38:25Z</time>
      </trkpt>
      <trkpt lat="46.06378" lon="6.23795">
        <ele>895.193</ele>
        <time>2020-05-20T14:38:26Z</time>
      </trkpt>
      <trkpt lat="46.06365" lon="6.23795">
        <ele>893.776</ele>
        <time>2020-05-20T14:38:27Z</time>
      </trkpt>
      <trkpt lat="46.06355" lon="6.23796">
        <ele>892.476</ele>
        <time>2020-05-20T14:38:28Z</time>
      </trkpt>
      <trkpt lat="46.06345" lon="6.23799">
        <ele>891.262</ele>
        <time>2020-05-20T14:38:29Z</time>
      </trkpt>
      <trkpt lat="46.06337" lon="6.23807">
        <ele>890.281</ele>
        <time>2020-05-20T14:38:30Z</time>
      </trkpt>
      <trkpt lat="46.06331" lon="6.2382">
        <ele>890.261</ele>
        <time>2020-05-20T14:38:31Z</time>
      </trkpt>
      <trkpt lat="46.06326" lon="6.23836">
        <ele>889.217</ele>
        <time>2020-05-20T14:38:32Z</time>
      </trkpt>
      <trkpt lat="46.06319" lon="6.23852">
        <ele>888.208</ele>
        <time>2020-05-20T14:38:33Z</time>
      </trkpt>
      <trkpt lat="46.06314" lon="6.23864">
        <ele>887.122</ele>
        <time>2020-05-20T14:38:34Z</time>
      </trkpt>
      <trkpt lat="46.06306" lon="6.23877">
        <ele>885.997</ele>
        <time>2020-05-20T14:38:35Z</time>
      </trkpt>
      <trkpt lat="46.06297" lon="6.23885">
        <ele>884.664</ele>
        <time>2020-05-20T14:38:36Z</time>
      </trkpt>
      <trkpt lat="46.06285" lon="6.23889">
        <ele>883.249</ele>
        <time>2020-05-20T14:38:37Z</time>
      </trkpt>
      <trkpt lat="46.06277" lon="6.23897">
        <ele>881.763</ele>
        <time>2020-05-20T14:38:38Z</time>
      </trkpt>
      <trkpt lat="46.06268" lon="6.23908">
        <ele>880.336</ele>
        <time>2020-05-20T14:38:39Z</time>
      </trkpt>
      <trkpt lat="46.0626" lon="6.23918">
        <ele>879.036</ele>
        <time>2020-05-20T14:38:40Z</time>
      </trkpt>
      <trkpt lat="46.06251" lon="6.23928">
        <ele>877.862</ele>
        <time>2020-05-20T14:38:41Z</time>
      </trkpt>
      <trkpt lat="46.06243" lon="6.23941">
        <ele>876.554</ele>
        <time>2020-05-20T14:38:42Z</time>
      </trkpt>
      <trkpt lat="46.06235" lon="6.23955">
        <ele>875.556</ele>
        <time>2020-05-20T14:38:43Z</time>
      </trkpt>
      <trkpt lat="46.06227" lon="6.23967">
        <ele>874.611</ele>
        <time>2020-05-20T14:38:44Z</time>
      </trkpt>
      <trkpt lat="46.06218" lon="6.23982">
        <ele>873.708</ele>
        <time>2020-05-20T14:38:45Z</time>
      </trkpt>
      <trkpt lat="46.06209" lon="6.23995">
        <ele>872.779</ele>
        <time>2020-05-20T14:38:46Z</time>
      </trkpt>
      <trkpt lat="46.06201" lon="6.24008">
        <ele>871.824</ele>
        <time>2020-05-20T14:38:47Z</time>
      </trkpt>
      <trkpt lat="46.06194" lon="6.24021">
        <ele>871.021</ele>
        <time>2020-05-20T14:38:48Z</time>
      </trkpt>
      <trkpt lat="46.06185" lon="6.24034">
        <ele>870.186</ele>
        <time>2020-05-20T14:38:49Z</time>
      </trkpt>
      <trkpt lat="46.06177" lon="6.24049">
        <ele>869.24</ele>
        <time>2020-05-20T14:38:50Z</time>
      </trkpt>
      <trkpt lat="46.06169" lon="6.24062">
        <ele>868.413</ele>
        <time>2020-05-20T14:38:51Z</time>
      </trkpt>
      <trkpt lat="46.06161" lon="6.24073">
        <ele>867.883</ele>
        <time>2020-05-20T14:38:52Z</time>
      </trkpt>
      <trkpt lat="46.06152" lon="6.2408">
        <ele>867.269</ele>
        <time>2020-05-20T14:38:53Z</time>
      </trkpt>
      <trkpt lat="46.06142" lon="6.24087">
        <ele>866.683</ele>
        <time>2020-05-20T14:38:54Z</time>
      </trkpt>
      <trkpt lat="46.06133" lon="6.24086">
        <ele>866.225</ele>
        <time>2020-05-20T14:38:55Z</time>
      </trkpt>
      <trkpt lat="46.06122" lon="6.24084">
        <ele>865.617</ele>
        <time>2020-05-20T14:38:56Z</time>
      </trkpt>
      <trkpt lat="46.06111" lon="6.24077">
        <ele>865.208</ele>
        <time>2020-05-20T14:38:57Z</time>
      </trkpt>
      <trkpt lat="46.06101" lon="6.24067">
        <ele>864.782</ele>
        <time>2020-05-20T14:38:58Z</time>
      </trkpt>
      <trkpt lat="46.06092" lon="6.24056">
        <ele>864.427</ele>
        <time>2020-05-20T14:38:59Z</time>
      </trkpt>
      <trkpt lat="46.06082" lon="6.24045">
        <ele>863.974</ele>
        <time>2020-05-20T14:39:00Z</time>
      </trkpt>
      <trkpt lat="46.06072" lon="6.24033">
        <ele>863.539</ele>
        <time>2020-05-20T14:39:01Z</time>
      </trkpt>
      <trkpt lat="46.06062" lon="6.24021">
        <ele>862.993</ele>
        <time>2020-05-20T14:39:02Z</time>
      </trkpt>
      <trkpt lat="46.06052" lon="6.2401">
        <ele>862.366</ele>
        <time>2020-05-20T14:39:03Z</time>
      </trkpt>
      <trkpt lat="46.06041" lon="6.24">
        <ele>861.686</ele>
        <time>2020-05-20T14:39:04Z</time>
      </trkpt>
      <trkpt lat="46.06031" lon="6.23989">
        <ele>861.132</ele>
        <time>2020-05-20T14:39:05Z</time>
      </trkpt>
      <trkpt lat="46.0602" lon="6.23977">
        <ele>860.487</ele>
        <time>2020-05-20T14:39:06Z</time>
      </trkpt>
      <trkpt lat="46.06009" lon="6.23966">
        <ele>859.742</ele>
        <time>2020-05-20T14:39:07Z</time>
      </trkpt>
      <trkpt lat="46.05998" lon="6.23955">
        <ele>859.126</ele>
        <time>2020-05-20T14:39:08Z</time>
      </trkpt>
      <trkpt lat="46.05988" lon="6.23944">
        <ele>858.608</ele>
        <time>2020-05-20T14:39:09Z</time>
      </trkpt>
      <trkpt lat="46.05978" lon="6.23933">
        <ele>857.962</ele>
        <time>2020-05-20T14:39:10Z</time>
      </trkpt>
      <trkpt lat="46.05967" lon="6.23922">
        <ele>857.257</ele>
        <time>2020-05-20T14:39:11Z</time>
      </trkpt>
      <trkpt lat="46.05958" lon="6.23911">
        <ele>856.634</ele>
        <time>2020-05-20T14:39:12Z</time>
      </trkpt>
      <trkpt lat="46.0595" lon="6.23899">
        <ele>856.019</ele>
        <time>2020-05-20T14:39:13Z</time>
      </trkpt>
      <trkpt lat="46.05942" lon="6.23887">
        <ele>855.483</ele>
        <time>2020-05-20T14:39:14Z</time>
      </trkpt>
      <trkpt lat="46.05934" lon="6.23874">
        <ele>854.826</ele>
        <time>2020-05-20T14:39:15Z</time>
      </trkpt>
      <trkpt lat="46.05927" lon="6.2386">
        <ele>854.436</ele>
        <time>2020-05-20T14:39:16Z</time>
      </trkpt>
      <trkpt lat="46.05919" lon="6.23846">
        <ele>854.182</ele>
        <time>2020-05-20T14:39:17Z</time>
      </trkpt>
      <trkpt lat="46.05912" lon="6.23832">
        <ele>853.734</ele>
        <time>2020-05-20T14:39:18Z</time>
      </trkpt>
      <trkpt lat="46.05904" lon="6.23817">
        <ele>853.455</ele>
        <time>2020-05-20T14:39:19Z</time>
      </trkpt>
      <trkpt lat="46.05895" lon="6.23801">
        <ele>853.21</ele>
        <time>2020-05-20T14:39:20Z</time>
      </trkpt>
      <trkpt lat="46.05887" lon="6.23786">
        <ele>853.008</ele>
        <time>2020-05-20T14:39:21Z</time>
      </trkpt>
      <trkpt lat="46.05879" lon="6.23773">
        <ele>852.657</ele>
        <time>2020-05-20T14:39:22Z</time>
      </trkpt>
      <trkpt lat="46.05871" lon="6.23759">
        <ele>852.472</ele>
        <time>2020-05-20T14:39:23Z</time>
      </trkpt>
      <trkpt lat="46.05863" lon="6.23745">
        <ele>852.239</ele>
        <time>2020-05-20T14:39:24Z</time>
      </trkpt>
      <trkpt lat="46.05854" lon="6.2373">
        <ele>852.084</ele>
        <time>2020-05-20T14:39:25Z</time>
      </trkpt>
      <trkpt lat="46.05845" lon="6.23716">
        <ele>851.858</ele>
        <time>2020-05-20T14:39:26Z</time>
      </trkpt>
      <trkpt lat="46.05834" lon="6.23704">
        <ele>851.641</ele>
        <time>2020-05-20T14:39:27Z</time>
      </trkpt>
      <trkpt lat="46.05823" lon="6.23691">
        <ele>851.461</ele>
        <time>2020-05-20T14:39:28Z</time>
      </trkpt>
      <trkpt lat="46.05812" lon="6.23683">
        <ele>851.287</ele>
        <time>2020-05-20T14:39:29Z</time>
      </trkpt>
      <trkpt lat="46.058" lon="6.23675">
        <ele>851.087</ele>
        <time>2020-05-20T14:39:30Z</time>
      </trkpt>
      <trkpt lat="46.05785" lon="6.2367">
        <ele>850.842</ele>
        <time>2020-05-20T14:39:31Z</time>
      </trkpt>
      <trkpt lat="46.05773" lon="6.23663">
        <ele>850.626</ele>
        <time>2020-05-20T14:39:32Z</time>
      </trkpt>
      <trkpt lat="46.05761" lon="6.23658">
        <ele>850.408</ele>
        <time>2020-05-20T14:39:33Z</time>
      </trkpt>
      <trkpt lat="46.0575" lon="6.2365">
        <ele>850.222</ele>
        <time>2020-05-20T14:39:34Z</time>
      </trkpt>
      <trkpt lat="46.05739" lon="6.23645">
        <ele>850.037</ele>
        <time>2020-05-20T14:39:35Z</time>
      </trkpt>
      <trkpt lat="46.05728" lon="6.23638">
        <ele>850.044</ele>
        <time>2020-05-20T14:39:36Z</time>
      </trkpt>
      <trkpt lat="46.05719" lon="6.23634">
        <ele>850.069</ele>
        <time>2020-05-20T14:39:37Z</time>
      </trkpt>
      <trkpt lat="46.05713" lon="6.23628">
        <ele>850.033</ele>
        <time>2020-05-20T14:39:38Z</time>
      </trkpt>
      <trkpt lat="46.05709" lon="6.23622">
        <ele>849.996</ele>
        <time>2020-05-20T14:39:39Z</time>
      </trkpt>
      <trkpt lat="46.05708" lon="6.23614">
        <ele>849.786</ele>
        <time>2020-05-20T14:39:40Z</time>
      </trkpt>
      <trkpt lat="46.05704" lon="6.23597">
        <ele>847.332</ele>
        <time>2020-05-20T14:39:52Z</time>
      </trkpt>
      <trkpt lat="46.05706" lon="6.23584">
        <ele>846.987</ele>
        <time>2020-05-20T14:39:54Z</time>
      </trkpt>
      <trkpt lat="46.05707" lon="6.23573">
        <ele>846.742</ele>
        <time>2020-05-20T14:39:55Z</time>
      </trkpt>
      <trkpt lat="46.05708" lon="6.23563">
        <ele>846.526</ele>
        <time>2020-05-20T14:39:56Z</time>
      </trkpt>
      <trkpt lat="46.05708" lon="6.23553">
        <ele>846.308</ele>
        <time>2020-05-20T14:39:57Z</time>
      </trkpt>
      <trkpt lat="46.05709" lon="6.23542">
        <ele>846.192</ele>
        <time>2020-05-20T14:39:58Z</time>
      </trkpt>
      <trkpt lat="46.05708" lon="6.23528">
        <ele>845.857</ele>
        <time>2020-05-20T14:40:00Z</time>
      </trkpt>
      <trkpt lat="46.05705" lon="6.23521">
        <ele>845.514</ele>
        <time>2020-05-20T14:40:01Z</time>
      </trkpt>
      <trkpt lat="46.057" lon="6.23514">
        <ele>845.139</ele>
        <time>2020-05-20T14:40:02Z</time>
      </trkpt>
      <trkpt lat="46.05693" lon="6.23506">
        <ele>844.783</ele>
        <time>2020-05-20T14:40:03Z</time>
      </trkpt>
      <trkpt lat="46.05688" lon="6.23499">
        <ele>844.416</ele>
        <time>2020-05-20T14:40:04Z</time>
      </trkpt>
      <trkpt lat="46.05685" lon="6.23494">
        <ele>844.046</ele>
        <time>2020-05-20T14:40:05Z</time>
      </trkpt>
      <trkpt lat="46.05683" lon="6.23485">
        <ele>843.712</ele>
        <time>2020-05-20T14:40:06Z</time>
      </trkpt>
      <trkpt lat="46.05685" lon="6.23472">
        <ele>843.579</ele>
        <time>2020-05-20T14:40:07Z</time>
      </trkpt>
      <trkpt lat="46.05688" lon="6.2346">
        <ele>843.305</ele>
        <time>2020-05-20T14:40:08Z</time>
      </trkpt>
      <trkpt lat="46.05691" lon="6.23445">
        <ele>843.225</ele>
        <time>2020-05-20T14:40:09Z</time>
      </trkpt>
      <trkpt lat="46.05696" lon="6.2343">
        <ele>843.208</ele>
        <time>2020-05-20T14:40:10Z</time>
      </trkpt>
      <trkpt lat="46.05701" lon="6.23415">
        <ele>843.581</ele>
        <time>2020-05-20T14:40:11Z</time>
      </trkpt>
      <trkpt lat="46.05705" lon="6.234">
        <ele>843.986</ele>
        <time>2020-05-20T14:40:12Z</time>
      </trkpt>
      <trkpt lat="46.05706" lon="6.23384">
        <ele>844.553</ele>
        <time>2020-05-20T14:40:13Z</time>
      </trkpt>
      <trkpt lat="46.05708" lon="6.23362">
        <ele>845.278</ele>
        <time>2020-05-20T14:40:14Z</time>
      </trkpt>
      <trkpt lat="46.0571" lon="6.23343">
        <ele>846.032</ele>
        <time>2020-05-20T14:40:15Z</time>
      </trkpt>
      <trkpt lat="46.05711" lon="6.23329">
        <ele>846.855</ele>
        <time>2020-05-20T14:40:16Z</time>
      </trkpt>
      <trkpt lat="46.05711" lon="6.23314">
        <ele>847.415</ele>
        <time>2020-05-20T14:40:17Z</time>
      </trkpt>
      <trkpt lat="46.05711" lon="6.23302">
        <ele>847.951</ele>
        <time>2020-05-20T14:40:18Z</time>
      </trkpt>
      <trkpt lat="46.05706" lon="6.23285">
        <ele>848.453</ele>
        <time>2020-05-20T14:40:19Z</time>
      </trkpt>
      <trkpt lat="46.05698" lon="6.23261">
        <ele>849.004</ele>
        <time>2020-05-20T14:40:20Z</time>
      </trkpt>
      <trkpt lat="46.05692" lon="6.23232">
        <ele>849.714</ele>
        <time>2020-05-20T14:40:21Z</time>
      </trkpt>
      <trkpt lat="46.0569" lon="6.23203">
        <ele>850.508</ele>
        <time>2020-05-20T14:40:22Z</time>
      </trkpt>
      <trkpt lat="46.05687" lon="6.23177">
        <ele>851.259</ele>
        <time>2020-05-20T14:40:23Z</time>
      </trkpt>
      <trkpt lat="46.05684" lon="6.23153">
        <ele>851.614</ele>
        <time>2020-05-20T14:40:24Z</time>
      </trkpt>
      <trkpt lat="46.05679" lon="6.23123">
        <ele>851.921</ele>
        <time>2020-05-20T14:40:25Z</time>
      </trkpt>
      <trkpt lat="46.05718" lon="6.23145">
        <ele>852.186</ele>
        <time>2020-05-20T14:40:26Z</time>
      </trkpt>
      <trkpt lat="46.05722" lon="6.23126">
        <ele>852.46</ele>
        <time>2020-05-20T14:40:27Z</time>
      </trkpt>
      <trkpt lat="46.05727" lon="6.23108">
        <ele>852.683</ele>
        <time>2020-05-20T14:40:28Z</time>
      </trkpt>
      <trkpt lat="46.0573" lon="6.23098">
        <ele>853.233</ele>
        <time>2020-05-20T14:40:29Z</time>
      </trkpt>
      <trkpt lat="46.05734" lon="6.23085">
        <ele>853.919</ele>
        <time>2020-05-20T14:40:30Z</time>
      </trkpt>
      <trkpt lat="46.05738" lon="6.23077">
        <ele>854.749</ele>
        <time>2020-05-20T14:40:31Z</time>
      </trkpt>
      <trkpt lat="46.05743" lon="6.2307">
        <ele>855.402</ele>
        <time>2020-05-20T14:40:32Z</time>
      </trkpt>
      <trkpt lat="46.05749" lon="6.23062">
        <ele>856.122</ele>
        <time>2020-05-20T14:40:33Z</time>
      </trkpt>
      <trkpt lat="46.05754" lon="6.23054">
        <ele>856.708</ele>
        <time>2020-05-20T14:40:34Z</time>
      </trkpt>
      <trkpt lat="46.0576" lon="6.23045">
        <ele>857.178</ele>
        <time>2020-05-20T14:40:35Z</time>
      </trkpt>
      <trkpt lat="46.05763" lon="6.23036">
        <ele>857.483</ele>
        <time>2020-05-20T14:40:36Z</time>
      </trkpt>
      <trkpt lat="46.05767" lon="6.23027">
        <ele>857.58</ele>
        <time>2020-05-20T14:40:37Z</time>
      </trkpt>
      <trkpt lat="46.05768" lon="6.23016">
        <ele>857.565</ele>
        <time>2020-05-20T14:40:38Z</time>
      </trkpt>
      <trkpt lat="46.05769" lon="6.23006">
        <ele>857.549</ele>
        <time>2020-05-20T14:40:39Z</time>
      </trkpt>
      <trkpt lat="46.05771" lon="6.22995">
        <ele>857.762</ele>
        <time>2020-05-20T14:40:40Z</time>
      </trkpt>
      <trkpt lat="46.05774" lon="6.22989">
        <ele>857.892</ele>
        <time>2020-05-20T14:40:41Z</time>
      </trkpt>
      <trkpt lat="46.05778" lon="6.22984">
        <ele>858.118</ele>
        <time>2020-05-20T14:40:42Z</time>
      </trkpt>
      <trkpt lat="46.0578" lon="6.22977">
        <ele>858.422</ele>
        <time>2020-05-20T14:40:43Z</time>
      </trkpt>
      <trkpt lat="46.0578" lon="6.22967">
        <ele>858.762</ele>
        <time>2020-05-20T14:40:44Z</time>
      </trkpt>
      <trkpt lat="46.05778" lon="6.22961">
        <ele>858.808</ele>
        <time>2020-05-20T14:40:45Z</time>
      </trkpt>
      <trkpt lat="46.05776" lon="6.22948">
        <ele>859.108</ele>
        <time>2020-05-20T14:40:46Z</time>
      </trkpt>
      <trkpt lat="46.05768" lon="6.22934">
        <ele>859.396</ele>
        <time>2020-05-20T14:40:47Z</time>
      </trkpt>
      <trkpt lat="46.05759" lon="6.22918">
        <ele>859.481</ele>
        <time>2020-05-20T14:40:48Z</time>
      </trkpt>
      <trkpt lat="46.05752" lon="6.22903">
        <ele>859.568</ele>
        <time>2020-05-20T14:40:49Z</time>
      </trkpt>
      <trkpt lat="46.05746" lon="6.22892">
        <ele>859.773</ele>
        <time>2020-05-20T14:40:50Z</time>
      </trkpt>
      <trkpt lat="46.05739" lon="6.22879">
        <ele>859.787</ele>
        <time>2020-05-20T14:40:51Z</time>
      </trkpt>
      <trkpt lat="46.05729" lon="6.2287">
        <ele>859.79</ele>
        <time>2020-05-20T14:40:52Z</time>
      </trkpt>
      <trkpt lat="46.05721" lon="6.22858">
        <ele>859.85</ele>
        <time>2020-05-20T14:40:53Z</time>
      </trkpt>
      <trkpt lat="46.05714" lon="6.22847">
        <ele>859.966</ele>
        <time>2020-05-20T14:40:54Z</time>
      </trkpt>
      <trkpt lat="46.05709" lon="6.22838">
        <ele>859.926</ele>
        <time>2020-05-20T14:40:55Z</time>
      </trkpt>
      <trkpt lat="46.05702" lon="6.22831">
        <ele>860.047</ele>
        <time>2020-05-20T14:40:56Z</time>
      </trkpt>
      <trkpt lat="46.05693" lon="6.22827">
        <ele>860.111</ele>
        <time>2020-05-20T14:40:57Z</time>
      </trkpt>
      <trkpt lat="46.05683" lon="6.2282">
        <ele>860.208</ele>
        <time>2020-05-20T14:40:58Z</time>
      </trkpt>
      <trkpt lat="46.05673" lon="6.22814">
        <ele>860.336</ele>
        <time>2020-05-20T14:40:59Z</time>
      </trkpt>
      <trkpt lat="46.05665" lon="6.22806">
        <ele>860.391</ele>
        <time>2020-05-20T14:41:00Z</time>
      </trkpt>
      <trkpt lat="46.05656" lon="6.22795">
        <ele>860.328</ele>
        <time>2020-05-20T14:41:01Z</time>
      </trkpt>
      <trkpt lat="46.0565" lon="6.22787">
        <ele>860.263</ele>
        <time>2020-05-20T14:41:02Z</time>
      </trkpt>
      <trkpt lat="46.05643" lon="6.2278">
        <ele>860.157</ele>
        <time>2020-05-20T14:41:03Z</time>
      </trkpt>
      <trkpt lat="46.05638" lon="6.22771">
        <ele>860.14</ele>
        <time>2020-05-20T14:41:04Z</time>
      </trkpt>
      <trkpt lat="46.05634" lon="6.22762">
        <ele>860.15</ele>
        <time>2020-05-20T14:41:05Z</time>
      </trkpt>
      <trkpt lat="46.05629" lon="6.22754">
        <ele>860.236</ele>
        <time>2020-05-20T14:41:06Z</time>
      </trkpt>
      <trkpt lat="46.05625" lon="6.22743">
        <ele>860.457</ele>
        <time>2020-05-20T14:41:07Z</time>
      </trkpt>
      <trkpt lat="46.05621" lon="6.22733">
        <ele>860.5</ele>
        <time>2020-05-20T14:41:08Z</time>
      </trkpt>
      <trkpt lat="46.05617" lon="6.22722">
        <ele>860.62</ele>
        <time>2020-05-20T14:41:09Z</time>
      </trkpt>
      <trkpt lat="46.05614" lon="6.22713">
        <ele>860.608</ele>
        <time>2020-05-20T14:41:10Z</time>
      </trkpt>
      <trkpt lat="46.05611" lon="6.22701">
        <ele>860.719</ele>
        <time>2020-05-20T14:41:11Z</time>
      </trkpt>
      <trkpt lat="46.05608" lon="6.22694">
        <ele>860.814</ele>
        <time>2020-05-20T14:41:12Z</time>
      </trkpt>
      <trkpt lat="46.05601" lon="6.22685">
        <ele>860.811</ele>
        <time>2020-05-20T14:41:14Z</time>
      </trkpt>
      <trkpt lat="46.05596" lon="6.22682">
        <ele>860.756</ele>
        <time>2020-05-20T14:41:15Z</time>
      </trkpt>
      <trkpt lat="46.05588" lon="6.22679">
        <ele>860.61</ele>
        <time>2020-05-20T14:41:16Z</time>
      </trkpt>
      <trkpt lat="46.05579" lon="6.22676">
        <ele>860.363</ele>
        <time>2020-05-20T14:41:17Z</time>
      </trkpt>
      <trkpt lat="46.0557" lon="6.22673">
        <ele>859.943</ele>
        <time>2020-05-20T14:41:18Z</time>
      </trkpt>
      <trkpt lat="46.0556" lon="6.2267">
        <ele>859.439</ele>
        <time>2020-05-20T14:41:19Z</time>
      </trkpt>
      <trkpt lat="46.0555" lon="6.22666">
        <ele>859.093</ele>
        <time>2020-05-20T14:41:20Z</time>
      </trkpt>
      <trkpt lat="46.05539" lon="6.22662">
        <ele>858.465</ele>
        <time>2020-05-20T14:41:21Z</time>
      </trkpt>
      <trkpt lat="46.05529" lon="6.2266">
        <ele>857.721</ele>
        <time>2020-05-20T14:41:22Z</time>
      </trkpt>
      <trkpt lat="46.05518" lon="6.22658">
        <ele>856.908</ele>
        <time>2020-05-20T14:41:23Z</time>
      </trkpt>
      <trkpt lat="46.05507" lon="6.22655">
        <ele>856.093</ele>
        <time>2020-05-20T14:41:24Z</time>
      </trkpt>
      <trkpt lat="46.05495" lon="6.22652">
        <ele>854.988</ele>
        <time>2020-05-20T14:41:25Z</time>
      </trkpt>
      <trkpt lat="46.05484" lon="6.22648">
        <ele>853.915</ele>
        <time>2020-05-20T14:41:26Z</time>
      </trkpt>
      <trkpt lat="46.05473" lon="6.22643">
        <ele>853.18</ele>
        <time>2020-05-20T14:41:27Z</time>
      </trkpt>
      <trkpt lat="46.05461" lon="6.22639">
        <ele>852.464</ele>
        <time>2020-05-20T14:41:28Z</time>
      </trkpt>
      <trkpt lat="46.05449" lon="6.22633">
        <ele>851.947</ele>
        <time>2020-05-20T14:41:29Z</time>
      </trkpt>
      <trkpt lat="46.05439" lon="6.22624">
        <ele>851.587</ele>
        <time>2020-05-20T14:41:30Z</time>
      </trkpt>
      <trkpt lat="46.05428" lon="6.22617">
        <ele>851.123</ele>
        <time>2020-05-20T14:41:31Z</time>
      </trkpt>
      <trkpt lat="46.05418" lon="6.22611">
        <ele>850.795</ele>
        <time>2020-05-20T14:41:32Z</time>
      </trkpt>
      <trkpt lat="46.05407" lon="6.22606">
        <ele>850.249</ele>
        <time>2020-05-20T14:41:33Z</time>
      </trkpt>
      <trkpt lat="46.05397" lon="6.22603">
        <ele>849.723</ele>
        <time>2020-05-20T14:41:34Z</time>
      </trkpt>
      <trkpt lat="46.05385" lon="6.22608">
        <ele>849.308</ele>
        <time>2020-05-20T14:41:35Z</time>
      </trkpt>
      <trkpt lat="46.05373" lon="6.22616">
        <ele>848.923</ele>
        <time>2020-05-20T14:41:36Z</time>
      </trkpt>
      <trkpt lat="46.0536" lon="6.22621">
        <ele>848.658</ele>
        <time>2020-05-20T14:41:37Z</time>
      </trkpt>
      <trkpt lat="46.05348" lon="6.22627">
        <ele>848.425</ele>
        <time>2020-05-20T14:41:38Z</time>
      </trkpt>
      <trkpt lat="46.05337" lon="6.22632">
        <ele>848.37</ele>
        <time>2020-05-20T14:41:39Z</time>
      </trkpt>
      <trkpt lat="46.05324" lon="6.22633">
        <ele>848.064</ele>
        <time>2020-05-20T14:41:40Z</time>
      </trkpt>
      <trkpt lat="46.05312" lon="6.22635">
        <ele>848.027</ele>
        <time>2020-05-20T14:41:41Z</time>
      </trkpt>
      <trkpt lat="46.05299" lon="6.22635">
        <ele>847.917</ele>
        <time>2020-05-20T14:41:42Z</time>
      </trkpt>
      <trkpt lat="46.05285" lon="6.22634">
        <ele>847.743</ele>
        <time>2020-05-20T14:41:43Z</time>
      </trkpt>
      <trkpt lat="46.05271" lon="6.22633">
        <ele>847.478</ele>
        <time>2020-05-20T14:41:44Z</time>
      </trkpt>
      <trkpt lat="46.05259" lon="6.22632">
        <ele>847.033</ele>
        <time>2020-05-20T14:41:45Z</time>
      </trkpt>
      <trkpt lat="46.05249" lon="6.2263">
        <ele>846.726</ele>
        <time>2020-05-20T14:41:46Z</time>
      </trkpt>
      <trkpt lat="46.05242" lon="6.22626">
        <ele>846.508</ele>
        <time>2020-05-20T14:41:47Z</time>
      </trkpt>
      <trkpt lat="46.05238" lon="6.2262">
        <ele>846.591</ele>
        <time>2020-05-20T14:41:49Z</time>
      </trkpt>
      <trkpt lat="46.05232" lon="6.22615">
        <ele>846.926</ele>
        <time>2020-05-20T14:41:51Z</time>
      </trkpt>
      <trkpt lat="46.05225" lon="6.2261">
        <ele>847.123</ele>
        <time>2020-05-20T14:41:52Z</time>
      </trkpt>
      <trkpt lat="46.05217" lon="6.22607">
        <ele>847.268</ele>
        <time>2020-05-20T14:41:53Z</time>
      </trkpt>
      <trkpt lat="46.05208" lon="6.22607">
        <ele>847.352</ele>
        <time>2020-05-20T14:41:54Z</time>
      </trkpt>
      <trkpt lat="46.05198" lon="6.2261">
        <ele>847.385</ele>
        <time>2020-05-20T14:41:55Z</time>
      </trkpt>
      <trkpt lat="46.05191" lon="6.22616">
        <ele>847.415</ele>
        <time>2020-05-20T14:41:56Z</time>
      </trkpt>
      <trkpt lat="46.05183" lon="6.22622">
        <ele>847.661</ele>
        <time>2020-05-20T14:41:57Z</time>
      </trkpt>
      <trkpt lat="46.05177" lon="6.22627">
        <ele>847.844</ele>
        <time>2020-05-20T14:41:58Z</time>
      </trkpt>
      <trkpt lat="46.05168" lon="6.22632">
        <ele>847.905</ele>
        <time>2020-05-20T14:41:59Z</time>
      </trkpt>
      <trkpt lat="46.0516" lon="6.22636">
        <ele>848.015</ele>
        <time>2020-05-20T14:42:00Z</time>
      </trkpt>
      <trkpt lat="46.05152" lon="6.22642">
        <ele>848.008</ele>
        <time>2020-05-20T14:42:01Z</time>
      </trkpt>
      <trkpt lat="46.05143" lon="6.22651">
        <ele>847.718</ele>
        <time>2020-05-20T14:42:02Z</time>
      </trkpt>
      <trkpt lat="46.05136" lon="6.22658">
        <ele>847.273</ele>
        <time>2020-05-20T14:42:03Z</time>
      </trkpt>
      <trkpt lat="46.05128" lon="6.22666">
        <ele>846.63</ele>
        <time>2020-05-20T14:42:04Z</time>
      </trkpt>
      <trkpt lat="46.05121" lon="6.22673">
        <ele>845.745</ele>
        <time>2020-05-20T14:42:05Z</time>
      </trkpt>
      <trkpt lat="46.05113" lon="6.22681">
        <ele>844.769</ele>
        <time>2020-05-20T14:42:06Z</time>
      </trkpt>
      <trkpt lat="46.05106" lon="6.22689">
        <ele>843.672</ele>
        <time>2020-05-20T14:42:07Z</time>
      </trkpt>
      <trkpt lat="46.05098" lon="6.22696">
        <ele>842.562</ele>
        <time>2020-05-20T14:42:08Z</time>
      </trkpt>
      <trkpt lat="46.05092" lon="6.22702">
        <ele>841.448</ele>
        <time>2020-05-20T14:42:09Z</time>
      </trkpt>
      <trkpt lat="46.05086" lon="6.22706">
        <ele>840.515</ele>
        <time>2020-05-20T14:42:10Z</time>
      </trkpt>
      <trkpt lat="46.05082" lon="6.2271">
        <ele>839.865</ele>
        <time>2020-05-20T14:42:11Z</time>
      </trkpt>
      <trkpt lat="46.05076" lon="6.22713">
        <ele>839.211</ele>
        <time>2020-05-20T14:42:12Z</time>
      </trkpt>
      <trkpt lat="46.05069" lon="6.2272">
        <ele>838.808</ele>
        <time>2020-05-20T14:42:13Z</time>
      </trkpt>
      <trkpt lat="46.05061" lon="6.22728">
        <ele>838.495</ele>
        <time>2020-05-20T14:42:14Z</time>
      </trkpt>
      <trkpt lat="46.05053" lon="6.22737">
        <ele>838.09</ele>
        <time>2020-05-20T14:42:15Z</time>
      </trkpt>
      <trkpt lat="46.05047" lon="6.22741">
        <ele>837.627</ele>
        <time>2020-05-20T14:42:16Z</time>
      </trkpt>
      <trkpt lat="46.0504" lon="6.22747">
        <ele>837.112</ele>
        <time>2020-05-20T14:42:17Z</time>
      </trkpt>
      <trkpt lat="46.05034" lon="6.22753">
        <ele>836.666</ele>
        <time>2020-05-20T14:42:18Z</time>
      </trkpt>
      <trkpt lat="46.05029" lon="6.22759">
        <ele>836.159</ele>
        <time>2020-05-20T14:42:19Z</time>
      </trkpt>
      <trkpt lat="46.05024" lon="6.22766">
        <ele>835.729</ele>
        <time>2020-05-20T14:42:20Z</time>
      </trkpt>
      <trkpt lat="46.05021" lon="6.22771">
        <ele>835.315</ele>
        <time>2020-05-20T14:42:21Z</time>
      </trkpt>
      <trkpt lat="46.05017" lon="6.22778">
        <ele>835.036</ele>
        <time>2020-05-20T14:42:22Z</time>
      </trkpt>
      <trkpt lat="46.05012" lon="6.22784">
        <ele>834.717</ele>
        <time>2020-05-20T14:42:23Z</time>
      </trkpt>
      <trkpt lat="46.05006" lon="6.22787">
        <ele>834.318</ele>
        <time>2020-05-20T14:42:24Z</time>
      </trkpt>
      <trkpt lat="46.04998" lon="6.22789">
        <ele>833.908</ele>
        <time>2020-05-20T14:42:25Z</time>
      </trkpt>
      <trkpt lat="46.04992" lon="6.22791">
        <ele>833.597</ele>
        <time>2020-05-20T14:42:26Z</time>
      </trkpt>
      <trkpt lat="46.04988" lon="6.22794">
        <ele>833.032</ele>
        <time>2020-05-20T14:42:27Z</time>
      </trkpt>
      <trkpt lat="46.04982" lon="6.22792">
        <ele>832.179</ele>
        <time>2020-05-20T14:42:29Z</time>
      </trkpt>
      <trkpt lat="46.04978" lon="6.22787">
        <ele>831.754</ele>
        <time>2020-05-20T14:42:30Z</time>
      </trkpt>
      <trkpt lat="46.04973" lon="6.22783">
        <ele>831.568</ele>
        <time>2020-05-20T14:42:31Z</time>
      </trkpt>
      <trkpt lat="46.04966" lon="6.22779">
        <ele>831.411</ele>
        <time>2020-05-20T14:42:32Z</time>
      </trkpt>
      <trkpt lat="46.04957" lon="6.22771">
        <ele>831.381</ele>
        <time>2020-05-20T14:42:33Z</time>
      </trkpt>
      <trkpt lat="46.04947" lon="6.22764">
        <ele>831.337</ele>
        <time>2020-05-20T14:42:34Z</time>
      </trkpt>
      <trkpt lat="46.04934" lon="6.22755">
        <ele>831.249</ele>
        <time>2020-05-20T14:42:35Z</time>
      </trkpt>
      <trkpt lat="46.04922" lon="6.22746">
        <ele>831.002</ele>
        <time>2020-05-20T14:42:36Z</time>
      </trkpt>
      <trkpt lat="46.0491" lon="6.22738">
        <ele>830.622</ele>
        <time>2020-05-20T14:42:37Z</time>
      </trkpt>
      <trkpt lat="46.04899" lon="6.22731">
        <ele>829.908</ele>
        <time>2020-05-20T14:42:38Z</time>
      </trkpt>
      <trkpt lat="46.04889" lon="6.22723">
        <ele>829.158</ele>
        <time>2020-05-20T14:42:39Z</time>
      </trkpt>
      <trkpt lat="46.04881" lon="6.22711">
        <ele>828.223</ele>
        <time>2020-05-20T14:42:40Z</time>
      </trkpt>
      <trkpt lat="46.04875" lon="6.22695">
        <ele>827.29</ele>
        <time>2020-05-20T14:42:41Z</time>
      </trkpt>
      <trkpt lat="46.04871" lon="6.22675">
        <ele>826.285</ele>
        <time>2020-05-20T14:42:42Z</time>
      </trkpt>
      <trkpt lat="46.04864" lon="6.22654">
        <ele>825.459</ele>
        <time>2020-05-20T14:42:43Z</time>
      </trkpt>
      <trkpt lat="46.04858" lon="6.22633">
        <ele>825.172</ele>
        <time>2020-05-20T14:42:44Z</time>
      </trkpt>
      <trkpt lat="46.0485" lon="6.22611">
        <ele>824.772</ele>
        <time>2020-05-20T14:42:45Z</time>
      </trkpt>
      <trkpt lat="46.04841" lon="6.22591">
        <ele>824.348</ele>
        <time>2020-05-20T14:42:46Z</time>
      </trkpt>
      <trkpt lat="46.0483" lon="6.22574">
        <ele>823.982</ele>
        <time>2020-05-20T14:42:47Z</time>
      </trkpt>
      <trkpt lat="46.04819" lon="6.22559">
        <ele>823.543</ele>
        <time>2020-05-20T14:42:48Z</time>
      </trkpt>
      <trkpt lat="46.04807" lon="6.22544">
        <ele>822.617</ele>
        <time>2020-05-20T14:42:49Z</time>
      </trkpt>
      <trkpt lat="46.04794" lon="6.22529">
        <ele>821.508</ele>
        <time>2020-05-20T14:42:50Z</time>
      </trkpt>
      <trkpt lat="46.0478" lon="6.22516">
        <ele>820.312</ele>
        <time>2020-05-20T14:42:51Z</time>
      </trkpt>
      <trkpt lat="46.04767" lon="6.22502">
        <ele>819.267</ele>
        <time>2020-05-20T14:42:52Z</time>
      </trkpt>
      <trkpt lat="46.04755" lon="6.22487">
        <ele>818.314</ele>
        <time>2020-05-20T14:42:53Z</time>
      </trkpt>
      <trkpt lat="46.04747" lon="6.22476">
        <ele>817.559</ele>
        <time>2020-05-20T14:42:54Z</time>
      </trkpt>
      <trkpt lat="46.0474" lon="6.22467">
        <ele>817.033</ele>
        <time>2020-05-20T14:42:55Z</time>
      </trkpt>
      <trkpt lat="46.04733" lon="6.2246">
        <ele>816.696</ele>
        <time>2020-05-20T14:42:56Z</time>
      </trkpt>
      <trkpt lat="46.04725" lon="6.22452">
        <ele>816.416</ele>
        <time>2020-05-20T14:42:57Z</time>
      </trkpt>
      <trkpt lat="46.04716" lon="6.22444">
        <ele>816.122</ele>
        <time>2020-05-20T14:42:58Z</time>
      </trkpt>
      <trkpt lat="46.04708" lon="6.22435">
        <ele>815.922</ele>
        <time>2020-05-20T14:42:59Z</time>
      </trkpt>
      <trkpt lat="46.047" lon="6.22427">
        <ele>815.662</ele>
        <time>2020-05-20T14:43:00Z</time>
      </trkpt>
      <trkpt lat="46.04694" lon="6.22422">
        <ele>815.608</ele>
        <time>2020-05-20T14:43:01Z</time>
      </trkpt>
      <trkpt lat="46.04694" lon="6.22413">
        <ele>815.608</ele>
        <time>2020-05-20T14:43:03Z</time>
      </trkpt>
      <trkpt lat="46.04698" lon="6.22407">
        <ele>815.616</ele>
        <time>2020-05-20T14:43:04Z</time>
      </trkpt>
      <trkpt lat="46.04706" lon="6.224">
        <ele>815.611</ele>
        <time>2020-05-20T14:43:05Z</time>
      </trkpt>
      <trkpt lat="46.04713" lon="6.22392">
        <ele>815.888</ele>
        <time>2020-05-20T14:43:06Z</time>
      </trkpt>
      <trkpt lat="46.0472" lon="6.22384">
        <ele>816.033</ele>
        <time>2020-05-20T14:43:07Z</time>
      </trkpt>
      <trkpt lat="46.04725" lon="6.22369">
        <ele>816.347</ele>
        <time>2020-05-20T14:43:08Z</time>
      </trkpt>
      <trkpt lat="46.0473" lon="6.22361">
        <ele>816.74</ele>
        <time>2020-05-20T14:43:09Z</time>
      </trkpt>
      <trkpt lat="46.04736" lon="6.22349">
        <ele>817.12</ele>
        <time>2020-05-20T14:43:10Z</time>
      </trkpt>
      <trkpt lat="46.04742" lon="6.22337">
        <ele>817.426</ele>
        <time>2020-05-20T14:43:11Z</time>
      </trkpt>
      <trkpt lat="46.04745" lon="6.22325">
        <ele>817.811</ele>
        <time>2020-05-20T14:43:12Z</time>
      </trkpt>
      <trkpt lat="46.04747" lon="6.22314">
        <ele>818.221</ele>
        <time>2020-05-20T14:43:13Z</time>
      </trkpt>
      <trkpt lat="46.0475" lon="6.22303">
        <ele>818.603</ele>
        <time>2020-05-20T14:43:14Z</time>
      </trkpt>
      <trkpt lat="46.04753" lon="6.22295">
        <ele>819.008</ele>
        <time>2020-05-20T14:43:15Z</time>
      </trkpt>
      <trkpt lat="46.04761" lon="6.22282">
        <ele>819.575</ele>
        <time>2020-05-20T14:43:16Z</time>
      </trkpt>
      <trkpt lat="46.04771" lon="6.22272">
        <ele>819.99</ele>
        <time>2020-05-20T14:43:17Z</time>
      </trkpt>
      <trkpt lat="46.04779" lon="6.2226">
        <ele>820.267</ele>
        <time>2020-05-20T14:43:18Z</time>
      </trkpt>
      <trkpt lat="46.04786" lon="6.22247">
        <ele>820.612</ele>
        <time>2020-05-20T14:43:19Z</time>
      </trkpt>
      <trkpt lat="46.04791" lon="6.22238">
        <ele>821.116</ele>
        <time>2020-05-20T14:43:20Z</time>
      </trkpt>
      <trkpt lat="46.04797" lon="6.22242">
        <ele>821.349</ele>
        <time>2020-05-20T14:43:23Z</time>
      </trkpt>
      <trkpt lat="46.04802" lon="6.22248">
        <ele>820.299</ele>
        <time>2020-05-20T14:43:26Z</time>
      </trkpt>
      <trkpt lat="46.04804" lon="6.22258">
        <ele>819.565</ele>
        <time>2020-05-20T14:43:28Z</time>
      </trkpt>
      <trkpt lat="46.04805" lon="6.22267">
        <ele>818.798</ele>
        <time>2020-05-20T14:43:30Z</time>
      </trkpt>
      <trkpt lat="46.04803" lon="6.2226">
        <ele>818.215</ele>
        <time>2020-05-20T14:43:34Z</time>
      </trkpt>
      <trkpt lat="46.048" lon="6.2225">
        <ele>818.826</ele>
        <time>2020-05-20T14:43:36Z</time>
      </trkpt>
      <trkpt lat="46.048" lon="6.22241">
        <ele>819.608</ele>
        <time>2020-05-20T14:43:38Z</time>
      </trkpt>
      <trkpt lat="46.04805" lon="6.22231">
        <ele>820.673</ele>
        <time>2020-05-20T14:43:40Z</time>
      </trkpt>
      <trkpt lat="46.04809" lon="6.22218">
        <ele>821.158</ele>
        <time>2020-05-20T14:43:41Z</time>
      </trkpt>
      <trkpt lat="46.04814" lon="6.22208">
        <ele>821.545</ele>
        <time>2020-05-20T14:43:42Z</time>
      </trkpt>
      <trkpt lat="46.04818" lon="6.22198">
        <ele>821.86</ele>
        <time>2020-05-20T14:43:43Z</time>
      </trkpt>
      <trkpt lat="46.04821" lon="6.22191">
        <ele>822.024</ele>
        <time>2020-05-20T14:43:44Z</time>
      </trkpt>
      <trkpt lat="46.04824" lon="6.22182">
        <ele>822.137</ele>
        <time>2020-05-20T14:43:45Z</time>
      </trkpt>
      <trkpt lat="46.04827" lon="6.22176">
        <ele>822.237</ele>
        <time>2020-05-20T14:43:46Z</time>
      </trkpt>
      <trkpt lat="46.0483" lon="6.22166">
        <ele>822.243</ele>
        <time>2020-05-20T14:43:47Z</time>
      </trkpt>
      <trkpt lat="46.04834" lon="6.22156">
        <ele>822.237</ele>
        <time>2020-05-20T14:43:48Z</time>
      </trkpt>
      <trkpt lat="46.04838" lon="6.22148">
        <ele>822.249</ele>
        <time>2020-05-20T14:43:49Z</time>
      </trkpt>
      <trkpt lat="46.04842" lon="6.2214">
        <ele>822.413</ele>
        <time>2020-05-20T14:43:50Z</time>
      </trkpt>
      <trkpt lat="46.04844" lon="6.22129">
        <ele>822.508</ele>
        <time>2020-05-20T14:43:51Z</time>
      </trkpt>
      <trkpt lat="46.04847" lon="6.2212">
        <ele>822.777</ele>
        <time>2020-05-20T14:43:52Z</time>
      </trkpt>
      <trkpt lat="46.04851" lon="6.2211">
        <ele>823.082</ele>
        <time>2020-05-20T14:43:53Z</time>
      </trkpt>
      <trkpt lat="46.04856" lon="6.22102">
        <ele>823.339</ele>
        <time>2020-05-20T14:43:54Z</time>
      </trkpt>
      <trkpt lat="46.04859" lon="6.22096">
        <ele>823.694</ele>
        <time>2020-05-20T14:43:55Z</time>
      </trkpt>
      <trkpt lat="46.04863" lon="6.22087">
        <ele>824.268</ele>
        <time>2020-05-20T14:43:57Z</time>
      </trkpt>
      <trkpt lat="46.04868" lon="6.22079">
        <ele>824.741</ele>
        <time>2020-05-20T14:43:59Z</time>
      </trkpt>
      <trkpt lat="46.04873" lon="6.22072">
        <ele>824.951</ele>
        <time>2020-05-20T14:44:00Z</time>
      </trkpt>
      <trkpt lat="46.04877" lon="6.22062">
        <ele>825.177</ele>
        <time>2020-05-20T14:44:01Z</time>
      </trkpt>
      <trkpt lat="46.04879" lon="6.2205">
        <ele>825.498</ele>
        <time>2020-05-20T14:44:02Z</time>
      </trkpt>
      <trkpt lat="46.04882" lon="6.22039">
        <ele>825.815</ele>
        <time>2020-05-20T14:44:03Z</time>
      </trkpt>
      <trkpt lat="46.04886" lon="6.22025">
        <ele>826.126</ele>
        <time>2020-05-20T14:44:04Z</time>
      </trkpt>
      <trkpt lat="46.04888" lon="6.22013">
        <ele>826.508</ele>
        <time>2020-05-20T14:44:05Z</time>
      </trkpt>
      <trkpt lat="46.04891" lon="6.22003">
        <ele>826.923</ele>
        <time>2020-05-20T14:44:06Z</time>
      </trkpt>
      <trkpt lat="46.04894" lon="6.21992">
        <ele>827.268</ele>
        <time>2020-05-20T14:44:07Z</time>
      </trkpt>
      <trkpt lat="46.04895" lon="6.21983">
        <ele>827.555</ele>
        <time>2020-05-20T14:44:08Z</time>
      </trkpt>
      <trkpt lat="46.04898" lon="6.21968">
        <ele>827.95</ele>
        <time>2020-05-20T14:44:09Z</time>
      </trkpt>
      <trkpt lat="46.04901" lon="6.21955">
        <ele>828.574</ele>
        <time>2020-05-20T14:44:10Z</time>
      </trkpt>
      <trkpt lat="46.04904" lon="6.21937">
        <ele>829.037</ele>
        <time>2020-05-20T14:44:11Z</time>
      </trkpt>
      <trkpt lat="46.04906" lon="6.21923">
        <ele>829.827</ele>
        <time>2020-05-20T14:44:12Z</time>
      </trkpt>
      <trkpt lat="46.04908" lon="6.2191">
        <ele>830.973</ele>
        <time>2020-05-20T14:44:13Z</time>
      </trkpt>
      <trkpt lat="46.0491" lon="6.219">
        <ele>831.632</ele>
        <time>2020-05-20T14:44:14Z</time>
      </trkpt>
      <trkpt lat="46.0491" lon="6.2189">
        <ele>832.392</ele>
        <time>2020-05-20T14:44:15Z</time>
      </trkpt>
      <trkpt lat="46.04912" lon="6.21883">
        <ele>833.211</ele>
        <time>2020-05-20T14:44:16Z</time>
      </trkpt>
      <trkpt lat="46.04913" lon="6.21872">
        <ele>834.108</ele>
        <time>2020-05-20T14:44:17Z</time>
      </trkpt>
      <trkpt lat="46.04915" lon="6.2186">
        <ele>835.047</ele>
        <time>2020-05-20T14:44:18Z</time>
      </trkpt>
      <trkpt lat="46.04918" lon="6.2185">
        <ele>836.372</ele>
        <time>2020-05-20T14:44:19Z</time>
      </trkpt>
      <trkpt lat="46.04918" lon="6.21841">
        <ele>838.889</ele>
        <time>2020-05-20T14:44:21Z</time>
      </trkpt>
      <trkpt lat="46.04922" lon="6.21829">
        <ele>840.834</ele>
        <time>2020-05-20T14:44:23Z</time>
      </trkpt>
      <trkpt lat="46.04923" lon="6.2182">
        <ele>841.718</ele>
        <time>2020-05-20T14:44:24Z</time>
      </trkpt>
      <trkpt lat="46.04925" lon="6.21811">
        <ele>842.651</ele>
        <time>2020-05-20T14:44:25Z</time>
      </trkpt>
      <trkpt lat="46.04928" lon="6.21801">
        <ele>843.151</ele>
        <time>2020-05-20T14:44:26Z</time>
      </trkpt>
      <trkpt lat="46.0493" lon="6.21791">
        <ele>843.547</ele>
        <time>2020-05-20T14:44:27Z</time>
      </trkpt>
      <trkpt lat="46.04932" lon="6.21783">
        <ele>843.925</ele>
        <time>2020-05-20T14:44:28Z</time>
      </trkpt>
      <trkpt lat="46.04935" lon="6.21773">
        <ele>844.226</ele>
        <time>2020-05-20T14:44:29Z</time>
      </trkpt>
      <trkpt lat="46.04936" lon="6.21765">
        <ele>844.308</ele>
        <time>2020-05-20T14:44:30Z</time>
      </trkpt>
      <trkpt lat="46.04937" lon="6.21758">
        <ele>844.608</ele>
        <time>2020-05-20T14:44:31Z</time>
      </trkpt>
      <trkpt lat="46.04939" lon="6.2175">
        <ele>844.976</ele>
        <time>2020-05-20T14:44:32Z</time>
      </trkpt>
      <trkpt lat="46.04939" lon="6.21743">
        <ele>845.281</ele>
        <time>2020-05-20T14:44:33Z</time>
      </trkpt>
      <trkpt lat="46.0494" lon="6.21736">
        <ele>845.458</ele>
        <time>2020-05-20T14:44:34Z</time>
      </trkpt>
      <trkpt lat="46.04943" lon="6.21729">
        <ele>845.633</ele>
        <time>2020-05-20T14:44:35Z</time>
      </trkpt>
      <trkpt lat="46.04945" lon="6.21723">
        <ele>845.917</ele>
        <time>2020-05-20T14:44:36Z</time>
      </trkpt>
      <trkpt lat="46.04947" lon="6.21715">
        <ele>846.36</ele>
        <time>2020-05-20T14:44:37Z</time>
      </trkpt>
      <trkpt lat="46.0495" lon="6.21708">
        <ele>846.68</ele>
        <time>2020-05-20T14:44:38Z</time>
      </trkpt>
      <trkpt lat="46.04953" lon="6.21701">
        <ele>846.946</ele>
        <time>2020-05-20T14:44:39Z</time>
      </trkpt>
      <trkpt lat="46.04955" lon="6.21695">
        <ele>847.255</ele>
        <time>2020-05-20T14:44:40Z</time>
      </trkpt>
      <trkpt lat="46.04956" lon="6.21688">
        <ele>847.507</ele>
        <time>2020-05-20T14:44:41Z</time>
      </trkpt>
      <trkpt lat="46.04955" lon="6.2168">
        <ele>847.817</ele>
        <time>2020-05-20T14:44:42Z</time>
      </trkpt>
      <trkpt lat="46.04953" lon="6.21672">
        <ele>848.108</ele>
        <time>2020-05-20T14:44:43Z</time>
      </trkpt>
      <trkpt lat="46.04949" lon="6.21663">
        <ele>848.599</ele>
        <time>2020-05-20T14:44:44Z</time>
      </trkpt>
      <trkpt lat="46.04946" lon="6.21653">
        <ele>848.934</ele>
        <time>2020-05-20T14:44:45Z</time>
      </trkpt>
      <trkpt lat="46.04946" lon="6.21644">
        <ele>849.371</ele>
        <time>2020-05-20T14:44:46Z</time>
      </trkpt>
      <trkpt lat="46.0495" lon="6.21638">
        <ele>849.636</ele>
        <time>2020-05-20T14:44:47Z</time>
      </trkpt>
      <trkpt lat="46.04956" lon="6.21636">
        <ele>849.93</ele>
        <time>2020-05-20T14:44:48Z</time>
      </trkpt>
      <trkpt lat="46.0496" lon="6.21631">
        <ele>850.013</ele>
        <time>2020-05-20T14:44:49Z</time>
      </trkpt>
      <trkpt lat="46.04961" lon="6.21621">
        <ele>850.323</ele>
        <time>2020-05-20T14:44:51Z</time>
      </trkpt>
      <trkpt lat="46.04957" lon="6.21615">
        <ele>850.549</ele>
        <time>2020-05-20T14:44:53Z</time>
      </trkpt>
      <trkpt lat="46.04951" lon="6.21614">
        <ele>850.587</ele>
        <time>2020-05-20T14:44:54Z</time>
      </trkpt>
      <trkpt lat="46.04945" lon="6.21619">
        <ele>850.542</ele>
        <time>2020-05-20T14:44:55Z</time>
      </trkpt>
      <trkpt lat="46.04937" lon="6.21627">
        <ele>850.626</ele>
        <time>2020-05-20T14:44:56Z</time>
      </trkpt>
      <trkpt lat="46.04927" lon="6.21634">
        <ele>850.708</ele>
        <time>2020-05-20T14:44:57Z</time>
      </trkpt>
      <trkpt lat="46.04917" lon="6.21641">
        <ele>850.752</ele>
        <time>2020-05-20T14:44:58Z</time>
      </trkpt>
      <trkpt lat="46.04906" lon="6.21648">
        <ele>850.917</ele>
        <time>2020-05-20T14:44:59Z</time>
      </trkpt>
      <trkpt lat="46.04895" lon="6.21655">
        <ele>851.044</ele>
        <time>2020-05-20T14:45:00Z</time>
      </trkpt>
      <trkpt lat="46.04883" lon="6.21663">
        <ele>851.229</ele>
        <time>2020-05-20T14:45:01Z</time>
      </trkpt>
      <trkpt lat="46.04873" lon="6.2167">
        <ele>851.453</ele>
        <time>2020-05-20T14:45:02Z</time>
      </trkpt>
      <trkpt lat="46.04864" lon="6.21677">
        <ele>851.856</ele>
        <time>2020-05-20T14:45:03Z</time>
      </trkpt>
      <trkpt lat="46.04854" lon="6.21682">
        <ele>852.146</ele>
        <time>2020-05-20T14:45:04Z</time>
      </trkpt>
      <trkpt lat="46.04844" lon="6.21683">
        <ele>852.152</ele>
        <time>2020-05-20T14:45:05Z</time>
      </trkpt>
      <trkpt lat="46.04834" lon="6.21678">
        <ele>852.133</ele>
        <time>2020-05-20T14:45:06Z</time>
      </trkpt>
      <trkpt lat="46.04824" lon="6.2167">
        <ele>851.823</ele>
        <time>2020-05-20T14:45:07Z</time>
      </trkpt>
      <trkpt lat="46.04813" lon="6.21661">
        <ele>851.415</ele>
        <time>2020-05-20T14:45:08Z</time>
      </trkpt>
      <trkpt lat="46.04801" lon="6.21653">
        <ele>851.208</ele>
        <time>2020-05-20T14:45:09Z</time>
      </trkpt>
      <trkpt lat="46.0479" lon="6.21645">
        <ele>851.287</ele>
        <time>2020-05-20T14:45:10Z</time>
      </trkpt>
      <trkpt lat="46.04779" lon="6.21637">
        <ele>851.182</ele>
        <time>2020-05-20T14:45:11Z</time>
      </trkpt>
      <trkpt lat="46.04768" lon="6.2163">
        <ele>850.959</ele>
        <time>2020-05-20T14:45:12Z</time>
      </trkpt>
      <trkpt lat="46.04757" lon="6.21623">
        <ele>850.624</ele>
        <time>2020-05-20T14:45:13Z</time>
      </trkpt>
      <trkpt lat="46.04746" lon="6.21614">
        <ele>850.118</ele>
        <time>2020-05-20T14:45:14Z</time>
      </trkpt>
      <trkpt lat="46.04736" lon="6.21609">
        <ele>849.581</ele>
        <time>2020-05-20T14:45:15Z</time>
      </trkpt>
      <trkpt lat="46.04724" lon="6.21608">
        <ele>848.961</ele>
        <time>2020-05-20T14:45:16Z</time>
      </trkpt>
      <trkpt lat="46.04713" lon="6.21614">
        <ele>848.417</ele>
        <time>2020-05-20T14:45:17Z</time>
      </trkpt>
      <trkpt lat="46.04703" lon="6.21625">
        <ele>847.961</ele>
        <time>2020-05-20T14:45:18Z</time>
      </trkpt>
      <trkpt lat="46.04693" lon="6.2164">
        <ele>847.421</ele>
        <time>2020-05-20T14:45:19Z</time>
      </trkpt>
      <trkpt lat="46.04684" lon="6.21655">
        <ele>846.713</ele>
        <time>2020-05-20T14:45:20Z</time>
      </trkpt>
      <trkpt lat="46.04675" lon="6.2167">
        <ele>845.908</ele>
        <time>2020-05-20T14:45:21Z</time>
      </trkpt>
      <trkpt lat="46.04667" lon="6.21685">
        <ele>844.95</ele>
        <time>2020-05-20T14:45:22Z</time>
      </trkpt>
      <trkpt lat="46.04659" lon="6.21702">
        <ele>843.735</ele>
        <time>2020-05-20T14:45:23Z</time>
      </trkpt>
      <trkpt lat="46.0465" lon="6.21717">
        <ele>842.322</ele>
        <time>2020-05-20T14:45:24Z</time>
      </trkpt>
      <trkpt lat="46.0464" lon="6.2173">
        <ele>840.917</ele>
        <time>2020-05-20T14:45:25Z</time>
      </trkpt>
      <trkpt lat="46.04631" lon="6.2174">
        <ele>839.451</ele>
        <time>2020-05-20T14:45:26Z</time>
      </trkpt>
      <trkpt lat="46.04624" lon="6.21747">
        <ele>837.744</ele>
        <time>2020-05-20T14:45:27Z</time>
      </trkpt>
      <trkpt lat="46.04618" lon="6.21751">
        <ele>836.144</ele>
        <time>2020-05-20T14:45:28Z</time>
      </trkpt>
      <trkpt lat="46.04613" lon="6.21755">
        <ele>834.52</ele>
        <time>2020-05-20T14:45:29Z</time>
      </trkpt>
      <trkpt lat="46.04609" lon="6.21758">
        <ele>833.046</ele>
        <time>2020-05-20T14:45:30Z</time>
      </trkpt>
      <trkpt lat="46.04612" lon="6.21764">
        <ele>830.488</ele>
        <time>2020-05-20T14:45:33Z</time>
      </trkpt>
      <trkpt lat="46.0462" lon="6.21755">
        <ele>829.916</ele>
        <time>2020-05-20T14:45:35Z</time>
      </trkpt>
      <trkpt lat="46.04625" lon="6.21748">
        <ele>829.908</ele>
        <time>2020-05-20T14:45:36Z</time>
      </trkpt>
      <trkpt lat="46.04632" lon="6.2174">
        <ele>830.158</ele>
        <time>2020-05-20T14:45:37Z</time>
      </trkpt>
      <trkpt lat="46.0464" lon="6.21731">
        <ele>830.363</ele>
        <time>2020-05-20T14:45:38Z</time>
      </trkpt>
      <trkpt lat="46.0465" lon="6.21718">
        <ele>831.02</ele>
        <time>2020-05-20T14:45:39Z</time>
      </trkpt>
      <trkpt lat="46.04661" lon="6.217">
        <ele>831.845</ele>
        <time>2020-05-20T14:45:40Z</time>
      </trkpt>
      <trkpt lat="46.04671" lon="6.21679">
        <ele>833.139</ele>
        <time>2020-05-20T14:45:41Z</time>
      </trkpt>
      <trkpt lat="46.04682" lon="6.21659">
        <ele>834.892</ele>
        <time>2020-05-20T14:45:42Z</time>
      </trkpt>
      <trkpt lat="46.04693" lon="6.21642">
        <ele>836.982</ele>
        <time>2020-05-20T14:45:43Z</time>
      </trkpt>
      <trkpt lat="46.04702" lon="6.21629">
        <ele>838.928</ele>
        <time>2020-05-20T14:45:44Z</time>
      </trkpt>
      <trkpt lat="46.04708" lon="6.21622">
        <ele>841.067</ele>
        <time>2020-05-20T14:45:45Z</time>
      </trkpt>
      <trkpt lat="46.04714" lon="6.21615">
        <ele>842.681</ele>
        <time>2020-05-20T14:45:46Z</time>
      </trkpt>
      <trkpt lat="46.04718" lon="6.2161">
        <ele>843.919</ele>
        <time>2020-05-20T14:45:47Z</time>
      </trkpt>
      <trkpt lat="46.04714" lon="6.21597">
        <ele>845.308</ele>
        <time>2020-05-20T14:45:49Z</time>
      </trkpt>
      <trkpt lat="46.04713" lon="6.21586">
        <ele>845.71</ele>
        <time>2020-05-20T14:45:50Z</time>
      </trkpt>
      <trkpt lat="46.04711" lon="6.21577">
        <ele>846.185</ele>
        <time>2020-05-20T14:45:51Z</time>
      </trkpt>
      <trkpt lat="46.04708" lon="6.2157">
        <ele>846.382</ele>
        <time>2020-05-20T14:45:52Z</time>
      </trkpt>
      <trkpt lat="46.04706" lon="6.21563">
        <ele>846.527</ele>
        <time>2020-05-20T14:45:53Z</time>
      </trkpt>
      <trkpt lat="46.04703" lon="6.21556">
        <ele>846.891</ele>
        <time>2020-05-20T14:45:54Z</time>
      </trkpt>
      <trkpt lat="46.047" lon="6.21549">
        <ele>847.124</ele>
        <time>2020-05-20T14:45:55Z</time>
      </trkpt>
      <trkpt lat="46.04698" lon="6.21541">
        <ele>847.294</ele>
        <time>2020-05-20T14:45:56Z</time>
      </trkpt>
      <trkpt lat="46.04695" lon="6.21532">
        <ele>847.23</ele>
        <time>2020-05-20T14:45:57Z</time>
      </trkpt>
      <trkpt lat="46.04693" lon="6.21523">
        <ele>847.235</ele>
        <time>2020-05-20T14:45:58Z</time>
      </trkpt>
      <trkpt lat="46.0469" lon="6.21512">
        <ele>847.186</ele>
        <time>2020-05-20T14:45:59Z</time>
      </trkpt>
      <trkpt lat="46.04687" lon="6.21504">
        <ele>847.014</ele>
        <time>2020-05-20T14:46:00Z</time>
      </trkpt>
      <trkpt lat="46.04684" lon="6.21494">
        <ele>847.008</ele>
        <time>2020-05-20T14:46:01Z</time>
      </trkpt>
      <trkpt lat="46.04682" lon="6.21481">
        <ele>847.117</ele>
        <time>2020-05-20T14:46:03Z</time>
      </trkpt>
      <trkpt lat="46.04682" lon="6.21472">
        <ele>847.332</ele>
        <time>2020-05-20T14:46:05Z</time>
      </trkpt>
      <trkpt lat="46.04689" lon="6.21472">
        <ele>847.779</ele>
        <time>2020-05-20T14:46:07Z</time>
      </trkpt>
      <trkpt lat="46.04697" lon="6.21467">
        <ele>847.944</ele>
        <time>2020-05-20T14:46:09Z</time>
      </trkpt>
      <trkpt lat="46.04703" lon="6.21465">
        <ele>848.118</ele>
        <time>2020-05-20T14:46:11Z</time>
      </trkpt>
      <trkpt lat="46.04708" lon="6.21463">
        <ele>848.241</ele>
        <time>2020-05-20T14:46:12Z</time>
      </trkpt>
      <trkpt lat="46.04714" lon="6.21458">
        <ele>848.381</ele>
        <time>2020-05-20T14:46:13Z</time>
      </trkpt>
      <trkpt lat="46.04723" lon="6.21453">
        <ele>848.567</ele>
        <time>2020-05-20T14:46:14Z</time>
      </trkpt>
      <trkpt lat="46.04733" lon="6.21447">
        <ele>848.778</ele>
        <time>2020-05-20T14:46:15Z</time>
      </trkpt>
      <trkpt lat="46.04741" lon="6.21442">
        <ele>848.933</ele>
        <time>2020-05-20T14:46:16Z</time>
      </trkpt>
      <trkpt lat="46.04747" lon="6.21438">
        <ele>849.126</ele>
        <time>2020-05-20T14:46:17Z</time>
      </trkpt>
      <trkpt lat="46.04753" lon="6.21435">
        <ele>849.308</ele>
        <time>2020-05-20T14:46:18Z</time>
      </trkpt>
      <trkpt lat="46.04758" lon="6.21431">
        <ele>849.391</ele>
        <time>2020-05-20T14:46:19Z</time>
      </trkpt>
      <trkpt lat="46.04765" lon="6.21425">
        <ele>849.336</ele>
        <time>2020-05-20T14:46:21Z</time>
      </trkpt>
      <trkpt lat="46.04771" lon="6.21422">
        <ele>849.393</ele>
        <time>2020-05-20T14:46:22Z</time>
      </trkpt>
      <trkpt lat="46.04777" lon="6.21418">
        <ele>849.398</ele>
        <time>2020-05-20T14:46:23Z</time>
      </trkpt>
      <trkpt lat="46.04786" lon="6.21414">
        <ele>849.352</ele>
        <time>2020-05-20T14:46:24Z</time>
      </trkpt>
      <trkpt lat="46.04796" lon="6.21408">
        <ele>849.355</ele>
        <time>2020-05-20T14:46:25Z</time>
      </trkpt>
      <trkpt lat="46.04803" lon="6.21404">
        <ele>849.235</ele>
        <time>2020-05-20T14:46:26Z</time>
      </trkpt>
      <trkpt lat="46.04809" lon="6.21399">
        <ele>849.151</ele>
        <time>2020-05-20T14:46:27Z</time>
      </trkpt>
      <trkpt lat="46.04813" lon="6.21395">
        <ele>848.913</ele>
        <time>2020-05-20T14:46:28Z</time>
      </trkpt>
      <trkpt lat="46.04818" lon="6.21387">
        <ele>848.343</ele>
        <time>2020-05-20T14:46:30Z</time>
      </trkpt>
      <trkpt lat="46.04815" lon="6.2138">
        <ele>848.207</ele>
        <time>2020-05-20T14:46:31Z</time>
      </trkpt>
      <trkpt lat="46.04812" lon="6.21375">
        <ele>848.008</ele>
        <time>2020-05-20T14:46:32Z</time>
      </trkpt>
      <trkpt lat="46.04808" lon="6.21367">
        <ele>847.745</ele>
        <time>2020-05-20T14:46:33Z</time>
      </trkpt>
      <trkpt lat="46.04804" lon="6.21363">
        <ele>847.41</ele>
        <time>2020-05-20T14:46:34Z</time>
      </trkpt>
      <trkpt lat="46.048" lon="6.21356">
        <ele>847.057</ele>
        <time>2020-05-20T14:46:35Z</time>
      </trkpt>
      <trkpt lat="46.04798" lon="6.21348">
        <ele>846.592</ele>
        <time>2020-05-20T14:46:36Z</time>
      </trkpt>
      <trkpt lat="46.04795" lon="6.21341">
        <ele>845.816</ele>
        <time>2020-05-20T14:46:37Z</time>
      </trkpt>
      <trkpt lat="46.04792" lon="6.21334">
        <ele>845.119</ele>
        <time>2020-05-20T14:46:38Z</time>
      </trkpt>
      <trkpt lat="46.04788" lon="6.21329">
        <ele>844.489</ele>
        <time>2020-05-20T14:46:39Z</time>
      </trkpt>
      <trkpt lat="46.04782" lon="6.21327">
        <ele>843.655</ele>
        <time>2020-05-20T14:46:40Z</time>
      </trkpt>
      <trkpt lat="46.04775" lon="6.21326">
        <ele>842.811</ele>
        <time>2020-05-20T14:46:41Z</time>
      </trkpt>
      <trkpt lat="46.04769" lon="6.21326">
        <ele>842.021</ele>
        <time>2020-05-20T14:46:42Z</time>
      </trkpt>
      <trkpt lat="46.04762" lon="6.21327">
        <ele>841.303</ele>
        <time>2020-05-20T14:46:43Z</time>
      </trkpt>
      <trkpt lat="46.04757" lon="6.21326">
        <ele>840.608</ele>
        <time>2020-05-20T14:46:44Z</time>
      </trkpt>
      <trkpt lat="46.04752" lon="6.21325">
        <ele>840.075</ele>
        <time>2020-05-20T14:46:45Z</time>
      </trkpt>
      <trkpt lat="46.04746" lon="6.21323">
        <ele>839.58</ele>
        <time>2020-05-20T14:46:46Z</time>
      </trkpt>
      <trkpt lat="46.0474" lon="6.2132">
        <ele>839.067</ele>
        <time>2020-05-20T14:46:48Z</time>
      </trkpt>
      <trkpt lat="46.04742" lon="6.2131">
        <ele>839.012</ele>
        <time>2020-05-20T14:46:50Z</time>
      </trkpt>
      <trkpt lat="46.04744" lon="6.21299">
        <ele>838.876</ele>
        <time>2020-05-20T14:46:52Z</time>
      </trkpt>
      <trkpt lat="46.04743" lon="6.21291">
        <ele>838.299</ele>
        <time>2020-05-20T14:46:54Z</time>
      </trkpt>
      <trkpt lat="46.04742" lon="6.21283">
        <ele>837.559</ele>
        <time>2020-05-20T14:46:56Z</time>
      </trkpt>
      <trkpt lat="46.04741" lon="6.21271">
        <ele>837.165</ele>
        <time>2020-05-20T14:46:58Z</time>
      </trkpt>
      <trkpt lat="46.04738" lon="6.21266">
        <ele>836.762</ele>
        <time>2020-05-20T14:47:01Z</time>
      </trkpt>
      <trkpt lat="46.04731" lon="6.21262">
        <ele>836.783</ele>
        <time>2020-05-20T14:47:03Z</time>
      </trkpt>
      <trkpt lat="46.04727" lon="6.21259">
        <ele>836.911</ele>
        <time>2020-05-20T14:47:04Z</time>
      </trkpt>
      <trkpt lat="46.04723" lon="6.21252">
        <ele>837.408</ele>
        <time>2020-05-20T14:47:06Z</time>
      </trkpt>
      <trkpt lat="46.04716" lon="6.21244">
        <ele>838.62</ele>
        <time>2020-05-20T14:47:09Z</time>
      </trkpt>
      <trkpt lat="46.0471" lon="6.21237">
        <ele>839.735</ele>
        <time>2020-05-20T14:47:11Z</time>
      </trkpt>
      <trkpt lat="46.04704" lon="6.21231">
        <ele>840.262</ele>
        <time>2020-05-20T14:47:12Z</time>
      </trkpt>
      <trkpt lat="46.04699" lon="6.21224">
        <ele>840.777</ele>
        <time>2020-05-20T14:47:13Z</time>
      </trkpt>
      <trkpt lat="46.04692" lon="6.21217">
        <ele>841.171</ele>
        <time>2020-05-20T14:47:14Z</time>
      </trkpt>
      <trkpt lat="46.04688" lon="6.21213">
        <ele>841.534</ele>
        <time>2020-05-20T14:47:15Z</time>
      </trkpt>
      <trkpt lat="46.04683" lon="6.21209">
        <ele>841.744</ele>
        <time>2020-05-20T14:47:16Z</time>
      </trkpt>
      <trkpt lat="46.04677" lon="6.21204">
        <ele>841.91</ele>
        <time>2020-05-20T14:47:17Z</time>
      </trkpt>
      <trkpt lat="46.04673" lon="6.21201">
        <ele>842.022</ele>
        <time>2020-05-20T14:47:18Z</time>
      </trkpt>
      <trkpt lat="46.04665" lon="6.21195">
        <ele>842.262</ele>
        <time>2020-05-20T14:47:20Z</time>
      </trkpt>
      <trkpt lat="46.04658" lon="6.2119">
        <ele>842.308</ele>
        <time>2020-05-20T14:47:21Z</time>
      </trkpt>
      <trkpt lat="46.04653" lon="6.21188">
        <ele>842.508</ele>
        <time>2020-05-20T14:47:22Z</time>
      </trkpt>
      <trkpt lat="46.04645" lon="6.21186">
        <ele>842.766</ele>
        <time>2020-05-20T14:47:23Z</time>
      </trkpt>
      <trkpt lat="46.04638" lon="6.21181">
        <ele>842.931</ele>
        <time>2020-05-20T14:47:24Z</time>
      </trkpt>
      <trkpt lat="46.04631" lon="6.21175">
        <ele>843.028</ele>
        <time>2020-05-20T14:47:25Z</time>
      </trkpt>
      <trkpt lat="46.04624" lon="6.21169">
        <ele>843.123</ele>
        <time>2020-05-20T14:47:26Z</time>
      </trkpt>
      <trkpt lat="46.0462" lon="6.21163">
        <ele>843.287</ele>
        <time>2020-05-20T14:47:27Z</time>
      </trkpt>
      <trkpt lat="46.0461" lon="6.21159">
        <ele>843.32</ele>
        <time>2020-05-20T14:47:28Z</time>
      </trkpt>
      <trkpt lat="46.04604" lon="6.21156">
        <ele>843.51</ele>
        <time>2020-05-20T14:47:29Z</time>
      </trkpt>
      <trkpt lat="46.04594" lon="6.21152">
        <ele>843.786</ele>
        <time>2020-05-20T14:47:30Z</time>
      </trkpt>
      <trkpt lat="46.04584" lon="6.21146">
        <ele>843.974</ele>
        <time>2020-05-20T14:47:31Z</time>
      </trkpt>
      <trkpt lat="46.04577" lon="6.21141">
        <ele>844.256</ele>
        <time>2020-05-20T14:47:32Z</time>
      </trkpt>
      <trkpt lat="46.04571" lon="6.21137">
        <ele>844.421</ele>
        <time>2020-05-20T14:47:34Z</time>
      </trkpt>
      <trkpt lat="46.0457" lon="6.21128">
        <ele>844.508</ele>
        <time>2020-05-20T14:47:37Z</time>
      </trkpt>
      <trkpt lat="46.04567" lon="6.21119">
        <ele>844.621</ele>
        <time>2020-05-20T14:47:41Z</time>
      </trkpt>
      <trkpt lat="46.0457" lon="6.21109">
        <ele>844.896</ele>
        <time>2020-05-20T14:47:43Z</time>
      </trkpt>
      <trkpt lat="46.04574" lon="6.21103">
        <ele>844.963</ele>
        <time>2020-05-20T14:47:44Z</time>
      </trkpt>
      <trkpt lat="46.04578" lon="6.21096">
        <ele>845.268</ele>
        <time>2020-05-20T14:47:45Z</time>
      </trkpt>
      <trkpt lat="46.04581" lon="6.21087">
        <ele>845.572</ele>
        <time>2020-05-20T14:47:46Z</time>
      </trkpt>
      <trkpt lat="46.04584" lon="6.2108">
        <ele>845.815</ele>
        <time>2020-05-20T14:47:47Z</time>
      </trkpt>
      <trkpt lat="46.04589" lon="6.21072">
        <ele>846.165</ele>
        <time>2020-05-20T14:47:48Z</time>
      </trkpt>
      <trkpt lat="46.04593" lon="6.21067">
        <ele>846.451</ele>
        <time>2020-05-20T14:47:49Z</time>
      </trkpt>
      <trkpt lat="46.04591" lon="6.21058">
        <ele>846.667</ele>
        <time>2020-05-20T14:47:52Z</time>
      </trkpt>
      <trkpt lat="46.04586" lon="6.21054">
        <ele>846.681</ele>
        <time>2020-05-20T14:47:53Z</time>
      </trkpt>
      <trkpt lat="46.04575" lon="6.21044">
        <ele>846.819</ele>
        <time>2020-05-20T14:47:54Z</time>
      </trkpt>
      <trkpt lat="46.04562" lon="6.21031">
        <ele>847.108</ele>
        <time>2020-05-20T14:47:55Z</time>
      </trkpt>
      <trkpt lat="46.04548" lon="6.21014">
        <ele>847.56</ele>
        <time>2020-05-20T14:47:56Z</time>
      </trkpt>
      <trkpt lat="46.04531" lon="6.20996">
        <ele>848.065</ele>
        <time>2020-05-20T14:47:57Z</time>
      </trkpt>
      <trkpt lat="46.04514" lon="6.20975">
        <ele>848.862</ele>
        <time>2020-05-20T14:47:58Z</time>
      </trkpt>
      <trkpt lat="46.04496" lon="6.20952">
        <ele>849.587</ele>
        <time>2020-05-20T14:47:59Z</time>
      </trkpt>
      <trkpt lat="46.04481" lon="6.20933">
        <ele>850.221</ele>
        <time>2020-05-20T14:48:00Z</time>
      </trkpt>
      <trkpt lat="46.04466" lon="6.20915">
        <ele>850.574</ele>
        <time>2020-05-20T14:48:01Z</time>
      </trkpt>
      <trkpt lat="46.04453" lon="6.20899">
        <ele>850.594</ele>
        <time>2020-05-20T14:48:02Z</time>
      </trkpt>
      <trkpt lat="46.04437" lon="6.20879">
        <ele>850.56</ele>
        <time>2020-05-20T14:48:03Z</time>
      </trkpt>
      <trkpt lat="46.04422" lon="6.20861">
        <ele>850.422</ele>
        <time>2020-05-20T14:48:04Z</time>
      </trkpt>
      <trkpt lat="46.04409" lon="6.20844">
        <ele>850.462</ele>
        <time>2020-05-20T14:48:05Z</time>
      </trkpt>
      <trkpt lat="46.04397" lon="6.20828">
        <ele>849.908</ele>
        <time>2020-05-20T14:48:06Z</time>
      </trkpt>
      <trkpt lat="46.04387" lon="6.20813">
        <ele>849.708</ele>
        <time>2020-05-20T14:48:07Z</time>
      </trkpt>
      <trkpt lat="46.04378" lon="6.20799">
        <ele>849.786</ele>
        <time>2020-05-20T14:48:08Z</time>
      </trkpt>
      <trkpt lat="46.0437" lon="6.20791">
        <ele>849.751</ele>
        <time>2020-05-20T14:48:09Z</time>
      </trkpt>
      <trkpt lat="46.04367" lon="6.20784">
        <ele>849.598</ele>
        <time>2020-05-20T14:48:10Z</time>
      </trkpt>
      <trkpt lat="46.04363" lon="6.20776">
        <ele>849.473</ele>
        <time>2020-05-20T14:48:11Z</time>
      </trkpt>
      <trkpt lat="46.04359" lon="6.20772">
        <ele>848.637</ele>
        <time>2020-05-20T14:48:13Z</time>
      </trkpt>
      <trkpt lat="46.04358" lon="6.20764">
        <ele>846.65</ele>
        <time>2020-05-20T14:48:17Z</time>
      </trkpt>
      <trkpt lat="46.0436" lon="6.20753">
        <ele>846.67</ele>
        <time>2020-05-20T14:48:18Z</time>
      </trkpt>
      <trkpt lat="46.04363" lon="6.20742">
        <ele>846.616</ele>
        <time>2020-05-20T14:48:19Z</time>
      </trkpt>
      <trkpt lat="46.04366" lon="6.20732">
        <ele>846.774</ele>
        <time>2020-05-20T14:48:20Z</time>
      </trkpt>
      <trkpt lat="46.04368" lon="6.20722">
        <ele>846.756</ele>
        <time>2020-05-20T14:48:21Z</time>
      </trkpt>
      <trkpt lat="46.04369" lon="6.2071">
        <ele>846.621</ele>
        <time>2020-05-20T14:48:22Z</time>
      </trkpt>
      <trkpt lat="46.04368" lon="6.20694">
        <ele>846.408</ele>
        <time>2020-05-20T14:48:23Z</time>
      </trkpt>
      <trkpt lat="46.04368" lon="6.20674">
        <ele>846.221</ele>
        <time>2020-05-20T14:48:24Z</time>
      </trkpt>
      <trkpt lat="46.04366" lon="6.20652">
        <ele>845.876</ele>
        <time>2020-05-20T14:48:25Z</time>
      </trkpt>
      <trkpt lat="46.04366" lon="6.20632">
        <ele>845.643</ele>
        <time>2020-05-20T14:48:26Z</time>
      </trkpt>
      <trkpt lat="46.04365" lon="6.20613">
        <ele>845.428</ele>
        <time>2020-05-20T14:48:27Z</time>
      </trkpt>
      <trkpt lat="46.04368" lon="6.20595">
        <ele>845.192</ele>
        <time>2020-05-20T14:48:28Z</time>
      </trkpt>
      <trkpt lat="46.04373" lon="6.20581">
        <ele>844.815</ele>
        <time>2020-05-20T14:48:29Z</time>
      </trkpt>
      <trkpt lat="46.04379" lon="6.20569">
        <ele>844.865</ele>
        <time>2020-05-20T14:48:30Z</time>
      </trkpt>
      <trkpt lat="46.04389" lon="6.20558">
        <ele>844.881</ele>
        <time>2020-05-20T14:48:31Z</time>
      </trkpt>
      <trkpt lat="46.04402" lon="6.20547">
        <ele>844.952</ele>
        <time>2020-05-20T14:48:32Z</time>
      </trkpt>
      <trkpt lat="46.04415" lon="6.20539">
        <ele>845.753</ele>
        <time>2020-05-20T14:48:33Z</time>
      </trkpt>
      <trkpt lat="46.04428" lon="6.20529">
        <ele>847.008</ele>
        <time>2020-05-20T14:48:34Z</time>
      </trkpt>
      <trkpt lat="46.0444" lon="6.20518">
        <ele>848.208</ele>
        <time>2020-05-20T14:48:35Z</time>
      </trkpt>
      <trkpt lat="46.04451" lon="6.20508">
        <ele>849.589</ele>
        <time>2020-05-20T14:48:36Z</time>
      </trkpt>
      <trkpt lat="46.0446" lon="6.20501">
        <ele>851.544</ele>
        <time>2020-05-20T14:48:37Z</time>
      </trkpt>
      <trkpt lat="46.04466" lon="6.20497">
        <ele>853.261</ele>
        <time>2020-05-20T14:48:38Z</time>
      </trkpt>
      <trkpt lat="46.04467" lon="6.20486">
        <ele>855.386</ele>
        <time>2020-05-20T14:48:40Z</time>
      </trkpt>
      <trkpt lat="46.04463" lon="6.20481">
        <ele>856.17</ele>
        <time>2020-05-20T14:48:41Z</time>
      </trkpt>
      <trkpt lat="46.04454" lon="6.20476">
        <ele>856.173</ele>
        <time>2020-05-20T14:48:42Z</time>
      </trkpt>
      <trkpt lat="46.04446" lon="6.2047">
        <ele>855.933</ele>
        <time>2020-05-20T14:48:43Z</time>
      </trkpt>
      <trkpt lat="46.04436" lon="6.20464">
        <ele>855.639</ele>
        <time>2020-05-20T14:48:44Z</time>
      </trkpt>
      <trkpt lat="46.04425" lon="6.20458">
        <ele>855.424</ele>
        <time>2020-05-20T14:48:45Z</time>
      </trkpt>
      <trkpt lat="46.04412" lon="6.20451">
        <ele>855.104</ele>
        <time>2020-05-20T14:48:46Z</time>
      </trkpt>
      <trkpt lat="46.04397" lon="6.20445">
        <ele>854.714</ele>
        <time>2020-05-20T14:48:47Z</time>
      </trkpt>
      <trkpt lat="46.04382" lon="6.20438">
        <ele>854.308</ele>
        <time>2020-05-20T14:48:48Z</time>
      </trkpt>
      <trkpt lat="46.04369" lon="6.20433">
        <ele>854.046</ele>
        <time>2020-05-20T14:48:49Z</time>
      </trkpt>
      <trkpt lat="46.04356" lon="6.20433">
        <ele>853.511</ele>
        <time>2020-05-20T14:48:50Z</time>
      </trkpt>
      <trkpt lat="46.04342" lon="6.20434">
        <ele>852.888</ele>
        <time>2020-05-20T14:48:51Z</time>
      </trkpt>
      <trkpt lat="46.04329" lon="6.20435">
        <ele>852.113</ele>
        <time>2020-05-20T14:48:52Z</time>
      </trkpt>
      <trkpt lat="46.04316" lon="6.2043">
        <ele>851.787</ele>
        <time>2020-05-20T14:48:53Z</time>
      </trkpt>
      <trkpt lat="46.04302" lon="6.20422">
        <ele>851.34</ele>
        <time>2020-05-20T14:48:54Z</time>
      </trkpt>
      <trkpt lat="46.0429" lon="6.20413">
        <ele>851.05</ele>
        <time>2020-05-20T14:48:55Z</time>
      </trkpt>
      <trkpt lat="46.04279" lon="6.20405">
        <ele>850.846</ele>
        <time>2020-05-20T14:48:56Z</time>
      </trkpt>
      <trkpt lat="46.0427" lon="6.20396">
        <ele>850.716</ele>
        <time>2020-05-20T14:48:57Z</time>
      </trkpt>
      <trkpt lat="46.04259" lon="6.20389">
        <ele>850.676</ele>
        <time>2020-05-20T14:48:58Z</time>
      </trkpt>
      <trkpt lat="46.04246" lon="6.20382">
        <ele>850.613</ele>
        <time>2020-05-20T14:48:59Z</time>
      </trkpt>
      <trkpt lat="46.04234" lon="6.20376">
        <ele>851.008</ele>
        <time>2020-05-20T14:49:00Z</time>
      </trkpt>
      <trkpt lat="46.04222" lon="6.20369">
        <ele>851.745</ele>
        <time>2020-05-20T14:49:01Z</time>
      </trkpt>
      <trkpt lat="46.04207" lon="6.20364">
        <ele>852.42</ele>
        <time>2020-05-20T14:49:02Z</time>
      </trkpt>
      <trkpt lat="46.04192" lon="6.20355">
        <ele>853.317</ele>
        <time>2020-05-20T14:49:03Z</time>
      </trkpt>
      <trkpt lat="46.04176" lon="6.20338">
        <ele>854.232</ele>
        <time>2020-05-20T14:49:04Z</time>
      </trkpt>
      <trkpt lat="46.04162" lon="6.20329">
        <ele>855.086</ele>
        <time>2020-05-20T14:49:05Z</time>
      </trkpt>
      <trkpt lat="46.04149" lon="6.20321">
        <ele>855.669</ele>
        <time>2020-05-20T14:49:06Z</time>
      </trkpt>
      <trkpt lat="46.04137" lon="6.20314">
        <ele>856.339</ele>
        <time>2020-05-20T14:49:07Z</time>
      </trkpt>
      <trkpt lat="46.04125" lon="6.20308">
        <ele>856.795</ele>
        <time>2020-05-20T14:49:08Z</time>
      </trkpt>
      <trkpt lat="46.04112" lon="6.20301">
        <ele>856.959</ele>
        <time>2020-05-20T14:49:09Z</time>
      </trkpt>
      <trkpt lat="46.04099" lon="6.20295">
        <ele>857.003</ele>
        <time>2020-05-20T14:49:10Z</time>
      </trkpt>
      <trkpt lat="46.04085" lon="6.20289">
        <ele>857.023</ele>
        <time>2020-05-20T14:49:11Z</time>
      </trkpt>
      <trkpt lat="46.04074" lon="6.20286">
        <ele>856.908</ele>
        <time>2020-05-20T14:49:12Z</time>
      </trkpt>
      <trkpt lat="46.04064" lon="6.20282">
        <ele>856.589</ele>
        <time>2020-05-20T14:49:13Z</time>
      </trkpt>
      <trkpt lat="46.04053" lon="6.20279">
        <ele>855.954</ele>
        <time>2020-05-20T14:49:14Z</time>
      </trkpt>
      <trkpt lat="46.04041" lon="6.20277">
        <ele>855.271</ele>
        <time>2020-05-20T14:49:15Z</time>
      </trkpt>
      <trkpt lat="46.04031" lon="6.20274">
        <ele>854.556</ele>
        <time>2020-05-20T14:49:16Z</time>
      </trkpt>
      <trkpt lat="46.0402" lon="6.20274">
        <ele>853.61</ele>
        <time>2020-05-20T14:49:17Z</time>
      </trkpt>
      <trkpt lat="46.04007" lon="6.20269">
        <ele>853.013</ele>
        <time>2020-05-20T14:49:18Z</time>
      </trkpt>
      <trkpt lat="46.03994" lon="6.20266">
        <ele>852.563</ele>
        <time>2020-05-20T14:49:19Z</time>
      </trkpt>
      <trkpt lat="46.03981" lon="6.20262">
        <ele>852.319</ele>
        <time>2020-05-20T14:49:20Z</time>
      </trkpt>
      <trkpt lat="46.03969" lon="6.20258">
        <ele>852.167</ele>
        <time>2020-05-20T14:49:21Z</time>
      </trkpt>
      <trkpt lat="46.03958" lon="6.20252">
        <ele>852.181</ele>
        <time>2020-05-20T14:49:22Z</time>
      </trkpt>
      <trkpt lat="46.0395" lon="6.20245">
        <ele>852.119</ele>
        <time>2020-05-20T14:49:23Z</time>
      </trkpt>
      <trkpt lat="46.03943" lon="6.20236">
        <ele>852.108</ele>
        <time>2020-05-20T14:49:24Z</time>
      </trkpt>
      <trkpt lat="46.03942" lon="6.20227">
        <ele>852.17</ele>
        <time>2020-05-20T14:49:25Z</time>
      </trkpt>
      <trkpt lat="46.0394" lon="6.20219">
        <ele>852.055</ele>
        <time>2020-05-20T14:49:26Z</time>
      </trkpt>
      <trkpt lat="46.03937" lon="6.20211">
        <ele>851.992</ele>
        <time>2020-05-20T14:49:27Z</time>
      </trkpt>
      <trkpt lat="46.03932" lon="6.20206">
        <ele>851.667</ele>
        <time>2020-05-20T14:49:28Z</time>
      </trkpt>
      <trkpt lat="46.03928" lon="6.20259">
        <ele>851.211</ele>
        <time>2020-05-20T14:49:29Z</time>
      </trkpt>
      <trkpt lat="46.03924" lon="6.20249">
        <ele>851.084</ele>
        <time>2020-05-20T14:49:31Z</time>
      </trkpt>
      <trkpt lat="46.03918" lon="6.20244">
        <ele>851.174</ele>
        <time>2020-05-20T14:49:32Z</time>
      </trkpt>
      <trkpt lat="46.03914" lon="6.20242">
        <ele>851.33</ele>
        <time>2020-05-20T14:49:33Z</time>
      </trkpt>
      <trkpt lat="46.0391" lon="6.20239">
        <ele>851.583</ele>
        <time>2020-05-20T14:49:34Z</time>
      </trkpt>
      <trkpt lat="46.03903" lon="6.20239">
        <ele>851.725</ele>
        <time>2020-05-20T14:49:35Z</time>
      </trkpt>
      <trkpt lat="46.03889" lon="6.20238">
        <ele>851.717</ele>
        <time>2020-05-20T14:49:36Z</time>
      </trkpt>
      <trkpt lat="46.03874" lon="6.20234">
        <ele>851.608</ele>
        <time>2020-05-20T14:49:37Z</time>
      </trkpt>
      <trkpt lat="46.0386" lon="6.20229">
        <ele>851.522</ele>
        <time>2020-05-20T14:49:38Z</time>
      </trkpt>
      <trkpt lat="46.03848" lon="6.20223">
        <ele>851.157</ele>
        <time>2020-05-20T14:49:39Z</time>
      </trkpt>
      <trkpt lat="46.03837" lon="6.20217">
        <ele>850.494</ele>
        <time>2020-05-20T14:49:40Z</time>
      </trkpt>
      <trkpt lat="46.03825" lon="6.20212">
        <ele>849.759</ele>
        <time>2020-05-20T14:49:41Z</time>
      </trkpt>
      <trkpt lat="46.03813" lon="6.20207">
        <ele>848.933</ele>
        <time>2020-05-20T14:49:42Z</time>
      </trkpt>
      <trkpt lat="46.03802" lon="6.20199">
        <ele>847.936</ele>
        <time>2020-05-20T14:49:43Z</time>
      </trkpt>
      <trkpt lat="46.03792" lon="6.20192">
        <ele>847.286</ele>
        <time>2020-05-20T14:49:44Z</time>
      </trkpt>
      <trkpt lat="46.03783" lon="6.20186">
        <ele>846.712</ele>
        <time>2020-05-20T14:49:45Z</time>
      </trkpt>
      <trkpt lat="46.03771" lon="6.2018">
        <ele>846.227</ele>
        <time>2020-05-20T14:49:46Z</time>
      </trkpt>
      <trkpt lat="46.03761" lon="6.20173">
        <ele>845.868</ele>
        <time>2020-05-20T14:49:47Z</time>
      </trkpt>
      <trkpt lat="46.0375" lon="6.20165">
        <ele>845.514</ele>
        <time>2020-05-20T14:49:48Z</time>
      </trkpt>
      <trkpt lat="46.03741" lon="6.20159">
        <ele>845.308</ele>
        <time>2020-05-20T14:49:49Z</time>
      </trkpt>
      <trkpt lat="46.03731" lon="6.20153">
        <ele>845.156</ele>
        <time>2020-05-20T14:49:50Z</time>
      </trkpt>
      <trkpt lat="46.03721" lon="6.20145">
        <ele>844.961</ele>
        <time>2020-05-20T14:49:51Z</time>
      </trkpt>
      <trkpt lat="46.0371" lon="6.20135">
        <ele>844.538</ele>
        <time>2020-05-20T14:49:52Z</time>
      </trkpt>
      <trkpt lat="46.037" lon="6.20127">
        <ele>844.113</ele>
        <time>2020-05-20T14:49:53Z</time>
      </trkpt>
      <trkpt lat="46.0369" lon="6.20119">
        <ele>843.777</ele>
        <time>2020-05-20T14:49:54Z</time>
      </trkpt>
      <trkpt lat="46.03678" lon="6.20112">
        <ele>843.46</ele>
        <time>2020-05-20T14:49:55Z</time>
      </trkpt>
      <trkpt lat="46.03669" lon="6.20111">
        <ele>843.36</ele>
        <time>2020-05-20T14:49:56Z</time>
      </trkpt>
      <trkpt lat="46.03664" lon="6.20107">
        <ele>843.326</ele>
        <time>2020-05-20T14:49:57Z</time>
      </trkpt>
      <trkpt lat="46.03658" lon="6.20104">
        <ele>843.567</ele>
        <time>2020-05-20T14:49:58Z</time>
      </trkpt>
      <trkpt lat="46.03648" lon="6.20099">
        <ele>844.081</ele>
        <time>2020-05-20T14:49:59Z</time>
      </trkpt>
      <trkpt lat="46.0364" lon="6.20095">
        <ele>844.519</ele>
        <time>2020-05-20T14:50:00Z</time>
      </trkpt>
      <trkpt lat="46.03628" lon="6.20083">
        <ele>845.208</ele>
        <time>2020-05-20T14:50:01Z</time>
      </trkpt>
      <trkpt lat="46.03617" lon="6.20076">
        <ele>846.51</ele>
        <time>2020-05-20T14:50:02Z</time>
      </trkpt>
      <trkpt lat="46.03606" lon="6.20068">
        <ele>847.975</ele>
        <time>2020-05-20T14:50:03Z</time>
      </trkpt>
      <trkpt lat="46.03597" lon="6.20062">
        <ele>849.492</ele>
        <time>2020-05-20T14:50:04Z</time>
      </trkpt>
      <trkpt lat="46.03585" lon="6.20054">
        <ele>850.857</ele>
        <time>2020-05-20T14:50:05Z</time>
      </trkpt>
      <trkpt lat="46.03573" lon="6.20049">
        <ele>852.221</ele>
        <time>2020-05-20T14:50:06Z</time>
      </trkpt>
      <trkpt lat="46.03564" lon="6.20043">
        <ele>853.194</ele>
        <time>2020-05-20T14:50:07Z</time>
      </trkpt>
      <trkpt lat="46.03555" lon="6.20039">
        <ele>853.864</ele>
        <time>2020-05-20T14:50:08Z</time>
      </trkpt>
      <trkpt lat="46.03546" lon="6.20034">
        <ele>854.26</ele>
        <time>2020-05-20T14:50:09Z</time>
      </trkpt>
      <trkpt lat="46.03535" lon="6.20028">
        <ele>854.576</ele>
        <time>2020-05-20T14:50:10Z</time>
      </trkpt>
      <trkpt lat="46.03525" lon="6.20023">
        <ele>854.59</ele>
        <time>2020-05-20T14:50:11Z</time>
      </trkpt>
      <trkpt lat="46.03516" lon="6.20016">
        <ele>854.519</ele>
        <time>2020-05-20T14:50:12Z</time>
      </trkpt>
      <trkpt lat="46.03507" lon="6.2001">
        <ele>854.308</ele>
        <time>2020-05-20T14:50:13Z</time>
      </trkpt>
      <trkpt lat="46.03494" lon="6.20006">
        <ele>854.131</ele>
        <time>2020-05-20T14:50:14Z</time>
      </trkpt>
      <trkpt lat="46.03482" lon="6.19999">
        <ele>853.866</ele>
        <time>2020-05-20T14:50:15Z</time>
      </trkpt>
      <trkpt lat="46.03472" lon="6.19994">
        <ele>853.583</ele>
        <time>2020-05-20T14:50:16Z</time>
      </trkpt>
      <trkpt lat="46.03463" lon="6.19991">
        <ele>853.258</ele>
        <time>2020-05-20T14:50:17Z</time>
      </trkpt>
      <trkpt lat="46.03453" lon="6.19986">
        <ele>852.772</ele>
        <time>2020-05-20T14:50:18Z</time>
      </trkpt>
      <trkpt lat="46.03442" lon="6.1998">
        <ele>852.275</ele>
        <time>2020-05-20T14:50:19Z</time>
      </trkpt>
      <trkpt lat="46.03432" lon="6.19977">
        <ele>851.635</ele>
        <time>2020-05-20T14:50:20Z</time>
      </trkpt>
      <trkpt lat="46.03425" lon="6.19973">
        <ele>850.981</ele>
        <time>2020-05-20T14:50:21Z</time>
      </trkpt>
      <trkpt lat="46.03418" lon="6.19969">
        <ele>850.197</ele>
        <time>2020-05-20T14:50:22Z</time>
      </trkpt>
      <trkpt lat="46.03413" lon="6.19965">
        <ele>849.323</ele>
        <time>2020-05-20T14:50:23Z</time>
      </trkpt>
      <trkpt lat="46.03406" lon="6.19964">
        <ele>848.425</ele>
        <time>2020-05-20T14:50:24Z</time>
      </trkpt>
      <trkpt lat="46.03396" lon="6.19967">
        <ele>847.408</ele>
        <time>2020-05-20T14:50:25Z</time>
      </trkpt>
      <trkpt lat="46.03386" lon="6.1997">
        <ele>846.653</ele>
        <time>2020-05-20T14:50:26Z</time>
      </trkpt>
      <trkpt lat="46.03379" lon="6.19978">
        <ele>845.748</ele>
        <time>2020-05-20T14:50:27Z</time>
      </trkpt>
      <trkpt lat="46.03373" lon="6.19978">
        <ele>844.835</ele>
        <time>2020-05-20T14:50:28Z</time>
      </trkpt>
      <trkpt lat="46.03367" lon="6.19971">
        <ele>843.81</ele>
        <time>2020-05-20T14:50:29Z</time>
      </trkpt>
      <trkpt lat="46.03361" lon="6.19966">
        <ele>842.944</ele>
        <time>2020-05-20T14:50:30Z</time>
      </trkpt>
      <trkpt lat="46.03356" lon="6.19961">
        <ele>841.957</ele>
        <time>2020-05-20T14:50:31Z</time>
      </trkpt>
      <trkpt lat="46.0335" lon="6.19959">
        <ele>840.937</ele>
        <time>2020-05-20T14:50:32Z</time>
      </trkpt>
      <trkpt lat="46.03345" lon="6.19956">
        <ele>839.993</ele>
        <time>2020-05-20T14:50:33Z</time>
      </trkpt>
      <trkpt lat="46.03339" lon="6.19954">
        <ele>838.865</ele>
        <time>2020-05-20T14:50:34Z</time>
      </trkpt>
      <trkpt lat="46.03335" lon="6.1995">
        <ele>837.768</ele>
        <time>2020-05-20T14:50:35Z</time>
      </trkpt>
      <trkpt lat="46.03331" lon="6.19949">
        <ele>835.714</ele>
        <time>2020-05-20T14:50:37Z</time>
      </trkpt>
      <trkpt lat="46.03321" lon="6.19945">
        <ele>834.408</ele>
        <time>2020-05-20T14:50:39Z</time>
      </trkpt>
      <trkpt lat="46.03315" lon="6.19944">
        <ele>834.01</ele>
        <time>2020-05-20T14:50:40Z</time>
      </trkpt>
      <trkpt lat="46.03304" lon="6.19939">
        <ele>833.655</ele>
        <time>2020-05-20T14:50:41Z</time>
      </trkpt>
      <trkpt lat="46.03293" lon="6.19932">
        <ele>833.222</ele>
        <time>2020-05-20T14:50:42Z</time>
      </trkpt>
      <trkpt lat="46.03286" lon="6.19928">
        <ele>832.697</ele>
        <time>2020-05-20T14:50:43Z</time>
      </trkpt>
      <trkpt lat="46.03278" lon="6.19925">
        <ele>831.951</ele>
        <time>2020-05-20T14:50:44Z</time>
      </trkpt>
      <trkpt lat="46.03271" lon="6.19922">
        <ele>831.234</ele>
        <time>2020-05-20T14:50:45Z</time>
      </trkpt>
      <trkpt lat="46.03264" lon="6.19918">
        <ele>830.524</ele>
        <time>2020-05-20T14:50:46Z</time>
      </trkpt>
      <trkpt lat="46.03258" lon="6.19913">
        <ele>829.81</ele>
        <time>2020-05-20T14:50:47Z</time>
      </trkpt>
      <trkpt lat="46.03253" lon="6.1991">
        <ele>829.285</ele>
        <time>2020-05-20T14:50:48Z</time>
      </trkpt>
      <trkpt lat="46.03248" lon="6.19907">
        <ele>828.589</ele>
        <time>2020-05-20T14:50:49Z</time>
      </trkpt>
      <trkpt lat="46.03242" lon="6.19901">
        <ele>827.817</ele>
        <time>2020-05-20T14:50:50Z</time>
      </trkpt>
      <trkpt lat="46.03237" lon="6.19895">
        <ele>827.108</ele>
        <time>2020-05-20T14:50:51Z</time>
      </trkpt>
      <trkpt lat="46.03231" lon="6.1989">
        <ele>826.442</ele>
        <time>2020-05-20T14:50:52Z</time>
      </trkpt>
      <trkpt lat="46.03226" lon="6.19884">
        <ele>825.767</ele>
        <time>2020-05-20T14:50:53Z</time>
      </trkpt>
      <trkpt lat="46.03221" lon="6.19878">
        <ele>825.194</ele>
        <time>2020-05-20T14:50:54Z</time>
      </trkpt>
      <trkpt lat="46.03216" lon="6.1987">
        <ele>824.359</ele>
        <time>2020-05-20T14:50:55Z</time>
      </trkpt>
      <trkpt lat="46.0321" lon="6.19862">
        <ele>823.693</ele>
        <time>2020-05-20T14:50:56Z</time>
      </trkpt>
      <trkpt lat="46.03204" lon="6.19854">
        <ele>822.876</ele>
        <time>2020-05-20T14:50:57Z</time>
      </trkpt>
      <trkpt lat="46.03199" lon="6.19847">
        <ele>822.036</ele>
        <time>2020-05-20T14:50:58Z</time>
      </trkpt>
      <trkpt lat="46.03194" lon="6.19841">
        <ele>821.342</ele>
        <time>2020-05-20T14:50:59Z</time>
      </trkpt>
      <trkpt lat="46.03188" lon="6.19836">
        <ele>820.895</ele>
        <time>2020-05-20T14:51:00Z</time>
      </trkpt>
      <trkpt lat="46.03182" lon="6.19832">
        <ele>820.449</ele>
        <time>2020-05-20T14:51:01Z</time>
      </trkpt>
      <trkpt lat="46.03177" lon="6.19829">
        <ele>820.223</ele>
        <time>2020-05-20T14:51:02Z</time>
      </trkpt>
      <trkpt lat="46.03171" lon="6.19823">
        <ele>820.008</ele>
        <time>2020-05-20T14:51:03Z</time>
      </trkpt>
      <trkpt lat="46.03164" lon="6.19818">
        <ele>819.813</ele>
        <time>2020-05-20T14:51:04Z</time>
      </trkpt>
      <trkpt lat="46.0316" lon="6.19812">
        <ele>819.518</ele>
        <time>2020-05-20T14:51:05Z</time>
      </trkpt>
      <trkpt lat="46.03154" lon="6.19807">
        <ele>819.265</ele>
        <time>2020-05-20T14:51:06Z</time>
      </trkpt>
      <trkpt lat="46.03147" lon="6.19799">
        <ele>818.84</ele>
        <time>2020-05-20T14:51:07Z</time>
      </trkpt>
      <trkpt lat="46.03137" lon="6.19786">
        <ele>818.324</ele>
        <time>2020-05-20T14:51:08Z</time>
      </trkpt>
      <trkpt lat="46.0313" lon="6.19779">
        <ele>817.887</ele>
        <time>2020-05-20T14:51:09Z</time>
      </trkpt>
      <trkpt lat="46.03124" lon="6.19773">
        <ele>817.357</ele>
        <time>2020-05-20T14:51:10Z</time>
      </trkpt>
      <trkpt lat="46.03119" lon="6.19767">
        <ele>817.393</ele>
        <time>2020-05-20T14:51:11Z</time>
      </trkpt>
      <trkpt lat="46.03113" lon="6.19759">
        <ele>816.843</ele>
        <time>2020-05-20T14:51:12Z</time>
      </trkpt>
      <trkpt lat="46.03106" lon="6.19752">
        <ele>816.364</ele>
        <time>2020-05-20T14:51:13Z</time>
      </trkpt>
      <trkpt lat="46.03101" lon="6.19744">
        <ele>815.71</ele>
        <time>2020-05-20T14:51:14Z</time>
      </trkpt>
      <trkpt lat="46.03096" lon="6.19743">
        <ele>815.108</ele>
        <time>2020-05-20T14:51:15Z</time>
      </trkpt>
      <trkpt lat="46.03088" lon="6.19752">
        <ele>813.898</ele>
        <time>2020-05-20T14:51:17Z</time>
      </trkpt>
      <trkpt lat="46.03087" lon="6.19762">
        <ele>813.123</ele>
        <time>2020-05-20T14:51:18Z</time>
      </trkpt>
      <trkpt lat="46.03087" lon="6.19772">
        <ele>812.46</ele>
        <time>2020-05-20T14:51:19Z</time>
      </trkpt>
      <trkpt lat="46.03086" lon="6.19783">
        <ele>811.785</ele>
        <time>2020-05-20T14:51:20Z</time>
      </trkpt>
      <trkpt lat="46.03084" lon="6.1979">
        <ele>810.069</ele>
        <time>2020-05-20T14:51:22Z</time>
      </trkpt>
      <trkpt lat="46.03083" lon="6.198">
        <ele>807.672</ele>
        <time>2020-05-20T14:51:25Z</time>
      </trkpt>
      <trkpt lat="46.03081" lon="6.19813">
        <ele>806.882</ele>
        <time>2020-05-20T14:51:27Z</time>
      </trkpt>
      <trkpt lat="46.0308" lon="6.19821">
        <ele>806.618</ele>
        <time>2020-05-20T14:51:28Z</time>
      </trkpt>
      <trkpt lat="46.03079" lon="6.19831">
        <ele>806.362</ele>
        <time>2020-05-20T14:51:29Z</time>
      </trkpt>
      <trkpt lat="46.03077" lon="6.19841">
        <ele>806.083</ele>
        <time>2020-05-20T14:51:30Z</time>
      </trkpt>
      <trkpt lat="46.03075" lon="6.19851">
        <ele>805.611</ele>
        <time>2020-05-20T14:51:31Z</time>
      </trkpt>
      <trkpt lat="46.03072" lon="6.19861">
        <ele>805.108</ele>
        <time>2020-05-20T14:51:32Z</time>
      </trkpt>
      <trkpt lat="46.03071" lon="6.19869">
        <ele>804.77</ele>
        <time>2020-05-20T14:51:33Z</time>
      </trkpt>
      <trkpt lat="46.03069" lon="6.19879">
        <ele>804.325</ele>
        <time>2020-05-20T14:51:34Z</time>
      </trkpt>
      <trkpt lat="46.03067" lon="6.19889">
        <ele>803.912</ele>
        <time>2020-05-20T14:51:35Z</time>
      </trkpt>
      <trkpt lat="46.03066" lon="6.19896">
        <ele>803.477</ele>
        <time>2020-05-20T14:51:36Z</time>
      </trkpt>
      <trkpt lat="46.03066" lon="6.19903">
        <ele>802.971</ele>
        <time>2020-05-20T14:51:37Z</time>
      </trkpt>
      <trkpt lat="46.03065" lon="6.19911">
        <ele>802.374</ele>
        <time>2020-05-20T14:51:38Z</time>
      </trkpt>
      <trkpt lat="46.03061" lon="6.19922">
        <ele>800.644</ele>
        <time>2020-05-20T14:51:40Z</time>
      </trkpt>
      <trkpt lat="46.03053" lon="6.19932">
        <ele>798.82</ele>
        <time>2020-05-20T14:51:42Z</time>
      </trkpt>
      <trkpt lat="46.03045" lon="6.19941">
        <ele>797.171</ele>
        <time>2020-05-20T14:51:44Z</time>
      </trkpt>
      <trkpt lat="46.03039" lon="6.19945">
        <ele>796.341</ele>
        <time>2020-05-20T14:51:45Z</time>
      </trkpt>
      <trkpt lat="46.03033" lon="6.19946">
        <ele>795.515</ele>
        <time>2020-05-20T14:51:46Z</time>
      </trkpt>
      <trkpt lat="46.03025" lon="6.19949">
        <ele>794.708</ele>
        <time>2020-05-20T14:51:47Z</time>
      </trkpt>
      <trkpt lat="46.03017" lon="6.19953">
        <ele>794.021</ele>
        <time>2020-05-20T14:51:48Z</time>
      </trkpt>
      <trkpt lat="46.03011" lon="6.19954">
        <ele>793.376</ele>
        <time>2020-05-20T14:51:49Z</time>
      </trkpt>
      <trkpt lat="46.03004" lon="6.19953">
        <ele>792.713</ele>
        <time>2020-05-20T14:51:50Z</time>
      </trkpt>
      <trkpt lat="46.02997" lon="6.19955">
        <ele>792.228</ele>
        <time>2020-05-20T14:51:51Z</time>
      </trkpt>
      <trkpt lat="46.02989" lon="6.19955">
        <ele>791.792</ele>
        <time>2020-05-20T14:51:52Z</time>
      </trkpt>
      <trkpt lat="46.02981" lon="6.19955">
        <ele>791.325</ele>
        <time>2020-05-20T14:51:53Z</time>
      </trkpt>
      <trkpt lat="46.02975" lon="6.19956">
        <ele>790.855</ele>
        <time>2020-05-20T14:51:54Z</time>
      </trkpt>
      <trkpt lat="46.02966" lon="6.19959">
        <ele>790.371</ele>
        <time>2020-05-20T14:51:55Z</time>
      </trkpt>
      <trkpt lat="46.02957" lon="6.19961">
        <ele>789.847</ele>
        <time>2020-05-20T14:51:56Z</time>
      </trkpt>
      <trkpt lat="46.02948" lon="6.19961">
        <ele>789.329</ele>
        <time>2020-05-20T14:51:57Z</time>
      </trkpt>
      <trkpt lat="46.02938" lon="6.19962">
        <ele>788.721</ele>
        <time>2020-05-20T14:51:58Z</time>
      </trkpt>
      <trkpt lat="46.02928" lon="6.19963">
        <ele>788.108</ele>
        <time>2020-05-20T14:51:59Z</time>
      </trkpt>
      <trkpt lat="46.02917" lon="6.19965">
        <ele>787.648</ele>
        <time>2020-05-20T14:52:00Z</time>
      </trkpt>
      <trkpt lat="46.02908" lon="6.19967">
        <ele>787.283</ele>
        <time>2020-05-20T14:52:01Z</time>
      </trkpt>
      <trkpt lat="46.02899" lon="6.19968">
        <ele>786.74</ele>
        <time>2020-05-20T14:52:02Z</time>
      </trkpt>
      <trkpt lat="46.02888" lon="6.19969">
        <ele>786.275</ele>
        <time>2020-05-20T14:52:03Z</time>
      </trkpt>
      <trkpt lat="46.02873" lon="6.1997">
        <ele>785.799</ele>
        <time>2020-05-20T14:52:04Z</time>
      </trkpt>
      <trkpt lat="46.02861" lon="6.19971">
        <ele>785.132</ele>
        <time>2020-05-20T14:52:05Z</time>
      </trkpt>
      <trkpt lat="46.02848" lon="6.19971">
        <ele>784.722</ele>
        <time>2020-05-20T14:52:06Z</time>
      </trkpt>
      <trkpt lat="46.02838" lon="6.19973">
        <ele>784.298</ele>
        <time>2020-05-20T14:52:07Z</time>
      </trkpt>
      <trkpt lat="46.02829" lon="6.19975">
        <ele>783.973</ele>
        <time>2020-05-20T14:52:08Z</time>
      </trkpt>
      <trkpt lat="46.02818" lon="6.19971">
        <ele>783.585</ele>
        <time>2020-05-20T14:52:09Z</time>
      </trkpt>
      <trkpt lat="46.02809" lon="6.19969">
        <ele>783.313</ele>
        <time>2020-05-20T14:52:10Z</time>
      </trkpt>
      <trkpt lat="46.02801" lon="6.19968">
        <ele>782.908</ele>
        <time>2020-05-20T14:52:11Z</time>
      </trkpt>
      <trkpt lat="46.02792" lon="6.19967">
        <ele>782.761</ele>
        <time>2020-05-20T14:52:12Z</time>
      </trkpt>
      <trkpt lat="46.02785" lon="6.19967">
        <ele>782.696</ele>
        <time>2020-05-20T14:52:13Z</time>
      </trkpt>
      <trkpt lat="46.02779" lon="6.19967">
        <ele>782.443</ele>
        <time>2020-05-20T14:52:14Z</time>
      </trkpt>
      <trkpt lat="46.02774" lon="6.19967">
        <ele>782.478</ele>
        <time>2020-05-20T14:52:15Z</time>
      </trkpt>
      <trkpt lat="46.02762" lon="6.19966">
        <ele>782.182</ele>
        <time>2020-05-20T14:52:17Z</time>
      </trkpt>
      <trkpt lat="46.02756" lon="6.19967">
        <ele>781.925</ele>
        <time>2020-05-20T14:52:18Z</time>
      </trkpt>
      <trkpt lat="46.0275" lon="6.19969">
        <ele>781.715</ele>
        <time>2020-05-20T14:52:19Z</time>
      </trkpt>
      <trkpt lat="46.02745" lon="6.19971">
        <ele>781.441</ele>
        <time>2020-05-20T14:52:20Z</time>
      </trkpt>
      <trkpt lat="46.02739" lon="6.19974">
        <ele>781.114</ele>
        <time>2020-05-20T14:52:22Z</time>
      </trkpt>
      <trkpt lat="46.02731" lon="6.19977">
        <ele>780.254</ele>
        <time>2020-05-20T14:53:36Z</time>
      </trkpt>
      <trkpt lat="46.02725" lon="6.19979">
        <ele>780.209</ele>
        <time>2020-05-20T14:53:37Z</time>
      </trkpt>
      <trkpt lat="46.02718" lon="6.19982">
        <ele>780.308</ele>
        <time>2020-05-20T14:53:38Z</time>
      </trkpt>
      <trkpt lat="46.02712" lon="6.19987">
        <ele>780.375</ele>
        <time>2020-05-20T14:53:39Z</time>
      </trkpt>
      <trkpt lat="46.02703" lon="6.19993">
        <ele>780.38</ele>
        <time>2020-05-20T14:53:40Z</time>
      </trkpt>
      <trkpt lat="46.02699" lon="6.19996">
        <ele>780.287</ele>
        <time>2020-05-20T14:53:41Z</time>
      </trkpt>
      <trkpt lat="46.02693" lon="6.19999">
        <ele>780.192</ele>
        <time>2020-05-20T14:53:42Z</time>
      </trkpt>
      <trkpt lat="46.02687" lon="6.20003">
        <ele>779.846</ele>
        <time>2020-05-20T14:53:43Z</time>
      </trkpt>
      <trkpt lat="46.02679" lon="6.20004">
        <ele>779.449</ele>
        <time>2020-05-20T14:53:44Z</time>
      </trkpt>
      <trkpt lat="46.02672" lon="6.20005">
        <ele>778.999</ele>
        <time>2020-05-20T14:53:45Z</time>
      </trkpt>
      <trkpt lat="46.02665" lon="6.20006">
        <ele>778.345</ele>
        <time>2020-05-20T14:53:46Z</time>
      </trkpt>
      <trkpt lat="46.02657" lon="6.20009">
        <ele>777.666</ele>
        <time>2020-05-20T14:53:47Z</time>
      </trkpt>
      <trkpt lat="46.02646" lon="6.20008">
        <ele>776.929</ele>
        <time>2020-05-20T14:53:48Z</time>
      </trkpt>
      <trkpt lat="46.02636" lon="6.20006">
        <ele>776.121</ele>
        <time>2020-05-20T14:53:49Z</time>
      </trkpt>
      <trkpt lat="46.02626" lon="6.20003">
        <ele>775.208</ele>
        <time>2020-05-20T14:53:50Z</time>
      </trkpt>
      <trkpt lat="46.02616" lon="6.20002">
        <ele>774.36</ele>
        <time>2020-05-20T14:53:51Z</time>
      </trkpt>
      <trkpt lat="46.02607" lon="6.19999">
        <ele>773.375</ele>
        <time>2020-05-20T14:53:52Z</time>
      </trkpt>
      <trkpt lat="46.02597" lon="6.19997">
        <ele>772.482</ele>
        <time>2020-05-20T14:53:53Z</time>
      </trkpt>
      <trkpt lat="46.02587" lon="6.19993">
        <ele>771.647</ele>
        <time>2020-05-20T14:53:54Z</time>
      </trkpt>
      <trkpt lat="46.02579" lon="6.19988">
        <ele>770.951</ele>
        <time>2020-05-20T14:53:55Z</time>
      </trkpt>
      <trkpt lat="46.0257" lon="6.19984">
        <ele>770.294</ele>
        <time>2020-05-20T14:53:56Z</time>
      </trkpt>
      <trkpt lat="46.02562" lon="6.19979">
        <ele>769.624</ele>
        <time>2020-05-20T14:53:57Z</time>
      </trkpt>
      <trkpt lat="46.02554" lon="6.19976">
        <ele>769.14</ele>
        <time>2020-05-20T14:53:58Z</time>
      </trkpt>
      <trkpt lat="46.02546" lon="6.19973">
        <ele>768.527</ele>
        <time>2020-05-20T14:53:59Z</time>
      </trkpt>
      <trkpt lat="46.02537" lon="6.19971">
        <ele>767.968</ele>
        <time>2020-05-20T14:54:00Z</time>
      </trkpt>
      <trkpt lat="46.02528" lon="6.19969">
        <ele>767.314</ele>
        <time>2020-05-20T14:54:01Z</time>
      </trkpt>
      <trkpt lat="46.02522" lon="6.19966">
        <ele>766.708</ele>
        <time>2020-05-20T14:54:02Z</time>
      </trkpt>
      <trkpt lat="46.02516" lon="6.19962">
        <ele>766.186</ele>
        <time>2020-05-20T14:54:03Z</time>
      </trkpt>
      <trkpt lat="46.02509" lon="6.1996">
        <ele>765.561</ele>
        <time>2020-05-20T14:54:04Z</time>
      </trkpt>
      <trkpt lat="46.02502" lon="6.19959">
        <ele>764.948</ele>
        <time>2020-05-20T14:54:05Z</time>
      </trkpt>
      <trkpt lat="46.02495" lon="6.19955">
        <ele>764.473</ele>
        <time>2020-05-20T14:54:06Z</time>
      </trkpt>
      <trkpt lat="46.02489" lon="6.1995">
        <ele>763.887</ele>
        <time>2020-05-20T14:54:07Z</time>
      </trkpt>
      <trkpt lat="46.02484" lon="6.19946">
        <ele>763.29</ele>
        <time>2020-05-20T14:54:08Z</time>
      </trkpt>
      <trkpt lat="46.02476" lon="6.19942">
        <ele>762.61</ele>
        <time>2020-05-20T14:54:09Z</time>
      </trkpt>
      <trkpt lat="46.0247" lon="6.19937">
        <ele>762.186</ele>
        <time>2020-05-20T14:54:10Z</time>
      </trkpt>
      <trkpt lat="46.02464" lon="6.19932">
        <ele>761.739</ele>
        <time>2020-05-20T14:54:11Z</time>
      </trkpt>
      <trkpt lat="46.02458" lon="6.19927">
        <ele>761.301</ele>
        <time>2020-05-20T14:54:12Z</time>
      </trkpt>
      <trkpt lat="46.02454" lon="6.19922">
        <ele>761.021</ele>
        <time>2020-05-20T14:54:13Z</time>
      </trkpt>
      <trkpt lat="46.02448" lon="6.19916">
        <ele>760.808</ele>
        <time>2020-05-20T14:54:14Z</time>
      </trkpt>
      <trkpt lat="46.02443" lon="6.1991">
        <ele>760.547</ele>
        <time>2020-05-20T14:54:15Z</time>
      </trkpt>
      <trkpt lat="46.02438" lon="6.19903">
        <ele>760.252</ele>
        <time>2020-05-20T14:54:16Z</time>
      </trkpt>
      <trkpt lat="46.02433" lon="6.19898">
        <ele>760.019</ele>
        <time>2020-05-20T14:54:17Z</time>
      </trkpt>
      <trkpt lat="46.02429" lon="6.19893">
        <ele>759.794</ele>
        <time>2020-05-20T14:54:18Z</time>
      </trkpt>
      <trkpt lat="46.02424" lon="6.19888">
        <ele>759.548</ele>
        <time>2020-05-20T14:54:19Z</time>
      </trkpt>
      <trkpt lat="46.02418" lon="6.19883">
        <ele>759.351</ele>
        <time>2020-05-20T14:54:20Z</time>
      </trkpt>
      <trkpt lat="46.02413" lon="6.19875">
        <ele>759.331</ele>
        <time>2020-05-20T14:54:21Z</time>
      </trkpt>
      <trkpt lat="46.02405" lon="6.19867">
        <ele>759.217</ele>
        <time>2020-05-20T14:54:22Z</time>
      </trkpt>
      <trkpt lat="46.02397" lon="6.19858">
        <ele>759.217</ele>
        <time>2020-05-20T14:54:23Z</time>
      </trkpt>
      <trkpt lat="46.02388" lon="6.19848">
        <ele>759.187</ele>
        <time>2020-05-20T14:54:24Z</time>
      </trkpt>
      <trkpt lat="46.02377" lon="6.19837">
        <ele>759.015</ele>
        <time>2020-05-20T14:54:25Z</time>
      </trkpt>
      <trkpt lat="46.02366" lon="6.19824">
        <ele>758.808</ele>
        <time>2020-05-20T14:54:26Z</time>
      </trkpt>
      <trkpt lat="46.02358" lon="6.19812">
        <ele>758.675</ele>
        <time>2020-05-20T14:54:27Z</time>
      </trkpt>
      <trkpt lat="46.02348" lon="6.19801">
        <ele>758.37</ele>
        <time>2020-05-20T14:54:28Z</time>
      </trkpt>
      <trkpt lat="46.0234" lon="6.1979">
        <ele>757.947</ele>
        <time>2020-05-20T14:54:29Z</time>
      </trkpt>
      <trkpt lat="46.02333" lon="6.19779">
        <ele>757.522</ele>
        <time>2020-05-20T14:54:30Z</time>
      </trkpt>
      <trkpt lat="46.02328" lon="6.19767">
        <ele>757.136</ele>
        <time>2020-05-20T14:54:31Z</time>
      </trkpt>
      <trkpt lat="46.02323" lon="6.19758">
        <ele>756.439</ele>
        <time>2020-05-20T14:54:32Z</time>
      </trkpt>
      <trkpt lat="46.0232" lon="6.19752">
        <ele>755.629</ele>
        <time>2020-05-20T14:54:33Z</time>
      </trkpt>
      <trkpt lat="46.02316" lon="6.19745">
        <ele>753.455</ele>
        <time>2020-05-20T14:54:35Z</time>
      </trkpt>
      <trkpt lat="46.02312" lon="6.19741">
        <ele>752.312</ele>
        <time>2020-05-20T14:54:36Z</time>
      </trkpt>
      <trkpt lat="46.02307" lon="6.19739">
        <ele>751.432</ele>
        <time>2020-05-20T14:54:37Z</time>
      </trkpt>
      <trkpt lat="46.02301" lon="6.19736">
        <ele>750.705</ele>
        <time>2020-05-20T14:54:38Z</time>
      </trkpt>
      <trkpt lat="46.02293" lon="6.19734">
        <ele>750.308</ele>
        <time>2020-05-20T14:54:39Z</time>
      </trkpt>
      <trkpt lat="46.02284" lon="6.19732">
        <ele>750.165</ele>
        <time>2020-05-20T14:54:40Z</time>
      </trkpt>
      <trkpt lat="46.02273" lon="6.19732">
        <ele>749.94</ele>
        <time>2020-05-20T14:54:41Z</time>
      </trkpt>
      <trkpt lat="46.0226" lon="6.19735">
        <ele>749.657</ele>
        <time>2020-05-20T14:54:42Z</time>
      </trkpt>
      <trkpt lat="46.02247" lon="6.19741">
        <ele>749.312</ele>
        <time>2020-05-20T14:54:43Z</time>
      </trkpt>
      <trkpt lat="46.02233" lon="6.1975">
        <ele>749.066</ele>
        <time>2020-05-20T14:54:44Z</time>
      </trkpt>
      <trkpt lat="46.02221" lon="6.19757">
        <ele>748.959</ele>
        <time>2020-05-20T14:54:45Z</time>
      </trkpt>
      <trkpt lat="46.02209" lon="6.19763">
        <ele>748.699</ele>
        <time>2020-05-20T14:54:46Z</time>
      </trkpt>
      <trkpt lat="46.02196" lon="6.19769">
        <ele>748.195</ele>
        <time>2020-05-20T14:54:47Z</time>
      </trkpt>
      <trkpt lat="46.02185" lon="6.19776">
        <ele>747.831</ele>
        <time>2020-05-20T14:54:48Z</time>
      </trkpt>
      <trkpt lat="46.02173" lon="6.19781">
        <ele>747.361</ele>
        <time>2020-05-20T14:54:49Z</time>
      </trkpt>
      <trkpt lat="46.0216" lon="6.19783">
        <ele>746.307</ele>
        <time>2020-05-20T14:54:50Z</time>
      </trkpt>
      <trkpt lat="46.02147" lon="6.19784">
        <ele>745.208</ele>
        <time>2020-05-20T14:54:51Z</time>
      </trkpt>
      <trkpt lat="46.02134" lon="6.19781">
        <ele>744.197</ele>
        <time>2020-05-20T14:54:52Z</time>
      </trkpt>
      <trkpt lat="46.0212" lon="6.19777">
        <ele>742.712</ele>
        <time>2020-05-20T14:54:53Z</time>
      </trkpt>
      <trkpt lat="46.02106" lon="6.19771">
        <ele>741.069</ele>
        <time>2020-05-20T14:54:54Z</time>
      </trkpt>
      <trkpt lat="46.02093" lon="6.19764">
        <ele>739.764</ele>
        <time>2020-05-20T14:54:55Z</time>
      </trkpt>
      <trkpt lat="46.0208" lon="6.19758">
        <ele>738.388</ele>
        <time>2020-05-20T14:54:56Z</time>
      </trkpt>
      <trkpt lat="46.02067" lon="6.19752">
        <ele>737.111</ele>
        <time>2020-05-20T14:54:57Z</time>
      </trkpt>
      <trkpt lat="46.02054" lon="6.19745">
        <ele>736.061</ele>
        <time>2020-05-20T14:54:58Z</time>
      </trkpt>
      <trkpt lat="46.02041" lon="6.1974">
        <ele>735.097</ele>
        <time>2020-05-20T14:54:59Z</time>
      </trkpt>
      <trkpt lat="46.02027" lon="6.19734">
        <ele>733.974</ele>
        <time>2020-05-20T14:55:00Z</time>
      </trkpt>
      <trkpt lat="46.02014" lon="6.19729">
        <ele>732.856</ele>
        <time>2020-05-20T14:55:01Z</time>
      </trkpt>
      <trkpt lat="46.02001" lon="6.19723">
        <ele>731.921</ele>
        <time>2020-05-20T14:55:02Z</time>
      </trkpt>
      <trkpt lat="46.01988" lon="6.19718">
        <ele>730.908</ele>
        <time>2020-05-20T14:55:03Z</time>
      </trkpt>
      <trkpt lat="46.01977" lon="6.19713">
        <ele>729.921</ele>
        <time>2020-05-20T14:55:04Z</time>
      </trkpt>
      <trkpt lat="46.01967" lon="6.19708">
        <ele>729.136</ele>
        <time>2020-05-20T14:55:05Z</time>
      </trkpt>
      <trkpt lat="46.01956" lon="6.197">
        <ele>728.363</ele>
        <time>2020-05-20T14:55:06Z</time>
      </trkpt>
      <trkpt lat="46.01947" lon="6.19689">
        <ele>727.298</ele>
        <time>2020-05-20T14:55:07Z</time>
      </trkpt>
      <trkpt lat="46.0194" lon="6.19675">
        <ele>726.232</ele>
        <time>2020-05-20T14:55:08Z</time>
      </trkpt>
      <trkpt lat="46.01936" lon="6.1966">
        <ele>725.345</ele>
        <time>2020-05-20T14:55:09Z</time>
      </trkpt>
      <trkpt lat="46.01933" lon="6.19642">
        <ele>724.345</ele>
        <time>2020-05-20T14:55:10Z</time>
      </trkpt>
      <trkpt lat="46.01931" lon="6.19625">
        <ele>723.351</ele>
        <time>2020-05-20T14:55:11Z</time>
      </trkpt>
      <trkpt lat="46.01928" lon="6.19607">
        <ele>722.345</ele>
        <time>2020-05-20T14:55:12Z</time>
      </trkpt>
      <trkpt lat="46.01925" lon="6.19589">
        <ele>721.347</ele>
        <time>2020-05-20T14:55:13Z</time>
      </trkpt>
      <trkpt lat="46.01922" lon="6.19572">
        <ele>720.311</ele>
        <time>2020-05-20T14:55:14Z</time>
      </trkpt>
      <trkpt lat="46.0192" lon="6.19555">
        <ele>719.108</ele>
        <time>2020-05-20T14:55:15Z</time>
      </trkpt>
      <trkpt lat="46.01918" lon="6.19541">
        <ele>718.088</ele>
        <time>2020-05-20T14:55:16Z</time>
      </trkpt>
      <trkpt lat="46.01914" lon="6.19527">
        <ele>716.933</ele>
        <time>2020-05-20T14:55:17Z</time>
      </trkpt>
      <trkpt lat="46.01908" lon="6.19516">
        <ele>715.71</ele>
        <time>2020-05-20T14:55:18Z</time>
      </trkpt>
      <trkpt lat="46.019" lon="6.19509">
        <ele>714.485</ele>
        <time>2020-05-20T14:55:19Z</time>
      </trkpt>
      <trkpt lat="46.01891" lon="6.19506">
        <ele>713.029</ele>
        <time>2020-05-20T14:55:20Z</time>
      </trkpt>
      <trkpt lat="46.01881" lon="6.19509">
        <ele>711.762</ele>
        <time>2020-05-20T14:55:21Z</time>
      </trkpt>
      <trkpt lat="46.01872" lon="6.19515">
        <ele>710.442</ele>
        <time>2020-05-20T14:55:22Z</time>
      </trkpt>
      <trkpt lat="46.01867" lon="6.19526">
        <ele>709.338</ele>
        <time>2020-05-20T14:55:23Z</time>
      </trkpt>
      <trkpt lat="46.01864" lon="6.1954">
        <ele>708.313</ele>
        <time>2020-05-20T14:55:24Z</time>
      </trkpt>
      <trkpt lat="46.01862" lon="6.19554">
        <ele>707.243</ele>
        <time>2020-05-20T14:55:25Z</time>
      </trkpt>
      <trkpt lat="46.0186" lon="6.19569">
        <ele>706.107</ele>
        <time>2020-05-20T14:55:26Z</time>
      </trkpt>
      <trkpt lat="46.01859" lon="6.19583">
        <ele>705.108</ele>
        <time>2020-05-20T14:55:27Z</time>
      </trkpt>
      <trkpt lat="46.01856" lon="6.19594">
        <ele>704.045</ele>
        <time>2020-05-20T14:55:28Z</time>
      </trkpt>
      <trkpt lat="46.01853" lon="6.19599">
        <ele>703.01</ele>
        <time>2020-05-20T14:55:29Z</time>
      </trkpt>
      <trkpt lat="46.01848" lon="6.19602">
        <ele>700.237</ele>
        <time>2020-05-20T14:55:32Z</time>
      </trkpt>
      <trkpt lat="46.01838" lon="6.19602">
        <ele>699.292</ele>
        <time>2020-05-20T14:55:34Z</time>
      </trkpt>
      <trkpt lat="46.01832" lon="6.19599">
        <ele>699.026</ele>
        <time>2020-05-20T14:55:35Z</time>
      </trkpt>
      <trkpt lat="46.01823" lon="6.19596">
        <ele>699.019</ele>
        <time>2020-05-20T14:55:36Z</time>
      </trkpt>
      <trkpt lat="46.01812" lon="6.19594">
        <ele>699.079</ele>
        <time>2020-05-20T14:55:37Z</time>
      </trkpt>
      <trkpt lat="46.01801" lon="6.19592">
        <ele>698.985</ele>
        <time>2020-05-20T14:55:38Z</time>
      </trkpt>
      <trkpt lat="46.01787" lon="6.19588">
        <ele>698.674</ele>
        <time>2020-05-20T14:55:39Z</time>
      </trkpt>
      <trkpt lat="46.01773" lon="6.19582">
        <ele>698.356</ele>
        <time>2020-05-20T14:55:40Z</time>
      </trkpt>
      <trkpt lat="46.01759" lon="6.19576">
        <ele>697.621</ele>
        <time>2020-05-20T14:55:41Z</time>
      </trkpt>
      <trkpt lat="46.01744" lon="6.1957">
        <ele>696.808</ele>
        <time>2020-05-20T14:55:42Z</time>
      </trkpt>
      <trkpt lat="46.0173" lon="6.19564">
        <ele>695.691</ele>
        <time>2020-05-20T14:55:43Z</time>
      </trkpt>
      <trkpt lat="46.01715" lon="6.19559">
        <ele>694.386</ele>
        <time>2020-05-20T14:55:44Z</time>
      </trkpt>
      <trkpt lat="46.01699" lon="6.19552">
        <ele>692.943</ele>
        <time>2020-05-20T14:55:45Z</time>
      </trkpt>
      <trkpt lat="46.01686" lon="6.19542">
        <ele>691.878</ele>
        <time>2020-05-20T14:55:46Z</time>
      </trkpt>
      <trkpt lat="46.01672" lon="6.19531">
        <ele>690.622</ele>
        <time>2020-05-20T14:55:47Z</time>
      </trkpt>
      <trkpt lat="46.01662" lon="6.1952">
        <ele>689.725</ele>
        <time>2020-05-20T14:55:48Z</time>
      </trkpt>
      <trkpt lat="46.01653" lon="6.19505">
        <ele>688.945</ele>
        <time>2020-05-20T14:55:49Z</time>
      </trkpt>
      <trkpt lat="46.01647" lon="6.19488">
        <ele>688.061</ele>
        <time>2020-05-20T14:55:50Z</time>
      </trkpt>
      <trkpt lat="46.01643" lon="6.19467">
        <ele>687.293</ele>
        <time>2020-05-20T14:55:51Z</time>
      </trkpt>
      <trkpt lat="46.01641" lon="6.19446">
        <ele>686.665</ele>
        <time>2020-05-20T14:55:52Z</time>
      </trkpt>
      <trkpt lat="46.01641" lon="6.19425">
        <ele>686.021</ele>
        <time>2020-05-20T14:55:53Z</time>
      </trkpt>
      <trkpt lat="46.01643" lon="6.19405">
        <ele>685.308</ele>
        <time>2020-05-20T14:55:54Z</time>
      </trkpt>
      <trkpt lat="46.01649" lon="6.19386">
        <ele>684.593</ele>
        <time>2020-05-20T14:55:55Z</time>
      </trkpt>
      <trkpt lat="46.01656" lon="6.19369">
        <ele>683.718</ele>
        <time>2020-05-20T14:55:56Z</time>
      </trkpt>
      <trkpt lat="46.01666" lon="6.19355">
        <ele>682.915</ele>
        <time>2020-05-20T14:55:57Z</time>
      </trkpt>
      <trkpt lat="46.01677" lon="6.19341">
        <ele>682.17</ele>
        <time>2020-05-20T14:55:58Z</time>
      </trkpt>
      <trkpt lat="46.01691" lon="6.19333">
        <ele>681.254</ele>
        <time>2020-05-20T14:55:59Z</time>
      </trkpt>
      <trkpt lat="46.01703" lon="6.19326">
        <ele>680.497</ele>
        <time>2020-05-20T14:56:00Z</time>
      </trkpt>
      <trkpt lat="46.01716" lon="6.19322">
        <ele>679.597</ele>
        <time>2020-05-20T14:56:01Z</time>
      </trkpt>
      <trkpt lat="46.0173" lon="6.19322">
        <ele>678.663</ele>
        <time>2020-05-20T14:56:02Z</time>
      </trkpt>
      <trkpt lat="46.01744" lon="6.19327">
        <ele>677.876</ele>
        <time>2020-05-20T14:56:03Z</time>
      </trkpt>
      <trkpt lat="46.01759" lon="6.19332">
        <ele>677.29</ele>
        <time>2020-05-20T14:56:04Z</time>
      </trkpt>
      <trkpt lat="46.01773" lon="6.19336">
        <ele>676.619</ele>
        <time>2020-05-20T14:56:05Z</time>
      </trkpt>
      <trkpt lat="46.01787" lon="6.19339">
        <ele>676.308</ele>
        <time>2020-05-20T14:56:06Z</time>
      </trkpt>
      <trkpt lat="46.018" lon="6.19339">
        <ele>675.821</ele>
        <time>2020-05-20T14:56:07Z</time>
      </trkpt>
      <trkpt lat="46.01813" lon="6.19335">
        <ele>675.326</ele>
        <time>2020-05-20T14:56:08Z</time>
      </trkpt>
      <trkpt lat="46.01825" lon="6.19327">
        <ele>674.833</ele>
        <time>2020-05-20T14:56:09Z</time>
      </trkpt>
      <trkpt lat="46.01835" lon="6.19316">
        <ele>674.448</ele>
        <time>2020-05-20T14:56:10Z</time>
      </trkpt>
      <trkpt lat="46.01845" lon="6.19301">
        <ele>673.872</ele>
        <time>2020-05-20T14:56:11Z</time>
      </trkpt>
      <trkpt lat="46.01852" lon="6.19284">
        <ele>673.255</ele>
        <time>2020-05-20T14:56:12Z</time>
      </trkpt>
      <trkpt lat="46.01856" lon="6.19265">
        <ele>672.555</ele>
        <time>2020-05-20T14:56:13Z</time>
      </trkpt>
      <trkpt lat="46.01859" lon="6.19246">
        <ele>672.071</ele>
        <time>2020-05-20T14:56:14Z</time>
      </trkpt>
      <trkpt lat="46.01857" lon="6.19228">
        <ele>671.332</ele>
        <time>2020-05-20T14:56:15Z</time>
      </trkpt>
      <trkpt lat="46.01852" lon="6.19209">
        <ele>670.692</ele>
        <time>2020-05-20T14:56:16Z</time>
      </trkpt>
      <trkpt lat="46.01844" lon="6.19192">
        <ele>670.011</ele>
        <time>2020-05-20T14:56:17Z</time>
      </trkpt>
      <trkpt lat="46.01835" lon="6.19175">
        <ele>669.608</ele>
        <time>2020-05-20T14:56:18Z</time>
      </trkpt>
      <trkpt lat="46.01827" lon="6.1916">
        <ele>669.457</ele>
        <time>2020-05-20T14:56:19Z</time>
      </trkpt>
      <trkpt lat="46.01817" lon="6.19145">
        <ele>669.422</ele>
        <time>2020-05-20T14:56:20Z</time>
      </trkpt>
      <trkpt lat="46.01807" lon="6.19133">
        <ele>669.689</ele>
        <time>2020-05-20T14:56:21Z</time>
      </trkpt>
      <trkpt lat="46.01799" lon="6.19123">
        <ele>669.834</ele>
        <time>2020-05-20T14:56:22Z</time>
      </trkpt>
      <trkpt lat="46.01792" lon="6.19115">
        <ele>670.048</ele>
        <time>2020-05-20T14:56:23Z</time>
      </trkpt>
      <trkpt lat="46.0179" lon="6.19109">
        <ele>670.221</ele>
        <time>2020-05-20T14:56:24Z</time>
      </trkpt>
      <trkpt lat="46.01793" lon="6.19101">
        <ele>670.851</ele>
        <time>2020-05-20T14:56:26Z</time>
      </trkpt>
      <trkpt lat="46.018" lon="6.19099">
        <ele>671.247</ele>
        <time>2020-05-20T14:56:27Z</time>
      </trkpt>
      <trkpt lat="46.01808" lon="6.19101">
        <ele>671.857</ele>
        <time>2020-05-20T14:56:28Z</time>
      </trkpt>
      <trkpt lat="46.01817" lon="6.19106">
        <ele>672.3</ele>
        <time>2020-05-20T14:56:29Z</time>
      </trkpt>
      <trkpt lat="46.01828" lon="6.19116">
        <ele>672.82</ele>
        <time>2020-05-20T14:56:30Z</time>
      </trkpt>
      <trkpt lat="46.01838" lon="6.19131">
        <ele>673.408</ele>
        <time>2020-05-20T14:56:31Z</time>
      </trkpt>
      <trkpt lat="46.01846" lon="6.1915">
        <ele>673.829</ele>
        <time>2020-05-20T14:56:32Z</time>
      </trkpt>
      <trkpt lat="46.01852" lon="6.19167">
        <ele>674.384</ele>
        <time>2020-05-20T14:56:33Z</time>
      </trkpt>
      <trkpt lat="46.01858" lon="6.19179">
        <ele>675.031</ele>
        <time>2020-05-20T14:56:34Z</time>
      </trkpt>
      <trkpt lat="46.01864" lon="6.19187">
        <ele>675.976</ele>
        <time>2020-05-20T14:56:35Z</time>
      </trkpt>
      <trkpt lat="46.01869" lon="6.1919">
        <ele>677.08</ele>
        <time>2020-05-20T14:56:36Z</time>
      </trkpt>
      <trkpt lat="46.01877" lon="6.19189">
        <ele>678.163</ele>
        <time>2020-05-20T14:56:37Z</time>
      </trkpt>
      <trkpt lat="46.01883" lon="6.19188">
        <ele>679.243</ele>
        <time>2020-05-20T14:56:38Z</time>
      </trkpt>
      <trkpt lat="46.01892" lon="6.1919">
        <ele>680.129</ele>
        <time>2020-05-20T14:56:39Z</time>
      </trkpt>
      <trkpt lat="46.01902" lon="6.19191">
        <ele>681.179</ele>
        <time>2020-05-20T14:56:40Z</time>
      </trkpt>
      <trkpt lat="46.01913" lon="6.19189">
        <ele>682.005</ele>
        <time>2020-05-20T14:56:41Z</time>
      </trkpt>
      <trkpt lat="46.01919" lon="6.19181">
        <ele>682.925</ele>
        <time>2020-05-20T14:56:42Z</time>
      </trkpt>
      <trkpt lat="46.01923" lon="6.19168">
        <ele>683.808</ele>
        <time>2020-05-20T14:56:43Z</time>
      </trkpt>
      <trkpt lat="46.01923" lon="6.19155">
        <ele>684.871</ele>
        <time>2020-05-20T14:56:44Z</time>
      </trkpt>
      <trkpt lat="46.01923" lon="6.19143">
        <ele>685.886</ele>
        <time>2020-05-20T14:56:45Z</time>
      </trkpt>
      <trkpt lat="46.01926" lon="6.1913">
        <ele>686.733</ele>
        <time>2020-05-20T14:56:46Z</time>
      </trkpt>
      <trkpt lat="46.0193" lon="6.19117">
        <ele>687.878</ele>
        <time>2020-05-20T14:56:47Z</time>
      </trkpt>
      <trkpt lat="46.01936" lon="6.19102">
        <ele>688.842</ele>
        <time>2020-05-20T14:56:48Z</time>
      </trkpt>
      <trkpt lat="46.01939" lon="6.19089">
        <ele>689.815</ele>
        <time>2020-05-20T14:56:49Z</time>
      </trkpt>
      <trkpt lat="46.01941" lon="6.19077">
        <ele>690.995</ele>
        <time>2020-05-20T14:56:50Z</time>
      </trkpt>
      <trkpt lat="46.0194" lon="6.19062">
        <ele>691.991</ele>
        <time>2020-05-20T14:56:51Z</time>
      </trkpt>
      <trkpt lat="46.01936" lon="6.19046">
        <ele>692.728</ele>
        <time>2020-05-20T14:56:52Z</time>
      </trkpt>
      <trkpt lat="46.01929" lon="6.19032">
        <ele>693.689</ele>
        <time>2020-05-20T14:56:53Z</time>
      </trkpt>
      <trkpt lat="46.01922" lon="6.19015">
        <ele>694.517</ele>
        <time>2020-05-20T14:56:54Z</time>
      </trkpt>
      <trkpt lat="46.01916" lon="6.18996">
        <ele>695.208</ele>
        <time>2020-05-20T14:56:55Z</time>
      </trkpt>
      <trkpt lat="46.01908" lon="6.18977">
        <ele>695.816</ele>
        <time>2020-05-20T14:56:56Z</time>
      </trkpt>
      <trkpt lat="46.01901" lon="6.18957">
        <ele>696.391</ele>
        <time>2020-05-20T14:56:57Z</time>
      </trkpt>
      <trkpt lat="46.01892" lon="6.18936">
        <ele>696.598</ele>
        <time>2020-05-20T14:56:58Z</time>
      </trkpt>
      <trkpt lat="46.01882" lon="6.18914">
        <ele>696.543</ele>
        <time>2020-05-20T14:56:59Z</time>
      </trkpt>
      <trkpt lat="46.01877" lon="6.18895">
        <ele>696.647</ele>
        <time>2020-05-20T14:57:00Z</time>
      </trkpt>
      <trkpt lat="46.01867" lon="6.18874">
        <ele>697.09</ele>
        <time>2020-05-20T14:57:01Z</time>
      </trkpt>
      <trkpt lat="46.0186" lon="6.18858">
        <ele>697.24</ele>
        <time>2020-05-20T14:57:02Z</time>
      </trkpt>
      <trkpt lat="46.01851" lon="6.1884">
        <ele>697.496</ele>
        <time>2020-05-20T14:57:03Z</time>
      </trkpt>
      <trkpt lat="46.01842" lon="6.18824">
        <ele>697.925</ele>
        <time>2020-05-20T14:57:04Z</time>
      </trkpt>
      <trkpt lat="46.01833" lon="6.1881">
        <ele>698.326</ele>
        <time>2020-05-20T14:57:05Z</time>
      </trkpt>
      <trkpt lat="46.01826" lon="6.18796">
        <ele>698.408</ele>
        <time>2020-05-20T14:57:06Z</time>
      </trkpt>
      <trkpt lat="46.01818" lon="6.18782">
        <ele>698.608</ele>
        <time>2020-05-20T14:57:07Z</time>
      </trkpt>
      <trkpt lat="46.01812" lon="6.18769">
        <ele>699.116</ele>
        <time>2020-05-20T14:57:08Z</time>
      </trkpt>
      <trkpt lat="46.01807" lon="6.18755">
        <ele>699.531</ele>
        <time>2020-05-20T14:57:09Z</time>
      </trkpt>
      <trkpt lat="46.01803" lon="6.18738">
        <ele>699.728</ele>
        <time>2020-05-20T14:57:10Z</time>
      </trkpt>
      <trkpt lat="46.018" lon="6.18721">
        <ele>700.263</ele>
        <time>2020-05-20T14:57:11Z</time>
      </trkpt>
      <trkpt lat="46.01798" lon="6.18704">
        <ele>700.877</ele>
        <time>2020-05-20T14:57:12Z</time>
      </trkpt>
      <trkpt lat="46.01796" lon="6.18687">
        <ele>701.33</ele>
        <time>2020-05-20T14:57:13Z</time>
      </trkpt>
      <trkpt lat="46.01797" lon="6.18672">
        <ele>701.92</ele>
        <time>2020-05-20T14:57:14Z</time>
      </trkpt>
      <trkpt lat="46.01801" lon="6.18659">
        <ele>702.586</ele>
        <time>2020-05-20T14:57:15Z</time>
      </trkpt>
      <trkpt lat="46.0181" lon="6.18653">
        <ele>703.232</ele>
        <time>2020-05-20T14:57:16Z</time>
      </trkpt>
      <trkpt lat="46.01819" lon="6.18649">
        <ele>703.992</ele>
        <time>2020-05-20T14:57:17Z</time>
      </trkpt>
      <trkpt lat="46.01827" lon="6.18647">
        <ele>704.811</ele>
        <time>2020-05-20T14:57:18Z</time>
      </trkpt>
      <trkpt lat="46.01836" lon="6.18646">
        <ele>706.008</ele>
        <time>2020-05-20T14:57:19Z</time>
      </trkpt>
      <trkpt lat="46.01844" lon="6.18647">
        <ele>707.597</ele>
        <time>2020-05-20T14:57:20Z</time>
      </trkpt>
      <trkpt lat="46.01852" lon="6.18645">
        <ele>708.842</ele>
        <time>2020-05-20T14:57:21Z</time>
      </trkpt>
      <trkpt lat="46.01865" lon="6.18642">
        <ele>709.899</ele>
        <time>2020-05-20T14:57:22Z</time>
      </trkpt>
      <trkpt lat="46.01879" lon="6.18638">
        <ele>710.824</ele>
        <time>2020-05-20T14:57:23Z</time>
      </trkpt>
      <trkpt lat="46.0189" lon="6.18638">
        <ele>711.988</ele>
        <time>2020-05-20T14:57:24Z</time>
      </trkpt>
      <trkpt lat="46.01901" lon="6.18638">
        <ele>712.921</ele>
        <time>2020-05-20T14:57:25Z</time>
      </trkpt>
      <trkpt lat="46.0191" lon="6.18644">
        <ele>714.121</ele>
        <time>2020-05-20T14:57:26Z</time>
      </trkpt>
      <trkpt lat="46.01919" lon="6.18653">
        <ele>715.637</ele>
        <time>2020-05-20T14:57:27Z</time>
      </trkpt>
      <trkpt lat="46.01927" lon="6.18663">
        <ele>715.698</ele>
        <time>2020-05-20T14:57:28Z</time>
      </trkpt>
      <trkpt lat="46.01937" lon="6.18675">
        <ele>716.915</ele>
        <time>2020-05-20T14:57:29Z</time>
      </trkpt>
      <trkpt lat="46.01946" lon="6.18686">
        <ele>718.026</ele>
        <time>2020-05-20T14:57:30Z</time>
      </trkpt>
      <trkpt lat="46.01956" lon="6.18697">
        <ele>719.108</ele>
        <time>2020-05-20T14:57:31Z</time>
      </trkpt>
      <trkpt lat="46.01965" lon="6.18707">
        <ele>720.193</ele>
        <time>2020-05-20T14:57:32Z</time>
      </trkpt>
      <trkpt lat="46.01975" lon="6.18717">
        <ele>721.198</ele>
        <time>2020-05-20T14:57:33Z</time>
      </trkpt>
      <trkpt lat="46.01986" lon="6.18727">
        <ele>722.055</ele>
        <time>2020-05-20T14:57:34Z</time>
      </trkpt>
      <trkpt lat="46.01997" lon="6.18736">
        <ele>723.24</ele>
        <time>2020-05-20T14:57:35Z</time>
      </trkpt>
      <trkpt lat="46.02009" lon="6.18747">
        <ele>724.264</ele>
        <time>2020-05-20T14:57:36Z</time>
      </trkpt>
      <trkpt lat="46.0202" lon="6.18756">
        <ele>725.187</ele>
        <time>2020-05-20T14:57:37Z</time>
      </trkpt>
      <trkpt lat="46.02029" lon="6.18765">
        <ele>726.167</ele>
        <time>2020-05-20T14:57:38Z</time>
      </trkpt>
      <trkpt lat="46.02036" lon="6.18771">
        <ele>727.243</ele>
        <time>2020-05-20T14:57:39Z</time>
      </trkpt>
      <trkpt lat="46.02041" lon="6.18777">
        <ele>728.283</ele>
        <time>2020-05-20T14:57:40Z</time>
      </trkpt>
      <trkpt lat="46.02047" lon="6.18781">
        <ele>729.025</ele>
        <time>2020-05-20T14:57:41Z</time>
      </trkpt>
      <trkpt lat="46.02054" lon="6.18784">
        <ele>729.917</ele>
        <time>2020-05-20T14:57:42Z</time>
      </trkpt>
      <trkpt lat="46.02063" lon="6.1879">
        <ele>730.708</ele>
        <time>2020-05-20T14:57:43Z</time>
      </trkpt>
      <trkpt lat="46.02074" lon="6.18796">
        <ele>731.532</ele>
        <time>2020-05-20T14:57:44Z</time>
      </trkpt>
      <trkpt lat="46.02086" lon="6.18801">
        <ele>732.577</ele>
        <time>2020-05-20T14:57:45Z</time>
      </trkpt>
      <trkpt lat="46.02099" lon="6.18805">
        <ele>733.744</ele>
        <time>2020-05-20T14:57:46Z</time>
      </trkpt>
      <trkpt lat="46.02112" lon="6.18809">
        <ele>735.139</ele>
        <time>2020-05-20T14:57:47Z</time>
      </trkpt>
      <trkpt lat="46.02126" lon="6.18811">
        <ele>736.443</ele>
        <time>2020-05-20T14:57:48Z</time>
      </trkpt>
      <trkpt lat="46.02142" lon="6.18813">
        <ele>737.866</ele>
        <time>2020-05-20T14:57:49Z</time>
      </trkpt>
      <trkpt lat="46.02157" lon="6.18815">
        <ele>739.326</ele>
        <time>2020-05-20T14:57:50Z</time>
      </trkpt>
      <trkpt lat="46.02171" lon="6.18816">
        <ele>741.482</ele>
        <time>2020-05-20T14:57:51Z</time>
      </trkpt>
      <trkpt lat="46.02186" lon="6.18818">
        <ele>743.361</ele>
        <time>2020-05-20T14:57:52Z</time>
      </trkpt>
      <trkpt lat="46.02201" lon="6.18819">
        <ele>745.421</ele>
        <time>2020-05-20T14:57:53Z</time>
      </trkpt>
      <trkpt lat="46.02216" lon="6.18821">
        <ele>747.713</ele>
        <time>2020-05-20T14:57:54Z</time>
      </trkpt>
      <trkpt lat="46.0223" lon="6.18822">
        <ele>749.608</ele>
        <time>2020-05-20T14:57:55Z</time>
      </trkpt>
      <trkpt lat="46.02243" lon="6.18823">
        <ele>751.33</ele>
        <time>2020-05-20T14:57:56Z</time>
      </trkpt>
      <trkpt lat="46.02256" lon="6.18822">
        <ele>752.945</ele>
        <time>2020-05-20T14:57:57Z</time>
      </trkpt>
      <trkpt lat="46.0227" lon="6.18818">
        <ele>754.412</ele>
        <time>2020-05-20T14:57:58Z</time>
      </trkpt>
      <trkpt lat="46.02284" lon="6.18814">
        <ele>756.167</ele>
        <time>2020-05-20T14:57:59Z</time>
      </trkpt>
      <trkpt lat="46.02298" lon="6.18807">
        <ele>757.891</ele>
        <time>2020-05-20T14:58:00Z</time>
      </trkpt>
      <trkpt lat="46.02312" lon="6.18802">
        <ele>759.634</ele>
        <time>2020-05-20T14:58:01Z</time>
      </trkpt>
      <trkpt lat="46.02327" lon="6.18799">
        <ele>761.544</ele>
        <time>2020-05-20T14:58:02Z</time>
      </trkpt>
      <trkpt lat="46.02341" lon="6.18797">
        <ele>763.51</ele>
        <time>2020-05-20T14:58:03Z</time>
      </trkpt>
      <trkpt lat="46.02354" lon="6.18795">
        <ele>765.566</ele>
        <time>2020-05-20T14:58:04Z</time>
      </trkpt>
      <trkpt lat="46.02365" lon="6.18792">
        <ele>767.829</ele>
        <time>2020-05-20T14:58:05Z</time>
      </trkpt>
      <trkpt lat="46.02376" lon="6.1879">
        <ele>769.821</ele>
        <time>2020-05-20T14:58:06Z</time>
      </trkpt>
      <trkpt lat="46.02385" lon="6.18787">
        <ele>771.508</ele>
        <time>2020-05-20T14:58:07Z</time>
      </trkpt>
      <trkpt lat="46.02393" lon="6.18781">
        <ele>773.22</ele>
        <time>2020-05-20T14:58:08Z</time>
      </trkpt>
      <trkpt lat="46.02402" lon="6.18771">
        <ele>774.775</ele>
        <time>2020-05-20T14:58:09Z</time>
      </trkpt>
      <trkpt lat="46.02412" lon="6.18762">
        <ele>775.912</ele>
        <time>2020-05-20T14:58:10Z</time>
      </trkpt>
      <trkpt lat="46.02421" lon="6.18751">
        <ele>777.357</ele>
        <time>2020-05-20T14:58:11Z</time>
      </trkpt>
      <trkpt lat="46.02432" lon="6.18739">
        <ele>778.951</ele>
        <time>2020-05-20T14:58:12Z</time>
      </trkpt>
      <trkpt lat="46.02442" lon="6.18728">
        <ele>780.724</ele>
        <time>2020-05-20T14:58:13Z</time>
      </trkpt>
      <trkpt lat="46.02453" lon="6.18715">
        <ele>782.364</ele>
        <time>2020-05-20T14:58:14Z</time>
      </trkpt>
      <trkpt lat="46.02464" lon="6.18702">
        <ele>783.95</ele>
        <time>2020-05-20T14:58:15Z</time>
      </trkpt>
      <trkpt lat="46.02475" lon="6.18689">
        <ele>785.343</ele>
        <time>2020-05-20T14:58:16Z</time>
      </trkpt>
      <trkpt lat="46.02486" lon="6.18677">
        <ele>787.164</ele>
        <time>2020-05-20T14:58:17Z</time>
      </trkpt>
      <trkpt lat="46.02499" lon="6.18666">
        <ele>788.81</ele>
        <time>2020-05-20T14:58:18Z</time>
      </trkpt>
      <trkpt lat="46.02513" lon="6.18659">
        <ele>790.808</ele>
        <time>2020-05-20T14:58:19Z</time>
      </trkpt>
      <trkpt lat="46.02527" lon="6.18653">
        <ele>793.088</ele>
        <time>2020-05-20T14:58:20Z</time>
      </trkpt>
      <trkpt lat="46.0254" lon="6.18648">
        <ele>795.183</ele>
        <time>2020-05-20T14:58:21Z</time>
      </trkpt>
      <trkpt lat="46.02553" lon="6.18643">
        <ele>797.01</ele>
        <time>2020-05-20T14:58:22Z</time>
      </trkpt>
      <trkpt lat="46.02563" lon="6.18641">
        <ele>798.525</ele>
        <time>2020-05-20T14:58:23Z</time>
      </trkpt>
      <trkpt lat="46.02573" lon="6.18639">
        <ele>799.629</ele>
        <time>2020-05-20T14:58:24Z</time>
      </trkpt>
      <trkpt lat="46.0258" lon="6.18636">
        <ele>800.262</ele>
        <time>2020-05-20T14:58:25Z</time>
      </trkpt>
      <trkpt lat="46.02585" lon="6.18634">
        <ele>800.732</ele>
        <time>2020-05-20T14:58:26Z</time>
      </trkpt>
      <trkpt lat="46.02589" lon="6.18628">
        <ele>801.228</ele>
        <time>2020-05-20T14:58:29Z</time>
      </trkpt>
      <trkpt lat="46.02598" lon="6.18626">
        <ele>801.448</ele>
        <time>2020-05-20T14:58:31Z</time>
      </trkpt>
      <trkpt lat="46.02604" lon="6.18627">
        <ele>801.461</ele>
        <time>2020-05-20T14:58:32Z</time>
      </trkpt>
      <trkpt lat="46.02614" lon="6.18626">
        <ele>801.517</ele>
        <time>2020-05-20T14:58:33Z</time>
      </trkpt>
      <trkpt lat="46.02624" lon="6.18627">
        <ele>801.708</ele>
        <time>2020-05-20T14:58:34Z</time>
      </trkpt>
      <trkpt lat="46.02633" lon="6.18626">
        <ele>802.088</ele>
        <time>2020-05-20T14:58:35Z</time>
      </trkpt>
      <trkpt lat="46.02641" lon="6.18625">
        <ele>802.563</ele>
        <time>2020-05-20T14:58:36Z</time>
      </trkpt>
      <trkpt lat="46.0265" lon="6.18622">
        <ele>802.94</ele>
        <time>2020-05-20T14:58:37Z</time>
      </trkpt>
      <trkpt lat="46.02659" lon="6.1862">
        <ele>803.155</ele>
        <time>2020-05-20T14:58:38Z</time>
      </trkpt>
      <trkpt lat="46.0267" lon="6.18616">
        <ele>803.449</ele>
        <time>2020-05-20T14:58:39Z</time>
      </trkpt>
      <trkpt lat="46.02681" lon="6.18609">
        <ele>803.572</ele>
        <time>2020-05-20T14:58:40Z</time>
      </trkpt>
      <trkpt lat="46.02691" lon="6.18596">
        <ele>803.622</ele>
        <time>2020-05-20T14:58:41Z</time>
      </trkpt>
      <trkpt lat="46.02703" lon="6.18581">
        <ele>803.858</ele>
        <time>2020-05-20T14:58:42Z</time>
      </trkpt>
      <trkpt lat="46.02716" lon="6.18566">
        <ele>804.142</ele>
        <time>2020-05-20T14:58:43Z</time>
      </trkpt>
      <trkpt lat="46.02729" lon="6.18551">
        <ele>804.422</ele>
        <time>2020-05-20T14:58:44Z</time>
      </trkpt>
      <trkpt lat="46.02743" lon="6.18536">
        <ele>805.214</ele>
        <time>2020-05-20T14:58:45Z</time>
      </trkpt>
      <trkpt lat="46.02755" lon="6.18522">
        <ele>805.808</ele>
        <time>2020-05-20T14:58:46Z</time>
      </trkpt>
      <trkpt lat="46.02765" lon="6.18507">
        <ele>806.568</ele>
        <time>2020-05-20T14:58:47Z</time>
      </trkpt>
      <trkpt lat="46.02773" lon="6.1849">
        <ele>806.813</ele>
        <time>2020-05-20T14:58:48Z</time>
      </trkpt>
      <trkpt lat="46.02781" lon="6.18471">
        <ele>806.86</ele>
        <time>2020-05-20T14:58:49Z</time>
      </trkpt>
      <trkpt lat="46.0279" lon="6.1845">
        <ele>806.555</ele>
        <time>2020-05-20T14:58:50Z</time>
      </trkpt>
      <trkpt lat="46.02798" lon="6.1843">
        <ele>806.079</ele>
        <time>2020-05-20T14:58:51Z</time>
      </trkpt>
      <trkpt lat="46.02807" lon="6.18415">
        <ele>805.272</ele>
        <time>2020-05-20T14:58:52Z</time>
      </trkpt>
      <trkpt lat="46.02818" lon="6.18404">
        <ele>804.382</ele>
        <time>2020-05-20T14:58:53Z</time>
      </trkpt>
      <trkpt lat="46.02828" lon="6.18395">
        <ele>803.878</ele>
        <time>2020-05-20T14:58:54Z</time>
      </trkpt>
      <trkpt lat="46.02835" lon="6.18387">
        <ele>803.472</ele>
        <time>2020-05-20T14:58:55Z</time>
      </trkpt>
      <trkpt lat="46.02846" lon="6.18388">
        <ele>803.113</ele>
        <time>2020-05-20T14:58:56Z</time>
      </trkpt>
      <trkpt lat="46.02855" lon="6.18392">
        <ele>802.614</ele>
        <time>2020-05-20T14:58:57Z</time>
      </trkpt>
      <trkpt lat="46.02863" lon="6.18395">
        <ele>802.208</ele>
        <time>2020-05-20T14:58:58Z</time>
      </trkpt>
      <trkpt lat="46.02869" lon="6.18396">
        <ele>801.681</ele>
        <time>2020-05-20T14:58:59Z</time>
      </trkpt>
      <trkpt lat="46.02874" lon="6.1839">
        <ele>799.976</ele>
        <time>2020-05-20T14:59:01Z</time>
      </trkpt>
      <trkpt lat="46.02871" lon="6.18381">
        <ele>798.923</ele>
        <time>2020-05-20T14:59:03Z</time>
      </trkpt>
      <trkpt lat="46.02867" lon="6.18376">
        <ele>798.868</ele>
        <time>2020-05-20T14:59:04Z</time>
      </trkpt>
      <trkpt lat="46.02862" lon="6.18365">
        <ele>798.692</ele>
        <time>2020-05-20T14:59:05Z</time>
      </trkpt>
      <trkpt lat="46.02856" lon="6.18353">
        <ele>798.655</ele>
        <time>2020-05-20T14:59:06Z</time>
      </trkpt>
      <trkpt lat="46.02844" lon="6.18331">
        <ele>798.895</ele>
        <time>2020-05-20T14:59:07Z</time>
      </trkpt>
      <trkpt lat="46.02834" lon="6.18312">
        <ele>799.011</ele>
        <time>2020-05-20T14:59:08Z</time>
      </trkpt>
      <trkpt lat="46.02825" lon="6.18294">
        <ele>799.438</ele>
        <time>2020-05-20T14:59:09Z</time>
      </trkpt>
      <trkpt lat="46.02819" lon="6.18279">
        <ele>800.17</ele>
        <time>2020-05-20T14:59:10Z</time>
      </trkpt>
      <trkpt lat="46.02814" lon="6.18265">
        <ele>800.917</ele>
        <time>2020-05-20T14:59:11Z</time>
      </trkpt>
      <trkpt lat="46.02809" lon="6.18253">
        <ele>801.708</ele>
        <time>2020-05-20T14:59:12Z</time>
      </trkpt>
      <trkpt lat="46.02804" lon="6.1824">
        <ele>802.427</ele>
        <time>2020-05-20T14:59:13Z</time>
      </trkpt>
      <trkpt lat="46.028" lon="6.18232">
        <ele>802.952</ele>
        <time>2020-05-20T14:59:14Z</time>
      </trkpt>
      <trkpt lat="46.02797" lon="6.18221">
        <ele>803.369</ele>
        <time>2020-05-20T14:59:15Z</time>
      </trkpt>
      <trkpt lat="46.02795" lon="6.1821">
        <ele>803.954</ele>
        <time>2020-05-20T14:59:16Z</time>
      </trkpt>
      <trkpt lat="46.02794" lon="6.18198">
        <ele>804.598</ele>
        <time>2020-05-20T14:59:17Z</time>
      </trkpt>
      <trkpt lat="46.02794" lon="6.18187">
        <ele>804.921</ele>
        <time>2020-05-20T14:59:18Z</time>
      </trkpt>
      <trkpt lat="46.02793" lon="6.18176">
        <ele>805.231</ele>
        <time>2020-05-20T14:59:19Z</time>
      </trkpt>
      <trkpt lat="46.02791" lon="6.18165">
        <ele>805.987</ele>
        <time>2020-05-20T14:59:20Z</time>
      </trkpt>
      <trkpt lat="46.02787" lon="6.18159">
        <ele>806.513</ele>
        <time>2020-05-20T14:59:21Z</time>
      </trkpt>
      <trkpt lat="46.0278" lon="6.18152">
        <ele>807.143</ele>
        <time>2020-05-20T14:59:22Z</time>
      </trkpt>
      <trkpt lat="46.02772" lon="6.18143">
        <ele>808.007</ele>
        <time>2020-05-20T14:59:23Z</time>
      </trkpt>
      <trkpt lat="46.02762" lon="6.18133">
        <ele>809.108</ele>
        <time>2020-05-20T14:59:24Z</time>
      </trkpt>
      <trkpt lat="46.02752" lon="6.18122">
        <ele>810.155</ele>
        <time>2020-05-20T14:59:25Z</time>
      </trkpt>
      <trkpt lat="46.02742" lon="6.1811">
        <ele>811.25</ele>
        <time>2020-05-20T14:59:26Z</time>
      </trkpt>
      <trkpt lat="46.02734" lon="6.18101">
        <ele>812.437</ele>
        <time>2020-05-20T14:59:27Z</time>
      </trkpt>
      <trkpt lat="46.02725" lon="6.18093">
        <ele>813.662</ele>
        <time>2020-05-20T14:59:28Z</time>
      </trkpt>
      <trkpt lat="46.02719" lon="6.18082">
        <ele>814.966</ele>
        <time>2020-05-20T14:59:29Z</time>
      </trkpt>
      <trkpt lat="46.02713" lon="6.18069">
        <ele>816.159</ele>
        <time>2020-05-20T14:59:30Z</time>
      </trkpt>
      <trkpt lat="46.02707" lon="6.1805">
        <ele>817.499</ele>
        <time>2020-05-20T14:59:31Z</time>
      </trkpt>
      <trkpt lat="46.02701" lon="6.18034">
        <ele>818.685</ele>
        <time>2020-05-20T14:59:32Z</time>
      </trkpt>
      <trkpt lat="46.02695" lon="6.18021">
        <ele>819.671</ele>
        <time>2020-05-20T14:59:33Z</time>
      </trkpt>
      <trkpt lat="46.02689" lon="6.1801">
        <ele>820.441</ele>
        <time>2020-05-20T14:59:34Z</time>
      </trkpt>
      <trkpt lat="46.02685" lon="6.18002">
        <ele>821.115</ele>
        <time>2020-05-20T14:59:35Z</time>
      </trkpt>
      <trkpt lat="46.02678" lon="6.17992">
        <ele>821.508</ele>
        <time>2020-05-20T14:59:36Z</time>
      </trkpt>
      <trkpt lat="46.02671" lon="6.17982">
        <ele>821.761</ele>
        <time>2020-05-20T14:59:37Z</time>
      </trkpt>
      <trkpt lat="46.02665" lon="6.17974">
        <ele>821.776</ele>
        <time>2020-05-20T14:59:38Z</time>
      </trkpt>
      <trkpt lat="46.02659" lon="6.17964">
        <ele>821.713</ele>
        <time>2020-05-20T14:59:39Z</time>
      </trkpt>
      <trkpt lat="46.02654" lon="6.17955">
        <ele>821.528</ele>
        <time>2020-05-20T14:59:40Z</time>
      </trkpt>
      <trkpt lat="46.02647" lon="6.17945">
        <ele>821.182</ele>
        <time>2020-05-20T14:59:41Z</time>
      </trkpt>
      <trkpt lat="46.02643" lon="6.17937">
        <ele>820.685</ele>
        <time>2020-05-20T14:59:42Z</time>
      </trkpt>
      <trkpt lat="46.02637" lon="6.17929">
        <ele>820.135</ele>
        <time>2020-05-20T14:59:43Z</time>
      </trkpt>
      <trkpt lat="46.02632" lon="6.1792">
        <ele>819.681</ele>
        <time>2020-05-20T14:59:44Z</time>
      </trkpt>
      <trkpt lat="46.02628" lon="6.17913">
        <ele>819.267</ele>
        <time>2020-05-20T14:59:45Z</time>
      </trkpt>
      <trkpt lat="46.02623" lon="6.17905">
        <ele>818.981</ele>
        <time>2020-05-20T14:59:46Z</time>
      </trkpt>
      <trkpt lat="46.02619" lon="6.17897">
        <ele>818.719</ele>
        <time>2020-05-20T14:59:47Z</time>
      </trkpt>
      <trkpt lat="46.02616" lon="6.1789">
        <ele>818.608</ele>
        <time>2020-05-20T14:59:48Z</time>
      </trkpt>
      <trkpt lat="46.02611" lon="6.17881">
        <ele>818.54</ele>
        <time>2020-05-20T14:59:49Z</time>
      </trkpt>
      <trkpt lat="46.02606" lon="6.17872">
        <ele>818.475</ele>
        <time>2020-05-20T14:59:50Z</time>
      </trkpt>
      <trkpt lat="46.02603" lon="6.17863">
        <ele>818.432</ele>
        <time>2020-05-20T14:59:51Z</time>
      </trkpt>
      <trkpt lat="46.02597" lon="6.17851">
        <ele>818.427</ele>
        <time>2020-05-20T14:59:52Z</time>
      </trkpt>
      <trkpt lat="46.02592" lon="6.17841">
        <ele>818.571</ele>
        <time>2020-05-20T14:59:53Z</time>
      </trkpt>
      <trkpt lat="46.02585" lon="6.17831">
        <ele>818.614</ele>
        <time>2020-05-20T14:59:54Z</time>
      </trkpt>
      <trkpt lat="46.02579" lon="6.17822">
        <ele>818.884</ele>
        <time>2020-05-20T14:59:55Z</time>
      </trkpt>
      <trkpt lat="46.02572" lon="6.17813">
        <ele>819.17</ele>
        <time>2020-05-20T14:59:56Z</time>
      </trkpt>
      <trkpt lat="46.02567" lon="6.17808">
        <ele>819.478</ele>
        <time>2020-05-20T14:59:57Z</time>
      </trkpt>
      <trkpt lat="46.02562" lon="6.17801">
        <ele>820.233</ele>
        <time>2020-05-20T14:59:59Z</time>
      </trkpt>
      <trkpt lat="46.02565" lon="6.1779">
        <ele>820.826</ele>
        <time>2020-05-20T15:00:02Z</time>
      </trkpt>
      <trkpt lat="46.02563" lon="6.17777">
        <ele>821.108</ele>
        <time>2020-05-20T15:00:04Z</time>
      </trkpt>
      <trkpt lat="46.0256" lon="6.1777">
        <ele>821.641</ele>
        <time>2020-05-20T15:00:05Z</time>
      </trkpt>
      <trkpt lat="46.0256" lon="6.17754">
        <ele>822.746</ele>
        <time>2020-05-20T15:00:07Z</time>
      </trkpt>
      <trkpt lat="46.02559" lon="6.17741">
        <ele>823.433</ele>
        <time>2020-05-20T15:00:08Z</time>
      </trkpt>
      <trkpt lat="46.02561" lon="6.17732">
        <ele>824.498</ele>
        <time>2020-05-20T15:00:09Z</time>
      </trkpt>
      <trkpt lat="46.0256" lon="6.17725">
        <ele>825.412</ele>
        <time>2020-05-20T15:00:10Z</time>
      </trkpt>
      <trkpt lat="46.02555" lon="6.1772">
        <ele>827.625</ele>
        <time>2020-05-20T15:00:12Z</time>
      </trkpt>
      <trkpt lat="46.02552" lon="6.17713">
        <ele>830.725</ele>
        <time>2020-05-20T15:00:16Z</time>
      </trkpt>
      <trkpt lat="46.02555" lon="6.177">
        <ele>831.421</ele>
        <time>2020-05-20T15:00:18Z</time>
      </trkpt>
      <trkpt lat="46.02554" lon="6.17694">
        <ele>831.882</ele>
        <time>2020-05-20T15:00:22Z</time>
      </trkpt>
      <trkpt lat="46.02548" lon="6.17677">
        <ele>831.843</ele>
        <time>2020-05-20T15:00:46Z</time>
      </trkpt>
      <trkpt lat="46.02548" lon="6.17669">
        <ele>831.417</ele>
        <time>2020-05-20T15:01:00Z</time>
      </trkpt>
      <trkpt lat="46.02548" lon="6.17659">
        <ele>832.408</ele>
        <time>2020-05-20T15:01:03Z</time>
      </trkpt>
      <trkpt lat="46.02548" lon="6.17652">
        <ele>833.012</ele>
        <time>2020-05-20T15:01:05Z</time>
      </trkpt>
      <trkpt lat="46.02552" lon="6.17645">
        <ele>834.357</ele>
        <time>2020-05-20T15:01:10Z</time>
      </trkpt>
      <trkpt lat="46.02554" lon="6.17636">
        <ele>834.544</ele>
        <time>2020-05-20T15:01:12Z</time>
      </trkpt>
      <trkpt lat="46.0255" lon="6.17628">
        <ele>834.669</ele>
        <time>2020-05-20T15:01:15Z</time>
      </trkpt>
      <trkpt lat="46.02553" lon="6.17619">
        <ele>834.733</ele>
        <time>2020-05-20T15:01:17Z</time>
      </trkpt>
      <trkpt lat="46.02558" lon="6.17612">
        <ele>834.766</ele>
        <time>2020-05-20T15:01:20Z</time>
      </trkpt>
      <trkpt lat="46.02562" lon="6.17607">
        <ele>834.896</ele>
        <time>2020-05-20T15:01:22Z</time>
      </trkpt>
      <trkpt lat="46.02562" lon="6.176">
        <ele>834.952</ele>
        <time>2020-05-20T15:01:23Z</time>
      </trkpt>
      <trkpt lat="46.02565" lon="6.17588">
        <ele>835.071</ele>
        <time>2020-05-20T15:01:25Z</time>
      </trkpt>
      <trkpt lat="46.02564" lon="6.17577">
        <ele>834.841</ele>
        <time>2020-05-20T15:01:28Z</time>
      </trkpt>
      <trkpt lat="46.02557" lon="6.17564">
        <ele>834.515</ele>
        <time>2020-05-20T15:01:30Z</time>
      </trkpt>
      <trkpt lat="46.02548" lon="6.17551">
        <ele>834.508</ele>
        <time>2020-05-20T15:01:31Z</time>
      </trkpt>
      <trkpt lat="46.02542" lon="6.17538">
        <ele>834.591</ele>
        <time>2020-05-20T15:01:32Z</time>
      </trkpt>
      <trkpt lat="46.02535" lon="6.17526">
        <ele>834.556</ele>
        <time>2020-05-20T15:01:33Z</time>
      </trkpt>
      <trkpt lat="46.0253" lon="6.17516">
        <ele>834.323</ele>
        <time>2020-05-20T15:01:34Z</time>
      </trkpt>
      <trkpt lat="46.02522" lon="6.17509">
        <ele>834.278</ele>
        <time>2020-05-20T15:01:35Z</time>
      </trkpt>
      <trkpt lat="46.02516" lon="6.17503">
        <ele>834.082</ele>
        <time>2020-05-20T15:01:36Z</time>
      </trkpt>
      <trkpt lat="46.02508" lon="6.17495">
        <ele>833.985</ele>
        <time>2020-05-20T15:01:37Z</time>
      </trkpt>
      <trkpt lat="46.02502" lon="6.17489">
        <ele>833.725</ele>
        <time>2020-05-20T15:01:38Z</time>
      </trkpt>
      <trkpt lat="46.02496" lon="6.17479">
        <ele>833.741</ele>
        <time>2020-05-20T15:01:39Z</time>
      </trkpt>
      <trkpt lat="46.02488" lon="6.17467">
        <ele>833.762</ele>
        <time>2020-05-20T15:01:40Z</time>
      </trkpt>
      <trkpt lat="46.02481" lon="6.17454">
        <ele>833.783</ele>
        <time>2020-05-20T15:01:41Z</time>
      </trkpt>
      <trkpt lat="46.02475" lon="6.17435">
        <ele>833.711</ele>
        <time>2020-05-20T15:01:42Z</time>
      </trkpt>
      <trkpt lat="46.02469" lon="6.17422">
        <ele>833.708</ele>
        <time>2020-05-20T15:01:43Z</time>
      </trkpt>
      <trkpt lat="46.02462" lon="6.17411">
        <ele>833.79</ele>
        <time>2020-05-20T15:01:44Z</time>
      </trkpt>
      <trkpt lat="46.02456" lon="6.17403">
        <ele>833.635</ele>
        <time>2020-05-20T15:01:45Z</time>
      </trkpt>
      <trkpt lat="46.02447" lon="6.17395">
        <ele>833.632</ele>
        <time>2020-05-20T15:01:46Z</time>
      </trkpt>
      <trkpt lat="46.02438" lon="6.17392">
        <ele>833.457</ele>
        <time>2020-05-20T15:01:47Z</time>
      </trkpt>
      <trkpt lat="46.0243" lon="6.17389">
        <ele>833.071</ele>
        <time>2020-05-20T15:01:48Z</time>
      </trkpt>
      <trkpt lat="46.02424" lon="6.17388">
        <ele>832.574</ele>
        <time>2020-05-20T15:01:49Z</time>
      </trkpt>
      <trkpt lat="46.02419" lon="6.17387">
        <ele>831.954</ele>
        <time>2020-05-20T15:01:50Z</time>
      </trkpt>
      <trkpt lat="46.02414" lon="6.17383">
        <ele>831.26</ele>
        <time>2020-05-20T15:01:51Z</time>
      </trkpt>
      <trkpt lat="46.0241" lon="6.17373">
        <ele>829.729</ele>
        <time>2020-05-20T15:01:53Z</time>
      </trkpt>
      <trkpt lat="46.02411" lon="6.17361">
        <ele>828.9</ele>
        <time>2020-05-20T15:01:55Z</time>
      </trkpt>
      <trkpt lat="46.02411" lon="6.17355">
        <ele>828.92</ele>
        <time>2020-05-20T15:01:56Z</time>
      </trkpt>
      <trkpt lat="46.02413" lon="6.1734">
        <ele>829.508</ele>
        <time>2020-05-20T15:01:58Z</time>
      </trkpt>
      <trkpt lat="46.02415" lon="6.17332">
        <ele>829.926</ele>
        <time>2020-05-20T15:01:59Z</time>
      </trkpt>
      <trkpt lat="46.02419" lon="6.17321">
        <ele>830.211</ele>
        <time>2020-05-20T15:02:00Z</time>
      </trkpt>
      <trkpt lat="46.02421" lon="6.17309">
        <ele>830.438</ele>
        <time>2020-05-20T15:02:01Z</time>
      </trkpt>
      <trkpt lat="46.02421" lon="6.17294">
        <ele>830.443</ele>
        <time>2020-05-20T15:02:02Z</time>
      </trkpt>
      <trkpt lat="46.02423" lon="6.17276">
        <ele>830.357</ele>
        <time>2020-05-20T15:02:03Z</time>
      </trkpt>
      <trkpt lat="46.02421" lon="6.17255">
        <ele>830.35</ele>
        <time>2020-05-20T15:02:04Z</time>
      </trkpt>
      <trkpt lat="46.02421" lon="6.1724">
        <ele>830.12</ele>
        <time>2020-05-20T15:02:05Z</time>
      </trkpt>
      <trkpt lat="46.02421" lon="6.17223">
        <ele>829.996</ele>
        <time>2020-05-20T15:02:06Z</time>
      </trkpt>
      <trkpt lat="46.02422" lon="6.17206">
        <ele>829.628</ele>
        <time>2020-05-20T15:02:07Z</time>
      </trkpt>
      <trkpt lat="46.02423" lon="6.17193">
        <ele>829.489</ele>
        <time>2020-05-20T15:02:08Z</time>
      </trkpt>
      <trkpt lat="46.02423" lon="6.17178">
        <ele>829.217</ele>
        <time>2020-05-20T15:02:09Z</time>
      </trkpt>
      <trkpt lat="46.02423" lon="6.17164">
        <ele>829.008</ele>
        <time>2020-05-20T15:02:10Z</time>
      </trkpt>
      <trkpt lat="46.02422" lon="6.17154">
        <ele>828.656</ele>
        <time>2020-05-20T15:02:11Z</time>
      </trkpt>
      <trkpt lat="46.02422" lon="6.17146">
        <ele>828.361</ele>
        <time>2020-05-20T15:02:12Z</time>
      </trkpt>
      <trkpt lat="46.02426" lon="6.17138">
        <ele>827.288</ele>
        <time>2020-05-20T15:02:14Z</time>
      </trkpt>
      <trkpt lat="46.02434" lon="6.17135">
        <ele>826.413</ele>
        <time>2020-05-20T15:02:16Z</time>
      </trkpt>
      <trkpt lat="46.0244" lon="6.17139">
        <ele>826.347</ele>
        <time>2020-05-20T15:02:17Z</time>
      </trkpt>
      <trkpt lat="46.02448" lon="6.17144">
        <ele>826.39</ele>
        <time>2020-05-20T15:02:18Z</time>
      </trkpt>
      <trkpt lat="46.02456" lon="6.17147">
        <ele>826.42</ele>
        <time>2020-05-20T15:02:19Z</time>
      </trkpt>
      <trkpt lat="46.02466" lon="6.1715">
        <ele>826.886</ele>
        <time>2020-05-20T15:02:20Z</time>
      </trkpt>
      <trkpt lat="46.02474" lon="6.17152">
        <ele>827.459</ele>
        <time>2020-05-20T15:02:21Z</time>
      </trkpt>
      <trkpt lat="46.0248" lon="6.17156">
        <ele>828.103</ele>
        <time>2020-05-20T15:02:22Z</time>
      </trkpt>
      <trkpt lat="46.02486" lon="6.17158">
        <ele>828.823</ele>
        <time>2020-05-20T15:02:23Z</time>
      </trkpt>
      <trkpt lat="46.02493" lon="6.1716">
        <ele>829.708</ele>
        <time>2020-05-20T15:02:24Z</time>
      </trkpt>
      <trkpt lat="46.02499" lon="6.17163">
        <ele>830.679</ele>
        <time>2020-05-20T15:02:25Z</time>
      </trkpt>
      <trkpt lat="46.02506" lon="6.17164">
        <ele>831.334</ele>
        <time>2020-05-20T15:02:26Z</time>
      </trkpt>
      <trkpt lat="46.02513" lon="6.17165">
        <ele>831.981</ele>
        <time>2020-05-20T15:02:27Z</time>
      </trkpt>
      <trkpt lat="46.02519" lon="6.17167">
        <ele>832.426</ele>
        <time>2020-05-20T15:02:28Z</time>
      </trkpt>
      <trkpt lat="46.02527" lon="6.17169">
        <ele>832.51</ele>
        <time>2020-05-20T15:02:29Z</time>
      </trkpt>
      <trkpt lat="46.02535" lon="6.17173">
        <ele>832.533</ele>
        <time>2020-05-20T15:02:30Z</time>
      </trkpt>
      <trkpt lat="46.02543" lon="6.17179">
        <ele>832.313</ele>
        <time>2020-05-20T15:02:31Z</time>
      </trkpt>
      <trkpt lat="46.0255" lon="6.17184">
        <ele>831.959</ele>
        <time>2020-05-20T15:02:32Z</time>
      </trkpt>
      <trkpt lat="46.02558" lon="6.17188">
        <ele>831.311</ele>
        <time>2020-05-20T15:02:33Z</time>
      </trkpt>
      <trkpt lat="46.02566" lon="6.17191">
        <ele>830.421</ele>
        <time>2020-05-20T15:02:34Z</time>
      </trkpt>
      <trkpt lat="46.02573" lon="6.17195">
        <ele>829.503</ele>
        <time>2020-05-20T15:02:35Z</time>
      </trkpt>
      <trkpt lat="46.02581" lon="6.17198">
        <ele>828.508</ele>
        <time>2020-05-20T15:02:36Z</time>
      </trkpt>
      <trkpt lat="46.02591" lon="6.17195">
        <ele>827.535</ele>
        <time>2020-05-20T15:02:37Z</time>
      </trkpt>
      <trkpt lat="46.026" lon="6.172">
        <ele>826.62</ele>
        <time>2020-05-20T15:02:38Z</time>
      </trkpt>
      <trkpt lat="46.02608" lon="6.17203">
        <ele>825.997</ele>
        <time>2020-05-20T15:02:39Z</time>
      </trkpt>
      <trkpt lat="46.02615" lon="6.17205">
        <ele>825.182</ele>
        <time>2020-05-20T15:02:40Z</time>
      </trkpt>
      <trkpt lat="46.02622" lon="6.17208">
        <ele>824.566</ele>
        <time>2020-05-20T15:02:41Z</time>
      </trkpt>
      <trkpt lat="46.02629" lon="6.17211">
        <ele>823.959</ele>
        <time>2020-05-20T15:02:42Z</time>
      </trkpt>
      <trkpt lat="46.02636" lon="6.17214">
        <ele>823.259</ele>
        <time>2020-05-20T15:02:43Z</time>
      </trkpt>
      <trkpt lat="46.02642" lon="6.17216">
        <ele>822.625</ele>
        <time>2020-05-20T15:02:44Z</time>
      </trkpt>
      <trkpt lat="46.02649" lon="6.17219">
        <ele>822.115</ele>
        <time>2020-05-20T15:02:45Z</time>
      </trkpt>
      <trkpt lat="46.02654" lon="6.1722">
        <ele>821.665</ele>
        <time>2020-05-20T15:02:46Z</time>
      </trkpt>
      <trkpt lat="46.0266" lon="6.1722">
        <ele>821.111</ele>
        <time>2020-05-20T15:02:47Z</time>
      </trkpt>
      <trkpt lat="46.02668" lon="6.1722">
        <ele>820.608</ele>
        <time>2020-05-20T15:02:48Z</time>
      </trkpt>
      <trkpt lat="46.02677" lon="6.17224">
        <ele>820.085</ele>
        <time>2020-05-20T15:02:49Z</time>
      </trkpt>
      <trkpt lat="46.02687" lon="6.17226">
        <ele>819.42</ele>
        <time>2020-05-20T15:02:50Z</time>
      </trkpt>
      <trkpt lat="46.02698" lon="6.17226">
        <ele>818.697</ele>
        <time>2020-05-20T15:02:51Z</time>
      </trkpt>
      <trkpt lat="46.02709" lon="6.17228">
        <ele>817.752</ele>
        <time>2020-05-20T15:02:52Z</time>
      </trkpt>
      <trkpt lat="46.02718" lon="6.17228">
        <ele>816.736</ele>
        <time>2020-05-20T15:02:53Z</time>
      </trkpt>
      <trkpt lat="46.02727" lon="6.1723">
        <ele>815.779</ele>
        <time>2020-05-20T15:02:54Z</time>
      </trkpt>
      <trkpt lat="46.02738" lon="6.17233">
        <ele>814.649</ele>
        <time>2020-05-20T15:02:55Z</time>
      </trkpt>
      <trkpt lat="46.02749" lon="6.17234">
        <ele>813.415</ele>
        <time>2020-05-20T15:02:56Z</time>
      </trkpt>
      <trkpt lat="46.02759" lon="6.17239">
        <ele>812.376</ele>
        <time>2020-05-20T15:02:57Z</time>
      </trkpt>
      <trkpt lat="46.0277" lon="6.1724">
        <ele>811.39</ele>
        <time>2020-05-20T15:02:58Z</time>
      </trkpt>
      <trkpt lat="46.02779" lon="6.17241">
        <ele>810.419</ele>
        <time>2020-05-20T15:02:59Z</time>
      </trkpt>
      <trkpt lat="46.02789" lon="6.17243">
        <ele>809.508</ele>
        <time>2020-05-20T15:03:00Z</time>
      </trkpt>
      <trkpt lat="46.02798" lon="6.17243">
        <ele>808.841</ele>
        <time>2020-05-20T15:03:01Z</time>
      </trkpt>
      <trkpt lat="46.02807" lon="6.17242">
        <ele>808.216</ele>
        <time>2020-05-20T15:03:02Z</time>
      </trkpt>
      <trkpt lat="46.02817" lon="6.17243">
        <ele>807.653</ele>
        <time>2020-05-20T15:03:03Z</time>
      </trkpt>
      <trkpt lat="46.02822" lon="6.17239">
        <ele>807.198</ele>
        <time>2020-05-20T15:03:04Z</time>
      </trkpt>
      <trkpt lat="46.02827" lon="6.17241">
        <ele>806.212</ele>
        <time>2020-05-20T15:03:06Z</time>
      </trkpt>
      <trkpt lat="46.02832" lon="6.17241">
        <ele>805.225</ele>
        <time>2020-05-20T15:03:08Z</time>
      </trkpt>
      <trkpt lat="46.02837" lon="6.17236">
        <ele>803.215</ele>
        <time>2020-05-20T15:03:17Z</time>
      </trkpt>
      <trkpt lat="46.02842" lon="6.17232">
        <ele>803.141</ele>
        <time>2020-05-20T15:03:21Z</time>
      </trkpt>
      <trkpt lat="46.02843" lon="6.1724">
        <ele>803.616</ele>
        <time>2020-05-20T15:03:30Z</time>
      </trkpt>
      <trkpt lat="46.02842" lon="6.17249">
        <ele>804.276</ele>
        <time>2020-05-20T15:03:33Z</time>
      </trkpt>
      <trkpt lat="46.02844" lon="6.17256">
        <ele>804.813</ele>
        <time>2020-05-20T15:03:36Z</time>
      </trkpt>
      <trkpt lat="46.02848" lon="6.17263">
        <ele>805.508</ele>
        <time>2020-05-20T15:03:38Z</time>
      </trkpt>
      <trkpt lat="46.0285" lon="6.1727">
        <ele>806.425</ele>
        <time>2020-05-20T15:03:40Z</time>
      </trkpt>
      <trkpt lat="46.02849" lon="6.17278">
        <ele>807.29</ele>
        <time>2020-05-20T15:03:43Z</time>
      </trkpt>
      <trkpt lat="46.02849" lon="6.17289">
        <ele>807.987</ele>
        <time>2020-05-20T15:03:47Z</time>
      </trkpt>
      <trkpt lat="46.02851" lon="6.17306">
        <ele>807.942</ele>
        <time>2020-05-20T15:03:56Z</time>
      </trkpt>
      <trkpt lat="46.02855" lon="6.17311">
        <ele>807.866</ele>
        <time>2020-05-20T15:04:25Z</time>
      </trkpt>
      <trkpt lat="46.02853" lon="6.17317">
        <ele>807.979</ele>
        <time>2020-05-20T15:04:27Z</time>
      </trkpt>
      <trkpt lat="46.02849" lon="6.17322">
        <ele>807.989</ele>
        <time>2020-05-20T15:04:28Z</time>
      </trkpt>
      <trkpt lat="46.02848" lon="6.17328">
        <ele>808.235</ele>
        <time>2020-05-20T15:04:31Z</time>
      </trkpt>
      <trkpt lat="46.02848" lon="6.17335">
        <ele>808.625</ele>
        <time>2020-05-20T15:04:35Z</time>
      </trkpt>
      <trkpt lat="46.02843" lon="6.17335">
        <ele>808.626</ele>
        <time>2020-05-20T15:04:43Z</time>
      </trkpt>
      <trkpt lat="46.02848" lon="6.17325">
        <ele>808.708</ele>
        <time>2020-05-20T15:04:49Z</time>
      </trkpt>
      <trkpt lat="46.02847" lon="6.17317">
        <ele>808.108</ele>
        <time>2020-05-20T15:04:53Z</time>
      </trkpt>
      <trkpt lat="46.02847" lon="6.1731">
        <ele>808.076</ele>
        <time>2020-05-20T15:05:01Z</time>
      </trkpt>
      <trkpt lat="46.02847" lon="6.173">
        <ele>807.951</ele>
        <time>2020-05-20T15:05:04Z</time>
      </trkpt>
      <trkpt lat="46.02847" lon="6.1729">
        <ele>807.538</ele>
        <time>2020-05-20T15:05:06Z</time>
      </trkpt>
      <trkpt lat="46.02844" lon="6.17281">
        <ele>806.753</ele>
        <time>2020-05-20T15:05:08Z</time>
      </trkpt>
      <trkpt lat="46.02844" lon="6.17274">
        <ele>805.987</ele>
        <time>2020-05-20T15:05:10Z</time>
      </trkpt>
      <trkpt lat="46.02843" lon="6.17267">
        <ele>805.25</ele>
        <time>2020-05-20T15:05:12Z</time>
      </trkpt>
      <trkpt lat="46.02851" lon="6.17253">
        <ele>804.33</ele>
        <time>2020-05-20T15:05:17Z</time>
      </trkpt>
      <trkpt lat="46.02859" lon="6.1725">
        <ele>803.566</ele>
        <time>2020-05-20T15:05:19Z</time>
      </trkpt>
      <trkpt lat="46.02863" lon="6.17248">
        <ele>803.073</ele>
        <time>2020-05-20T15:05:20Z</time>
      </trkpt>
      <trkpt lat="46.02867" lon="6.17242">
        <ele>801.685</ele>
        <time>2020-05-20T15:05:22Z</time>
      </trkpt>
      <trkpt lat="46.02874" lon="6.17236">
        <ele>799.913</ele>
        <time>2020-05-20T15:05:24Z</time>
      </trkpt>
      <trkpt lat="46.02879" lon="6.17232">
        <ele>798.908</ele>
        <time>2020-05-20T15:05:25Z</time>
      </trkpt>
      <trkpt lat="46.02887" lon="6.17231">
        <ele>797.021</ele>
        <time>2020-05-20T15:05:27Z</time>
      </trkpt>
      <trkpt lat="46.02893" lon="6.17233">
        <ele>796.146</ele>
        <time>2020-05-20T15:05:28Z</time>
      </trkpt>
      <trkpt lat="46.02897" lon="6.17236">
        <ele>795.113</ele>
        <time>2020-05-20T15:05:29Z</time>
      </trkpt>
      <trkpt lat="46.02902" lon="6.1724">
        <ele>793.938</ele>
        <time>2020-05-20T15:05:30Z</time>
      </trkpt>
      <trkpt lat="46.02907" lon="6.17246">
        <ele>792.572</ele>
        <time>2020-05-20T15:05:31Z</time>
      </trkpt>
      <trkpt lat="46.02915" lon="6.17252">
        <ele>791.045</ele>
        <time>2020-05-20T15:05:32Z</time>
      </trkpt>
      <trkpt lat="46.02922" lon="6.1726">
        <ele>789.495</ele>
        <time>2020-05-20T15:05:33Z</time>
      </trkpt>
      <trkpt lat="46.02925" lon="6.17267">
        <ele>787.791</ele>
        <time>2020-05-20T15:05:34Z</time>
      </trkpt>
      <trkpt lat="46.02933" lon="6.17267">
        <ele>786.124</ele>
        <time>2020-05-20T15:05:35Z</time>
      </trkpt>
      <trkpt lat="46.0294" lon="6.17271">
        <ele>784.604</ele>
        <time>2020-05-20T15:05:36Z</time>
      </trkpt>
      <trkpt lat="46.02943" lon="6.17276">
        <ele>783.014</ele>
        <time>2020-05-20T15:05:37Z</time>
      </trkpt>
      <trkpt lat="46.02946" lon="6.17284">
        <ele>780.208</ele>
        <time>2020-05-20T15:05:39Z</time>
      </trkpt>
      <trkpt lat="46.02951" lon="6.17274">
        <ele>777.856</ele>
        <time>2020-05-20T15:05:41Z</time>
      </trkpt>
      <trkpt lat="46.02955" lon="6.17263">
        <ele>776.941</ele>
        <time>2020-05-20T15:05:42Z</time>
      </trkpt>
      <trkpt lat="46.0296" lon="6.17255">
        <ele>776.448</ele>
        <time>2020-05-20T15:05:43Z</time>
      </trkpt>
      <trkpt lat="46.02973" lon="6.17251">
        <ele>776.423</ele>
        <time>2020-05-20T15:05:44Z</time>
      </trkpt>
      <trkpt lat="46.02984" lon="6.17244">
        <ele>776.647</ele>
        <time>2020-05-20T15:05:45Z</time>
      </trkpt>
      <trkpt lat="46.02997" lon="6.1724">
        <ele>777.65</ele>
        <time>2020-05-20T15:05:46Z</time>
      </trkpt>
      <trkpt lat="46.03014" lon="6.17236">
        <ele>779.46</ele>
        <time>2020-05-20T15:05:47Z</time>
      </trkpt>
      <trkpt lat="46.03029" lon="6.1724">
        <ele>781.986</ele>
        <time>2020-05-20T15:05:48Z</time>
      </trkpt>
      <trkpt lat="46.03039" lon="6.17259">
        <ele>784.943</ele>
        <time>2020-05-20T15:05:49Z</time>
      </trkpt>
      <trkpt lat="46.03044" lon="6.17274">
        <ele>788.164</ele>
        <time>2020-05-20T15:05:50Z</time>
      </trkpt>
      <trkpt lat="46.0305" lon="6.17278">
        <ele>791.21</ele>
        <time>2020-05-20T15:05:51Z</time>
      </trkpt>
      <trkpt lat="46.03061" lon="6.17291">
        <ele>798.608</ele>
        <time>2020-05-20T15:05:58Z</time>
      </trkpt>
      <trkpt lat="46.03062" lon="6.17301">
        <ele>798.858</ele>
        <time>2020-05-20T15:05:59Z</time>
      </trkpt>
      <trkpt lat="46.03062" lon="6.17312">
        <ele>799.223</ele>
        <time>2020-05-20T15:06:00Z</time>
      </trkpt>
      <trkpt lat="46.03064" lon="6.17328">
        <ele>799.79</ele>
        <time>2020-05-20T15:06:01Z</time>
      </trkpt>
      <trkpt lat="46.03064" lon="6.17346">
        <ele>800.325</ele>
        <time>2020-05-20T15:06:02Z</time>
      </trkpt>
      <trkpt lat="46.03064" lon="6.17365">
        <ele>800.699</ele>
        <time>2020-05-20T15:06:03Z</time>
      </trkpt>
      <trkpt lat="46.03064" lon="6.17386">
        <ele>801.122</ele>
        <time>2020-05-20T15:06:04Z</time>
      </trkpt>
      <trkpt lat="46.03064" lon="6.17403">
        <ele>802.012</ele>
        <time>2020-05-20T15:06:05Z</time>
      </trkpt>
      <trkpt lat="46.03066" lon="6.1742">
        <ele>802.888</ele>
        <time>2020-05-20T15:06:06Z</time>
      </trkpt>
      <trkpt lat="46.03066" lon="6.17437">
        <ele>803.487</ele>
        <time>2020-05-20T15:06:07Z</time>
      </trkpt>
      <trkpt lat="46.03065" lon="6.17457">
        <ele>803.942</ele>
        <time>2020-05-20T15:06:08Z</time>
      </trkpt>
      <trkpt lat="46.03066" lon="6.17477">
        <ele>804.426</ele>
        <time>2020-05-20T15:06:09Z</time>
      </trkpt>
      <trkpt lat="46.03068" lon="6.17496">
        <ele>804.708</ele>
        <time>2020-05-20T15:06:10Z</time>
      </trkpt>
      <trkpt lat="46.03067" lon="6.17517">
        <ele>805.292</ele>
        <time>2020-05-20T15:06:11Z</time>
      </trkpt>
      <trkpt lat="46.03069" lon="6.17536">
        <ele>806.127</ele>
        <time>2020-05-20T15:06:12Z</time>
      </trkpt>
      <trkpt lat="46.03072" lon="6.17551">
        <ele>807.494</ele>
        <time>2020-05-20T15:06:13Z</time>
      </trkpt>
      <trkpt lat="46.03074" lon="6.17563">
        <ele>809.089</ele>
        <time>2020-05-20T15:06:14Z</time>
      </trkpt>
      <trkpt lat="46.03078" lon="6.17572">
        <ele>810.493</ele>
        <time>2020-05-20T15:06:15Z</time>
      </trkpt>
      <trkpt lat="46.03087" lon="6.17577">
        <ele>811.616</ele>
        <time>2020-05-20T15:06:16Z</time>
      </trkpt>
      <trkpt lat="46.03099" lon="6.17579">
        <ele>812.766</ele>
        <time>2020-05-20T15:06:17Z</time>
      </trkpt>
      <trkpt lat="46.03109" lon="6.17581">
        <ele>813.782</ele>
        <time>2020-05-20T15:06:18Z</time>
      </trkpt>
      <trkpt lat="46.03117" lon="6.17587">
        <ele>814.673</ele>
        <time>2020-05-20T15:06:19Z</time>
      </trkpt>
      <trkpt lat="46.03124" lon="6.17591">
        <ele>815.685</ele>
        <time>2020-05-20T15:06:20Z</time>
      </trkpt>
      <trkpt lat="46.03126" lon="6.17597">
        <ele>816.613</ele>
        <time>2020-05-20T15:06:21Z</time>
      </trkpt>
      <trkpt lat="46.03127" lon="6.17608">
        <ele>817.408</ele>
        <time>2020-05-20T15:06:22Z</time>
      </trkpt>
      <trkpt lat="46.03127" lon="6.17619">
        <ele>818.151</ele>
        <time>2020-05-20T15:06:23Z</time>
      </trkpt>
      <trkpt lat="46.03126" lon="6.1763">
        <ele>818.676</ele>
        <time>2020-05-20T15:06:24Z</time>
      </trkpt>
      <trkpt lat="46.03124" lon="6.17641">
        <ele>819.123</ele>
        <time>2020-05-20T15:06:26Z</time>
      </trkpt>
      <trkpt lat="46.03128" lon="6.17643">
        <ele>819.128</ele>
        <time>2020-05-20T15:06:29Z</time>
      </trkpt>
      <trkpt lat="46.03136" lon="6.17639">
        <ele>819.112</ele>
        <time>2020-05-20T15:06:30Z</time>
      </trkpt>
      <trkpt lat="46.03149" lon="6.17629">
        <ele>819.275</ele>
        <time>2020-05-20T15:06:32Z</time>
      </trkpt>
      <trkpt lat="46.03158" lon="6.17619">
        <ele>819.395</ele>
        <time>2020-05-20T15:06:33Z</time>
      </trkpt>
      <trkpt lat="46.03165" lon="6.17588">
        <ele>818.981</ele>
        <time>2020-05-20T15:06:42Z</time>
      </trkpt>
      <trkpt lat="46.03162" lon="6.17582">
        <ele>818.863</ele>
        <time>2020-05-20T15:06:43Z</time>
      </trkpt>
      <trkpt lat="46.03156" lon="6.17579">
        <ele>818.644</ele>
        <time>2020-05-20T15:06:44Z</time>
      </trkpt>
      <trkpt lat="46.03149" lon="6.17579">
        <ele>818.518</ele>
        <time>2020-05-20T15:06:45Z</time>
      </trkpt>
      <trkpt lat="46.03144" lon="6.17577">
        <ele>818.308</ele>
        <time>2020-05-20T15:06:46Z</time>
      </trkpt>
      <trkpt lat="46.03138" lon="6.17575">
        <ele>817.73</ele>
        <time>2020-05-20T15:06:48Z</time>
      </trkpt>
      <trkpt lat="46.03137" lon="6.17582">
        <ele>817.425</ele>
        <time>2020-05-20T15:06:50Z</time>
      </trkpt>
      <trkpt lat="46.03144" lon="6.17577">
        <ele>817.042</ele>
        <time>2020-05-20T15:06:52Z</time>
      </trkpt>
      <trkpt lat="46.03149" lon="6.17575">
        <ele>817.037</ele>
        <time>2020-05-20T15:06:53Z</time>
      </trkpt>
      <trkpt lat="46.03155" lon="6.17576">
        <ele>817.261</ele>
        <time>2020-05-20T15:06:54Z</time>
      </trkpt>
      <trkpt lat="46.03161" lon="6.1758">
        <ele>817.534</ele>
        <time>2020-05-20T15:06:55Z</time>
      </trkpt>
      <trkpt lat="46.03169" lon="6.17587">
        <ele>817.834</ele>
        <time>2020-05-20T15:06:56Z</time>
      </trkpt>
      <trkpt lat="46.03177" lon="6.17593">
        <ele>818.13</ele>
        <time>2020-05-20T15:06:57Z</time>
      </trkpt>
      <trkpt lat="46.03184" lon="6.17599">
        <ele>818.571</ele>
        <time>2020-05-20T15:06:58Z</time>
      </trkpt>
      <trkpt lat="46.0319" lon="6.17607">
        <ele>819.041</ele>
        <time>2020-05-20T15:06:59Z</time>
      </trkpt>
      <trkpt lat="46.03195" lon="6.17613">
        <ele>819.515</ele>
        <time>2020-05-20T15:07:00Z</time>
      </trkpt>
      <trkpt lat="46.03197" lon="6.17622">
        <ele>820.208</ele>
        <time>2020-05-20T15:07:01Z</time>
      </trkpt>
      <trkpt lat="46.032" lon="6.17633">
        <ele>820.941</ele>
        <time>2020-05-20T15:07:02Z</time>
      </trkpt>
      <trkpt lat="46.032" lon="6.17645">
        <ele>821.716</ele>
        <time>2020-05-20T15:07:03Z</time>
      </trkpt>
      <trkpt lat="46.032" lon="6.17657">
        <ele>822.223</ele>
        <time>2020-05-20T15:07:04Z</time>
      </trkpt>
      <trkpt lat="46.032" lon="6.1767">
        <ele>822.598</ele>
        <time>2020-05-20T15:07:05Z</time>
      </trkpt>
      <trkpt lat="46.032" lon="6.1768">
        <ele>822.792</ele>
        <time>2020-05-20T15:07:06Z</time>
      </trkpt>
      <trkpt lat="46.03201" lon="6.17687">
        <ele>822.765</ele>
        <time>2020-05-20T15:07:07Z</time>
      </trkpt>
      <trkpt lat="46.032" lon="6.17698">
        <ele>821.735</ele>
        <time>2020-05-20T15:07:09Z</time>
      </trkpt>
      <trkpt lat="46.03206" lon="6.17699">
        <ele>819.871</ele>
        <time>2020-05-20T15:07:12Z</time>
      </trkpt>
      <trkpt lat="46.0321" lon="6.17692">
        <ele>819.567</ele>
        <time>2020-05-20T15:07:13Z</time>
      </trkpt>
      <trkpt lat="46.03215" lon="6.17685">
        <ele>819.581</ele>
        <time>2020-05-20T15:07:14Z</time>
      </trkpt>
      <trkpt lat="46.0322" lon="6.17678">
        <ele>819.619</ele>
        <time>2020-05-20T15:07:15Z</time>
      </trkpt>
      <trkpt lat="46.03225" lon="6.17667">
        <ele>819.808</ele>
        <time>2020-05-20T15:07:16Z</time>
      </trkpt>
      <trkpt lat="46.03234" lon="6.17653">
        <ele>820.23</ele>
        <time>2020-05-20T15:07:17Z</time>
      </trkpt>
      <trkpt lat="46.03242" lon="6.17641">
        <ele>820.815</ele>
        <time>2020-05-20T15:07:18Z</time>
      </trkpt>
      <trkpt lat="46.0325" lon="6.17631">
        <ele>821.592</ele>
        <time>2020-05-20T15:07:19Z</time>
      </trkpt>
      <trkpt lat="46.03257" lon="6.17624">
        <ele>822.497</ele>
        <time>2020-05-20T15:07:20Z</time>
      </trkpt>
      <trkpt lat="46.03266" lon="6.17619">
        <ele>823.191</ele>
        <time>2020-05-20T15:07:21Z</time>
      </trkpt>
      <trkpt lat="46.03275" lon="6.17619">
        <ele>823.694</ele>
        <time>2020-05-20T15:07:22Z</time>
      </trkpt>
      <trkpt lat="46.03285" lon="6.17619">
        <ele>824.164</ele>
        <time>2020-05-20T15:07:23Z</time>
      </trkpt>
      <trkpt lat="46.03298" lon="6.1762">
        <ele>824.43</ele>
        <time>2020-05-20T15:07:24Z</time>
      </trkpt>
      <trkpt lat="46.03311" lon="6.17621">
        <ele>824.513</ele>
        <time>2020-05-20T15:07:25Z</time>
      </trkpt>
      <trkpt lat="46.03323" lon="6.17622">
        <ele>824.843</ele>
        <time>2020-05-20T15:07:26Z</time>
      </trkpt>
      <trkpt lat="46.03334" lon="6.17623">
        <ele>825.307</ele>
        <time>2020-05-20T15:07:27Z</time>
      </trkpt>
      <trkpt lat="46.03346" lon="6.17625">
        <ele>825.708</ele>
        <time>2020-05-20T15:07:28Z</time>
      </trkpt>
      <trkpt lat="46.03356" lon="6.17625">
        <ele>826.095</ele>
        <time>2020-05-20T15:07:29Z</time>
      </trkpt>
      <trkpt lat="46.03362" lon="6.1762">
        <ele>826.27</ele>
        <time>2020-05-20T15:07:30Z</time>
      </trkpt>
      <trkpt lat="46.03363" lon="6.17614">
        <ele>826.267</ele>
        <time>2020-05-20T15:07:31Z</time>
      </trkpt>
      <trkpt lat="46.03365" lon="6.17604">
        <ele>826.162</ele>
        <time>2020-05-20T15:07:32Z</time>
      </trkpt>
      <trkpt lat="46.03366" lon="6.17587">
        <ele>825.766</ele>
        <time>2020-05-20T15:07:33Z</time>
      </trkpt>
      <trkpt lat="46.03372" lon="6.17569">
        <ele>825.319</ele>
        <time>2020-05-20T15:07:34Z</time>
      </trkpt>
      <trkpt lat="46.03377" lon="6.17551">
        <ele>824.829</ele>
        <time>2020-05-20T15:07:35Z</time>
      </trkpt>
      <trkpt lat="46.0338" lon="6.17534">
        <ele>824.265</ele>
        <time>2020-05-20T15:07:36Z</time>
      </trkpt>
      <trkpt lat="46.03381" lon="6.1752">
        <ele>823.572</ele>
        <time>2020-05-20T15:07:37Z</time>
      </trkpt>
      <trkpt lat="46.0338" lon="6.17504">
        <ele>822.813</ele>
        <time>2020-05-20T15:07:38Z</time>
      </trkpt>
      <trkpt lat="46.03379" lon="6.17492">
        <ele>822.014</ele>
        <time>2020-05-20T15:07:39Z</time>
      </trkpt>
      <trkpt lat="46.03378" lon="6.17479">
        <ele>821.108</ele>
        <time>2020-05-20T15:07:40Z</time>
      </trkpt>
      <trkpt lat="46.03376" lon="6.17465">
        <ele>820.231</ele>
        <time>2020-05-20T15:07:41Z</time>
      </trkpt>
      <trkpt lat="46.03374" lon="6.17453">
        <ele>819.276</ele>
        <time>2020-05-20T15:07:42Z</time>
      </trkpt>
      <trkpt lat="46.03372" lon="6.17442">
        <ele>818.233</ele>
        <time>2020-05-20T15:07:43Z</time>
      </trkpt>
      <trkpt lat="46.03369" lon="6.1743">
        <ele>817.418</ele>
        <time>2020-05-20T15:07:44Z</time>
      </trkpt>
      <trkpt lat="46.03366" lon="6.17419">
        <ele>816.692</ele>
        <time>2020-05-20T15:07:45Z</time>
      </trkpt>
      <trkpt lat="46.03363" lon="6.17408">
        <ele>815.945</ele>
        <time>2020-05-20T15:07:46Z</time>
      </trkpt>
      <trkpt lat="46.03363" lon="6.17396">
        <ele>815.155</ele>
        <time>2020-05-20T15:07:47Z</time>
      </trkpt>
      <trkpt lat="46.03364" lon="6.17383">
        <ele>814.371</ele>
        <time>2020-05-20T15:07:48Z</time>
      </trkpt>
      <trkpt lat="46.03366" lon="6.17371">
        <ele>813.627</ele>
        <time>2020-05-20T15:07:49Z</time>
      </trkpt>
      <trkpt lat="46.03369" lon="6.1736">
        <ele>812.868</ele>
        <time>2020-05-20T15:07:50Z</time>
      </trkpt>
      <trkpt lat="46.03372" lon="6.17348">
        <ele>812.014</ele>
        <time>2020-05-20T15:07:51Z</time>
      </trkpt>
      <trkpt lat="46.03374" lon="6.17338">
        <ele>811.108</ele>
        <time>2020-05-20T15:07:52Z</time>
      </trkpt>
      <trkpt lat="46.03377" lon="6.17328">
        <ele>810.226</ele>
        <time>2020-05-20T15:07:53Z</time>
      </trkpt>
      <trkpt lat="46.0338" lon="6.17318">
        <ele>809.291</ele>
        <time>2020-05-20T15:07:54Z</time>
      </trkpt>
      <trkpt lat="46.03382" lon="6.17308">
        <ele>808.348</ele>
        <time>2020-05-20T15:07:55Z</time>
      </trkpt>
      <trkpt lat="46.03385" lon="6.17298">
        <ele>807.453</ele>
        <time>2020-05-20T15:07:56Z</time>
      </trkpt>
      <trkpt lat="46.03386" lon="6.17286">
        <ele>806.217</ele>
        <time>2020-05-20T15:07:57Z</time>
      </trkpt>
      <trkpt lat="46.03387" lon="6.17275">
        <ele>804.83</ele>
        <time>2020-05-20T15:07:58Z</time>
      </trkpt>
      <trkpt lat="46.03388" lon="6.17269">
        <ele>803.33</ele>
        <time>2020-05-20T15:07:59Z</time>
      </trkpt>
      <trkpt lat="46.03391" lon="6.17263">
        <ele>801.766</ele>
        <time>2020-05-20T15:08:00Z</time>
      </trkpt>
      <trkpt lat="46.03394" lon="6.17257">
        <ele>800.153</ele>
        <time>2020-05-20T15:08:01Z</time>
      </trkpt>
      <trkpt lat="46.03397" lon="6.1725">
        <ele>798.804</ele>
        <time>2020-05-20T15:08:02Z</time>
      </trkpt>
      <trkpt lat="46.03401" lon="6.17243">
        <ele>797.814</ele>
        <time>2020-05-20T15:08:03Z</time>
      </trkpt>
      <trkpt lat="46.03402" lon="6.17234">
        <ele>797.108</ele>
        <time>2020-05-20T15:08:04Z</time>
      </trkpt>
      <trkpt lat="46.03404" lon="6.17219">
        <ele>796.279</ele>
        <time>2020-05-20T15:08:05Z</time>
      </trkpt>
      <trkpt lat="46.03403" lon="6.17204">
        <ele>795.154</ele>
        <time>2020-05-20T15:08:06Z</time>
      </trkpt>
      <trkpt lat="46.03403" lon="6.17192">
        <ele>794.171</ele>
        <time>2020-05-20T15:08:07Z</time>
      </trkpt>
      <trkpt lat="46.03402" lon="6.17182">
        <ele>793.216</ele>
        <time>2020-05-20T15:08:08Z</time>
      </trkpt>
      <trkpt lat="46.03402" lon="6.17171">
        <ele>792.08</ele>
        <time>2020-05-20T15:08:09Z</time>
      </trkpt>
      <trkpt lat="46.03403" lon="6.17164">
        <ele>791.263</ele>
        <time>2020-05-20T15:08:10Z</time>
      </trkpt>
      <trkpt lat="46.03406" lon="6.17155">
        <ele>790.753</ele>
        <time>2020-05-20T15:08:12Z</time>
      </trkpt>
      <trkpt lat="46.03411" lon="6.17149">
        <ele>790.529</ele>
        <time>2020-05-20T15:08:13Z</time>
      </trkpt>
      <trkpt lat="46.03418" lon="6.17148">
        <ele>790.547</ele>
        <time>2020-05-20T15:08:14Z</time>
      </trkpt>
      <trkpt lat="46.03424" lon="6.17146">
        <ele>790.529</ele>
        <time>2020-05-20T15:08:15Z</time>
      </trkpt>
      <trkpt lat="46.0343" lon="6.17142">
        <ele>790.421</ele>
        <time>2020-05-20T15:08:16Z</time>
      </trkpt>
      <trkpt lat="46.03437" lon="6.17141">
        <ele>790.008</ele>
        <time>2020-05-20T15:08:17Z</time>
      </trkpt>
      <trkpt lat="46.03441" lon="6.1714">
        <ele>789.628</ele>
        <time>2020-05-20T15:08:18Z</time>
      </trkpt>
      <trkpt lat="46.03446" lon="6.17137">
        <ele>787.813</ele>
        <time>2020-05-20T15:08:21Z</time>
      </trkpt>
      <trkpt lat="46.03455" lon="6.17144">
        <ele>787.45</ele>
        <time>2020-05-20T15:08:28Z</time>
      </trkpt>
      <trkpt lat="46.03463" lon="6.17151">
        <ele>787.455</ele>
        <time>2020-05-20T15:08:29Z</time>
      </trkpt>
      <trkpt lat="46.03473" lon="6.1716">
        <ele>787.489</ele>
        <time>2020-05-20T15:08:30Z</time>
      </trkpt>
      <trkpt lat="46.03484" lon="6.17171">
        <ele>787.462</ele>
        <time>2020-05-20T15:08:31Z</time>
      </trkpt>
      <trkpt lat="46.03495" lon="6.17183">
        <ele>787.352</ele>
        <time>2020-05-20T15:08:32Z</time>
      </trkpt>
      <trkpt lat="46.03506" lon="6.17194">
        <ele>787.078</ele>
        <time>2020-05-20T15:08:33Z</time>
      </trkpt>
      <trkpt lat="46.03517" lon="6.17206">
        <ele>786.855</ele>
        <time>2020-05-20T15:08:34Z</time>
      </trkpt>
      <trkpt lat="46.03528" lon="6.17216">
        <ele>785.707</ele>
        <time>2020-05-20T15:08:35Z</time>
      </trkpt>
      <trkpt lat="46.03538" lon="6.17227">
        <ele>784.717</ele>
        <time>2020-05-20T15:08:36Z</time>
      </trkpt>
      <trkpt lat="46.03547" lon="6.17239">
        <ele>783.708</ele>
        <time>2020-05-20T15:08:37Z</time>
      </trkpt>
      <trkpt lat="46.03556" lon="6.17249">
        <ele>782.649</ele>
        <time>2020-05-20T15:08:38Z</time>
      </trkpt>
      <trkpt lat="46.03564" lon="6.1726">
        <ele>781.364</ele>
        <time>2020-05-20T15:08:39Z</time>
      </trkpt>
      <trkpt lat="46.03572" lon="6.1727">
        <ele>780.881</ele>
        <time>2020-05-20T15:08:40Z</time>
      </trkpt>
      <trkpt lat="46.03579" lon="6.1728">
        <ele>780.256</ele>
        <time>2020-05-20T15:08:41Z</time>
      </trkpt>
      <trkpt lat="46.03586" lon="6.17285">
        <ele>779.31</ele>
        <time>2020-05-20T15:08:42Z</time>
      </trkpt>
      <trkpt lat="46.03593" lon="6.1729">
        <ele>778.493</ele>
        <time>2020-05-20T15:08:43Z</time>
      </trkpt>
      <trkpt lat="46.036" lon="6.1729">
        <ele>777.413</ele>
        <time>2020-05-20T15:08:44Z</time>
      </trkpt>
      <trkpt lat="46.03608" lon="6.17287">
        <ele>776.319</ele>
        <time>2020-05-20T15:08:45Z</time>
      </trkpt>
      <trkpt lat="46.03614" lon="6.17281">
        <ele>775.487</ele>
        <time>2020-05-20T15:08:46Z</time>
      </trkpt>
      <trkpt lat="46.03615" lon="6.17272">
        <ele>774.642</ele>
        <time>2020-05-20T15:08:47Z</time>
      </trkpt>
      <trkpt lat="46.03619" lon="6.17263">
        <ele>774.026</ele>
        <time>2020-05-20T15:08:48Z</time>
      </trkpt>
      <trkpt lat="46.03623" lon="6.17252">
        <ele>773.508</ele>
        <time>2020-05-20T15:08:49Z</time>
      </trkpt>
      <trkpt lat="46.03628" lon="6.1724">
        <ele>773.022</ele>
        <time>2020-05-20T15:08:50Z</time>
      </trkpt>
      <trkpt lat="46.03633" lon="6.17229">
        <ele>772.587</ele>
        <time>2020-05-20T15:08:51Z</time>
      </trkpt>
      <trkpt lat="46.03637" lon="6.17218">
        <ele>772.014</ele>
        <time>2020-05-20T15:08:52Z</time>
      </trkpt>
      <trkpt lat="46.03641" lon="6.17207">
        <ele>771.559</ele>
        <time>2020-05-20T15:08:53Z</time>
      </trkpt>
      <trkpt lat="46.03646" lon="6.17196">
        <ele>771.093</ele>
        <time>2020-05-20T15:08:54Z</time>
      </trkpt>
      <trkpt lat="46.0365" lon="6.17185">
        <ele>770.476</ele>
        <time>2020-05-20T15:08:55Z</time>
      </trkpt>
      <trkpt lat="46.03654" lon="6.17174">
        <ele>769.956</ele>
        <time>2020-05-20T15:08:56Z</time>
      </trkpt>
      <trkpt lat="46.03657" lon="6.17166">
        <ele>769.152</ele>
        <time>2020-05-20T15:08:57Z</time>
      </trkpt>
      <trkpt lat="46.0366" lon="6.17161">
        <ele>768.117</ele>
        <time>2020-05-20T15:08:58Z</time>
      </trkpt>
      <trkpt lat="46.03664" lon="6.17158">
        <ele>767.087</ele>
        <time>2020-05-20T15:08:59Z</time>
      </trkpt>
      <trkpt lat="46.0367" lon="6.17156">
        <ele>766.115</ele>
        <time>2020-05-20T15:09:00Z</time>
      </trkpt>
      <trkpt lat="46.03677" lon="6.17157">
        <ele>765.308</ele>
        <time>2020-05-20T15:09:01Z</time>
      </trkpt>
      <trkpt lat="46.03687" lon="6.1716">
        <ele>764.845</ele>
        <time>2020-05-20T15:09:02Z</time>
      </trkpt>
      <trkpt lat="46.03696" lon="6.17161">
        <ele>764.51</ele>
        <time>2020-05-20T15:09:03Z</time>
      </trkpt>
      <trkpt lat="46.03705" lon="6.17162">
        <ele>764.597</ele>
        <time>2020-05-20T15:09:04Z</time>
      </trkpt>
      <trkpt lat="46.03714" lon="6.17163">
        <ele>764.132</ele>
        <time>2020-05-20T15:09:05Z</time>
      </trkpt>
      <trkpt lat="46.03723" lon="6.17164">
        <ele>763.696</ele>
        <time>2020-05-20T15:09:06Z</time>
      </trkpt>
      <trkpt lat="46.03732" lon="6.17165">
        <ele>763.139</ele>
        <time>2020-05-20T15:09:07Z</time>
      </trkpt>
      <trkpt lat="46.03741" lon="6.17166">
        <ele>762.529</ele>
        <time>2020-05-20T15:09:08Z</time>
      </trkpt>
      <trkpt lat="46.0375" lon="6.17168">
        <ele>761.715</ele>
        <time>2020-05-20T15:09:09Z</time>
      </trkpt>
      <trkpt lat="46.03759" lon="6.17169">
        <ele>761.083</ele>
        <time>2020-05-20T15:09:10Z</time>
      </trkpt>
      <trkpt lat="46.03767" lon="6.17171">
        <ele>760.625</ele>
        <time>2020-05-20T15:09:11Z</time>
      </trkpt>
      <trkpt lat="46.03776" lon="6.17172">
        <ele>760.217</ele>
        <time>2020-05-20T15:09:12Z</time>
      </trkpt>
      <trkpt lat="46.03784" lon="6.17173">
        <ele>759.608</ele>
        <time>2020-05-20T15:09:13Z</time>
      </trkpt>
      <trkpt lat="46.03792" lon="6.17173">
        <ele>759.112</ele>
        <time>2020-05-20T15:09:14Z</time>
      </trkpt>
      <trkpt lat="46.03801" lon="6.17174">
        <ele>758.877</ele>
        <time>2020-05-20T15:09:15Z</time>
      </trkpt>
      <trkpt lat="46.03809" lon="6.17175">
        <ele>758.784</ele>
        <time>2020-05-20T15:09:16Z</time>
      </trkpt>
      <trkpt lat="46.03818" lon="6.17177">
        <ele>758.399</ele>
        <time>2020-05-20T15:09:17Z</time>
      </trkpt>
      <trkpt lat="46.03827" lon="6.17178">
        <ele>758.153</ele>
        <time>2020-05-20T15:09:18Z</time>
      </trkpt>
      <trkpt lat="46.03835" lon="6.17178">
        <ele>758.056</ele>
        <time>2020-05-20T15:09:19Z</time>
      </trkpt>
      <trkpt lat="46.03843" lon="6.17178">
        <ele>757.726</ele>
        <time>2020-05-20T15:09:20Z</time>
      </trkpt>
      <trkpt lat="46.03851" lon="6.17177">
        <ele>757.132</ele>
        <time>2020-05-20T15:09:21Z</time>
      </trkpt>
      <trkpt lat="46.03858" lon="6.17175">
        <ele>756.482</ele>
        <time>2020-05-20T15:09:22Z</time>
      </trkpt>
      <trkpt lat="46.03865" lon="6.17173">
        <ele>756.043</ele>
        <time>2020-05-20T15:09:23Z</time>
      </trkpt>
      <trkpt lat="46.0387" lon="6.1717">
        <ele>755.517</ele>
        <time>2020-05-20T15:09:24Z</time>
      </trkpt>
      <trkpt lat="46.03874" lon="6.17161">
        <ele>755.008</ele>
        <time>2020-05-20T15:09:24Z</time>
      </trkpt>
      <trkpt lat="46.03878" lon="6.17153">
        <ele>754.532</ele>
        <time>2020-05-20T15:09:25Z</time>
      </trkpt>
      <trkpt lat="46.03885" lon="6.17145">
        <ele>753.447</ele>
        <time>2020-05-20T15:09:27Z</time>
      </trkpt>
      <trkpt lat="46.03887" lon="6.17135">
        <ele>752.234</ele>
        <time>2020-05-20T15:09:29Z</time>
      </trkpt>
      <trkpt lat="46.03889" lon="6.17127">
        <ele>751.169</ele>
        <time>2020-05-20T15:09:31Z</time>
      </trkpt>
      <trkpt lat="46.03892" lon="6.17121">
        <ele>750.423</ele>
        <time>2020-05-20T15:09:32Z</time>
      </trkpt>
      <trkpt lat="46.03895" lon="6.17113">
        <ele>749.716</ele>
        <time>2020-05-20T15:09:33Z</time>
      </trkpt>
      <trkpt lat="46.03899" lon="6.17108">
        <ele>748.956</ele>
        <time>2020-05-20T15:09:34Z</time>
      </trkpt>
      <trkpt lat="46.03903" lon="6.17101">
        <ele>748.122</ele>
        <time>2020-05-20T15:09:35Z</time>
      </trkpt>
      <trkpt lat="46.03907" lon="6.17097">
        <ele>747.188</ele>
        <time>2020-05-20T15:09:36Z</time>
      </trkpt>
      <trkpt lat="46.03911" lon="6.17093">
        <ele>746.124</ele>
        <time>2020-05-20T15:09:37Z</time>
      </trkpt>
      <trkpt lat="46.03915" lon="6.17088">
        <ele>745.126</ele>
        <time>2020-05-20T15:09:38Z</time>
      </trkpt>
      <trkpt lat="46.03924" lon="6.17088">
        <ele>743.108</ele>
        <time>2020-05-20T15:09:40Z</time>
      </trkpt>
      <trkpt lat="46.03928" lon="6.17088">
        <ele>742.282</ele>
        <time>2020-05-20T15:09:41Z</time>
      </trkpt>
      <trkpt lat="46.03933" lon="6.17086">
        <ele>741.317</ele>
        <time>2020-05-20T15:09:42Z</time>
      </trkpt>
      <trkpt lat="46.0394" lon="6.17082">
        <ele>740.484</ele>
        <time>2020-05-20T15:09:43Z</time>
      </trkpt>
      <trkpt lat="46.03945" lon="6.17079">
        <ele>739.599</ele>
        <time>2020-05-20T15:09:44Z</time>
      </trkpt>
      <trkpt lat="46.03951" lon="6.17076">
        <ele>738.593</ele>
        <time>2020-05-20T15:09:45Z</time>
      </trkpt>
      <trkpt lat="46.03956" lon="6.17074">
        <ele>737.646</ele>
        <time>2020-05-20T15:09:46Z</time>
      </trkpt>
      <trkpt lat="46.03962" lon="6.17073">
        <ele>736.886</ele>
        <time>2020-05-20T15:09:47Z</time>
      </trkpt>
      <trkpt lat="46.03969" lon="6.17072">
        <ele>736.112</ele>
        <time>2020-05-20T15:09:48Z</time>
      </trkpt>
      <trkpt lat="46.03974" lon="6.17072">
        <ele>735.494</ele>
        <time>2020-05-20T15:09:49Z</time>
      </trkpt>
      <trkpt lat="46.03981" lon="6.17071">
        <ele>734.757</ele>
        <time>2020-05-20T15:09:50Z</time>
      </trkpt>
      <trkpt lat="46.03987" lon="6.17072">
        <ele>734.022</ele>
        <time>2020-05-20T15:09:51Z</time>
      </trkpt>
      <trkpt lat="46.03997" lon="6.17071">
        <ele>733.108</ele>
        <time>2020-05-20T15:09:52Z</time>
      </trkpt>
      <trkpt lat="46.04004" lon="6.17073">
        <ele>733.173</ele>
        <time>2020-05-20T15:09:53Z</time>
      </trkpt>
      <trkpt lat="46.04014" lon="6.17075">
        <ele>732.388</ele>
        <time>2020-05-20T15:09:54Z</time>
      </trkpt>
      <trkpt lat="46.04024" lon="6.17069">
        <ele>731.655</ele>
        <time>2020-05-20T15:09:55Z</time>
      </trkpt>
      <trkpt lat="46.04036" lon="6.17065">
        <ele>730.94</ele>
        <time>2020-05-20T15:09:56Z</time>
      </trkpt>
      <trkpt lat="46.03999" lon="6.17123">
        <ele>730.254</ele>
        <time>2020-05-20T15:09:57Z</time>
      </trkpt>
      <trkpt lat="46.04003" lon="6.1713">
        <ele>729.647</ele>
        <time>2020-05-20T15:09:58Z</time>
      </trkpt>
      <trkpt lat="46.04006" lon="6.17135">
        <ele>729.187</ele>
        <time>2020-05-20T15:09:59Z</time>
      </trkpt>
      <trkpt lat="46.0401" lon="6.17143">
        <ele>728.653</ele>
        <time>2020-05-20T15:10:00Z</time>
      </trkpt>
      <trkpt lat="46.04014" lon="6.17149">
        <ele>728.285</ele>
        <time>2020-05-20T15:10:01Z</time>
      </trkpt>
      <trkpt lat="46.04017" lon="6.17155">
        <ele>728.089</ele>
        <time>2020-05-20T15:10:02Z</time>
      </trkpt>
      <trkpt lat="46.04019" lon="6.17164">
        <ele>728.117</ele>
        <time>2020-05-20T15:10:04Z</time>
      </trkpt>
      <trkpt lat="46.04024" lon="6.17167">
        <ele>728.308</ele>
        <time>2020-05-20T15:10:05Z</time>
      </trkpt>
      <trkpt lat="46.04029" lon="6.17169">
        <ele>728.632</ele>
        <time>2020-05-20T15:10:06Z</time>
      </trkpt>
      <trkpt lat="46.04037" lon="6.17169">
        <ele>729.117</ele>
        <time>2020-05-20T15:10:07Z</time>
      </trkpt>
      <trkpt lat="46.04043" lon="6.17167">
        <ele>730.484</ele>
        <time>2020-05-20T15:10:09Z</time>
      </trkpt>
      <trkpt lat="46.04049" lon="6.17159">
        <ele>732.379</ele>
        <time>2020-05-20T15:10:11Z</time>
      </trkpt>
      <trkpt lat="46.04052" lon="6.17154">
        <ele>733.393</ele>
        <time>2020-05-20T15:10:12Z</time>
      </trkpt>
      <trkpt lat="46.04057" lon="6.17153">
        <ele>736.256</ele>
        <time>2020-05-20T15:10:18Z</time>
      </trkpt>
      <trkpt lat="46.04057" lon="6.17144">
        <ele>736.056</ele>
        <time>2020-05-20T15:10:21Z</time>
      </trkpt>
      <trkpt lat="46.04058" lon="6.17134">
        <ele>736.352</ele>
        <time>2020-05-20T15:10:23Z</time>
      </trkpt>
      <trkpt lat="46.04058" lon="6.17124">
        <ele>736.844</ele>
        <time>2020-05-20T15:10:24Z</time>
      </trkpt>
      <trkpt lat="46.04057" lon="6.1711">
        <ele>737.705</ele>
        <time>2020-05-20T15:10:25Z</time>
      </trkpt>
      <trkpt lat="46.04055" lon="6.17099">
        <ele>738.815</ele>
        <time>2020-05-20T15:10:26Z</time>
      </trkpt>
      <trkpt lat="46.04054" lon="6.17091">
        <ele>740.008</ele>
        <time>2020-05-20T15:10:27Z</time>
      </trkpt>
      <trkpt lat="46.04053" lon="6.17084">
        <ele>742.378</ele>
        <time>2020-05-20T15:10:29Z</time>
      </trkpt>
      <trkpt lat="46.04049" lon="6.17073">
        <ele>743.283</ele>
        <time>2020-05-20T15:10:30Z</time>
      </trkpt>
      <trkpt lat="46.04042" lon="6.17055">
        <ele>744.02</ele>
        <time>2020-05-20T15:10:31Z</time>
      </trkpt>
      <trkpt lat="46.04038" lon="6.17038">
        <ele>744.735</ele>
        <time>2020-05-20T15:10:32Z</time>
      </trkpt>
      <trkpt lat="46.04031" lon="6.17017">
        <ele>745.429</ele>
        <time>2020-05-20T15:10:33Z</time>
      </trkpt>
      <trkpt lat="46.04024" lon="6.17">
        <ele>746.322</ele>
        <time>2020-05-20T15:10:34Z</time>
      </trkpt>
      <trkpt lat="46.04015" lon="6.16983">
        <ele>747.142</ele>
        <time>2020-05-20T15:10:35Z</time>
      </trkpt>
      <trkpt lat="46.04009" lon="6.16973">
        <ele>748.058</ele>
        <time>2020-05-20T15:10:36Z</time>
      </trkpt>
      <trkpt lat="46.04006" lon="6.16964">
        <ele>748.814</ele>
        <time>2020-05-20T15:10:37Z</time>
      </trkpt>
      <trkpt lat="46.04003" lon="6.16953">
        <ele>749.554</ele>
        <time>2020-05-20T15:10:38Z</time>
      </trkpt>
      <trkpt lat="46.04002" lon="6.16936">
        <ele>750.009</ele>
        <time>2020-05-20T15:10:39Z</time>
      </trkpt>
      <trkpt lat="46.04001" lon="6.16921">
        <ele>750.408</ele>
        <time>2020-05-20T15:10:40Z</time>
      </trkpt>
      <trkpt lat="46.03999" lon="6.16903">
        <ele>750.915</ele>
        <time>2020-05-20T15:10:41Z</time>
      </trkpt>
      <trkpt lat="46.03996" lon="6.16883">
        <ele>751.69</ele>
        <time>2020-05-20T15:10:42Z</time>
      </trkpt>
      <trkpt lat="46.03992" lon="6.16862">
        <ele>752.317</ele>
        <time>2020-05-20T15:10:43Z</time>
      </trkpt>
      <trkpt lat="46.03988" lon="6.16844">
        <ele>752.992</ele>
        <time>2020-05-20T15:10:44Z</time>
      </trkpt>
      <trkpt lat="46.03985" lon="6.16829">
        <ele>753.456</ele>
        <time>2020-05-20T15:10:45Z</time>
      </trkpt>
      <trkpt lat="46.03981" lon="6.16815">
        <ele>753.849</ele>
        <time>2020-05-20T15:10:46Z</time>
      </trkpt>
      <trkpt lat="46.03975" lon="6.168">
        <ele>754.139</ele>
        <time>2020-05-20T15:10:47Z</time>
      </trkpt>
      <trkpt lat="46.0397" lon="6.16782">
        <ele>754.435</ele>
        <time>2020-05-20T15:10:48Z</time>
      </trkpt>
      <trkpt lat="46.03965" lon="6.16766">
        <ele>754.815</ele>
        <time>2020-05-20T15:10:49Z</time>
      </trkpt>
      <trkpt lat="46.03961" lon="6.16753">
        <ele>755.365</ele>
        <time>2020-05-20T15:10:50Z</time>
      </trkpt>
      <trkpt lat="46.03958" lon="6.1674">
        <ele>755.911</ele>
        <time>2020-05-20T15:10:51Z</time>
      </trkpt>
      <trkpt lat="46.03958" lon="6.16731">
        <ele>756.308</ele>
        <time>2020-05-20T15:10:52Z</time>
      </trkpt>
      <trkpt lat="46.03959" lon="6.16725">
        <ele>756.985</ele>
        <time>2020-05-20T15:10:53Z</time>
      </trkpt>
      <trkpt lat="46.03966" lon="6.1672">
        <ele>757.95</ele>
        <time>2020-05-20T15:10:55Z</time>
      </trkpt>
      <trkpt lat="46.03972" lon="6.16721">
        <ele>758.467</ele>
        <time>2020-05-20T15:10:56Z</time>
      </trkpt>
      <trkpt lat="46.03979" lon="6.16723">
        <ele>759.182</ele>
        <time>2020-05-20T15:10:57Z</time>
      </trkpt>
      <trkpt lat="46.0399" lon="6.16724">
        <ele>759.946</ele>
        <time>2020-05-20T15:10:58Z</time>
      </trkpt>
      <trkpt lat="46.04003" lon="6.16725">
        <ele>760.819</ele>
        <time>2020-05-20T15:10:59Z</time>
      </trkpt>
      <trkpt lat="46.04016" lon="6.16729">
        <ele>762.089</ele>
        <time>2020-05-20T15:11:00Z</time>
      </trkpt>
      <trkpt lat="46.04026" lon="6.16732">
        <ele>763.595</ele>
        <time>2020-05-20T15:11:01Z</time>
      </trkpt>
      <trkpt lat="46.04036" lon="6.16733">
        <ele>764.862</ele>
        <time>2020-05-20T15:11:02Z</time>
      </trkpt>
      <trkpt lat="46.04047" lon="6.16733">
        <ele>766.283</ele>
        <time>2020-05-20T15:11:03Z</time>
      </trkpt>
      <trkpt lat="46.04059" lon="6.1673">
        <ele>767.611</ele>
        <time>2020-05-20T15:11:04Z</time>
      </trkpt>
      <trkpt lat="46.04072" lon="6.16724">
        <ele>768.708</ele>
        <time>2020-05-20T15:11:05Z</time>
      </trkpt>
      <trkpt lat="46.04087" lon="6.16722">
        <ele>769.65</ele>
        <time>2020-05-20T15:11:06Z</time>
      </trkpt>
      <trkpt lat="46.04098" lon="6.16721">
        <ele>770.875</ele>
        <time>2020-05-20T15:11:07Z</time>
      </trkpt>
      <trkpt lat="46.0411" lon="6.16718">
        <ele>771.752</ele>
        <time>2020-05-20T15:11:08Z</time>
      </trkpt>
      <trkpt lat="46.04122" lon="6.16717">
        <ele>772.477</ele>
        <time>2020-05-20T15:11:09Z</time>
      </trkpt>
      <trkpt lat="46.04134" lon="6.16717">
        <ele>773.241</ele>
        <time>2020-05-20T15:11:10Z</time>
      </trkpt>
      <trkpt lat="46.04146" lon="6.16716">
        <ele>773.694</ele>
        <time>2020-05-20T15:11:11Z</time>
      </trkpt>
      <trkpt lat="46.04156" lon="6.16715">
        <ele>773.664</ele>
        <time>2020-05-20T15:11:12Z</time>
      </trkpt>
      <trkpt lat="46.04166" lon="6.16715">
        <ele>773.96</ele>
        <time>2020-05-20T15:11:13Z</time>
      </trkpt>
      <trkpt lat="46.04178" lon="6.16716">
        <ele>774.376</ele>
        <time>2020-05-20T15:11:14Z</time>
      </trkpt>
      <trkpt lat="46.04191" lon="6.16718">
        <ele>774.69</ele>
        <time>2020-05-20T15:11:15Z</time>
      </trkpt>
      <trkpt lat="46.04206" lon="6.16721">
        <ele>775.119</ele>
        <time>2020-05-20T15:11:16Z</time>
      </trkpt>
      <trkpt lat="46.0422" lon="6.16725">
        <ele>775.408</ele>
        <time>2020-05-20T15:11:17Z</time>
      </trkpt>
      <trkpt lat="46.04232" lon="6.1673">
        <ele>775.481</ele>
        <time>2020-05-20T15:11:18Z</time>
      </trkpt>
      <trkpt lat="46.04244" lon="6.16734">
        <ele>775.576</ele>
        <time>2020-05-20T15:11:19Z</time>
      </trkpt>
      <trkpt lat="46.04254" lon="6.16738">
        <ele>775.553</ele>
        <time>2020-05-20T15:11:20Z</time>
      </trkpt>
      <trkpt lat="46.04265" lon="6.16741">
        <ele>775.788</ele>
        <time>2020-05-20T15:11:21Z</time>
      </trkpt>
      <trkpt lat="46.04273" lon="6.16744">
        <ele>776.162</ele>
        <time>2020-05-20T15:11:22Z</time>
      </trkpt>
      <trkpt lat="46.04281" lon="6.16746">
        <ele>776.585</ele>
        <time>2020-05-20T15:11:23Z</time>
      </trkpt>
      <trkpt lat="46.04287" lon="6.16747">
        <ele>776.875</ele>
        <time>2020-05-20T15:11:24Z</time>
      </trkpt>
      <trkpt lat="46.04293" lon="6.16747">
        <ele>777.011</ele>
        <time>2020-05-20T15:11:25Z</time>
      </trkpt>
      <trkpt lat="46.04298" lon="6.16745">
        <ele>777.273</ele>
        <time>2020-05-20T15:11:26Z</time>
      </trkpt>
      <trkpt lat="46.04302" lon="6.16741">
        <ele>777.285</ele>
        <time>2020-05-20T15:11:27Z</time>
      </trkpt>
      <trkpt lat="46.04305" lon="6.16734">
        <ele>777.113</ele>
        <time>2020-05-20T15:11:28Z</time>
      </trkpt>
      <trkpt lat="46.04308" lon="6.16724">
        <ele>777.008</ele>
        <time>2020-05-20T15:11:29Z</time>
      </trkpt>
      <trkpt lat="46.04311" lon="6.16717">
        <ele>776.821</ele>
        <time>2020-05-20T15:11:30Z</time>
      </trkpt>
      <trkpt lat="46.04315" lon="6.16709">
        <ele>776.416</ele>
        <time>2020-05-20T15:11:31Z</time>
      </trkpt>
      <trkpt lat="46.04318" lon="6.16704">
        <ele>776.023</ele>
        <time>2020-05-20T15:11:32Z</time>
      </trkpt>
      <trkpt lat="46.04323" lon="6.16697">
        <ele>775.678</ele>
        <time>2020-05-20T15:11:33Z</time>
      </trkpt>
      <trkpt lat="46.04327" lon="6.16693">
        <ele>775.232</ele>
        <time>2020-05-20T15:11:34Z</time>
      </trkpt>
      <trkpt lat="46.04332" lon="6.16689">
        <ele>774.845</ele>
        <time>2020-05-20T15:11:35Z</time>
      </trkpt>
      <trkpt lat="46.04339" lon="6.16689">
        <ele>774.655</ele>
        <time>2020-05-20T15:11:36Z</time>
      </trkpt>
      <trkpt lat="46.04344" lon="6.16689">
        <ele>774.571</ele>
        <time>2020-05-20T15:11:37Z</time>
      </trkpt>
      <trkpt lat="46.0435" lon="6.1669">
        <ele>774.468</ele>
        <time>2020-05-20T15:11:38Z</time>
      </trkpt>
      <trkpt lat="46.04355" lon="6.1669">
        <ele>774.442</ele>
        <time>2020-05-20T15:11:39Z</time>
      </trkpt>
      <trkpt lat="46.04363" lon="6.16689">
        <ele>774.426</ele>
        <time>2020-05-20T15:11:41Z</time>
      </trkpt>
      <trkpt lat="46.04371" lon="6.16681">
        <ele>774.308</ele>
        <time>2020-05-20T15:11:43Z</time>
      </trkpt>
      <trkpt lat="46.04376" lon="6.16676">
        <ele>774.13</ele>
        <time>2020-05-20T15:11:44Z</time>
      </trkpt>
      <trkpt lat="46.04383" lon="6.16673">
        <ele>773.945</ele>
        <time>2020-05-20T15:11:46Z</time>
      </trkpt>
      <trkpt lat="46.04385" lon="6.16679">
        <ele>773.912</ele>
        <time>2020-05-20T15:11:47Z</time>
      </trkpt>
      <trkpt lat="46.04389" lon="6.16687">
        <ele>774.197</ele>
        <time>2020-05-20T15:11:48Z</time>
      </trkpt>
      <trkpt lat="46.04394" lon="6.16698">
        <ele>774.411</ele>
        <time>2020-05-20T15:11:49Z</time>
      </trkpt>
      <trkpt lat="46.04398" lon="6.16709">
        <ele>775.054</ele>
        <time>2020-05-20T15:11:50Z</time>
      </trkpt>
      <trkpt lat="46.04404" lon="6.16722">
        <ele>775.634</ele>
        <time>2020-05-20T15:11:51Z</time>
      </trkpt>
      <trkpt lat="46.0441" lon="6.16736">
        <ele>776.31</ele>
        <time>2020-05-20T15:11:52Z</time>
      </trkpt>
      <trkpt lat="46.04415" lon="6.16751">
        <ele>777.395</ele>
        <time>2020-05-20T15:11:53Z</time>
      </trkpt>
      <trkpt lat="46.04422" lon="6.16766">
        <ele>778.449</ele>
        <time>2020-05-20T15:11:54Z</time>
      </trkpt>
      <trkpt lat="46.04428" lon="6.16783">
        <ele>779.723</ele>
        <time>2020-05-20T15:11:55Z</time>
      </trkpt>
      <trkpt lat="46.04433" lon="6.16799">
        <ele>781.208</ele>
        <time>2020-05-20T15:11:56Z</time>
      </trkpt>
      <trkpt lat="46.04437" lon="6.16816">
        <ele>782.643</ele>
        <time>2020-05-20T15:11:57Z</time>
      </trkpt>
      <trkpt lat="46.04443" lon="6.16831">
        <ele>784.068</ele>
        <time>2020-05-20T15:11:58Z</time>
      </trkpt>
      <trkpt lat="46.04448" lon="6.16846">
        <ele>785.685</ele>
        <time>2020-05-20T15:11:59Z</time>
      </trkpt>
      <trkpt lat="46.04453" lon="6.16861">
        <ele>787.05</ele>
        <time>2020-05-20T15:12:00Z</time>
      </trkpt>
      <trkpt lat="46.04458" lon="6.16876">
        <ele>788.164</ele>
        <time>2020-05-20T15:12:01Z</time>
      </trkpt>
      <trkpt lat="46.04461" lon="6.16895">
        <ele>789.137</ele>
        <time>2020-05-20T15:12:02Z</time>
      </trkpt>
      <trkpt lat="46.04461" lon="6.16917">
        <ele>790.067</ele>
        <time>2020-05-20T15:12:03Z</time>
      </trkpt>
      <trkpt lat="46.04461" lon="6.16939">
        <ele>790.813</ele>
        <time>2020-05-20T15:12:04Z</time>
      </trkpt>
      <trkpt lat="46.04463" lon="6.16961">
        <ele>791.786</ele>
        <time>2020-05-20T15:12:05Z</time>
      </trkpt>
      <trkpt lat="46.04463" lon="6.16984">
        <ele>792.76</ele>
        <time>2020-05-20T15:12:06Z</time>
      </trkpt>
      <trkpt lat="46.04464" lon="6.17008">
        <ele>793.726</ele>
        <time>2020-05-20T15:12:07Z</time>
      </trkpt>
      <trkpt lat="46.04466" lon="6.17033">
        <ele>795.008</ele>
        <time>2020-05-20T15:12:08Z</time>
      </trkpt>
      <trkpt lat="46.04467" lon="6.17055">
        <ele>796.252</ele>
        <time>2020-05-20T15:12:09Z</time>
      </trkpt>
      <trkpt lat="46.04467" lon="6.17075">
        <ele>797.287</ele>
        <time>2020-05-20T15:12:10Z</time>
      </trkpt>
      <trkpt lat="46.04467" lon="6.17095">
        <ele>798.174</ele>
        <time>2020-05-20T15:12:11Z</time>
      </trkpt>
      <trkpt lat="46.04467" lon="6.17116">
        <ele>798.899</ele>
        <time>2020-05-20T15:12:12Z</time>
      </trkpt>
      <trkpt lat="46.04467" lon="6.17137">
        <ele>799.373</ele>
        <time>2020-05-20T15:12:13Z</time>
      </trkpt>
      <trkpt lat="46.04468" lon="6.1716">
        <ele>799.336</ele>
        <time>2020-05-20T15:12:14Z</time>
      </trkpt>
      <trkpt lat="46.04469" lon="6.17182">
        <ele>799.126</ele>
        <time>2020-05-20T15:12:15Z</time>
      </trkpt>
      <trkpt lat="46.04473" lon="6.17205">
        <ele>798.942</ele>
        <time>2020-05-20T15:12:16Z</time>
      </trkpt>
      <trkpt lat="46.04479" lon="6.17225">
        <ele>798.824</ele>
        <time>2020-05-20T15:12:17Z</time>
      </trkpt>
      <trkpt lat="46.04488" lon="6.17244">
        <ele>798.804</ele>
        <time>2020-05-20T15:12:18Z</time>
      </trkpt>
      <trkpt lat="46.04499" lon="6.17261">
        <ele>799.414</ele>
        <time>2020-05-20T15:12:19Z</time>
      </trkpt>
      <trkpt lat="46.04512" lon="6.17274">
        <ele>800.908</ele>
        <time>2020-05-20T15:12:20Z</time>
      </trkpt>
      <trkpt lat="46.04526" lon="6.17285">
        <ele>801.616</ele>
        <time>2020-05-20T15:12:21Z</time>
      </trkpt>
      <trkpt lat="46.04537" lon="6.17298">
        <ele>802.111</ele>
        <time>2020-05-20T15:12:22Z</time>
      </trkpt>
      <trkpt lat="46.04548" lon="6.17315">
        <ele>802.718</ele>
        <time>2020-05-20T15:12:23Z</time>
      </trkpt>
      <trkpt lat="46.04557" lon="6.17335">
        <ele>802.893</ele>
        <time>2020-05-20T15:12:24Z</time>
      </trkpt>
      <trkpt lat="46.04563" lon="6.17359">
        <ele>803.047</ele>
        <time>2020-05-20T15:12:25Z</time>
      </trkpt>
      <trkpt lat="46.04566" lon="6.17384">
        <ele>803.33</ele>
        <time>2020-05-20T15:12:26Z</time>
      </trkpt>
      <trkpt lat="46.04567" lon="6.1741">
        <ele>804.57</ele>
        <time>2020-05-20T15:12:27Z</time>
      </trkpt>
      <trkpt lat="46.04569" lon="6.17438">
        <ele>805.946</ele>
        <time>2020-05-20T15:12:28Z</time>
      </trkpt>
      <trkpt lat="46.04571" lon="6.1746">
        <ele>808.347</ele>
        <time>2020-05-20T15:12:29Z</time>
      </trkpt>
      <trkpt lat="46.04573" lon="6.17478">
        <ele>810.529</ele>
        <time>2020-05-20T15:12:30Z</time>
      </trkpt>
      <trkpt lat="46.04577" lon="6.17492">
        <ele>812.521</ele>
        <time>2020-05-20T15:12:31Z</time>
      </trkpt>
      <trkpt lat="46.04581" lon="6.17504">
        <ele>813.408</ele>
        <time>2020-05-20T15:12:32Z</time>
      </trkpt>
      <trkpt lat="46.04586" lon="6.17514">
        <ele>813.718</ele>
        <time>2020-05-20T15:12:33Z</time>
      </trkpt>
      <trkpt lat="46.04592" lon="6.17519">
        <ele>813.783</ele>
        <time>2020-05-20T15:12:34Z</time>
      </trkpt>
      <trkpt lat="46.04598" lon="6.17519">
        <ele>813.31</ele>
        <time>2020-05-20T15:12:35Z</time>
      </trkpt>
      <trkpt lat="46.04607" lon="6.17518">
        <ele>813.095</ele>
        <time>2020-05-20T15:12:36Z</time>
      </trkpt>
      <trkpt lat="46.0462" lon="6.17516">
        <ele>813.019</ele>
        <time>2020-05-20T15:12:37Z</time>
      </trkpt>
      <trkpt lat="46.04631" lon="6.17516">
        <ele>813.042</ele>
        <time>2020-05-20T15:12:38Z</time>
      </trkpt>
      <trkpt lat="46.04642" lon="6.17515">
        <ele>813.022</ele>
        <time>2020-05-20T15:12:39Z</time>
      </trkpt>
      <trkpt lat="46.04656" lon="6.17507">
        <ele>813.168</ele>
        <time>2020-05-20T15:12:40Z</time>
      </trkpt>
      <trkpt lat="46.04673" lon="6.17498">
        <ele>813.227</ele>
        <time>2020-05-20T15:12:41Z</time>
      </trkpt>
      <trkpt lat="46.04686" lon="6.17488">
        <ele>813.568</ele>
        <time>2020-05-20T15:12:42Z</time>
      </trkpt>
      <trkpt lat="46.04697" lon="6.17478">
        <ele>814.514</ele>
        <time>2020-05-20T15:12:43Z</time>
      </trkpt>
      <trkpt lat="46.0471" lon="6.17473">
        <ele>815.308</ele>
        <time>2020-05-20T15:12:44Z</time>
      </trkpt>
      <trkpt lat="46.04722" lon="6.17469">
        <ele>816.446</ele>
        <time>2020-05-20T15:12:45Z</time>
      </trkpt>
      <trkpt lat="46.04734" lon="6.17468">
        <ele>817.451</ele>
        <time>2020-05-20T15:12:46Z</time>
      </trkpt>
      <trkpt lat="46.0475" lon="6.1747">
        <ele>817.888</ele>
        <time>2020-05-20T15:12:47Z</time>
      </trkpt>
      <trkpt lat="46.04764" lon="6.17475">
        <ele>817.813</ele>
        <time>2020-05-20T15:12:48Z</time>
      </trkpt>
      <trkpt lat="46.04779" lon="6.17482">
        <ele>817.827</ele>
        <time>2020-05-20T15:12:49Z</time>
      </trkpt>
      <trkpt lat="46.04794" lon="6.17489">
        <ele>818.29</ele>
        <time>2020-05-20T15:12:50Z</time>
      </trkpt>
      <trkpt lat="46.04809" lon="6.17491">
        <ele>818.22</ele>
        <time>2020-05-20T15:12:51Z</time>
      </trkpt>
      <trkpt lat="46.04824" lon="6.17488">
        <ele>818.226</ele>
        <time>2020-05-20T15:12:52Z</time>
      </trkpt>
      <trkpt lat="46.04836" lon="6.17485">
        <ele>818.996</ele>
        <time>2020-05-20T15:12:53Z</time>
      </trkpt>
      <trkpt lat="46.04847" lon="6.17483">
        <ele>819.631</ele>
        <time>2020-05-20T15:12:54Z</time>
      </trkpt>
      <trkpt lat="46.04859" lon="6.17485">
        <ele>820.124</ele>
        <time>2020-05-20T15:12:56Z</time>
      </trkpt>
      <trkpt lat="46.04865" lon="6.17487">
        <ele>820.508</ele>
        <time>2020-05-20T15:12:57Z</time>
      </trkpt>
      <trkpt lat="46.0487" lon="6.17491">
        <ele>820.783</ele>
        <time>2020-05-20T15:12:58Z</time>
      </trkpt>
      <trkpt lat="46.04875" lon="6.17499">
        <ele>820.758</ele>
        <time>2020-05-20T15:12:59Z</time>
      </trkpt>
      <trkpt lat="46.04881" lon="6.1751">
        <ele>820.725</ele>
        <time>2020-05-20T15:13:00Z</time>
      </trkpt>
      <trkpt lat="46.04887" lon="6.17521">
        <ele>820.77</ele>
        <time>2020-05-20T15:13:01Z</time>
      </trkpt>
      <trkpt lat="46.04896" lon="6.17537">
        <ele>820.784</ele>
        <time>2020-05-20T15:13:02Z</time>
      </trkpt>
      <trkpt lat="46.04901" lon="6.17556">
        <ele>821.057</ele>
        <time>2020-05-20T15:13:03Z</time>
      </trkpt>
      <trkpt lat="46.04907" lon="6.17576">
        <ele>821.547</ele>
        <time>2020-05-20T15:13:04Z</time>
      </trkpt>
      <trkpt lat="46.04914" lon="6.17598">
        <ele>822.163</ele>
        <time>2020-05-20T15:13:05Z</time>
      </trkpt>
      <trkpt lat="46.04918" lon="6.17614">
        <ele>822.745</ele>
        <time>2020-05-20T15:13:06Z</time>
      </trkpt>
      <trkpt lat="46.04922" lon="6.17626">
        <ele>823.547</ele>
        <time>2020-05-20T15:13:07Z</time>
      </trkpt>
      <trkpt lat="46.04929" lon="6.17637">
        <ele>823.511</ele>
        <time>2020-05-20T15:13:08Z</time>
      </trkpt>
      <trkpt lat="46.04937" lon="6.17646">
        <ele>823.308</ele>
        <time>2020-05-20T15:13:09Z</time>
      </trkpt>
      <trkpt lat="46.04944" lon="6.17652">
        <ele>822.868</ele>
        <time>2020-05-20T15:13:10Z</time>
      </trkpt>
      <trkpt lat="46.0495" lon="6.17659">
        <ele>822.043</ele>
        <time>2020-05-20T15:13:11Z</time>
      </trkpt>
      <trkpt lat="46.04954" lon="6.17668">
        <ele>820.62</ele>
        <time>2020-05-20T15:13:12Z</time>
      </trkpt>
      <trkpt lat="46.04957" lon="6.17681">
        <ele>819.575</ele>
        <time>2020-05-20T15:13:13Z</time>
      </trkpt>
      <trkpt lat="46.04958" lon="6.17694">
        <ele>818.569</ele>
        <time>2020-05-20T15:13:14Z</time>
      </trkpt>
      <trkpt lat="46.04957" lon="6.17706">
        <ele>817.482</ele>
        <time>2020-05-20T15:13:15Z</time>
      </trkpt>
      <trkpt lat="46.04955" lon="6.17716">
        <ele>816.312</ele>
        <time>2020-05-20T15:13:16Z</time>
      </trkpt>
      <trkpt lat="46.04952" lon="6.17723">
        <ele>815.378</ele>
        <time>2020-05-20T15:13:17Z</time>
      </trkpt>
      <trkpt lat="46.0495" lon="6.1773">
        <ele>814.361</ele>
        <time>2020-05-20T15:13:18Z</time>
      </trkpt>
      <trkpt lat="46.04945" lon="6.17743">
        <ele>812.421</ele>
        <time>2020-05-20T15:13:20Z</time>
      </trkpt>
      <trkpt lat="46.04941" lon="6.17752">
        <ele>811.813</ele>
        <time>2020-05-20T15:13:21Z</time>
      </trkpt>
      <trkpt lat="46.04936" lon="6.17762">
        <ele>811.808</ele>
        <time>2020-05-20T15:13:22Z</time>
      </trkpt>
      <trkpt lat="46.04937" lon="6.17773">
        <ele>811.96</ele>
        <time>2020-05-20T15:13:23Z</time>
      </trkpt>
      <trkpt lat="46.04942" lon="6.17786">
        <ele>812.135</ele>
        <time>2020-05-20T15:13:24Z</time>
      </trkpt>
      <trkpt lat="46.04943" lon="6.17801">
        <ele>812.492</ele>
        <time>2020-05-20T15:13:25Z</time>
      </trkpt>
      <trkpt lat="46.04943" lon="6.17821">
        <ele>812.417</ele>
        <time>2020-05-20T15:13:26Z</time>
      </trkpt>
      <trkpt lat="46.04945" lon="6.17836">
        <ele>812.111</ele>
        <time>2020-05-20T15:13:27Z</time>
      </trkpt>
      <trkpt lat="46.0495" lon="6.17851">
        <ele>811.244</ele>
        <time>2020-05-20T15:13:28Z</time>
      </trkpt>
      <trkpt lat="46.04956" lon="6.17853">
        <ele>810.444</ele>
        <time>2020-05-20T15:13:29Z</time>
      </trkpt>
      <trkpt lat="46.04967" lon="6.17861">
        <ele>809.51</ele>
        <time>2020-05-20T15:13:30Z</time>
      </trkpt>
      <trkpt lat="46.04979" lon="6.17862">
        <ele>808.784</ele>
        <time>2020-05-20T15:13:31Z</time>
      </trkpt>
      <trkpt lat="46.04991" lon="6.1786">
        <ele>807.707</ele>
        <time>2020-05-20T15:13:32Z</time>
      </trkpt>
      <trkpt lat="46.05003" lon="6.17857">
        <ele>807.317</ele>
        <time>2020-05-20T15:13:33Z</time>
      </trkpt>
      <trkpt lat="46.05013" lon="6.17854">
        <ele>806.808</ele>
        <time>2020-05-20T15:13:34Z</time>
      </trkpt>
      <trkpt lat="46.05023" lon="6.17851">
        <ele>806.442</ele>
        <time>2020-05-20T15:13:35Z</time>
      </trkpt>
      <trkpt lat="46.05032" lon="6.17849">
        <ele>806.227</ele>
        <time>2020-05-20T15:13:36Z</time>
      </trkpt>
      <trkpt lat="46.05042" lon="6.17848">
        <ele>806.234</ele>
        <time>2020-05-20T15:13:37Z</time>
      </trkpt>
      <trkpt lat="46.05051" lon="6.17846">
        <ele>806.299</ele>
        <time>2020-05-20T15:13:38Z</time>
      </trkpt>
      <trkpt lat="46.05061" lon="6.17844">
        <ele>806.393</ele>
        <time>2020-05-20T15:13:39Z</time>
      </trkpt>
      <trkpt lat="46.05071" lon="6.17842">
        <ele>806.686</ele>
        <time>2020-05-20T15:13:40Z</time>
      </trkpt>
      <trkpt lat="46.05082" lon="6.1784">
        <ele>806.916</ele>
        <time>2020-05-20T15:13:41Z</time>
      </trkpt>
      <trkpt lat="46.05092" lon="6.17838">
        <ele>807.162</ele>
        <time>2020-05-20T15:13:42Z</time>
      </trkpt>
      <trkpt lat="46.05103" lon="6.17836">
        <ele>807.399</ele>
        <time>2020-05-20T15:13:43Z</time>
      </trkpt>
      <trkpt lat="46.05114" lon="6.17834">
        <ele>807.307</ele>
        <time>2020-05-20T15:13:44Z</time>
      </trkpt>
      <trkpt lat="46.05124" lon="6.17832">
        <ele>807.327</ele>
        <time>2020-05-20T15:13:45Z</time>
      </trkpt>
      <trkpt lat="46.05135" lon="6.17829">
        <ele>807.208</ele>
        <time>2020-05-20T15:13:46Z</time>
      </trkpt>
      <trkpt lat="46.05144" lon="6.17827">
        <ele>807.253</ele>
        <time>2020-05-20T15:13:47Z</time>
      </trkpt>
      <trkpt lat="46.05155" lon="6.17825">
        <ele>807.478</ele>
        <time>2020-05-20T15:13:48Z</time>
      </trkpt>
      <trkpt lat="46.05163" lon="6.17823">
        <ele>807.555</ele>
        <time>2020-05-20T15:13:49Z</time>
      </trkpt>
      <trkpt lat="46.05173" lon="6.17822">
        <ele>807.75</ele>
        <time>2020-05-20T15:13:50Z</time>
      </trkpt>
      <trkpt lat="46.05182" lon="6.17819">
        <ele>807.914</ele>
        <time>2020-05-20T15:13:51Z</time>
      </trkpt>
      <trkpt lat="46.0519" lon="6.17818">
        <ele>808.387</ele>
        <time>2020-05-20T15:13:52Z</time>
      </trkpt>
      <trkpt lat="46.05198" lon="6.17817">
        <ele>808.417</ele>
        <time>2020-05-20T15:13:53Z</time>
      </trkpt>
      <trkpt lat="46.05206" lon="6.17816">
        <ele>808.733</ele>
        <time>2020-05-20T15:13:54Z</time>
      </trkpt>
      <trkpt lat="46.05214" lon="6.17816">
        <ele>809.079</ele>
        <time>2020-05-20T15:13:55Z</time>
      </trkpt>
      <trkpt lat="46.05224" lon="6.17816">
        <ele>809.205</ele>
        <time>2020-05-20T15:13:56Z</time>
      </trkpt>
      <trkpt lat="46.05234" lon="6.17819">
        <ele>809.525</ele>
        <time>2020-05-20T15:13:57Z</time>
      </trkpt>
      <trkpt lat="46.05244" lon="6.17826">
        <ele>809.808</ele>
        <time>2020-05-20T15:13:58Z</time>
      </trkpt>
      <trkpt lat="46.05255" lon="6.17836">
        <ele>810.471</ele>
        <time>2020-05-20T15:13:59Z</time>
      </trkpt>
      <trkpt lat="46.05266" lon="6.17845">
        <ele>811.036</ele>
        <time>2020-05-20T15:14:00Z</time>
      </trkpt>
      <trkpt lat="46.05275" lon="6.17853">
        <ele>811.863</ele>
        <time>2020-05-20T15:14:01Z</time>
      </trkpt>
      <trkpt lat="46.05284" lon="6.17862">
        <ele>812.228</ele>
        <time>2020-05-20T15:14:02Z</time>
      </trkpt>
      <trkpt lat="46.05294" lon="6.1787">
        <ele>812.862</ele>
        <time>2020-05-20T15:14:03Z</time>
      </trkpt>
      <trkpt lat="46.05303" lon="6.17882">
        <ele>813.575</ele>
        <time>2020-05-20T15:14:04Z</time>
      </trkpt>
      <trkpt lat="46.05313" lon="6.17894">
        <ele>814.495</ele>
        <time>2020-05-20T15:14:05Z</time>
      </trkpt>
      <trkpt lat="46.05323" lon="6.17909">
        <ele>815.691</ele>
        <time>2020-05-20T15:14:06Z</time>
      </trkpt>
      <trkpt lat="46.05333" lon="6.17926">
        <ele>816.911</ele>
        <time>2020-05-20T15:14:07Z</time>
      </trkpt>
      <trkpt lat="46.05343" lon="6.17945">
        <ele>818.221</ele>
        <time>2020-05-20T15:14:08Z</time>
      </trkpt>
      <trkpt lat="46.05352" lon="6.17964">
        <ele>819.603</ele>
        <time>2020-05-20T15:14:09Z</time>
      </trkpt>
      <trkpt lat="46.05362" lon="6.17984">
        <ele>820.808</ele>
        <time>2020-05-20T15:14:10Z</time>
      </trkpt>
      <trkpt lat="46.0537" lon="6.18006">
        <ele>821.745</ele>
        <time>2020-05-20T15:14:11Z</time>
      </trkpt>
      <trkpt lat="46.05378" lon="6.18027">
        <ele>823.15</ele>
        <time>2020-05-20T15:14:12Z</time>
      </trkpt>
      <trkpt lat="46.05387" lon="6.18049">
        <ele>824.767</ele>
        <time>2020-05-20T15:14:13Z</time>
      </trkpt>
      <trkpt lat="46.05395" lon="6.18069">
        <ele>826.052</ele>
        <time>2020-05-20T15:14:14Z</time>
      </trkpt>
      <trkpt lat="46.05403" lon="6.18088">
        <ele>826.876</ele>
        <time>2020-05-20T15:14:15Z</time>
      </trkpt>
      <trkpt lat="46.05411" lon="6.18107">
        <ele>828.059</ele>
        <time>2020-05-20T15:14:16Z</time>
      </trkpt>
      <trkpt lat="46.05418" lon="6.18126">
        <ele>828.859</ele>
        <time>2020-05-20T15:14:17Z</time>
      </trkpt>
      <trkpt lat="46.05425" lon="6.18145">
        <ele>829.555</ele>
        <time>2020-05-20T15:14:18Z</time>
      </trkpt>
      <trkpt lat="46.05433" lon="6.18164">
        <ele>830.449</ele>
        <time>2020-05-20T15:14:19Z</time>
      </trkpt>
      <trkpt lat="46.05441" lon="6.18186">
        <ele>831.602</ele>
        <time>2020-05-20T15:14:20Z</time>
      </trkpt>
      <trkpt lat="46.05449" lon="6.18206">
        <ele>833.022</ele>
        <time>2020-05-20T15:14:21Z</time>
      </trkpt>
      <trkpt lat="46.05455" lon="6.18224">
        <ele>834.408</ele>
        <time>2020-05-20T15:14:22Z</time>
      </trkpt>
      <trkpt lat="46.0546" lon="6.18241">
        <ele>836.048</ele>
        <time>2020-05-20T15:14:23Z</time>
      </trkpt>
      <trkpt lat="46.05465" lon="6.18253">
        <ele>837.823</ele>
        <time>2020-05-20T15:14:24Z</time>
      </trkpt>
      <trkpt lat="46.05468" lon="6.18263">
        <ele>839.69</ele>
        <time>2020-05-20T15:14:25Z</time>
      </trkpt>
      <trkpt lat="46.05471" lon="6.1827">
        <ele>841.135</ele>
        <time>2020-05-20T15:14:26Z</time>
      </trkpt>
      <trkpt lat="46.05473" lon="6.18282">
        <ele>843.539</ele>
        <time>2020-05-20T15:14:29Z</time>
      </trkpt>
      <trkpt lat="46.05475" lon="6.18291">
        <ele>843.822</ele>
        <time>2020-05-20T15:14:30Z</time>
      </trkpt>
      <trkpt lat="46.05475" lon="6.183">
        <ele>844.232</ele>
        <time>2020-05-20T15:14:31Z</time>
      </trkpt>
      <trkpt lat="46.05476" lon="6.18309">
        <ele>844.638</ele>
        <time>2020-05-20T15:14:32Z</time>
      </trkpt>
      <trkpt lat="46.05478" lon="6.18318">
        <ele>845.236</ele>
        <time>2020-05-20T15:14:33Z</time>
      </trkpt>
      <trkpt lat="46.05478" lon="6.18329">
        <ele>846.417</ele>
        <time>2020-05-20T15:14:35Z</time>
      </trkpt>
      <trkpt lat="46.05474" lon="6.18335">
        <ele>847.918</ele>
        <time>2020-05-20T15:14:37Z</time>
      </trkpt>
      <trkpt lat="46.0547" lon="6.18339">
        <ele>848.908</ele>
        <time>2020-05-20T15:14:38Z</time>
      </trkpt>
      <trkpt lat="46.05466" lon="6.18348">
        <ele>851.317</ele>
        <time>2020-05-20T15:14:40Z</time>
      </trkpt>
      <trkpt lat="46.05468" lon="6.18355">
        <ele>853.822</ele>
        <time>2020-05-20T15:14:42Z</time>
      </trkpt>
      <trkpt lat="46.05475" lon="6.1836">
        <ele>855.999</ele>
        <time>2020-05-20T15:14:44Z</time>
      </trkpt>
      <trkpt lat="46.05482" lon="6.18366">
        <ele>857.044</ele>
        <time>2020-05-20T15:14:45Z</time>
      </trkpt>
      <trkpt lat="46.05486" lon="6.18373">
        <ele>858.148</ele>
        <time>2020-05-20T15:14:46Z</time>
      </trkpt>
      <trkpt lat="46.05489" lon="6.18381">
        <ele>859.361</ele>
        <time>2020-05-20T15:14:47Z</time>
      </trkpt>
      <trkpt lat="46.05491" lon="6.1839">
        <ele>860.691</ele>
        <time>2020-05-20T15:14:48Z</time>
      </trkpt>
      <trkpt lat="46.05493" lon="6.18399">
        <ele>861.997</ele>
        <time>2020-05-20T15:14:49Z</time>
      </trkpt>
      <trkpt lat="46.05496" lon="6.18412">
        <ele>863.238</ele>
        <time>2020-05-20T15:14:50Z</time>
      </trkpt>
      <trkpt lat="46.05498" lon="6.18422">
        <ele>864.57</ele>
        <time>2020-05-20T15:14:51Z</time>
      </trkpt>
      <trkpt lat="46.05498" lon="6.18433">
        <ele>865.817</ele>
        <time>2020-05-20T15:14:52Z</time>
      </trkpt>
      <trkpt lat="46.05498" lon="6.18443">
        <ele>867.108</ele>
        <time>2020-05-20T15:14:53Z</time>
      </trkpt>
      <trkpt lat="46.05498" lon="6.18454">
        <ele>868.587</ele>
        <time>2020-05-20T15:14:54Z</time>
      </trkpt>
      <trkpt lat="46.05499" lon="6.18467">
        <ele>869.932</ele>
        <time>2020-05-20T15:14:55Z</time>
      </trkpt>
      <trkpt lat="46.05502" lon="6.18481">
        <ele>871.779</ele>
        <time>2020-05-20T15:14:56Z</time>
      </trkpt>
      <trkpt lat="46.05503" lon="6.18493">
        <ele>873.554</ele>
        <time>2020-05-20T15:14:57Z</time>
      </trkpt>
      <trkpt lat="46.05501" lon="6.18502">
        <ele>875.578</ele>
        <time>2020-05-20T15:14:58Z</time>
      </trkpt>
      <trkpt lat="46.05499" lon="6.18513">
        <ele>877.541</ele>
        <time>2020-05-20T15:14:59Z</time>
      </trkpt>
      <trkpt lat="46.05498" lon="6.18523">
        <ele>879.641</ele>
        <time>2020-05-20T15:15:00Z</time>
      </trkpt>
      <trkpt lat="46.05498" lon="6.18531">
        <ele>881.497</ele>
        <time>2020-05-20T15:15:01Z</time>
      </trkpt>
      <trkpt lat="46.05498" lon="6.18542">
        <ele>883.196</ele>
        <time>2020-05-20T15:15:02Z</time>
      </trkpt>
      <trkpt lat="46.05495" lon="6.18551">
        <ele>884.831</ele>
        <time>2020-05-20T15:15:03Z</time>
      </trkpt>
      <trkpt lat="46.05493" lon="6.1856">
        <ele>886.524</ele>
        <time>2020-05-20T15:15:04Z</time>
      </trkpt>
      <trkpt lat="46.05495" lon="6.1857">
        <ele>888.008</ele>
        <time>2020-05-20T15:15:05Z</time>
      </trkpt>
      <trkpt lat="46.05497" lon="6.18585">
        <ele>889.573</ele>
        <time>2020-05-20T15:15:06Z</time>
      </trkpt>
      <trkpt lat="46.05501" lon="6.18603">
        <ele>891.058</ele>
        <time>2020-05-20T15:15:07Z</time>
      </trkpt>
      <trkpt lat="46.05505" lon="6.18621">
        <ele>892.445</ele>
        <time>2020-05-20T15:15:08Z</time>
      </trkpt>
      <trkpt lat="46.05509" lon="6.18638">
        <ele>893.72</ele>
        <time>2020-05-20T15:15:09Z</time>
      </trkpt>
      <trkpt lat="46.05513" lon="6.18652">
        <ele>895.254</ele>
        <time>2020-05-20T15:15:10Z</time>
      </trkpt>
      <trkpt lat="46.05515" lon="6.18662">
        <ele>896.537</ele>
        <time>2020-05-20T15:15:11Z</time>
      </trkpt>
      <trkpt lat="46.05518" lon="6.18672">
        <ele>898.757</ele>
        <time>2020-05-20T15:15:13Z</time>
      </trkpt>
      <trkpt lat="46.05522" lon="6.18675">
        <ele>899.753</ele>
        <time>2020-05-20T15:15:14Z</time>
      </trkpt>
      <trkpt lat="46.05527" lon="6.1868">
        <ele>900.393</ele>
        <time>2020-05-20T15:15:15Z</time>
      </trkpt>
      <trkpt lat="46.05532" lon="6.18685">
        <ele>900.865</ele>
        <time>2020-05-20T15:15:16Z</time>
      </trkpt>
      <trkpt lat="46.05536" lon="6.18692">
        <ele>901.421</ele>
        <time>2020-05-20T15:15:17Z</time>
      </trkpt>
      <trkpt lat="46.05541" lon="6.18698">
        <ele>901.808</ele>
        <time>2020-05-20T15:15:18Z</time>
      </trkpt>
      <trkpt lat="46.05545" lon="6.18701">
        <ele>902.293</ele>
        <time>2020-05-20T15:15:19Z</time>
      </trkpt>
      <trkpt lat="46.05551" lon="6.18701">
        <ele>902.658</ele>
        <time>2020-05-20T15:15:20Z</time>
      </trkpt>
      <trkpt lat="46.05557" lon="6.18697">
        <ele>903.835</ele>
        <time>2020-05-20T15:15:22Z</time>
      </trkpt>
      <trkpt lat="46.05562" lon="6.18703">
        <ele>906.12</ele>
        <time>2020-05-20T15:15:29Z</time>
      </trkpt>
      <trkpt lat="46.05564" lon="6.18709">
        <ele>906.314</ele>
        <time>2020-05-20T15:15:30Z</time>
      </trkpt>
      <trkpt lat="46.05558" lon="6.18721">
        <ele>907.037</ele>
        <time>2020-05-20T15:15:32Z</time>
      </trkpt>
      <trkpt lat="46.05552" lon="6.18732">
        <ele>907.877</ele>
        <time>2020-05-20T15:15:34Z</time>
      </trkpt>
      <trkpt lat="46.05555" lon="6.1874">
        <ele>908.423</ele>
        <time>2020-05-20T15:15:36Z</time>
      </trkpt>
      <trkpt lat="46.0556" lon="6.18741">
        <ele>908.775</ele>
        <time>2020-05-20T15:15:37Z</time>
      </trkpt>
      <trkpt lat="46.05567" lon="6.18741">
        <ele>909.128</ele>
        <time>2020-05-20T15:15:38Z</time>
      </trkpt>
      <trkpt lat="46.05571" lon="6.18743">
        <ele>909.92</ele>
        <time>2020-05-20T15:15:40Z</time>
      </trkpt>
      <trkpt lat="46.05571" lon="6.18754">
        <ele>910.808</ele>
        <time>2020-05-20T15:15:46Z</time>
      </trkpt>
      <trkpt lat="46.0557" lon="6.18761">
        <ele>910.851</ele>
        <time>2020-05-20T15:15:47Z</time>
      </trkpt>
      <trkpt lat="46.05568" lon="6.18772">
        <ele>911.076</ele>
        <time>2020-05-20T15:15:48Z</time>
      </trkpt>
      <trkpt lat="46.05566" lon="6.18784">
        <ele>911.323</ele>
        <time>2020-05-20T15:15:49Z</time>
      </trkpt>
      <trkpt lat="46.05563" lon="6.18797">
        <ele>911.638</ele>
        <time>2020-05-20T15:15:50Z</time>
      </trkpt>
      <trkpt lat="46.05561" lon="6.18816">
        <ele>912.132</ele>
        <time>2020-05-20T15:15:51Z</time>
      </trkpt>
      <trkpt lat="46.05561" lon="6.18836">
        <ele>912.775</ele>
        <time>2020-05-20T15:15:52Z</time>
      </trkpt>
      <trkpt lat="46.05557" lon="6.18855">
        <ele>913.695</ele>
        <time>2020-05-20T15:15:53Z</time>
      </trkpt>
      <trkpt lat="46.05557" lon="6.18873">
        <ele>914.961</ele>
        <time>2020-05-20T15:15:54Z</time>
      </trkpt>
      <trkpt lat="46.05558" lon="6.18886">
        <ele>916.431</ele>
        <time>2020-05-20T15:15:55Z</time>
      </trkpt>
      <trkpt lat="46.05559" lon="6.18898">
        <ele>917.761</ele>
        <time>2020-05-20T15:15:56Z</time>
      </trkpt>
      <trkpt lat="46.05557" lon="6.18908">
        <ele>918.807</ele>
        <time>2020-05-20T15:15:57Z</time>
      </trkpt>
      <trkpt lat="46.05557" lon="6.1892">
        <ele>919.708</ele>
        <time>2020-05-20T15:15:58Z</time>
      </trkpt>
      <trkpt lat="46.05562" lon="6.18933">
        <ele>920.067</ele>
        <time>2020-05-20T15:16:00Z</time>
      </trkpt>
      <trkpt lat="46.05568" lon="6.1894">
        <ele>920.212</ele>
        <time>2020-05-20T15:16:01Z</time>
      </trkpt>
      <trkpt lat="46.05572" lon="6.18948">
        <ele>920.439</ele>
        <time>2020-05-20T15:16:02Z</time>
      </trkpt>
      <trkpt lat="46.05575" lon="6.18959">
        <ele>920.484</ele>
        <time>2020-05-20T15:16:03Z</time>
      </trkpt>
      <trkpt lat="46.05579" lon="6.18969">
        <ele>920.648</ele>
        <time>2020-05-20T15:16:04Z</time>
      </trkpt>
      <trkpt lat="46.05582" lon="6.1898">
        <ele>921.011</ele>
        <time>2020-05-20T15:16:05Z</time>
      </trkpt>
      <trkpt lat="46.05585" lon="6.18991">
        <ele>921.431</ele>
        <time>2020-05-20T15:16:06Z</time>
      </trkpt>
      <trkpt lat="46.0559" lon="6.19005">
        <ele>922.187</ele>
        <time>2020-05-20T15:16:07Z</time>
      </trkpt>
      <trkpt lat="46.05594" lon="6.19018">
        <ele>922.865</ele>
        <time>2020-05-20T15:16:08Z</time>
      </trkpt>
      <trkpt lat="46.056" lon="6.19034">
        <ele>923.468</ele>
        <time>2020-05-20T15:16:09Z</time>
      </trkpt>
      <trkpt lat="46.05606" lon="6.19052">
        <ele>924.214</ele>
        <time>2020-05-20T15:16:10Z</time>
      </trkpt>
      <trkpt lat="46.05611" lon="6.19071">
        <ele>925.108</ele>
        <time>2020-05-20T15:16:11Z</time>
      </trkpt>
      <trkpt lat="46.05619" lon="6.19091">
        <ele>925.32</ele>
        <time>2020-05-20T15:16:12Z</time>
      </trkpt>
      <trkpt lat="46.05624" lon="6.19108">
        <ele>926.145</ele>
        <time>2020-05-20T15:16:13Z</time>
      </trkpt>
      <trkpt lat="46.05629" lon="6.19124">
        <ele>926.892</ele>
        <time>2020-05-20T15:16:14Z</time>
      </trkpt>
      <trkpt lat="46.05632" lon="6.19137">
        <ele>927.227</ele>
        <time>2020-05-20T15:16:15Z</time>
      </trkpt>
      <trkpt lat="46.05636" lon="6.1915">
        <ele>927.511</ele>
        <time>2020-05-20T15:16:16Z</time>
      </trkpt>
      <trkpt lat="46.05638" lon="6.19164">
        <ele>928.014</ele>
        <time>2020-05-20T15:16:17Z</time>
      </trkpt>
      <trkpt lat="46.05641" lon="6.19177">
        <ele>928.254</ele>
        <time>2020-05-20T15:16:18Z</time>
      </trkpt>
      <trkpt lat="46.05645" lon="6.1919">
        <ele>928.54</ele>
        <time>2020-05-20T15:16:19Z</time>
      </trkpt>
      <trkpt lat="46.05649" lon="6.19202">
        <ele>928.844</ele>
        <time>2020-05-20T15:16:20Z</time>
      </trkpt>
      <trkpt lat="46.05652" lon="6.19214">
        <ele>928.805</ele>
        <time>2020-05-20T15:16:21Z</time>
      </trkpt>
      <trkpt lat="46.05651" lon="6.19231">
        <ele>929.115</ele>
        <time>2020-05-20T15:16:22Z</time>
      </trkpt>
      <trkpt lat="46.05648" lon="6.19248">
        <ele>929.108</ele>
        <time>2020-05-20T15:16:23Z</time>
      </trkpt>
      <trkpt lat="46.05647" lon="6.19262">
        <ele>929.018</ele>
        <time>2020-05-20T15:16:24Z</time>
      </trkpt>
      <trkpt lat="46.05647" lon="6.19275">
        <ele>928.643</ele>
        <time>2020-05-20T15:16:25Z</time>
      </trkpt>
      <trkpt lat="46.05647" lon="6.19288">
        <ele>928.45</ele>
        <time>2020-05-20T15:16:26Z</time>
      </trkpt>
      <trkpt lat="46.05647" lon="6.19304">
        <ele>927.995</ele>
        <time>2020-05-20T15:16:27Z</time>
      </trkpt>
      <trkpt lat="46.05647" lon="6.19317">
        <ele>927.229</ele>
        <time>2020-05-20T15:16:28Z</time>
      </trkpt>
      <trkpt lat="46.05647" lon="6.1933">
        <ele>926.232</ele>
        <time>2020-05-20T15:16:29Z</time>
      </trkpt>
      <trkpt lat="46.05646" lon="6.19339">
        <ele>925.472</ele>
        <time>2020-05-20T15:16:30Z</time>
      </trkpt>
      <trkpt lat="46.05649" lon="6.19351">
        <ele>923.338</ele>
        <time>2020-05-20T15:16:32Z</time>
      </trkpt>
      <trkpt lat="46.05656" lon="6.1936">
        <ele>921.632</ele>
        <time>2020-05-20T15:16:34Z</time>
      </trkpt>
      <trkpt lat="46.0566" lon="6.19365">
        <ele>920.992</ele>
        <time>2020-05-20T15:16:35Z</time>
      </trkpt>
      <trkpt lat="46.05663" lon="6.19371">
        <ele>920.611</ele>
        <time>2020-05-20T15:16:36Z</time>
      </trkpt>
      <trkpt lat="46.05668" lon="6.19377">
        <ele>920.608</ele>
        <time>2020-05-20T15:16:37Z</time>
      </trkpt>
      <trkpt lat="46.05674" lon="6.19382">
        <ele>920.657</ele>
        <time>2020-05-20T15:16:38Z</time>
      </trkpt>
      <trkpt lat="46.0568" lon="6.19388">
        <ele>920.772</ele>
        <time>2020-05-20T15:16:39Z</time>
      </trkpt>
      <trkpt lat="46.05688" lon="6.19395">
        <ele>921.039</ele>
        <time>2020-05-20T15:16:40Z</time>
      </trkpt>
      <trkpt lat="46.05694" lon="6.19402">
        <ele>921.564</ele>
        <time>2020-05-20T15:16:41Z</time>
      </trkpt>
      <trkpt lat="46.05699" lon="6.19411">
        <ele>921.968</ele>
        <time>2020-05-20T15:16:42Z</time>
      </trkpt>
      <trkpt lat="46.05707" lon="6.19428">
        <ele>922.251</ele>
        <time>2020-05-20T15:16:43Z</time>
      </trkpt>
      <trkpt lat="46.0571" lon="6.19445">
        <ele>922.881</ele>
        <time>2020-05-20T15:16:44Z</time>
      </trkpt>
      <trkpt lat="46.05715" lon="6.1946">
        <ele>923.287</ele>
        <time>2020-05-20T15:16:45Z</time>
      </trkpt>
      <trkpt lat="46.05718" lon="6.19471">
        <ele>923.595</ele>
        <time>2020-05-20T15:16:46Z</time>
      </trkpt>
      <trkpt lat="46.05723" lon="6.19481">
        <ele>923.849</ele>
        <time>2020-05-20T15:16:47Z</time>
      </trkpt>
      <trkpt lat="46.05728" lon="6.19493">
        <ele>924.023</ele>
        <time>2020-05-20T15:16:48Z</time>
      </trkpt>
      <trkpt lat="46.05731" lon="6.19504">
        <ele>924.108</ele>
        <time>2020-05-20T15:16:49Z</time>
      </trkpt>
      <trkpt lat="46.05734" lon="6.19522">
        <ele>924.263</ele>
        <time>2020-05-20T15:16:50Z</time>
      </trkpt>
      <trkpt lat="46.05736" lon="6.19541">
        <ele>924.538</ele>
        <time>2020-05-20T15:16:51Z</time>
      </trkpt>
      <trkpt lat="46.05738" lon="6.19556">
        <ele>925.155</ele>
        <time>2020-05-20T15:16:52Z</time>
      </trkpt>
      <trkpt lat="46.05739" lon="6.1957">
        <ele>925.93</ele>
        <time>2020-05-20T15:16:53Z</time>
      </trkpt>
      <trkpt lat="46.0574" lon="6.1958">
        <ele>926.864</ele>
        <time>2020-05-20T15:16:54Z</time>
      </trkpt>
      <trkpt lat="46.0574" lon="6.19588">
        <ele>927.537</ele>
        <time>2020-05-20T15:16:55Z</time>
      </trkpt>
      <trkpt lat="46.05739" lon="6.19598">
        <ele>928.227</ele>
        <time>2020-05-20T15:16:57Z</time>
      </trkpt>
      <trkpt lat="46.05746" lon="6.19607">
        <ele>927.783</ele>
        <time>2020-05-20T15:17:00Z</time>
      </trkpt>
      <trkpt lat="46.05754" lon="6.19613">
        <ele>927.524</ele>
        <time>2020-05-20T15:17:01Z</time>
      </trkpt>
      <trkpt lat="46.05763" lon="6.19616">
        <ele>927.504</ele>
        <time>2020-05-20T15:17:02Z</time>
      </trkpt>
      <trkpt lat="46.05771" lon="6.19619">
        <ele>927.414</ele>
        <time>2020-05-20T15:17:03Z</time>
      </trkpt>
      <trkpt lat="46.05777" lon="6.19624">
        <ele>927.108</ele>
        <time>2020-05-20T15:17:04Z</time>
      </trkpt>
      <trkpt lat="46.05788" lon="6.19628">
        <ele>926.436</ele>
        <time>2020-05-20T15:17:06Z</time>
      </trkpt>
      <trkpt lat="46.05792" lon="6.19633">
        <ele>925.441</ele>
        <time>2020-05-20T15:17:08Z</time>
      </trkpt>
      <trkpt lat="46.05797" lon="6.19632">
        <ele>924.698</ele>
        <time>2020-05-20T15:17:10Z</time>
      </trkpt>
      <trkpt lat="46.05803" lon="6.19628">
        <ele>924.163</ele>
        <time>2020-05-20T15:17:12Z</time>
      </trkpt>
      <trkpt lat="46.05813" lon="6.19634">
        <ele>924.297</ele>
        <time>2020-05-20T15:17:14Z</time>
      </trkpt>
      <trkpt lat="46.05822" lon="6.19639">
        <ele>924.55</ele>
        <time>2020-05-20T15:17:15Z</time>
      </trkpt>
      <trkpt lat="46.05834" lon="6.19645">
        <ele>925.01</ele>
        <time>2020-05-20T15:17:16Z</time>
      </trkpt>
      <trkpt lat="46.05845" lon="6.19649">
        <ele>925.376</ele>
        <time>2020-05-20T15:17:17Z</time>
      </trkpt>
      <trkpt lat="46.05852" lon="6.19652">
        <ele>925.472</ele>
        <time>2020-05-20T15:17:18Z</time>
      </trkpt>
      <trkpt lat="46.05858" lon="6.19654">
        <ele>925.413</ele>
        <time>2020-05-20T15:17:19Z</time>
      </trkpt>
      <trkpt lat="46.05864" lon="6.19655">
        <ele>925.214</ele>
        <time>2020-05-20T15:17:21Z</time>
      </trkpt>
      <trkpt lat="46.05869" lon="6.19653">
        <ele>925.008</ele>
        <time>2020-05-20T15:17:22Z</time>
      </trkpt>
      <trkpt lat="46.05872" lon="6.19645">
        <ele>925.071</ele>
        <time>2020-05-20T15:17:23Z</time>
      </trkpt>
      <trkpt lat="46.05876" lon="6.19635">
        <ele>925.126</ele>
        <time>2020-05-20T15:17:24Z</time>
      </trkpt>
      <trkpt lat="46.05881" lon="6.1962">
        <ele>925.513</ele>
        <time>2020-05-20T15:17:25Z</time>
      </trkpt>
      <trkpt lat="46.05889" lon="6.19604">
        <ele>926.358</ele>
        <time>2020-05-20T15:17:26Z</time>
      </trkpt>
      <trkpt lat="46.05896" lon="6.19587">
        <ele>927.782</ele>
        <time>2020-05-20T15:17:27Z</time>
      </trkpt>
      <trkpt lat="46.059" lon="6.19576">
        <ele>929.545</ele>
        <time>2020-05-20T15:17:28Z</time>
      </trkpt>
      <trkpt lat="46.05903" lon="6.1957">
        <ele>932.855</ele>
        <time>2020-05-20T15:17:30Z</time>
      </trkpt>
      <trkpt lat="46.05908" lon="6.19567">
        <ele>934.751</ele>
        <time>2020-05-20T15:17:32Z</time>
      </trkpt>
      <trkpt lat="46.05912" lon="6.19572">
        <ele>934.358</ele>
        <time>2020-05-20T15:17:47Z</time>
      </trkpt>
      <trkpt lat="46.05916" lon="6.19585">
        <ele>934.252</ele>
        <time>2020-05-20T15:17:49Z</time>
      </trkpt>
      <trkpt lat="46.05919" lon="6.19593">
        <ele>934.017</ele>
        <time>2020-05-20T15:17:50Z</time>
      </trkpt>
      <trkpt lat="46.05926" lon="6.19603">
        <ele>933.808</ele>
        <time>2020-05-20T15:17:51Z</time>
      </trkpt>
      <trkpt lat="46.05939" lon="6.19613">
        <ele>933.539</ele>
        <time>2020-05-20T15:17:52Z</time>
      </trkpt>
      <trkpt lat="46.05955" lon="6.19624">
        <ele>933.194</ele>
        <time>2020-05-20T15:17:53Z</time>
      </trkpt>
      <trkpt lat="46.05968" lon="6.19635">
        <ele>932.841</ele>
        <time>2020-05-20T15:17:54Z</time>
      </trkpt>
      <trkpt lat="46.05979" lon="6.19646">
        <ele>932.686</ele>
        <time>2020-05-20T15:17:55Z</time>
      </trkpt>
      <trkpt lat="46.05988" lon="6.19656">
        <ele>932.64</ele>
        <time>2020-05-20T15:17:56Z</time>
      </trkpt>
      <trkpt lat="46.05998" lon="6.19666">
        <ele>932.583</ele>
        <time>2020-05-20T15:17:57Z</time>
      </trkpt>
      <trkpt lat="46.06006" lon="6.19675">
        <ele>932.553</ele>
        <time>2020-05-20T15:17:58Z</time>
      </trkpt>
      <trkpt lat="46.06015" lon="6.19684">
        <ele>932.389</ele>
        <time>2020-05-20T15:17:59Z</time>
      </trkpt>
      <trkpt lat="46.06024" lon="6.19693">
        <ele>931.969</ele>
        <time>2020-05-20T15:18:00Z</time>
      </trkpt>
      <trkpt lat="46.06032" lon="6.197">
        <ele>931.304</ele>
        <time>2020-05-20T15:18:01Z</time>
      </trkpt>
      <trkpt lat="46.0604" lon="6.19706">
        <ele>930.824</ele>
        <time>2020-05-20T15:18:02Z</time>
      </trkpt>
      <trkpt lat="46.06045" lon="6.19711">
        <ele>930.008</ele>
        <time>2020-05-20T15:18:03Z</time>
      </trkpt>
      <trkpt lat="46.06049" lon="6.19721">
        <ele>929.53</ele>
        <time>2020-05-20T15:18:04Z</time>
      </trkpt>
      <trkpt lat="46.0605" lon="6.19735">
        <ele>928.995</ele>
        <time>2020-05-20T15:18:05Z</time>
      </trkpt>
      <trkpt lat="46.0605" lon="6.19753">
        <ele>928.512</ele>
        <time>2020-05-20T15:18:06Z</time>
      </trkpt>
      <trkpt lat="46.0605" lon="6.19769">
        <ele>928.217</ele>
        <time>2020-05-20T15:18:07Z</time>
      </trkpt>
      <trkpt lat="46.06052" lon="6.19782">
        <ele>928.161</ele>
        <time>2020-05-20T15:18:08Z</time>
      </trkpt>
      <trkpt lat="46.06053" lon="6.19796">
        <ele>928.134</ele>
        <time>2020-05-20T15:18:09Z</time>
      </trkpt>
      <trkpt lat="46.06056" lon="6.1981">
        <ele>928.174</ele>
        <time>2020-05-20T15:18:10Z</time>
      </trkpt>
      <trkpt lat="46.0606" lon="6.19821">
        <ele>927.92</ele>
        <time>2020-05-20T15:18:11Z</time>
      </trkpt>
      <trkpt lat="46.06063" lon="6.19832">
        <ele>927.443</ele>
        <time>2020-05-20T15:18:12Z</time>
      </trkpt>
      <trkpt lat="46.06067" lon="6.19844">
        <ele>927.064</ele>
        <time>2020-05-20T15:18:13Z</time>
      </trkpt>
      <trkpt lat="46.06071" lon="6.19861">
        <ele>926.61</ele>
        <time>2020-05-20T15:18:14Z</time>
      </trkpt>
      <trkpt lat="46.06075" lon="6.19878">
        <ele>926.408</ele>
        <time>2020-05-20T15:18:15Z</time>
      </trkpt>
      <trkpt lat="46.06078" lon="6.19894">
        <ele>926.418</ele>
        <time>2020-05-20T15:18:16Z</time>
      </trkpt>
      <trkpt lat="46.06082" lon="6.19909">
        <ele>926.883</ele>
        <time>2020-05-20T15:18:17Z</time>
      </trkpt>
      <trkpt lat="46.06088" lon="6.19924">
        <ele>927.34</ele>
        <time>2020-05-20T15:18:18Z</time>
      </trkpt>
      <trkpt lat="46.06096" lon="6.1994">
        <ele>927.895</ele>
        <time>2020-05-20T15:18:19Z</time>
      </trkpt>
      <trkpt lat="46.06103" lon="6.19956">
        <ele>928.399</ele>
        <time>2020-05-20T15:18:20Z</time>
      </trkpt>
      <trkpt lat="46.0611" lon="6.19972">
        <ele>928.672</ele>
        <time>2020-05-20T15:18:21Z</time>
      </trkpt>
      <trkpt lat="46.06116" lon="6.19987">
        <ele>928.672</ele>
        <time>2020-05-20T15:18:22Z</time>
      </trkpt>
      <trkpt lat="46.06121" lon="6.20001">
        <ele>928.588</ele>
        <time>2020-05-20T15:18:23Z</time>
      </trkpt>
      <trkpt lat="46.06125" lon="6.20013">
        <ele>928.211</ele>
        <time>2020-05-20T15:18:24Z</time>
      </trkpt>
      <trkpt lat="46.06128" lon="6.20025">
        <ele>927.921</ele>
        <time>2020-05-20T15:18:25Z</time>
      </trkpt>
      <trkpt lat="46.06132" lon="6.20035">
        <ele>927.503</ele>
        <time>2020-05-20T15:18:26Z</time>
      </trkpt>
      <trkpt lat="46.06136" lon="6.20047">
        <ele>927.108</ele>
        <time>2020-05-20T15:18:27Z</time>
      </trkpt>
      <trkpt lat="46.0614" lon="6.2006">
        <ele>926.655</ele>
        <time>2020-05-20T15:18:28Z</time>
      </trkpt>
      <trkpt lat="46.06143" lon="6.20071">
        <ele>926.05</ele>
        <time>2020-05-20T15:18:29Z</time>
      </trkpt>
      <trkpt lat="46.06148" lon="6.2008">
        <ele>925.497</ele>
        <time>2020-05-20T15:18:30Z</time>
      </trkpt>
      <trkpt lat="46.0615" lon="6.20091">
        <ele>924.962</ele>
        <time>2020-05-20T15:18:31Z</time>
      </trkpt>
      <trkpt lat="46.06151" lon="6.20103">
        <ele>924.526</ele>
        <time>2020-05-20T15:18:32Z</time>
      </trkpt>
      <trkpt lat="46.06153" lon="6.20113">
        <ele>924.239</ele>
        <time>2020-05-20T15:18:33Z</time>
      </trkpt>
      <trkpt lat="46.06156" lon="6.20123">
        <ele>923.999</ele>
        <time>2020-05-20T15:18:34Z</time>
      </trkpt>
      <trkpt lat="46.06157" lon="6.20135">
        <ele>923.795</ele>
        <time>2020-05-20T15:18:35Z</time>
      </trkpt>
      <trkpt lat="46.06156" lon="6.20147">
        <ele>923.599</ele>
        <time>2020-05-20T15:18:36Z</time>
      </trkpt>
      <trkpt lat="46.06154" lon="6.20157">
        <ele>923.407</ele>
        <time>2020-05-20T15:18:37Z</time>
      </trkpt>
      <trkpt lat="46.06153" lon="6.20168">
        <ele>923.427</ele>
        <time>2020-05-20T15:18:38Z</time>
      </trkpt>
      <trkpt lat="46.06152" lon="6.20181">
        <ele>923.408</ele>
        <time>2020-05-20T15:18:39Z</time>
      </trkpt>
      <trkpt lat="46.06151" lon="6.20192">
        <ele>923.673</ele>
        <time>2020-05-20T15:18:40Z</time>
      </trkpt>
      <trkpt lat="46.06151" lon="6.202">
        <ele>923.768</ele>
        <time>2020-05-20T15:18:41Z</time>
      </trkpt>
      <trkpt lat="46.06149" lon="6.20209">
        <ele>923.885</ele>
        <time>2020-05-20T15:18:42Z</time>
      </trkpt>
      <trkpt lat="46.06145" lon="6.20218">
        <ele>923.84</ele>
        <time>2020-05-20T15:18:43Z</time>
      </trkpt>
      <trkpt lat="46.06138" lon="6.20226">
        <ele>923.824</ele>
        <time>2020-05-20T15:18:44Z</time>
      </trkpt>
      <trkpt lat="46.06129" lon="6.20229">
        <ele>924.087</ele>
        <time>2020-05-20T15:18:45Z</time>
      </trkpt>
      <trkpt lat="46.06118" lon="6.2023">
        <ele>924.387</ele>
        <time>2020-05-20T15:18:46Z</time>
      </trkpt>
      <trkpt lat="46.0611" lon="6.20231">
        <ele>924.883</ele>
        <time>2020-05-20T15:18:47Z</time>
      </trkpt>
      <trkpt lat="46.06101" lon="6.20234">
        <ele>925.214</ele>
        <time>2020-05-20T15:18:48Z</time>
      </trkpt>
      <trkpt lat="46.06094" lon="6.20236">
        <ele>925.554</ele>
        <time>2020-05-20T15:18:49Z</time>
      </trkpt>
      <trkpt lat="46.06086" lon="6.20243">
        <ele>925.609</ele>
        <time>2020-05-20T15:18:50Z</time>
      </trkpt>
      <trkpt lat="46.06081" lon="6.20249">
        <ele>925.608</ele>
        <time>2020-05-20T15:18:51Z</time>
      </trkpt>
      <trkpt lat="46.06075" lon="6.20256">
        <ele>925.545</ele>
        <time>2020-05-20T15:18:52Z</time>
      </trkpt>
      <trkpt lat="46.06071" lon="6.20262">
        <ele>925.37</ele>
        <time>2020-05-20T15:18:53Z</time>
      </trkpt>
      <trkpt lat="46.06068" lon="6.2027">
        <ele>925.227</ele>
        <time>2020-05-20T15:18:54Z</time>
      </trkpt>
      <trkpt lat="46.06066" lon="6.20281">
        <ele>925.282</ele>
        <time>2020-05-20T15:18:55Z</time>
      </trkpt>
      <trkpt lat="46.06065" lon="6.20291">
        <ele>925.256</ele>
        <time>2020-05-20T15:18:56Z</time>
      </trkpt>
      <trkpt lat="46.06065" lon="6.20301">
        <ele>925.219</ele>
        <time>2020-05-20T15:18:57Z</time>
      </trkpt>
      <trkpt lat="46.06064" lon="6.20312">
        <ele>925.229</ele>
        <time>2020-05-20T15:18:58Z</time>
      </trkpt>
      <trkpt lat="46.06062" lon="6.20324">
        <ele>925.125</ele>
        <time>2020-05-20T15:18:59Z</time>
      </trkpt>
      <trkpt lat="46.0606" lon="6.20334">
        <ele>924.926</ele>
        <time>2020-05-20T15:19:00Z</time>
      </trkpt>
      <trkpt lat="46.06058" lon="6.20344">
        <ele>924.747</ele>
        <time>2020-05-20T15:19:01Z</time>
      </trkpt>
      <trkpt lat="46.06054" lon="6.20353">
        <ele>924.511</ele>
        <time>2020-05-20T15:19:02Z</time>
      </trkpt>
      <trkpt lat="46.06047" lon="6.2036">
        <ele>924.208</ele>
        <time>2020-05-20T15:19:03Z</time>
      </trkpt>
      <trkpt lat="46.06041" lon="6.20367">
        <ele>924.186</ele>
        <time>2020-05-20T15:19:04Z</time>
      </trkpt>
      <trkpt lat="46.06035" lon="6.20373">
        <ele>924.021</ele>
        <time>2020-05-20T15:19:05Z</time>
      </trkpt>
      <trkpt lat="46.06031" lon="6.20374">
        <ele>924.088</ele>
        <time>2020-05-20T15:19:06Z</time>
      </trkpt>
      <trkpt lat="46.06026" lon="6.20379">
        <ele>924.113</ele>
        <time>2020-05-20T15:19:07Z</time>
      </trkpt>
      <trkpt lat="46.06025" lon="6.20389">
        <ele>924.797</ele>
        <time>2020-05-20T15:19:16Z</time>
      </trkpt>
      <trkpt lat="46.06023" lon="6.20397">
        <ele>924.72</ele>
        <time>2020-05-20T15:19:17Z</time>
      </trkpt>
      <trkpt lat="46.06028" lon="6.20404">
        <ele>925.26</ele>
        <time>2020-05-20T15:19:19Z</time>
      </trkpt>
      <trkpt lat="46.06035" lon="6.20408">
        <ele>925.726</ele>
        <time>2020-05-20T15:19:20Z</time>
      </trkpt>
      <trkpt lat="46.0604" lon="6.20411">
        <ele>926.321</ele>
        <time>2020-05-20T15:19:21Z</time>
      </trkpt>
      <trkpt lat="46.0605" lon="6.20422">
        <ele>927.241</ele>
        <time>2020-05-20T15:19:22Z</time>
      </trkpt>
      <trkpt lat="46.06061" lon="6.20429">
        <ele>928.105</ele>
        <time>2020-05-20T15:19:23Z</time>
      </trkpt>
      <trkpt lat="46.06073" lon="6.20436">
        <ele>929.208</ele>
        <time>2020-05-20T15:19:24Z</time>
      </trkpt>
      <trkpt lat="46.06085" lon="6.20442">
        <ele>930.546</ele>
        <time>2020-05-20T15:19:25Z</time>
      </trkpt>
      <trkpt lat="46.06093" lon="6.20446">
        <ele>931.631</ele>
        <time>2020-05-20T15:19:26Z</time>
      </trkpt>
      <trkpt lat="46.06102" lon="6.2045">
        <ele>932.578</ele>
        <time>2020-05-20T15:19:27Z</time>
      </trkpt>
      <trkpt lat="46.0611" lon="6.20455">
        <ele>933.413</ele>
        <time>2020-05-20T15:19:28Z</time>
      </trkpt>
      <trkpt lat="46.06117" lon="6.20459">
        <ele>933.897</ele>
        <time>2020-05-20T15:19:29Z</time>
      </trkpt>
      <trkpt lat="46.06127" lon="6.20464">
        <ele>933.86</ele>
        <time>2020-05-20T15:19:30Z</time>
      </trkpt>
      <trkpt lat="46.06135" lon="6.20471">
        <ele>933.72</ele>
        <time>2020-05-20T15:19:31Z</time>
      </trkpt>
      <trkpt lat="46.06144" lon="6.20477">
        <ele>933.586</ele>
        <time>2020-05-20T15:19:32Z</time>
      </trkpt>
      <trkpt lat="46.06153" lon="6.20482">
        <ele>933.036</ele>
        <time>2020-05-20T15:19:33Z</time>
      </trkpt>
      <trkpt lat="46.06161" lon="6.20488">
        <ele>932.417</ele>
        <time>2020-05-20T15:19:34Z</time>
      </trkpt>
      <trkpt lat="46.06168" lon="6.20495">
        <ele>931.618</ele>
        <time>2020-05-20T15:19:35Z</time>
      </trkpt>
      <trkpt lat="46.06175" lon="6.205">
        <ele>930.708</ele>
        <time>2020-05-20T15:19:36Z</time>
      </trkpt>
      <trkpt lat="46.06178" lon="6.20506">
        <ele>929.787</ele>
        <time>2020-05-20T15:19:37Z</time>
      </trkpt>
      <trkpt lat="46.06185" lon="6.20516">
        <ele>928.822</ele>
        <time>2020-05-20T15:19:38Z</time>
      </trkpt>
      <trkpt lat="46.06194" lon="6.20523">
        <ele>928.069</ele>
        <time>2020-05-20T15:19:39Z</time>
      </trkpt>
      <trkpt lat="46.06201" lon="6.2053">
        <ele>927.154</ele>
        <time>2020-05-20T15:19:40Z</time>
      </trkpt>
      <trkpt lat="46.06207" lon="6.20538">
        <ele>926.528</ele>
        <time>2020-05-20T15:19:41Z</time>
      </trkpt>
      <trkpt lat="46.06213" lon="6.20545">
        <ele>926.011</ele>
        <time>2020-05-20T15:19:42Z</time>
      </trkpt>
      <trkpt lat="46.06222" lon="6.20551">
        <ele>925.541</ele>
        <time>2020-05-20T15:19:43Z</time>
      </trkpt>
      <trkpt lat="46.06231" lon="6.2056">
        <ele>925.177</ele>
        <time>2020-05-20T15:19:44Z</time>
      </trkpt>
      <trkpt lat="46.06242" lon="6.20566">
        <ele>925.112</ele>
        <time>2020-05-20T15:19:45Z</time>
      </trkpt>
      <trkpt lat="46.06251" lon="6.20572">
        <ele>925.032</ele>
        <time>2020-05-20T15:19:46Z</time>
      </trkpt>
      <trkpt lat="46.06261" lon="6.2058">
        <ele>925.005</ele>
        <time>2020-05-20T15:19:47Z</time>
      </trkpt>
      <trkpt lat="46.06275" lon="6.20588">
        <ele>925.208</ele>
        <time>2020-05-20T15:19:48Z</time>
      </trkpt>
      <trkpt lat="46.06282" lon="6.20595">
        <ele>925.415</ele>
        <time>2020-05-20T15:19:49Z</time>
      </trkpt>
      <trkpt lat="46.06288" lon="6.206">
        <ele>925.72</ele>
        <time>2020-05-20T15:19:50Z</time>
      </trkpt>
      <trkpt lat="46.06295" lon="6.20604">
        <ele>926.187</ele>
        <time>2020-05-20T15:19:51Z</time>
      </trkpt>
      <trkpt lat="46.06302" lon="6.20609">
        <ele>926.312</ele>
        <time>2020-05-20T15:19:52Z</time>
      </trkpt>
      <trkpt lat="46.06311" lon="6.20614">
        <ele>926.656</ele>
        <time>2020-05-20T15:19:53Z</time>
      </trkpt>
      <trkpt lat="46.06321" lon="6.20621">
        <ele>927.019</ele>
        <time>2020-05-20T15:19:54Z</time>
      </trkpt>
      <trkpt lat="46.0633" lon="6.20626">
        <ele>927.439</ele>
        <time>2020-05-20T15:19:55Z</time>
      </trkpt>
      <trkpt lat="46.06339" lon="6.2063">
        <ele>927.815</ele>
        <time>2020-05-20T15:19:56Z</time>
      </trkpt>
      <trkpt lat="46.06344" lon="6.20635">
        <ele>928.228</ele>
        <time>2020-05-20T15:19:57Z</time>
      </trkpt>
      <trkpt lat="46.06352" lon="6.2064">
        <ele>928.689</ele>
        <time>2020-05-20T15:19:58Z</time>
      </trkpt>
      <trkpt lat="46.0636" lon="6.20645">
        <ele>928.617</ele>
        <time>2020-05-20T15:19:59Z</time>
      </trkpt>
      <trkpt lat="46.06367" lon="6.2065">
        <ele>928.508</ele>
        <time>2020-05-20T15:20:00Z</time>
      </trkpt>
      <trkpt lat="46.06374" lon="6.20656">
        <ele>928.156</ele>
        <time>2020-05-20T15:20:01Z</time>
      </trkpt>
      <trkpt lat="46.06379" lon="6.20663">
        <ele>927.621</ele>
        <time>2020-05-20T15:20:02Z</time>
      </trkpt>
      <trkpt lat="46.06385" lon="6.2067">
        <ele>926.878</ele>
        <time>2020-05-20T15:20:03Z</time>
      </trkpt>
      <trkpt lat="46.0639" lon="6.20678">
        <ele>925.943</ele>
        <time>2020-05-20T15:20:04Z</time>
      </trkpt>
      <trkpt lat="46.06394" lon="6.20685">
        <ele>924.927</ele>
        <time>2020-05-20T15:20:05Z</time>
      </trkpt>
      <trkpt lat="46.064" lon="6.20694">
        <ele>923.97</ele>
        <time>2020-05-20T15:20:06Z</time>
      </trkpt>
      <trkpt lat="46.06405" lon="6.20699">
        <ele>923.14</ele>
        <time>2020-05-20T15:20:07Z</time>
      </trkpt>
      <trkpt lat="46.06411" lon="6.20709">
        <ele>922.536</ele>
        <time>2020-05-20T15:20:08Z</time>
      </trkpt>
      <trkpt lat="46.06416" lon="6.20714">
        <ele>921.998</ele>
        <time>2020-05-20T15:20:09Z</time>
      </trkpt>
      <trkpt lat="46.0642" lon="6.20717">
        <ele>921.615</ele>
        <time>2020-05-20T15:20:10Z</time>
      </trkpt>
      <trkpt lat="46.06424" lon="6.20721">
        <ele>921.126</ele>
        <time>2020-05-20T15:20:12Z</time>
      </trkpt>
      <trkpt lat="46.06431" lon="6.20729">
        <ele>920.908</ele>
        <time>2020-05-20T15:20:13Z</time>
      </trkpt>
      <trkpt lat="46.06436" lon="6.20733">
        <ele>920.843</ele>
        <time>2020-05-20T15:20:14Z</time>
      </trkpt>
      <trkpt lat="46.0644" lon="6.20734">
        <ele>920.788</ele>
        <time>2020-05-20T15:20:15Z</time>
      </trkpt>
      <trkpt lat="46.06448" lon="6.20736">
        <ele>919.755</ele>
        <time>2020-05-20T15:20:22Z</time>
      </trkpt>
      <trkpt lat="46.06454" lon="6.20737">
        <ele>919.61</ele>
        <time>2020-05-20T15:20:24Z</time>
      </trkpt>
      <trkpt lat="46.06461" lon="6.20739">
        <ele>919.794</ele>
        <time>2020-05-20T15:20:26Z</time>
      </trkpt>
      <trkpt lat="46.06467" lon="6.20742">
        <ele>919.987</ele>
        <time>2020-05-20T15:20:28Z</time>
      </trkpt>
      <trkpt lat="46.06473" lon="6.20745">
        <ele>920.097</ele>
        <time>2020-05-20T15:20:30Z</time>
      </trkpt>
      <trkpt lat="46.06478" lon="6.20747">
        <ele>920.163</ele>
        <time>2020-05-20T15:20:32Z</time>
      </trkpt>
      <trkpt lat="46.06484" lon="6.2075">
        <ele>920.149</ele>
        <time>2020-05-20T15:20:35Z</time>
      </trkpt>
      <trkpt lat="46.06491" lon="6.20753">
        <ele>920.002</ele>
        <time>2020-05-20T15:20:37Z</time>
      </trkpt>
      <trkpt lat="46.06497" lon="6.20757">
        <ele>920.122</ele>
        <time>2020-05-20T15:20:39Z</time>
      </trkpt>
      <trkpt lat="46.06504" lon="6.20762">
        <ele>920.508</ele>
        <time>2020-05-20T15:20:41Z</time>
      </trkpt>
      <trkpt lat="46.06508" lon="6.20764">
        <ele>920.718</ele>
        <time>2020-05-20T15:20:42Z</time>
      </trkpt>
      <trkpt lat="46.06513" lon="6.20768">
        <ele>920.883</ele>
        <time>2020-05-20T15:20:44Z</time>
      </trkpt>
      <trkpt lat="46.06518" lon="6.20772">
        <ele>920.88</ele>
        <time>2020-05-20T15:20:46Z</time>
      </trkpt>
      <trkpt lat="46.06523" lon="6.20775">
        <ele>920.955</ele>
        <time>2020-05-20T15:20:48Z</time>
      </trkpt>
      <trkpt lat="46.06528" lon="6.20775">
        <ele>921.399</ele>
        <time>2020-05-20T15:20:50Z</time>
      </trkpt>
      <trkpt lat="46.06535" lon="6.20775">
        <ele>921.732</ele>
        <time>2020-05-20T15:20:52Z</time>
      </trkpt>
      <trkpt lat="46.06544" lon="6.20779">
        <ele>921.862</ele>
        <time>2020-05-20T15:20:54Z</time>
      </trkpt>
      <trkpt lat="46.06548" lon="6.2078">
        <ele>921.878</ele>
        <time>2020-05-20T15:20:55Z</time>
      </trkpt>
      <trkpt lat="46.06558" lon="6.20784">
        <ele>921.768</ele>
        <time>2020-05-20T15:20:57Z</time>
      </trkpt>
      <trkpt lat="46.06563" lon="6.20786">
        <ele>921.742</ele>
        <time>2020-05-20T15:20:58Z</time>
      </trkpt>
      <trkpt lat="46.06569" lon="6.20788">
        <ele>921.726</ele>
        <time>2020-05-20T15:20:59Z</time>
      </trkpt>
      <trkpt lat="46.06576" lon="6.20788">
        <ele>921.808</ele>
        <time>2020-05-20T15:21:00Z</time>
      </trkpt>
      <trkpt lat="46.06588" lon="6.20785">
        <ele>922.08</ele>
        <time>2020-05-20T15:21:01Z</time>
      </trkpt>
      <trkpt lat="46.06597" lon="6.20784">
        <ele>922.365</ele>
        <time>2020-05-20T15:21:02Z</time>
      </trkpt>
      <trkpt lat="46.06607" lon="6.20782">
        <ele>922.792</ele>
        <time>2020-05-20T15:21:03Z</time>
      </trkpt>
      <trkpt lat="46.06619" lon="6.20781">
        <ele>923.257</ele>
        <time>2020-05-20T15:21:04Z</time>
      </trkpt>
      <trkpt lat="46.06629" lon="6.20779">
        <ele>923.671</ele>
        <time>2020-05-20T15:21:05Z</time>
      </trkpt>
      <trkpt lat="46.06636" lon="6.20778">
        <ele>923.944</ele>
        <time>2020-05-20T15:21:06Z</time>
      </trkpt>
      <trkpt lat="46.06645" lon="6.20778">
        <ele>924.184</ele>
        <time>2020-05-20T15:21:07Z</time>
      </trkpt>
      <trkpt lat="46.06656" lon="6.20776">
        <ele>924.59</ele>
        <time>2020-05-20T15:21:08Z</time>
      </trkpt>
      <trkpt lat="46.06669" lon="6.20776">
        <ele>925.062</ele>
        <time>2020-05-20T15:21:09Z</time>
      </trkpt>
      <trkpt lat="46.06687" lon="6.20776">
        <ele>925.883</ele>
        <time>2020-05-20T15:21:10Z</time>
      </trkpt>
      <trkpt lat="46.06704" lon="6.20776">
        <ele>926.911</ele>
        <time>2020-05-20T15:21:11Z</time>
      </trkpt>
      <trkpt lat="46.06718" lon="6.20776">
        <ele>928.308</ele>
        <time>2020-05-20T15:21:12Z</time>
      </trkpt>
      <trkpt lat="46.0673" lon="6.20776">
        <ele>929.51</ele>
        <time>2020-05-20T15:21:13Z</time>
      </trkpt>
      <trkpt lat="46.0674" lon="6.20776">
        <ele>930.485</ele>
        <time>2020-05-20T15:21:14Z</time>
      </trkpt>
      <trkpt lat="46.06751" lon="6.20777">
        <ele>931.072</ele>
        <time>2020-05-20T15:21:15Z</time>
      </trkpt>
      <trkpt lat="46.06762" lon="6.20777">
        <ele>931.417</ele>
        <time>2020-05-20T15:21:16Z</time>
      </trkpt>
      <trkpt lat="46.06774" lon="6.20777">
        <ele>931.481</ele>
        <time>2020-05-20T15:21:17Z</time>
      </trkpt>
      <trkpt lat="46.06787" lon="6.20776">
        <ele>931.494</ele>
        <time>2020-05-20T15:21:18Z</time>
      </trkpt>
      <trkpt lat="46.06799" lon="6.20777">
        <ele>931.634</ele>
        <time>2020-05-20T15:21:19Z</time>
      </trkpt>
      <trkpt lat="46.06811" lon="6.20777">
        <ele>931.74</ele>
        <time>2020-05-20T15:21:20Z</time>
      </trkpt>
      <trkpt lat="46.06823" lon="6.20777">
        <ele>931.713</ele>
        <time>2020-05-20T15:21:21Z</time>
      </trkpt>
      <trkpt lat="46.06836" lon="6.20776">
        <ele>931.643</ele>
        <time>2020-05-20T15:21:22Z</time>
      </trkpt>
      <trkpt lat="46.06852" lon="6.20777">
        <ele>931.607</ele>
        <time>2020-05-20T15:21:23Z</time>
      </trkpt>
      <trkpt lat="46.06865" lon="6.20779">
        <ele>931.708</ele>
        <time>2020-05-20T15:21:24Z</time>
      </trkpt>
      <trkpt lat="46.06877" lon="6.20782">
        <ele>931.775</ele>
        <time>2020-05-20T15:21:25Z</time>
      </trkpt>
      <trkpt lat="46.06887" lon="6.20784">
        <ele>931.69</ele>
        <time>2020-05-20T15:21:26Z</time>
      </trkpt>
      <trkpt lat="46.06897" lon="6.20785">
        <ele>931.657</ele>
        <time>2020-05-20T15:21:27Z</time>
      </trkpt>
      <trkpt lat="46.06906" lon="6.20786">
        <ele>931.632</ele>
        <time>2020-05-20T15:21:28Z</time>
      </trkpt>
      <trkpt lat="46.06913" lon="6.20787">
        <ele>931.426</ele>
        <time>2020-05-20T15:21:29Z</time>
      </trkpt>
      <trkpt lat="46.06919" lon="6.20788">
        <ele>931.239</ele>
        <time>2020-05-20T15:21:30Z</time>
      </trkpt>
      <trkpt lat="46.06926" lon="6.20791">
        <ele>930.739</ele>
        <time>2020-05-20T15:21:32Z</time>
      </trkpt>
      <trkpt lat="46.0693" lon="6.20793">
        <ele>930.415</ele>
        <time>2020-05-20T15:21:33Z</time>
      </trkpt>
      <trkpt lat="46.06937" lon="6.20793">
        <ele>930.062</ele>
        <time>2020-05-20T15:21:34Z</time>
      </trkpt>
      <trkpt lat="46.06945" lon="6.20789">
        <ele>929.683</ele>
        <time>2020-05-20T15:21:35Z</time>
      </trkpt>
      <trkpt lat="46.06956" lon="6.20785">
        <ele>929.511</ele>
        <time>2020-05-20T15:21:36Z</time>
      </trkpt>
      <trkpt lat="46.06967" lon="6.20781">
        <ele>929.508</ele>
        <time>2020-05-20T15:21:37Z</time>
      </trkpt>
      <trkpt lat="46.06981" lon="6.20779">
        <ele>929.64</ele>
        <time>2020-05-20T15:21:38Z</time>
      </trkpt>
      <trkpt lat="46.06995" lon="6.20777">
        <ele>930.145</ele>
        <time>2020-05-20T15:21:39Z</time>
      </trkpt>
      <trkpt lat="46.07008" lon="6.20777">
        <ele>930.432</ele>
        <time>2020-05-20T15:21:40Z</time>
      </trkpt>
      <trkpt lat="46.07021" lon="6.20778">
        <ele>930.447</ele>
        <time>2020-05-20T15:21:41Z</time>
      </trkpt>
      <trkpt lat="46.07034" lon="6.20782">
        <ele>930.351</ele>
        <time>2020-05-20T15:21:42Z</time>
      </trkpt>
      <trkpt lat="46.07047" lon="6.20789">
        <ele>929.954</ele>
        <time>2020-05-20T15:21:43Z</time>
      </trkpt>
      <trkpt lat="46.07059" lon="6.20797">
        <ele>929.224</ele>
        <time>2020-05-20T15:21:44Z</time>
      </trkpt>
      <trkpt lat="46.07071" lon="6.20806">
        <ele>928.56</ele>
        <time>2020-05-20T15:21:45Z</time>
      </trkpt>
      <trkpt lat="46.07084" lon="6.20815">
        <ele>928.297</ele>
        <time>2020-05-20T15:21:46Z</time>
      </trkpt>
      <trkpt lat="46.07097" lon="6.20826">
        <ele>927.923</ele>
        <time>2020-05-20T15:21:47Z</time>
      </trkpt>
      <trkpt lat="46.0711" lon="6.2084">
        <ele>927.825</ele>
        <time>2020-05-20T15:21:48Z</time>
      </trkpt>
      <trkpt lat="46.07123" lon="6.20854">
        <ele>927.708</ele>
        <time>2020-05-20T15:21:49Z</time>
      </trkpt>
      <trkpt lat="46.07137" lon="6.2087">
        <ele>927.753</ele>
        <time>2020-05-20T15:21:50Z</time>
      </trkpt>
      <trkpt lat="46.0715" lon="6.20883">
        <ele>927.748</ele>
        <time>2020-05-20T15:21:51Z</time>
      </trkpt>
      <trkpt lat="46.07162" lon="6.20893">
        <ele>927.715</ele>
        <time>2020-05-20T15:21:52Z</time>
      </trkpt>
      <trkpt lat="46.07175" lon="6.20902">
        <ele>927.81</ele>
        <time>2020-05-20T15:21:53Z</time>
      </trkpt>
      <trkpt lat="46.07188" lon="6.2091">
        <ele>927.924</ele>
        <time>2020-05-20T15:21:54Z</time>
      </trkpt>
      <trkpt lat="46.07199" lon="6.20916">
        <ele>928.087</ele>
        <time>2020-05-20T15:21:55Z</time>
      </trkpt>
      <trkpt lat="46.07211" lon="6.20922">
        <ele>928.097</ele>
        <time>2020-05-20T15:21:56Z</time>
      </trkpt>
      <trkpt lat="46.07224" lon="6.20928">
        <ele>927.833</ele>
        <time>2020-05-20T15:21:57Z</time>
      </trkpt>
      <trkpt lat="46.07238" lon="6.20932">
        <ele>927.634</ele>
        <time>2020-05-20T15:21:58Z</time>
      </trkpt>
      <trkpt lat="46.07252" lon="6.20936">
        <ele>927.455</ele>
        <time>2020-05-20T15:21:59Z</time>
      </trkpt>
      <trkpt lat="46.07265" lon="6.20943">
        <ele>927.11</ele>
        <time>2020-05-20T15:22:00Z</time>
      </trkpt>
      <trkpt lat="46.07279" lon="6.20953">
        <ele>926.708</ele>
        <time>2020-05-20T15:22:01Z</time>
      </trkpt>
      <trkpt lat="46.07292" lon="6.20962">
        <ele>926.357</ele>
        <time>2020-05-20T15:22:02Z</time>
      </trkpt>
      <trkpt lat="46.07303" lon="6.2097">
        <ele>925.792</ele>
        <time>2020-05-20T15:22:03Z</time>
      </trkpt>
      <trkpt lat="46.07315" lon="6.20977">
        <ele>925.189</ele>
        <time>2020-05-20T15:22:04Z</time>
      </trkpt>
      <trkpt lat="46.07326" lon="6.20984">
        <ele>924.164</ele>
        <time>2020-05-20T15:22:05Z</time>
      </trkpt>
      <trkpt lat="46.07336" lon="6.20992">
        <ele>923.118</ele>
        <time>2020-05-20T15:22:06Z</time>
      </trkpt>
      <trkpt lat="46.07348" lon="6.21">
        <ele>922.431</ele>
        <time>2020-05-20T15:22:07Z</time>
      </trkpt>
      <trkpt lat="46.07359" lon="6.21008">
        <ele>921.971</ele>
        <time>2020-05-20T15:22:08Z</time>
      </trkpt>
      <trkpt lat="46.0737" lon="6.21016">
        <ele>921.347</ele>
        <time>2020-05-20T15:22:09Z</time>
      </trkpt>
      <trkpt lat="46.07379" lon="6.21024">
        <ele>921.055</ele>
        <time>2020-05-20T15:22:10Z</time>
      </trkpt>
      <trkpt lat="46.07387" lon="6.21031">
        <ele>920.607</ele>
        <time>2020-05-20T15:22:11Z</time>
      </trkpt>
      <trkpt lat="46.07395" lon="6.21036">
        <ele>920.017</ele>
        <time>2020-05-20T15:22:12Z</time>
      </trkpt>
      <trkpt lat="46.074" lon="6.2104">
        <ele>919.308</ele>
        <time>2020-05-20T15:22:13Z</time>
      </trkpt>
      <trkpt lat="46.07405" lon="6.21043">
        <ele>918.499</ele>
        <time>2020-05-20T15:22:14Z</time>
      </trkpt>
      <trkpt lat="46.07413" lon="6.21045">
        <ele>917.784</ele>
        <time>2020-05-20T15:22:15Z</time>
      </trkpt>
      <trkpt lat="46.07422" lon="6.2105">
        <ele>917.751</ele>
        <time>2020-05-20T15:22:16Z</time>
      </trkpt>
      <trkpt lat="46.0743" lon="6.21056">
        <ele>917.236</ele>
        <time>2020-05-20T15:22:17Z</time>
      </trkpt>
      <trkpt lat="46.07434" lon="6.21062">
        <ele>916.86</ele>
        <time>2020-05-20T15:22:18Z</time>
      </trkpt>
      <trkpt lat="46.07437" lon="6.21069">
        <ele>916.533</ele>
        <time>2020-05-20T15:22:19Z</time>
      </trkpt>
      <trkpt lat="46.07438" lon="6.21076">
        <ele>916.263</ele>
        <time>2020-05-20T15:22:20Z</time>
      </trkpt>
      <trkpt lat="46.07439" lon="6.21085">
        <ele>915.829</ele>
        <time>2020-05-20T15:22:21Z</time>
      </trkpt>
      <trkpt lat="46.07442" lon="6.21098">
        <ele>915.669</ele>
        <time>2020-05-20T15:22:22Z</time>
      </trkpt>
      <trkpt lat="46.07446" lon="6.21113">
        <ele>915.404</ele>
        <time>2020-05-20T15:22:23Z</time>
      </trkpt>
      <trkpt lat="46.07449" lon="6.21125">
        <ele>915.224</ele>
        <time>2020-05-20T15:22:24Z</time>
      </trkpt>
      <trkpt lat="46.07452" lon="6.21136">
        <ele>915.208</ele>
        <time>2020-05-20T15:22:25Z</time>
      </trkpt>
      <trkpt lat="46.07453" lon="6.21147">
        <ele>915.35</ele>
        <time>2020-05-20T15:22:26Z</time>
      </trkpt>
      <trkpt lat="46.07455" lon="6.21157">
        <ele>915.325</ele>
        <time>2020-05-20T15:22:27Z</time>
      </trkpt>
      <trkpt lat="46.07456" lon="6.21167">
        <ele>915.382</ele>
        <time>2020-05-20T15:22:28Z</time>
      </trkpt>
      <trkpt lat="46.07457" lon="6.21181">
        <ele>915.347</ele>
        <time>2020-05-20T15:22:29Z</time>
      </trkpt>
      <trkpt lat="46.07456" lon="6.212">
        <ele>915.131</ele>
        <time>2020-05-20T15:22:30Z</time>
      </trkpt>
      <trkpt lat="46.07457" lon="6.21215">
        <ele>914.644</ele>
        <time>2020-05-20T15:22:31Z</time>
      </trkpt>
      <trkpt lat="46.07456" lon="6.2123">
        <ele>914.114</ele>
        <time>2020-05-20T15:22:32Z</time>
      </trkpt>
      <trkpt lat="46.07455" lon="6.21245">
        <ele>913.62</ele>
        <time>2020-05-20T15:22:33Z</time>
      </trkpt>
      <trkpt lat="46.07453" lon="6.21259">
        <ele>913.037</ele>
        <time>2020-05-20T15:22:34Z</time>
      </trkpt>
      <trkpt lat="46.07452" lon="6.21271">
        <ele>912.349</ele>
        <time>2020-05-20T15:22:35Z</time>
      </trkpt>
      <trkpt lat="46.07453" lon="6.21282">
        <ele>911.613</ele>
        <time>2020-05-20T15:22:36Z</time>
      </trkpt>
      <trkpt lat="46.07456" lon="6.21292">
        <ele>910.808</ele>
        <time>2020-05-20T15:22:37Z</time>
      </trkpt>
      <trkpt lat="46.07458" lon="6.213">
        <ele>910.157</ele>
        <time>2020-05-20T15:22:38Z</time>
      </trkpt>
      <trkpt lat="46.0746" lon="6.21307">
        <ele>908.872</ele>
        <time>2020-05-20T15:22:40Z</time>
      </trkpt>
      <trkpt lat="46.07464" lon="6.21314">
        <ele>907.979</ele>
        <time>2020-05-20T15:22:43Z</time>
      </trkpt>
      <trkpt lat="46.07456" lon="6.21293">
        <ele>908.414</ele>
        <time>2020-05-20T15:22:51Z</time>
      </trkpt>
      <trkpt lat="46.07453" lon="6.21283">
        <ele>908.498</ele>
        <time>2020-05-20T15:22:53Z</time>
      </trkpt>
      <trkpt lat="46.07453" lon="6.21268">
        <ele>908.661</ele>
        <time>2020-05-20T15:22:55Z</time>
      </trkpt>
      <trkpt lat="46.07455" lon="6.21256">
        <ele>908.971</ele>
        <time>2020-05-20T15:22:57Z</time>
      </trkpt>
      <trkpt lat="46.07456" lon="6.21249">
        <ele>909.157</ele>
        <time>2020-05-20T15:22:58Z</time>
      </trkpt>
      <trkpt lat="46.07457" lon="6.21239">
        <ele>909.448</ele>
        <time>2020-05-20T15:22:59Z</time>
      </trkpt>
      <trkpt lat="46.07458" lon="6.21226">
        <ele>909.961</ele>
        <time>2020-05-20T15:23:00Z</time>
      </trkpt>
      <trkpt lat="46.07458" lon="6.21219">
        <ele>910.517</ele>
        <time>2020-05-20T15:23:01Z</time>
      </trkpt>
      <trkpt lat="46.07451" lon="6.21238">
        <ele>911.808</ele>
        <time>2020-05-20T15:23:07Z</time>
      </trkpt>
      <trkpt lat="46.0745" lon="6.21245">
        <ele>911.628</ele>
        <time>2020-05-20T15:23:08Z</time>
      </trkpt>
      <trkpt lat="46.07447" lon="6.21259">
        <ele>910.883</ele>
        <time>2020-05-20T15:23:10Z</time>
      </trkpt>
      <trkpt lat="46.07445" lon="6.21268">
        <ele>910.25</ele>
        <time>2020-05-20T15:23:11Z</time>
      </trkpt>
      <trkpt lat="46.07443" lon="6.2128">
        <ele>908.935</ele>
        <time>2020-05-20T15:23:13Z</time>
      </trkpt>
      <trkpt lat="46.07448" lon="6.21293">
        <ele>907.869</ele>
        <time>2020-05-20T15:23:15Z</time>
      </trkpt>
      <trkpt lat="46.07451" lon="6.21301">
        <ele>907.582</ele>
        <time>2020-05-20T15:23:16Z</time>
      </trkpt>
      <trkpt lat="46.07453" lon="6.21307">
        <ele>907.422</ele>
        <time>2020-05-20T15:23:17Z</time>
      </trkpt>
      <trkpt lat="46.07457" lon="6.21318">
        <ele>907.488</ele>
        <time>2020-05-20T15:23:18Z</time>
      </trkpt>
      <trkpt lat="46.0746" lon="6.2133">
        <ele>907.263</ele>
        <time>2020-05-20T15:23:19Z</time>
      </trkpt>
      <trkpt lat="46.07465" lon="6.21339">
        <ele>907.144</ele>
        <time>2020-05-20T15:23:20Z</time>
      </trkpt>
      <trkpt lat="46.07468" lon="6.21346">
        <ele>907.018</ele>
        <time>2020-05-20T15:23:21Z</time>
      </trkpt>
      <trkpt lat="46.0747" lon="6.21354">
        <ele>906.708</ele>
        <time>2020-05-20T15:23:22Z</time>
      </trkpt>
      <trkpt lat="46.07473" lon="6.21362">
        <ele>906.35</ele>
        <time>2020-05-20T15:23:23Z</time>
      </trkpt>
      <trkpt lat="46.07475" lon="6.21369">
        <ele>906.085</ele>
        <time>2020-05-20T15:23:24Z</time>
      </trkpt>
      <trkpt lat="46.07478" lon="6.21376">
        <ele>905.692</ele>
        <time>2020-05-20T15:23:25Z</time>
      </trkpt>
      <trkpt lat="46.07483" lon="6.21388">
        <ele>904.767</ele>
        <time>2020-05-20T15:23:27Z</time>
      </trkpt>
      <trkpt lat="46.07487" lon="6.21396">
        <ele>904.271</ele>
        <time>2020-05-20T15:23:28Z</time>
      </trkpt>
      <trkpt lat="46.07494" lon="6.21408">
        <ele>903.884</ele>
        <time>2020-05-20T15:23:29Z</time>
      </trkpt>
      <trkpt lat="46.07499" lon="6.21416">
        <ele>903.524</ele>
        <time>2020-05-20T15:23:30Z</time>
      </trkpt>
      <trkpt lat="46.07505" lon="6.21423">
        <ele>903.15</ele>
        <time>2020-05-20T15:23:31Z</time>
      </trkpt>
      <trkpt lat="46.07513" lon="6.21429">
        <ele>902.626</ele>
        <time>2020-05-20T15:23:32Z</time>
      </trkpt>
      <trkpt lat="46.07519" lon="6.21433">
        <ele>902.147</ele>
        <time>2020-05-20T15:23:33Z</time>
      </trkpt>
      <trkpt lat="46.07526" lon="6.21437">
        <ele>900.911</ele>
        <time>2020-05-20T15:23:35Z</time>
      </trkpt>
      <trkpt lat="46.07528" lon="6.21451">
        <ele>899.808</ele>
        <time>2020-05-20T15:23:37Z</time>
      </trkpt>
      <trkpt lat="46.07527" lon="6.21465">
        <ele>899.336</ele>
        <time>2020-05-20T15:23:38Z</time>
      </trkpt>
      <trkpt lat="46.07524" lon="6.21476">
        <ele>898.861</ele>
        <time>2020-05-20T15:23:39Z</time>
      </trkpt>
      <trkpt lat="46.0752" lon="6.21488">
        <ele>898.348</ele>
        <time>2020-05-20T15:23:40Z</time>
      </trkpt>
      <trkpt lat="46.07516" lon="6.215">
        <ele>897.823</ele>
        <time>2020-05-20T15:23:41Z</time>
      </trkpt>
      <trkpt lat="46.07513" lon="6.2151">
        <ele>897.327</ele>
        <time>2020-05-20T15:23:42Z</time>
      </trkpt>
      <trkpt lat="46.0751" lon="6.21521">
        <ele>896.74</ele>
        <time>2020-05-20T15:23:43Z</time>
      </trkpt>
      <trkpt lat="46.07507" lon="6.21531">
        <ele>896.13</ele>
        <time>2020-05-20T15:23:44Z</time>
      </trkpt>
      <trkpt lat="46.07505" lon="6.21541">
        <ele>895.556</ele>
        <time>2020-05-20T15:23:45Z</time>
      </trkpt>
      <trkpt lat="46.07503" lon="6.21555">
        <ele>895.044</ele>
        <time>2020-05-20T15:23:46Z</time>
      </trkpt>
      <trkpt lat="46.075" lon="6.21567">
        <ele>894.505</ele>
        <time>2020-05-20T15:23:47Z</time>
      </trkpt>
      <trkpt lat="46.07497" lon="6.21578">
        <ele>894.115</ele>
        <time>2020-05-20T15:23:48Z</time>
      </trkpt>
      <trkpt lat="46.07495" lon="6.21587">
        <ele>893.808</ele>
        <time>2020-05-20T15:23:49Z</time>
      </trkpt>
      <trkpt lat="46.07492" lon="6.21595">
        <ele>893.568</ele>
        <time>2020-05-20T15:23:50Z</time>
      </trkpt>
      <trkpt lat="46.07489" lon="6.21605">
        <ele>892.873</ele>
        <time>2020-05-20T15:23:52Z</time>
      </trkpt>
      <trkpt lat="46.07493" lon="6.21611">
        <ele>891.77</ele>
        <time>2020-05-20T15:23:55Z</time>
      </trkpt>
      <trkpt lat="46.07498" lon="6.21615">
        <ele>891.515</ele>
        <time>2020-05-20T15:23:56Z</time>
      </trkpt>
      <trkpt lat="46.07505" lon="6.2162">
        <ele>891.369</ele>
        <time>2020-05-20T15:23:57Z</time>
      </trkpt>
      <trkpt lat="46.07511" lon="6.21627">
        <ele>891.392</ele>
        <time>2020-05-20T15:23:58Z</time>
      </trkpt>
      <trkpt lat="46.07518" lon="6.21636">
        <ele>891.332</ele>
        <time>2020-05-20T15:23:59Z</time>
      </trkpt>
      <trkpt lat="46.07526" lon="6.21646">
        <ele>891.418</ele>
        <time>2020-05-20T15:24:00Z</time>
      </trkpt>
      <trkpt lat="46.07534" lon="6.21655">
        <ele>891.412</ele>
        <time>2020-05-20T15:24:01Z</time>
      </trkpt>
      <trkpt lat="46.07542" lon="6.21664">
        <ele>891.432</ele>
        <time>2020-05-20T15:24:02Z</time>
      </trkpt>
      <trkpt lat="46.07549" lon="6.21673">
        <ele>891.405</ele>
        <time>2020-05-20T15:24:03Z</time>
      </trkpt>
      <trkpt lat="46.07557" lon="6.21682">
        <ele>891.508</ele>
        <time>2020-05-20T15:24:04Z</time>
      </trkpt>
      <trkpt lat="46.07564" lon="6.21691">
        <ele>891.565</ele>
        <time>2020-05-20T15:24:05Z</time>
      </trkpt>
      <trkpt lat="46.07572" lon="6.21698">
        <ele>891.51</ele>
        <time>2020-05-20T15:24:06Z</time>
      </trkpt>
      <trkpt lat="46.0758" lon="6.21705">
        <ele>891.447</ele>
        <time>2020-05-20T15:24:07Z</time>
      </trkpt>
      <trkpt lat="46.0759" lon="6.21713">
        <ele>891.362</ele>
        <time>2020-05-20T15:24:08Z</time>
      </trkpt>
      <trkpt lat="46.07599" lon="6.2172">
        <ele>891.016</ele>
        <time>2020-05-20T15:24:09Z</time>
      </trkpt>
      <trkpt lat="46.07609" lon="6.21727">
        <ele>890.979</ele>
        <time>2020-05-20T15:24:10Z</time>
      </trkpt>
      <trkpt lat="46.07619" lon="6.21734">
        <ele>890.729</ele>
        <time>2020-05-20T15:24:11Z</time>
      </trkpt>
      <trkpt lat="46.07629" lon="6.21742">
        <ele>890.545</ele>
        <time>2020-05-20T15:24:12Z</time>
      </trkpt>
      <trkpt lat="46.07638" lon="6.21749">
        <ele>890.418</ele>
        <time>2020-05-20T15:24:13Z</time>
      </trkpt>
      <trkpt lat="46.07647" lon="6.21756">
        <ele>890.498</ele>
        <time>2020-05-20T15:24:14Z</time>
      </trkpt>
      <trkpt lat="46.07654" lon="6.21762">
        <ele>890.217</ele>
        <time>2020-05-20T15:24:15Z</time>
      </trkpt>
      <trkpt lat="46.07662" lon="6.21769">
        <ele>890.108</ele>
        <time>2020-05-20T15:24:16Z</time>
      </trkpt>
      <trkpt lat="46.07673" lon="6.21779">
        <ele>889.945</ele>
        <time>2020-05-20T15:24:17Z</time>
      </trkpt>
      <trkpt lat="46.07682" lon="6.21791">
        <ele>889.72</ele>
        <time>2020-05-20T15:24:18Z</time>
      </trkpt>
      <trkpt lat="46.07692" lon="6.21804">
        <ele>889.487</ele>
        <time>2020-05-20T15:24:19Z</time>
      </trkpt>
      <trkpt lat="46.07702" lon="6.21818">
        <ele>888.982</ele>
        <time>2020-05-20T15:24:20Z</time>
      </trkpt>
      <trkpt lat="46.07711" lon="6.21833">
        <ele>888.346</ele>
        <time>2020-05-20T15:24:21Z</time>
      </trkpt>
      <trkpt lat="46.07716" lon="6.21847">
        <ele>887.899</ele>
        <time>2020-05-20T15:24:22Z</time>
      </trkpt>
      <trkpt lat="46.07721" lon="6.21859">
        <ele>887.339</ele>
        <time>2020-05-20T15:24:23Z</time>
      </trkpt>
      <trkpt lat="46.07724" lon="6.21874">
        <ele>886.675</ele>
        <time>2020-05-20T15:24:24Z</time>
      </trkpt>
      <trkpt lat="46.07727" lon="6.21886">
        <ele>885.821</ele>
        <time>2020-05-20T15:24:25Z</time>
      </trkpt>
      <trkpt lat="46.07734" lon="6.21896">
        <ele>885.041</ele>
        <time>2020-05-20T15:24:26Z</time>
      </trkpt>
      <trkpt lat="46.07744" lon="6.21905">
        <ele>884.205</ele>
        <time>2020-05-20T15:24:27Z</time>
      </trkpt>
      <trkpt lat="46.07756" lon="6.21916">
        <ele>882.908</ele>
        <time>2020-05-20T15:24:28Z</time>
      </trkpt>
      <trkpt lat="46.07768" lon="6.21931">
        <ele>881.536</ele>
        <time>2020-05-20T15:24:29Z</time>
      </trkpt>
      <trkpt lat="46.07779" lon="6.21947">
        <ele>880.081</ele>
        <time>2020-05-20T15:24:30Z</time>
      </trkpt>
      <trkpt lat="46.07788" lon="6.21962">
        <ele>878.418</ele>
        <time>2020-05-20T15:24:31Z</time>
      </trkpt>
      <trkpt lat="46.07798" lon="6.21976">
        <ele>877.043</ele>
        <time>2020-05-20T15:24:32Z</time>
      </trkpt>
      <trkpt lat="46.07806" lon="6.21989">
        <ele>875.847</ele>
        <time>2020-05-20T15:24:33Z</time>
      </trkpt>
      <trkpt lat="46.07815" lon="6.22002">
        <ele>874.75</ele>
        <time>2020-05-20T15:24:34Z</time>
      </trkpt>
      <trkpt lat="46.07826" lon="6.22015">
        <ele>874.01</ele>
        <time>2020-05-20T15:24:35Z</time>
      </trkpt>
      <trkpt lat="46.07836" lon="6.22027">
        <ele>873.396</ele>
        <time>2020-05-20T15:24:36Z</time>
      </trkpt>
      <trkpt lat="46.07848" lon="6.22041">
        <ele>872.628</ele>
        <time>2020-05-20T15:24:37Z</time>
      </trkpt>
      <trkpt lat="46.07859" lon="6.22056">
        <ele>871.989</ele>
        <time>2020-05-20T15:24:38Z</time>
      </trkpt>
      <trkpt lat="46.0787" lon="6.22071">
        <ele>871.017</ele>
        <time>2020-05-20T15:24:39Z</time>
      </trkpt>
      <trkpt lat="46.07882" lon="6.22087">
        <ele>870.008</ele>
        <time>2020-05-20T15:24:40Z</time>
      </trkpt>
      <trkpt lat="46.07893" lon="6.22103">
        <ele>869.046</ele>
        <time>2020-05-20T15:24:41Z</time>
      </trkpt>
      <trkpt lat="46.07904" lon="6.2212">
        <ele>867.881</ele>
        <time>2020-05-20T15:24:42Z</time>
      </trkpt>
      <trkpt lat="46.07914" lon="6.22138">
        <ele>866.368</ele>
        <time>2020-05-20T15:24:43Z</time>
      </trkpt>
      <trkpt lat="46.07923" lon="6.22155">
        <ele>865.063</ele>
        <time>2020-05-20T15:24:44Z</time>
      </trkpt>
      <trkpt lat="46.07934" lon="6.22173">
        <ele>863.997</ele>
        <time>2020-05-20T15:24:45Z</time>
      </trkpt>
      <trkpt lat="46.07945" lon="6.22188">
        <ele>862.83</ele>
        <time>2020-05-20T15:24:46Z</time>
      </trkpt>
      <trkpt lat="46.07954" lon="6.22203">
        <ele>861.81</ele>
        <time>2020-05-20T15:24:47Z</time>
      </trkpt>
      <trkpt lat="46.07963" lon="6.22216">
        <ele>861.056</ele>
        <time>2020-05-20T15:24:48Z</time>
      </trkpt>
      <trkpt lat="46.07974" lon="6.22227">
        <ele>860.181</ele>
        <time>2020-05-20T15:24:49Z</time>
      </trkpt>
      <trkpt lat="46.07983" lon="6.22237">
        <ele>858.961</ele>
        <time>2020-05-20T15:24:50Z</time>
      </trkpt>
      <trkpt lat="46.07991" lon="6.22245">
        <ele>857.917</ele>
        <time>2020-05-20T15:24:51Z</time>
      </trkpt>
      <trkpt lat="46.08001" lon="6.22252">
        <ele>857.108</ele>
        <time>2020-05-20T15:24:52Z</time>
      </trkpt>
      <trkpt lat="46.08011" lon="6.22259">
        <ele>856.052</ele>
        <time>2020-05-20T15:24:53Z</time>
      </trkpt>
      <trkpt lat="46.08021" lon="6.22265">
        <ele>855.047</ele>
        <time>2020-05-20T15:24:54Z</time>
      </trkpt>
      <trkpt lat="46.08033" lon="6.2227">
        <ele>854.244</ele>
        <time>2020-05-20T15:24:55Z</time>
      </trkpt>
      <trkpt lat="46.08043" lon="6.22276">
        <ele>853.239</ele>
        <time>2020-05-20T15:24:56Z</time>
      </trkpt>
      <trkpt lat="46.08053" lon="6.22282">
        <ele>852.123</ele>
        <time>2020-05-20T15:24:57Z</time>
      </trkpt>
      <trkpt lat="46.08064" lon="6.22289">
        <ele>850.716</ele>
        <time>2020-05-20T15:24:58Z</time>
      </trkpt>
      <trkpt lat="46.08072" lon="6.22296">
        <ele>849.216</ele>
        <time>2020-05-20T15:24:59Z</time>
      </trkpt>
      <trkpt lat="46.08082" lon="6.22303">
        <ele>847.422</ele>
        <time>2020-05-20T15:25:00Z</time>
      </trkpt>
      <trkpt lat="46.08091" lon="6.22309">
        <ele>845.752</ele>
        <time>2020-05-20T15:25:01Z</time>
      </trkpt>
      <trkpt lat="46.08098" lon="6.22318">
        <ele>843.953</ele>
        <time>2020-05-20T15:25:02Z</time>
      </trkpt>
      <trkpt lat="46.08107" lon="6.22325">
        <ele>842.008</ele>
        <time>2020-05-20T15:25:03Z</time>
      </trkpt>
      <trkpt lat="46.08116" lon="6.22332">
        <ele>840.408</ele>
        <time>2020-05-20T15:25:04Z</time>
      </trkpt>
      <trkpt lat="46.08124" lon="6.22339">
        <ele>838.759</ele>
        <time>2020-05-20T15:25:05Z</time>
      </trkpt>
      <trkpt lat="46.08132" lon="6.22346">
        <ele>837.024</ele>
        <time>2020-05-20T15:25:06Z</time>
      </trkpt>
      <trkpt lat="46.08142" lon="6.22351">
        <ele>835.281</ele>
        <time>2020-05-20T15:25:07Z</time>
      </trkpt>
      <trkpt lat="46.08151" lon="6.22357">
        <ele>833.576</ele>
        <time>2020-05-20T15:25:08Z</time>
      </trkpt>
      <trkpt lat="46.08163" lon="6.22366">
        <ele>831.92</ele>
        <time>2020-05-20T15:25:09Z</time>
      </trkpt>
      <trkpt lat="46.08171" lon="6.22375">
        <ele>830.173</ele>
        <time>2020-05-20T15:25:10Z</time>
      </trkpt>
      <trkpt lat="46.08179" lon="6.22384">
        <ele>828.553</ele>
        <time>2020-05-20T15:25:11Z</time>
      </trkpt>
      <trkpt lat="46.08188" lon="6.22392">
        <ele>826.949</ele>
        <time>2020-05-20T15:25:12Z</time>
      </trkpt>
      <trkpt lat="46.08196" lon="6.22402">
        <ele>825.519</ele>
        <time>2020-05-20T15:25:13Z</time>
      </trkpt>
      <trkpt lat="46.08205" lon="6.22413">
        <ele>824.209</ele>
        <time>2020-05-20T15:25:14Z</time>
      </trkpt>
      <trkpt lat="46.08212" lon="6.22423">
        <ele>823.119</ele>
        <time>2020-05-20T15:25:15Z</time>
      </trkpt>
      <trkpt lat="46.08219" lon="6.22435">
        <ele>822.008</ele>
        <time>2020-05-20T15:25:16Z</time>
      </trkpt>
      <trkpt lat="46.08224" lon="6.22445">
        <ele>821.115</ele>
        <time>2020-05-20T15:25:17Z</time>
      </trkpt>
      <trkpt lat="46.08231" lon="6.22451">
        <ele>820.18</ele>
        <time>2020-05-20T15:25:18Z</time>
      </trkpt>
      <trkpt lat="46.08239" lon="6.22457">
        <ele>819.187</ele>
        <time>2020-05-20T15:25:19Z</time>
      </trkpt>
      <trkpt lat="46.08247" lon="6.22462">
        <ele>818.242</ele>
        <time>2020-05-20T15:25:20Z</time>
      </trkpt>
      <trkpt lat="46.08256" lon="6.22464">
        <ele>817.556</ele>
        <time>2020-05-20T15:25:21Z</time>
      </trkpt>
      <trkpt lat="46.08265" lon="6.22465">
        <ele>816.759</ele>
        <time>2020-05-20T15:25:22Z</time>
      </trkpt>
      <trkpt lat="46.08276" lon="6.22468">
        <ele>816.719</ele>
        <time>2020-05-20T15:25:23Z</time>
      </trkpt>
      <trkpt lat="46.08287" lon="6.22472">
        <ele>816.025</ele>
        <time>2020-05-20T15:25:24Z</time>
      </trkpt>
      <trkpt lat="46.08298" lon="6.22479">
        <ele>815.226</ele>
        <time>2020-05-20T15:25:25Z</time>
      </trkpt>
      <trkpt lat="46.08309" lon="6.22485">
        <ele>814.447</ele>
        <time>2020-05-20T15:25:26Z</time>
      </trkpt>
      <trkpt lat="46.08318" lon="6.22491">
        <ele>813.611</ele>
        <time>2020-05-20T15:25:27Z</time>
      </trkpt>
      <trkpt lat="46.08325" lon="6.22497">
        <ele>812.808</ele>
        <time>2020-05-20T15:25:28Z</time>
      </trkpt>
      <trkpt lat="46.0833" lon="6.22507">
        <ele>812.016</ele>
        <time>2020-05-20T15:25:29Z</time>
      </trkpt>
      <trkpt lat="46.08334" lon="6.22513">
        <ele>811.271</ele>
        <time>2020-05-20T15:25:30Z</time>
      </trkpt>
      <trkpt lat="46.08339" lon="6.22516">
        <ele>810.578</ele>
        <time>2020-05-20T15:25:31Z</time>
      </trkpt>
      <trkpt lat="46.08344" lon="6.22516">
        <ele>809.763</ele>
        <time>2020-05-20T15:25:32Z</time>
      </trkpt>
      <trkpt lat="46.0835" lon="6.22519">
        <ele>809.087</ele>
        <time>2020-05-20T15:25:33Z</time>
      </trkpt>
      <trkpt lat="46.08356" lon="6.22524">
        <ele>808.54</ele>
        <time>2020-05-20T15:25:34Z</time>
      </trkpt>
      <trkpt lat="46.08361" lon="6.22529">
        <ele>808.24</ele>
        <time>2020-05-20T15:25:35Z</time>
      </trkpt>
      <trkpt lat="46.08367" lon="6.22534">
        <ele>808.046</ele>
        <time>2020-05-20T15:25:36Z</time>
      </trkpt>
      <trkpt lat="46.08373" lon="6.2254">
        <ele>807.792</ele>
        <time>2020-05-20T15:25:37Z</time>
      </trkpt>
      <trkpt lat="46.08377" lon="6.22544">
        <ele>807.573</ele>
        <time>2020-05-20T15:25:38Z</time>
      </trkpt>
      <trkpt lat="46.08381" lon="6.22535">
        <ele>807.02</ele>
        <time>2020-05-20T15:25:40Z</time>
      </trkpt>
      <trkpt lat="46.08385" lon="6.22526">
        <ele>806.808</ele>
        <time>2020-05-20T15:25:41Z</time>
      </trkpt>
      <trkpt lat="46.0839" lon="6.22518">
        <ele>806.783</ele>
        <time>2020-05-20T15:25:42Z</time>
      </trkpt>
      <trkpt lat="46.08397" lon="6.22504">
        <ele>806.628</ele>
        <time>2020-05-20T15:25:43Z</time>
      </trkpt>
      <trkpt lat="46.08407" lon="6.22488">
        <ele>806.485</ele>
        <time>2020-05-20T15:25:44Z</time>
      </trkpt>
      <trkpt lat="46.0842" lon="6.22469">
        <ele>806.24</ele>
        <time>2020-05-20T15:25:45Z</time>
      </trkpt>
      <trkpt lat="46.08438" lon="6.22454">
        <ele>806.294</ele>
        <time>2020-05-20T15:25:46Z</time>
      </trkpt>
      <trkpt lat="46.08454" lon="6.22438">
        <ele>806.277</ele>
        <time>2020-05-20T15:25:47Z</time>
      </trkpt>
      <trkpt lat="46.08468" lon="6.22421">
        <ele>806.297</ele>
        <time>2020-05-20T15:25:48Z</time>
      </trkpt>
      <trkpt lat="46.08479" lon="6.22405">
        <ele>806.293</ele>
        <time>2020-05-20T15:25:49Z</time>
      </trkpt>
      <trkpt lat="46.08486" lon="6.22389">
        <ele>805.954</ele>
        <time>2020-05-20T15:25:50Z</time>
      </trkpt>
      <trkpt lat="46.0849" lon="6.22368">
        <ele>805.156</ele>
        <time>2020-05-20T15:25:51Z</time>
      </trkpt>
      <trkpt lat="46.08496" lon="6.22348">
        <ele>804.011</ele>
        <time>2020-05-20T15:25:52Z</time>
      </trkpt>
      <trkpt lat="46.08505" lon="6.22326">
        <ele>803.008</ele>
        <time>2020-05-20T15:25:53Z</time>
      </trkpt>
      <trkpt lat="46.08512" lon="6.223">
        <ele>802.139</ele>
        <time>2020-05-20T15:25:54Z</time>
      </trkpt>
      <trkpt lat="46.08517" lon="6.22275">
        <ele>801.644</ele>
        <time>2020-05-20T15:25:55Z</time>
      </trkpt>
      <trkpt lat="46.08519" lon="6.2225">
        <ele>801.171</ele>
        <time>2020-05-20T15:25:56Z</time>
      </trkpt>
      <trkpt lat="46.08519" lon="6.22227">
        <ele>800.876</ele>
        <time>2020-05-20T15:25:57Z</time>
      </trkpt>
      <trkpt lat="46.08517" lon="6.22206">
        <ele>800.55</ele>
        <time>2020-05-20T15:25:58Z</time>
      </trkpt>
      <trkpt lat="46.08513" lon="6.22182">
        <ele>800.143</ele>
        <time>2020-05-20T15:25:59Z</time>
      </trkpt>
      <trkpt lat="46.0851" lon="6.22162">
        <ele>799.713</ele>
        <time>2020-05-20T15:26:00Z</time>
      </trkpt>
      <trkpt lat="46.08511" lon="6.22139">
        <ele>799.789</ele>
        <time>2020-05-20T15:26:01Z</time>
      </trkpt>
      <trkpt lat="46.08516" lon="6.22113">
        <ele>799.573</ele>
        <time>2020-05-20T15:26:02Z</time>
      </trkpt>
      <trkpt lat="46.08521" lon="6.22088">
        <ele>799.485</ele>
        <time>2020-05-20T15:26:03Z</time>
      </trkpt>
      <trkpt lat="46.08529" lon="6.22062">
        <ele>799.413</ele>
        <time>2020-05-20T15:26:04Z</time>
      </trkpt>
      <trkpt lat="46.08538" lon="6.2204">
        <ele>799.508</ele>
        <time>2020-05-20T15:26:05Z</time>
      </trkpt>
      <trkpt lat="46.08545" lon="6.22025">
        <ele>799.721</ele>
        <time>2020-05-20T15:26:06Z</time>
      </trkpt>
      <trkpt lat="46.0855" lon="6.22005">
        <ele>799.836</ele>
        <time>2020-05-20T15:26:07Z</time>
      </trkpt>
      <trkpt lat="46.08554" lon="6.21985">
        <ele>799.833</ele>
        <time>2020-05-20T15:26:08Z</time>
      </trkpt>
      <trkpt lat="46.08557" lon="6.21963">
        <ele>799.848</ele>
        <time>2020-05-20T15:26:09Z</time>
      </trkpt>
      <trkpt lat="46.0856" lon="6.21942">
        <ele>799.812</ele>
        <time>2020-05-20T15:26:10Z</time>
      </trkpt>
      <trkpt lat="46.08564" lon="6.21923">
        <ele>799.875</ele>
        <time>2020-05-20T15:26:11Z</time>
      </trkpt>
      <trkpt lat="46.08568" lon="6.21904">
        <ele>800.135</ele>
        <time>2020-05-20T15:26:12Z</time>
      </trkpt>
      <trkpt lat="46.08574" lon="6.21885">
        <ele>800.221</ele>
        <time>2020-05-20T15:26:13Z</time>
      </trkpt>
      <trkpt lat="46.08582" lon="6.21867">
        <ele>800.473</ele>
        <time>2020-05-20T15:26:14Z</time>
      </trkpt>
      <trkpt lat="46.08593" lon="6.21851">
        <ele>800.485</ele>
        <time>2020-05-20T15:26:15Z</time>
      </trkpt>
      <trkpt lat="46.08607" lon="6.21837">
        <ele>800.413</ele>
        <time>2020-05-20T15:26:16Z</time>
      </trkpt>
      <trkpt lat="46.08622" lon="6.21825">
        <ele>800.208</ele>
        <time>2020-05-20T15:26:17Z</time>
      </trkpt>
      <trkpt lat="46.08638" lon="6.21815">
        <ele>800.231</ele>
        <time>2020-05-20T15:26:18Z</time>
      </trkpt>
      <trkpt lat="46.08653" lon="6.21806">
        <ele>800.416</ele>
        <time>2020-05-20T15:26:19Z</time>
      </trkpt>
      <trkpt lat="46.08666" lon="6.21795">
        <ele>801.083</ele>
        <time>2020-05-20T15:26:20Z</time>
      </trkpt>
      <trkpt lat="46.08676" lon="6.21782">
        <ele>801.758</ele>
        <time>2020-05-20T15:26:21Z</time>
      </trkpt>
      <trkpt lat="46.08685" lon="6.21767">
        <ele>802.352</ele>
        <time>2020-05-20T15:26:22Z</time>
      </trkpt>
      <trkpt lat="46.08693" lon="6.21751">
        <ele>803.175</ele>
        <time>2020-05-20T15:26:23Z</time>
      </trkpt>
      <trkpt lat="46.08701" lon="6.21736">
        <ele>803.835</ele>
        <time>2020-05-20T15:26:24Z</time>
      </trkpt>
      <trkpt lat="46.08708" lon="6.21722">
        <ele>804.391</ele>
        <time>2020-05-20T15:26:25Z</time>
      </trkpt>
      <trkpt lat="46.08716" lon="6.21711">
        <ele>805.057</ele>
        <time>2020-05-20T15:26:26Z</time>
      </trkpt>
      <trkpt lat="46.08724" lon="6.21699">
        <ele>805.8</ele>
        <time>2020-05-20T15:26:27Z</time>
      </trkpt>
      <trkpt lat="46.08732" lon="6.21691">
        <ele>806.62</ele>
        <time>2020-05-20T15:26:28Z</time>
      </trkpt>
      <trkpt lat="46.0874" lon="6.21687">
        <ele>807.208</ele>
        <time>2020-05-20T15:26:29Z</time>
      </trkpt>
      <trkpt lat="46.08748" lon="6.21689">
        <ele>807.839</ele>
        <time>2020-05-20T15:26:30Z</time>
      </trkpt>
      <trkpt lat="46.08758" lon="6.21696">
        <ele>808.374</ele>
        <time>2020-05-20T15:26:31Z</time>
      </trkpt>
      <trkpt lat="46.08768" lon="6.21708">
        <ele>808.841</ele>
        <time>2020-05-20T15:26:32Z</time>
      </trkpt>
      <trkpt lat="46.08776" lon="6.21721">
        <ele>809.336</ele>
        <time>2020-05-20T15:26:33Z</time>
      </trkpt>
      <trkpt lat="46.08784" lon="6.21729">
        <ele>809.84</ele>
        <time>2020-05-20T15:26:34Z</time>
      </trkpt>
      <trkpt lat="46.08791" lon="6.21736">
        <ele>810.783</ele>
        <time>2020-05-20T15:26:35Z</time>
      </trkpt>
      <trkpt lat="46.08796" lon="6.21742">
        <ele>811.463</ele>
        <time>2020-05-20T15:26:36Z</time>
      </trkpt>
      <trkpt lat="46.088" lon="6.21746">
        <ele>812.279</ele>
        <time>2020-05-20T15:26:38Z</time>
      </trkpt>
      <trkpt lat="46.08803" lon="6.21739">
        <ele>812.496</ele>
        <time>2020-05-20T15:26:39Z</time>
      </trkpt>
      <trkpt lat="46.08791" lon="6.21726">
        <ele>812.331</ele>
        <time>2020-05-20T15:26:41Z</time>
      </trkpt>
      <trkpt lat="46.08782" lon="6.21718">
        <ele>812.324</ele>
        <time>2020-05-20T15:26:42Z</time>
      </trkpt>
      <trkpt lat="46.08771" lon="6.21706">
        <ele>812.208</ele>
        <time>2020-05-20T15:26:43Z</time>
      </trkpt>
      <trkpt lat="46.08759" lon="6.21695">
        <ele>812.033</ele>
        <time>2020-05-20T15:26:44Z</time>
      </trkpt>
      <trkpt lat="46.08749" lon="6.21684">
        <ele>811.978</ele>
        <time>2020-05-20T15:26:45Z</time>
      </trkpt>
      <trkpt lat="46.08741" lon="6.21675">
        <ele>811.715</ele>
        <time>2020-05-20T15:26:46Z</time>
      </trkpt>
      <trkpt lat="46.08738" lon="6.21664">
        <ele>811.14</ele>
        <time>2020-05-20T15:26:47Z</time>
      </trkpt>
      <trkpt lat="46.08736" lon="6.21652">
        <ele>810.634</ele>
        <time>2020-05-20T15:26:48Z</time>
      </trkpt>
      <trkpt lat="46.08739" lon="6.21643">
        <ele>810.427</ele>
        <time>2020-05-20T15:26:49Z</time>
      </trkpt>
      <trkpt lat="46.0874" lon="6.2163">
        <ele>810.447</ele>
        <time>2020-05-20T15:26:50Z</time>
      </trkpt>
      <trkpt lat="46.08739" lon="6.21623">
        <ele>810.793</ele>
        <time>2020-05-20T15:26:51Z</time>
      </trkpt>
      <trkpt lat="46.08741" lon="6.21616">
        <ele>812.489</ele>
        <time>2020-05-20T15:26:53Z</time>
      </trkpt>
      <trkpt lat="46.08735" lon="6.21621">
        <ele>814.706</ele>
        <time>2020-05-20T15:26:56Z</time>
      </trkpt>
      <trkpt lat="46.08726" lon="6.21622">
        <ele>815.326</ele>
        <time>2020-05-20T15:26:57Z</time>
      </trkpt>
      <trkpt lat="46.08718" lon="6.2162">
        <ele>815.908</ele>
        <time>2020-05-20T15:26:58Z</time>
      </trkpt>
      <trkpt lat="46.08707" lon="6.21616">
        <ele>816.642</ele>
        <time>2020-05-20T15:26:59Z</time>
      </trkpt>
      <trkpt lat="46.08696" lon="6.21609">
        <ele>817.577</ele>
        <time>2020-05-20T15:27:00Z</time>
      </trkpt>
      <trkpt lat="46.08686" lon="6.21598">
        <ele>818.674</ele>
        <time>2020-05-20T15:27:01Z</time>
      </trkpt>
      <trkpt lat="46.08675" lon="6.21585">
        <ele>819.769</ele>
        <time>2020-05-20T15:27:02Z</time>
      </trkpt>
      <trkpt lat="46.08663" lon="6.21574">
        <ele>821.073</ele>
        <time>2020-05-20T15:27:03Z</time>
      </trkpt>
      <trkpt lat="46.08651" lon="6.21564">
        <ele>822.596</ele>
        <time>2020-05-20T15:27:04Z</time>
      </trkpt>
      <trkpt lat="46.08639" lon="6.21553">
        <ele>823.796</ele>
        <time>2020-05-20T15:27:05Z</time>
      </trkpt>
      <trkpt lat="46.08628" lon="6.21543">
        <ele>824.922</ele>
        <time>2020-05-20T15:27:06Z</time>
      </trkpt>
      <trkpt lat="46.08621" lon="6.21532">
        <ele>826.465</ele>
        <time>2020-05-20T15:27:07Z</time>
      </trkpt>
      <trkpt lat="46.08613" lon="6.21521">
        <ele>827.668</ele>
        <time>2020-05-20T15:27:08Z</time>
      </trkpt>
      <trkpt lat="46.08604" lon="6.21515">
        <ele>828.914</ele>
        <time>2020-05-20T15:27:09Z</time>
      </trkpt>
      <trkpt lat="46.08594" lon="6.21506">
        <ele>830.508</ele>
        <time>2020-05-20T15:27:10Z</time>
      </trkpt>
      <trkpt lat="46.08584" lon="6.21497">
        <ele>832.18</ele>
        <time>2020-05-20T15:27:11Z</time>
      </trkpt>
      <trkpt lat="46.08572" lon="6.2149">
        <ele>833.485</ele>
        <time>2020-05-20T15:27:12Z</time>
      </trkpt>
      <trkpt lat="46.08561" lon="6.21483">
        <ele>834.952</ele>
        <time>2020-05-20T15:27:13Z</time>
      </trkpt>
      <trkpt lat="46.08551" lon="6.21477">
        <ele>836.237</ele>
        <time>2020-05-20T15:27:14Z</time>
      </trkpt>
      <trkpt lat="46.0854" lon="6.21471">
        <ele>837.251</ele>
        <time>2020-05-20T15:27:15Z</time>
      </trkpt>
      <trkpt lat="46.08529" lon="6.21464">
        <ele>838.054</ele>
        <time>2020-05-20T15:27:16Z</time>
      </trkpt>
      <trkpt lat="46.08518" lon="6.21458">
        <ele>838.764</ele>
        <time>2020-05-20T15:27:17Z</time>
      </trkpt>
      <trkpt lat="46.08506" lon="6.21453">
        <ele>839.22</ele>
        <time>2020-05-20T15:27:18Z</time>
      </trkpt>
      <trkpt lat="46.08494" lon="6.2145">
        <ele>839.821</ele>
        <time>2020-05-20T15:27:19Z</time>
      </trkpt>
      <trkpt lat="46.08482" lon="6.21451">
        <ele>840.241</ele>
        <time>2020-05-20T15:27:20Z</time>
      </trkpt>
      <trkpt lat="46.08471" lon="6.21451">
        <ele>840.805</ele>
        <time>2020-05-20T15:27:21Z</time>
      </trkpt>
      <trkpt lat="46.08461" lon="6.21451">
        <ele>841.608</ele>
        <time>2020-05-20T15:27:22Z</time>
      </trkpt>
      <trkpt lat="46.08452" lon="6.21451">
        <ele>842.326</ele>
        <time>2020-05-20T15:27:23Z</time>
      </trkpt>
      <trkpt lat="46.08445" lon="6.21447">
        <ele>843.041</ele>
        <time>2020-05-20T15:27:24Z</time>
      </trkpt>
      <trkpt lat="46.08438" lon="6.21444">
        <ele>843.858</ele>
        <time>2020-05-20T15:27:25Z</time>
      </trkpt>
      <trkpt lat="46.08432" lon="6.21442">
        <ele>844.643</ele>
        <time>2020-05-20T15:27:26Z</time>
      </trkpt>
      <trkpt lat="46.08425" lon="6.21442">
        <ele>845.357</ele>
        <time>2020-05-20T15:27:27Z</time>
      </trkpt>
      <trkpt lat="46.08416" lon="6.2144">
        <ele>845.98</ele>
        <time>2020-05-20T15:27:28Z</time>
      </trkpt>
      <trkpt lat="46.08408" lon="6.21438">
        <ele>846.51</ele>
        <time>2020-05-20T15:27:29Z</time>
      </trkpt>
      <trkpt lat="46.08399" lon="6.21436">
        <ele>847.136</ele>
        <time>2020-05-20T15:27:30Z</time>
      </trkpt>
      <trkpt lat="46.08392" lon="6.21435">
        <ele>847.743</ele>
        <time>2020-05-20T15:27:31Z</time>
      </trkpt>
      <trkpt lat="46.08384" lon="6.21433">
        <ele>848.164</ele>
        <time>2020-05-20T15:27:32Z</time>
      </trkpt>
      <trkpt lat="46.08376" lon="6.21432">
        <ele>848.51</ele>
        <time>2020-05-20T15:27:33Z</time>
      </trkpt>
      <trkpt lat="46.08368" lon="6.21429">
        <ele>848.808</ele>
        <time>2020-05-20T15:27:34Z</time>
      </trkpt>
      <trkpt lat="46.08361" lon="6.21426">
        <ele>848.998</ele>
        <time>2020-05-20T15:27:35Z</time>
      </trkpt>
      <trkpt lat="46.08354" lon="6.21424">
        <ele>848.923</ele>
        <time>2020-05-20T15:27:36Z</time>
      </trkpt>
      <trkpt lat="46.08348" lon="6.21422">
        <ele>848.92</ele>
        <time>2020-05-20T15:27:37Z</time>
      </trkpt>
      <trkpt lat="46.08345" lon="6.21417">
        <ele>849.195</ele>
        <time>2020-05-20T15:27:38Z</time>
      </trkpt>
      <trkpt lat="46.08342" lon="6.21409">
        <ele>849.479</ele>
        <time>2020-05-20T15:27:39Z</time>
      </trkpt>
      <trkpt lat="46.08341" lon="6.21398">
        <ele>849.882</ele>
        <time>2020-05-20T15:27:40Z</time>
      </trkpt>
      <trkpt lat="46.08338" lon="6.21387">
        <ele>850.572</ele>
        <time>2020-05-20T15:27:41Z</time>
      </trkpt>
      <trkpt lat="46.08335" lon="6.21377">
        <ele>851.538</ele>
        <time>2020-05-20T15:27:42Z</time>
      </trkpt>
      <trkpt lat="46.08331" lon="6.21366">
        <ele>852.755</ele>
        <time>2020-05-20T15:27:43Z</time>
      </trkpt>
      <trkpt lat="46.08327" lon="6.21354">
        <ele>854.107</ele>
        <time>2020-05-20T15:27:44Z</time>
      </trkpt>
      <trkpt lat="46.08324" lon="6.21343">
        <ele>855.617</ele>
        <time>2020-05-20T15:27:45Z</time>
      </trkpt>
      <trkpt lat="46.08322" lon="6.21333">
        <ele>857.308</ele>
        <time>2020-05-20T15:27:46Z</time>
      </trkpt>
      <trkpt lat="46.08319" lon="6.21324">
        <ele>859.219</ele>
        <time>2020-05-20T15:27:47Z</time>
      </trkpt>
      <trkpt lat="46.08313" lon="6.21317">
        <ele>861.074</ele>
        <time>2020-05-20T15:27:48Z</time>
      </trkpt>
      <trkpt lat="46.08305" lon="6.2131">
        <ele>862.751</ele>
        <time>2020-05-20T15:27:49Z</time>
      </trkpt>
      <trkpt lat="46.08298" lon="6.21302">
        <ele>864.376</ele>
        <time>2020-05-20T15:27:50Z</time>
      </trkpt>
      <trkpt lat="46.0829" lon="6.21291">
        <ele>865.68</ele>
        <time>2020-05-20T15:27:51Z</time>
      </trkpt>
      <trkpt lat="46.08282" lon="6.21283">
        <ele>866.873</ele>
        <time>2020-05-20T15:27:52Z</time>
      </trkpt>
      <trkpt lat="46.08276" lon="6.21274">
        <ele>868.093</ele>
        <time>2020-05-20T15:27:53Z</time>
      </trkpt>
      <trkpt lat="46.08269" lon="6.21265">
        <ele>869.229</ele>
        <time>2020-05-20T15:27:54Z</time>
      </trkpt>
      <trkpt lat="46.08264" lon="6.21256">
        <ele>870.695</ele>
        <time>2020-05-20T15:27:55Z</time>
      </trkpt>
      <trkpt lat="46.08261" lon="6.21248">
        <ele>871.949</ele>
        <time>2020-05-20T15:27:56Z</time>
      </trkpt>
      <trkpt lat="46.0826" lon="6.21239">
        <ele>873.423</ele>
        <time>2020-05-20T15:27:57Z</time>
      </trkpt>
      <trkpt lat="46.0826" lon="6.21231">
        <ele>874.808</ele>
        <time>2020-05-20T15:27:58Z</time>
      </trkpt>
      <trkpt lat="46.08262" lon="6.21219">
        <ele>876.493</ele>
        <time>2020-05-20T15:27:59Z</time>
      </trkpt>
      <trkpt lat="46.08265" lon="6.21206">
        <ele>877.828</ele>
        <time>2020-05-20T15:28:00Z</time>
      </trkpt>
      <trkpt lat="46.08266" lon="6.21193">
        <ele>879.335</ele>
        <time>2020-05-20T15:28:01Z</time>
      </trkpt>
      <trkpt lat="46.08267" lon="6.21176">
        <ele>880.46</ele>
        <time>2020-05-20T15:28:02Z</time>
      </trkpt>
      <trkpt lat="46.08265" lon="6.2116">
        <ele>881.834</ele>
        <time>2020-05-20T15:28:03Z</time>
      </trkpt>
      <trkpt lat="46.08262" lon="6.21145">
        <ele>882.817</ele>
        <time>2020-05-20T15:28:04Z</time>
      </trkpt>
      <trkpt lat="46.08259" lon="6.21129">
        <ele>883.767</ele>
        <time>2020-05-20T15:28:05Z</time>
      </trkpt>
      <trkpt lat="46.08253" lon="6.21114">
        <ele>884.743</ele>
        <time>2020-05-20T15:28:06Z</time>
      </trkpt>
      <trkpt lat="46.08249" lon="6.21095">
        <ele>885.624</ele>
        <time>2020-05-20T15:28:07Z</time>
      </trkpt>
      <trkpt lat="46.0824" lon="6.21077">
        <ele>886.404</ele>
        <time>2020-05-20T15:28:08Z</time>
      </trkpt>
      <trkpt lat="46.08231" lon="6.2106">
        <ele>887.414</ele>
        <time>2020-05-20T15:28:09Z</time>
      </trkpt>
      <trkpt lat="46.08224" lon="6.21049">
        <ele>888.308</ele>
        <time>2020-05-20T15:28:10Z</time>
      </trkpt>
      <trkpt lat="46.08219" lon="6.21039">
        <ele>889.336</ele>
        <time>2020-05-20T15:28:11Z</time>
      </trkpt>
      <trkpt lat="46.08216" lon="6.21026">
        <ele>890.121</ele>
        <time>2020-05-20T15:28:12Z</time>
      </trkpt>
      <trkpt lat="46.08211" lon="6.21012">
        <ele>890.818</ele>
        <time>2020-05-20T15:28:13Z</time>
      </trkpt>
      <trkpt lat="46.08209" lon="6.21001">
        <ele>891.523</ele>
        <time>2020-05-20T15:28:14Z</time>
      </trkpt>
      <trkpt lat="46.08209" lon="6.2099">
        <ele>892.367</ele>
        <time>2020-05-20T15:28:15Z</time>
      </trkpt>
      <trkpt lat="46.08206" lon="6.20972">
        <ele>893.19</ele>
        <time>2020-05-20T15:28:16Z</time>
      </trkpt>
      <trkpt lat="46.082" lon="6.20959">
        <ele>894.45</ele>
        <time>2020-05-20T15:28:17Z</time>
      </trkpt>
      <trkpt lat="46.08195" lon="6.2095">
        <ele>895.626</ele>
        <time>2020-05-20T15:28:18Z</time>
      </trkpt>
      <trkpt lat="46.08192" lon="6.20943">
        <ele>896.889</ele>
        <time>2020-05-20T15:28:19Z</time>
      </trkpt>
      <trkpt lat="46.0819" lon="6.20932">
        <ele>899.506</ele>
        <time>2020-05-20T15:28:26Z</time>
      </trkpt>
      <trkpt lat="46.08185" lon="6.20923">
        <ele>899.526</ele>
        <time>2020-05-20T15:28:28Z</time>
      </trkpt>
      <trkpt lat="46.08183" lon="6.20915">
        <ele>899.608</ele>
        <time>2020-05-20T15:28:30Z</time>
      </trkpt>
      <trkpt lat="46.0818" lon="6.20902">
        <ele>899.832</ele>
        <time>2020-05-20T15:28:32Z</time>
      </trkpt>
      <trkpt lat="46.08176" lon="6.20892">
        <ele>899.837</ele>
        <time>2020-05-20T15:28:33Z</time>
      </trkpt>
      <trkpt lat="46.08172" lon="6.20877">
        <ele>900.044</ele>
        <time>2020-05-20T15:28:34Z</time>
      </trkpt>
      <trkpt lat="46.08169" lon="6.20865">
        <ele>900.219</ele>
        <time>2020-05-20T15:28:35Z</time>
      </trkpt>
      <trkpt lat="46.08169" lon="6.20853">
        <ele>900.463</ele>
        <time>2020-05-20T15:28:36Z</time>
      </trkpt>
      <trkpt lat="46.08173" lon="6.20836">
        <ele>900.766</ele>
        <time>2020-05-20T15:28:37Z</time>
      </trkpt>
      <trkpt lat="46.08174" lon="6.20825">
        <ele>901.136</ele>
        <time>2020-05-20T15:28:38Z</time>
      </trkpt>
      <trkpt lat="46.08178" lon="6.20809">
        <ele>901.522</ele>
        <time>2020-05-20T15:28:39Z</time>
      </trkpt>
      <trkpt lat="46.08183" lon="6.20796">
        <ele>902.031</ele>
        <time>2020-05-20T15:28:40Z</time>
      </trkpt>
      <trkpt lat="46.08189" lon="6.20781">
        <ele>902.661</ele>
        <time>2020-05-20T15:28:41Z</time>
      </trkpt>
      <trkpt lat="46.08194" lon="6.20768">
        <ele>902.907</ele>
        <time>2020-05-20T15:28:42Z</time>
      </trkpt>
      <trkpt lat="46.082" lon="6.20753">
        <ele>903.108</ele>
        <time>2020-05-20T15:28:43Z</time>
      </trkpt>
      <trkpt lat="46.08207" lon="6.2074">
        <ele>903.357</ele>
        <time>2020-05-20T15:28:44Z</time>
      </trkpt>
      <trkpt lat="46.08214" lon="6.20727">
        <ele>903.312</ele>
        <time>2020-05-20T15:28:45Z</time>
      </trkpt>
      <trkpt lat="46.08219" lon="6.20715">
        <ele>902.859</ele>
        <time>2020-05-20T15:28:46Z</time>
      </trkpt>
      <trkpt lat="46.08224" lon="6.20702">
        <ele>902.684</ele>
        <time>2020-05-20T15:28:47Z</time>
      </trkpt>
      <trkpt lat="46.08229" lon="6.20689">
        <ele>902.388</ele>
        <time>2020-05-20T15:28:48Z</time>
      </trkpt>
      <trkpt lat="46.08233" lon="6.20677">
        <ele>901.921</ele>
        <time>2020-05-20T15:28:49Z</time>
      </trkpt>
      <trkpt lat="46.08236" lon="6.20665">
        <ele>901.341</ele>
        <time>2020-05-20T15:28:50Z</time>
      </trkpt>
      <trkpt lat="46.08241" lon="6.20655">
        <ele>900.817</ele>
        <time>2020-05-20T15:28:51Z</time>
      </trkpt>
      <trkpt lat="46.08248" lon="6.20646">
        <ele>900.421</ele>
        <time>2020-05-20T15:28:52Z</time>
      </trkpt>
      <trkpt lat="46.08256" lon="6.20637">
        <ele>900.041</ele>
        <time>2020-05-20T15:28:53Z</time>
      </trkpt>
      <trkpt lat="46.08265" lon="6.20627">
        <ele>899.705</ele>
        <time>2020-05-20T15:28:54Z</time>
      </trkpt>
      <trkpt lat="46.08277" lon="6.2062">
        <ele>899.108</ele>
        <time>2020-05-20T15:28:55Z</time>
      </trkpt>
      <trkpt lat="46.08289" lon="6.20611">
        <ele>898.526</ele>
        <time>2020-05-20T15:28:56Z</time>
      </trkpt>
      <trkpt lat="46.083" lon="6.20605">
        <ele>897.621</ele>
        <time>2020-05-20T15:28:57Z</time>
      </trkpt>
      <trkpt lat="46.0831" lon="6.20598">
        <ele>896.678</ele>
        <time>2020-05-20T15:28:58Z</time>
      </trkpt>
      <trkpt lat="46.08318" lon="6.20592">
        <ele>895.623</ele>
        <time>2020-05-20T15:28:59Z</time>
      </trkpt>
      <trkpt lat="46.08326" lon="6.20584">
        <ele>894.887</ele>
        <time>2020-05-20T15:29:00Z</time>
      </trkpt>
      <trkpt lat="46.08334" lon="6.20576">
        <ele>894.11</ele>
        <time>2020-05-20T15:29:01Z</time>
      </trkpt>
      <trkpt lat="46.0834" lon="6.20568">
        <ele>893.85</ele>
        <time>2020-05-20T15:29:02Z</time>
      </trkpt>
      <trkpt lat="46.08351" lon="6.20561">
        <ele>893.826</ele>
        <time>2020-05-20T15:29:03Z</time>
      </trkpt>
      <trkpt lat="46.08358" lon="6.20554">
        <ele>893.858</ele>
        <time>2020-05-20T15:29:04Z</time>
      </trkpt>
      <trkpt lat="46.08365" lon="6.2055">
        <ele>894.052</ele>
        <time>2020-05-20T15:29:05Z</time>
      </trkpt>
      <trkpt lat="46.0837" lon="6.20545">
        <ele>894.417</ele>
        <time>2020-05-20T15:29:06Z</time>
      </trkpt>
      <trkpt lat="46.08375" lon="6.20538">
        <ele>894.608</ele>
        <time>2020-05-20T15:29:07Z</time>
      </trkpt>
      <trkpt lat="46.08379" lon="6.20529">
        <ele>894.839</ele>
        <time>2020-05-20T15:29:08Z</time>
      </trkpt>
      <trkpt lat="46.08377" lon="6.2052">
        <ele>894.864</ele>
        <time>2020-05-20T15:29:09Z</time>
      </trkpt>
      <trkpt lat="46.08373" lon="6.20504">
        <ele>894.741</ele>
        <time>2020-05-20T15:29:10Z</time>
      </trkpt>
      <trkpt lat="46.08368" lon="6.2049">
        <ele>894.796</ele>
        <time>2020-05-20T15:29:11Z</time>
      </trkpt>
      <trkpt lat="46.08366" lon="6.20477">
        <ele>894.93</ele>
        <time>2020-05-20T15:29:12Z</time>
      </trkpt>
      <trkpt lat="46.08366" lon="6.20464">
        <ele>895.243</ele>
        <time>2020-05-20T15:29:13Z</time>
      </trkpt>
      <trkpt lat="46.08367" lon="6.2045">
        <ele>895.843</ele>
        <time>2020-05-20T15:29:14Z</time>
      </trkpt>
      <trkpt lat="46.08369" lon="6.20435">
        <ele>896.449</ele>
        <time>2020-05-20T15:29:15Z</time>
      </trkpt>
      <trkpt lat="46.08372" lon="6.20418">
        <ele>897.171</ele>
        <time>2020-05-20T15:29:16Z</time>
      </trkpt>
      <trkpt lat="46.08374" lon="6.20395">
        <ele>897.741</ele>
        <time>2020-05-20T15:29:17Z</time>
      </trkpt>
      <trkpt lat="46.08378" lon="6.20378">
        <ele>898.415</ele>
        <time>2020-05-20T15:29:18Z</time>
      </trkpt>
      <trkpt lat="46.08379" lon="6.20361">
        <ele>899.008</ele>
        <time>2020-05-20T15:29:19Z</time>
      </trkpt>
      <trkpt lat="46.08378" lon="6.20342">
        <ele>899.851</ele>
        <time>2020-05-20T15:29:20Z</time>
      </trkpt>
      <trkpt lat="46.08375" lon="6.20328">
        <ele>900.686</ele>
        <time>2020-05-20T15:29:21Z</time>
      </trkpt>
      <trkpt lat="46.08374" lon="6.20317">
        <ele>901.453</ele>
        <time>2020-05-20T15:29:22Z</time>
      </trkpt>
      <trkpt lat="46.08373" lon="6.20301">
        <ele>902.348</ele>
        <time>2020-05-20T15:29:23Z</time>
      </trkpt>
      <trkpt lat="46.08371" lon="6.2029">
        <ele>903.422</ele>
        <time>2020-05-20T15:29:24Z</time>
      </trkpt>
      <trkpt lat="46.0837" lon="6.20277">
        <ele>904.465</ele>
        <time>2020-05-20T15:29:25Z</time>
      </trkpt>
      <trkpt lat="46.0837" lon="6.20268">
        <ele>905.455</ele>
        <time>2020-05-20T15:29:26Z</time>
      </trkpt>
      <trkpt lat="46.08371" lon="6.20262">
        <ele>906.461</ele>
        <time>2020-05-20T15:29:27Z</time>
      </trkpt>
      <trkpt lat="46.08371" lon="6.20249">
        <ele>908.224</ele>
        <time>2020-05-20T15:29:29Z</time>
      </trkpt>
      <trkpt lat="46.08365" lon="6.20241">
        <ele>909.804</ele>
        <time>2020-05-20T15:29:31Z</time>
      </trkpt>
      <trkpt lat="46.08358" lon="6.20233">
        <ele>910.614</ele>
        <time>2020-05-20T15:29:32Z</time>
      </trkpt>
      <trkpt lat="46.08352" lon="6.20223">
        <ele>911.408</ele>
        <time>2020-05-20T15:29:33Z</time>
      </trkpt>
      <trkpt lat="46.08346" lon="6.20215">
        <ele>912.346</ele>
        <time>2020-05-20T15:29:34Z</time>
      </trkpt>
      <trkpt lat="46.08342" lon="6.20208">
        <ele>913.251</ele>
        <time>2020-05-20T15:29:35Z</time>
      </trkpt>
      <trkpt lat="46.08339" lon="6.202">
        <ele>914.138</ele>
        <time>2020-05-20T15:29:36Z</time>
      </trkpt>
      <trkpt lat="46.08338" lon="6.20189">
        <ele>914.913</ele>
        <time>2020-05-20T15:29:37Z</time>
      </trkpt>
      <trkpt lat="46.08336" lon="6.20179">
        <ele>915.627</ele>
        <time>2020-05-20T15:29:38Z</time>
      </trkpt>
      <trkpt lat="46.08335" lon="6.20168">
        <ele>916.09</ele>
        <time>2020-05-20T15:29:39Z</time>
      </trkpt>
      <trkpt lat="46.08332" lon="6.20156">
        <ele>916.38</ele>
        <time>2020-05-20T15:29:40Z</time>
      </trkpt>
      <trkpt lat="46.08329" lon="6.20146">
        <ele>916.636</ele>
        <time>2020-05-20T15:29:41Z</time>
      </trkpt>
      <trkpt lat="46.08326" lon="6.20135">
        <ele>916.842</ele>
        <time>2020-05-20T15:29:42Z</time>
      </trkpt>
      <trkpt lat="46.08326" lon="6.20127">
        <ele>917.122</ele>
        <time>2020-05-20T15:29:43Z</time>
      </trkpt>
      <trkpt lat="46.08327" lon="6.2012">
        <ele>917.514</ele>
        <time>2020-05-20T15:29:44Z</time>
      </trkpt>
      <trkpt lat="46.08331" lon="6.20114">
        <ele>918.308</ele>
        <time>2020-05-20T15:29:46Z</time>
      </trkpt>
      <trkpt lat="46.08336" lon="6.20112">
        <ele>918.798</ele>
        <time>2020-05-20T15:29:47Z</time>
      </trkpt>
      <trkpt lat="46.08341" lon="6.20108">
        <ele>919.063</ele>
        <time>2020-05-20T15:29:48Z</time>
      </trkpt>
      <trkpt lat="46.08348" lon="6.20102">
        <ele>919.28</ele>
        <time>2020-05-20T15:29:49Z</time>
      </trkpt>
      <trkpt lat="46.08351" lon="6.20095">
        <ele>919.485</ele>
        <time>2020-05-20T15:29:50Z</time>
      </trkpt>
      <trkpt lat="46.08356" lon="6.20086">
        <ele>919.639</ele>
        <time>2020-05-20T15:29:51Z</time>
      </trkpt>
      <trkpt lat="46.0836" lon="6.2008">
        <ele>919.632</ele>
        <time>2020-05-20T15:29:52Z</time>
      </trkpt>
      <trkpt lat="46.08366" lon="6.20073">
        <ele>919.612</ele>
        <time>2020-05-20T15:29:53Z</time>
      </trkpt>
      <trkpt lat="46.0837" lon="6.20067">
        <ele>919.548</ele>
        <time>2020-05-20T15:29:54Z</time>
      </trkpt>
      <trkpt lat="46.08376" lon="6.20055">
        <ele>919.333</ele>
        <time>2020-05-20T15:29:55Z</time>
      </trkpt>
      <trkpt lat="46.08381" lon="6.20047">
        <ele>918.823</ele>
        <time>2020-05-20T15:29:56Z</time>
      </trkpt>
      <trkpt lat="46.08387" lon="6.20037">
        <ele>918.815</ele>
        <time>2020-05-20T15:29:57Z</time>
      </trkpt>
      <trkpt lat="46.08392" lon="6.20028">
        <ele>918.908</ele>
        <time>2020-05-20T15:29:58Z</time>
      </trkpt>
      <trkpt lat="46.08398" lon="6.20018">
        <ele>919.227</ele>
        <time>2020-05-20T15:29:59Z</time>
      </trkpt>
      <trkpt lat="46.08402" lon="6.20009">
        <ele>919.422</ele>
        <time>2020-05-20T15:30:00Z</time>
      </trkpt>
      <trkpt lat="46.08406" lon="6.19999">
        <ele>920.049</ele>
        <time>2020-05-20T15:30:01Z</time>
      </trkpt>
      <trkpt lat="46.0841" lon="6.19987">
        <ele>920.044</ele>
        <time>2020-05-20T15:30:02Z</time>
      </trkpt>
      <trkpt lat="46.08413" lon="6.19974">
        <ele>919.838</ele>
        <time>2020-05-20T15:30:03Z</time>
      </trkpt>
      <trkpt lat="46.08416" lon="6.19959">
        <ele>919.351</ele>
        <time>2020-05-20T15:30:04Z</time>
      </trkpt>
      <trkpt lat="46.08417" lon="6.19945">
        <ele>918.741</ele>
        <time>2020-05-20T15:30:05Z</time>
      </trkpt>
      <trkpt lat="46.08417" lon="6.19933">
        <ele>918.127</ele>
        <time>2020-05-20T15:30:06Z</time>
      </trkpt>
      <trkpt lat="46.08416" lon="6.19918">
        <ele>917.434</ele>
        <time>2020-05-20T15:30:07Z</time>
      </trkpt>
      <trkpt lat="46.08413" lon="6.19902">
        <ele>916.455</ele>
        <time>2020-05-20T15:30:08Z</time>
      </trkpt>
      <trkpt lat="46.08413" lon="6.19888">
        <ele>915.51</ele>
        <time>2020-05-20T15:30:09Z</time>
      </trkpt>
      <trkpt lat="46.08414" lon="6.19879">
        <ele>914.608</ele>
        <time>2020-05-20T15:30:10Z</time>
      </trkpt>
      <trkpt lat="46.08414" lon="6.19869">
        <ele>913.877</ele>
        <time>2020-05-20T15:30:11Z</time>
      </trkpt>
      <trkpt lat="46.08413" lon="6.19859">
        <ele>913.082</ele>
        <time>2020-05-20T15:30:12Z</time>
      </trkpt>
      <trkpt lat="46.08413" lon="6.19852">
        <ele>912.779</ele>
        <time>2020-05-20T15:30:13Z</time>
      </trkpt>
      <trkpt lat="46.08411" lon="6.1984">
        <ele>912.734</ele>
        <time>2020-05-20T15:30:15Z</time>
      </trkpt>
      <trkpt lat="46.0841" lon="6.19833">
        <ele>913.358</ele>
        <time>2020-05-20T15:30:17Z</time>
      </trkpt>
      <trkpt lat="46.0841" lon="6.1984">
        <ele>914.961</ele>
        <time>2020-05-20T15:30:28Z</time>
      </trkpt>
      <trkpt lat="46.08411" lon="6.1985">
        <ele>914.981</ele>
        <time>2020-05-20T15:30:29Z</time>
      </trkpt>
      <trkpt lat="46.08412" lon="6.19861">
        <ele>914.897</ele>
        <time>2020-05-20T15:30:30Z</time>
      </trkpt>
      <trkpt lat="46.08413" lon="6.19874">
        <ele>914.899</ele>
        <time>2020-05-20T15:30:31Z</time>
      </trkpt>
      <trkpt lat="46.08415" lon="6.19895">
        <ele>914.807</ele>
        <time>2020-05-20T15:30:32Z</time>
      </trkpt>
      <trkpt lat="46.08415" lon="6.19912">
        <ele>914.827</ele>
        <time>2020-05-20T15:30:33Z</time>
      </trkpt>
      <trkpt lat="46.08418" lon="6.19923">
        <ele>914.908</ele>
        <time>2020-05-20T15:30:34Z</time>
      </trkpt>
      <trkpt lat="46.08425" lon="6.19926">
        <ele>915.393</ele>
        <time>2020-05-20T15:30:37Z</time>
      </trkpt>
      <trkpt lat="46.08432" lon="6.1993">
        <ele>915.558</ele>
        <time>2020-05-20T15:30:38Z</time>
      </trkpt>
      <trkpt lat="46.08441" lon="6.19939">
        <ele>915.775</ele>
        <time>2020-05-20T15:30:39Z</time>
      </trkpt>
      <trkpt lat="46.0845" lon="6.19948">
        <ele>916.29</ele>
        <time>2020-05-20T15:30:40Z</time>
      </trkpt>
      <trkpt lat="46.0846" lon="6.19952">
        <ele>916.934</ele>
        <time>2020-05-20T15:30:41Z</time>
      </trkpt>
      <trkpt lat="46.08469" lon="6.19953">
        <ele>917.577</ele>
        <time>2020-05-20T15:30:42Z</time>
      </trkpt>
      <trkpt lat="46.08478" lon="6.19957">
        <ele>918.297</ele>
        <time>2020-05-20T15:30:43Z</time>
      </trkpt>
      <trkpt lat="46.0849" lon="6.19961">
        <ele>919.413</ele>
        <time>2020-05-20T15:30:44Z</time>
      </trkpt>
      <trkpt lat="46.08498" lon="6.19965">
        <ele>920.559</ele>
        <time>2020-05-20T15:30:45Z</time>
      </trkpt>
      <trkpt lat="46.08507" lon="6.1997">
        <ele>921.703</ele>
        <time>2020-05-20T15:30:46Z</time>
      </trkpt>
      <trkpt lat="46.08518" lon="6.19977">
        <ele>923.223</ele>
        <time>2020-05-20T15:30:47Z</time>
      </trkpt>
      <trkpt lat="46.08529" lon="6.19984">
        <ele>924.608</ele>
        <time>2020-05-20T15:30:48Z</time>
      </trkpt>
      <trkpt lat="46.0854" lon="6.19989">
        <ele>925.889</ele>
        <time>2020-05-20T15:30:49Z</time>
      </trkpt>
      <trkpt lat="46.08554" lon="6.19997">
        <ele>927.044</ele>
        <time>2020-05-20T15:30:50Z</time>
      </trkpt>
      <trkpt lat="46.08563" lon="6.20003">
        <ele>928.091</ele>
        <time>2020-05-20T15:30:51Z</time>
      </trkpt>
      <trkpt lat="46.08573" lon="6.2001">
        <ele>928.666</ele>
        <time>2020-05-20T15:30:52Z</time>
      </trkpt>
      <trkpt lat="46.08582" lon="6.20016">
        <ele>929.32</ele>
        <time>2020-05-20T15:30:53Z</time>
      </trkpt>
      <trkpt lat="46.08593" lon="6.20023">
        <ele>930.033</ele>
        <time>2020-05-20T15:30:54Z</time>
      </trkpt>
      <trkpt lat="46.08603" lon="6.2003">
        <ele>930.343</ele>
        <time>2020-05-20T15:30:55Z</time>
      </trkpt>
      <trkpt lat="46.08612" lon="6.20038">
        <ele>930.659</ele>
        <time>2020-05-20T15:30:56Z</time>
      </trkpt>
      <trkpt lat="46.08622" lon="6.20046">
        <ele>930.767</ele>
        <time>2020-05-20T15:30:57Z</time>
      </trkpt>
      <trkpt lat="46.08628" lon="6.20053">
        <ele>930.781</ele>
        <time>2020-05-20T15:30:58Z</time>
      </trkpt>
      <trkpt lat="46.08639" lon="6.20064">
        <ele>930.319</ele>
        <time>2020-05-20T15:30:59Z</time>
      </trkpt>
      <trkpt lat="46.08647" lon="6.20072">
        <ele>930.108</ele>
        <time>2020-05-20T15:31:00Z</time>
      </trkpt>
      <trkpt lat="46.08654" lon="6.20079">
        <ele>929.97</ele>
        <time>2020-05-20T15:31:01Z</time>
      </trkpt>
      <trkpt lat="46.0866" lon="6.20084">
        <ele>929.925</ele>
        <time>2020-05-20T15:31:02Z</time>
      </trkpt>
      <trkpt lat="46.08668" lon="6.2009">
        <ele>929.892</ele>
        <time>2020-05-20T15:31:03Z</time>
      </trkpt>
      <trkpt lat="46.08674" lon="6.20097">
        <ele>929.867</ele>
        <time>2020-05-20T15:31:04Z</time>
      </trkpt>
      <trkpt lat="46.08679" lon="6.20104">
        <ele>929.611</ele>
        <time>2020-05-20T15:31:05Z</time>
      </trkpt>
      <trkpt lat="46.08683" lon="6.20109">
        <ele>929.484</ele>
        <time>2020-05-20T15:31:06Z</time>
      </trkpt>
      <trkpt lat="46.08687" lon="6.20115">
        <ele>929.034</ele>
        <time>2020-05-20T15:31:07Z</time>
      </trkpt>
      <trkpt lat="46.08689" lon="6.20124">
        <ele>927.96</ele>
        <time>2020-05-20T15:31:09Z</time>
      </trkpt>
      <trkpt lat="46.08689" lon="6.20131">
        <ele>927.495</ele>
        <time>2020-05-20T15:31:10Z</time>
      </trkpt>
      <trkpt lat="46.08687" lon="6.20137">
        <ele>926.549</ele>
        <time>2020-05-20T15:31:12Z</time>
      </trkpt>
      <trkpt lat="46.08693" lon="6.20137">
        <ele>926.423</ele>
        <time>2020-05-20T15:31:14Z</time>
      </trkpt>
      <trkpt lat="46.087" lon="6.20135">
        <ele>926.208</ele>
        <time>2020-05-20T15:31:15Z</time>
      </trkpt>
      <trkpt lat="46.08707" lon="6.20134">
        <ele>925.913</ele>
        <time>2020-05-20T15:31:16Z</time>
      </trkpt>
      <trkpt lat="46.08716" lon="6.20131">
        <ele>925.788</ele>
        <time>2020-05-20T15:31:17Z</time>
      </trkpt>
      <trkpt lat="46.08725" lon="6.20128">
        <ele>925.355</ele>
        <time>2020-05-20T15:31:18Z</time>
      </trkpt>
      <trkpt lat="46.08732" lon="6.20125">
        <ele>925.08</ele>
        <time>2020-05-20T15:31:19Z</time>
      </trkpt>
      <trkpt lat="46.08738" lon="6.20121">
        <ele>924.534</ele>
        <time>2020-05-20T15:31:20Z</time>
      </trkpt>
      <trkpt lat="46.08745" lon="6.20118">
        <ele>924.177</ele>
        <time>2020-05-20T15:31:21Z</time>
      </trkpt>
      <trkpt lat="46.0875" lon="6.20115">
        <ele>923.577</ele>
        <time>2020-05-20T15:31:22Z</time>
      </trkpt>
      <trkpt lat="46.08755" lon="6.20111">
        <ele>922.983</ele>
        <time>2020-05-20T15:31:23Z</time>
      </trkpt>
      <trkpt lat="46.08765" lon="6.20109">
        <ele>921.491</ele>
        <time>2020-05-20T15:31:36Z</time>
      </trkpt>
      <trkpt lat="46.0877" lon="6.20105">
        <ele>921.481</ele>
        <time>2020-05-20T15:31:37Z</time>
      </trkpt>
      <trkpt lat="46.08781" lon="6.201">
        <ele>921.319</ele>
        <time>2020-05-20T15:31:38Z</time>
      </trkpt>
      <trkpt lat="46.08791" lon="6.20097">
        <ele>921.008</ele>
        <time>2020-05-20T15:31:39Z</time>
      </trkpt>
      <trkpt lat="46.08799" lon="6.20095">
        <ele>920.783</ele>
        <time>2020-05-20T15:31:40Z</time>
      </trkpt>
      <trkpt lat="46.08808" lon="6.20093">
        <ele>920.768</ele>
        <time>2020-05-20T15:31:41Z</time>
      </trkpt>
      <trkpt lat="46.08815" lon="6.20091">
        <ele>920.225</ele>
        <time>2020-05-20T15:31:42Z</time>
      </trkpt>
      <trkpt lat="46.08825" lon="6.20088">
        <ele>919.51</ele>
        <time>2020-05-20T15:31:43Z</time>
      </trkpt>
      <trkpt lat="46.08831" lon="6.20086">
        <ele>918.714</ele>
        <time>2020-05-20T15:31:44Z</time>
      </trkpt>
      <trkpt lat="46.0884" lon="6.20085">
        <ele>917.987</ele>
        <time>2020-05-20T15:31:45Z</time>
      </trkpt>
      <trkpt lat="46.08848" lon="6.20084">
        <ele>917.077</ele>
        <time>2020-05-20T15:31:46Z</time>
      </trkpt>
      <trkpt lat="46.08854" lon="6.20083">
        <ele>916.113</ele>
        <time>2020-05-20T15:31:47Z</time>
      </trkpt>
      <trkpt lat="46.08861" lon="6.2008">
        <ele>915.364</ele>
        <time>2020-05-20T15:31:48Z</time>
      </trkpt>
      <trkpt lat="46.08868" lon="6.2008">
        <ele>914.506</ele>
        <time>2020-05-20T15:31:49Z</time>
      </trkpt>
      <trkpt lat="46.08874" lon="6.20079">
        <ele>913.716</ele>
        <time>2020-05-20T15:31:50Z</time>
      </trkpt>
      <trkpt lat="46.08879" lon="6.20078">
        <ele>912.908</ele>
        <time>2020-05-20T15:31:51Z</time>
      </trkpt>
      <trkpt lat="46.08885" lon="6.20077">
        <ele>912.28</ele>
        <time>2020-05-20T15:31:52Z</time>
      </trkpt>
      <trkpt lat="46.08891" lon="6.20075">
        <ele>911.565</ele>
        <time>2020-05-20T15:31:53Z</time>
      </trkpt>
      <trkpt lat="46.08897" lon="6.20075">
        <ele>910.862</ele>
        <time>2020-05-20T15:31:54Z</time>
      </trkpt>
      <trkpt lat="46.08902" lon="6.20073">
        <ele>910.067</ele>
        <time>2020-05-20T15:31:55Z</time>
      </trkpt>
      <trkpt lat="46.08907" lon="6.20071">
        <ele>909.221</ele>
        <time>2020-05-20T15:31:56Z</time>
      </trkpt>
      <trkpt lat="46.08912" lon="6.20069">
        <ele>908.314</ele>
        <time>2020-05-20T15:31:57Z</time>
      </trkpt>
      <trkpt lat="46.08919" lon="6.20065">
        <ele>906.474</ele>
        <time>2020-05-20T15:31:59Z</time>
      </trkpt>
      <trkpt lat="46.08924" lon="6.20065">
        <ele>904.59</ele>
        <time>2020-05-20T15:32:01Z</time>
      </trkpt>
      <trkpt lat="46.0893" lon="6.20075">
        <ele>902.999</ele>
        <time>2020-05-20T15:32:03Z</time>
      </trkpt>
      <trkpt lat="46.08934" lon="6.20085">
        <ele>902.407</ele>
        <time>2020-05-20T15:32:04Z</time>
      </trkpt>
      <trkpt lat="46.0894" lon="6.20096">
        <ele>902.327</ele>
        <time>2020-05-20T15:32:05Z</time>
      </trkpt>
      <trkpt lat="46.08949" lon="6.20107">
        <ele>902.308</ele>
        <time>2020-05-20T15:32:06Z</time>
      </trkpt>
      <trkpt lat="46.08957" lon="6.20115">
        <ele>902.633</ele>
        <time>2020-05-20T15:32:07Z</time>
      </trkpt>
      <trkpt lat="46.08966" lon="6.20127">
        <ele>902.938</ele>
        <time>2020-05-20T15:32:08Z</time>
      </trkpt>
      <trkpt lat="46.08972" lon="6.20142">
        <ele>903.255</ele>
        <time>2020-05-20T15:32:09Z</time>
      </trkpt>
      <trkpt lat="46.08975" lon="6.20159">
        <ele>903.73</ele>
        <time>2020-05-20T15:32:10Z</time>
      </trkpt>
      <trkpt lat="46.08975" lon="6.20177">
        <ele>904.184</ele>
        <time>2020-05-20T15:32:11Z</time>
      </trkpt>
      <trkpt lat="46.08974" lon="6.20196">
        <ele>904.777</ele>
        <time>2020-05-20T15:32:12Z</time>
      </trkpt>
      <trkpt lat="46.08975" lon="6.20214">
        <ele>905.327</ele>
        <time>2020-05-20T15:32:13Z</time>
      </trkpt>
      <trkpt lat="46.0898" lon="6.2023">
        <ele>905.913</ele>
        <time>2020-05-20T15:32:14Z</time>
      </trkpt>
      <trkpt lat="46.08991" lon="6.20244">
        <ele>906.024</ele>
        <time>2020-05-20T15:32:15Z</time>
      </trkpt>
      <trkpt lat="46.09005" lon="6.20258">
        <ele>906.504</ele>
        <time>2020-05-20T15:32:16Z</time>
      </trkpt>
      <trkpt lat="46.0902" lon="6.20269">
        <ele>906.914</ele>
        <time>2020-05-20T15:32:17Z</time>
      </trkpt>
      <trkpt lat="46.09034" lon="6.20282">
        <ele>907.508</ele>
        <time>2020-05-20T15:32:18Z</time>
      </trkpt>
      <trkpt lat="46.09049" lon="6.20294">
        <ele>908.366</ele>
        <time>2020-05-20T15:32:19Z</time>
      </trkpt>
      <trkpt lat="46.09064" lon="6.20309">
        <ele>909.411</ele>
        <time>2020-05-20T15:32:20Z</time>
      </trkpt>
      <trkpt lat="46.09078" lon="6.20323">
        <ele>910.118</ele>
        <time>2020-05-20T15:32:21Z</time>
      </trkpt>
      <trkpt lat="46.09091" lon="6.20336">
        <ele>910.833</ele>
        <time>2020-05-20T15:32:22Z</time>
      </trkpt>
      <trkpt lat="46.09104" lon="6.20349">
        <ele>911.487</ele>
        <time>2020-05-20T15:32:23Z</time>
      </trkpt>
      <trkpt lat="46.09115" lon="6.2036">
        <ele>911.92</ele>
        <time>2020-05-20T15:32:24Z</time>
      </trkpt>
      <trkpt lat="46.09127" lon="6.20371">
        <ele>912.43</ele>
        <time>2020-05-20T15:32:25Z</time>
      </trkpt>
      <trkpt lat="46.09139" lon="6.20382">
        <ele>913.316</ele>
        <time>2020-05-20T15:32:26Z</time>
      </trkpt>
      <trkpt lat="46.09148" lon="6.20396">
        <ele>914.259</ele>
        <time>2020-05-20T15:32:27Z</time>
      </trkpt>
      <trkpt lat="46.09156" lon="6.20414">
        <ele>914.603</ele>
        <time>2020-05-20T15:32:28Z</time>
      </trkpt>
      <trkpt lat="46.09159" lon="6.20434">
        <ele>915.023</ele>
        <time>2020-05-20T15:32:29Z</time>
      </trkpt>
      <trkpt lat="46.09159" lon="6.20455">
        <ele>915.308</ele>
        <time>2020-05-20T15:32:30Z</time>
      </trkpt>
      <trkpt lat="46.09155" lon="6.20478">
        <ele>915.319</ele>
        <time>2020-05-20T15:32:31Z</time>
      </trkpt>
      <trkpt lat="46.09148" lon="6.20502">
        <ele>915.534</ele>
        <time>2020-05-20T15:32:32Z</time>
      </trkpt>
      <trkpt lat="46.09144" lon="6.20524">
        <ele>916.061</ele>
        <time>2020-05-20T15:32:33Z</time>
      </trkpt>
      <trkpt lat="46.09144" lon="6.20544">
        <ele>916.616</ele>
        <time>2020-05-20T15:32:34Z</time>
      </trkpt>
      <trkpt lat="46.09148" lon="6.20564">
        <ele>916.87</ele>
        <time>2020-05-20T15:32:35Z</time>
      </trkpt>
      <trkpt lat="46.09155" lon="6.20583">
        <ele>917.053</ele>
        <time>2020-05-20T15:32:36Z</time>
      </trkpt>
      <trkpt lat="46.09164" lon="6.20601">
        <ele>917.113</ele>
        <time>2020-05-20T15:32:37Z</time>
      </trkpt>
      <trkpt lat="46.09176" lon="6.20619">
        <ele>917.219</ele>
        <time>2020-05-20T15:32:38Z</time>
      </trkpt>
      <trkpt lat="46.09188" lon="6.20638">
        <ele>917.211</ele>
        <time>2020-05-20T15:32:39Z</time>
      </trkpt>
      <trkpt lat="46.092" lon="6.20656">
        <ele>917.221</ele>
        <time>2020-05-20T15:32:40Z</time>
      </trkpt>
      <trkpt lat="46.0921" lon="6.20673">
        <ele>917.003</ele>
        <time>2020-05-20T15:32:41Z</time>
      </trkpt>
      <trkpt lat="46.0922" lon="6.2069">
        <ele>916.308</ele>
        <time>2020-05-20T15:32:42Z</time>
      </trkpt>
      <trkpt lat="46.09229" lon="6.20707">
        <ele>915.445</ele>
        <time>2020-05-20T15:32:43Z</time>
      </trkpt>
      <trkpt lat="46.09237" lon="6.20724">
        <ele>913.86</ele>
        <time>2020-05-20T15:32:44Z</time>
      </trkpt>
      <trkpt lat="46.09243" lon="6.20742">
        <ele>912.417</ele>
        <time>2020-05-20T15:32:45Z</time>
      </trkpt>
      <trkpt lat="46.09245" lon="6.20758">
        <ele>911.082</ele>
        <time>2020-05-20T15:32:46Z</time>
      </trkpt>
      <trkpt lat="46.09242" lon="6.20777">
        <ele>909.486</ele>
        <time>2020-05-20T15:32:47Z</time>
      </trkpt>
      <trkpt lat="46.09233" lon="6.20795">
        <ele>907.989</ele>
        <time>2020-05-20T15:32:48Z</time>
      </trkpt>
      <trkpt lat="46.09222" lon="6.20814">
        <ele>906.969</ele>
        <time>2020-05-20T15:32:49Z</time>
      </trkpt>
      <trkpt lat="46.09209" lon="6.20832">
        <ele>905.755</ele>
        <time>2020-05-20T15:32:50Z</time>
      </trkpt>
      <trkpt lat="46.09193" lon="6.20847">
        <ele>904.744</ele>
        <time>2020-05-20T15:32:51Z</time>
      </trkpt>
      <trkpt lat="46.09181" lon="6.20866">
        <ele>904.005</ele>
        <time>2020-05-20T15:32:52Z</time>
      </trkpt>
      <trkpt lat="46.09172" lon="6.20886">
        <ele>903.415</ele>
        <time>2020-05-20T15:32:53Z</time>
      </trkpt>
      <trkpt lat="46.09166" lon="6.20907">
        <ele>902.808</ele>
        <time>2020-05-20T15:32:54Z</time>
      </trkpt>
      <trkpt lat="46.09162" lon="6.20931">
        <ele>901.828</ele>
        <time>2020-05-20T15:32:55Z</time>
      </trkpt>
      <trkpt lat="46.09158" lon="6.20952">
        <ele>900.963</ele>
        <time>2020-05-20T15:32:56Z</time>
      </trkpt>
      <trkpt lat="46.0915" lon="6.2097">
        <ele>899.61</ele>
        <time>2020-05-20T15:32:57Z</time>
      </trkpt>
      <trkpt lat="46.09139" lon="6.20985">
        <ele>898.455</ele>
        <time>2020-05-20T15:32:58Z</time>
      </trkpt>
      <trkpt lat="46.09127" lon="6.20997">
        <ele>897.139</ele>
        <time>2020-05-20T15:32:59Z</time>
      </trkpt>
      <trkpt lat="46.09112" lon="6.21007">
        <ele>896.222</ele>
        <time>2020-05-20T15:33:00Z</time>
      </trkpt>
      <trkpt lat="46.09096" lon="6.21019">
        <ele>895.162</ele>
        <time>2020-05-20T15:33:01Z</time>
      </trkpt>
      <trkpt lat="46.09083" lon="6.21032">
        <ele>894.398</ele>
        <time>2020-05-20T15:33:02Z</time>
      </trkpt>
      <trkpt lat="46.09071" lon="6.21047">
        <ele>893.689</ele>
        <time>2020-05-20T15:33:03Z</time>
      </trkpt>
      <trkpt lat="46.09062" lon="6.21061">
        <ele>892.906</ele>
        <time>2020-05-20T15:33:04Z</time>
      </trkpt>
      <trkpt lat="46.09055" lon="6.21071">
        <ele>892.226</ele>
        <time>2020-05-20T15:33:05Z</time>
      </trkpt>
      <trkpt lat="46.0905" lon="6.21078">
        <ele>891.708</ele>
        <time>2020-05-20T15:33:06Z</time>
      </trkpt>
      <trkpt lat="46.09048" lon="6.21088">
        <ele>889.932</ele>
        <time>2020-05-20T15:33:08Z</time>
      </trkpt>
      <trkpt lat="46.09056" lon="6.21093">
        <ele>888.527</ele>
        <time>2020-05-20T15:33:10Z</time>
      </trkpt>
      <trkpt lat="46.09063" lon="6.21094">
        <ele>887.914</ele>
        <time>2020-05-20T15:33:11Z</time>
      </trkpt>
      <trkpt lat="46.09074" lon="6.21095">
        <ele>887.999</ele>
        <time>2020-05-20T15:33:12Z</time>
      </trkpt>
      <trkpt lat="46.09084" lon="6.21098">
        <ele>888.143</ele>
        <time>2020-05-20T15:33:13Z</time>
      </trkpt>
      <trkpt lat="46.09097" lon="6.21105">
        <ele>888.896</ele>
        <time>2020-05-20T15:33:14Z</time>
      </trkpt>
      <trkpt lat="46.09111" lon="6.2111">
        <ele>889.366</ele>
        <time>2020-05-20T15:33:15Z</time>
      </trkpt>
      <trkpt lat="46.0913" lon="6.21118">
        <ele>890.512</ele>
        <time>2020-05-20T15:33:16Z</time>
      </trkpt>
      <trkpt lat="46.09147" lon="6.21124">
        <ele>891.623</ele>
        <time>2020-05-20T15:33:17Z</time>
      </trkpt>
      <trkpt lat="46.09162" lon="6.2113">
        <ele>893.383</ele>
        <time>2020-05-20T15:33:18Z</time>
      </trkpt>
      <trkpt lat="46.09172" lon="6.21136">
        <ele>894.711</ele>
        <time>2020-05-20T15:33:19Z</time>
      </trkpt>
      <trkpt lat="46.09182" lon="6.21137">
        <ele>896.308</ele>
        <time>2020-05-20T15:33:20Z</time>
      </trkpt>
      <trkpt lat="46.09189" lon="6.21142">
        <ele>897.586</ele>
        <time>2020-05-20T15:33:21Z</time>
      </trkpt>
      <trkpt lat="46.092" lon="6.21146">
        <ele>898.881</ele>
        <time>2020-05-20T15:33:22Z</time>
      </trkpt>
      <trkpt lat="46.09212" lon="6.21149">
        <ele>899.658</ele>
        <time>2020-05-20T15:33:23Z</time>
      </trkpt>
      <trkpt lat="46.09225" lon="6.21151">
        <ele>900.763</ele>
        <time>2020-05-20T15:33:24Z</time>
      </trkpt>
      <trkpt lat="46.09238" lon="6.21151">
        <ele>901.577</ele>
        <time>2020-05-20T15:33:25Z</time>
      </trkpt>
      <trkpt lat="46.09252" lon="6.21152">
        <ele>902.59</ele>
        <time>2020-05-20T15:33:26Z</time>
      </trkpt>
      <trkpt lat="46.09266" lon="6.21155">
        <ele>903.34</ele>
        <time>2020-05-20T15:33:27Z</time>
      </trkpt>
      <trkpt lat="46.09282" lon="6.21157">
        <ele>904.136</ele>
        <time>2020-05-20T15:33:28Z</time>
      </trkpt>
      <trkpt lat="46.09298" lon="6.21161">
        <ele>904.665</ele>
        <time>2020-05-20T15:33:29Z</time>
      </trkpt>
      <trkpt lat="46.09317" lon="6.21167">
        <ele>905.768</ele>
        <time>2020-05-20T15:33:30Z</time>
      </trkpt>
      <trkpt lat="46.09338" lon="6.21173">
        <ele>906.114</ele>
        <time>2020-05-20T15:33:31Z</time>
      </trkpt>
      <trkpt lat="46.09361" lon="6.21179">
        <ele>906.408</ele>
        <time>2020-05-20T15:33:32Z</time>
      </trkpt>
      <trkpt lat="46.0938" lon="6.21184">
        <ele>906.64</ele>
        <time>2020-05-20T15:33:33Z</time>
      </trkpt>
      <trkpt lat="46.09398" lon="6.21189">
        <ele>906.635</ele>
        <time>2020-05-20T15:33:34Z</time>
      </trkpt>
      <trkpt lat="46.09411" lon="6.21192">
        <ele>906.232</ele>
        <time>2020-05-20T15:33:35Z</time>
      </trkpt>
      <trkpt lat="46.09426" lon="6.21195">
        <ele>905.787</ele>
        <time>2020-05-20T15:33:36Z</time>
      </trkpt>
      <trkpt lat="46.09439" lon="6.21199">
        <ele>905.291</ele>
        <time>2020-05-20T15:33:37Z</time>
      </trkpt>
      <trkpt lat="46.09451" lon="6.21201">
        <ele>904.214</ele>
        <time>2020-05-20T15:33:38Z</time>
      </trkpt>
      <trkpt lat="46.09462" lon="6.21205">
        <ele>903.994</ele>
        <time>2020-05-20T15:33:39Z</time>
      </trkpt>
      <trkpt lat="46.09474" lon="6.21207">
        <ele>903.03</ele>
        <time>2020-05-20T15:33:40Z</time>
      </trkpt>
      <trkpt lat="46.09485" lon="6.21206">
        <ele>902.311</ele>
        <time>2020-05-20T15:33:41Z</time>
      </trkpt>
      <trkpt lat="46.09496" lon="6.21209">
        <ele>902.021</ele>
        <time>2020-05-20T15:33:42Z</time>
      </trkpt>
      <trkpt lat="46.09505" lon="6.2121">
        <ele>901.303</ele>
        <time>2020-05-20T15:33:43Z</time>
      </trkpt>
      <trkpt lat="46.09511" lon="6.21212">
        <ele>900.808</ele>
        <time>2020-05-20T15:33:44Z</time>
      </trkpt>
      <trkpt lat="46.09515" lon="6.21218">
        <ele>900.485</ele>
        <time>2020-05-20T15:33:45Z</time>
      </trkpt>
      <trkpt lat="46.09523" lon="6.2122">
        <ele>900.12</ele>
        <time>2020-05-20T15:33:46Z</time>
      </trkpt>
      <trkpt lat="46.0953" lon="6.21221">
        <ele>899.637</ele>
        <time>2020-05-20T15:33:47Z</time>
      </trkpt>
      <trkpt lat="46.09538" lon="6.21222">
        <ele>899.232</ele>
        <time>2020-05-20T15:33:48Z</time>
      </trkpt>
      <trkpt lat="46.09546" lon="6.21222">
        <ele>898.866</ele>
        <time>2020-05-20T15:33:49Z</time>
      </trkpt>
      <trkpt lat="46.09554" lon="6.21222">
        <ele>898.319</ele>
        <time>2020-05-20T15:33:50Z</time>
      </trkpt>
      <trkpt lat="46.09565" lon="6.2122">
        <ele>897.889</ele>
        <time>2020-05-20T15:33:51Z</time>
      </trkpt>
      <trkpt lat="46.09573" lon="6.2122">
        <ele>897.215</ele>
        <time>2020-05-20T15:33:52Z</time>
      </trkpt>
      <trkpt lat="46.09581" lon="6.21219">
        <ele>896.621</ele>
        <time>2020-05-20T15:33:53Z</time>
      </trkpt>
      <trkpt lat="46.09588" lon="6.21219">
        <ele>895.941</ele>
        <time>2020-05-20T15:33:54Z</time>
      </trkpt>
      <trkpt lat="46.09592" lon="6.21218">
        <ele>894.705</ele>
        <time>2020-05-20T15:33:56Z</time>
      </trkpt>
      <trkpt lat="46.09597" lon="6.21215">
        <ele>893.208</ele>
        <time>2020-05-20T15:33:59Z</time>
      </trkpt>
      <trkpt lat="46.09607" lon="6.2122">
        <ele>892.536</ele>
        <time>2020-05-20T15:34:01Z</time>
      </trkpt>
      <trkpt lat="46.09614" lon="6.21225">
        <ele>892.131</ele>
        <time>2020-05-20T15:34:02Z</time>
      </trkpt>
      <trkpt lat="46.09622" lon="6.2123">
        <ele>891.528</ele>
        <time>2020-05-20T15:34:03Z</time>
      </trkpt>
      <trkpt lat="46.09628" lon="6.21235">
        <ele>890.723</ele>
        <time>2020-05-20T15:34:04Z</time>
      </trkpt>
      <trkpt lat="46.09635" lon="6.21239">
        <ele>889.737</ele>
        <time>2020-05-20T15:34:05Z</time>
      </trkpt>
      <trkpt lat="46.09642" lon="6.21242">
        <ele>888.72</ele>
        <time>2020-05-20T15:34:06Z</time>
      </trkpt>
      <trkpt lat="46.09651" lon="6.21244">
        <ele>887.78</ele>
        <time>2020-05-20T15:34:07Z</time>
      </trkpt>
      <trkpt lat="46.09658" lon="6.21247">
        <ele>886.786</ele>
        <time>2020-05-20T15:34:08Z</time>
      </trkpt>
      <trkpt lat="46.09664" lon="6.21249">
        <ele>885.852</ele>
        <time>2020-05-20T15:34:09Z</time>
      </trkpt>
      <trkpt lat="46.09674" lon="6.21249">
        <ele>884.953</ele>
        <time>2020-05-20T15:34:10Z</time>
      </trkpt>
      <trkpt lat="46.09683" lon="6.2125">
        <ele>883.908</ele>
        <time>2020-05-20T15:34:11Z</time>
      </trkpt>
      <trkpt lat="46.09691" lon="6.21253">
        <ele>882.908</ele>
        <time>2020-05-20T15:34:12Z</time>
      </trkpt>
      <trkpt lat="46.09697" lon="6.21258">
        <ele>881.979</ele>
        <time>2020-05-20T15:34:13Z</time>
      </trkpt>
      <trkpt lat="46.09706" lon="6.21261">
        <ele>880.914</ele>
        <time>2020-05-20T15:34:14Z</time>
      </trkpt>
      <trkpt lat="46.09713" lon="6.21264">
        <ele>880.031</ele>
        <time>2020-05-20T15:34:15Z</time>
      </trkpt>
      <trkpt lat="46.09724" lon="6.21267">
        <ele>879.226</ele>
        <time>2020-05-20T15:34:16Z</time>
      </trkpt>
      <trkpt lat="46.09729" lon="6.21271">
        <ele>878.56</ele>
        <time>2020-05-20T15:34:17Z</time>
      </trkpt>
      <trkpt lat="46.09735" lon="6.21275">
        <ele>877.843</ele>
        <time>2020-05-20T15:34:18Z</time>
      </trkpt>
      <trkpt lat="46.09743" lon="6.21275">
        <ele>877.133</ele>
        <time>2020-05-20T15:34:19Z</time>
      </trkpt>
      <trkpt lat="46.09748" lon="6.21277">
        <ele>876.469</ele>
        <time>2020-05-20T15:34:20Z</time>
      </trkpt>
      <trkpt lat="46.09756" lon="6.2128">
        <ele>875.092</ele>
        <time>2020-05-20T15:34:22Z</time>
      </trkpt>
      <trkpt lat="46.09764" lon="6.21288">
        <ele>873.773</ele>
        <time>2020-05-20T15:34:24Z</time>
      </trkpt>
      <trkpt lat="46.09768" lon="6.21293">
        <ele>873.12</ele>
        <time>2020-05-20T15:34:25Z</time>
      </trkpt>
      <trkpt lat="46.09775" lon="6.21297">
        <ele>872.608</ele>
        <time>2020-05-20T15:34:26Z</time>
      </trkpt>
      <trkpt lat="46.09778" lon="6.21302">
        <ele>872.133</ele>
        <time>2020-05-20T15:34:27Z</time>
      </trkpt>
      <trkpt lat="46.09786" lon="6.21307">
        <ele>871.658</ele>
        <time>2020-05-20T15:34:28Z</time>
      </trkpt>
      <trkpt lat="46.09791" lon="6.21312">
        <ele>871.125</ele>
        <time>2020-05-20T15:34:29Z</time>
      </trkpt>
      <trkpt lat="46.09798" lon="6.21316">
        <ele>870.69</ele>
        <time>2020-05-20T15:34:30Z</time>
      </trkpt>
      <trkpt lat="46.09806" lon="6.21319">
        <ele>870.254</ele>
        <time>2020-05-20T15:34:31Z</time>
      </trkpt>
      <trkpt lat="46.09814" lon="6.21325">
        <ele>869.917</ele>
        <time>2020-05-20T15:34:32Z</time>
      </trkpt>
      <trkpt lat="46.09823" lon="6.2133">
        <ele>869.647</ele>
        <time>2020-05-20T15:34:33Z</time>
      </trkpt>
      <trkpt lat="46.09831" lon="6.21335">
        <ele>869.343</ele>
        <time>2020-05-20T15:34:34Z</time>
      </trkpt>
      <trkpt lat="46.0984" lon="6.21342">
        <ele>869.241</ele>
        <time>2020-05-20T15:34:35Z</time>
      </trkpt>
      <trkpt lat="46.09847" lon="6.21347">
        <ele>869.281</ele>
        <time>2020-05-20T15:34:36Z</time>
      </trkpt>
      <trkpt lat="46.09855" lon="6.2135">
        <ele>869.409</ele>
        <time>2020-05-20T15:34:37Z</time>
      </trkpt>
      <trkpt lat="46.09861" lon="6.2135">
        <ele>869.508</ele>
        <time>2020-05-20T15:34:38Z</time>
      </trkpt>
      <trkpt lat="46.09866" lon="6.21352">
        <ele>869.578</ele>
        <time>2020-05-20T15:34:39Z</time>
      </trkpt>
      <trkpt lat="46.0987" lon="6.21355">
        <ele>869.583</ele>
        <time>2020-05-20T15:34:40Z</time>
      </trkpt>
      <trkpt lat="46.09874" lon="6.21359">
        <ele>869.18</ele>
        <time>2020-05-20T15:34:41Z</time>
      </trkpt>
      <trkpt lat="46.09879" lon="6.21363">
        <ele>868.655</ele>
        <time>2020-05-20T15:34:42Z</time>
      </trkpt>
      <trkpt lat="46.09886" lon="6.21365">
        <ele>868.259</ele>
        <time>2020-05-20T15:34:43Z</time>
      </trkpt>
      <trkpt lat="46.09895" lon="6.21368">
        <ele>867.882</ele>
        <time>2020-05-20T15:34:44Z</time>
      </trkpt>
      <trkpt lat="46.09905" lon="6.21373">
        <ele>867.372</ele>
        <time>2020-05-20T15:34:45Z</time>
      </trkpt>
      <trkpt lat="46.09912" lon="6.21377">
        <ele>866.948</ele>
        <time>2020-05-20T15:34:46Z</time>
      </trkpt>
      <trkpt lat="46.0992" lon="6.21381">
        <ele>866.574</ele>
        <time>2020-05-20T15:34:47Z</time>
      </trkpt>
      <trkpt lat="46.09928" lon="6.21382">
        <ele>866.056</ele>
        <time>2020-05-20T15:34:48Z</time>
      </trkpt>
      <trkpt lat="46.09935" lon="6.21386">
        <ele>865.421</ele>
        <time>2020-05-20T15:34:49Z</time>
      </trkpt>
      <trkpt lat="46.09942" lon="6.21388">
        <ele>865.408</ele>
        <time>2020-05-20T15:34:50Z</time>
      </trkpt>
      <trkpt lat="46.09953" lon="6.2139">
        <ele>864.921</ele>
        <time>2020-05-20T15:34:51Z</time>
      </trkpt>
      <trkpt lat="46.09963" lon="6.21391">
        <ele>864.346</ele>
        <time>2020-05-20T15:34:52Z</time>
      </trkpt>
      <trkpt lat="46.09973" lon="6.21393">
        <ele>863.613</ele>
        <time>2020-05-20T15:34:53Z</time>
      </trkpt>
      <trkpt lat="46.09983" lon="6.21395">
        <ele>862.918</ele>
        <time>2020-05-20T15:34:54Z</time>
      </trkpt>
      <trkpt lat="46.09992" lon="6.21397">
        <ele>862.242</ele>
        <time>2020-05-20T15:34:55Z</time>
      </trkpt>
      <trkpt lat="46.10001" lon="6.21398">
        <ele>861.515</ele>
        <time>2020-05-20T15:34:56Z</time>
      </trkpt>
      <trkpt lat="46.10011" lon="6.21402">
        <ele>860.965</ele>
        <time>2020-05-20T15:34:57Z</time>
      </trkpt>
      <trkpt lat="46.1002" lon="6.21408">
        <ele>860.311</ele>
        <time>2020-05-20T15:34:58Z</time>
      </trkpt>
      <trkpt lat="46.10029" lon="6.2141">
        <ele>859.785</ele>
        <time>2020-05-20T15:34:59Z</time>
      </trkpt>
      <trkpt lat="46.10037" lon="6.21415">
        <ele>859.189</ele>
        <time>2020-05-20T15:35:00Z</time>
      </trkpt>
      <trkpt lat="46.10045" lon="6.21417">
        <ele>858.417</ele>
        <time>2020-05-20T15:35:01Z</time>
      </trkpt>
      <trkpt lat="46.10052" lon="6.21424">
        <ele>857.608</ele>
        <time>2020-05-20T15:35:02Z</time>
      </trkpt>
      <trkpt lat="46.1006" lon="6.21427">
        <ele>856.712</ele>
        <time>2020-05-20T15:35:03Z</time>
      </trkpt>
      <trkpt lat="46.10068" lon="6.21433">
        <ele>855.817</ele>
        <time>2020-05-20T15:35:04Z</time>
      </trkpt>
      <trkpt lat="46.10077" lon="6.21434">
        <ele>854.874</ele>
        <time>2020-05-20T15:35:05Z</time>
      </trkpt>
      <trkpt lat="46.10083" lon="6.21436">
        <ele>853.929</ele>
        <time>2020-05-20T15:35:06Z</time>
      </trkpt>
      <trkpt lat="46.10089" lon="6.21438">
        <ele>853.193</ele>
        <time>2020-05-20T15:35:07Z</time>
      </trkpt>
      <trkpt lat="46.10096" lon="6.21441">
        <ele>852.356</ele>
        <time>2020-05-20T15:35:08Z</time>
      </trkpt>
      <trkpt lat="46.10101" lon="6.21443">
        <ele>851.696</ele>
        <time>2020-05-20T15:35:09Z</time>
      </trkpt>
      <trkpt lat="46.10108" lon="6.2145">
        <ele>851.032</ele>
        <time>2020-05-20T15:35:10Z</time>
      </trkpt>
      <trkpt lat="46.10114" lon="6.21453">
        <ele>850.439</ele>
        <time>2020-05-20T15:35:11Z</time>
      </trkpt>
      <trkpt lat="46.10123" lon="6.21453">
        <ele>849.901</ele>
        <time>2020-05-20T15:35:12Z</time>
      </trkpt>
      <trkpt lat="46.10127" lon="6.21456">
        <ele>849.621</ele>
        <time>2020-05-20T15:35:13Z</time>
      </trkpt>
      <trkpt lat="46.1013" lon="6.21462">
        <ele>849.408</ele>
        <time>2020-05-20T15:35:14Z</time>
      </trkpt>
      <trkpt lat="46.10134" lon="6.2147">
        <ele>849.047</ele>
        <time>2020-05-20T15:35:17Z</time>
      </trkpt>
      <trkpt lat="46.10138" lon="6.21476">
        <ele>848.562</ele>
        <time>2020-05-20T15:35:19Z</time>
      </trkpt>
      <trkpt lat="46.10142" lon="6.21483">
        <ele>847.789</ele>
        <time>2020-05-20T15:35:21Z</time>
      </trkpt>
      <trkpt lat="46.10147" lon="6.21491">
        <ele>847.094</ele>
        <time>2020-05-20T15:35:23Z</time>
      </trkpt>
      <trkpt lat="46.10154" lon="6.21494">
        <ele>846.818</ele>
        <time>2020-05-20T15:35:24Z</time>
      </trkpt>
      <trkpt lat="46.1016" lon="6.21498">
        <ele>846.871</ele>
        <time>2020-05-20T15:35:25Z</time>
      </trkpt>
      <trkpt lat="46.10168" lon="6.21504">
        <ele>846.851</ele>
        <time>2020-05-20T15:35:26Z</time>
      </trkpt>
      <trkpt lat="46.10176" lon="6.2151">
        <ele>846.947</ele>
        <time>2020-05-20T15:35:27Z</time>
      </trkpt>
      <trkpt lat="46.102" lon="6.21488">
        <ele>847.081</ele>
        <time>2020-05-20T15:35:28Z</time>
      </trkpt>
      <trkpt lat="46.10217" lon="6.21487">
        <ele>847.161</ele>
        <time>2020-05-20T15:35:29Z</time>
      </trkpt>
      <trkpt lat="46.10229" lon="6.21487">
        <ele>847.517</ele>
        <time>2020-05-20T15:35:30Z</time>
      </trkpt>
      <trkpt lat="46.10241" lon="6.21486">
        <ele>847.508</ele>
        <time>2020-05-20T15:35:31Z</time>
      </trkpt>
      <trkpt lat="46.10252" lon="6.21484">
        <ele>847.482</ele>
        <time>2020-05-20T15:35:32Z</time>
      </trkpt>
      <trkpt lat="46.10262" lon="6.21484">
        <ele>847.297</ele>
        <time>2020-05-20T15:35:33Z</time>
      </trkpt>
      <trkpt lat="46.10271" lon="6.21486">
        <ele>847.184</ele>
        <time>2020-05-20T15:35:34Z</time>
      </trkpt>
      <trkpt lat="46.10279" lon="6.21491">
        <ele>846.869</ele>
        <time>2020-05-20T15:35:35Z</time>
      </trkpt>
      <trkpt lat="46.10288" lon="6.21497">
        <ele>846.833</ele>
        <time>2020-05-20T15:35:36Z</time>
      </trkpt>
      <trkpt lat="46.10298" lon="6.21502">
        <ele>847.176</ele>
        <time>2020-05-20T15:35:37Z</time>
      </trkpt>
      <trkpt lat="46.10308" lon="6.21509">
        <ele>847.446</ele>
        <time>2020-05-20T15:35:38Z</time>
      </trkpt>
      <trkpt lat="46.1032" lon="6.21517">
        <ele>847.682</ele>
        <time>2020-05-20T15:35:39Z</time>
      </trkpt>
      <trkpt lat="46.10333" lon="6.21527">
        <ele>847.839</ele>
        <time>2020-05-20T15:35:40Z</time>
      </trkpt>
      <trkpt lat="46.10344" lon="6.21537">
        <ele>847.901</ele>
        <time>2020-05-20T15:35:41Z</time>
      </trkpt>
      <trkpt lat="46.10354" lon="6.21546">
        <ele>847.921</ele>
        <time>2020-05-20T15:35:42Z</time>
      </trkpt>
      <trkpt lat="46.10363" lon="6.21559">
        <ele>847.908</ele>
        <time>2020-05-20T15:35:43Z</time>
      </trkpt>
      <trkpt lat="46.10371" lon="6.21572">
        <ele>847.967</ele>
        <time>2020-05-20T15:35:44Z</time>
      </trkpt>
      <trkpt lat="46.10378" lon="6.21584">
        <ele>847.692</ele>
        <time>2020-05-20T15:35:45Z</time>
      </trkpt>
      <trkpt lat="46.10385" lon="6.21597">
        <ele>847.259</ele>
        <time>2020-05-20T15:35:46Z</time>
      </trkpt>
      <trkpt lat="46.10394" lon="6.2161">
        <ele>846.694</ele>
        <time>2020-05-20T15:35:47Z</time>
      </trkpt>
      <trkpt lat="46.10401" lon="6.21624">
        <ele>846.248</ele>
        <time>2020-05-20T15:35:48Z</time>
      </trkpt>
      <trkpt lat="46.10409" lon="6.21636">
        <ele>845.821</ele>
        <time>2020-05-20T15:35:49Z</time>
      </trkpt>
      <trkpt lat="46.10418" lon="6.21648">
        <ele>845.411</ele>
        <time>2020-05-20T15:35:50Z</time>
      </trkpt>
      <trkpt lat="46.10426" lon="6.21663">
        <ele>844.917</ele>
        <time>2020-05-20T15:35:51Z</time>
      </trkpt>
      <trkpt lat="46.10434" lon="6.21676">
        <ele>844.633</ele>
        <time>2020-05-20T15:35:52Z</time>
      </trkpt>
      <trkpt lat="46.10442" lon="6.21687">
        <ele>844.023</ele>
        <time>2020-05-20T15:35:53Z</time>
      </trkpt>
      <trkpt lat="46.1045" lon="6.21698">
        <ele>843.415</ele>
        <time>2020-05-20T15:35:54Z</time>
      </trkpt>
      <trkpt lat="46.10458" lon="6.2171">
        <ele>843.008</ele>
        <time>2020-05-20T15:35:55Z</time>
      </trkpt>
      <trkpt lat="46.10465" lon="6.21722">
        <ele>842.627</ele>
        <time>2020-05-20T15:35:56Z</time>
      </trkpt>
      <trkpt lat="46.10472" lon="6.21733">
        <ele>842.032</ele>
        <time>2020-05-20T15:35:57Z</time>
      </trkpt>
      <trkpt lat="46.10479" lon="6.21745">
        <ele>841.699</ele>
        <time>2020-05-20T15:35:58Z</time>
      </trkpt>
      <trkpt lat="46.10487" lon="6.21757">
        <ele>841.564</ele>
        <time>2020-05-20T15:35:59Z</time>
      </trkpt>
      <trkpt lat="46.10494" lon="6.2177">
        <ele>841.128</ele>
        <time>2020-05-20T15:36:00Z</time>
      </trkpt>
      <trkpt lat="46.10502" lon="6.21785">
        <ele>840.991</ele>
        <time>2020-05-20T15:36:01Z</time>
      </trkpt>
      <trkpt lat="46.10508" lon="6.218">
        <ele>840.471</ele>
        <time>2020-05-20T15:36:02Z</time>
      </trkpt>
      <trkpt lat="46.10514" lon="6.21816">
        <ele>839.717</ele>
        <time>2020-05-20T15:36:03Z</time>
      </trkpt>
      <trkpt lat="46.10519" lon="6.21832">
        <ele>838.827</ele>
        <time>2020-05-20T15:36:04Z</time>
      </trkpt>
      <trkpt lat="46.10525" lon="6.21847">
        <ele>838.168</ele>
        <time>2020-05-20T15:36:05Z</time>
      </trkpt>
      <trkpt lat="46.10531" lon="6.21865">
        <ele>837.114</ele>
        <time>2020-05-20T15:36:06Z</time>
      </trkpt>
      <trkpt lat="46.10537" lon="6.21881">
        <ele>836.608</ele>
        <time>2020-05-20T15:36:07Z</time>
      </trkpt>
      <trkpt lat="46.10542" lon="6.21896">
        <ele>836.356</ele>
        <time>2020-05-20T15:36:08Z</time>
      </trkpt>
      <trkpt lat="46.10547" lon="6.21911">
        <ele>836.091</ele>
        <time>2020-05-20T15:36:09Z</time>
      </trkpt>
      <trkpt lat="46.10552" lon="6.21925">
        <ele>835.518</ele>
        <time>2020-05-20T15:36:10Z</time>
      </trkpt>
      <trkpt lat="46.10556" lon="6.21937">
        <ele>835.123</ele>
        <time>2020-05-20T15:36:11Z</time>
      </trkpt>
      <trkpt lat="46.1056" lon="6.21947">
        <ele>834.457</ele>
        <time>2020-05-20T15:36:12Z</time>
      </trkpt>
      <trkpt lat="46.10563" lon="6.21954">
        <ele>833.64</ele>
        <time>2020-05-20T15:36:13Z</time>
      </trkpt>
      <trkpt lat="46.10567" lon="6.21956">
        <ele>832.65</ele>
        <time>2020-05-20T15:36:14Z</time>
      </trkpt>
      <trkpt lat="46.10573" lon="6.21954">
        <ele>831.816</ele>
        <time>2020-05-20T15:36:15Z</time>
      </trkpt>
      <trkpt lat="46.10578" lon="6.21949">
        <ele>831.175</ele>
        <time>2020-05-20T15:36:16Z</time>
      </trkpt>
      <trkpt lat="46.10584" lon="6.21941">
        <ele>830.728</ele>
        <time>2020-05-20T15:36:17Z</time>
      </trkpt>
      <trkpt lat="46.10591" lon="6.21933">
        <ele>830.52</ele>
        <time>2020-05-20T15:36:18Z</time>
      </trkpt>
      <trkpt lat="46.10597" lon="6.21929">
        <ele>830.508</ele>
        <time>2020-05-20T15:36:19Z</time>
      </trkpt>
      <trkpt lat="46.10604" lon="6.21929">
        <ele>830.651</ele>
        <time>2020-05-20T15:36:20Z</time>
      </trkpt>
      <trkpt lat="46.10612" lon="6.21928">
        <ele>830.766</ele>
        <time>2020-05-20T15:36:21Z</time>
      </trkpt>
      <trkpt lat="46.10619" lon="6.21928">
        <ele>830.883</ele>
        <time>2020-05-20T15:36:22Z</time>
      </trkpt>
      <trkpt lat="46.10626" lon="6.21927">
        <ele>830.878</ele>
        <time>2020-05-20T15:36:23Z</time>
      </trkpt>
      <trkpt lat="46.10634" lon="6.21924">
        <ele>830.662</ele>
        <time>2020-05-20T15:36:24Z</time>
      </trkpt>
      <trkpt lat="46.10646" lon="6.21919">
        <ele>830.445</ele>
        <time>2020-05-20T15:36:25Z</time>
      </trkpt>
      <trkpt lat="46.10659" lon="6.21913">
        <ele>830.275</ele>
        <time>2020-05-20T15:36:26Z</time>
      </trkpt>
      <trkpt lat="46.10671" lon="6.21907">
        <ele>830.211</ele>
        <time>2020-05-20T15:36:27Z</time>
      </trkpt>
      <trkpt lat="46.10679" lon="6.21901">
        <ele>830.542</ele>
        <time>2020-05-20T15:36:28Z</time>
      </trkpt>
      <trkpt lat="46.10689" lon="6.21897">
        <ele>830.722</ele>
        <time>2020-05-20T15:36:29Z</time>
      </trkpt>
      <trkpt lat="46.10699" lon="6.21899">
        <ele>830.714</ele>
        <time>2020-05-20T15:36:30Z</time>
      </trkpt>
      <trkpt lat="46.10711" lon="6.21905">
        <ele>830.708</ele>
        <time>2020-05-20T15:36:31Z</time>
      </trkpt>
      <trkpt lat="46.10729" lon="6.21913">
        <ele>830.718</ele>
        <time>2020-05-20T15:36:32Z</time>
      </trkpt>
      <trkpt lat="46.10743" lon="6.2192">
        <ele>830.313</ele>
        <time>2020-05-20T15:36:33Z</time>
      </trkpt>
      <trkpt lat="46.10753" lon="6.21926">
        <ele>830.25</ele>
        <time>2020-05-20T15:36:34Z</time>
      </trkpt>
      <trkpt lat="46.10762" lon="6.2193">
        <ele>830.135</ele>
        <time>2020-05-20T15:36:35Z</time>
      </trkpt>
      <trkpt lat="46.1077" lon="6.21933">
        <ele>829.869</ele>
        <time>2020-05-20T15:36:36Z</time>
      </trkpt>
      <trkpt lat="46.10778" lon="6.21937">
        <ele>829.322</ele>
        <time>2020-05-20T15:36:37Z</time>
      </trkpt>
      <trkpt lat="46.10785" lon="6.2194">
        <ele>828.742</ele>
        <time>2020-05-20T15:36:38Z</time>
      </trkpt>
      <trkpt lat="46.10791" lon="6.21943">
        <ele>827.818</ele>
        <time>2020-05-20T15:36:39Z</time>
      </trkpt>
      <trkpt lat="46.10797" lon="6.21945">
        <ele>826.953</ele>
        <time>2020-05-20T15:36:40Z</time>
      </trkpt>
      <trkpt lat="46.10804" lon="6.21949">
        <ele>826.204</ele>
        <time>2020-05-20T15:36:41Z</time>
      </trkpt>
      <trkpt lat="46.1081" lon="6.21951">
        <ele>825.714</ele>
        <time>2020-05-20T15:36:42Z</time>
      </trkpt>
      <trkpt lat="46.10815" lon="6.21953">
        <ele>825.308</ele>
        <time>2020-05-20T15:36:43Z</time>
      </trkpt>
      <trkpt lat="46.1082" lon="6.21955">
        <ele>824.839</ele>
        <time>2020-05-20T15:36:44Z</time>
      </trkpt>
      <trkpt lat="46.10825" lon="6.21959">
        <ele>824.414</ele>
        <time>2020-05-20T15:36:45Z</time>
      </trkpt>
      <trkpt lat="46.10831" lon="6.21963">
        <ele>824.121</ele>
        <time>2020-05-20T15:36:46Z</time>
      </trkpt>
      <trkpt lat="46.10836" lon="6.21966">
        <ele>824.086</ele>
        <time>2020-05-20T15:36:47Z</time>
      </trkpt>
      <trkpt lat="46.10841" lon="6.21968">
        <ele>824.07</ele>
        <time>2020-05-20T15:36:48Z</time>
      </trkpt>
      <trkpt lat="46.10849" lon="6.21971">
        <ele>824.023</ele>
        <time>2020-05-20T15:36:50Z</time>
      </trkpt>
      <trkpt lat="46.10854" lon="6.21974">
        <ele>824.063</ele>
        <time>2020-05-20T15:36:51Z</time>
      </trkpt>
      <trkpt lat="46.10859" lon="6.21976">
        <ele>823.829</ele>
        <time>2020-05-20T15:36:52Z</time>
      </trkpt>
      <trkpt lat="46.10863" lon="6.21978">
        <ele>823.736</ele>
        <time>2020-05-20T15:36:53Z</time>
      </trkpt>
      <trkpt lat="46.1087" lon="6.2198">
        <ele>823.317</ele>
        <time>2020-05-20T15:36:55Z</time>
      </trkpt>
      <trkpt lat="46.10875" lon="6.21981">
        <ele>823.118</ele>
        <time>2020-05-20T15:36:56Z</time>
      </trkpt>
      <trkpt lat="46.10884" lon="6.21985">
        <ele>823.008</ele>
        <time>2020-05-20T15:36:57Z</time>
      </trkpt>
      <trkpt lat="46.10894" lon="6.21988">
        <ele>822.867</ele>
        <time>2020-05-20T15:36:58Z</time>
      </trkpt>
      <trkpt lat="46.10906" lon="6.2199">
        <ele>822.742</ele>
        <time>2020-05-20T15:36:59Z</time>
      </trkpt>
      <trkpt lat="46.10918" lon="6.21994">
        <ele>822.789</ele>
        <time>2020-05-20T15:37:00Z</time>
      </trkpt>
      <trkpt lat="46.10929" lon="6.21997">
        <ele>822.734</ele>
        <time>2020-05-20T15:37:01Z</time>
      </trkpt>
      <trkpt lat="46.1094" lon="6.22">
        <ele>822.668</ele>
        <time>2020-05-20T15:37:02Z</time>
      </trkpt>
      <trkpt lat="46.1095" lon="6.22004">
        <ele>822.441</ele>
        <time>2020-05-20T15:37:03Z</time>
      </trkpt>
      <trkpt lat="46.10964" lon="6.22007">
        <ele>822.271</ele>
        <time>2020-05-20T15:37:04Z</time>
      </trkpt>
      <trkpt lat="46.10975" lon="6.22009">
        <ele>822.047</ele>
        <time>2020-05-20T15:37:05Z</time>
      </trkpt>
      <trkpt lat="46.10987" lon="6.22014">
        <ele>821.612</ele>
        <time>2020-05-20T15:37:06Z</time>
      </trkpt>
      <trkpt lat="46.10998" lon="6.22018">
        <ele>821.132</ele>
        <time>2020-05-20T15:37:07Z</time>
      </trkpt>
      <trkpt lat="46.11007" lon="6.22022">
        <ele>820.505</ele>
        <time>2020-05-20T15:37:08Z</time>
      </trkpt>
      <trkpt lat="46.11016" lon="6.22024">
        <ele>819.808</ele>
        <time>2020-05-20T15:37:09Z</time>
      </trkpt>
      <trkpt lat="46.11026" lon="6.22025">
        <ele>818.845</ele>
        <time>2020-05-20T15:37:10Z</time>
      </trkpt>
      <trkpt lat="46.11032" lon="6.22027">
        <ele>817.51</ele>
        <time>2020-05-20T15:37:11Z</time>
      </trkpt>
      <trkpt lat="46.11037" lon="6.22029">
        <ele>816.557</ele>
        <time>2020-05-20T15:37:12Z</time>
      </trkpt>
      <trkpt lat="46.11042" lon="6.22031">
        <ele>815.572</ele>
        <time>2020-05-20T15:37:13Z</time>
      </trkpt>
      <trkpt lat="46.11048" lon="6.22035">
        <ele>814.656</ele>
        <time>2020-05-20T15:37:14Z</time>
      </trkpt>
      <trkpt lat="46.1106" lon="6.2204">
        <ele>813.659</ele>
        <time>2020-05-20T15:37:15Z</time>
      </trkpt>
      <trkpt lat="46.11072" lon="6.22043">
        <ele>812.999</ele>
        <time>2020-05-20T15:37:16Z</time>
      </trkpt>
      <trkpt lat="46.11083" lon="6.22046">
        <ele>812.185</ele>
        <time>2020-05-20T15:37:17Z</time>
      </trkpt>
      <trkpt lat="46.11091" lon="6.22048">
        <ele>811.287</ele>
        <time>2020-05-20T15:37:18Z</time>
      </trkpt>
      <trkpt lat="46.111" lon="6.2205">
        <ele>810.342</ele>
        <time>2020-05-20T15:37:19Z</time>
      </trkpt>
      <trkpt lat="46.1111" lon="6.22054">
        <ele>809.526</ele>
        <time>2020-05-20T15:37:20Z</time>
      </trkpt>
      <trkpt lat="46.1112" lon="6.22057">
        <ele>808.708</ele>
        <time>2020-05-20T15:37:21Z</time>
      </trkpt>
      <trkpt lat="46.11127" lon="6.2206">
        <ele>807.942</ele>
        <time>2020-05-20T15:37:22Z</time>
      </trkpt>
      <trkpt lat="46.11135" lon="6.22063">
        <ele>807.227</ele>
        <time>2020-05-20T15:37:23Z</time>
      </trkpt>
      <trkpt lat="46.11142" lon="6.22067">
        <ele>806.574</ele>
        <time>2020-05-20T15:37:24Z</time>
      </trkpt>
      <trkpt lat="46.11146" lon="6.22071">
        <ele>806.029</ele>
        <time>2020-05-20T15:37:25Z</time>
      </trkpt>
      <trkpt lat="46.11152" lon="6.22077">
        <ele>805.583</ele>
        <time>2020-05-20T15:37:26Z</time>
      </trkpt>
      <trkpt lat="46.11156" lon="6.22084">
        <ele>805.086</ele>
        <time>2020-05-20T15:37:27Z</time>
      </trkpt>
      <trkpt lat="46.11161" lon="6.2209">
        <ele>804.616</ele>
        <time>2020-05-20T15:37:28Z</time>
      </trkpt>
      <trkpt lat="46.11168" lon="6.22096">
        <ele>804.272</ele>
        <time>2020-05-20T15:37:29Z</time>
      </trkpt>
      <trkpt lat="46.11175" lon="6.22103">
        <ele>803.853</ele>
        <time>2020-05-20T15:37:30Z</time>
      </trkpt>
      <trkpt lat="46.11177" lon="6.22111">
        <ele>803.404</ele>
        <time>2020-05-20T15:37:31Z</time>
      </trkpt>
      <trkpt lat="46.11181" lon="6.22118">
        <ele>803.114</ele>
        <time>2020-05-20T15:37:32Z</time>
      </trkpt>
      <trkpt lat="46.11186" lon="6.22124">
        <ele>802.808</ele>
        <time>2020-05-20T15:37:33Z</time>
      </trkpt>
      <trkpt lat="46.11194" lon="6.22132">
        <ele>802.459</ele>
        <time>2020-05-20T15:37:34Z</time>
      </trkpt>
      <trkpt lat="46.11201" lon="6.22142">
        <ele>802.044</ele>
        <time>2020-05-20T15:37:35Z</time>
      </trkpt>
      <trkpt lat="46.11204" lon="6.22151">
        <ele>801.661</ele>
        <time>2020-05-20T15:37:36Z</time>
      </trkpt>
      <trkpt lat="46.11206" lon="6.22162">
        <ele>801.256</ele>
        <time>2020-05-20T15:37:37Z</time>
      </trkpt>
      <trkpt lat="46.11205" lon="6.22177">
        <ele>801.03</ele>
        <time>2020-05-20T15:37:38Z</time>
      </trkpt>
      <trkpt lat="46.11203" lon="6.2219">
        <ele>800.883</ele>
        <time>2020-05-20T15:37:39Z</time>
      </trkpt>
      <trkpt lat="46.11199" lon="6.22203">
        <ele>800.513</ele>
        <time>2020-05-20T15:37:40Z</time>
      </trkpt>
      <trkpt lat="46.11197" lon="6.22214">
        <ele>800.389</ele>
        <time>2020-05-20T15:37:41Z</time>
      </trkpt>
      <trkpt lat="46.11194" lon="6.22226">
        <ele>800.127</ele>
        <time>2020-05-20T15:37:42Z</time>
      </trkpt>
      <trkpt lat="46.11192" lon="6.22237">
        <ele>799.668</ele>
        <time>2020-05-20T15:37:43Z</time>
      </trkpt>
      <trkpt lat="46.11191" lon="6.22247">
        <ele>799.114</ele>
        <time>2020-05-20T15:37:44Z</time>
      </trkpt>
      <trkpt lat="46.1119" lon="6.22259">
        <ele>798.708</ele>
        <time>2020-05-20T15:37:45Z</time>
      </trkpt>
      <trkpt lat="46.11191" lon="6.22269">
        <ele>798.286</ele>
        <time>2020-05-20T15:37:46Z</time>
      </trkpt>
      <trkpt lat="46.11194" lon="6.22283">
        <ele>797.751</ele>
        <time>2020-05-20T15:37:47Z</time>
      </trkpt>
      <trkpt lat="46.11197" lon="6.22294">
        <ele>797.168</ele>
        <time>2020-05-20T15:37:48Z</time>
      </trkpt>
      <trkpt lat="46.11202" lon="6.22307">
        <ele>796.633</ele>
        <time>2020-05-20T15:37:49Z</time>
      </trkpt>
      <trkpt lat="46.11206" lon="6.22317">
        <ele>796.117</ele>
        <time>2020-05-20T15:37:50Z</time>
      </trkpt>
      <trkpt lat="46.11211" lon="6.22327">
        <ele>795.68</ele>
        <time>2020-05-20T15:37:51Z</time>
      </trkpt>
      <trkpt lat="46.11214" lon="6.22336">
        <ele>795.49</ele>
        <time>2020-05-20T15:37:52Z</time>
      </trkpt>
      <trkpt lat="46.11219" lon="6.22347">
        <ele>795.026</ele>
        <time>2020-05-20T15:37:53Z</time>
      </trkpt>
      <trkpt lat="46.11223" lon="6.22358">
        <ele>794.635</ele>
        <time>2020-05-20T15:37:54Z</time>
      </trkpt>
      <trkpt lat="46.11227" lon="6.22366">
        <ele>794.086</ele>
        <time>2020-05-20T15:37:55Z</time>
      </trkpt>
      <trkpt lat="46.11232" lon="6.22374">
        <ele>793.614</ele>
        <time>2020-05-20T15:37:56Z</time>
      </trkpt>
      <trkpt lat="46.11238" lon="6.22381">
        <ele>793.108</ele>
        <time>2020-05-20T15:37:57Z</time>
      </trkpt>
      <trkpt lat="46.11245" lon="6.22386">
        <ele>793.127</ele>
        <time>2020-05-20T15:37:58Z</time>
      </trkpt>
      <trkpt lat="46.11253" lon="6.22389">
        <ele>792.862</ele>
        <time>2020-05-20T15:37:59Z</time>
      </trkpt>
      <trkpt lat="46.11259" lon="6.22393">
        <ele>792.829</ele>
        <time>2020-05-20T15:38:00Z</time>
      </trkpt>
      <trkpt lat="46.11268" lon="6.22398">
        <ele>792.784</ele>
        <time>2020-05-20T15:38:01Z</time>
      </trkpt>
      <trkpt lat="46.11275" lon="6.22404">
        <ele>792.638</ele>
        <time>2020-05-20T15:38:02Z</time>
      </trkpt>
      <trkpt lat="46.11282" lon="6.22409">
        <ele>792.411</ele>
        <time>2020-05-20T15:38:03Z</time>
      </trkpt>
      <trkpt lat="46.11291" lon="6.22414">
        <ele>791.941</ele>
        <time>2020-05-20T15:38:04Z</time>
      </trkpt>
      <trkpt lat="46.11298" lon="6.22417">
        <ele>791.377</ele>
        <time>2020-05-20T15:38:05Z</time>
      </trkpt>
      <trkpt lat="46.11305" lon="6.22421">
        <ele>790.563</ele>
        <time>2020-05-20T15:38:06Z</time>
      </trkpt>
      <trkpt lat="46.11311" lon="6.22425">
        <ele>789.844</ele>
        <time>2020-05-20T15:38:07Z</time>
      </trkpt>
      <trkpt lat="46.11317" lon="6.22428">
        <ele>789.118</ele>
        <time>2020-05-20T15:38:08Z</time>
      </trkpt>
      <trkpt lat="46.11324" lon="6.22436">
        <ele>788.308</ele>
        <time>2020-05-20T15:38:09Z</time>
      </trkpt>
      <trkpt lat="46.11332" lon="6.22443">
        <ele>787.59</ele>
        <time>2020-05-20T15:38:10Z</time>
      </trkpt>
      <trkpt lat="46.11337" lon="6.22448">
        <ele>786.945</ele>
        <time>2020-05-20T15:38:11Z</time>
      </trkpt>
      <trkpt lat="46.11342" lon="6.22452">
        <ele>786.292</ele>
        <time>2020-05-20T15:38:12Z</time>
      </trkpt>
      <trkpt lat="46.11351" lon="6.2246">
        <ele>785.487</ele>
        <time>2020-05-20T15:38:13Z</time>
      </trkpt>
      <trkpt lat="46.11364" lon="6.22469">
        <ele>784.561</ele>
        <time>2020-05-20T15:38:14Z</time>
      </trkpt>
      <trkpt lat="46.1138" lon="6.22479">
        <ele>783.854</ele>
        <time>2020-05-20T15:38:15Z</time>
      </trkpt>
      <trkpt lat="46.11396" lon="6.22489">
        <ele>782.954</ele>
        <time>2020-05-20T15:38:16Z</time>
      </trkpt>
      <trkpt lat="46.11412" lon="6.22499">
        <ele>782.94</ele>
        <time>2020-05-20T15:38:17Z</time>
      </trkpt>
      <trkpt lat="46.11426" lon="6.22507">
        <ele>782.919</ele>
        <time>2020-05-20T15:38:18Z</time>
      </trkpt>
      <trkpt lat="46.1144" lon="6.22514">
        <ele>782.809</ele>
        <time>2020-05-20T15:38:19Z</time>
      </trkpt>
      <trkpt lat="46.11452" lon="6.22521">
        <ele>782.819</ele>
        <time>2020-05-20T15:38:20Z</time>
      </trkpt>
      <trkpt lat="46.11464" lon="6.22527">
        <ele>782.908</ele>
        <time>2020-05-20T15:38:21Z</time>
      </trkpt>
      <trkpt lat="46.11473" lon="6.22532">
        <ele>782.995</ele>
        <time>2020-05-20T15:38:22Z</time>
      </trkpt>
      <trkpt lat="46.11482" lon="6.22535">
        <ele>782.33</ele>
        <time>2020-05-20T15:38:23Z</time>
      </trkpt>
      <trkpt lat="46.11491" lon="6.22536">
        <ele>782.277</ele>
        <time>2020-05-20T15:38:24Z</time>
      </trkpt>
      <trkpt lat="46.11497" lon="6.22539">
        <ele>781.442</ele>
        <time>2020-05-20T15:38:25Z</time>
      </trkpt>
      <trkpt lat="46.11501" lon="6.22542">
        <ele>780.676</ele>
        <time>2020-05-20T15:38:26Z</time>
      </trkpt>
      <trkpt lat="46.11507" lon="6.22543">
        <ele>779.739</ele>
        <time>2020-05-20T15:38:27Z</time>
      </trkpt>
      <trkpt lat="46.1151" lon="6.22547">
        <ele>779.069</ele>
        <time>2020-05-20T15:38:28Z</time>
      </trkpt>
      <trkpt lat="46.11515" lon="6.22554">
        <ele>778.345</ele>
        <time>2020-05-20T15:38:29Z</time>
      </trkpt>
      <trkpt lat="46.11522" lon="6.2256">
        <ele>777.775</ele>
        <time>2020-05-20T15:38:30Z</time>
      </trkpt>
      <trkpt lat="46.11531" lon="6.22568">
        <ele>777.228</ele>
        <time>2020-05-20T15:38:31Z</time>
      </trkpt>
      <trkpt lat="46.11544" lon="6.22577">
        <ele>777.02</ele>
        <time>2020-05-20T15:38:32Z</time>
      </trkpt>
      <trkpt lat="46.11555" lon="6.22583">
        <ele>777.008</ele>
        <time>2020-05-20T15:38:33Z</time>
      </trkpt>
      <trkpt lat="46.11567" lon="6.22587">
        <ele>777.341</ele>
        <time>2020-05-20T15:38:34Z</time>
      </trkpt>
      <trkpt lat="46.11579" lon="6.22588">
        <ele>777.356</ele>
        <time>2020-05-20T15:38:35Z</time>
      </trkpt>
      <trkpt lat="46.11588" lon="6.22588">
        <ele>777.383</ele>
        <time>2020-05-20T15:38:36Z</time>
      </trkpt>
      <trkpt lat="46.11595" lon="6.2259">
        <ele>776.988</ele>
        <time>2020-05-20T15:38:37Z</time>
      </trkpt>
      <trkpt lat="46.11602" lon="6.2259">
        <ele>776.192</ele>
        <time>2020-05-20T15:38:38Z</time>
      </trkpt>
      <trkpt lat="46.11607" lon="6.22591">
        <ele>775.155</ele>
        <time>2020-05-20T15:38:39Z</time>
      </trkpt>
      <trkpt lat="46.11614" lon="6.22591">
        <ele>773.225</ele>
        <time>2020-05-20T15:38:41Z</time>
      </trkpt>
      <trkpt lat="46.11619" lon="6.22583">
        <ele>772.021</ele>
        <time>2020-05-20T15:38:43Z</time>
      </trkpt>
      <trkpt lat="46.11618" lon="6.22571">
        <ele>771.513</ele>
        <time>2020-05-20T15:38:44Z</time>
      </trkpt>
      <trkpt lat="46.11625" lon="6.22571">
        <ele>771.343</ele>
        <time>2020-05-20T15:38:46Z</time>
      </trkpt>
      <trkpt lat="46.11631" lon="6.2257">
        <ele>771.507</ele>
        <time>2020-05-20T15:38:47Z</time>
      </trkpt>
      <trkpt lat="46.11638" lon="6.22569">
        <ele>771.808</ele>
        <time>2020-05-20T15:38:48Z</time>
      </trkpt>
      <trkpt lat="46.11646" lon="6.22565">
        <ele>772.175</ele>
        <time>2020-05-20T15:38:49Z</time>
      </trkpt>
      <trkpt lat="46.11653" lon="6.22562">
        <ele>772.16</ele>
        <time>2020-05-20T15:38:50Z</time>
      </trkpt>
      <trkpt lat="46.11659" lon="6.22558">
        <ele>772.157</ele>
        <time>2020-05-20T15:38:51Z</time>
      </trkpt>
      <trkpt lat="46.11667" lon="6.22556">
        <ele>772.052</ele>
        <time>2020-05-20T15:38:52Z</time>
      </trkpt>
      <trkpt lat="46.11675" lon="6.22555">
        <ele>771.816</ele>
        <time>2020-05-20T15:38:53Z</time>
      </trkpt>
      <trkpt lat="46.11686" lon="6.22555">
        <ele>771.649</ele>
        <time>2020-05-20T15:38:54Z</time>
      </trkpt>
      <trkpt lat="46.117" lon="6.22554">
        <ele>771.679</ele>
        <time>2020-05-20T15:38:55Z</time>
      </trkpt>
      <trkpt lat="46.11714" lon="6.22553">
        <ele>771.855</ele>
        <time>2020-05-20T15:38:56Z</time>
      </trkpt>
      <trkpt lat="46.11726" lon="6.22552">
        <ele>772.169</ele>
        <time>2020-05-20T15:38:57Z</time>
      </trkpt>
      <trkpt lat="46.11735" lon="6.2255">
        <ele>772.404</ele>
        <time>2020-05-20T15:38:58Z</time>
      </trkpt>
      <trkpt lat="46.11746" lon="6.22548">
        <ele>772.524</ele>
        <time>2020-05-20T15:38:59Z</time>
      </trkpt>
      <trkpt lat="46.1176" lon="6.22548">
        <ele>772.508</ele>
        <time>2020-05-20T15:39:00Z</time>
      </trkpt>
      <trkpt lat="46.11771" lon="6.22546">
        <ele>772.54</ele>
        <time>2020-05-20T15:39:01Z</time>
      </trkpt>
      <trkpt lat="46.11781" lon="6.22545">
        <ele>772.345</ele>
        <time>2020-05-20T15:39:02Z</time>
      </trkpt>
      <trkpt lat="46.11789" lon="6.22544">
        <ele>772.092</ele>
        <time>2020-05-20T15:39:03Z</time>
      </trkpt>
      <trkpt lat="46.11793" lon="6.22539">
        <ele>771.177</ele>
        <time>2020-05-20T15:39:07Z</time>
      </trkpt>
      <trkpt lat="46.11797" lon="6.2253">
        <ele>770.981</ele>
        <time>2020-05-20T15:39:10Z</time>
      </trkpt>
      <trkpt lat="46.11802" lon="6.2253">
        <ele>770.984</ele>
        <time>2020-05-20T15:39:11Z</time>
      </trkpt>
      <trkpt lat="46.11809" lon="6.2253">
        <ele>771.034</ele>
        <time>2020-05-20T15:39:12Z</time>
      </trkpt>
      <trkpt lat="46.11817" lon="6.22533">
        <ele>771.14</ele>
        <time>2020-05-20T15:39:13Z</time>
      </trkpt>
      <trkpt lat="46.11829" lon="6.22536">
        <ele>771.595</ele>
        <time>2020-05-20T15:39:14Z</time>
      </trkpt>
      <trkpt lat="46.11844" lon="6.22539">
        <ele>771.949</ele>
        <time>2020-05-20T15:39:15Z</time>
      </trkpt>
      <trkpt lat="46.11858" lon="6.22542">
        <ele>772.223</ele>
        <time>2020-05-20T15:39:16Z</time>
      </trkpt>
      <trkpt lat="46.11872" lon="6.22545">
        <ele>772.208</ele>
        <time>2020-05-20T15:39:17Z</time>
      </trkpt>
      <trkpt lat="46.11885" lon="6.22548">
        <ele>772.223</ele>
        <time>2020-05-20T15:39:18Z</time>
      </trkpt>
      <trkpt lat="46.11898" lon="6.2255">
        <ele>771.638</ele>
        <time>2020-05-20T15:39:19Z</time>
      </trkpt>
      <trkpt lat="46.1191" lon="6.22552">
        <ele>770.875</ele>
        <time>2020-05-20T15:39:20Z</time>
      </trkpt>
      <trkpt lat="46.11922" lon="6.22557">
        <ele>769.84</ele>
        <time>2020-05-20T15:39:21Z</time>
      </trkpt>
      <trkpt lat="46.11934" lon="6.2256">
        <ele>768.624</ele>
        <time>2020-05-20T15:39:22Z</time>
      </trkpt>
      <trkpt lat="46.11946" lon="6.22564">
        <ele>767.787</ele>
        <time>2020-05-20T15:39:23Z</time>
      </trkpt>
      <trkpt lat="46.11959" lon="6.22569">
        <ele>766.957</ele>
        <time>2020-05-20T15:39:24Z</time>
      </trkpt>
      <trkpt lat="46.11971" lon="6.22577">
        <ele>766.153</ele>
        <time>2020-05-20T15:39:25Z</time>
      </trkpt>
      <trkpt lat="46.11984" lon="6.22584">
        <ele>765.166</ele>
        <time>2020-05-20T15:39:26Z</time>
      </trkpt>
      <trkpt lat="46.11997" lon="6.2259">
        <ele>764.429</ele>
        <time>2020-05-20T15:39:27Z</time>
      </trkpt>
      <trkpt lat="46.12009" lon="6.22594">
        <ele>763.621</ele>
        <time>2020-05-20T15:39:28Z</time>
      </trkpt>
      <trkpt lat="46.12023" lon="6.22599">
        <ele>762.708</ele>
        <time>2020-05-20T15:39:29Z</time>
      </trkpt>
      <trkpt lat="46.12036" lon="6.22605">
        <ele>761.97</ele>
        <time>2020-05-20T15:39:30Z</time>
      </trkpt>
      <trkpt lat="46.12049" lon="6.22612">
        <ele>761.345</ele>
        <time>2020-05-20T15:39:31Z</time>
      </trkpt>
      <trkpt lat="46.1206" lon="6.22617">
        <ele>760.632</ele>
        <time>2020-05-20T15:39:32Z</time>
      </trkpt>
      <trkpt lat="46.12071" lon="6.22623">
        <ele>760.097</ele>
        <time>2020-05-20T15:39:33Z</time>
      </trkpt>
      <trkpt lat="46.12078" lon="6.22622">
        <ele>759.581</ele>
        <time>2020-05-20T15:39:34Z</time>
      </trkpt>
      <trkpt lat="46.12086" lon="6.22621">
        <ele>759.044</ele>
        <time>2020-05-20T15:39:35Z</time>
      </trkpt>
      <trkpt lat="46.12091" lon="6.22609">
        <ele>758.944</ele>
        <time>2020-05-20T15:39:36Z</time>
      </trkpt>
      <trkpt lat="46.12098" lon="6.22605">
        <ele>758.98</ele>
        <time>2020-05-20T15:39:37Z</time>
      </trkpt>
      <trkpt lat="46.12103" lon="6.22604">
        <ele>758.969</ele>
        <time>2020-05-20T15:39:38Z</time>
      </trkpt>
      <trkpt lat="46.12109" lon="6.22604">
        <ele>758.904</ele>
        <time>2020-05-20T15:39:39Z</time>
      </trkpt>
      <trkpt lat="46.12114" lon="6.22604">
        <ele>758.924</ele>
        <time>2020-05-20T15:39:41Z</time>
      </trkpt>
      <trkpt lat="46.12115" lon="6.22594">
        <ele>758.708</ele>
        <time>2020-05-20T15:39:47Z</time>
      </trkpt>
      <trkpt lat="46.12106" lon="6.2263">
        <ele>758.54</ele>
        <time>2020-05-20T15:39:57Z</time>
      </trkpt>
      <trkpt lat="46.12104" lon="6.2264">
        <ele>758.015</ele>
        <time>2020-05-20T15:39:58Z</time>
      </trkpt>
      <trkpt lat="46.121" lon="6.2265">
        <ele>757.482</ele>
        <time>2020-05-20T15:39:59Z</time>
      </trkpt>
      <trkpt lat="46.12099" lon="6.2266">
        <ele>756.777</ele>
        <time>2020-05-20T15:40:00Z</time>
      </trkpt>
      <trkpt lat="46.12097" lon="6.22671">
        <ele>755.961</ele>
        <time>2020-05-20T15:40:01Z</time>
      </trkpt>
      <trkpt lat="46.12095" lon="6.22677">
        <ele>755.114</ele>
        <time>2020-05-20T15:40:02Z</time>
      </trkpt>
      <trkpt lat="46.12094" lon="6.22685">
        <ele>754.314</ele>
        <time>2020-05-20T15:40:03Z</time>
      </trkpt>
      <trkpt lat="46.12094" lon="6.22693">
        <ele>753.44</ele>
        <time>2020-05-20T15:40:04Z</time>
      </trkpt>
      <trkpt lat="46.12093" lon="6.22701">
        <ele>752.658</ele>
        <time>2020-05-20T15:40:05Z</time>
      </trkpt>
      <trkpt lat="46.12091" lon="6.22708">
        <ele>751.752</ele>
        <time>2020-05-20T15:40:06Z</time>
      </trkpt>
      <trkpt lat="46.12088" lon="6.22718">
        <ele>750.817</ele>
        <time>2020-05-20T15:40:07Z</time>
      </trkpt>
      <trkpt lat="46.12087" lon="6.22727">
        <ele>749.208</ele>
        <time>2020-05-20T15:40:09Z</time>
      </trkpt>
      <trkpt lat="46.12085" lon="6.22733">
        <ele>747.789</ele>
        <time>2020-05-20T15:40:11Z</time>
      </trkpt>
      <trkpt lat="46.12081" lon="6.22744">
        <ele>746.364</ele>
        <time>2020-05-20T15:40:14Z</time>
      </trkpt>
      <trkpt lat="46.12077" lon="6.22753">
        <ele>745.911</ele>
        <time>2020-05-20T15:40:15Z</time>
      </trkpt>
      <trkpt lat="46.12075" lon="6.22761">
        <ele>745.526</ele>
        <time>2020-05-20T15:40:16Z</time>
      </trkpt>
      <trkpt lat="46.12073" lon="6.22769">
        <ele>745.02</ele>
        <time>2020-05-20T15:40:17Z</time>
      </trkpt>
      <trkpt lat="46.12072" lon="6.22776">
        <ele>744.483</ele>
        <time>2020-05-20T15:40:18Z</time>
      </trkpt>
      <trkpt lat="46.12069" lon="6.22787">
        <ele>743.043</ele>
        <time>2020-05-20T15:40:20Z</time>
      </trkpt>
      <trkpt lat="46.12068" lon="6.22794">
        <ele>742.449</ele>
        <time>2020-05-20T15:40:21Z</time>
      </trkpt>
      <trkpt lat="46.12069" lon="6.22803">
        <ele>741.827</ele>
        <time>2020-05-20T15:40:22Z</time>
      </trkpt>
      <trkpt lat="46.12073" lon="6.2281">
        <ele>741.468</ele>
        <time>2020-05-20T15:40:23Z</time>
      </trkpt>
      <trkpt lat="46.12076" lon="6.22815">
        <ele>741.114</ele>
        <time>2020-05-20T15:40:24Z</time>
      </trkpt>
      <trkpt lat="46.1208" lon="6.22823">
        <ele>740.908</ele>
        <time>2020-05-20T15:40:25Z</time>
      </trkpt>
      <trkpt lat="46.12084" lon="6.22833">
        <ele>740.626</ele>
        <time>2020-05-20T15:40:26Z</time>
      </trkpt>
      <trkpt lat="46.12088" lon="6.22845">
        <ele>740.391</ele>
        <time>2020-05-20T15:40:27Z</time>
      </trkpt>
      <trkpt lat="46.12092" lon="6.22854">
        <ele>739.998</ele>
        <time>2020-05-20T15:40:28Z</time>
      </trkpt>
      <trkpt lat="46.12096" lon="6.22867">
        <ele>739.473</ele>
        <time>2020-05-20T15:40:29Z</time>
      </trkpt>
      <trkpt lat="46.12101" lon="6.22879">
        <ele>738.947</ele>
        <time>2020-05-20T15:40:30Z</time>
      </trkpt>
      <trkpt lat="46.12104" lon="6.2289">
        <ele>738.38</ele>
        <time>2020-05-20T15:40:31Z</time>
      </trkpt>
      <trkpt lat="46.12109" lon="6.22899">
        <ele>737.74</ele>
        <time>2020-05-20T15:40:32Z</time>
      </trkpt>
      <trkpt lat="46.12115" lon="6.22907">
        <ele>737.186</ele>
        <time>2020-05-20T15:40:33Z</time>
      </trkpt>
      <trkpt lat="46.12121" lon="6.22912">
        <ele>736.333</ele>
        <time>2020-05-20T15:40:34Z</time>
      </trkpt>
      <trkpt lat="46.12126" lon="6.2292">
        <ele>735.523</ele>
        <time>2020-05-20T15:40:35Z</time>
      </trkpt>
      <trkpt lat="46.12134" lon="6.22929">
        <ele>734.715</ele>
        <time>2020-05-20T15:40:36Z</time>
      </trkpt>
      <trkpt lat="46.12139" lon="6.22938">
        <ele>734.008</ele>
        <time>2020-05-20T15:40:37Z</time>
      </trkpt>
      <trkpt lat="46.12142" lon="6.22944">
        <ele>733.157</ele>
        <time>2020-05-20T15:40:38Z</time>
      </trkpt>
      <trkpt lat="46.12146" lon="6.2295">
        <ele>732.332</ele>
        <time>2020-05-20T15:40:39Z</time>
      </trkpt>
      <trkpt lat="46.12151" lon="6.22958">
        <ele>730.729</ele>
        <time>2020-05-20T15:40:41Z</time>
      </trkpt>
      <trkpt lat="46.12159" lon="6.22962">
        <ele>729.034</ele>
        <time>2020-05-20T15:40:43Z</time>
      </trkpt>
      <trkpt lat="46.12165" lon="6.22963">
        <ele>727.698</ele>
        <time>2020-05-20T15:40:45Z</time>
      </trkpt>
      <trkpt lat="46.12213" lon="6.23017">
        <ele>720.591</ele>
        <time>2020-05-20T15:41:10Z</time>
      </trkpt>
      <trkpt lat="46.12223" lon="6.23009">
        <ele>720.681</ele>
        <time>2020-05-20T15:41:12Z</time>
      </trkpt>
      <trkpt lat="46.12228" lon="6.23002">
        <ele>720.717</ele>
        <time>2020-05-20T15:41:13Z</time>
      </trkpt>
      <trkpt lat="46.12234" lon="6.22988">
        <ele>720.826</ele>
        <time>2020-05-20T15:41:14Z</time>
      </trkpt>
      <trkpt lat="46.1224" lon="6.22975">
        <ele>720.947</ele>
        <time>2020-05-20T15:41:15Z</time>
      </trkpt>
      <trkpt lat="46.12245" lon="6.22968">
        <ele>721.111</ele>
        <time>2020-05-20T15:41:16Z</time>
      </trkpt>
      <trkpt lat="46.12249" lon="6.22961">
        <ele>721.408</ele>
        <time>2020-05-20T15:41:17Z</time>
      </trkpt>
      <trkpt lat="46.12251" lon="6.22952">
        <ele>721.486</ele>
        <time>2020-05-20T15:41:18Z</time>
      </trkpt>
      <trkpt lat="46.12252" lon="6.22942">
        <ele>721.641</ele>
        <time>2020-05-20T15:41:19Z</time>
      </trkpt>
      <trkpt lat="46.12251" lon="6.2293">
        <ele>721.958</ele>
        <time>2020-05-20T15:41:20Z</time>
      </trkpt>
      <trkpt lat="46.12249" lon="6.22918">
        <ele>722.293</ele>
        <time>2020-05-20T15:41:21Z</time>
      </trkpt>
      <trkpt lat="46.12247" lon="6.22908">
        <ele>722.527</ele>
        <time>2020-05-20T15:41:22Z</time>
      </trkpt>
      <trkpt lat="46.12246" lon="6.22899">
        <ele>723.38</ele>
        <time>2020-05-20T15:41:23Z</time>
      </trkpt>
      <trkpt lat="46.12246" lon="6.22889">
        <ele>724.09</ele>
        <time>2020-05-20T15:41:24Z</time>
      </trkpt>
      <trkpt lat="46.12247" lon="6.22875">
        <ele>724.756</ele>
        <time>2020-05-20T15:41:25Z</time>
      </trkpt>
      <trkpt lat="46.12246" lon="6.22862">
        <ele>725.642</ele>
        <time>2020-05-20T15:41:26Z</time>
      </trkpt>
      <trkpt lat="46.12246" lon="6.22852">
        <ele>726.522</ele>
        <time>2020-05-20T15:41:27Z</time>
      </trkpt>
      <trkpt lat="46.12247" lon="6.22836">
        <ele>727.514</ele>
        <time>2020-05-20T15:41:28Z</time>
      </trkpt>
      <trkpt lat="46.12249" lon="6.22821">
        <ele>728.608</ele>
        <time>2020-05-20T15:41:29Z</time>
      </trkpt>
      <trkpt lat="46.1225" lon="6.22805">
        <ele>729.768</ele>
        <time>2020-05-20T15:41:30Z</time>
      </trkpt>
      <trkpt lat="46.12251" lon="6.22793">
        <ele>730.893</ele>
        <time>2020-05-20T15:41:31Z</time>
      </trkpt>
      <trkpt lat="46.12253" lon="6.22779">
        <ele>733.03</ele>
        <time>2020-05-20T15:41:33Z</time>
      </trkpt>
      <trkpt lat="46.12256" lon="6.22771">
        <ele>734.025</ele>
        <time>2020-05-20T15:41:34Z</time>
      </trkpt>
      <trkpt lat="46.12257" lon="6.22762">
        <ele>735.149</ele>
        <time>2020-05-20T15:41:35Z</time>
      </trkpt>
      <trkpt lat="46.12259" lon="6.22752">
        <ele>736.182</ele>
        <time>2020-05-20T15:41:36Z</time>
      </trkpt>
      <trkpt lat="46.12263" lon="6.22739">
        <ele>737.162</ele>
        <time>2020-05-20T15:41:37Z</time>
      </trkpt>
      <trkpt lat="46.12266" lon="6.22727">
        <ele>738.168</ele>
        <time>2020-05-20T15:41:38Z</time>
      </trkpt>
      <trkpt lat="46.1227" lon="6.22717">
        <ele>739.117</ele>
        <time>2020-05-20T15:41:39Z</time>
      </trkpt>
      <trkpt lat="46.12271" lon="6.22707">
        <ele>740.187</ele>
        <time>2020-05-20T15:41:40Z</time>
      </trkpt>
      <trkpt lat="46.12278" lon="6.22699">
        <ele>742.115</ele>
        <time>2020-05-20T15:41:42Z</time>
      </trkpt>
      <trkpt lat="46.12286" lon="6.22694">
        <ele>743.008</ele>
        <time>2020-05-20T15:41:43Z</time>
      </trkpt>
      <trkpt lat="46.12295" lon="6.22687">
        <ele>743.825</ele>
        <time>2020-05-20T15:41:44Z</time>
      </trkpt>
      <trkpt lat="46.12302" lon="6.2268">
        <ele>744.43</ele>
        <time>2020-05-20T15:41:45Z</time>
      </trkpt>
      <trkpt lat="46.1231" lon="6.22672">
        <ele>744.847</ele>
        <time>2020-05-20T15:41:46Z</time>
      </trkpt>
      <trkpt lat="46.12318" lon="6.22666">
        <ele>744.982</ele>
        <time>2020-05-20T15:41:47Z</time>
      </trkpt>
      <trkpt lat="46.12326" lon="6.22661">
        <ele>744.976</ele>
        <time>2020-05-20T15:41:48Z</time>
      </trkpt>
      <trkpt lat="46.12333" lon="6.22655">
        <ele>744.819</ele>
        <time>2020-05-20T15:41:49Z</time>
      </trkpt>
      <trkpt lat="46.12339" lon="6.22649">
        <ele>744.789</ele>
        <time>2020-05-20T15:41:50Z</time>
      </trkpt>
      <trkpt lat="46.12346" lon="6.22643">
        <ele>744.675</ele>
        <time>2020-05-20T15:41:51Z</time>
      </trkpt>
      <trkpt lat="46.1235" lon="6.22636">
        <ele>744.547</ele>
        <time>2020-05-20T15:41:52Z</time>
      </trkpt>
      <trkpt lat="46.12355" lon="6.22627">
        <ele>744.529</ele>
        <time>2020-05-20T15:41:53Z</time>
      </trkpt>
      <trkpt lat="46.1236" lon="6.22619">
        <ele>744.521</ele>
        <time>2020-05-20T15:41:54Z</time>
      </trkpt>
      <trkpt lat="46.12363" lon="6.22612">
        <ele>744.608</ele>
        <time>2020-05-20T15:41:56Z</time>
      </trkpt>
      <trkpt lat="46.12365" lon="6.22605">
        <ele>744.778</ele>
        <time>2020-05-20T15:41:58Z</time>
      </trkpt>
      <trkpt lat="46.12366" lon="6.22598">
        <ele>744.793</ele>
        <time>2020-05-20T15:42:00Z</time>
      </trkpt>
      <trkpt lat="46.12367" lon="6.22591">
        <ele>745.11</ele>
        <time>2020-05-20T15:42:04Z</time>
      </trkpt>
      <trkpt lat="46.1237" lon="6.22585">
        <ele>745.275</ele>
        <time>2020-05-20T15:42:07Z</time>
      </trkpt>
      <trkpt lat="46.12373" lon="6.2258">
        <ele>745.319</ele>
        <time>2020-05-20T15:42:10Z</time>
      </trkpt>
      <trkpt lat="46.12379" lon="6.22575">
        <ele>745.392</ele>
        <time>2020-05-20T15:42:14Z</time>
      </trkpt>
      <trkpt lat="46.12384" lon="6.22574">
        <ele>745.252</ele>
        <time>2020-05-20T15:42:16Z</time>
      </trkpt>
      <trkpt lat="46.12389" lon="6.2257">
        <ele>745.158</ele>
        <time>2020-05-20T15:42:17Z</time>
      </trkpt>
      <trkpt lat="46.12394" lon="6.22566">
        <ele>744.964</ele>
        <time>2020-05-20T15:42:19Z</time>
      </trkpt>
      <trkpt lat="46.12399" lon="6.22565">
        <ele>744.706</ele>
        <time>2020-05-20T15:42:21Z</time>
      </trkpt>
      <trkpt lat="46.12404" lon="6.22567">
        <ele>744.716</ele>
        <time>2020-05-20T15:42:22Z</time>
      </trkpt>
      <trkpt lat="46.12412" lon="6.22569">
        <ele>744.708</ele>
        <time>2020-05-20T15:42:23Z</time>
      </trkpt>
      <trkpt lat="46.12419" lon="6.22568">
        <ele>744.72</ele>
        <time>2020-05-20T15:42:24Z</time>
      </trkpt>
      <trkpt lat="46.12424" lon="6.22568">
        <ele>744.745</ele>
        <time>2020-05-20T15:42:25Z</time>
      </trkpt>
      <trkpt lat="46.1243" lon="6.22567">
        <ele>744.782</ele>
        <time>2020-05-20T15:42:26Z</time>
      </trkpt>
      <trkpt lat="46.12437" lon="6.22572">
        <ele>744.447</ele>
        <time>2020-05-20T15:42:28Z</time>
      </trkpt>
      <trkpt lat="46.12445" lon="6.22571">
        <ele>744.081</ele>
        <time>2020-05-20T15:42:30Z</time>
      </trkpt>
      <trkpt lat="46.12451" lon="6.2257">
        <ele>743.764</ele>
        <time>2020-05-20T15:42:31Z</time>
      </trkpt>
      <trkpt lat="46.12456" lon="6.22569">
        <ele>743.534</ele>
        <time>2020-05-20T15:42:32Z</time>
      </trkpt>
      <trkpt lat="46.12463" lon="6.22568">
        <ele>743.22</ele>
        <time>2020-05-20T15:42:34Z</time>
      </trkpt>
      <trkpt lat="46.12469" lon="6.22567">
        <ele>743.276</ele>
        <time>2020-05-20T15:42:36Z</time>
      </trkpt>
      <trkpt lat="46.12474" lon="6.22563">
        <ele>743.29</ele>
        <time>2020-05-20T15:42:38Z</time>
      </trkpt>
      <trkpt lat="46.1248" lon="6.22561">
        <ele>743.819</ele>
        <time>2020-05-20T15:42:42Z</time>
      </trkpt>
      <trkpt lat="46.12487" lon="6.22559">
        <ele>744.208</ele>
        <time>2020-05-20T15:42:45Z</time>
      </trkpt>
      <trkpt lat="46.12492" lon="6.2256">
        <ele>744.241</ele>
        <time>2020-05-20T15:42:47Z</time>
      </trkpt>
      <trkpt lat="46.12496" lon="6.2256">
        <ele>744.276</ele>
        <time>2020-05-20T15:42:48Z</time>
      </trkpt>
      <trkpt lat="46.12501" lon="6.22557">
        <ele>744.113</ele>
        <time>2020-05-20T15:42:50Z</time>
      </trkpt>
      <trkpt lat="46.12507" lon="6.22555">
        <ele>743.918</ele>
        <time>2020-05-20T15:42:52Z</time>
      </trkpt>
      <trkpt lat="46.12513" lon="6.22555">
        <ele>743.812</ele>
        <time>2020-05-20T15:42:54Z</time>
      </trkpt>
      <trkpt lat="46.12519" lon="6.22555">
        <ele>743.755</ele>
        <time>2020-05-20T15:42:57Z</time>
      </trkpt>
      <trkpt lat="46.12526" lon="6.22554">
        <ele>743.265</ele>
        <time>2020-05-20T15:43:01Z</time>
      </trkpt>
      <trkpt lat="46.12531" lon="6.22552">
        <ele>742.921</ele>
        <time>2020-05-20T15:43:10Z</time>
      </trkpt>
      <trkpt lat="46.12539" lon="6.22552">
        <ele>743.354</ele>
        <time>2020-05-20T15:43:19Z</time>
      </trkpt>
      <trkpt lat="46.12544" lon="6.22555">
        <ele>742.756</ele>
        <time>2020-05-20T15:43:33Z</time>
      </trkpt>
      <trkpt lat="46.12548" lon="6.22559">
        <ele>743.111</ele>
        <time>2020-05-20T15:44:16Z</time>
      </trkpt>
      <trkpt lat="46.12553" lon="6.22563">
        <ele>742.708</ele>
        <time>2020-05-20T15:44:20Z</time>
      </trkpt>
      <trkpt lat="46.12559" lon="6.22565">
        <ele>742.699</ele>
        <time>2020-05-20T15:44:22Z</time>
      </trkpt>
      <trkpt lat="46.12566" lon="6.22567">
        <ele>742.624</ele>
        <time>2020-05-20T15:44:25Z</time>
      </trkpt>
      <trkpt lat="46.12571" lon="6.22569">
        <ele>742.511</ele>
        <time>2020-05-20T15:44:27Z</time>
      </trkpt>
      <trkpt lat="46.12576" lon="6.22573">
        <ele>742.576</ele>
        <time>2020-05-20T15:44:29Z</time>
      </trkpt>
      <trkpt lat="46.12579" lon="6.22577">
        <ele>742.52</ele>
        <time>2020-05-20T15:44:30Z</time>
      </trkpt>
      <trkpt lat="46.12584" lon="6.22583">
        <ele>742.483</ele>
        <time>2020-05-20T15:44:32Z</time>
      </trkpt>
      <trkpt lat="46.1259" lon="6.22586">
        <ele>742.393</ele>
        <time>2020-05-20T15:44:35Z</time>
      </trkpt>
      <trkpt lat="46.12594" lon="6.22589">
        <ele>742.399</ele>
        <time>2020-05-20T15:44:37Z</time>
      </trkpt>
      <trkpt lat="46.12599" lon="6.2259">
        <ele>742.426</ele>
        <time>2020-05-20T15:44:39Z</time>
      </trkpt>
      <trkpt lat="46.12605" lon="6.22592">
        <ele>742.547</ele>
        <time>2020-05-20T15:44:41Z</time>
      </trkpt>
      <trkpt lat="46.12611" lon="6.22595">
        <ele>742.611</ele>
        <time>2020-05-20T15:44:43Z</time>
      </trkpt>
      <trkpt lat="46.12618" lon="6.22596">
        <ele>742.608</ele>
        <time>2020-05-20T15:44:45Z</time>
      </trkpt>
      <trkpt lat="46.12623" lon="6.22598">
        <ele>742.516</ele>
        <time>2020-05-20T15:44:47Z</time>
      </trkpt>
      <trkpt lat="46.12629" lon="6.22599">
        <ele>742.491</ele>
        <time>2020-05-20T15:44:49Z</time>
      </trkpt>
      <trkpt lat="46.12638" lon="6.22598">
        <ele>742.428</ele>
        <time>2020-05-20T15:44:51Z</time>
      </trkpt>
      <trkpt lat="46.12643" lon="6.22599">
        <ele>742.433</ele>
        <time>2020-05-20T15:44:52Z</time>
      </trkpt>
      <trkpt lat="46.12649" lon="6.22602">
        <ele>742.417</ele>
        <time>2020-05-20T15:44:53Z</time>
      </trkpt>
      <trkpt lat="46.12653" lon="6.22606">
        <ele>742.36</ele>
        <time>2020-05-20T15:44:55Z</time>
      </trkpt>
      <trkpt lat="46.12664" lon="6.22607">
        <ele>741.86</ele>
        <time>2020-05-20T15:44:58Z</time>
      </trkpt>
      <trkpt lat="46.12669" lon="6.22608">
        <ele>741.716</ele>
        <time>2020-05-20T15:44:59Z</time>
      </trkpt>
      <trkpt lat="46.12676" lon="6.22606">
        <ele>741.713</ele>
        <time>2020-05-20T15:45:01Z</time>
      </trkpt>
      <trkpt lat="46.12681" lon="6.22605">
        <ele>741.743</ele>
        <time>2020-05-20T15:45:02Z</time>
      </trkpt>
      <trkpt lat="46.12689" lon="6.22607">
        <ele>741.707</ele>
        <time>2020-05-20T15:45:03Z</time>
      </trkpt>
      <trkpt lat="46.12696" lon="6.22607">
        <ele>741.708</ele>
        <time>2020-05-20T15:45:04Z</time>
      </trkpt>
      <trkpt lat="46.12706" lon="6.2261">
        <ele>741.675</ele>
        <time>2020-05-20T15:45:06Z</time>
      </trkpt>
      <trkpt lat="46.12711" lon="6.22612">
        <ele>741.61</ele>
        <time>2020-05-20T15:45:07Z</time>
      </trkpt>
      <trkpt lat="46.12718" lon="6.22614">
        <ele>741.687</ele>
        <time>2020-05-20T15:45:08Z</time>
      </trkpt>
      <trkpt lat="46.12722" lon="6.22616">
        <ele>741.842</ele>
        <time>2020-05-20T15:45:09Z</time>
      </trkpt>
      <trkpt lat="46.12732" lon="6.22616">
        <ele>742.256</ele>
        <time>2020-05-20T15:45:11Z</time>
      </trkpt>
      <trkpt lat="46.12741" lon="6.22619">
        <ele>742.799</ele>
        <time>2020-05-20T15:45:13Z</time>
      </trkpt>
      <trkpt lat="46.12752" lon="6.22621">
        <ele>743.299</ele>
        <time>2020-05-20T15:45:15Z</time>
      </trkpt>
      <trkpt lat="46.12758" lon="6.22622">
        <ele>743.785</ele>
        <time>2020-05-20T15:45:17Z</time>
      </trkpt>
      <trkpt lat="46.12766" lon="6.22623">
        <ele>743.622</ele>
        <time>2020-05-20T15:45:19Z</time>
      </trkpt>
      <trkpt lat="46.12772" lon="6.22621">
        <ele>742.962</ele>
        <time>2020-05-20T15:45:21Z</time>
      </trkpt>
      <trkpt lat="46.12777" lon="6.2262">
        <ele>742.208</ele>
        <time>2020-05-20T15:45:23Z</time>
      </trkpt>
      <trkpt lat="46.12784" lon="6.22619">
        <ele>741.708</ele>
        <time>2020-05-20T15:45:25Z</time>
      </trkpt>
      <trkpt lat="46.1279" lon="6.22618">
        <ele>741.436</ele>
        <time>2020-05-20T15:45:27Z</time>
      </trkpt>
      <trkpt lat="46.12794" lon="6.22616">
        <ele>741.271</ele>
        <time>2020-05-20T15:45:28Z</time>
      </trkpt>
      <trkpt lat="46.12798" lon="6.22615">
        <ele>741.198</ele>
        <time>2020-05-20T15:45:29Z</time>
      </trkpt>
      <trkpt lat="46.12801" lon="6.2261">
        <ele>740.883</ele>
        <time>2020-05-20T15:45:31Z</time>
      </trkpt>
      <trkpt lat="46.12808" lon="6.22607">
        <ele>740.597</ele>
        <time>2020-05-20T15:45:33Z</time>
      </trkpt>
      <trkpt lat="46.12813" lon="6.22603">
        <ele>740.38</ele>
        <time>2020-05-20T15:45:34Z</time>
      </trkpt>
      <trkpt lat="46.12819" lon="6.22601">
        <ele>740.18</ele>
        <time>2020-05-20T15:45:35Z</time>
      </trkpt>
      <trkpt lat="46.12824" lon="6.22597">
        <ele>740.196</ele>
        <time>2020-05-20T15:45:36Z</time>
      </trkpt>
      <trkpt lat="46.1283" lon="6.22595">
        <ele>740.156</ele>
        <time>2020-05-20T15:45:37Z</time>
      </trkpt>
      <trkpt lat="46.12838" lon="6.22592">
        <ele>740.459</ele>
        <time>2020-05-20T15:45:39Z</time>
      </trkpt>
      <trkpt lat="46.12846" lon="6.22589">
        <ele>740.414</ele>
        <time>2020-05-20T15:45:41Z</time>
      </trkpt>
      <trkpt lat="46.12851" lon="6.22587">
        <ele>740.408</ele>
        <time>2020-05-20T15:45:42Z</time>
      </trkpt>
      <trkpt lat="46.12859" lon="6.22584">
        <ele>740.119</ele>
        <time>2020-05-20T15:45:44Z</time>
      </trkpt>
      <trkpt lat="46.12865" lon="6.22579">
        <ele>740.054</ele>
        <time>2020-05-20T15:45:45Z</time>
      </trkpt>
      <trkpt lat="46.12872" lon="6.22573">
        <ele>739.921</ele>
        <time>2020-05-20T15:45:46Z</time>
      </trkpt>
      <trkpt lat="46.12877" lon="6.22571">
        <ele>739.726</ele>
        <time>2020-05-20T15:45:47Z</time>
      </trkpt>
      <trkpt lat="46.12883" lon="6.22568">
        <ele>739.58</ele>
        <time>2020-05-20T15:45:48Z</time>
      </trkpt>
      <trkpt lat="46.12894" lon="6.22565">
        <ele>739.393</ele>
        <time>2020-05-20T15:45:50Z</time>
      </trkpt>
      <trkpt lat="46.12899" lon="6.22564">
        <ele>739.253</ele>
        <time>2020-05-20T15:45:51Z</time>
      </trkpt>
      <trkpt lat="46.12906" lon="6.22564">
        <ele>739.159</ele>
        <time>2020-05-20T15:45:52Z</time>
      </trkpt>
      <trkpt lat="46.12912" lon="6.22563">
        <ele>738.978</ele>
        <time>2020-05-20T15:45:53Z</time>
      </trkpt>
      <trkpt lat="46.12918" lon="6.22563">
        <ele>738.733</ele>
        <time>2020-05-20T15:45:54Z</time>
      </trkpt>
      <trkpt lat="46.12924" lon="6.22562">
        <ele>738.526</ele>
        <time>2020-05-20T15:45:55Z</time>
      </trkpt>
      <trkpt lat="46.12929" lon="6.22564">
        <ele>738.308</ele>
        <time>2020-05-20T15:45:56Z</time>
      </trkpt>
      <trkpt lat="46.12936" lon="6.22563">
        <ele>738.131</ele>
        <time>2020-05-20T15:45:57Z</time>
      </trkpt>
      <trkpt lat="46.12943" lon="6.22561">
        <ele>737.976</ele>
        <time>2020-05-20T15:45:58Z</time>
      </trkpt>
      <trkpt lat="46.1295" lon="6.22561">
        <ele>737.823</ele>
        <time>2020-05-20T15:45:59Z</time>
      </trkpt>
      <trkpt lat="46.12956" lon="6.2256">
        <ele>737.788</ele>
        <time>2020-05-20T15:46:00Z</time>
      </trkpt>
      <trkpt lat="46.12963" lon="6.22559">
        <ele>737.742</ele>
        <time>2020-05-20T15:46:01Z</time>
      </trkpt>
      <trkpt lat="46.12968" lon="6.22558">
        <ele>737.685</ele>
        <time>2020-05-20T15:46:02Z</time>
      </trkpt>
      <trkpt lat="46.12974" lon="6.22558">
        <ele>737.655</ele>
        <time>2020-05-20T15:46:03Z</time>
      </trkpt>
      <trkpt lat="46.12981" lon="6.22555">
        <ele>737.651</ele>
        <time>2020-05-20T15:46:04Z</time>
      </trkpt>
      <trkpt lat="46.12988" lon="6.22553">
        <ele>737.697</ele>
        <time>2020-05-20T15:46:05Z</time>
      </trkpt>
      <trkpt lat="46.12996" lon="6.22552">
        <ele>737.523</ele>
        <time>2020-05-20T15:46:06Z</time>
      </trkpt>
      <trkpt lat="46.13003" lon="6.2255">
        <ele>737.425</ele>
        <time>2020-05-20T15:46:07Z</time>
      </trkpt>
      <trkpt lat="46.13008" lon="6.22547">
        <ele>737.408</ele>
        <time>2020-05-20T15:46:08Z</time>
      </trkpt>
      <trkpt lat="46.13012" lon="6.22545">
        <ele>737.333</ele>
        <time>2020-05-20T15:46:09Z</time>
      </trkpt>
      <trkpt lat="46.13017" lon="6.22541">
        <ele>737.228</ele>
        <time>2020-05-20T15:46:10Z</time>
      </trkpt>
      <trkpt lat="46.13024" lon="6.22537">
        <ele>737.245</ele>
        <time>2020-05-20T15:46:12Z</time>
      </trkpt>
      <trkpt lat="46.13029" lon="6.2254">
        <ele>737.27</ele>
        <time>2020-05-20T15:46:14Z</time>
      </trkpt>
      <trkpt lat="46.13034" lon="6.22544">
        <ele>737.174</ele>
        <time>2020-05-20T15:46:16Z</time>
      </trkpt>
      <trkpt lat="46.13046" lon="6.22543">
        <ele>736.747</ele>
        <time>2020-05-20T15:46:23Z</time>
      </trkpt>
      <trkpt lat="46.1305" lon="6.22542">
        <ele>736.597</ele>
        <time>2020-05-20T15:46:26Z</time>
      </trkpt>
      <trkpt lat="46.13057" lon="6.22544">
        <ele>735.973</ele>
        <time>2020-05-20T15:46:29Z</time>
      </trkpt>
      <trkpt lat="46.13064" lon="6.22542">
        <ele>735.319</ele>
        <time>2020-05-20T15:46:31Z</time>
      </trkpt>
      <trkpt lat="46.13069" lon="6.22539">
        <ele>734.409</ele>
        <time>2020-05-20T15:46:34Z</time>
      </trkpt>
      <trkpt lat="46.13076" lon="6.22536">
        <ele>733.719</ele>
        <time>2020-05-20T15:46:36Z</time>
      </trkpt>
      <trkpt lat="46.1308" lon="6.22533">
        <ele>733.008</ele>
        <time>2020-05-20T15:46:38Z</time>
      </trkpt>
      <trkpt lat="46.13087" lon="6.22528">
        <ele>732.145</ele>
        <time>2020-05-20T15:46:40Z</time>
      </trkpt>
      <trkpt lat="46.13092" lon="6.22527">
        <ele>731.18</ele>
        <time>2020-05-20T15:46:42Z</time>
      </trkpt>
      <trkpt lat="46.13096" lon="6.22525">
        <ele>730.527</ele>
        <time>2020-05-20T15:46:43Z</time>
      </trkpt>
      <trkpt lat="46.13103" lon="6.22524">
        <ele>729.282</ele>
        <time>2020-05-20T15:46:45Z</time>
      </trkpt>
      <trkpt lat="46.13108" lon="6.22522">
        <ele>727.386</ele>
        <time>2020-05-20T15:46:48Z</time>
      </trkpt>
      <trkpt lat="46.13113" lon="6.22522">
        <ele>726.269</ele>
        <time>2020-05-20T15:46:50Z</time>
      </trkpt>
      <trkpt lat="46.13118" lon="6.22523">
        <ele>725.089</ele>
        <time>2020-05-20T15:46:52Z</time>
      </trkpt>
      <trkpt lat="46.13126" lon="6.22528">
        <ele>723.825</ele>
        <time>2020-05-20T15:46:54Z</time>
      </trkpt>
      <trkpt lat="46.13135" lon="6.22533">
        <ele>722.429</ele>
        <time>2020-05-20T15:46:56Z</time>
      </trkpt>
      <trkpt lat="46.1314" lon="6.22533">
        <ele>721.7</ele>
        <time>2020-05-20T15:46:57Z</time>
      </trkpt>
      <trkpt lat="46.13144" lon="6.22537">
        <ele>721.02</ele>
        <time>2020-05-20T15:46:58Z</time>
      </trkpt>
      <trkpt lat="46.13151" lon="6.22544">
        <ele>719.908</ele>
        <time>2020-05-20T15:47:00Z</time>
      </trkpt>
      <trkpt lat="46.13155" lon="6.22547">
        <ele>719.346</ele>
        <time>2020-05-20T15:47:01Z</time>
      </trkpt>
      <trkpt lat="46.13163" lon="6.22553">
        <ele>718.391</ele>
        <time>2020-05-20T15:47:03Z</time>
      </trkpt>
      <trkpt lat="46.13167" lon="6.22558">
        <ele>717.898</ele>
        <time>2020-05-20T15:47:04Z</time>
      </trkpt>
      <trkpt lat="46.13171" lon="6.22562">
        <ele>717.493</ele>
        <time>2020-05-20T15:47:05Z</time>
      </trkpt>
      <trkpt lat="46.13173" lon="6.22568">
        <ele>717.167</ele>
        <time>2020-05-20T15:47:06Z</time>
      </trkpt>
      <trkpt lat="46.13176" lon="6.22574">
        <ele>716.94</ele>
        <time>2020-05-20T15:47:07Z</time>
      </trkpt>
      <trkpt lat="46.13182" lon="6.22577">
        <ele>716.74</ele>
        <time>2020-05-20T15:47:08Z</time>
      </trkpt>
      <trkpt lat="46.13187" lon="6.2258">
        <ele>716.546</ele>
        <time>2020-05-20T15:47:09Z</time>
      </trkpt>
      <trkpt lat="46.13194" lon="6.22586">
        <ele>716.338</ele>
        <time>2020-05-20T15:47:11Z</time>
      </trkpt>
      <trkpt lat="46.13198" lon="6.22593">
        <ele>716.27</ele>
        <time>2020-05-20T15:47:12Z</time>
      </trkpt>
      <trkpt lat="46.13201" lon="6.22598">
        <ele>716.117</ele>
        <time>2020-05-20T15:47:13Z</time>
      </trkpt>
      <trkpt lat="46.13206" lon="6.22604">
        <ele>715.508</ele>
        <time>2020-05-20T15:47:15Z</time>
      </trkpt>
      <trkpt lat="46.13209" lon="6.2261">
        <ele>715.057</ele>
        <time>2020-05-20T15:47:16Z</time>
      </trkpt>
      <trkpt lat="46.13213" lon="6.22614">
        <ele>714.482</ele>
        <time>2020-05-20T15:47:17Z</time>
      </trkpt>
      <trkpt lat="46.13217" lon="6.22621">
        <ele>713.539</ele>
        <time>2020-05-20T15:47:19Z</time>
      </trkpt>
      <trkpt lat="46.13222" lon="6.22629">
        <ele>712.914</ele>
        <time>2020-05-20T15:47:21Z</time>
      </trkpt>
      <trkpt lat="46.13227" lon="6.22634">
        <ele>712.248</ele>
        <time>2020-05-20T15:47:23Z</time>
      </trkpt>
      <trkpt lat="46.13233" lon="6.2264">
        <ele>711.721</ele>
        <time>2020-05-20T15:47:25Z</time>
      </trkpt>
      <trkpt lat="46.13238" lon="6.22648">
        <ele>710.551</ele>
        <time>2020-05-20T15:47:27Z</time>
      </trkpt>
      <trkpt lat="46.13244" lon="6.22652">
        <ele>709.987</ele>
        <time>2020-05-20T15:47:28Z</time>
      </trkpt>
      <trkpt lat="46.13248" lon="6.22659">
        <ele>709.294</ele>
        <time>2020-05-20T15:47:30Z</time>
      </trkpt>
      <trkpt lat="46.13253" lon="6.22663">
        <ele>709.057</ele>
        <time>2020-05-20T15:47:31Z</time>
      </trkpt>
      <trkpt lat="46.13257" lon="6.22668">
        <ele>708.822</ele>
        <time>2020-05-20T15:47:32Z</time>
      </trkpt>
      <trkpt lat="46.13262" lon="6.22673">
        <ele>708.608</ele>
        <time>2020-05-20T15:47:33Z</time>
      </trkpt>
      <trkpt lat="46.13272" lon="6.2268">
        <ele>708.013</ele>
        <time>2020-05-20T15:47:35Z</time>
      </trkpt>
      <trkpt lat="46.13278" lon="6.22685">
        <ele>707.728</ele>
        <time>2020-05-20T15:47:36Z</time>
      </trkpt>
      <trkpt lat="46.13282" lon="6.22691">
        <ele>707.435</ele>
        <time>2020-05-20T15:47:37Z</time>
      </trkpt>
      <trkpt lat="46.13286" lon="6.22694">
        <ele>707.17</ele>
        <time>2020-05-20T15:47:38Z</time>
      </trkpt>
      <trkpt lat="46.1329" lon="6.22701">
        <ele>706.754</ele>
        <time>2020-05-20T15:47:39Z</time>
      </trkpt>
      <trkpt lat="46.13293" lon="6.22706">
        <ele>706.377</ele>
        <time>2020-05-20T15:47:40Z</time>
      </trkpt>
      <trkpt lat="46.13299" lon="6.22709">
        <ele>706.027</ele>
        <time>2020-05-20T15:47:41Z</time>
      </trkpt>
      <trkpt lat="46.13304" lon="6.22712">
        <ele>705.633</ele>
        <time>2020-05-20T15:47:42Z</time>
      </trkpt>
      <trkpt lat="46.13313" lon="6.22713">
        <ele>705.059</ele>
        <time>2020-05-20T15:47:44Z</time>
      </trkpt>
      <trkpt lat="46.13326" lon="6.22714">
        <ele>704.303</ele>
        <time>2020-05-20T15:47:46Z</time>
      </trkpt>
      <trkpt lat="46.13332" lon="6.22717">
        <ele>704.023</ele>
        <time>2020-05-20T15:47:47Z</time>
      </trkpt>
      <trkpt lat="46.13336" lon="6.22721">
        <ele>703.708</ele>
        <time>2020-05-20T15:47:48Z</time>
      </trkpt>
      <trkpt lat="46.13344" lon="6.22728">
        <ele>703.279</ele>
        <time>2020-05-20T15:47:50Z</time>
      </trkpt>
      <trkpt lat="46.13348" lon="6.22733">
        <ele>703.194</ele>
        <time>2020-05-20T15:47:51Z</time>
      </trkpt>
      <trkpt lat="46.13353" lon="6.22736">
        <ele>702.981</ele>
        <time>2020-05-20T15:47:52Z</time>
      </trkpt>
      <trkpt lat="46.1336" lon="6.2274">
        <ele>702.766</ele>
        <time>2020-05-20T15:47:53Z</time>
      </trkpt>
      <trkpt lat="46.13367" lon="6.22743">
        <ele>702.52</ele>
        <time>2020-05-20T15:47:54Z</time>
      </trkpt>
      <trkpt lat="46.13375" lon="6.22747">
        <ele>702.383</ele>
        <time>2020-05-20T15:47:55Z</time>
      </trkpt>
      <trkpt lat="46.13381" lon="6.2275">
        <ele>702.123</ele>
        <time>2020-05-20T15:47:56Z</time>
      </trkpt>
      <trkpt lat="46.13388" lon="6.22753">
        <ele>701.929</ele>
        <time>2020-05-20T15:47:57Z</time>
      </trkpt>
      <trkpt lat="46.13393" lon="6.22753">
        <ele>701.841</ele>
        <time>2020-05-20T15:47:58Z</time>
      </trkpt>
      <trkpt lat="46.134" lon="6.22757">
        <ele>701.781</ele>
        <time>2020-05-20T15:47:59Z</time>
      </trkpt>
      <trkpt lat="46.13408" lon="6.22763">
        <ele>701.509</ele>
        <time>2020-05-20T15:48:00Z</time>
      </trkpt>
      <trkpt lat="46.13415" lon="6.22768">
        <ele>701.208</ele>
        <time>2020-05-20T15:48:01Z</time>
      </trkpt>
      <trkpt lat="46.13421" lon="6.22776">
        <ele>701.018</ele>
        <time>2020-05-20T15:48:02Z</time>
      </trkpt>
      <trkpt lat="46.13426" lon="6.22782">
        <ele>700.893</ele>
        <time>2020-05-20T15:48:03Z</time>
      </trkpt>
      <trkpt lat="46.13431" lon="6.22787">
        <ele>700.58</ele>
        <time>2020-05-20T15:48:04Z</time>
      </trkpt>
      <trkpt lat="46.13439" lon="6.22798">
        <ele>699.955</ele>
        <time>2020-05-20T15:48:06Z</time>
      </trkpt>
      <trkpt lat="46.13446" lon="6.22801">
        <ele>699.669</ele>
        <time>2020-05-20T15:48:07Z</time>
      </trkpt>
      <trkpt lat="46.13452" lon="6.22804">
        <ele>699.232</ele>
        <time>2020-05-20T15:48:08Z</time>
      </trkpt>
      <trkpt lat="46.13456" lon="6.22807">
        <ele>698.812</ele>
        <time>2020-05-20T15:48:09Z</time>
      </trkpt>
      <trkpt lat="46.13461" lon="6.22809">
        <ele>698.438</ele>
        <time>2020-05-20T15:48:10Z</time>
      </trkpt>
      <trkpt lat="46.13466" lon="6.22812">
        <ele>698.052</ele>
        <time>2020-05-20T15:48:11Z</time>
      </trkpt>
      <trkpt lat="46.13471" lon="6.22817">
        <ele>697.553</ele>
        <time>2020-05-20T15:48:12Z</time>
      </trkpt>
      <trkpt lat="46.13476" lon="6.22821">
        <ele>697.108</ele>
        <time>2020-05-20T15:48:13Z</time>
      </trkpt>
      <trkpt lat="46.1348" lon="6.22828">
        <ele>696.208</ele>
        <time>2020-05-20T15:48:15Z</time>
      </trkpt>
      <trkpt lat="46.13487" lon="6.22832">
        <ele>695.429</ele>
        <time>2020-05-20T15:48:17Z</time>
      </trkpt>
      <trkpt lat="46.13493" lon="6.22835">
        <ele>694.694</ele>
        <time>2020-05-20T15:48:19Z</time>
      </trkpt>
      <trkpt lat="46.13499" lon="6.22838">
        <ele>694.261</ele>
        <time>2020-05-20T15:48:20Z</time>
      </trkpt>
      <trkpt lat="46.13508" lon="6.2284">
        <ele>693.346</ele>
        <time>2020-05-20T15:48:22Z</time>
      </trkpt>
      <trkpt lat="46.13513" lon="6.22842">
        <ele>692.82</ele>
        <time>2020-05-20T15:48:23Z</time>
      </trkpt>
      <trkpt lat="46.13517" lon="6.22846">
        <ele>692.263</ele>
        <time>2020-05-20T15:48:24Z</time>
      </trkpt>
      <trkpt lat="46.13522" lon="6.22848">
        <ele>691.883</ele>
        <time>2020-05-20T15:48:25Z</time>
      </trkpt>
      <trkpt lat="46.13525" lon="6.22852">
        <ele>691.469</ele>
        <time>2020-05-20T15:48:26Z</time>
      </trkpt>
      <trkpt lat="46.13535" lon="6.22861">
        <ele>690.723</ele>
        <time>2020-05-20T15:48:28Z</time>
      </trkpt>
      <trkpt lat="46.1354" lon="6.22864">
        <ele>690.383</ele>
        <time>2020-05-20T15:48:29Z</time>
      </trkpt>
      <trkpt lat="46.13544" lon="6.22867">
        <ele>689.911</ele>
        <time>2020-05-20T15:48:30Z</time>
      </trkpt>
      <trkpt lat="46.13551" lon="6.22872">
        <ele>689.108</ele>
        <time>2020-05-20T15:48:32Z</time>
      </trkpt>
      <trkpt lat="46.13557" lon="6.22878">
        <ele>688.476</ele>
        <time>2020-05-20T15:48:34Z</time>
      </trkpt>
      <trkpt lat="46.13564" lon="6.22884">
        <ele>687.741</ele>
        <time>2020-05-20T15:48:36Z</time>
      </trkpt>
      <trkpt lat="46.13572" lon="6.22892">
        <ele>686.938</ele>
        <time>2020-05-20T15:48:38Z</time>
      </trkpt>
      <trkpt lat="46.13578" lon="6.22899">
        <ele>686.193</ele>
        <time>2020-05-20T15:48:40Z</time>
      </trkpt>
      <trkpt lat="46.13581" lon="6.22906">
        <ele>685.797</ele>
        <time>2020-05-20T15:48:41Z</time>
      </trkpt>
      <trkpt lat="46.13586" lon="6.22912">
        <ele>685.08</ele>
        <time>2020-05-20T15:48:43Z</time>
      </trkpt>
      <trkpt lat="46.13591" lon="6.22925">
        <ele>684.53</ele>
        <time>2020-05-20T15:48:45Z</time>
      </trkpt>
      <trkpt lat="46.13595" lon="6.22931">
        <ele>684.116</ele>
        <time>2020-05-20T15:48:47Z</time>
      </trkpt>
      <trkpt lat="46.13599" lon="6.22938">
        <ele>683.932</ele>
        <time>2020-05-20T15:48:48Z</time>
      </trkpt>
      <trkpt lat="46.13604" lon="6.22944">
        <ele>683.492</ele>
        <time>2020-05-20T15:48:50Z</time>
      </trkpt>
      <trkpt lat="46.13607" lon="6.22949">
        <ele>683.111</ele>
        <time>2020-05-20T15:48:51Z</time>
      </trkpt>
      <trkpt lat="46.13613" lon="6.22953">
        <ele>682.408</ele>
        <time>2020-05-20T15:48:53Z</time>
      </trkpt>
      <trkpt lat="46.1362" lon="6.22961">
        <ele>681.647</ele>
        <time>2020-05-20T15:48:55Z</time>
      </trkpt>
      <trkpt lat="46.13624" lon="6.22966">
        <ele>680.742</ele>
        <time>2020-05-20T15:48:57Z</time>
      </trkpt>
      <trkpt lat="46.1363" lon="6.22972">
        <ele>679.839</ele>
        <time>2020-05-20T15:48:59Z</time>
      </trkpt>
      <trkpt lat="46.13635" lon="6.22975">
        <ele>679.184</ele>
        <time>2020-05-20T15:49:01Z</time>
      </trkpt>
      <trkpt lat="46.13641" lon="6.22979">
        <ele>678.398</ele>
        <time>2020-05-20T15:49:03Z</time>
      </trkpt>
      <trkpt lat="46.13648" lon="6.22983">
        <ele>677.411</ele>
        <time>2020-05-20T15:49:05Z</time>
      </trkpt>
      <trkpt lat="46.13656" lon="6.22988">
        <ele>676.651</ele>
        <time>2020-05-20T15:49:07Z</time>
      </trkpt>
      <trkpt lat="46.13661" lon="6.22991">
        <ele>676.257</ele>
        <time>2020-05-20T15:49:08Z</time>
      </trkpt>
      <trkpt lat="46.13667" lon="6.22994">
        <ele>675.514</ele>
        <time>2020-05-20T15:49:10Z</time>
      </trkpt>
      <trkpt lat="46.13672" lon="6.22998">
        <ele>674.754</ele>
        <time>2020-05-20T15:49:12Z</time>
      </trkpt>
      <trkpt lat="46.13678" lon="6.23001">
        <ele>673.609</ele>
        <time>2020-05-20T15:49:15Z</time>
      </trkpt>
      <trkpt lat="46.13684" lon="6.23003">
        <ele>672.808</ele>
        <time>2020-05-20T15:49:17Z</time>
      </trkpt>
      <trkpt lat="46.1369" lon="6.23004">
        <ele>671.965</ele>
        <time>2020-05-20T15:49:19Z</time>
      </trkpt>
      <trkpt lat="46.13695" lon="6.23004">
        <ele>671.06</ele>
        <time>2020-05-20T15:49:21Z</time>
      </trkpt>
      <trkpt lat="46.137" lon="6.23005">
        <ele>670.237</ele>
        <time>2020-05-20T15:49:23Z</time>
      </trkpt>
      <trkpt lat="46.13706" lon="6.23008">
        <ele>669.542</ele>
        <time>2020-05-20T15:49:25Z</time>
      </trkpt>
      <trkpt lat="46.13711" lon="6.2301">
        <ele>669.236</ele>
        <time>2020-05-20T15:49:26Z</time>
      </trkpt>
      <trkpt lat="46.13717" lon="6.23009">
        <ele>668.789</ele>
        <time>2020-05-20T15:49:28Z</time>
      </trkpt>
      <trkpt lat="46.13723" lon="6.23007">
        <ele>668.019</ele>
        <time>2020-05-20T15:49:31Z</time>
      </trkpt>
      <trkpt lat="46.13728" lon="6.23004">
        <ele>667.525</ele>
        <time>2020-05-20T15:49:33Z</time>
      </trkpt>
      <trkpt lat="46.13732" lon="6.23001">
        <ele>667.264</ele>
        <time>2020-05-20T15:49:34Z</time>
      </trkpt>
      <trkpt lat="46.13737" lon="6.22998">
        <ele>666.506</ele>
        <time>2020-05-20T15:49:36Z</time>
      </trkpt>
      <trkpt lat="46.13743" lon="6.22997">
        <ele>664.716</ele>
        <time>2020-05-20T15:49:40Z</time>
      </trkpt>
      <trkpt lat="46.1375" lon="6.22999">
        <ele>663.708</ele>
        <time>2020-05-20T15:49:43Z</time>
      </trkpt>
      <trkpt lat="46.13755" lon="6.23004">
        <ele>663.15</ele>
        <time>2020-05-20T15:49:45Z</time>
      </trkpt>
      <trkpt lat="46.13759" lon="6.2301">
        <ele>662.465</ele>
        <time>2020-05-20T15:49:47Z</time>
      </trkpt>
      <trkpt lat="46.13764" lon="6.23016">
        <ele>661.962</ele>
        <time>2020-05-20T15:49:49Z</time>
      </trkpt>
      <trkpt lat="46.13768" lon="6.23018">
        <ele>661.897</ele>
        <time>2020-05-20T15:49:50Z</time>
      </trkpt>
      <trkpt lat="46.13774" lon="6.23019">
        <ele>661.811</ele>
        <time>2020-05-20T15:49:51Z</time>
      </trkpt>
      <trkpt lat="46.13784" lon="6.2302">
        <ele>661.814</ele>
        <time>2020-05-20T15:49:52Z</time>
      </trkpt>
      <trkpt lat="46.1379" lon="6.23023">
        <ele>661.964</ele>
        <time>2020-05-20T15:49:53Z</time>
      </trkpt>
      <trkpt lat="46.13801" lon="6.23028">
        <ele>662.28</ele>
        <time>2020-05-20T15:49:54Z</time>
      </trkpt>
      <trkpt lat="46.13813" lon="6.23035">
        <ele>662.525</ele>
        <time>2020-05-20T15:49:55Z</time>
      </trkpt>
      <trkpt lat="46.13826" lon="6.23044">
        <ele>662.926</ele>
        <time>2020-05-20T15:49:56Z</time>
      </trkpt>
      <trkpt lat="46.13841" lon="6.23054">
        <ele>663.508</ele>
        <time>2020-05-20T15:49:57Z</time>
      </trkpt>
      <trkpt lat="46.13854" lon="6.23061">
        <ele>663.908</ele>
        <time>2020-05-20T15:49:58Z</time>
      </trkpt>
      <trkpt lat="46.13865" lon="6.23068">
        <ele>663.926</ele>
        <time>2020-05-20T15:49:59Z</time>
      </trkpt>
      <trkpt lat="46.13876" lon="6.23074">
        <ele>663.911</ele>
        <time>2020-05-20T15:50:00Z</time>
      </trkpt>
      <trkpt lat="46.13886" lon="6.23079">
        <ele>663.628</ele>
        <time>2020-05-20T15:50:01Z</time>
      </trkpt>
      <trkpt lat="46.13896" lon="6.23085">
        <ele>662.933</ele>
        <time>2020-05-20T15:50:02Z</time>
      </trkpt>
      <trkpt lat="46.13903" lon="6.23089">
        <ele>662.347</ele>
        <time>2020-05-20T15:50:03Z</time>
      </trkpt>
      <trkpt lat="46.13913" lon="6.23097">
        <ele>661.95</ele>
        <time>2020-05-20T15:50:04Z</time>
      </trkpt>
      <trkpt lat="46.13921" lon="6.23102">
        <ele>661.47</ele>
        <time>2020-05-20T15:50:05Z</time>
      </trkpt>
      <trkpt lat="46.1393" lon="6.23107">
        <ele>660.936</ele>
        <time>2020-05-20T15:50:06Z</time>
      </trkpt>
      <trkpt lat="46.13937" lon="6.23109">
        <ele>660.748</ele>
        <time>2020-05-20T15:50:07Z</time>
      </trkpt>
      <trkpt lat="46.13946" lon="6.23114">
        <ele>660.461</ele>
        <time>2020-05-20T15:50:08Z</time>
      </trkpt>
      <trkpt lat="46.13955" lon="6.23119">
        <ele>660.217</ele>
        <time>2020-05-20T15:50:09Z</time>
      </trkpt>
      <trkpt lat="46.13965" lon="6.23124">
        <ele>660.008</ele>
        <time>2020-05-20T15:50:10Z</time>
      </trkpt>
      <trkpt lat="46.13972" lon="6.2313">
        <ele>660.088</ele>
        <time>2020-05-20T15:50:11Z</time>
      </trkpt>
      <trkpt lat="46.13982" lon="6.23137">
        <ele>659.613</ele>
        <time>2020-05-20T15:50:12Z</time>
      </trkpt>
      <trkpt lat="46.13992" lon="6.23148">
        <ele>659.27</ele>
        <time>2020-05-20T15:50:13Z</time>
      </trkpt>
      <trkpt lat="46.14002" lon="6.23159">
        <ele>658.735</ele>
        <time>2020-05-20T15:50:14Z</time>
      </trkpt>
      <trkpt lat="46.14011" lon="6.23168">
        <ele>658.599</ele>
        <time>2020-05-20T15:50:15Z</time>
      </trkpt>
      <trkpt lat="46.14018" lon="6.23177">
        <ele>658.232</ele>
        <time>2020-05-20T15:50:16Z</time>
      </trkpt>
      <trkpt lat="46.14025" lon="6.23188">
        <ele>658.022</ele>
        <time>2020-05-20T15:50:17Z</time>
      </trkpt>
      <trkpt lat="46.1403" lon="6.232">
        <ele>657.688</ele>
        <time>2020-05-20T15:50:18Z</time>
      </trkpt>
      <trkpt lat="46.14034" lon="6.2321">
        <ele>657.598</ele>
        <time>2020-05-20T15:50:19Z</time>
      </trkpt>
      <trkpt lat="46.14041" lon="6.23218">
        <ele>657.015</ele>
        <time>2020-05-20T15:50:20Z</time>
      </trkpt>
      <trkpt lat="46.14049" lon="6.23226">
        <ele>656.526</ele>
        <time>2020-05-20T15:50:21Z</time>
      </trkpt>
      <trkpt lat="46.14058" lon="6.2323">
        <ele>655.908</ele>
        <time>2020-05-20T15:50:22Z</time>
      </trkpt>
      <trkpt lat="46.14066" lon="6.23236">
        <ele>655.513</ele>
        <time>2020-05-20T15:50:23Z</time>
      </trkpt>
      <trkpt lat="46.14075" lon="6.2324">
        <ele>654.968</ele>
        <time>2020-05-20T15:50:24Z</time>
      </trkpt>
      <trkpt lat="46.14083" lon="6.23245">
        <ele>654.425</ele>
        <time>2020-05-20T15:50:25Z</time>
      </trkpt>
      <trkpt lat="46.14091" lon="6.23249">
        <ele>654.08</ele>
        <time>2020-05-20T15:50:26Z</time>
      </trkpt>
      <trkpt lat="46.14098" lon="6.23255">
        <ele>653.764</ele>
        <time>2020-05-20T15:50:27Z</time>
      </trkpt>
      <trkpt lat="46.14105" lon="6.2326">
        <ele>653.317</ele>
        <time>2020-05-20T15:50:28Z</time>
      </trkpt>
      <trkpt lat="46.14112" lon="6.23265">
        <ele>653.027</ele>
        <time>2020-05-20T15:50:29Z</time>
      </trkpt>
      <trkpt lat="46.14117" lon="6.23269">
        <ele>652.623</ele>
        <time>2020-05-20T15:50:30Z</time>
      </trkpt>
      <trkpt lat="46.14123" lon="6.23273">
        <ele>652.294</ele>
        <time>2020-05-20T15:50:31Z</time>
      </trkpt>
      <trkpt lat="46.14128" lon="6.23277">
        <ele>651.957</ele>
        <time>2020-05-20T15:50:32Z</time>
      </trkpt>
      <trkpt lat="46.14133" lon="6.23279">
        <ele>651.622</ele>
        <time>2020-05-20T15:50:33Z</time>
      </trkpt>
      <trkpt lat="46.14138" lon="6.23281">
        <ele>651.608</ele>
        <time>2020-05-20T15:50:34Z</time>
      </trkpt>
      <trkpt lat="46.14142" lon="6.23284">
        <ele>651.383</ele>
        <time>2020-05-20T15:50:35Z</time>
      </trkpt>
      <trkpt lat="46.14147" lon="6.23287">
        <ele>651.058</ele>
        <time>2020-05-20T15:50:36Z</time>
      </trkpt>
      <trkpt lat="46.14151" lon="6.2329">
        <ele>650.815</ele>
        <time>2020-05-20T15:50:37Z</time>
      </trkpt>
      <trkpt lat="46.14156" lon="6.23293">
        <ele>650.77</ele>
        <time>2020-05-20T15:50:38Z</time>
      </trkpt>
      <trkpt lat="46.14161" lon="6.23297">
        <ele>650.724</ele>
        <time>2020-05-20T15:50:39Z</time>
      </trkpt>
      <trkpt lat="46.14168" lon="6.233">
        <ele>650.767</ele>
        <time>2020-05-20T15:50:40Z</time>
      </trkpt>
      <trkpt lat="46.14176" lon="6.23304">
        <ele>650.637</ele>
        <time>2020-05-20T15:50:41Z</time>
      </trkpt>
      <trkpt lat="46.14183" lon="6.23306">
        <ele>650.533</ele>
        <time>2020-05-20T15:50:42Z</time>
      </trkpt>
      <trkpt lat="46.14191" lon="6.23308">
        <ele>650.219</ele>
        <time>2020-05-20T15:50:43Z</time>
      </trkpt>
      <trkpt lat="46.14198" lon="6.23309">
        <ele>649.609</ele>
        <time>2020-05-20T15:50:44Z</time>
      </trkpt>
      <trkpt lat="46.14204" lon="6.2331">
        <ele>649.219</ele>
        <time>2020-05-20T15:50:45Z</time>
      </trkpt>
      <trkpt lat="46.14211" lon="6.23308">
        <ele>648.708</ele>
        <time>2020-05-20T15:50:46Z</time>
      </trkpt>
      <trkpt lat="46.14219" lon="6.23307">
        <ele>648.165</ele>
        <time>2020-05-20T15:50:47Z</time>
      </trkpt>
      <trkpt lat="46.14228" lon="6.23307">
        <ele>647.56</ele>
        <time>2020-05-20T15:50:48Z</time>
      </trkpt>
      <trkpt lat="46.14241" lon="6.23307">
        <ele>647.277</ele>
        <time>2020-05-20T15:50:49Z</time>
      </trkpt>
      <trkpt lat="46.14252" lon="6.23307">
        <ele>646.772</ele>
        <time>2020-05-20T15:50:50Z</time>
      </trkpt>
      <trkpt lat="46.14263" lon="6.23307">
        <ele>646.356</ele>
        <time>2020-05-20T15:50:51Z</time>
      </trkpt>
      <trkpt lat="46.14273" lon="6.23308">
        <ele>646.199</ele>
        <time>2020-05-20T15:50:52Z</time>
      </trkpt>
      <trkpt lat="46.14284" lon="6.23309">
        <ele>645.829</ele>
        <time>2020-05-20T15:50:53Z</time>
      </trkpt>
      <trkpt lat="46.14294" lon="6.23311">
        <ele>645.445</ele>
        <time>2020-05-20T15:50:54Z</time>
      </trkpt>
      <trkpt lat="46.14304" lon="6.23313">
        <ele>644.996</ele>
        <time>2020-05-20T15:50:55Z</time>
      </trkpt>
      <trkpt lat="46.14315" lon="6.23316">
        <ele>644.231</ele>
        <time>2020-05-20T15:50:56Z</time>
      </trkpt>
      <trkpt lat="46.14327" lon="6.23319">
        <ele>643.424</ele>
        <time>2020-05-20T15:50:57Z</time>
      </trkpt>
      <trkpt lat="46.14338" lon="6.23323">
        <ele>642.808</ele>
        <time>2020-05-20T15:50:58Z</time>
      </trkpt>
      <trkpt lat="46.1435" lon="6.23328">
        <ele>642.293</ele>
        <time>2020-05-20T15:50:59Z</time>
      </trkpt>
      <trkpt lat="46.14364" lon="6.23334">
        <ele>641.548</ele>
        <time>2020-05-20T15:51:00Z</time>
      </trkpt>
      <trkpt lat="46.14379" lon="6.23339">
        <ele>641.025</ele>
        <time>2020-05-20T15:51:01Z</time>
      </trkpt>
      <trkpt lat="46.14392" lon="6.23344">
        <ele>640.83</ele>
        <time>2020-05-20T15:51:02Z</time>
      </trkpt>
      <trkpt lat="46.14403" lon="6.23348">
        <ele>640.754</ele>
        <time>2020-05-20T15:51:03Z</time>
      </trkpt>
      <trkpt lat="46.14413" lon="6.23352">
        <ele>640.497</ele>
        <time>2020-05-20T15:51:04Z</time>
      </trkpt>
      <trkpt lat="46.14421" lon="6.23355">
        <ele>640.017</ele>
        <time>2020-05-20T15:51:05Z</time>
      </trkpt>
      <trkpt lat="46.14428" lon="6.23358">
        <ele>639.613</ele>
        <time>2020-05-20T15:51:06Z</time>
      </trkpt>
      <trkpt lat="46.14433" lon="6.23361">
        <ele>638.869</ele>
        <time>2020-05-20T15:51:07Z</time>
      </trkpt>
      <trkpt lat="46.14437" lon="6.23374">
        <ele>637.004</ele>
        <time>2020-05-20T15:51:09Z</time>
      </trkpt>
      <trkpt lat="46.14437" lon="6.23385">
        <ele>636.424</ele>
        <time>2020-05-20T15:51:10Z</time>
      </trkpt>
      <trkpt lat="46.14435" lon="6.23401">
        <ele>636.108</ele>
        <time>2020-05-20T15:51:11Z</time>
      </trkpt>
      <trkpt lat="46.14434" lon="6.23418">
        <ele>636.11</ele>
        <time>2020-05-20T15:51:12Z</time>
      </trkpt>
      <trkpt lat="46.14433" lon="6.23436">
        <ele>635.945</ele>
        <time>2020-05-20T15:51:13Z</time>
      </trkpt>
      <trkpt lat="46.14432" lon="6.23452">
        <ele>635.882</ele>
        <time>2020-05-20T15:51:14Z</time>
      </trkpt>
      <trkpt lat="46.1443" lon="6.23466">
        <ele>635.737</ele>
        <time>2020-05-20T15:51:15Z</time>
      </trkpt>
      <trkpt lat="46.14426" lon="6.2348">
        <ele>635.491</ele>
        <time>2020-05-20T15:51:16Z</time>
      </trkpt>
      <trkpt lat="46.14419" lon="6.23495">
        <ele>634.754</ele>
        <time>2020-05-20T15:51:17Z</time>
      </trkpt>
      <trkpt lat="46.14412" lon="6.23509">
        <ele>633.934</ele>
        <time>2020-05-20T15:51:18Z</time>
      </trkpt>
      <trkpt lat="46.14404" lon="6.23524">
        <ele>633.07</ele>
        <time>2020-05-20T15:51:19Z</time>
      </trkpt>
      <trkpt lat="46.14399" lon="6.2354">
        <ele>631.879</ele>
        <time>2020-05-20T15:51:20Z</time>
      </trkpt>
      <trkpt lat="46.14395" lon="6.23557">
        <ele>630.605</ele>
        <time>2020-05-20T15:51:21Z</time>
      </trkpt>
      <trkpt lat="46.14393" lon="6.23574">
        <ele>629.425</ele>
        <time>2020-05-20T15:51:22Z</time>
      </trkpt>
      <trkpt lat="46.14393" lon="6.23593">
        <ele>628.308</ele>
        <time>2020-05-20T15:51:23Z</time>
      </trkpt>
      <trkpt lat="46.14394" lon="6.23611">
        <ele>627.131</ele>
        <time>2020-05-20T15:51:24Z</time>
      </trkpt>
      <trkpt lat="46.14397" lon="6.23629">
        <ele>626.156</ele>
        <time>2020-05-20T15:51:25Z</time>
      </trkpt>
      <trkpt lat="46.14401" lon="6.23645">
        <ele>625.263</ele>
        <time>2020-05-20T15:51:26Z</time>
      </trkpt>
      <trkpt lat="46.14404" lon="6.23661">
        <ele>624.388</ele>
        <time>2020-05-20T15:51:27Z</time>
      </trkpt>
      <trkpt lat="46.14407" lon="6.23675">
        <ele>623.152</ele>
        <time>2020-05-20T15:51:28Z</time>
      </trkpt>
      <trkpt lat="46.14411" lon="6.23687">
        <ele>622.185</ele>
        <time>2020-05-20T15:51:29Z</time>
      </trkpt>
      <trkpt lat="46.14416" lon="6.23698">
        <ele>620.985</ele>
        <time>2020-05-20T15:51:30Z</time>
      </trkpt>
      <trkpt lat="46.14421" lon="6.23708">
        <ele>619.711</ele>
        <time>2020-05-20T15:51:31Z</time>
      </trkpt>
      <trkpt lat="46.14424" lon="6.23718">
        <ele>618.587</ele>
        <time>2020-05-20T15:51:32Z</time>
      </trkpt>
      <trkpt lat="46.14421" lon="6.23728">
        <ele>617.742</ele>
        <time>2020-05-20T15:51:33Z</time>
      </trkpt>
      <trkpt lat="46.14418" lon="6.2374">
        <ele>616.926</ele>
        <time>2020-05-20T15:51:34Z</time>
      </trkpt>
      <trkpt lat="46.14413" lon="6.23751">
        <ele>616.408</ele>
        <time>2020-05-20T15:51:35Z</time>
      </trkpt>
      <trkpt lat="46.14405" lon="6.23762">
        <ele>616.012</ele>
        <time>2020-05-20T15:51:36Z</time>
      </trkpt>
      <trkpt lat="46.14396" lon="6.23772">
        <ele>615.817</ele>
        <time>2020-05-20T15:51:37Z</time>
      </trkpt>
      <trkpt lat="46.14386" lon="6.23782">
        <ele>615.564</ele>
        <time>2020-05-20T15:51:38Z</time>
      </trkpt>
      <trkpt lat="46.14375" lon="6.23791">
        <ele>615.379</ele>
        <time>2020-05-20T15:51:39Z</time>
      </trkpt>
      <trkpt lat="46.14364" lon="6.23799">
        <ele>615.123</ele>
        <time>2020-05-20T15:51:40Z</time>
      </trkpt>
      <trkpt lat="46.14353" lon="6.23808">
        <ele>614.916</ele>
        <time>2020-05-20T15:51:41Z</time>
      </trkpt>
      <trkpt lat="46.14342" lon="6.23816">
        <ele>614.776</ele>
        <time>2020-05-20T15:51:42Z</time>
      </trkpt>
      <trkpt lat="46.14332" lon="6.23824">
        <ele>614.772</ele>
        <time>2020-05-20T15:51:43Z</time>
      </trkpt>
      <trkpt lat="46.14322" lon="6.23831">
        <ele>614.718</ele>
        <time>2020-05-20T15:51:44Z</time>
      </trkpt>
      <trkpt lat="46.14312" lon="6.23838">
        <ele>614.698</ele>
        <time>2020-05-20T15:51:45Z</time>
      </trkpt>
      <trkpt lat="46.14303" lon="6.23845">
        <ele>614.517</ele>
        <time>2020-05-20T15:51:46Z</time>
      </trkpt>
      <trkpt lat="46.14294" lon="6.23852">
        <ele>614.308</ele>
        <time>2020-05-20T15:51:47Z</time>
      </trkpt>
      <trkpt lat="46.14285" lon="6.23857">
        <ele>614.185</ele>
        <time>2020-05-20T15:51:48Z</time>
      </trkpt>
      <trkpt lat="46.14277" lon="6.23858">
        <ele>613.93</ele>
        <time>2020-05-20T15:51:49Z</time>
      </trkpt>
      <trkpt lat="46.14268" lon="6.23854">
        <ele>613.737</ele>
        <time>2020-05-20T15:51:50Z</time>
      </trkpt>
      <trkpt lat="46.14258" lon="6.23846">
        <ele>613.532</ele>
        <time>2020-05-20T15:51:51Z</time>
      </trkpt>
      <trkpt lat="46.14247" lon="6.23837">
        <ele>613.586</ele>
        <time>2020-05-20T15:51:52Z</time>
      </trkpt>
      <trkpt lat="46.14235" lon="6.23829">
        <ele>613.679</ele>
        <time>2020-05-20T15:51:53Z</time>
      </trkpt>
      <trkpt lat="46.14221" lon="6.23825">
        <ele>613.799</ele>
        <time>2020-05-20T15:51:54Z</time>
      </trkpt>
      <trkpt lat="46.14206" lon="6.23823">
        <ele>614.075</ele>
        <time>2020-05-20T15:51:55Z</time>
      </trkpt>
      <trkpt lat="46.14191" lon="6.23821">
        <ele>614.415</ele>
        <time>2020-05-20T15:51:56Z</time>
      </trkpt>
      <trkpt lat="46.14176" lon="6.2382">
        <ele>614.965</ele>
        <time>2020-05-20T15:51:57Z</time>
      </trkpt>
      <trkpt lat="46.14161" lon="6.23819">
        <ele>615.611</ele>
        <time>2020-05-20T15:51:58Z</time>
      </trkpt>
      <trkpt lat="46.14146" lon="6.23817">
        <ele>616.308</ele>
        <time>2020-05-20T15:51:59Z</time>
      </trkpt>
      <trkpt lat="46.14132" lon="6.23813">
        <ele>617.285</ele>
        <time>2020-05-20T15:52:00Z</time>
      </trkpt>
      <trkpt lat="46.14117" lon="6.2381">
        <ele>617.54</ele>
        <time>2020-05-20T15:52:01Z</time>
      </trkpt>
      <trkpt lat="46.14103" lon="6.23808">
        <ele>617.577</ele>
        <time>2020-05-20T15:52:02Z</time>
      </trkpt>
      <trkpt lat="46.14088" lon="6.23804">
        <ele>617.072</ele>
        <time>2020-05-20T15:52:03Z</time>
      </trkpt>
      <trkpt lat="46.14074" lon="6.238">
        <ele>616.276</ele>
        <time>2020-05-20T15:52:04Z</time>
      </trkpt>
      <trkpt lat="46.14059" lon="6.23797">
        <ele>615.189</ele>
        <time>2020-05-20T15:52:05Z</time>
      </trkpt>
      <trkpt lat="46.14045" lon="6.23794">
        <ele>614.389</ele>
        <time>2020-05-20T15:52:06Z</time>
      </trkpt>
      <trkpt lat="46.14031" lon="6.23791">
        <ele>613.735</ele>
        <time>2020-05-20T15:52:07Z</time>
      </trkpt>
      <trkpt lat="46.14018" lon="6.23789">
        <ele>613.424</ele>
        <time>2020-05-20T15:52:08Z</time>
      </trkpt>
      <trkpt lat="46.14005" lon="6.23788">
        <ele>613.304</ele>
        <time>2020-05-20T15:52:09Z</time>
      </trkpt>
      <trkpt lat="46.1399" lon="6.2379">
        <ele>613.314</ele>
        <time>2020-05-20T15:52:10Z</time>
      </trkpt>
      <trkpt lat="46.13974" lon="6.23795">
        <ele>613.308</ele>
        <time>2020-05-20T15:52:11Z</time>
      </trkpt>
      <trkpt lat="46.13959" lon="6.23799">
        <ele>613.486</ele>
        <time>2020-05-20T15:52:12Z</time>
      </trkpt>
      <trkpt lat="46.13943" lon="6.23801">
        <ele>613.661</ele>
        <time>2020-05-20T15:52:13Z</time>
      </trkpt>
      <trkpt lat="46.13927" lon="6.23803">
        <ele>614.048</ele>
        <time>2020-05-20T15:52:14Z</time>
      </trkpt>
      <trkpt lat="46.13912" lon="6.23804">
        <ele>614.373</ele>
        <time>2020-05-20T15:52:15Z</time>
      </trkpt>
      <trkpt lat="46.13897" lon="6.23805">
        <ele>614.637</ele>
        <time>2020-05-20T15:52:16Z</time>
      </trkpt>
      <trkpt lat="46.13883" lon="6.23805">
        <ele>614.65</ele>
        <time>2020-05-20T15:52:17Z</time>
      </trkpt>
      <trkpt lat="46.13868" lon="6.23806">
        <ele>614.64</ele>
        <time>2020-05-20T15:52:18Z</time>
      </trkpt>
      <trkpt lat="46.13854" lon="6.23806">
        <ele>614.566</ele>
        <time>2020-05-20T15:52:19Z</time>
      </trkpt>
      <trkpt lat="46.1384" lon="6.23807">
        <ele>614.234</ele>
        <time>2020-05-20T15:52:20Z</time>
      </trkpt>
      <trkpt lat="46.13825" lon="6.23809">
        <ele>614.155</ele>
        <time>2020-05-20T15:52:21Z</time>
      </trkpt>
      <trkpt lat="46.13811" lon="6.23812">
        <ele>614.01</ele>
        <time>2020-05-20T15:52:22Z</time>
      </trkpt>
      <trkpt lat="46.13797" lon="6.23816">
        <ele>613.908</ele>
        <time>2020-05-20T15:52:23Z</time>
      </trkpt>
      <trkpt lat="46.13784" lon="6.2382">
        <ele>613.757</ele>
        <time>2020-05-20T15:52:24Z</time>
      </trkpt>
      <trkpt lat="46.1377" lon="6.23822">
        <ele>613.632</ele>
        <time>2020-05-20T15:52:25Z</time>
      </trkpt>
      <trkpt lat="46.13756" lon="6.23823">
        <ele>613.399</ele>
        <time>2020-05-20T15:52:26Z</time>
      </trkpt>
      <trkpt lat="46.13742" lon="6.23823">
        <ele>613.274</ele>
        <time>2020-05-20T15:52:27Z</time>
      </trkpt>
      <trkpt lat="46.13728" lon="6.23822">
        <ele>613.038</ele>
        <time>2020-05-20T15:52:28Z</time>
      </trkpt>
      <trkpt lat="46.13713" lon="6.23821">
        <ele>613.091</ele>
        <time>2020-05-20T15:52:29Z</time>
      </trkpt>
      <trkpt lat="46.13699" lon="6.23819">
        <ele>613.151</ele>
        <time>2020-05-20T15:52:30Z</time>
      </trkpt>
      <trkpt lat="46.13685" lon="6.23816">
        <ele>613.327</ele>
        <time>2020-05-20T15:52:31Z</time>
      </trkpt>
      <trkpt lat="46.13671" lon="6.23813">
        <ele>613.527</ele>
        <time>2020-05-20T15:52:32Z</time>
      </trkpt>
      <trkpt lat="46.13656" lon="6.23808">
        <ele>614.068</ele>
        <time>2020-05-20T15:52:33Z</time>
      </trkpt>
      <trkpt lat="46.13642" lon="6.23804">
        <ele>614.414</ele>
        <time>2020-05-20T15:52:34Z</time>
      </trkpt>
      <trkpt lat="46.13628" lon="6.23801">
        <ele>614.608</ele>
        <time>2020-05-20T15:52:35Z</time>
      </trkpt>
      <trkpt lat="46.13613" lon="6.23796">
        <ele>614.816</ele>
        <time>2020-05-20T15:52:36Z</time>
      </trkpt>
      <trkpt lat="46.13598" lon="6.23791">
        <ele>614.971</ele>
        <time>2020-05-20T15:52:37Z</time>
      </trkpt>
      <trkpt lat="46.13583" lon="6.23786">
        <ele>614.968</ele>
        <time>2020-05-20T15:52:38Z</time>
      </trkpt>
      <trkpt lat="46.13568" lon="6.23779">
        <ele>614.983</ele>
        <time>2020-05-20T15:52:39Z</time>
      </trkpt>
      <trkpt lat="46.13554" lon="6.2377">
        <ele>615.097</ele>
        <time>2020-05-20T15:52:40Z</time>
      </trkpt>
      <trkpt lat="46.13541" lon="6.2376">
        <ele>615.36</ele>
        <time>2020-05-20T15:52:41Z</time>
      </trkpt>
      <trkpt lat="46.13526" lon="6.2375">
        <ele>615.78</ele>
        <time>2020-05-20T15:52:42Z</time>
      </trkpt>
      <trkpt lat="46.13513" lon="6.23741">
        <ele>616.326</ele>
        <time>2020-05-20T15:52:43Z</time>
      </trkpt>
      <trkpt lat="46.13499" lon="6.23731">
        <ele>617.096</ele>
        <time>2020-05-20T15:52:44Z</time>
      </trkpt>
      <trkpt lat="46.13485" lon="6.23723">
        <ele>617.831</ele>
        <time>2020-05-20T15:52:45Z</time>
      </trkpt>
      <trkpt lat="46.13469" lon="6.23719">
        <ele>618.524</ele>
        <time>2020-05-20T15:52:46Z</time>
      </trkpt>
      <trkpt lat="46.13453" lon="6.23718">
        <ele>619.308</ele>
        <time>2020-05-20T15:52:47Z</time>
      </trkpt>
      <trkpt lat="46.13439" lon="6.23718">
        <ele>620.163</ele>
        <time>2020-05-20T15:52:48Z</time>
      </trkpt>
      <trkpt lat="46.13424" lon="6.23716">
        <ele>621.078</ele>
        <time>2020-05-20T15:52:49Z</time>
      </trkpt>
      <trkpt lat="46.1341" lon="6.23714">
        <ele>622.165</ele>
        <time>2020-05-20T15:52:50Z</time>
      </trkpt>
      <trkpt lat="46.13395" lon="6.2371">
        <ele>623.33</ele>
        <time>2020-05-20T15:52:51Z</time>
      </trkpt>
      <trkpt lat="46.1338" lon="6.23707">
        <ele>624.484</ele>
        <time>2020-05-20T15:52:52Z</time>
      </trkpt>
      <trkpt lat="46.13366" lon="6.23707">
        <ele>625.417</ele>
        <time>2020-05-20T15:52:53Z</time>
      </trkpt>
      <trkpt lat="46.13353" lon="6.23707">
        <ele>626.137</ele>
        <time>2020-05-20T15:52:54Z</time>
      </trkpt>
      <trkpt lat="46.13339" lon="6.23709">
        <ele>626.653</ele>
        <time>2020-05-20T15:52:55Z</time>
      </trkpt>
      <trkpt lat="46.13325" lon="6.2371">
        <ele>626.976</ele>
        <time>2020-05-20T15:52:56Z</time>
      </trkpt>
      <trkpt lat="46.13312" lon="6.23712">
        <ele>626.99</ele>
        <time>2020-05-20T15:52:57Z</time>
      </trkpt>
      <trkpt lat="46.13299" lon="6.23717">
        <ele>627.219</ele>
        <time>2020-05-20T15:52:58Z</time>
      </trkpt>
      <trkpt lat="46.13285" lon="6.23723">
        <ele>627.308</ele>
        <time>2020-05-20T15:52:59Z</time>
      </trkpt>
      <trkpt lat="46.13275" lon="6.2373">
        <ele>627.441</ele>
        <time>2020-05-20T15:53:00Z</time>
      </trkpt>
      <trkpt lat="46.13266" lon="6.23735">
        <ele>627.466</ele>
        <time>2020-05-20T15:53:01Z</time>
      </trkpt>
      <trkpt lat="46.1326" lon="6.23739">
        <ele>627.413</ele>
        <time>2020-05-20T15:53:02Z</time>
      </trkpt>
      <trkpt lat="46.13254" lon="6.23741">
        <ele>627.278</ele>
        <time>2020-05-20T15:53:04Z</time>
      </trkpt>
      <trkpt lat="46.13256" lon="6.23728">
        <ele>627.172</ele>
        <time>2020-05-20T15:53:06Z</time>
      </trkpt>
      <trkpt lat="46.13261" lon="6.2372">
        <ele>627.255</ele>
        <time>2020-05-20T15:53:07Z</time>
      </trkpt>
      <trkpt lat="46.13263" lon="6.23711">
        <ele>627.435</ele>
        <time>2020-05-20T15:53:08Z</time>
      </trkpt>
      <trkpt lat="46.13261" lon="6.23703">
        <ele>627.891</ele>
        <time>2020-05-20T15:53:09Z</time>
      </trkpt>
      <trkpt lat="46.13256" lon="6.23697">
        <ele>628.386</ele>
        <time>2020-05-20T15:53:10Z</time>
      </trkpt>
      <trkpt lat="46.13248" lon="6.23693">
        <ele>628.96</ele>
        <time>2020-05-20T15:53:11Z</time>
      </trkpt>
      <trkpt lat="46.13236" lon="6.2369">
        <ele>629.726</ele>
        <time>2020-05-20T15:53:12Z</time>
      </trkpt>
      <trkpt lat="46.13223" lon="6.23687">
        <ele>630.608</ele>
        <time>2020-05-20T15:53:13Z</time>
      </trkpt>
      <trkpt lat="46.13209" lon="6.23683">
        <ele>631.652</ele>
        <time>2020-05-20T15:53:14Z</time>
      </trkpt>
      <trkpt lat="46.13194" lon="6.2368">
        <ele>632.767</ele>
        <time>2020-05-20T15:53:15Z</time>
      </trkpt>
      <trkpt lat="46.13178" lon="6.2368">
        <ele>633.884</ele>
        <time>2020-05-20T15:53:16Z</time>
      </trkpt>
      <trkpt lat="46.13162" lon="6.2368">
        <ele>634.859</ele>
        <time>2020-05-20T15:53:17Z</time>
      </trkpt>
      <trkpt lat="46.13147" lon="6.2368">
        <ele>635.843</ele>
        <time>2020-05-20T15:53:18Z</time>
      </trkpt>
      <trkpt lat="46.13132" lon="6.23677">
        <ele>636.676</ele>
        <time>2020-05-20T15:53:19Z</time>
      </trkpt>
      <trkpt lat="46.13117" lon="6.23674">
        <ele>637.396</ele>
        <time>2020-05-20T15:53:20Z</time>
      </trkpt>
      <trkpt lat="46.13101" lon="6.23672">
        <ele>638.162</ele>
        <time>2020-05-20T15:53:21Z</time>
      </trkpt>
      <trkpt lat="46.13087" lon="6.2367">
        <ele>638.913</ele>
        <time>2020-05-20T15:53:22Z</time>
      </trkpt>
      <trkpt lat="46.13074" lon="6.23669">
        <ele>639.943</ele>
        <time>2020-05-20T15:53:23Z</time>
      </trkpt>
      <trkpt lat="46.13062" lon="6.23668">
        <ele>640.907</ele>
        <time>2020-05-20T15:53:24Z</time>
      </trkpt>
      <trkpt lat="46.13052" lon="6.23667">
        <ele>641.908</ele>
        <time>2020-05-20T15:53:25Z</time>
      </trkpt>
      <trkpt lat="46.13042" lon="6.23667">
        <ele>642.895</ele>
        <time>2020-05-20T15:53:26Z</time>
      </trkpt>
      <trkpt lat="46.13033" lon="6.23669">
        <ele>643.85</ele>
        <time>2020-05-20T15:53:27Z</time>
      </trkpt>
      <trkpt lat="46.13023" lon="6.23671">
        <ele>644.537</ele>
        <time>2020-05-20T15:53:28Z</time>
      </trkpt>
      <trkpt lat="46.13012" lon="6.23672">
        <ele>645.062</ele>
        <time>2020-05-20T15:53:29Z</time>
      </trkpt>
      <trkpt lat="46.13001" lon="6.23672">
        <ele>645.316</ele>
        <time>2020-05-20T15:53:30Z</time>
      </trkpt>
      <trkpt lat="46.1299" lon="6.23672">
        <ele>645.649</ele>
        <time>2020-05-20T15:53:31Z</time>
      </trkpt>
      <trkpt lat="46.12981" lon="6.2367">
        <ele>645.619</ele>
        <time>2020-05-20T15:53:32Z</time>
      </trkpt>
      <trkpt lat="46.12973" lon="6.23667">
        <ele>645.695</ele>
        <time>2020-05-20T15:53:33Z</time>
      </trkpt>
      <trkpt lat="46.12963" lon="6.23665">
        <ele>645.655</ele>
        <time>2020-05-20T15:53:34Z</time>
      </trkpt>
      <trkpt lat="46.12954" lon="6.23662">
        <ele>645.607</ele>
        <time>2020-05-20T15:53:35Z</time>
      </trkpt>
      <trkpt lat="46.12944" lon="6.23661">
        <ele>645.717</ele>
        <time>2020-05-20T15:53:36Z</time>
      </trkpt>
      <trkpt lat="46.12935" lon="6.23659">
        <ele>645.808</ele>
        <time>2020-05-20T15:53:37Z</time>
      </trkpt>
      <trkpt lat="46.12926" lon="6.23658">
        <ele>646.039</ele>
        <time>2020-05-20T15:53:38Z</time>
      </trkpt>
      <trkpt lat="46.12917" lon="6.23658">
        <ele>646.334</ele>
        <time>2020-05-20T15:53:39Z</time>
      </trkpt>
      <trkpt lat="46.1291" lon="6.23658">
        <ele>646.551</ele>
        <time>2020-05-20T15:53:40Z</time>
      </trkpt>
      <trkpt lat="46.12905" lon="6.23658">
        <ele>646.596</ele>
        <time>2020-05-20T15:53:41Z</time>
      </trkpt>
      <trkpt lat="46.129" lon="6.2366">
        <ele>646.41</ele>
        <time>2020-05-20T15:53:43Z</time>
      </trkpt>
      <trkpt lat="46.1289" lon="6.23665">
        <ele>646.613</ele>
        <time>2020-05-20T15:54:08Z</time>
      </trkpt>
      <trkpt lat="46.12882" lon="6.2367">
        <ele>646.633</ele>
        <time>2020-05-20T15:54:09Z</time>
      </trkpt>
      <trkpt lat="46.12872" lon="6.23673">
        <ele>646.539</ele>
        <time>2020-05-20T15:54:10Z</time>
      </trkpt>
      <trkpt lat="46.12859" lon="6.23674">
        <ele>646.544</ele>
        <time>2020-05-20T15:54:11Z</time>
      </trkpt>
      <trkpt lat="46.12845" lon="6.23671">
        <ele>646.505</ele>
        <time>2020-05-20T15:54:12Z</time>
      </trkpt>
      <trkpt lat="46.1283" lon="6.23668">
        <ele>646.815</ele>
        <time>2020-05-20T15:54:13Z</time>
      </trkpt>
      <trkpt lat="46.12814" lon="6.23665">
        <ele>647.108</ele>
        <time>2020-05-20T15:54:14Z</time>
      </trkpt>
      <trkpt lat="46.12798" lon="6.23661">
        <ele>647.278</ele>
        <time>2020-05-20T15:54:15Z</time>
      </trkpt>
      <trkpt lat="46.12783" lon="6.23656">
        <ele>647.233</ele>
        <time>2020-05-20T15:54:16Z</time>
      </trkpt>
      <trkpt lat="46.1277" lon="6.23651">
        <ele>647.22</ele>
        <time>2020-05-20T15:54:17Z</time>
      </trkpt>
      <trkpt lat="46.12756" lon="6.23647">
        <ele>647.225</ele>
        <time>2020-05-20T15:54:18Z</time>
      </trkpt>
      <trkpt lat="46.12742" lon="6.23642">
        <ele>647.099</ele>
        <time>2020-05-20T15:54:19Z</time>
      </trkpt>
      <trkpt lat="46.12729" lon="6.23638">
        <ele>647.012</ele>
        <time>2020-05-20T15:54:20Z</time>
      </trkpt>
      <trkpt lat="46.12718" lon="6.23635">
        <ele>647.442</ele>
        <time>2020-05-20T15:54:21Z</time>
      </trkpt>
      <trkpt lat="46.12708" lon="6.23632">
        <ele>647.498</ele>
        <time>2020-05-20T15:54:22Z</time>
      </trkpt>
      <trkpt lat="46.127" lon="6.23636">
        <ele>647.222</ele>
        <time>2020-05-20T15:54:23Z</time>
      </trkpt>
      <trkpt lat="46.12693" lon="6.23643">
        <ele>646.862</ele>
        <time>2020-05-20T15:54:24Z</time>
      </trkpt>
      <trkpt lat="46.12687" lon="6.23654">
        <ele>646.408</ele>
        <time>2020-05-20T15:54:25Z</time>
      </trkpt>
      <trkpt lat="46.12684" lon="6.23663">
        <ele>645.808</ele>
        <time>2020-05-20T15:54:26Z</time>
      </trkpt>
      <trkpt lat="46.12681" lon="6.23674">
        <ele>645.796</ele>
        <time>2020-05-20T15:54:27Z</time>
      </trkpt>
      <trkpt lat="46.12677" lon="6.23685">
        <ele>645.771</ele>
        <time>2020-05-20T15:54:28Z</time>
      </trkpt>
      <trkpt lat="46.12672" lon="6.23693">
        <ele>646.118</ele>
        <time>2020-05-20T15:54:29Z</time>
      </trkpt>
      <trkpt lat="46.12662" lon="6.237">
        <ele>646.623</ele>
        <time>2020-05-20T15:54:30Z</time>
      </trkpt>
      <trkpt lat="46.12651" lon="6.23707">
        <ele>647.277</ele>
        <time>2020-05-20T15:54:31Z</time>
      </trkpt>
      <trkpt lat="46.12644" lon="6.23713">
        <ele>647.65</ele>
        <time>2020-05-20T15:54:32Z</time>
      </trkpt>
      <trkpt lat="46.12638" lon="6.23714">
        <ele>647.66</ele>
        <time>2020-05-20T15:54:33Z</time>
      </trkpt>
      <trkpt lat="46.12633" lon="6.23715">
        <ele>647.576</ele>
        <time>2020-05-20T15:54:34Z</time>
      </trkpt>
      <trkpt lat="46.12625" lon="6.23714">
        <ele>647.447</ele>
        <time>2020-05-20T15:54:35Z</time>
      </trkpt>
      <trkpt lat="46.1262" lon="6.23715">
        <ele>647.429</ele>
        <time>2020-05-20T15:54:36Z</time>
      </trkpt>
      <trkpt lat="46.12614" lon="6.23718">
        <ele>648.321</ele>
        <time>2020-05-20T15:54:38Z</time>
      </trkpt>
      <trkpt lat="46.12621" lon="6.23717">
        <ele>652.108</ele>
        <time>2020-05-20T15:54:45Z</time>
      </trkpt>
      <trkpt lat="46.12627" lon="6.23714">
        <ele>651.838</ele>
        <time>2020-05-20T15:54:46Z</time>
      </trkpt>
      <trkpt lat="46.12633" lon="6.23714">
        <ele>651.363</ele>
        <time>2020-05-20T15:54:47Z</time>
      </trkpt>
      <trkpt lat="46.12637" lon="6.23714">
        <ele>649.66</ele>
        <time>2020-05-20T15:54:49Z</time>
      </trkpt>
      <trkpt lat="46.12639" lon="6.23722">
        <ele>647.755</ele>
        <time>2020-05-20T15:54:51Z</time>
      </trkpt>
      <trkpt lat="46.12636" lon="6.23729">
        <ele>647.119</ele>
        <time>2020-05-20T15:54:52Z</time>
      </trkpt>
      <trkpt lat="46.1263" lon="6.23738">
        <ele>647.122</ele>
        <time>2020-05-20T15:54:53Z</time>
      </trkpt>
      <trkpt lat="46.12623" lon="6.23746">
        <ele>647.442</ele>
        <time>2020-05-20T15:54:54Z</time>
      </trkpt>
      <trkpt lat="46.12616" lon="6.23759">
        <ele>647.858</ele>
        <time>2020-05-20T15:54:55Z</time>
      </trkpt>
      <trkpt lat="46.12607" lon="6.23771">
        <ele>648.459</ele>
        <time>2020-05-20T15:54:56Z</time>
      </trkpt>
      <trkpt lat="46.12595" lon="6.23783">
        <ele>649.203</ele>
        <time>2020-05-20T15:54:57Z</time>
      </trkpt>
      <trkpt lat="46.12582" lon="6.23794">
        <ele>650.023</ele>
        <time>2020-05-20T15:54:58Z</time>
      </trkpt>
      <trkpt lat="46.12569" lon="6.23806">
        <ele>650.808</ele>
        <time>2020-05-20T15:54:59Z</time>
      </trkpt>
      <trkpt lat="46.12556" lon="6.23824">
        <ele>652.089</ele>
        <time>2020-05-20T15:55:00Z</time>
      </trkpt>
      <trkpt lat="46.12545" lon="6.23844">
        <ele>653.444</ele>
        <time>2020-05-20T15:55:01Z</time>
      </trkpt>
      <trkpt lat="46.12533" lon="6.23864">
        <ele>654.911</ele>
        <time>2020-05-20T15:55:02Z</time>
      </trkpt>
      <trkpt lat="46.1252" lon="6.23881">
        <ele>656.486</ele>
        <time>2020-05-20T15:55:03Z</time>
      </trkpt>
      <trkpt lat="46.12507" lon="6.23897">
        <ele>658.13</ele>
        <time>2020-05-20T15:55:04Z</time>
      </trkpt>
      <trkpt lat="46.12496" lon="6.23911">
        <ele>659.923</ele>
        <time>2020-05-20T15:55:05Z</time>
      </trkpt>
      <trkpt lat="46.12485" lon="6.23923">
        <ele>661.873</ele>
        <time>2020-05-20T15:55:06Z</time>
      </trkpt>
      <trkpt lat="46.12474" lon="6.23933">
        <ele>663.599</ele>
        <time>2020-05-20T15:55:07Z</time>
      </trkpt>
      <trkpt lat="46.12461" lon="6.23941">
        <ele>665.449</ele>
        <time>2020-05-20T15:55:08Z</time>
      </trkpt>
      <trkpt lat="46.12448" lon="6.2395">
        <ele>667.502</ele>
        <time>2020-05-20T15:55:09Z</time>
      </trkpt>
      <trkpt lat="46.12435" lon="6.2396">
        <ele>669.622</ele>
        <time>2020-05-20T15:55:10Z</time>
      </trkpt>
      <trkpt lat="46.12422" lon="6.23969">
        <ele>671.708</ele>
        <time>2020-05-20T15:55:11Z</time>
      </trkpt>
      <trkpt lat="46.12411" lon="6.23974">
        <ele>673.918</ele>
        <time>2020-05-20T15:55:12Z</time>
      </trkpt>
      <trkpt lat="46.12401" lon="6.23976">
        <ele>675.923</ele>
        <time>2020-05-20T15:55:13Z</time>
      </trkpt>
      <trkpt lat="46.12395" lon="6.23977">
        <ele>677.76</ele>
        <time>2020-05-20T15:55:14Z</time>
      </trkpt>
      <trkpt lat="46.12391" lon="6.23981">
        <ele>680.215</ele>
        <time>2020-05-20T15:55:16Z</time>
      </trkpt>
      <trkpt lat="46.12386" lon="6.23971">
        <ele>681.519</ele>
        <time>2020-05-20T15:55:18Z</time>
      </trkpt>
      <trkpt lat="46.12385" lon="6.2396">
        <ele>681.872</ele>
        <time>2020-05-20T15:55:19Z</time>
      </trkpt>
      <trkpt lat="46.12384" lon="6.23946">
        <ele>682.242</ele>
        <time>2020-05-20T15:55:20Z</time>
      </trkpt>
      <trkpt lat="46.1238" lon="6.23932">
        <ele>682.548</ele>
        <time>2020-05-20T15:55:21Z</time>
      </trkpt>
      <trkpt lat="46.12374" lon="6.23917">
        <ele>683.056</ele>
        <time>2020-05-20T15:55:22Z</time>
      </trkpt>
      <trkpt lat="46.12364" lon="6.23905">
        <ele>683.859</ele>
        <time>2020-05-20T15:55:23Z</time>
      </trkpt>
      <trkpt lat="46.12355" lon="6.23897">
        <ele>684.614</ele>
        <time>2020-05-20T15:55:24Z</time>
      </trkpt>
      <trkpt lat="46.12343" lon="6.23894">
        <ele>685.408</ele>
        <time>2020-05-20T15:55:25Z</time>
      </trkpt>
      <trkpt lat="46.1233" lon="6.23898">
        <ele>686.319</ele>
        <time>2020-05-20T15:55:26Z</time>
      </trkpt>
      <trkpt lat="46.12315" lon="6.23904">
        <ele>687.324</ele>
        <time>2020-05-20T15:55:27Z</time>
      </trkpt>
      <trkpt lat="46.12301" lon="6.23912">
        <ele>688.261</ele>
        <time>2020-05-20T15:55:28Z</time>
      </trkpt>
      <trkpt lat="46.12288" lon="6.23917">
        <ele>689.126</ele>
        <time>2020-05-20T15:55:29Z</time>
      </trkpt>
      <trkpt lat="46.12276" lon="6.2392">
        <ele>690.08</ele>
        <time>2020-05-20T15:55:30Z</time>
      </trkpt>
      <trkpt lat="46.12265" lon="6.23917">
        <ele>690.643</ele>
        <time>2020-05-20T15:55:31Z</time>
      </trkpt>
      <trkpt lat="46.12252" lon="6.2391">
        <ele>691.063</ele>
        <time>2020-05-20T15:55:32Z</time>
      </trkpt>
      <trkpt lat="46.12238" lon="6.23901">
        <ele>691.259</ele>
        <time>2020-05-20T15:55:33Z</time>
      </trkpt>
      <trkpt lat="46.12225" lon="6.23888">
        <ele>691.643</ele>
        <time>2020-05-20T15:55:34Z</time>
      </trkpt>
      <trkpt lat="46.12213" lon="6.23874">
        <ele>692.064</ele>
        <time>2020-05-20T15:55:35Z</time>
      </trkpt>
      <trkpt lat="46.12202" lon="6.23858">
        <ele>692.81</ele>
        <time>2020-05-20T15:55:36Z</time>
      </trkpt>
      <trkpt lat="46.12193" lon="6.23843">
        <ele>693.708</ele>
        <time>2020-05-20T15:55:37Z</time>
      </trkpt>
      <trkpt lat="46.12185" lon="6.23827">
        <ele>694.518</ele>
        <time>2020-05-20T15:55:38Z</time>
      </trkpt>
      <trkpt lat="46.1218" lon="6.23809">
        <ele>695.383</ele>
        <time>2020-05-20T15:55:39Z</time>
      </trkpt>
      <trkpt lat="46.12175" lon="6.23788">
        <ele>696.21</ele>
        <time>2020-05-20T15:55:40Z</time>
      </trkpt>
      <trkpt lat="46.1217" lon="6.23767">
        <ele>696.985</ele>
        <time>2020-05-20T15:55:41Z</time>
      </trkpt>
      <trkpt lat="46.12165" lon="6.2375">
        <ele>697.879</ele>
        <time>2020-05-20T15:55:42Z</time>
      </trkpt>
      <trkpt lat="46.12157" lon="6.23735">
        <ele>698.682</ele>
        <time>2020-05-20T15:55:43Z</time>
      </trkpt>
      <trkpt lat="46.12148" lon="6.23722">
        <ele>699.222</ele>
        <time>2020-05-20T15:55:44Z</time>
      </trkpt>
      <trkpt lat="46.12136" lon="6.2371">
        <ele>699.528</ele>
        <time>2020-05-20T15:55:45Z</time>
      </trkpt>
      <trkpt lat="46.1212" lon="6.23699">
        <ele>699.882</ele>
        <time>2020-05-20T15:55:46Z</time>
      </trkpt>
      <trkpt lat="46.12104" lon="6.23688">
        <ele>700.243</ele>
        <time>2020-05-20T15:55:47Z</time>
      </trkpt>
      <trkpt lat="46.12089" lon="6.23676">
        <ele>700.817</ele>
        <time>2020-05-20T15:55:48Z</time>
      </trkpt>
      <trkpt lat="46.12078" lon="6.23665">
        <ele>701.308</ele>
        <time>2020-05-20T15:55:49Z</time>
      </trkpt>
      <trkpt lat="46.12069" lon="6.23656">
        <ele>701.952</ele>
        <time>2020-05-20T15:55:50Z</time>
      </trkpt>
      <trkpt lat="46.12061" lon="6.23649">
        <ele>702.477</ele>
        <time>2020-05-20T15:55:51Z</time>
      </trkpt>
      <trkpt lat="46.12051" lon="6.23643">
        <ele>702.674</ele>
        <time>2020-05-20T15:55:52Z</time>
      </trkpt>
      <trkpt lat="46.12042" lon="6.23637">
        <ele>702.629</ele>
        <time>2020-05-20T15:55:53Z</time>
      </trkpt>
      <trkpt lat="46.12032" lon="6.23625">
        <ele>702.923</ele>
        <time>2020-05-20T15:55:54Z</time>
      </trkpt>
      <trkpt lat="46.12021" lon="6.23611">
        <ele>703.616</ele>
        <time>2020-05-20T15:55:55Z</time>
      </trkpt>
      <trkpt lat="46.12006" lon="6.23592">
        <ele>704.516</ele>
        <time>2020-05-20T15:55:56Z</time>
      </trkpt>
      <trkpt lat="46.1201" lon="6.23606">
        <ele>705.422</ele>
        <time>2020-05-20T15:55:57Z</time>
      </trkpt>
      <trkpt lat="46.12005" lon="6.23604">
        <ele>706.421</ele>
        <time>2020-05-20T15:55:58Z</time>
      </trkpt>
      <trkpt lat="46.11999" lon="6.23605">
        <ele>707.441</ele>
        <time>2020-05-20T15:55:59Z</time>
      </trkpt>
      <trkpt lat="46.11994" lon="6.23604">
        <ele>708.305</ele>
        <time>2020-05-20T15:56:00Z</time>
      </trkpt>
      <trkpt lat="46.11989" lon="6.23599">
        <ele>709.208</ele>
        <time>2020-05-20T15:56:01Z</time>
      </trkpt>
      <trkpt lat="46.11984" lon="6.23589">
        <ele>710.116</ele>
        <time>2020-05-20T15:56:02Z</time>
      </trkpt>
      <trkpt lat="46.11978" lon="6.23578">
        <ele>711.251</ele>
        <time>2020-05-20T15:56:03Z</time>
      </trkpt>
      <trkpt lat="46.11972" lon="6.23567">
        <ele>712.498</ele>
        <time>2020-05-20T15:56:04Z</time>
      </trkpt>
      <trkpt lat="46.11964" lon="6.23558">
        <ele>713.853</ele>
        <time>2020-05-20T15:56:05Z</time>
      </trkpt>
      <trkpt lat="46.11957" lon="6.23547">
        <ele>715.337</ele>
        <time>2020-05-20T15:56:06Z</time>
      </trkpt>
      <trkpt lat="46.11951" lon="6.23537">
        <ele>716.88</ele>
        <time>2020-05-20T15:56:07Z</time>
      </trkpt>
      <trkpt lat="46.11947" lon="6.23529">
        <ele>718.15</ele>
        <time>2020-05-20T15:56:08Z</time>
      </trkpt>
      <trkpt lat="46.11942" lon="6.23522">
        <ele>719.156</ele>
        <time>2020-05-20T15:56:09Z</time>
      </trkpt>
      <trkpt lat="46.11936" lon="6.23517">
        <ele>719.838</ele>
        <time>2020-05-20T15:56:10Z</time>
      </trkpt>
      <trkpt lat="46.11929" lon="6.23513">
        <ele>720.27</ele>
        <time>2020-05-20T15:56:11Z</time>
      </trkpt>
      <trkpt lat="46.11923" lon="6.23507">
        <ele>720.517</ele>
        <time>2020-05-20T15:56:12Z</time>
      </trkpt>
      <trkpt lat="46.11918" lon="6.23503">
        <ele>720.808</ele>
        <time>2020-05-20T15:56:13Z</time>
      </trkpt>
      <trkpt lat="46.11912" lon="6.23497">
        <ele>721.477</ele>
        <time>2020-05-20T15:56:15Z</time>
      </trkpt>
      <trkpt lat="46.11907" lon="6.23491">
        <ele>721.962</ele>
        <time>2020-05-20T15:56:17Z</time>
      </trkpt>
      <trkpt lat="46.11902" lon="6.23488">
        <ele>722.189</ele>
        <time>2020-05-20T15:56:20Z</time>
      </trkpt>
      <trkpt lat="46.11906" lon="6.23493">
        <ele>721.744</ele>
        <time>2020-05-20T15:56:52Z</time>
      </trkpt>
      <trkpt lat="46.11911" lon="6.23496">
        <ele>721.698</ele>
        <time>2020-05-20T15:56:54Z</time>
      </trkpt>
      <trkpt lat="46.11916" lon="6.235">
        <ele>721.611</ele>
        <time>2020-05-20T15:56:55Z</time>
      </trkpt>
      <trkpt lat="46.11922" lon="6.23506">
        <ele>721.581</ele>
        <time>2020-05-20T15:56:56Z</time>
      </trkpt>
      <trkpt lat="46.11928" lon="6.23512">
        <ele>721.447</ele>
        <time>2020-05-20T15:56:57Z</time>
      </trkpt>
      <trkpt lat="46.11934" lon="6.23516">
        <ele>721.367</ele>
        <time>2020-05-20T15:56:58Z</time>
      </trkpt>
      <trkpt lat="46.1194" lon="6.2352">
        <ele>721.181</ele>
        <time>2020-05-20T15:56:59Z</time>
      </trkpt>
      <trkpt lat="46.11944" lon="6.23526">
        <ele>720.819</ele>
        <time>2020-05-20T15:57:00Z</time>
      </trkpt>
      <trkpt lat="46.11949" lon="6.23534">
        <ele>720.508</ele>
        <time>2020-05-20T15:57:01Z</time>
      </trkpt>
      <trkpt lat="46.11955" lon="6.23543">
        <ele>720.12</ele>
        <time>2020-05-20T15:57:02Z</time>
      </trkpt>
      <trkpt lat="46.11962" lon="6.23555">
        <ele>719.745</ele>
        <time>2020-05-20T15:57:03Z</time>
      </trkpt>
      <trkpt lat="46.1197" lon="6.23566">
        <ele>719.572</ele>
        <time>2020-05-20T15:57:04Z</time>
      </trkpt>
      <trkpt lat="46.11976" lon="6.23576">
        <ele>718.957</ele>
        <time>2020-05-20T15:57:05Z</time>
      </trkpt>
      <trkpt lat="46.1198" lon="6.23585">
        <ele>718.081</ele>
        <time>2020-05-20T15:57:06Z</time>
      </trkpt>
      <trkpt lat="46.11984" lon="6.23594">
        <ele>717.054</ele>
        <time>2020-05-20T15:57:07Z</time>
      </trkpt>
      <trkpt lat="46.1199" lon="6.236">
        <ele>715.814</ele>
        <time>2020-05-20T15:57:08Z</time>
      </trkpt>
      <trkpt lat="46.11997" lon="6.23603">
        <ele>714.38</ele>
        <time>2020-05-20T15:57:09Z</time>
      </trkpt>
      <trkpt lat="46.12004" lon="6.23605">
        <ele>713.098</ele>
        <time>2020-05-20T15:57:10Z</time>
      </trkpt>
      <trkpt lat="46.12011" lon="6.23605">
        <ele>712.015</ele>
        <time>2020-05-20T15:57:11Z</time>
      </trkpt>
      <trkpt lat="46.12019" lon="6.2361">
        <ele>711.026</ele>
        <time>2020-05-20T15:57:12Z</time>
      </trkpt>
      <trkpt lat="46.12026" lon="6.23618">
        <ele>710.008</ele>
        <time>2020-05-20T15:57:13Z</time>
      </trkpt>
      <trkpt lat="46.12033" lon="6.23628">
        <ele>709.013</ele>
        <time>2020-05-20T15:57:14Z</time>
      </trkpt>
      <trkpt lat="46.1204" lon="6.23636">
        <ele>708.038</ele>
        <time>2020-05-20T15:57:15Z</time>
      </trkpt>
      <trkpt lat="46.12046" lon="6.23642">
        <ele>707.055</ele>
        <time>2020-05-20T15:57:16Z</time>
      </trkpt>
      <trkpt lat="46.12051" lon="6.23644">
        <ele>706.12</ele>
        <time>2020-05-20T15:57:17Z</time>
      </trkpt>
      <trkpt lat="46.12056" lon="6.23639">
        <ele>704.924</ele>
        <time>2020-05-20T15:57:19Z</time>
      </trkpt>
      <trkpt lat="46.12053" lon="6.23628">
        <ele>704.347</ele>
        <time>2020-05-20T15:57:21Z</time>
      </trkpt>
      <trkpt lat="46.12046" lon="6.23618">
        <ele>704.397</ele>
        <time>2020-05-20T15:57:22Z</time>
      </trkpt>
      <trkpt lat="46.12039" lon="6.23606">
        <ele>704.433</ele>
        <time>2020-05-20T15:57:23Z</time>
      </trkpt>
      <trkpt lat="46.12033" lon="6.23592">
        <ele>704.661</ele>
        <time>2020-05-20T15:57:24Z</time>
      </trkpt>
      <trkpt lat="46.12026" lon="6.23576">
        <ele>705.121</ele>
        <time>2020-05-20T15:57:25Z</time>
      </trkpt>
      <trkpt lat="46.12018" lon="6.23558">
        <ele>705.913</ele>
        <time>2020-05-20T15:57:26Z</time>
      </trkpt>
      <trkpt lat="46.12009" lon="6.23538">
        <ele>707.008</ele>
        <time>2020-05-20T15:57:27Z</time>
      </trkpt>
      <trkpt lat="46.12001" lon="6.23518">
        <ele>707.95</ele>
        <time>2020-05-20T15:57:28Z</time>
      </trkpt>
      <trkpt lat="46.11992" lon="6.23499">
        <ele>708.895</ele>
        <time>2020-05-20T15:57:29Z</time>
      </trkpt>
      <trkpt lat="46.11983" lon="6.23479">
        <ele>709.992</ele>
        <time>2020-05-20T15:57:30Z</time>
      </trkpt>
      <trkpt lat="46.11975" lon="6.23461">
        <ele>711.017</ele>
        <time>2020-05-20T15:57:31Z</time>
      </trkpt>
      <trkpt lat="46.11965" lon="6.23442">
        <ele>711.941</ele>
        <time>2020-05-20T15:57:32Z</time>
      </trkpt>
      <trkpt lat="46.11952" lon="6.23423">
        <ele>713.154</ele>
        <time>2020-05-20T15:57:33Z</time>
      </trkpt>
      <trkpt lat="46.11939" lon="6.23403">
        <ele>714.574</ele>
        <time>2020-05-20T15:57:34Z</time>
      </trkpt>
      <trkpt lat="46.11927" lon="6.23386">
        <ele>715.86</ele>
        <time>2020-05-20T15:57:35Z</time>
      </trkpt>
      <trkpt lat="46.11916" lon="6.2337">
        <ele>717.074</ele>
        <time>2020-05-20T15:57:36Z</time>
      </trkpt>
      <trkpt lat="46.11907" lon="6.23355">
        <ele>718.456</ele>
        <time>2020-05-20T15:57:37Z</time>
      </trkpt>
      <trkpt lat="46.11897" lon="6.2334">
        <ele>719.721</ele>
        <time>2020-05-20T15:57:38Z</time>
      </trkpt>
      <trkpt lat="46.11887" lon="6.23326">
        <ele>720.608</ele>
        <time>2020-05-20T15:57:39Z</time>
      </trkpt>
      <trkpt lat="46.11878" lon="6.23311">
        <ele>721.481</ele>
        <time>2020-05-20T15:57:40Z</time>
      </trkpt>
      <trkpt lat="46.11868" lon="6.23297">
        <ele>722.496</ele>
        <time>2020-05-20T15:57:41Z</time>
      </trkpt>
      <trkpt lat="46.11859" lon="6.23281">
        <ele>723.383</ele>
        <time>2020-05-20T15:57:42Z</time>
      </trkpt>
      <trkpt lat="46.11849" lon="6.23266">
        <ele>724.558</ele>
        <time>2020-05-20T15:57:43Z</time>
      </trkpt>
      <trkpt lat="46.11838" lon="6.2325">
        <ele>726.082</ele>
        <time>2020-05-20T15:57:44Z</time>
      </trkpt>
      <trkpt lat="46.11828" lon="6.23233">
        <ele>727.555</ele>
        <time>2020-05-20T15:57:45Z</time>
      </trkpt>
      <trkpt lat="46.11817" lon="6.23215">
        <ele>729.075</ele>
        <time>2020-05-20T15:57:46Z</time>
      </trkpt>
      <trkpt lat="46.11805" lon="6.23197">
        <ele>730.611</ele>
        <time>2020-05-20T15:57:47Z</time>
      </trkpt>
      <trkpt lat="46.11794" lon="6.23181">
        <ele>732.069</ele>
        <time>2020-05-20T15:57:48Z</time>
      </trkpt>
      <trkpt lat="46.11781" lon="6.23163">
        <ele>733.104</ele>
        <time>2020-05-20T15:57:49Z</time>
      </trkpt>
      <trkpt lat="46.11767" lon="6.23144">
        <ele>734.224</ele>
        <time>2020-05-20T15:57:50Z</time>
      </trkpt>
      <trkpt lat="46.11755" lon="6.23127">
        <ele>735.208</ele>
        <time>2020-05-20T15:57:51Z</time>
      </trkpt>
      <trkpt lat="46.11742" lon="6.23111">
        <ele>736.02</ele>
        <time>2020-05-20T15:57:52Z</time>
      </trkpt>
      <trkpt lat="46.11731" lon="6.23095">
        <ele>736.815</ele>
        <time>2020-05-20T15:57:53Z</time>
      </trkpt>
      <trkpt lat="46.1172" lon="6.2308">
        <ele>737.682</ele>
        <time>2020-05-20T15:57:54Z</time>
      </trkpt>
      <trkpt lat="46.11708" lon="6.23064">
        <ele>738.587</ele>
        <time>2020-05-20T15:57:55Z</time>
      </trkpt>
      <trkpt lat="46.11697" lon="6.23048">
        <ele>739.691</ele>
        <time>2020-05-20T15:57:56Z</time>
      </trkpt>
      <trkpt lat="46.11685" lon="6.23031">
        <ele>740.894</ele>
        <time>2020-05-20T15:57:57Z</time>
      </trkpt>
      <trkpt lat="46.11676" lon="6.23014">
        <ele>742.124</ele>
        <time>2020-05-20T15:57:58Z</time>
      </trkpt>
      <trkpt lat="46.11668" lon="6.22993">
        <ele>743.56</ele>
        <time>2020-05-20T15:57:59Z</time>
      </trkpt>
      <trkpt lat="46.11661" lon="6.22969">
        <ele>744.893</ele>
        <time>2020-05-20T15:58:00Z</time>
      </trkpt>
      <trkpt lat="46.11654" lon="6.22944">
        <ele>746.065</ele>
        <time>2020-05-20T15:58:01Z</time>
      </trkpt>
      <trkpt lat="46.11648" lon="6.2292">
        <ele>747.221</ele>
        <time>2020-05-20T15:58:02Z</time>
      </trkpt>
      <trkpt lat="46.11641" lon="6.22896">
        <ele>748.108</ele>
        <time>2020-05-20T15:58:03Z</time>
      </trkpt>
      <trkpt lat="46.11636" lon="6.22873">
        <ele>749.443</ele>
        <time>2020-05-20T15:58:04Z</time>
      </trkpt>
      <trkpt lat="46.11631" lon="6.22853">
        <ele>751.078</ele>
        <time>2020-05-20T15:58:05Z</time>
      </trkpt>
      <trkpt lat="46.11627" lon="6.22836">
        <ele>752.615</ele>
        <time>2020-05-20T15:58:06Z</time>
      </trkpt>
      <trkpt lat="46.11623" lon="6.22817">
        <ele>754.25</ele>
        <time>2020-05-20T15:58:07Z</time>
      </trkpt>
      <trkpt lat="46.11619" lon="6.22797">
        <ele>755.964</ele>
        <time>2020-05-20T15:58:08Z</time>
      </trkpt>
      <trkpt lat="46.11616" lon="6.22777">
        <ele>757.637</ele>
        <time>2020-05-20T15:58:09Z</time>
      </trkpt>
      <trkpt lat="46.11613" lon="6.22755">
        <ele>759.167</ele>
        <time>2020-05-20T15:58:10Z</time>
      </trkpt>
      <trkpt lat="46.11611" lon="6.22731">
        <ele>760.493</ele>
        <time>2020-05-20T15:58:11Z</time>
      </trkpt>
      <trkpt lat="46.1161" lon="6.22708">
        <ele>762.019</ele>
        <time>2020-05-20T15:58:12Z</time>
      </trkpt>
      <trkpt lat="46.1161" lon="6.22686">
        <ele>763.609</ele>
        <time>2020-05-20T15:58:13Z</time>
      </trkpt>
      <trkpt lat="46.11612" lon="6.22664">
        <ele>765.219</ele>
        <time>2020-05-20T15:58:14Z</time>
      </trkpt>
      <trkpt lat="46.11614" lon="6.22642">
        <ele>766.808</ele>
        <time>2020-05-20T15:58:15Z</time>
      </trkpt>
      <trkpt lat="46.11616" lon="6.22625">
        <ele>768.435</ele>
        <time>2020-05-20T15:58:16Z</time>
      </trkpt>
      <trkpt lat="46.11618" lon="6.22612">
        <ele>769.89</ele>
        <time>2020-05-20T15:58:17Z</time>
      </trkpt>
      <trkpt lat="46.11619" lon="6.22603">
        <ele>770.877</ele>
        <time>2020-05-20T15:58:18Z</time>
      </trkpt>
      <trkpt lat="46.11618" lon="6.22597">
        <ele>771.572</ele>
        <time>2020-05-20T15:58:19Z</time>
      </trkpt>
      <trkpt lat="46.11613" lon="6.22592">
        <ele>771.976</ele>
        <time>2020-05-20T15:58:20Z</time>
      </trkpt>
      <trkpt lat="46.11606" lon="6.2259">
        <ele>772.159</ele>
        <time>2020-05-20T15:58:21Z</time>
      </trkpt>
      <trkpt lat="46.11596" lon="6.22591">
        <ele>772.359</ele>
        <time>2020-05-20T15:58:22Z</time>
      </trkpt>
      <trkpt lat="46.11585" lon="6.22591">
        <ele>772.725</ele>
        <time>2020-05-20T15:58:23Z</time>
      </trkpt>
      <trkpt lat="46.11574" lon="6.22591">
        <ele>773.381</ele>
        <time>2020-05-20T15:58:24Z</time>
      </trkpt>
      <trkpt lat="46.11562" lon="6.2259">
        <ele>773.961</ele>
        <time>2020-05-20T15:58:25Z</time>
      </trkpt>
      <trkpt lat="46.11551" lon="6.22586">
        <ele>774.517</ele>
        <time>2020-05-20T15:58:26Z</time>
      </trkpt>
      <trkpt lat="46.11539" lon="6.2258">
        <ele>775.108</ele>
        <time>2020-05-20T15:58:27Z</time>
      </trkpt>
      <trkpt lat="46.11526" lon="6.22572">
        <ele>775.872</ele>
        <time>2020-05-20T15:58:28Z</time>
      </trkpt>
      <trkpt lat="46.11515" lon="6.22564">
        <ele>776.437</ele>
        <time>2020-05-20T15:58:29Z</time>
      </trkpt>
      <trkpt lat="46.11506" lon="6.22559">
        <ele>776.914</ele>
        <time>2020-05-20T15:58:30Z</time>
      </trkpt>
      <trkpt lat="46.11498" lon="6.22555">
        <ele>777.479</ele>
        <time>2020-05-20T15:58:31Z</time>
      </trkpt>
      <trkpt lat="46.11491" lon="6.2255">
        <ele>777.853</ele>
        <time>2020-05-20T15:58:32Z</time>
      </trkpt>
      <trkpt lat="46.11486" lon="6.22546">
        <ele>778.146</ele>
        <time>2020-05-20T15:58:33Z</time>
      </trkpt>
      <trkpt lat="46.11478" lon="6.2254">
        <ele>778.286</ele>
        <time>2020-05-20T15:58:35Z</time>
      </trkpt>
      <trkpt lat="46.1147" lon="6.22535">
        <ele>778.362</ele>
        <time>2020-05-20T15:58:36Z</time>
      </trkpt>
      <trkpt lat="46.1146" lon="6.22528">
        <ele>778.511</ele>
        <time>2020-05-20T15:58:37Z</time>
      </trkpt>
      <trkpt lat="46.11448" lon="6.22521">
        <ele>778.821</ele>
        <time>2020-05-20T15:58:38Z</time>
      </trkpt>
      <trkpt lat="46.11433" lon="6.22511">
        <ele>779.303</ele>
        <time>2020-05-20T15:58:39Z</time>
      </trkpt>
      <trkpt lat="46.1142" lon="6.22504">
        <ele>780.108</ele>
        <time>2020-05-20T15:58:40Z</time>
      </trkpt>
      <trkpt lat="46.11407" lon="6.22496">
        <ele>780.865</ele>
        <time>2020-05-20T15:58:41Z</time>
      </trkpt>
      <trkpt lat="46.11395" lon="6.22488">
        <ele>781.58</ele>
        <time>2020-05-20T15:58:42Z</time>
      </trkpt>
      <trkpt lat="46.11382" lon="6.2248">
        <ele>782.297</ele>
        <time>2020-05-20T15:58:43Z</time>
      </trkpt>
      <trkpt lat="46.1137" lon="6.22471">
        <ele>782.792</ele>
        <time>2020-05-20T15:58:44Z</time>
      </trkpt>
      <trkpt lat="46.11359" lon="6.22464">
        <ele>782.996</ele>
        <time>2020-05-20T15:58:45Z</time>
      </trkpt>
      <trkpt lat="46.11348" lon="6.22456">
        <ele>783.239</ele>
        <time>2020-05-20T15:58:46Z</time>
      </trkpt>
      <trkpt lat="46.11337" lon="6.22449">
        <ele>783.619</ele>
        <time>2020-05-20T15:58:47Z</time>
      </trkpt>
      <trkpt lat="46.11327" lon="6.22443">
        <ele>784.025</ele>
        <time>2020-05-20T15:58:48Z</time>
      </trkpt>
      <trkpt lat="46.11316" lon="6.22436">
        <ele>784.662</ele>
        <time>2020-05-20T15:58:49Z</time>
      </trkpt>
      <trkpt lat="46.11305" lon="6.22431">
        <ele>785.483</ele>
        <time>2020-05-20T15:58:50Z</time>
      </trkpt>
      <trkpt lat="46.11296" lon="6.22426">
        <ele>786.211</ele>
        <time>2020-05-20T15:58:51Z</time>
      </trkpt>
      <trkpt lat="46.11289" lon="6.22421">
        <ele>787.008</ele>
        <time>2020-05-20T15:58:52Z</time>
      </trkpt>
      <trkpt lat="46.1128" lon="6.22416">
        <ele>787.87</ele>
        <time>2020-05-20T15:58:53Z</time>
      </trkpt>
      <trkpt lat="46.11272" lon="6.22411">
        <ele>788.665</ele>
        <time>2020-05-20T15:58:54Z</time>
      </trkpt>
      <trkpt lat="46.11264" lon="6.22409">
        <ele>789.442</ele>
        <time>2020-05-20T15:58:55Z</time>
      </trkpt>
      <trkpt lat="46.11257" lon="6.22409">
        <ele>790.187</ele>
        <time>2020-05-20T15:58:56Z</time>
      </trkpt>
      <trkpt lat="46.11249" lon="6.2241">
        <ele>790.861</ele>
        <time>2020-05-20T15:58:57Z</time>
      </trkpt>
      <trkpt lat="46.11242" lon="6.22406">
        <ele>792.084</ele>
        <time>2020-05-20T15:58:59Z</time>
      </trkpt>
      <trkpt lat="46.11236" lon="6.22405">
        <ele>792.744</ele>
        <time>2020-05-20T15:59:01Z</time>
      </trkpt>
      <trkpt lat="46.11231" lon="6.22406">
        <ele>792.84</ele>
        <time>2020-05-20T15:59:02Z</time>
      </trkpt>
      <trkpt lat="46.1123" lon="6.22415">
        <ele>792.752</ele>
        <time>2020-05-20T15:59:04Z</time>
      </trkpt>
      <trkpt lat="46.11228" lon="6.22422">
        <ele>792.553</ele>
        <time>2020-05-20T15:59:05Z</time>
      </trkpt>
      <trkpt lat="46.11225" lon="6.22437">
        <ele>792.108</ele>
        <time>2020-05-20T15:59:07Z</time>
      </trkpt>
      <trkpt lat="46.11226" lon="6.22446">
        <ele>791.808</ele>
        <time>2020-05-20T15:59:08Z</time>
      </trkpt>
      <trkpt lat="46.11227" lon="6.22456">
        <ele>791.579</ele>
        <time>2020-05-20T15:59:09Z</time>
      </trkpt>
      <trkpt lat="46.11229" lon="6.22463">
        <ele>791.254</ele>
        <time>2020-05-20T15:59:10Z</time>
      </trkpt>
      <trkpt lat="46.11226" lon="6.22473">
        <ele>790.431</ele>
        <time>2020-05-20T15:59:12Z</time>
      </trkpt>
      <trkpt lat="46.11224" lon="6.22485">
        <ele>790.016</ele>
        <time>2020-05-20T15:59:13Z</time>
      </trkpt>
      <trkpt lat="46.11224" lon="6.22493">
        <ele>789.76</ele>
        <time>2020-05-20T15:59:14Z</time>
      </trkpt>
      <trkpt lat="46.11223" lon="6.22509">
        <ele>789.053</ele>
        <time>2020-05-20T15:59:16Z</time>
      </trkpt>
      <trkpt lat="46.11216" lon="6.22533">
        <ele>787.873</ele>
        <time>2020-05-20T15:59:19Z</time>
      </trkpt>
      <trkpt lat="46.11216" lon="6.22541">
        <ele>787.579</ele>
        <time>2020-05-20T15:59:20Z</time>
      </trkpt>
      <trkpt lat="46.11214" lon="6.22553">
        <ele>787.239</ele>
        <time>2020-05-20T15:59:21Z</time>
      </trkpt>
      <trkpt lat="46.11212" lon="6.22563">
        <ele>786.901</ele>
        <time>2020-05-20T15:59:22Z</time>
      </trkpt>
      <trkpt lat="46.11209" lon="6.22574">
        <ele>786.721</ele>
        <time>2020-05-20T15:59:23Z</time>
      </trkpt>
      <trkpt lat="46.11205" lon="6.2258">
        <ele>786.408</ele>
        <time>2020-05-20T15:59:24Z</time>
      </trkpt>
      <trkpt lat="46.112" lon="6.22585">
        <ele>786.187</ele>
        <time>2020-05-20T15:59:25Z</time>
      </trkpt>
      <trkpt lat="46.11196" lon="6.22592">
        <ele>785.772</ele>
        <time>2020-05-20T15:59:26Z</time>
      </trkpt>
      <trkpt lat="46.11191" lon="6.22599">
        <ele>785.339</ele>
        <time>2020-05-20T15:59:27Z</time>
      </trkpt>
      <trkpt lat="46.11181" lon="6.22609">
        <ele>784.944</ele>
        <time>2020-05-20T15:59:28Z</time>
      </trkpt>
      <trkpt lat="46.11211" lon="6.22619">
        <ele>784.548</ele>
        <time>2020-05-20T15:59:29Z</time>
      </trkpt>
      <trkpt lat="46.11209" lon="6.22634">
        <ele>783.791</ele>
        <time>2020-05-20T15:59:31Z</time>
      </trkpt>
      <trkpt lat="46.11209" lon="6.22645">
        <ele>782.991</ele>
        <time>2020-05-20T15:59:33Z</time>
      </trkpt>
      <trkpt lat="46.11209" lon="6.22655">
        <ele>782.087</ele>
        <time>2020-05-20T15:59:35Z</time>
      </trkpt>
      <trkpt lat="46.11207" lon="6.22665">
        <ele>781.131</ele>
        <time>2020-05-20T15:59:37Z</time>
      </trkpt>
      <trkpt lat="46.11207" lon="6.22675">
        <ele>780.461</ele>
        <time>2020-05-20T15:59:39Z</time>
      </trkpt>
      <trkpt lat="46.11205" lon="6.22689">
        <ele>779.907</ele>
        <time>2020-05-20T15:59:41Z</time>
      </trkpt>
      <trkpt lat="46.11203" lon="6.22697">
        <ele>779.808</ele>
        <time>2020-05-20T15:59:42Z</time>
      </trkpt>
      <trkpt lat="46.11199" lon="6.22709">
        <ele>779.777</ele>
        <time>2020-05-20T15:59:43Z</time>
      </trkpt>
      <trkpt lat="46.11196" lon="6.22719">
        <ele>779.732</ele>
        <time>2020-05-20T15:59:44Z</time>
      </trkpt>
      <trkpt lat="46.11191" lon="6.22728">
        <ele>779.769</ele>
        <time>2020-05-20T15:59:45Z</time>
      </trkpt>
      <trkpt lat="46.11188" lon="6.22735">
        <ele>779.594</ele>
        <time>2020-05-20T15:59:46Z</time>
      </trkpt>
      <trkpt lat="46.11186" lon="6.22746">
        <ele>778.918</ele>
        <time>2020-05-20T15:59:48Z</time>
      </trkpt>
      <trkpt lat="46.11185" lon="6.22759">
        <ele>778.291</ele>
        <time>2020-05-20T15:59:50Z</time>
      </trkpt>
      <trkpt lat="46.11183" lon="6.22769">
        <ele>777.651</ele>
        <time>2020-05-20T15:59:52Z</time>
      </trkpt>
      <trkpt lat="46.11184" lon="6.22781">
        <ele>777.117</ele>
        <time>2020-05-20T15:59:54Z</time>
      </trkpt>
      <trkpt lat="46.11184" lon="6.22791">
        <ele>776.323</ele>
        <time>2020-05-20T15:59:57Z</time>
      </trkpt>
      <trkpt lat="46.11182" lon="6.22799">
        <ele>775.883</ele>
        <time>2020-05-20T15:59:59Z</time>
      </trkpt>
      <trkpt lat="46.11183" lon="6.22809">
        <ele>775.111</ele>
        <time>2020-05-20T16:00:02Z</time>
      </trkpt>
      <trkpt lat="46.1118" lon="6.22818">
        <ele>774.408</ele>
        <time>2020-05-20T16:00:04Z</time>
      </trkpt>
      <trkpt lat="46.11176" lon="6.22826">
        <ele>774.016</ele>
        <time>2020-05-20T16:00:06Z</time>
      </trkpt>
      <trkpt lat="46.11172" lon="6.22836">
        <ele>773.111</ele>
        <time>2020-05-20T16:00:08Z</time>
      </trkpt>
      <trkpt lat="46.11166" lon="6.22843">
        <ele>772.188</ele>
        <time>2020-05-20T16:00:10Z</time>
      </trkpt>
      <trkpt lat="46.11162" lon="6.22847">
        <ele>771.483</ele>
        <time>2020-05-20T16:00:11Z</time>
      </trkpt>
      <trkpt lat="46.11156" lon="6.22852">
        <ele>770.137</ele>
        <time>2020-05-20T16:00:13Z</time>
      </trkpt>
      <trkpt lat="46.11151" lon="6.22853">
        <ele>768.88</ele>
        <time>2020-05-20T16:00:15Z</time>
      </trkpt>
      <trkpt lat="46.11144" lon="6.22859">
        <ele>767.98</ele>
        <time>2020-05-20T16:00:17Z</time>
      </trkpt>
      <trkpt lat="46.11138" lon="6.22863">
        <ele>767.046</ele>
        <time>2020-05-20T16:00:19Z</time>
      </trkpt>
      <trkpt lat="46.11133" lon="6.22864">
        <ele>766.566</ele>
        <time>2020-05-20T16:00:20Z</time>
      </trkpt>
      <trkpt lat="46.11129" lon="6.22868">
        <ele>765.929</ele>
        <time>2020-05-20T16:00:21Z</time>
      </trkpt>
      <trkpt lat="46.11124" lon="6.22872">
        <ele>765.221</ele>
        <time>2020-05-20T16:00:22Z</time>
      </trkpt>
      <trkpt lat="46.11117" lon="6.22874">
        <ele>763.608</ele>
        <time>2020-05-20T16:00:24Z</time>
      </trkpt>
      <trkpt lat="46.11112" lon="6.22877">
        <ele>762.88</ele>
        <time>2020-05-20T16:00:25Z</time>
      </trkpt>
      <trkpt lat="46.11106" lon="6.22877">
        <ele>762.025</ele>
        <time>2020-05-20T16:00:26Z</time>
      </trkpt>
      <trkpt lat="46.11098" lon="6.22879">
        <ele>760.552</ele>
        <time>2020-05-20T16:00:28Z</time>
      </trkpt>
      <trkpt lat="46.11085" lon="6.22879">
        <ele>759.177</ele>
        <time>2020-05-20T16:00:30Z</time>
      </trkpt>
      <trkpt lat="46.1108" lon="6.22879">
        <ele>758.641</ele>
        <time>2020-05-20T16:00:31Z</time>
      </trkpt>
      <trkpt lat="46.11074" lon="6.22877">
        <ele>757.944</ele>
        <time>2020-05-20T16:00:33Z</time>
      </trkpt>
      <trkpt lat="46.11071" lon="6.22884">
        <ele>757.364</ele>
        <time>2020-05-20T16:00:35Z</time>
      </trkpt>
      <trkpt lat="46.11064" lon="6.22889">
        <ele>756.37</ele>
        <time>2020-05-20T16:00:37Z</time>
      </trkpt>
      <trkpt lat="46.11058" lon="6.22893">
        <ele>754.629</ele>
        <time>2020-05-20T16:00:39Z</time>
      </trkpt>
      <trkpt lat="46.11052" lon="6.22895">
        <ele>753.6</ele>
        <time>2020-05-20T16:00:40Z</time>
      </trkpt>
      <trkpt lat="46.11046" lon="6.22894">
        <ele>752.42</ele>
        <time>2020-05-20T16:00:41Z</time>
      </trkpt>
      <trkpt lat="46.11041" lon="6.2289">
        <ele>749.908</ele>
        <time>2020-05-20T16:00:43Z</time>
      </trkpt>
      <trkpt lat="46.11034" lon="6.22887">
        <ele>746.786</ele>
        <time>2020-05-20T16:00:46Z</time>
      </trkpt>
      <trkpt lat="46.1103" lon="6.22889">
        <ele>745.621</ele>
        <time>2020-05-20T16:00:47Z</time>
      </trkpt>
      <trkpt lat="46.11023" lon="6.2289">
        <ele>743.428</ele>
        <time>2020-05-20T16:00:49Z</time>
      </trkpt>
      <trkpt lat="46.11017" lon="6.22897">
        <ele>741.153</ele>
        <time>2020-05-20T16:00:51Z</time>
      </trkpt>
      <trkpt lat="46.11013" lon="6.22903">
        <ele>740.197</ele>
        <time>2020-05-20T16:00:52Z</time>
      </trkpt>
      <trkpt lat="46.11011" lon="6.22908">
        <ele>739.25</ele>
        <time>2020-05-20T16:00:53Z</time>
      </trkpt>
      <trkpt lat="46.11009" lon="6.22918">
        <ele>737.82</ele>
        <time>2020-05-20T16:00:55Z</time>
      </trkpt>
      <trkpt lat="46.1101" lon="6.22928">
        <ele>736.246</ele>
        <time>2020-05-20T16:00:58Z</time>
      </trkpt>
      <trkpt lat="46.11012" lon="6.22934">
        <ele>735.391</ele>
        <time>2020-05-20T16:01:00Z</time>
      </trkpt>
      <trkpt lat="46.11014" lon="6.22946">
        <ele>733.981</ele>
        <time>2020-05-20T16:01:03Z</time>
      </trkpt>
      <trkpt lat="46.11014" lon="6.22953">
        <ele>731.719</ele>
        <time>2020-05-20T16:01:09Z</time>
      </trkpt>
      <trkpt lat="46.11014" lon="6.2296">
        <ele>731.108</ele>
        <time>2020-05-20T16:01:12Z</time>
      </trkpt>
      <trkpt lat="46.11015" lon="6.22967">
        <ele>729.863</ele>
        <time>2020-05-20T16:01:18Z</time>
      </trkpt>
      <trkpt lat="46.11015" lon="6.2298">
        <ele>728.748</ele>
        <time>2020-05-20T16:01:37Z</time>
      </trkpt>
      <trkpt lat="46.11022" lon="6.23001">
        <ele>725.235</ele>
        <time>2020-05-20T16:02:27Z</time>
      </trkpt>
      <trkpt lat="46.11023" lon="6.23038">
        <ele>722.02</ele>
        <time>2020-05-20T16:02:42Z</time>
      </trkpt>
      <trkpt lat="46.11025" lon="6.23045">
        <ele>721.344</ele>
        <time>2020-05-20T16:02:44Z</time>
      </trkpt>
      <trkpt lat="46.11026" lon="6.23052">
        <ele>720.517</ele>
        <time>2020-05-20T16:02:46Z</time>
      </trkpt>
      <trkpt lat="46.11027" lon="6.23059">
        <ele>719.537</ele>
        <time>2020-05-20T16:02:50Z</time>
      </trkpt>
      <trkpt lat="46.11027" lon="6.23068">
        <ele>719.153</ele>
        <time>2020-05-20T16:02:53Z</time>
      </trkpt>
      <trkpt lat="46.1103" lon="6.23075">
        <ele>717.948</ele>
        <time>2020-05-20T16:03:08Z</time>
      </trkpt>
      <trkpt lat="46.11034" lon="6.23081">
        <ele>718.061</ele>
        <time>2020-05-20T16:03:10Z</time>
      </trkpt>
      <trkpt lat="46.11036" lon="6.2309">
        <ele>717.817</ele>
        <time>2020-05-20T16:03:12Z</time>
      </trkpt>
      <trkpt lat="46.11039" lon="6.23097">
        <ele>717.308</ele>
        <time>2020-05-20T16:03:14Z</time>
      </trkpt>
      <trkpt lat="46.11042" lon="6.23104">
        <ele>716.478</ele>
        <time>2020-05-20T16:03:17Z</time>
      </trkpt>
      <trkpt lat="46.11043" lon="6.23112">
        <ele>715.383</ele>
        <time>2020-05-20T16:03:21Z</time>
      </trkpt>
      <trkpt lat="46.11044" lon="6.23122">
        <ele>713.95</ele>
        <time>2020-05-20T16:03:24Z</time>
      </trkpt>
      <trkpt lat="46.11045" lon="6.23132">
        <ele>712.595</ele>
        <time>2020-05-20T16:03:27Z</time>
      </trkpt>
      <trkpt lat="46.11049" lon="6.23138">
        <ele>711.799</ele>
        <time>2020-05-20T16:03:29Z</time>
      </trkpt>
      <trkpt lat="46.11053" lon="6.23144">
        <ele>710.842</ele>
        <time>2020-05-20T16:03:32Z</time>
      </trkpt>
      <trkpt lat="46.11054" lon="6.23152">
        <ele>710.162</ele>
        <time>2020-05-20T16:03:34Z</time>
      </trkpt>
      <trkpt lat="46.11056" lon="6.23159">
        <ele>708.918</ele>
        <time>2020-05-20T16:03:37Z</time>
      </trkpt>
      <trkpt lat="46.1106" lon="6.23168">
        <ele>708.182</ele>
        <time>2020-05-20T16:03:39Z</time>
      </trkpt>
      <trkpt lat="46.11063" lon="6.23177">
        <ele>707.343</ele>
        <time>2020-05-20T16:03:41Z</time>
      </trkpt>
      <trkpt lat="46.11066" lon="6.23186">
        <ele>706.617</ele>
        <time>2020-05-20T16:03:43Z</time>
      </trkpt>
      <trkpt lat="46.11063" lon="6.23191">
        <ele>705.608</ele>
        <time>2020-05-20T16:03:46Z</time>
      </trkpt>
      <trkpt lat="46.11057" lon="6.23192">
        <ele>705.112</ele>
        <time>2020-05-20T16:03:48Z</time>
      </trkpt>
      <trkpt lat="46.1105" lon="6.23194">
        <ele>704.827</ele>
        <time>2020-05-20T16:03:50Z</time>
      </trkpt>
      <trkpt lat="46.11042" lon="6.23193">
        <ele>704.664</ele>
        <time>2020-05-20T16:03:52Z</time>
      </trkpt>
      <trkpt lat="46.11036" lon="6.23193">
        <ele>704.529</ele>
        <time>2020-05-20T16:03:53Z</time>
      </trkpt>
      <trkpt lat="46.11029" lon="6.23195">
        <ele>704.453</ele>
        <time>2020-05-20T16:03:54Z</time>
      </trkpt>
      <trkpt lat="46.11024" lon="6.23191">
        <ele>704.066</ele>
        <time>2020-05-20T16:03:56Z</time>
      </trkpt>
      <trkpt lat="46.11019" lon="6.23193">
        <ele>703.776</ele>
        <time>2020-05-20T16:03:57Z</time>
      </trkpt>
      <trkpt lat="46.11015" lon="6.23196">
        <ele>703.422</ele>
        <time>2020-05-20T16:03:58Z</time>
      </trkpt>
      <trkpt lat="46.11009" lon="6.23197">
        <ele>703.281</ele>
        <time>2020-05-20T16:03:59Z</time>
      </trkpt>
      <trkpt lat="46.11003" lon="6.23201">
        <ele>703.261</ele>
        <time>2020-05-20T16:04:00Z</time>
      </trkpt>
      <trkpt lat="46.10997" lon="6.23205">
        <ele>703.217</ele>
        <time>2020-05-20T16:04:01Z</time>
      </trkpt>
      <trkpt lat="46.10994" lon="6.23208">
        <ele>703.408</ele>
        <time>2020-05-20T16:04:02Z</time>
      </trkpt>
      <trkpt lat="46.10989" lon="6.23214">
        <ele>704.192</ele>
        <time>2020-05-20T16:04:05Z</time>
      </trkpt>
      <trkpt lat="46.10984" lon="6.23216">
        <ele>704.277</ele>
        <time>2020-05-20T16:04:06Z</time>
      </trkpt>
      <trkpt lat="46.10977" lon="6.23214">
        <ele>704.514</ele>
        <time>2020-05-20T16:04:08Z</time>
      </trkpt>
      <trkpt lat="46.10971" lon="6.23211">
        <ele>704.729</ele>
        <time>2020-05-20T16:04:09Z</time>
      </trkpt>
      <trkpt lat="46.10965" lon="6.23207">
        <ele>704.993</ele>
        <time>2020-05-20T16:04:10Z</time>
      </trkpt>
      <trkpt lat="46.10955" lon="6.23205">
        <ele>705.246</ele>
        <time>2020-05-20T16:04:11Z</time>
      </trkpt>
      <trkpt lat="46.10941" lon="6.23199">
        <ele>705.536</ele>
        <time>2020-05-20T16:04:12Z</time>
      </trkpt>
      <trkpt lat="46.10929" lon="6.23192">
        <ele>705.842</ele>
        <time>2020-05-20T16:04:13Z</time>
      </trkpt>
      <trkpt lat="46.10916" lon="6.23185">
        <ele>706.445</ele>
        <time>2020-05-20T16:04:14Z</time>
      </trkpt>
      <trkpt lat="46.10906" lon="6.23182">
        <ele>707.147</ele>
        <time>2020-05-20T16:04:15Z</time>
      </trkpt>
      <trkpt lat="46.10894" lon="6.23177">
        <ele>707.911</ele>
        <time>2020-05-20T16:04:16Z</time>
      </trkpt>
      <trkpt lat="46.10887" lon="6.23171">
        <ele>708.908</ele>
        <time>2020-05-20T16:04:17Z</time>
      </trkpt>
      <trkpt lat="46.10882" lon="6.23167">
        <ele>709.628</ele>
        <time>2020-05-20T16:04:18Z</time>
      </trkpt>
      <trkpt lat="46.10876" lon="6.23164">
        <ele>710.553</ele>
        <time>2020-05-20T16:04:21Z</time>
      </trkpt>
      <trkpt lat="46.10871" lon="6.2316">
        <ele>710.69</ele>
        <time>2020-05-20T16:04:22Z</time>
      </trkpt>
      <trkpt lat="46.10865" lon="6.23156">
        <ele>710.715</ele>
        <time>2020-05-20T16:04:23Z</time>
      </trkpt>
      <trkpt lat="46.10856" lon="6.23148">
        <ele>711.149</ele>
        <time>2020-05-20T16:04:24Z</time>
      </trkpt>
      <trkpt lat="46.10847" lon="6.23137">
        <ele>711.742</ele>
        <time>2020-05-20T16:04:25Z</time>
      </trkpt>
      <trkpt lat="46.10837" lon="6.2313">
        <ele>712.532</ele>
        <time>2020-05-20T16:04:26Z</time>
      </trkpt>
      <trkpt lat="46.10826" lon="6.23121">
        <ele>713.198</ele>
        <time>2020-05-20T16:04:27Z</time>
      </trkpt>
      <trkpt lat="46.10818" lon="6.23119">
        <ele>713.622</ele>
        <time>2020-05-20T16:04:28Z</time>
      </trkpt>
      <trkpt lat="46.10811" lon="6.23119">
        <ele>713.862</ele>
        <time>2020-05-20T16:04:29Z</time>
      </trkpt>
      <trkpt lat="46.10802" lon="6.2312">
        <ele>713.808</ele>
        <time>2020-05-20T16:04:30Z</time>
      </trkpt>
      <trkpt lat="46.10794" lon="6.23121">
        <ele>713.608</ele>
        <time>2020-05-20T16:04:31Z</time>
      </trkpt>
      <trkpt lat="46.10786" lon="6.23125">
        <ele>713.566</ele>
        <time>2020-05-20T16:04:32Z</time>
      </trkpt>
      <trkpt lat="46.1078" lon="6.23129">
        <ele>713.351</ele>
        <time>2020-05-20T16:04:33Z</time>
      </trkpt>
      <trkpt lat="46.10773" lon="6.2313">
        <ele>712.998</ele>
        <time>2020-05-20T16:04:34Z</time>
      </trkpt>
      <trkpt lat="46.10766" lon="6.23129">
        <ele>712.313</ele>
        <time>2020-05-20T16:04:35Z</time>
      </trkpt>
      <trkpt lat="46.10758" lon="6.23126">
        <ele>711.797</ele>
        <time>2020-05-20T16:04:36Z</time>
      </trkpt>
      <trkpt lat="46.10749" lon="6.23119">
        <ele>711.19</ele>
        <time>2020-05-20T16:04:37Z</time>
      </trkpt>
      <trkpt lat="46.10738" lon="6.23111">
        <ele>710.66</ele>
        <time>2020-05-20T16:04:38Z</time>
      </trkpt>
      <trkpt lat="46.10723" lon="6.23104">
        <ele>710.646</ele>
        <time>2020-05-20T16:04:39Z</time>
      </trkpt>
      <trkpt lat="46.10707" lon="6.23097">
        <ele>710.754</ele>
        <time>2020-05-20T16:04:40Z</time>
      </trkpt>
      <trkpt lat="46.10695" lon="6.23091">
        <ele>711.256</ele>
        <time>2020-05-20T16:04:41Z</time>
      </trkpt>
      <trkpt lat="46.10684" lon="6.23085">
        <ele>711.711</ele>
        <time>2020-05-20T16:04:42Z</time>
      </trkpt>
      <trkpt lat="46.10674" lon="6.2308">
        <ele>712.208</ele>
        <time>2020-05-20T16:04:43Z</time>
      </trkpt>
      <trkpt lat="46.10663" lon="6.23072">
        <ele>712.549</ele>
        <time>2020-05-20T16:04:44Z</time>
      </trkpt>
      <trkpt lat="46.1065" lon="6.23062">
        <ele>712.694</ele>
        <time>2020-05-20T16:04:45Z</time>
      </trkpt>
      <trkpt lat="46.10636" lon="6.23049">
        <ele>712.691</ele>
        <time>2020-05-20T16:04:46Z</time>
      </trkpt>
      <trkpt lat="46.10619" lon="6.23035">
        <ele>712.826</ele>
        <time>2020-05-20T16:04:47Z</time>
      </trkpt>
      <trkpt lat="46.10606" lon="6.23023">
        <ele>713.25</ele>
        <time>2020-05-20T16:04:48Z</time>
      </trkpt>
      <trkpt lat="46.10594" lon="6.23014">
        <ele>713.853</ele>
        <time>2020-05-20T16:04:49Z</time>
      </trkpt>
      <trkpt lat="46.1058" lon="6.23006">
        <ele>714.573</ele>
        <time>2020-05-20T16:04:50Z</time>
      </trkpt>
      <trkpt lat="46.10567" lon="6.22998">
        <ele>715.459</ele>
        <time>2020-05-20T16:04:51Z</time>
      </trkpt>
      <trkpt lat="46.10557" lon="6.22991">
        <ele>716.261</ele>
        <time>2020-05-20T16:04:52Z</time>
      </trkpt>
      <trkpt lat="46.10552" lon="6.22985">
        <ele>716.821</ele>
        <time>2020-05-20T16:04:53Z</time>
      </trkpt>
      <trkpt lat="46.10547" lon="6.22984">
        <ele>717.613</ele>
        <time>2020-05-20T16:04:54Z</time>
      </trkpt>
      <trkpt lat="46.10542" lon="6.22984">
        <ele>718.508</ele>
        <time>2020-05-20T16:04:55Z</time>
      </trkpt>
      <trkpt lat="46.10534" lon="6.22984">
        <ele>719.28</ele>
        <time>2020-05-20T16:04:56Z</time>
      </trkpt>
      <trkpt lat="46.10526" lon="6.2298">
        <ele>719.715</ele>
        <time>2020-05-20T16:04:57Z</time>
      </trkpt>
      <trkpt lat="46.10517" lon="6.22976">
        <ele>719.712</ele>
        <time>2020-05-20T16:04:58Z</time>
      </trkpt>
      <trkpt lat="46.10507" lon="6.22974">
        <ele>719.667</ele>
        <time>2020-05-20T16:04:59Z</time>
      </trkpt>
      <trkpt lat="46.10498" lon="6.22971">
        <ele>719.361</ele>
        <time>2020-05-20T16:05:00Z</time>
      </trkpt>
      <trkpt lat="46.1049" lon="6.22969">
        <ele>718.664</ele>
        <time>2020-05-20T16:05:01Z</time>
      </trkpt>
      <trkpt lat="46.10482" lon="6.22973">
        <ele>717.834</ele>
        <time>2020-05-20T16:05:02Z</time>
      </trkpt>
      <trkpt lat="46.10473" lon="6.22985">
        <ele>717.06</ele>
        <time>2020-05-20T16:05:03Z</time>
      </trkpt>
      <trkpt lat="46.10465" lon="6.22992">
        <ele>716.061</ele>
        <time>2020-05-20T16:05:04Z</time>
      </trkpt>
      <trkpt lat="46.10458" lon="6.22999">
        <ele>714.821</ele>
        <time>2020-05-20T16:05:05Z</time>
      </trkpt>
      <trkpt lat="46.10451" lon="6.23006">
        <ele>713.613</ele>
        <time>2020-05-20T16:05:06Z</time>
      </trkpt>
      <trkpt lat="46.10443" lon="6.23012">
        <ele>712.408</ele>
        <time>2020-05-20T16:05:07Z</time>
      </trkpt>
      <trkpt lat="46.10433" lon="6.23014">
        <ele>711.29</ele>
        <time>2020-05-20T16:05:08Z</time>
      </trkpt>
      <trkpt lat="46.10423" lon="6.23012">
        <ele>710.175</ele>
        <time>2020-05-20T16:05:09Z</time>
      </trkpt>
      <trkpt lat="46.10412" lon="6.23013">
        <ele>709.122</ele>
        <time>2020-05-20T16:05:10Z</time>
      </trkpt>
      <trkpt lat="46.10402" lon="6.23016">
        <ele>708.377</ele>
        <time>2020-05-20T16:05:11Z</time>
      </trkpt>
      <trkpt lat="46.10392" lon="6.23019">
        <ele>707.581</ele>
        <time>2020-05-20T16:05:12Z</time>
      </trkpt>
      <trkpt lat="46.10381" lon="6.23024">
        <ele>706.754</ele>
        <time>2020-05-20T16:05:13Z</time>
      </trkpt>
      <trkpt lat="46.1037" lon="6.23027">
        <ele>705.914</ele>
        <time>2020-05-20T16:05:14Z</time>
      </trkpt>
      <trkpt lat="46.10359" lon="6.23029">
        <ele>705.19</ele>
        <time>2020-05-20T16:05:15Z</time>
      </trkpt>
      <trkpt lat="46.10348" lon="6.23032">
        <ele>704.167</ele>
        <time>2020-05-20T16:05:16Z</time>
      </trkpt>
      <trkpt lat="46.10338" lon="6.23035">
        <ele>702.981</ele>
        <time>2020-05-20T16:05:17Z</time>
      </trkpt>
      <trkpt lat="46.10328" lon="6.23038">
        <ele>701.619</ele>
        <time>2020-05-20T16:05:18Z</time>
      </trkpt>
      <trkpt lat="46.1032" lon="6.23041">
        <ele>700.208</ele>
        <time>2020-05-20T16:05:19Z</time>
      </trkpt>
      <trkpt lat="46.10314" lon="6.23047">
        <ele>698.65</ele>
        <time>2020-05-20T16:05:20Z</time>
      </trkpt>
      <trkpt lat="46.10312" lon="6.23055">
        <ele>697.075</ele>
        <time>2020-05-20T16:05:21Z</time>
      </trkpt>
      <trkpt lat="46.10312" lon="6.23064">
        <ele>695.522</ele>
        <time>2020-05-20T16:05:22Z</time>
      </trkpt>
      <trkpt lat="46.10316" lon="6.23074">
        <ele>694.277</ele>
        <time>2020-05-20T16:05:23Z</time>
      </trkpt>
      <trkpt lat="46.10321" lon="6.23078">
        <ele>693.061</ele>
        <time>2020-05-20T16:05:24Z</time>
      </trkpt>
      <trkpt lat="46.10326" lon="6.23077">
        <ele>692.144</ele>
        <time>2020-05-20T16:05:25Z</time>
      </trkpt>
      <trkpt lat="46.10331" lon="6.23079">
        <ele>691.324</ele>
        <time>2020-05-20T16:05:26Z</time>
      </trkpt>
      <trkpt lat="46.10333" lon="6.23085">
        <ele>690.51</ele>
        <time>2020-05-20T16:05:27Z</time>
      </trkpt>
      <trkpt lat="46.10331" lon="6.23092">
        <ele>689.731</ele>
        <time>2020-05-20T16:05:28Z</time>
      </trkpt>
      <trkpt lat="46.10325" lon="6.23094">
        <ele>688.961</ele>
        <time>2020-05-20T16:05:29Z</time>
      </trkpt>
      <trkpt lat="46.10317" lon="6.23095">
        <ele>688.007</ele>
        <time>2020-05-20T16:05:30Z</time>
      </trkpt>
      <trkpt lat="46.10308" lon="6.23097">
        <ele>687.208</ele>
        <time>2020-05-20T16:05:31Z</time>
      </trkpt>
      <trkpt lat="46.103" lon="6.23099">
        <ele>686.547</ele>
        <time>2020-05-20T16:05:32Z</time>
      </trkpt>
      <trkpt lat="46.10291" lon="6.23099">
        <ele>685.822</ele>
        <time>2020-05-20T16:05:33Z</time>
      </trkpt>
      <trkpt lat="46.10283" lon="6.23096">
        <ele>685.299</ele>
        <time>2020-05-20T16:05:34Z</time>
      </trkpt>
      <trkpt lat="46.10277" lon="6.23096">
        <ele>684.654</ele>
        <time>2020-05-20T16:05:35Z</time>
      </trkpt>
      <trkpt lat="46.10272" lon="6.23103">
        <ele>683.938</ele>
        <time>2020-05-20T16:05:36Z</time>
      </trkpt>
      <trkpt lat="46.1027" lon="6.23113">
        <ele>683.141</ele>
        <time>2020-05-20T16:05:37Z</time>
      </trkpt>
      <trkpt lat="46.1027" lon="6.23122">
        <ele>682.391</ele>
        <time>2020-05-20T16:05:38Z</time>
      </trkpt>
      <trkpt lat="46.10269" lon="6.23132">
        <ele>681.647</ele>
        <time>2020-05-20T16:05:39Z</time>
      </trkpt>
      <trkpt lat="46.10269" lon="6.23142">
        <ele>681.352</ele>
        <time>2020-05-20T16:05:40Z</time>
      </trkpt>
      <trkpt lat="46.10267" lon="6.23151">
        <ele>681.353</ele>
        <time>2020-05-20T16:05:41Z</time>
      </trkpt>
      <trkpt lat="46.10262" lon="6.23158">
        <ele>681.708</ele>
        <time>2020-05-20T16:05:42Z</time>
      </trkpt>
      <trkpt lat="46.10252" lon="6.2316">
        <ele>682.408</ele>
        <time>2020-05-20T16:05:43Z</time>
      </trkpt>
      <trkpt lat="46.1024" lon="6.23164">
        <ele>683.459</ele>
        <time>2020-05-20T16:05:44Z</time>
      </trkpt>
      <trkpt lat="46.10227" lon="6.23162">
        <ele>684.634</ele>
        <time>2020-05-20T16:05:45Z</time>
      </trkpt>
      <trkpt lat="46.10212" lon="6.2316">
        <ele>685.931</ele>
        <time>2020-05-20T16:05:46Z</time>
      </trkpt>
      <trkpt lat="46.10199" lon="6.2316">
        <ele>687.416</ele>
        <time>2020-05-20T16:05:47Z</time>
      </trkpt>
      <trkpt lat="46.10187" lon="6.23161">
        <ele>689.37</ele>
        <time>2020-05-20T16:05:48Z</time>
      </trkpt>
      <trkpt lat="46.10177" lon="6.23162">
        <ele>691.253</ele>
        <time>2020-05-20T16:05:49Z</time>
      </trkpt>
      <trkpt lat="46.10168" lon="6.23168">
        <ele>692.793</ele>
        <time>2020-05-20T16:05:50Z</time>
      </trkpt>
      <trkpt lat="46.1016" lon="6.23178">
        <ele>694.079</ele>
        <time>2020-05-20T16:05:51Z</time>
      </trkpt>
      <trkpt lat="46.10159" lon="6.23193">
        <ele>695.122</ele>
        <time>2020-05-20T16:05:52Z</time>
      </trkpt>
      <trkpt lat="46.10164" lon="6.23208">
        <ele>696.062</ele>
        <time>2020-05-20T16:05:53Z</time>
      </trkpt>
      <trkpt lat="46.10173" lon="6.23222">
        <ele>696.808</ele>
        <time>2020-05-20T16:05:54Z</time>
      </trkpt>
      <trkpt lat="46.10184" lon="6.23237">
        <ele>697.808</ele>
        <time>2020-05-20T16:05:55Z</time>
      </trkpt>
      <trkpt lat="46.10194" lon="6.2325">
        <ele>699.226</ele>
        <time>2020-05-20T16:05:56Z</time>
      </trkpt>
      <trkpt lat="46.102" lon="6.23263">
        <ele>700.781</ele>
        <time>2020-05-20T16:05:57Z</time>
      </trkpt>
      <trkpt lat="46.10205" lon="6.23278">
        <ele>702.168</ele>
        <time>2020-05-20T16:05:58Z</time>
      </trkpt>
      <trkpt lat="46.10212" lon="6.23287">
        <ele>703.513</ele>
        <time>2020-05-20T16:05:59Z</time>
      </trkpt>
      <trkpt lat="46.10215" lon="6.23293">
        <ele>704.917</ele>
        <time>2020-05-20T16:06:00Z</time>
      </trkpt>
      <trkpt lat="46.10223" lon="6.23294">
        <ele>707.06</ele>
        <time>2020-05-20T16:06:02Z</time>
      </trkpt>
      <trkpt lat="46.10226" lon="6.23287">
        <ele>707.95</ele>
        <time>2020-05-20T16:06:03Z</time>
      </trkpt>
      <trkpt lat="46.10229" lon="6.23277">
        <ele>708.766</ele>
        <time>2020-05-20T16:06:04Z</time>
      </trkpt>
      <trkpt lat="46.10194" lon="6.23328">
        <ele>709.357</ele>
        <time>2020-05-20T16:06:05Z</time>
      </trkpt>
      <trkpt lat="46.10189" lon="6.23321">
        <ele>709.8</ele>
        <time>2020-05-20T16:06:06Z</time>
      </trkpt>
      <trkpt lat="46.10185" lon="6.23313">
        <ele>710.12</ele>
        <time>2020-05-20T16:06:07Z</time>
      </trkpt>
      <trkpt lat="46.10179" lon="6.23299">
        <ele>710.308</ele>
        <time>2020-05-20T16:06:08Z</time>
      </trkpt>
      <trkpt lat="46.10173" lon="6.23288">
        <ele>710.529</ele>
        <time>2020-05-20T16:06:09Z</time>
      </trkpt>
      <trkpt lat="46.10164" lon="6.23283">
        <ele>710.634</ele>
        <time>2020-05-20T16:06:10Z</time>
      </trkpt>
      <trkpt lat="46.10157" lon="6.23282">
        <ele>710.661</ele>
        <time>2020-05-20T16:06:11Z</time>
      </trkpt>
      <trkpt lat="46.10149" lon="6.2328">
        <ele>710.626</ele>
        <time>2020-05-20T16:06:12Z</time>
      </trkpt>
      <trkpt lat="46.10142" lon="6.23277">
        <ele>710.72</ele>
        <time>2020-05-20T16:06:13Z</time>
      </trkpt>
      <trkpt lat="46.10131" lon="6.23276">
        <ele>711.123</ele>
        <time>2020-05-20T16:06:14Z</time>
      </trkpt>
      <trkpt lat="46.1012" lon="6.23277">
        <ele>711.743</ele>
        <time>2020-05-20T16:06:15Z</time>
      </trkpt>
      <trkpt lat="46.10109" lon="6.23274">
        <ele>712.539</ele>
        <time>2020-05-20T16:06:16Z</time>
      </trkpt>
      <trkpt lat="46.101" lon="6.23269">
        <ele>713.476</ele>
        <time>2020-05-20T16:06:17Z</time>
      </trkpt>
      <trkpt lat="46.1009" lon="6.23259">
        <ele>714.29</ele>
        <time>2020-05-20T16:06:18Z</time>
      </trkpt>
      <trkpt lat="46.1008" lon="6.23251">
        <ele>714.919</ele>
        <time>2020-05-20T16:06:19Z</time>
      </trkpt>
      <trkpt lat="46.10069" lon="6.23246">
        <ele>715.408</ele>
        <time>2020-05-20T16:06:20Z</time>
      </trkpt>
      <trkpt lat="46.10061" lon="6.2324">
        <ele>715.991</ele>
        <time>2020-05-20T16:06:21Z</time>
      </trkpt>
      <trkpt lat="46.10052" lon="6.23232">
        <ele>716.366</ele>
        <time>2020-05-20T16:06:22Z</time>
      </trkpt>
      <trkpt lat="46.10043" lon="6.23223">
        <ele>716.773</ele>
        <time>2020-05-20T16:06:23Z</time>
      </trkpt>
      <trkpt lat="46.10035" lon="6.23217">
        <ele>716.928</ele>
        <time>2020-05-20T16:06:24Z</time>
      </trkpt>
      <trkpt lat="46.10029" lon="6.23216">
        <ele>717.012</ele>
        <time>2020-05-20T16:06:25Z</time>
      </trkpt>
      <trkpt lat="46.10022" lon="6.23215">
        <ele>717.055</ele>
        <time>2020-05-20T16:06:26Z</time>
      </trkpt>
      <trkpt lat="46.10011" lon="6.23216">
        <ele>717.075</ele>
        <time>2020-05-20T16:06:27Z</time>
      </trkpt>
      <trkpt lat="46.10004" lon="6.23218">
        <ele>717.071</ele>
        <time>2020-05-20T16:06:28Z</time>
      </trkpt>
      <trkpt lat="46.09999" lon="6.23222">
        <ele>717.064</ele>
        <time>2020-05-20T16:06:30Z</time>
      </trkpt>
      <trkpt lat="46.10001" lon="6.23228">
        <ele>717.006</ele>
        <time>2020-05-20T16:06:31Z</time>
      </trkpt>
      <trkpt lat="46.09999" lon="6.23237">
        <ele>717.216</ele>
        <time>2020-05-20T16:06:35Z</time>
      </trkpt>
      <trkpt lat="46.09998" lon="6.23245">
        <ele>718.008</ele>
        <time>2020-05-20T16:06:40Z</time>
      </trkpt>
      <trkpt lat="46.09993" lon="6.23255">
        <ele>719.84</ele>
        <time>2020-05-20T16:06:53Z</time>
      </trkpt>
      <trkpt lat="46.0999" lon="6.2326">
        <ele>720.155</ele>
        <time>2020-05-20T16:06:56Z</time>
      </trkpt>
      <trkpt lat="46.09987" lon="6.23269">
        <ele>721.742</ele>
        <time>2020-05-20T16:07:00Z</time>
      </trkpt>
      <trkpt lat="46.09983" lon="6.23272">
        <ele>722.217</ele>
        <time>2020-05-20T16:07:02Z</time>
      </trkpt>
      <trkpt lat="46.09978" lon="6.23277">
        <ele>722.541</ele>
        <time>2020-05-20T16:07:04Z</time>
      </trkpt>
      <trkpt lat="46.09972" lon="6.23282">
        <ele>723.284</ele>
        <time>2020-05-20T16:07:06Z</time>
      </trkpt>
      <trkpt lat="46.09967" lon="6.23288">
        <ele>724.524</ele>
        <time>2020-05-20T16:07:08Z</time>
      </trkpt>
      <trkpt lat="46.09966" lon="6.23295">
        <ele>725.12</ele>
        <time>2020-05-20T16:07:09Z</time>
      </trkpt>
      <trkpt lat="46.09962" lon="6.23302">
        <ele>725.936</ele>
        <time>2020-05-20T16:07:10Z</time>
      </trkpt>
      <trkpt lat="46.09959" lon="6.23307">
        <ele>726.717</ele>
        <time>2020-05-20T16:07:11Z</time>
      </trkpt>
      <trkpt lat="46.09954" lon="6.23312">
        <ele>727.418</ele>
        <time>2020-05-20T16:07:12Z</time>
      </trkpt>
      <trkpt lat="46.0995" lon="6.23317">
        <ele>728.208</ele>
        <time>2020-05-20T16:07:13Z</time>
      </trkpt>
      <trkpt lat="46.09952" lon="6.23324">
        <ele>729.937</ele>
        <time>2020-05-20T16:07:15Z</time>
      </trkpt>
      <trkpt lat="46.09959" lon="6.23329">
        <ele>731.472</ele>
        <time>2020-05-20T16:07:17Z</time>
      </trkpt>
      <trkpt lat="46.09962" lon="6.23336">
        <ele>732.049</ele>
        <time>2020-05-20T16:07:18Z</time>
      </trkpt>
      <trkpt lat="46.09963" lon="6.23344">
        <ele>732.634</ele>
        <time>2020-05-20T16:07:19Z</time>
      </trkpt>
      <trkpt lat="46.09962" lon="6.23351">
        <ele>733.048</ele>
        <time>2020-05-20T16:07:20Z</time>
      </trkpt>
      <trkpt lat="46.0996" lon="6.23357">
        <ele>733.361</ele>
        <time>2020-05-20T16:07:21Z</time>
      </trkpt>
      <trkpt lat="46.09957" lon="6.23364">
        <ele>733.721</ele>
        <time>2020-05-20T16:07:23Z</time>
      </trkpt>
      <trkpt lat="46.0996" lon="6.23373">
        <ele>734.237</ele>
        <time>2020-05-20T16:07:25Z</time>
      </trkpt>
      <trkpt lat="46.09968" lon="6.23378">
        <ele>734.589</ele>
        <time>2020-05-20T16:07:26Z</time>
      </trkpt>
      <trkpt lat="46.09976" lon="6.23384">
        <ele>734.806</ele>
        <time>2020-05-20T16:07:27Z</time>
      </trkpt>
      <trkpt lat="46.09986" lon="6.23389">
        <ele>735.226</ele>
        <time>2020-05-20T16:07:28Z</time>
      </trkpt>
      <trkpt lat="46.09995" lon="6.23394">
        <ele>735.608</ele>
        <time>2020-05-20T16:07:29Z</time>
      </trkpt>
      <trkpt lat="46.10007" lon="6.23402">
        <ele>736.012</ele>
        <time>2020-05-20T16:07:30Z</time>
      </trkpt>
      <trkpt lat="46.1002" lon="6.23409">
        <ele>736.487</ele>
        <time>2020-05-20T16:07:31Z</time>
      </trkpt>
      <trkpt lat="46.10028" lon="6.23414">
        <ele>736.864</ele>
        <time>2020-05-20T16:07:32Z</time>
      </trkpt>
      <trkpt lat="46.10034" lon="6.23415">
        <ele>736.869</ele>
        <time>2020-05-20T16:07:33Z</time>
      </trkpt>
      <trkpt lat="46.10039" lon="6.23415">
        <ele>736.853</ele>
        <time>2020-05-20T16:07:34Z</time>
      </trkpt>
    </trkseg>
  </trk>
</gpx>